<?xml version="1.0" encoding="utf-8"?>
<gpx xmlns:xsi="http://www.w3.org/2001/XMLSchema-instance" xmlns:xsd="http://www.w3.org/2001/XMLSchema" version="1.1" creator="Shapelink.com" xmlns="http://www.topografix.com/GPX/1/1" xmlns:gpxtpx="http://www.garmin.com/xmlschemas/TrackPointExtension/v1">
  <metadata>
    <name>Gåing 25.60 km, 2013-03-10</name>
    <desc></desc>
    <author><name>Mikael Blom</name></author> 
    <time>2013-03-10T09:58:45Z</time>
  </metadata>
  <trk>
    <name>Gåing 25.60 km, 2013-03-10</name>
    <trkseg>
      <trkpt lat="59.9519681" lon="17.6732671">
        <ele>28.0155</ele>
        <time>2013-03-10T09:58:45Z</time>
      </trkpt>
      <trkpt lat="59.9519648" lon="17.6732397">
        <ele>28.0155</ele>
        <time>2013-03-10T09:58:46Z</time>
      </trkpt>
      <trkpt lat="59.951961" lon="17.6732121">
        <ele>28.0155</ele>
        <time>2013-03-10T09:58:47Z</time>
      </trkpt>
      <trkpt lat="59.9519566" lon="17.6731868">
        <ele>28.0155</ele>
        <time>2013-03-10T09:58:48Z</time>
      </trkpt>
      <trkpt lat="59.9519519" lon="17.6731612">
        <ele>27.5349</ele>
        <time>2013-03-10T09:58:49Z</time>
      </trkpt>
      <trkpt lat="59.9519478" lon="17.673134">
        <ele>27.5349</ele>
        <time>2013-03-10T09:58:50Z</time>
      </trkpt>
      <trkpt lat="59.9519441" lon="17.673107">
        <ele>28.0155</ele>
        <time>2013-03-10T09:58:51Z</time>
      </trkpt>
      <trkpt lat="59.9519406" lon="17.6730794">
        <ele>28.0155</ele>
        <time>2013-03-10T09:58:52Z</time>
      </trkpt>
      <trkpt lat="59.9519367" lon="17.6730519">
        <ele>28.0155</ele>
        <time>2013-03-10T09:58:53Z</time>
      </trkpt>
      <trkpt lat="59.9519322" lon="17.6730237">
        <ele>28.0155</ele>
        <time>2013-03-10T09:58:54Z</time>
      </trkpt>
      <trkpt lat="59.9519282" lon="17.6729952">
        <ele>28.0155</ele>
        <time>2013-03-10T09:58:55Z</time>
      </trkpt>
      <trkpt lat="59.951925" lon="17.6729682">
        <ele>28.0155</ele>
        <time>2013-03-10T09:58:56Z</time>
      </trkpt>
      <trkpt lat="59.9519211" lon="17.6729416">
        <ele>28.0155</ele>
        <time>2013-03-10T09:58:57Z</time>
      </trkpt>
      <trkpt lat="59.9519162" lon="17.6729155">
        <ele>28.0155</ele>
        <time>2013-03-10T09:58:58Z</time>
      </trkpt>
      <trkpt lat="59.9519113" lon="17.6728889">
        <ele>28.0155</ele>
        <time>2013-03-10T09:58:59Z</time>
      </trkpt>
      <trkpt lat="59.9519075" lon="17.6728642">
        <ele>28.0155</ele>
        <time>2013-03-10T09:59:00Z</time>
      </trkpt>
      <trkpt lat="59.9519042" lon="17.6728399">
        <ele>28.0155</ele>
        <time>2013-03-10T09:59:01Z</time>
      </trkpt>
      <trkpt lat="59.951901" lon="17.6728145">
        <ele>27.5349</ele>
        <time>2013-03-10T09:59:02Z</time>
      </trkpt>
      <trkpt lat="59.951897" lon="17.6727863">
        <ele>28.0155</ele>
        <time>2013-03-10T09:59:03Z</time>
      </trkpt>
      <trkpt lat="59.9518939" lon="17.6727568">
        <ele>28.0155</ele>
        <time>2013-03-10T09:59:04Z</time>
      </trkpt>
      <trkpt lat="59.9518911" lon="17.6727305">
        <ele>28.0155</ele>
        <time>2013-03-10T09:59:05Z</time>
      </trkpt>
      <trkpt lat="59.9518882" lon="17.6727056">
        <ele>28.0155</ele>
        <time>2013-03-10T09:59:06Z</time>
      </trkpt>
      <trkpt lat="59.9518861" lon="17.6726792">
        <ele>28.0155</ele>
        <time>2013-03-10T09:59:07Z</time>
      </trkpt>
      <trkpt lat="59.9518829" lon="17.6726507">
        <ele>28.0155</ele>
        <time>2013-03-10T09:59:08Z</time>
      </trkpt>
      <trkpt lat="59.9518794" lon="17.6726227">
        <ele>28.0155</ele>
        <time>2013-03-10T09:59:09Z</time>
      </trkpt>
      <trkpt lat="59.9518759" lon="17.6725954">
        <ele>28.4962</ele>
        <time>2013-03-10T09:59:10Z</time>
      </trkpt>
      <trkpt lat="59.9518737" lon="17.6725688">
        <ele>28.4962</ele>
        <time>2013-03-10T09:59:11Z</time>
      </trkpt>
      <trkpt lat="59.9518714" lon="17.6725404">
        <ele>28.9769</ele>
        <time>2013-03-10T09:59:12Z</time>
      </trkpt>
      <trkpt lat="59.9518686" lon="17.6725112">
        <ele>28.9769</ele>
        <time>2013-03-10T09:59:13Z</time>
      </trkpt>
      <trkpt lat="59.9518655" lon="17.6724833">
        <ele>28.9769</ele>
        <time>2013-03-10T09:59:14Z</time>
      </trkpt>
      <trkpt lat="59.9518622" lon="17.6724557">
        <ele>28.9769</ele>
        <time>2013-03-10T09:59:15Z</time>
      </trkpt>
      <trkpt lat="59.9518595" lon="17.6724286">
        <ele>28.9769</ele>
        <time>2013-03-10T09:59:16Z</time>
      </trkpt>
      <trkpt lat="59.9518566" lon="17.6724036">
        <ele>28.9769</ele>
        <time>2013-03-10T09:59:17Z</time>
      </trkpt>
      <trkpt lat="59.951853" lon="17.6723782">
        <ele>28.9769</ele>
        <time>2013-03-10T09:59:18Z</time>
      </trkpt>
      <trkpt lat="59.9518496" lon="17.6723543">
        <ele>28.4962</ele>
        <time>2013-03-10T09:59:19Z</time>
      </trkpt>
      <trkpt lat="59.9518467" lon="17.6723295">
        <ele>28.4962</ele>
        <time>2013-03-10T09:59:20Z</time>
      </trkpt>
      <trkpt lat="59.9518446" lon="17.6723032">
        <ele>28.4962</ele>
        <time>2013-03-10T09:59:21Z</time>
      </trkpt>
      <trkpt lat="59.9518424" lon="17.672272">
        <ele>28.4962</ele>
        <time>2013-03-10T09:59:22Z</time>
      </trkpt>
      <trkpt lat="59.9518403" lon="17.6722387">
        <ele>28.9769</ele>
        <time>2013-03-10T09:59:23Z</time>
      </trkpt>
      <trkpt lat="59.9518385" lon="17.6722094">
        <ele>28.9769</ele>
        <time>2013-03-10T09:59:24Z</time>
      </trkpt>
      <trkpt lat="59.9518364" lon="17.6721837">
        <ele>28.9769</ele>
        <time>2013-03-10T09:59:25Z</time>
      </trkpt>
      <trkpt lat="59.9518341" lon="17.6721581">
        <ele>28.9769</ele>
        <time>2013-03-10T09:59:26Z</time>
      </trkpt>
      <trkpt lat="59.9518318" lon="17.6721316">
        <ele>28.9769</ele>
        <time>2013-03-10T09:59:27Z</time>
      </trkpt>
      <trkpt lat="59.9518297" lon="17.6721041">
        <ele>28.9769</ele>
        <time>2013-03-10T09:59:28Z</time>
      </trkpt>
      <trkpt lat="59.9518274" lon="17.6720765">
        <ele>28.9769</ele>
        <time>2013-03-10T09:59:29Z</time>
      </trkpt>
      <trkpt lat="59.9518245" lon="17.6720487">
        <ele>28.9769</ele>
        <time>2013-03-10T09:59:30Z</time>
      </trkpt>
      <trkpt lat="59.9518214" lon="17.6720233">
        <ele>28.9769</ele>
        <time>2013-03-10T09:59:31Z</time>
      </trkpt>
      <trkpt lat="59.9518191" lon="17.671999">
        <ele>28.9769</ele>
        <time>2013-03-10T09:59:32Z</time>
      </trkpt>
      <trkpt lat="59.9518171" lon="17.671972">
        <ele>28.9769</ele>
        <time>2013-03-10T09:59:33Z</time>
      </trkpt>
      <trkpt lat="59.9518149" lon="17.6719471">
        <ele>28.9769</ele>
        <time>2013-03-10T09:59:34Z</time>
      </trkpt>
      <trkpt lat="59.9518141" lon="17.6719186">
        <ele>28.9769</ele>
        <time>2013-03-10T09:59:35Z</time>
      </trkpt>
      <trkpt lat="59.9518144" lon="17.6718875">
        <ele>28.9769</ele>
        <time>2013-03-10T09:59:36Z</time>
      </trkpt>
      <trkpt lat="59.9518141" lon="17.6718597">
        <ele>28.9769</ele>
        <time>2013-03-10T09:59:37Z</time>
      </trkpt>
      <trkpt lat="59.9518147" lon="17.6718348">
        <ele>28.9769</ele>
        <time>2013-03-10T09:59:38Z</time>
      </trkpt>
      <trkpt lat="59.9518149" lon="17.6718089">
        <ele>28.9769</ele>
        <time>2013-03-10T09:59:39Z</time>
      </trkpt>
      <trkpt lat="59.9518147" lon="17.6717816">
        <ele>28.9769</ele>
        <time>2013-03-10T09:59:40Z</time>
      </trkpt>
      <trkpt lat="59.9518152" lon="17.6717536">
        <ele>28.9769</ele>
        <time>2013-03-10T09:59:41Z</time>
      </trkpt>
      <trkpt lat="59.9518158" lon="17.6717259">
        <ele>28.9769</ele>
        <time>2013-03-10T09:59:42Z</time>
      </trkpt>
      <trkpt lat="59.9518161" lon="17.6717002">
        <ele>28.9769</ele>
        <time>2013-03-10T09:59:43Z</time>
      </trkpt>
      <trkpt lat="59.9518161" lon="17.671674">
        <ele>28.9769</ele>
        <time>2013-03-10T09:59:44Z</time>
      </trkpt>
      <trkpt lat="59.951816" lon="17.6716474">
        <ele>28.9769</ele>
        <time>2013-03-10T09:59:45Z</time>
      </trkpt>
      <trkpt lat="59.9518165" lon="17.671621">
        <ele>28.9769</ele>
        <time>2013-03-10T09:59:46Z</time>
      </trkpt>
      <trkpt lat="59.9518162" lon="17.671596">
        <ele>28.9769</ele>
        <time>2013-03-10T09:59:47Z</time>
      </trkpt>
      <trkpt lat="59.951815" lon="17.6715718">
        <ele>28.9769</ele>
        <time>2013-03-10T09:59:48Z</time>
      </trkpt>
      <trkpt lat="59.9518135" lon="17.6715469">
        <ele>28.4962</ele>
        <time>2013-03-10T09:59:49Z</time>
      </trkpt>
      <trkpt lat="59.9518124" lon="17.6715228">
        <ele>28.9769</ele>
        <time>2013-03-10T09:59:50Z</time>
      </trkpt>
      <trkpt lat="59.9518114" lon="17.6715007">
        <ele>28.4962</ele>
        <time>2013-03-10T09:59:51Z</time>
      </trkpt>
      <trkpt lat="59.9518103" lon="17.671478">
        <ele>28.4962</ele>
        <time>2013-03-10T09:59:52Z</time>
      </trkpt>
      <trkpt lat="59.9518084" lon="17.6714524">
        <ele>28.4962</ele>
        <time>2013-03-10T09:59:53Z</time>
      </trkpt>
      <trkpt lat="59.9518079" lon="17.6714298">
        <ele>28.4962</ele>
        <time>2013-03-10T09:59:54Z</time>
      </trkpt>
      <trkpt lat="59.9518074" lon="17.671408">
        <ele>28.4962</ele>
        <time>2013-03-10T09:59:55Z</time>
      </trkpt>
      <trkpt lat="59.951807" lon="17.6713867">
        <ele>28.0155</ele>
        <time>2013-03-10T09:59:56Z</time>
      </trkpt>
      <trkpt lat="59.9518063" lon="17.6713602">
        <ele>28.0155</ele>
        <time>2013-03-10T09:59:57Z</time>
      </trkpt>
      <trkpt lat="59.9518035" lon="17.6713323">
        <ele>28.0155</ele>
        <time>2013-03-10T09:59:58Z</time>
      </trkpt>
      <trkpt lat="59.9518" lon="17.6713044">
        <ele>28.0155</ele>
        <time>2013-03-10T09:59:59Z</time>
      </trkpt>
      <trkpt lat="59.9517965" lon="17.6712809">
        <ele>28.0155</ele>
        <time>2013-03-10T10:00:00Z</time>
      </trkpt>
      <trkpt lat="59.9517932" lon="17.6712583">
        <ele>28.0155</ele>
        <time>2013-03-10T10:00:01Z</time>
      </trkpt>
      <trkpt lat="59.9517898" lon="17.6712359">
        <ele>27.5349</ele>
        <time>2013-03-10T10:00:02Z</time>
      </trkpt>
      <trkpt lat="59.9517842" lon="17.6712158">
        <ele>27.5349</ele>
        <time>2013-03-10T10:00:03Z</time>
      </trkpt>
      <trkpt lat="59.9517766" lon="17.6711954">
        <ele>28.0155</ele>
        <time>2013-03-10T10:00:04Z</time>
      </trkpt>
      <trkpt lat="59.9517688" lon="17.6711763">
        <ele>27.5349</ele>
        <time>2013-03-10T10:00:05Z</time>
      </trkpt>
      <trkpt lat="59.9517616" lon="17.67116">
        <ele>27.5349</ele>
        <time>2013-03-10T10:00:06Z</time>
      </trkpt>
      <trkpt lat="59.9517535" lon="17.6711407">
        <ele>27.5349</ele>
        <time>2013-03-10T10:00:07Z</time>
      </trkpt>
      <trkpt lat="59.9517452" lon="17.6711194">
        <ele>27.5349</ele>
        <time>2013-03-10T10:00:08Z</time>
      </trkpt>
      <trkpt lat="59.9517369" lon="17.6710973">
        <ele>28.0155</ele>
        <time>2013-03-10T10:00:09Z</time>
      </trkpt>
      <trkpt lat="59.9517303" lon="17.6710738">
        <ele>27.5349</ele>
        <time>2013-03-10T10:00:10Z</time>
      </trkpt>
      <trkpt lat="59.9517255" lon="17.6710506">
        <ele>27.5349</ele>
        <time>2013-03-10T10:00:11Z</time>
      </trkpt>
      <trkpt lat="59.9517189" lon="17.6710287">
        <ele>27.5349</ele>
        <time>2013-03-10T10:00:12Z</time>
      </trkpt>
      <trkpt lat="59.9517147" lon="17.6710045">
        <ele>27.5349</ele>
        <time>2013-03-10T10:00:13Z</time>
      </trkpt>
      <trkpt lat="59.9517131" lon="17.6709815">
        <ele>27.5349</ele>
        <time>2013-03-10T10:00:14Z</time>
      </trkpt>
      <trkpt lat="59.9517119" lon="17.6709581">
        <ele>27.5349</ele>
        <time>2013-03-10T10:00:15Z</time>
      </trkpt>
      <trkpt lat="59.9517106" lon="17.670933">
        <ele>27.5349</ele>
        <time>2013-03-10T10:00:16Z</time>
      </trkpt>
      <trkpt lat="59.9517095" lon="17.670908">
        <ele>27.5349</ele>
        <time>2013-03-10T10:00:17Z</time>
      </trkpt>
      <trkpt lat="59.9517094" lon="17.6708796">
        <ele>27.5349</ele>
        <time>2013-03-10T10:00:18Z</time>
      </trkpt>
      <trkpt lat="59.95171" lon="17.6708499">
        <ele>27.5349</ele>
        <time>2013-03-10T10:00:19Z</time>
      </trkpt>
      <trkpt lat="59.951711" lon="17.6708212">
        <ele>27.5349</ele>
        <time>2013-03-10T10:00:20Z</time>
      </trkpt>
      <trkpt lat="59.9517115" lon="17.670791">
        <ele>28.0155</ele>
        <time>2013-03-10T10:00:21Z</time>
      </trkpt>
      <trkpt lat="59.9517115" lon="17.670763">
        <ele>28.0155</ele>
        <time>2013-03-10T10:00:22Z</time>
      </trkpt>
      <trkpt lat="59.9517122" lon="17.6707366">
        <ele>27.5349</ele>
        <time>2013-03-10T10:00:23Z</time>
      </trkpt>
      <trkpt lat="59.9517132" lon="17.6707085">
        <ele>27.5349</ele>
        <time>2013-03-10T10:00:24Z</time>
      </trkpt>
      <trkpt lat="59.9517142" lon="17.6706808">
        <ele>27.5349</ele>
        <time>2013-03-10T10:00:25Z</time>
      </trkpt>
      <trkpt lat="59.951716" lon="17.6706533">
        <ele>27.5349</ele>
        <time>2013-03-10T10:00:26Z</time>
      </trkpt>
      <trkpt lat="59.9517178" lon="17.6706249">
        <ele>27.0543</ele>
        <time>2013-03-10T10:00:27Z</time>
      </trkpt>
      <trkpt lat="59.9517188" lon="17.6705971">
        <ele>27.0543</ele>
        <time>2013-03-10T10:00:28Z</time>
      </trkpt>
      <trkpt lat="59.9517204" lon="17.6705682">
        <ele>27.0543</ele>
        <time>2013-03-10T10:00:29Z</time>
      </trkpt>
      <trkpt lat="59.9517219" lon="17.6705399">
        <ele>27.0543</ele>
        <time>2013-03-10T10:00:30Z</time>
      </trkpt>
      <trkpt lat="59.9517235" lon="17.6705121">
        <ele>27.5349</ele>
        <time>2013-03-10T10:00:31Z</time>
      </trkpt>
      <trkpt lat="59.9517258" lon="17.6704871">
        <ele>27.0543</ele>
        <time>2013-03-10T10:00:32Z</time>
      </trkpt>
      <trkpt lat="59.9517281" lon="17.6704626">
        <ele>27.0543</ele>
        <time>2013-03-10T10:00:33Z</time>
      </trkpt>
      <trkpt lat="59.9517302" lon="17.6704377">
        <ele>27.0543</ele>
        <time>2013-03-10T10:00:34Z</time>
      </trkpt>
      <trkpt lat="59.9517319" lon="17.6704118">
        <ele>27.0543</ele>
        <time>2013-03-10T10:00:35Z</time>
      </trkpt>
      <trkpt lat="59.9517338" lon="17.670387">
        <ele>27.0543</ele>
        <time>2013-03-10T10:00:36Z</time>
      </trkpt>
      <trkpt lat="59.9517359" lon="17.6703601">
        <ele>27.0543</ele>
        <time>2013-03-10T10:00:37Z</time>
      </trkpt>
      <trkpt lat="59.9517383" lon="17.6703329">
        <ele>27.5349</ele>
        <time>2013-03-10T10:00:38Z</time>
      </trkpt>
      <trkpt lat="59.9517401" lon="17.6703031">
        <ele>27.5349</ele>
        <time>2013-03-10T10:00:39Z</time>
      </trkpt>
      <trkpt lat="59.9517431" lon="17.670277">
        <ele>27.5349</ele>
        <time>2013-03-10T10:00:40Z</time>
      </trkpt>
      <trkpt lat="59.9517452" lon="17.6702487">
        <ele>27.0543</ele>
        <time>2013-03-10T10:00:41Z</time>
      </trkpt>
      <trkpt lat="59.9517478" lon="17.6702218">
        <ele>27.0543</ele>
        <time>2013-03-10T10:00:42Z</time>
      </trkpt>
      <trkpt lat="59.9517507" lon="17.6702004">
        <ele>27.0543</ele>
        <time>2013-03-10T10:00:43Z</time>
      </trkpt>
      <trkpt lat="59.9517529" lon="17.670178">
        <ele>26.5736</ele>
        <time>2013-03-10T10:00:44Z</time>
      </trkpt>
      <trkpt lat="59.9517551" lon="17.6701552">
        <ele>26.5736</ele>
        <time>2013-03-10T10:00:45Z</time>
      </trkpt>
      <trkpt lat="59.9517567" lon="17.6701321">
        <ele>26.0929</ele>
        <time>2013-03-10T10:00:46Z</time>
      </trkpt>
      <trkpt lat="59.951758" lon="17.6701102">
        <ele>26.0929</ele>
        <time>2013-03-10T10:00:47Z</time>
      </trkpt>
      <trkpt lat="59.951759" lon="17.6700871">
        <ele>26.0929</ele>
        <time>2013-03-10T10:00:48Z</time>
      </trkpt>
      <trkpt lat="59.9517602" lon="17.6700632">
        <ele>26.0929</ele>
        <time>2013-03-10T10:00:49Z</time>
      </trkpt>
      <trkpt lat="59.9517618" lon="17.6700415">
        <ele>25.6123</ele>
        <time>2013-03-10T10:00:50Z</time>
      </trkpt>
      <trkpt lat="59.9517632" lon="17.6700183">
        <ele>25.1317</ele>
        <time>2013-03-10T10:00:51Z</time>
      </trkpt>
      <trkpt lat="59.9517648" lon="17.6699912">
        <ele>25.6123</ele>
        <time>2013-03-10T10:00:52Z</time>
      </trkpt>
      <trkpt lat="59.9517671" lon="17.6699659">
        <ele>25.1317</ele>
        <time>2013-03-10T10:00:53Z</time>
      </trkpt>
      <trkpt lat="59.9517688" lon="17.6699392">
        <ele>25.1317</ele>
        <time>2013-03-10T10:00:54Z</time>
      </trkpt>
      <trkpt lat="59.9517702" lon="17.6699108">
        <ele>25.1317</ele>
        <time>2013-03-10T10:00:55Z</time>
      </trkpt>
      <trkpt lat="59.951772" lon="17.6698841">
        <ele>25.1317</ele>
        <time>2013-03-10T10:00:56Z</time>
      </trkpt>
      <trkpt lat="59.9517735" lon="17.6698563">
        <ele>25.1317</ele>
        <time>2013-03-10T10:00:57Z</time>
      </trkpt>
      <trkpt lat="59.9517745" lon="17.669826">
        <ele>25.1317</ele>
        <time>2013-03-10T10:00:58Z</time>
      </trkpt>
      <trkpt lat="59.9517761" lon="17.669794">
        <ele>25.1317</ele>
        <time>2013-03-10T10:00:59Z</time>
      </trkpt>
      <trkpt lat="59.9517773" lon="17.6697607">
        <ele>25.6123</ele>
        <time>2013-03-10T10:01:00Z</time>
      </trkpt>
      <trkpt lat="59.9517783" lon="17.6697277">
        <ele>25.6123</ele>
        <time>2013-03-10T10:01:01Z</time>
      </trkpt>
      <trkpt lat="59.9517798" lon="17.6696984">
        <ele>25.6123</ele>
        <time>2013-03-10T10:01:02Z</time>
      </trkpt>
      <trkpt lat="59.9517816" lon="17.6696711">
        <ele>25.6123</ele>
        <time>2013-03-10T10:01:03Z</time>
      </trkpt>
      <trkpt lat="59.9517826" lon="17.6696426">
        <ele>25.6123</ele>
        <time>2013-03-10T10:01:04Z</time>
      </trkpt>
      <trkpt lat="59.951783" lon="17.6696125">
        <ele>25.6123</ele>
        <time>2013-03-10T10:01:05Z</time>
      </trkpt>
      <trkpt lat="59.9517841" lon="17.6695846">
        <ele>25.6123</ele>
        <time>2013-03-10T10:01:06Z</time>
      </trkpt>
      <trkpt lat="59.9517857" lon="17.6695571">
        <ele>26.0929</ele>
        <time>2013-03-10T10:01:07Z</time>
      </trkpt>
      <trkpt lat="59.9517872" lon="17.6695319">
        <ele>26.0929</ele>
        <time>2013-03-10T10:01:08Z</time>
      </trkpt>
      <trkpt lat="59.9517877" lon="17.6695078">
        <ele>26.0929</ele>
        <time>2013-03-10T10:01:09Z</time>
      </trkpt>
      <trkpt lat="59.9517887" lon="17.6694811">
        <ele>26.5736</ele>
        <time>2013-03-10T10:01:10Z</time>
      </trkpt>
      <trkpt lat="59.9517892" lon="17.6694541">
        <ele>26.5736</ele>
        <time>2013-03-10T10:01:11Z</time>
      </trkpt>
      <trkpt lat="59.9517898" lon="17.6694251">
        <ele>26.5736</ele>
        <time>2013-03-10T10:01:12Z</time>
      </trkpt>
      <trkpt lat="59.9517901" lon="17.6693964">
        <ele>27.0543</ele>
        <time>2013-03-10T10:01:13Z</time>
      </trkpt>
      <trkpt lat="59.9517908" lon="17.6693705">
        <ele>27.0543</ele>
        <time>2013-03-10T10:01:14Z</time>
      </trkpt>
      <trkpt lat="59.9517921" lon="17.6693421">
        <ele>27.0543</ele>
        <time>2013-03-10T10:01:15Z</time>
      </trkpt>
      <trkpt lat="59.9517929" lon="17.6693111">
        <ele>27.0543</ele>
        <time>2013-03-10T10:01:16Z</time>
      </trkpt>
      <trkpt lat="59.9517949" lon="17.6692872">
        <ele>27.0543</ele>
        <time>2013-03-10T10:01:17Z</time>
      </trkpt>
      <trkpt lat="59.9517956" lon="17.6692583">
        <ele>27.5349</ele>
        <time>2013-03-10T10:01:18Z</time>
      </trkpt>
      <trkpt lat="59.9517968" lon="17.6692298">
        <ele>27.0543</ele>
        <time>2013-03-10T10:01:19Z</time>
      </trkpt>
      <trkpt lat="59.9517984" lon="17.6691991">
        <ele>27.5349</ele>
        <time>2013-03-10T10:01:20Z</time>
      </trkpt>
      <trkpt lat="59.9517996" lon="17.6691691">
        <ele>27.5349</ele>
        <time>2013-03-10T10:01:21Z</time>
      </trkpt>
      <trkpt lat="59.9518001" lon="17.669143">
        <ele>27.0543</ele>
        <time>2013-03-10T10:01:22Z</time>
      </trkpt>
      <trkpt lat="59.9518004" lon="17.6691159">
        <ele>27.5349</ele>
        <time>2013-03-10T10:01:23Z</time>
      </trkpt>
      <trkpt lat="59.9518005" lon="17.6690892">
        <ele>27.5349</ele>
        <time>2013-03-10T10:01:24Z</time>
      </trkpt>
      <trkpt lat="59.9518012" lon="17.6690631">
        <ele>27.0543</ele>
        <time>2013-03-10T10:01:25Z</time>
      </trkpt>
      <trkpt lat="59.9518027" lon="17.6690376">
        <ele>27.5349</ele>
        <time>2013-03-10T10:01:26Z</time>
      </trkpt>
      <trkpt lat="59.9518035" lon="17.6690121">
        <ele>27.5349</ele>
        <time>2013-03-10T10:01:27Z</time>
      </trkpt>
      <trkpt lat="59.9518041" lon="17.6689858">
        <ele>27.5349</ele>
        <time>2013-03-10T10:01:28Z</time>
      </trkpt>
      <trkpt lat="59.9518048" lon="17.6689591">
        <ele>27.0543</ele>
        <time>2013-03-10T10:01:29Z</time>
      </trkpt>
      <trkpt lat="59.9518056" lon="17.6689318">
        <ele>27.5349</ele>
        <time>2013-03-10T10:01:30Z</time>
      </trkpt>
      <trkpt lat="59.9518059" lon="17.6689044">
        <ele>27.5349</ele>
        <time>2013-03-10T10:01:31Z</time>
      </trkpt>
      <trkpt lat="59.9518057" lon="17.6688766">
        <ele>27.5349</ele>
        <time>2013-03-10T10:01:32Z</time>
      </trkpt>
      <trkpt lat="59.9518056" lon="17.6688481">
        <ele>27.5349</ele>
        <time>2013-03-10T10:01:33Z</time>
      </trkpt>
      <trkpt lat="59.9518053" lon="17.6688209">
        <ele>27.5349</ele>
        <time>2013-03-10T10:01:34Z</time>
      </trkpt>
      <trkpt lat="59.9518048" lon="17.6687935">
        <ele>27.0543</ele>
        <time>2013-03-10T10:01:35Z</time>
      </trkpt>
      <trkpt lat="59.9518041" lon="17.6687657">
        <ele>27.0543</ele>
        <time>2013-03-10T10:01:36Z</time>
      </trkpt>
      <trkpt lat="59.9518032" lon="17.6687367">
        <ele>27.0543</ele>
        <time>2013-03-10T10:01:37Z</time>
      </trkpt>
      <trkpt lat="59.9518023" lon="17.6687107">
        <ele>27.0543</ele>
        <time>2013-03-10T10:01:38Z</time>
      </trkpt>
      <trkpt lat="59.9517999" lon="17.6686832">
        <ele>27.0543</ele>
        <time>2013-03-10T10:01:39Z</time>
      </trkpt>
      <trkpt lat="59.9517976" lon="17.6686594">
        <ele>26.5736</ele>
        <time>2013-03-10T10:01:40Z</time>
      </trkpt>
      <trkpt lat="59.951795" lon="17.6686361">
        <ele>26.5736</ele>
        <time>2013-03-10T10:01:41Z</time>
      </trkpt>
      <trkpt lat="59.9517924" lon="17.6686145">
        <ele>26.0929</ele>
        <time>2013-03-10T10:01:42Z</time>
      </trkpt>
      <trkpt lat="59.9517887" lon="17.6685917">
        <ele>26.0929</ele>
        <time>2013-03-10T10:01:43Z</time>
      </trkpt>
      <trkpt lat="59.9517842" lon="17.6685678">
        <ele>26.0929</ele>
        <time>2013-03-10T10:01:44Z</time>
      </trkpt>
      <trkpt lat="59.9517789" lon="17.6685433">
        <ele>25.6123</ele>
        <time>2013-03-10T10:01:45Z</time>
      </trkpt>
      <trkpt lat="59.9517731" lon="17.6685201">
        <ele>25.6123</ele>
        <time>2013-03-10T10:01:46Z</time>
      </trkpt>
      <trkpt lat="59.9517673" lon="17.6684964">
        <ele>25.1317</ele>
        <time>2013-03-10T10:01:47Z</time>
      </trkpt>
      <trkpt lat="59.951765" lon="17.6684699">
        <ele>24.651</ele>
        <time>2013-03-10T10:01:48Z</time>
      </trkpt>
      <trkpt lat="59.9517639" lon="17.6684439">
        <ele>24.651</ele>
        <time>2013-03-10T10:01:49Z</time>
      </trkpt>
      <trkpt lat="59.9517595" lon="17.6684218">
        <ele>24.1703</ele>
        <time>2013-03-10T10:01:50Z</time>
      </trkpt>
      <trkpt lat="59.9517541" lon="17.6683998">
        <ele>24.1703</ele>
        <time>2013-03-10T10:01:51Z</time>
      </trkpt>
      <trkpt lat="59.9517484" lon="17.6683785">
        <ele>24.1703</ele>
        <time>2013-03-10T10:01:52Z</time>
      </trkpt>
      <trkpt lat="59.9517419" lon="17.6683555">
        <ele>24.1703</ele>
        <time>2013-03-10T10:01:53Z</time>
      </trkpt>
      <trkpt lat="59.9517348" lon="17.6683331">
        <ele>24.1703</ele>
        <time>2013-03-10T10:01:54Z</time>
      </trkpt>
      <trkpt lat="59.9517271" lon="17.6683113">
        <ele>23.6896</ele>
        <time>2013-03-10T10:01:55Z</time>
      </trkpt>
      <trkpt lat="59.9517196" lon="17.6682894">
        <ele>23.6896</ele>
        <time>2013-03-10T10:01:56Z</time>
      </trkpt>
      <trkpt lat="59.951712" lon="17.6682668">
        <ele>23.6896</ele>
        <time>2013-03-10T10:01:57Z</time>
      </trkpt>
      <trkpt lat="59.9517034" lon="17.6682446">
        <ele>23.6896</ele>
        <time>2013-03-10T10:01:58Z</time>
      </trkpt>
      <trkpt lat="59.951695" lon="17.6682256">
        <ele>23.6896</ele>
        <time>2013-03-10T10:01:59Z</time>
      </trkpt>
      <trkpt lat="59.9516871" lon="17.6682055">
        <ele>23.209</ele>
        <time>2013-03-10T10:02:00Z</time>
      </trkpt>
      <trkpt lat="59.9516785" lon="17.6681844">
        <ele>23.209</ele>
        <time>2013-03-10T10:02:01Z</time>
      </trkpt>
      <trkpt lat="59.9516705" lon="17.6681673">
        <ele>23.209</ele>
        <time>2013-03-10T10:02:02Z</time>
      </trkpt>
      <trkpt lat="59.9516617" lon="17.6681492">
        <ele>23.209</ele>
        <time>2013-03-10T10:02:03Z</time>
      </trkpt>
      <trkpt lat="59.951652" lon="17.6681317">
        <ele>23.209</ele>
        <time>2013-03-10T10:02:04Z</time>
      </trkpt>
      <trkpt lat="59.9516416" lon="17.6681181">
        <ele>23.209</ele>
        <time>2013-03-10T10:02:05Z</time>
      </trkpt>
      <trkpt lat="59.9516303" lon="17.668105">
        <ele>23.209</ele>
        <time>2013-03-10T10:02:06Z</time>
      </trkpt>
      <trkpt lat="59.9516198" lon="17.6680932">
        <ele>23.209</ele>
        <time>2013-03-10T10:02:07Z</time>
      </trkpt>
      <trkpt lat="59.9516089" lon="17.6680833">
        <ele>23.209</ele>
        <time>2013-03-10T10:02:08Z</time>
      </trkpt>
      <trkpt lat="59.9515971" lon="17.6680739">
        <ele>23.209</ele>
        <time>2013-03-10T10:02:09Z</time>
      </trkpt>
      <trkpt lat="59.9515852" lon="17.6680658">
        <ele>23.209</ele>
        <time>2013-03-10T10:02:10Z</time>
      </trkpt>
      <trkpt lat="59.9515733" lon="17.6680606">
        <ele>22.7283</ele>
        <time>2013-03-10T10:02:11Z</time>
      </trkpt>
      <trkpt lat="59.9515603" lon="17.6680574">
        <ele>22.7283</ele>
        <time>2013-03-10T10:02:12Z</time>
      </trkpt>
      <trkpt lat="59.9515473" lon="17.668055">
        <ele>22.7283</ele>
        <time>2013-03-10T10:02:13Z</time>
      </trkpt>
      <trkpt lat="59.9515338" lon="17.6680539">
        <ele>23.209</ele>
        <time>2013-03-10T10:02:14Z</time>
      </trkpt>
      <trkpt lat="59.9515203" lon="17.6680532">
        <ele>23.209</ele>
        <time>2013-03-10T10:02:15Z</time>
      </trkpt>
      <trkpt lat="59.9515074" lon="17.6680534">
        <ele>23.209</ele>
        <time>2013-03-10T10:02:16Z</time>
      </trkpt>
      <trkpt lat="59.951494" lon="17.6680564">
        <ele>23.209</ele>
        <time>2013-03-10T10:02:17Z</time>
      </trkpt>
      <trkpt lat="59.9514801" lon="17.6680563">
        <ele>23.6896</ele>
        <time>2013-03-10T10:02:18Z</time>
      </trkpt>
      <trkpt lat="59.9514687" lon="17.6680573">
        <ele>23.6896</ele>
        <time>2013-03-10T10:02:19Z</time>
      </trkpt>
      <trkpt lat="59.9514566" lon="17.6680621">
        <ele>23.209</ele>
        <time>2013-03-10T10:02:20Z</time>
      </trkpt>
      <trkpt lat="59.9514441" lon="17.6680648">
        <ele>23.209</ele>
        <time>2013-03-10T10:02:21Z</time>
      </trkpt>
      <trkpt lat="59.9514316" lon="17.6680668">
        <ele>23.209</ele>
        <time>2013-03-10T10:02:22Z</time>
      </trkpt>
      <trkpt lat="59.9514184" lon="17.6680692">
        <ele>23.6896</ele>
        <time>2013-03-10T10:02:23Z</time>
      </trkpt>
      <trkpt lat="59.9514055" lon="17.6680715">
        <ele>23.6896</ele>
        <time>2013-03-10T10:02:24Z</time>
      </trkpt>
      <trkpt lat="59.951393" lon="17.6680736">
        <ele>23.6896</ele>
        <time>2013-03-10T10:02:25Z</time>
      </trkpt>
      <trkpt lat="59.9513795" lon="17.6680775">
        <ele>23.6896</ele>
        <time>2013-03-10T10:02:26Z</time>
      </trkpt>
      <trkpt lat="59.9513663" lon="17.6680807">
        <ele>23.6896</ele>
        <time>2013-03-10T10:02:27Z</time>
      </trkpt>
      <trkpt lat="59.9513542" lon="17.6680827">
        <ele>23.6896</ele>
        <time>2013-03-10T10:02:28Z</time>
      </trkpt>
      <trkpt lat="59.9513423" lon="17.6680858">
        <ele>23.6896</ele>
        <time>2013-03-10T10:02:29Z</time>
      </trkpt>
      <trkpt lat="59.9513296" lon="17.668092">
        <ele>23.6896</ele>
        <time>2013-03-10T10:02:30Z</time>
      </trkpt>
      <trkpt lat="59.9513168" lon="17.6680992">
        <ele>23.6896</ele>
        <time>2013-03-10T10:02:31Z</time>
      </trkpt>
      <trkpt lat="59.9513042" lon="17.6681062">
        <ele>23.6896</ele>
        <time>2013-03-10T10:02:32Z</time>
      </trkpt>
      <trkpt lat="59.9512923" lon="17.6681129">
        <ele>23.6896</ele>
        <time>2013-03-10T10:02:33Z</time>
      </trkpt>
      <trkpt lat="59.9512815" lon="17.668118">
        <ele>23.6896</ele>
        <time>2013-03-10T10:02:34Z</time>
      </trkpt>
      <trkpt lat="59.9512701" lon="17.6681227">
        <ele>23.6896</ele>
        <time>2013-03-10T10:02:35Z</time>
      </trkpt>
      <trkpt lat="59.9512578" lon="17.6681283">
        <ele>23.6896</ele>
        <time>2013-03-10T10:02:36Z</time>
      </trkpt>
      <trkpt lat="59.9512459" lon="17.6681336">
        <ele>23.6896</ele>
        <time>2013-03-10T10:02:37Z</time>
      </trkpt>
      <trkpt lat="59.9512343" lon="17.6681386">
        <ele>23.6896</ele>
        <time>2013-03-10T10:02:38Z</time>
      </trkpt>
      <trkpt lat="59.9512208" lon="17.6681443">
        <ele>23.6896</ele>
        <time>2013-03-10T10:02:39Z</time>
      </trkpt>
      <trkpt lat="59.951206" lon="17.6681487">
        <ele>24.1703</ele>
        <time>2013-03-10T10:02:40Z</time>
      </trkpt>
      <trkpt lat="59.9511949" lon="17.6681511">
        <ele>24.1703</ele>
        <time>2013-03-10T10:02:41Z</time>
      </trkpt>
      <trkpt lat="59.9511832" lon="17.6681558">
        <ele>24.1703</ele>
        <time>2013-03-10T10:02:42Z</time>
      </trkpt>
      <trkpt lat="59.95117" lon="17.6681624">
        <ele>24.1703</ele>
        <time>2013-03-10T10:02:43Z</time>
      </trkpt>
      <trkpt lat="59.9511562" lon="17.6681694">
        <ele>24.1703</ele>
        <time>2013-03-10T10:02:44Z</time>
      </trkpt>
      <trkpt lat="59.9511428" lon="17.6681746">
        <ele>24.651</ele>
        <time>2013-03-10T10:02:45Z</time>
      </trkpt>
      <trkpt lat="59.9511302" lon="17.6681782">
        <ele>24.651</ele>
        <time>2013-03-10T10:02:46Z</time>
      </trkpt>
      <trkpt lat="59.9511174" lon="17.6681835">
        <ele>24.651</ele>
        <time>2013-03-10T10:02:47Z</time>
      </trkpt>
      <trkpt lat="59.9511043" lon="17.668189">
        <ele>24.651</ele>
        <time>2013-03-10T10:02:48Z</time>
      </trkpt>
      <trkpt lat="59.951091" lon="17.6681921">
        <ele>24.651</ele>
        <time>2013-03-10T10:02:49Z</time>
      </trkpt>
      <trkpt lat="59.951078" lon="17.6681951">
        <ele>24.651</ele>
        <time>2013-03-10T10:02:50Z</time>
      </trkpt>
      <trkpt lat="59.9510651" lon="17.6681994">
        <ele>25.1317</ele>
        <time>2013-03-10T10:02:51Z</time>
      </trkpt>
      <trkpt lat="59.9510533" lon="17.6682076">
        <ele>24.651</ele>
        <time>2013-03-10T10:02:52Z</time>
      </trkpt>
      <trkpt lat="59.9510412" lon="17.6682161">
        <ele>24.651</ele>
        <time>2013-03-10T10:02:53Z</time>
      </trkpt>
      <trkpt lat="59.9510274" lon="17.6682215">
        <ele>24.651</ele>
        <time>2013-03-10T10:02:54Z</time>
      </trkpt>
      <trkpt lat="59.9510136" lon="17.6682259">
        <ele>24.651</ele>
        <time>2013-03-10T10:02:55Z</time>
      </trkpt>
      <trkpt lat="59.9509998" lon="17.6682305">
        <ele>24.651</ele>
        <time>2013-03-10T10:02:56Z</time>
      </trkpt>
      <trkpt lat="59.9509859" lon="17.6682362">
        <ele>24.651</ele>
        <time>2013-03-10T10:02:57Z</time>
      </trkpt>
      <trkpt lat="59.9509718" lon="17.6682409">
        <ele>25.1317</ele>
        <time>2013-03-10T10:02:58Z</time>
      </trkpt>
      <trkpt lat="59.9509573" lon="17.6682444">
        <ele>25.1317</ele>
        <time>2013-03-10T10:02:59Z</time>
      </trkpt>
      <trkpt lat="59.9509439" lon="17.668247">
        <ele>25.1317</ele>
        <time>2013-03-10T10:03:00Z</time>
      </trkpt>
      <trkpt lat="59.9509303" lon="17.66825">
        <ele>25.1317</ele>
        <time>2013-03-10T10:03:01Z</time>
      </trkpt>
      <trkpt lat="59.9509162" lon="17.6682513">
        <ele>25.1317</ele>
        <time>2013-03-10T10:03:02Z</time>
      </trkpt>
      <trkpt lat="59.950902" lon="17.6682547">
        <ele>25.1317</ele>
        <time>2013-03-10T10:03:03Z</time>
      </trkpt>
      <trkpt lat="59.9508887" lon="17.6682583">
        <ele>25.1317</ele>
        <time>2013-03-10T10:03:04Z</time>
      </trkpt>
      <trkpt lat="59.9508751" lon="17.6682619">
        <ele>25.1317</ele>
        <time>2013-03-10T10:03:05Z</time>
      </trkpt>
      <trkpt lat="59.9508605" lon="17.6682666">
        <ele>25.6123</ele>
        <time>2013-03-10T10:03:06Z</time>
      </trkpt>
      <trkpt lat="59.950847" lon="17.6682683">
        <ele>25.6123</ele>
        <time>2013-03-10T10:03:07Z</time>
      </trkpt>
      <trkpt lat="59.9508339" lon="17.6682709">
        <ele>25.6123</ele>
        <time>2013-03-10T10:03:08Z</time>
      </trkpt>
      <trkpt lat="59.9508211" lon="17.668274">
        <ele>25.6123</ele>
        <time>2013-03-10T10:03:09Z</time>
      </trkpt>
      <trkpt lat="59.9508092" lon="17.6682741">
        <ele>25.6123</ele>
        <time>2013-03-10T10:03:10Z</time>
      </trkpt>
      <trkpt lat="59.9507971" lon="17.6682745">
        <ele>25.1317</ele>
        <time>2013-03-10T10:03:11Z</time>
      </trkpt>
      <trkpt lat="59.9507853" lon="17.6682771">
        <ele>25.1317</ele>
        <time>2013-03-10T10:03:12Z</time>
      </trkpt>
      <trkpt lat="59.9507732" lon="17.6682814">
        <ele>25.1317</ele>
        <time>2013-03-10T10:03:13Z</time>
      </trkpt>
      <trkpt lat="59.9507608" lon="17.6682853">
        <ele>25.1317</ele>
        <time>2013-03-10T10:03:14Z</time>
      </trkpt>
      <trkpt lat="59.9507486" lon="17.6682894">
        <ele>25.1317</ele>
        <time>2013-03-10T10:03:15Z</time>
      </trkpt>
      <trkpt lat="59.9507362" lon="17.6682927">
        <ele>25.1317</ele>
        <time>2013-03-10T10:03:16Z</time>
      </trkpt>
      <trkpt lat="59.9507253" lon="17.6682922">
        <ele>25.1317</ele>
        <time>2013-03-10T10:03:17Z</time>
      </trkpt>
      <trkpt lat="59.9507152" lon="17.6682906">
        <ele>25.1317</ele>
        <time>2013-03-10T10:03:18Z</time>
      </trkpt>
      <trkpt lat="59.950704" lon="17.6682931">
        <ele>25.1317</ele>
        <time>2013-03-10T10:03:19Z</time>
      </trkpt>
      <trkpt lat="59.9506919" lon="17.6682977">
        <ele>25.1317</ele>
        <time>2013-03-10T10:03:20Z</time>
      </trkpt>
      <trkpt lat="59.9506791" lon="17.6683011">
        <ele>25.1317</ele>
        <time>2013-03-10T10:03:21Z</time>
      </trkpt>
      <trkpt lat="59.9506668" lon="17.6683036">
        <ele>25.1317</ele>
        <time>2013-03-10T10:03:22Z</time>
      </trkpt>
      <trkpt lat="59.9506553" lon="17.6683054">
        <ele>25.1317</ele>
        <time>2013-03-10T10:03:23Z</time>
      </trkpt>
      <trkpt lat="59.9506447" lon="17.6683061">
        <ele>25.1317</ele>
        <time>2013-03-10T10:03:24Z</time>
      </trkpt>
      <trkpt lat="59.9506341" lon="17.6683077">
        <ele>25.1317</ele>
        <time>2013-03-10T10:03:25Z</time>
      </trkpt>
      <trkpt lat="59.9506237" lon="17.6683092">
        <ele>25.1317</ele>
        <time>2013-03-10T10:03:26Z</time>
      </trkpt>
      <trkpt lat="59.9506127" lon="17.6683094">
        <ele>25.1317</ele>
        <time>2013-03-10T10:03:27Z</time>
      </trkpt>
      <trkpt lat="59.9505987" lon="17.6683161">
        <ele>24.651</ele>
        <time>2013-03-10T10:03:28Z</time>
      </trkpt>
      <trkpt lat="59.9505842" lon="17.6683232">
        <ele>24.651</ele>
        <time>2013-03-10T10:03:29Z</time>
      </trkpt>
      <trkpt lat="59.9505703" lon="17.6683252">
        <ele>24.651</ele>
        <time>2013-03-10T10:03:30Z</time>
      </trkpt>
      <trkpt lat="59.9505567" lon="17.6683254">
        <ele>24.1703</ele>
        <time>2013-03-10T10:03:31Z</time>
      </trkpt>
      <trkpt lat="59.9505419" lon="17.6683269">
        <ele>24.1703</ele>
        <time>2013-03-10T10:03:32Z</time>
      </trkpt>
      <trkpt lat="59.9505287" lon="17.6683258">
        <ele>23.6896</ele>
        <time>2013-03-10T10:03:33Z</time>
      </trkpt>
      <trkpt lat="59.9505158" lon="17.6683237">
        <ele>23.6896</ele>
        <time>2013-03-10T10:03:34Z</time>
      </trkpt>
      <trkpt lat="59.9505016" lon="17.6683266">
        <ele>23.6896</ele>
        <time>2013-03-10T10:03:35Z</time>
      </trkpt>
      <trkpt lat="59.9504879" lon="17.6683253">
        <ele>23.6896</ele>
        <time>2013-03-10T10:03:36Z</time>
      </trkpt>
      <trkpt lat="59.9504744" lon="17.6683223">
        <ele>23.209</ele>
        <time>2013-03-10T10:03:37Z</time>
      </trkpt>
      <trkpt lat="59.9504601" lon="17.6683225">
        <ele>23.6896</ele>
        <time>2013-03-10T10:03:38Z</time>
      </trkpt>
      <trkpt lat="59.9504458" lon="17.6683205">
        <ele>23.209</ele>
        <time>2013-03-10T10:03:39Z</time>
      </trkpt>
      <trkpt lat="59.950431" lon="17.6683207">
        <ele>23.6896</ele>
        <time>2013-03-10T10:03:40Z</time>
      </trkpt>
      <trkpt lat="59.9504169" lon="17.6683217">
        <ele>23.6896</ele>
        <time>2013-03-10T10:03:41Z</time>
      </trkpt>
      <trkpt lat="59.9504035" lon="17.6683201">
        <ele>23.6896</ele>
        <time>2013-03-10T10:03:42Z</time>
      </trkpt>
      <trkpt lat="59.9503906" lon="17.6683187">
        <ele>24.1703</ele>
        <time>2013-03-10T10:03:43Z</time>
      </trkpt>
      <trkpt lat="59.9503765" lon="17.6683173">
        <ele>24.1703</ele>
        <time>2013-03-10T10:03:44Z</time>
      </trkpt>
      <trkpt lat="59.9503628" lon="17.6683155">
        <ele>24.651</ele>
        <time>2013-03-10T10:03:45Z</time>
      </trkpt>
      <trkpt lat="59.9503497" lon="17.6683158">
        <ele>24.651</ele>
        <time>2013-03-10T10:03:46Z</time>
      </trkpt>
      <trkpt lat="59.9503367" lon="17.668314">
        <ele>25.1317</ele>
        <time>2013-03-10T10:03:47Z</time>
      </trkpt>
      <trkpt lat="59.9503228" lon="17.6683143">
        <ele>25.1317</ele>
        <time>2013-03-10T10:03:48Z</time>
      </trkpt>
      <trkpt lat="59.9503082" lon="17.6683158">
        <ele>25.1317</ele>
        <time>2013-03-10T10:03:49Z</time>
      </trkpt>
      <trkpt lat="59.9502952" lon="17.6683128">
        <ele>25.1317</ele>
        <time>2013-03-10T10:03:50Z</time>
      </trkpt>
      <trkpt lat="59.9502843" lon="17.6683108">
        <ele>25.1317</ele>
        <time>2013-03-10T10:03:51Z</time>
      </trkpt>
      <trkpt lat="59.9502721" lon="17.6683124">
        <ele>25.1317</ele>
        <time>2013-03-10T10:03:52Z</time>
      </trkpt>
      <trkpt lat="59.9502585" lon="17.6683128">
        <ele>25.1317</ele>
        <time>2013-03-10T10:03:53Z</time>
      </trkpt>
      <trkpt lat="59.9502457" lon="17.6683118">
        <ele>25.1317</ele>
        <time>2013-03-10T10:03:54Z</time>
      </trkpt>
      <trkpt lat="59.9502331" lon="17.6683097">
        <ele>25.1317</ele>
        <time>2013-03-10T10:03:55Z</time>
      </trkpt>
      <trkpt lat="59.9502207" lon="17.6683067">
        <ele>25.1317</ele>
        <time>2013-03-10T10:03:56Z</time>
      </trkpt>
      <trkpt lat="59.9502076" lon="17.668303">
        <ele>25.6123</ele>
        <time>2013-03-10T10:03:57Z</time>
      </trkpt>
      <trkpt lat="59.9501946" lon="17.668299">
        <ele>25.6123</ele>
        <time>2013-03-10T10:03:58Z</time>
      </trkpt>
      <trkpt lat="59.9501814" lon="17.6682957">
        <ele>25.6123</ele>
        <time>2013-03-10T10:03:59Z</time>
      </trkpt>
      <trkpt lat="59.950168" lon="17.6682922">
        <ele>25.6123</ele>
        <time>2013-03-10T10:04:00Z</time>
      </trkpt>
      <trkpt lat="59.9501547" lon="17.6682895">
        <ele>25.6123</ele>
        <time>2013-03-10T10:04:01Z</time>
      </trkpt>
      <trkpt lat="59.9501419" lon="17.6682865">
        <ele>25.6123</ele>
        <time>2013-03-10T10:04:02Z</time>
      </trkpt>
      <trkpt lat="59.9501288" lon="17.6682828">
        <ele>25.6123</ele>
        <time>2013-03-10T10:04:03Z</time>
      </trkpt>
      <trkpt lat="59.9501153" lon="17.668279">
        <ele>26.0929</ele>
        <time>2013-03-10T10:04:04Z</time>
      </trkpt>
      <trkpt lat="59.9501021" lon="17.6682749">
        <ele>25.6123</ele>
        <time>2013-03-10T10:04:05Z</time>
      </trkpt>
      <trkpt lat="59.9500889" lon="17.66827">
        <ele>26.0929</ele>
        <time>2013-03-10T10:04:06Z</time>
      </trkpt>
      <trkpt lat="59.9500758" lon="17.6682652">
        <ele>26.0929</ele>
        <time>2013-03-10T10:04:07Z</time>
      </trkpt>
      <trkpt lat="59.9500628" lon="17.6682593">
        <ele>26.0929</ele>
        <time>2013-03-10T10:04:08Z</time>
      </trkpt>
      <trkpt lat="59.9500503" lon="17.6682538">
        <ele>26.0929</ele>
        <time>2013-03-10T10:04:09Z</time>
      </trkpt>
      <trkpt lat="59.9500387" lon="17.6682498">
        <ele>26.0929</ele>
        <time>2013-03-10T10:04:10Z</time>
      </trkpt>
      <trkpt lat="59.9500268" lon="17.6682458">
        <ele>26.0929</ele>
        <time>2013-03-10T10:04:11Z</time>
      </trkpt>
      <trkpt lat="59.9500145" lon="17.6682407">
        <ele>26.0929</ele>
        <time>2013-03-10T10:04:12Z</time>
      </trkpt>
      <trkpt lat="59.9500022" lon="17.6682357">
        <ele>26.0929</ele>
        <time>2013-03-10T10:04:13Z</time>
      </trkpt>
      <trkpt lat="59.9499896" lon="17.6682305">
        <ele>26.0929</ele>
        <time>2013-03-10T10:04:14Z</time>
      </trkpt>
      <trkpt lat="59.9499767" lon="17.6682248">
        <ele>26.0929</ele>
        <time>2013-03-10T10:04:15Z</time>
      </trkpt>
      <trkpt lat="59.9499633" lon="17.6682179">
        <ele>26.0929</ele>
        <time>2013-03-10T10:04:16Z</time>
      </trkpt>
      <trkpt lat="59.9499502" lon="17.6682104">
        <ele>26.0929</ele>
        <time>2013-03-10T10:04:17Z</time>
      </trkpt>
      <trkpt lat="59.9499369" lon="17.668204">
        <ele>26.0929</ele>
        <time>2013-03-10T10:04:18Z</time>
      </trkpt>
      <trkpt lat="59.9499239" lon="17.6681979">
        <ele>26.5736</ele>
        <time>2013-03-10T10:04:19Z</time>
      </trkpt>
      <trkpt lat="59.9499109" lon="17.668191">
        <ele>26.5736</ele>
        <time>2013-03-10T10:04:20Z</time>
      </trkpt>
      <trkpt lat="59.9498985" lon="17.6681839">
        <ele>26.5736</ele>
        <time>2013-03-10T10:04:21Z</time>
      </trkpt>
      <trkpt lat="59.9498857" lon="17.6681761">
        <ele>26.5736</ele>
        <time>2013-03-10T10:04:22Z</time>
      </trkpt>
      <trkpt lat="59.9498734" lon="17.6681695">
        <ele>26.5736</ele>
        <time>2013-03-10T10:04:23Z</time>
      </trkpt>
      <trkpt lat="59.9498612" lon="17.6681642">
        <ele>26.5736</ele>
        <time>2013-03-10T10:04:24Z</time>
      </trkpt>
      <trkpt lat="59.9498513" lon="17.6681448">
        <ele>26.5736</ele>
        <time>2013-03-10T10:04:25Z</time>
      </trkpt>
      <trkpt lat="59.9498392" lon="17.66813">
        <ele>26.5736</ele>
        <time>2013-03-10T10:04:26Z</time>
      </trkpt>
      <trkpt lat="59.9498255" lon="17.6681283">
        <ele>26.5736</ele>
        <time>2013-03-10T10:04:27Z</time>
      </trkpt>
      <trkpt lat="59.9498135" lon="17.6681243">
        <ele>27.0543</ele>
        <time>2013-03-10T10:04:28Z</time>
      </trkpt>
      <trkpt lat="59.9498011" lon="17.66812">
        <ele>27.0543</ele>
        <time>2013-03-10T10:04:29Z</time>
      </trkpt>
      <trkpt lat="59.949788" lon="17.668116">
        <ele>27.0543</ele>
        <time>2013-03-10T10:04:30Z</time>
      </trkpt>
      <trkpt lat="59.9497747" lon="17.6681114">
        <ele>27.5349</ele>
        <time>2013-03-10T10:04:31Z</time>
      </trkpt>
      <trkpt lat="59.9497617" lon="17.668105">
        <ele>27.5349</ele>
        <time>2013-03-10T10:04:32Z</time>
      </trkpt>
      <trkpt lat="59.9497484" lon="17.6680974">
        <ele>27.5349</ele>
        <time>2013-03-10T10:04:33Z</time>
      </trkpt>
      <trkpt lat="59.9497351" lon="17.6680895">
        <ele>27.5349</ele>
        <time>2013-03-10T10:04:34Z</time>
      </trkpt>
      <trkpt lat="59.9497218" lon="17.6680822">
        <ele>27.5349</ele>
        <time>2013-03-10T10:04:35Z</time>
      </trkpt>
      <trkpt lat="59.9497085" lon="17.6680746">
        <ele>27.5349</ele>
        <time>2013-03-10T10:04:36Z</time>
      </trkpt>
      <trkpt lat="59.9496956" lon="17.6680662">
        <ele>27.5349</ele>
        <time>2013-03-10T10:04:37Z</time>
      </trkpt>
      <trkpt lat="59.9496826" lon="17.6680578">
        <ele>27.5349</ele>
        <time>2013-03-10T10:04:38Z</time>
      </trkpt>
      <trkpt lat="59.949669" lon="17.6680498">
        <ele>27.5349</ele>
        <time>2013-03-10T10:04:39Z</time>
      </trkpt>
      <trkpt lat="59.9496545" lon="17.6680441">
        <ele>27.5349</ele>
        <time>2013-03-10T10:04:40Z</time>
      </trkpt>
      <trkpt lat="59.9496408" lon="17.6680388">
        <ele>27.5349</ele>
        <time>2013-03-10T10:04:41Z</time>
      </trkpt>
      <trkpt lat="59.9496274" lon="17.6680353">
        <ele>27.0543</ele>
        <time>2013-03-10T10:04:42Z</time>
      </trkpt>
      <trkpt lat="59.9496142" lon="17.6680327">
        <ele>27.0543</ele>
        <time>2013-03-10T10:04:43Z</time>
      </trkpt>
      <trkpt lat="59.9496012" lon="17.6680272">
        <ele>27.0543</ele>
        <time>2013-03-10T10:04:44Z</time>
      </trkpt>
      <trkpt lat="59.9495877" lon="17.6680233">
        <ele>27.0543</ele>
        <time>2013-03-10T10:04:45Z</time>
      </trkpt>
      <trkpt lat="59.9495753" lon="17.6680205">
        <ele>27.0543</ele>
        <time>2013-03-10T10:04:46Z</time>
      </trkpt>
      <trkpt lat="59.9495638" lon="17.668015">
        <ele>27.0543</ele>
        <time>2013-03-10T10:04:47Z</time>
      </trkpt>
      <trkpt lat="59.949552" lon="17.6680092">
        <ele>27.0543</ele>
        <time>2013-03-10T10:04:48Z</time>
      </trkpt>
      <trkpt lat="59.9495402" lon="17.6680015">
        <ele>27.0543</ele>
        <time>2013-03-10T10:04:49Z</time>
      </trkpt>
      <trkpt lat="59.9495281" lon="17.6679941">
        <ele>27.0543</ele>
        <time>2013-03-10T10:04:50Z</time>
      </trkpt>
      <trkpt lat="59.9495152" lon="17.6679881">
        <ele>27.0543</ele>
        <time>2013-03-10T10:04:51Z</time>
      </trkpt>
      <trkpt lat="59.9495017" lon="17.667983">
        <ele>27.0543</ele>
        <time>2013-03-10T10:04:52Z</time>
      </trkpt>
      <trkpt lat="59.9494889" lon="17.6679781">
        <ele>27.0543</ele>
        <time>2013-03-10T10:04:53Z</time>
      </trkpt>
      <trkpt lat="59.9494763" lon="17.6679709">
        <ele>26.5736</ele>
        <time>2013-03-10T10:04:54Z</time>
      </trkpt>
      <trkpt lat="59.9494634" lon="17.6679615">
        <ele>26.5736</ele>
        <time>2013-03-10T10:04:55Z</time>
      </trkpt>
      <trkpt lat="59.9494513" lon="17.6679534">
        <ele>26.5736</ele>
        <time>2013-03-10T10:04:56Z</time>
      </trkpt>
      <trkpt lat="59.9494388" lon="17.6679457">
        <ele>26.0929</ele>
        <time>2013-03-10T10:04:57Z</time>
      </trkpt>
      <trkpt lat="59.9494257" lon="17.6679374">
        <ele>26.0929</ele>
        <time>2013-03-10T10:04:58Z</time>
      </trkpt>
      <trkpt lat="59.9494127" lon="17.6679295">
        <ele>26.0929</ele>
        <time>2013-03-10T10:04:59Z</time>
      </trkpt>
      <trkpt lat="59.9493995" lon="17.667921">
        <ele>26.0929</ele>
        <time>2013-03-10T10:05:00Z</time>
      </trkpt>
      <trkpt lat="59.9493863" lon="17.6679124">
        <ele>26.0929</ele>
        <time>2013-03-10T10:05:01Z</time>
      </trkpt>
      <trkpt lat="59.9493727" lon="17.6679046">
        <ele>26.0929</ele>
        <time>2013-03-10T10:05:02Z</time>
      </trkpt>
      <trkpt lat="59.9493591" lon="17.6678968">
        <ele>26.0929</ele>
        <time>2013-03-10T10:05:03Z</time>
      </trkpt>
      <trkpt lat="59.9493454" lon="17.6678897">
        <ele>26.0929</ele>
        <time>2013-03-10T10:05:04Z</time>
      </trkpt>
      <trkpt lat="59.9493314" lon="17.6678844">
        <ele>26.0929</ele>
        <time>2013-03-10T10:05:05Z</time>
      </trkpt>
      <trkpt lat="59.9493186" lon="17.6678787">
        <ele>26.5736</ele>
        <time>2013-03-10T10:05:06Z</time>
      </trkpt>
      <trkpt lat="59.9493059" lon="17.667872">
        <ele>26.5736</ele>
        <time>2013-03-10T10:05:07Z</time>
      </trkpt>
      <trkpt lat="59.949293" lon="17.6678653">
        <ele>26.5736</ele>
        <time>2013-03-10T10:05:08Z</time>
      </trkpt>
      <trkpt lat="59.9492803" lon="17.6678589">
        <ele>26.5736</ele>
        <time>2013-03-10T10:05:09Z</time>
      </trkpt>
      <trkpt lat="59.9492668" lon="17.6678537">
        <ele>26.5736</ele>
        <time>2013-03-10T10:05:10Z</time>
      </trkpt>
      <trkpt lat="59.9492534" lon="17.6678483">
        <ele>26.5736</ele>
        <time>2013-03-10T10:05:11Z</time>
      </trkpt>
      <trkpt lat="59.9492404" lon="17.6678436">
        <ele>26.5736</ele>
        <time>2013-03-10T10:05:12Z</time>
      </trkpt>
      <trkpt lat="59.9492278" lon="17.6678377">
        <ele>26.5736</ele>
        <time>2013-03-10T10:05:13Z</time>
      </trkpt>
      <trkpt lat="59.9492151" lon="17.667832">
        <ele>26.5736</ele>
        <time>2013-03-10T10:05:14Z</time>
      </trkpt>
      <trkpt lat="59.9492027" lon="17.6678259">
        <ele>26.5736</ele>
        <time>2013-03-10T10:05:15Z</time>
      </trkpt>
      <trkpt lat="59.9491907" lon="17.6678195">
        <ele>26.5736</ele>
        <time>2013-03-10T10:05:16Z</time>
      </trkpt>
      <trkpt lat="59.9491785" lon="17.6678131">
        <ele>26.5736</ele>
        <time>2013-03-10T10:05:17Z</time>
      </trkpt>
      <trkpt lat="59.9491665" lon="17.6678057">
        <ele>26.5736</ele>
        <time>2013-03-10T10:05:18Z</time>
      </trkpt>
      <trkpt lat="59.9491541" lon="17.6677983">
        <ele>26.5736</ele>
        <time>2013-03-10T10:05:19Z</time>
      </trkpt>
      <trkpt lat="59.9491415" lon="17.6677897">
        <ele>26.5736</ele>
        <time>2013-03-10T10:05:20Z</time>
      </trkpt>
      <trkpt lat="59.9491289" lon="17.6677807">
        <ele>26.5736</ele>
        <time>2013-03-10T10:05:21Z</time>
      </trkpt>
      <trkpt lat="59.9491167" lon="17.6677726">
        <ele>26.5736</ele>
        <time>2013-03-10T10:05:22Z</time>
      </trkpt>
      <trkpt lat="59.9491044" lon="17.6677638">
        <ele>26.0929</ele>
        <time>2013-03-10T10:05:23Z</time>
      </trkpt>
      <trkpt lat="59.9490919" lon="17.6677539">
        <ele>26.0929</ele>
        <time>2013-03-10T10:05:24Z</time>
      </trkpt>
      <trkpt lat="59.9490796" lon="17.6677446">
        <ele>26.0929</ele>
        <time>2013-03-10T10:05:25Z</time>
      </trkpt>
      <trkpt lat="59.9490676" lon="17.667737">
        <ele>26.0929</ele>
        <time>2013-03-10T10:05:26Z</time>
      </trkpt>
      <trkpt lat="59.9490556" lon="17.6677296">
        <ele>26.5736</ele>
        <time>2013-03-10T10:05:27Z</time>
      </trkpt>
      <trkpt lat="59.9490441" lon="17.6677218">
        <ele>26.5736</ele>
        <time>2013-03-10T10:05:28Z</time>
      </trkpt>
      <trkpt lat="59.9490329" lon="17.6677152">
        <ele>26.0929</ele>
        <time>2013-03-10T10:05:29Z</time>
      </trkpt>
      <trkpt lat="59.9490215" lon="17.6677085">
        <ele>26.0929</ele>
        <time>2013-03-10T10:05:30Z</time>
      </trkpt>
      <trkpt lat="59.9490097" lon="17.6677015">
        <ele>26.0929</ele>
        <time>2013-03-10T10:05:31Z</time>
      </trkpt>
      <trkpt lat="59.9489987" lon="17.6676945">
        <ele>26.0929</ele>
        <time>2013-03-10T10:05:32Z</time>
      </trkpt>
      <trkpt lat="59.9489873" lon="17.6676874">
        <ele>26.0929</ele>
        <time>2013-03-10T10:05:33Z</time>
      </trkpt>
      <trkpt lat="59.9489755" lon="17.6676799">
        <ele>26.0929</ele>
        <time>2013-03-10T10:05:34Z</time>
      </trkpt>
      <trkpt lat="59.9489638" lon="17.6676721">
        <ele>26.0929</ele>
        <time>2013-03-10T10:05:35Z</time>
      </trkpt>
      <trkpt lat="59.948952" lon="17.6676646">
        <ele>26.0929</ele>
        <time>2013-03-10T10:05:36Z</time>
      </trkpt>
      <trkpt lat="59.94894" lon="17.6676567">
        <ele>26.0929</ele>
        <time>2013-03-10T10:05:37Z</time>
      </trkpt>
      <trkpt lat="59.9489277" lon="17.6676489">
        <ele>26.0929</ele>
        <time>2013-03-10T10:05:38Z</time>
      </trkpt>
      <trkpt lat="59.9489152" lon="17.667641">
        <ele>26.0929</ele>
        <time>2013-03-10T10:05:39Z</time>
      </trkpt>
      <trkpt lat="59.9489028" lon="17.667633">
        <ele>26.5736</ele>
        <time>2013-03-10T10:05:40Z</time>
      </trkpt>
      <trkpt lat="59.9488908" lon="17.6676249">
        <ele>26.5736</ele>
        <time>2013-03-10T10:05:41Z</time>
      </trkpt>
      <trkpt lat="59.948879" lon="17.6676171">
        <ele>26.5736</ele>
        <time>2013-03-10T10:05:42Z</time>
      </trkpt>
      <trkpt lat="59.9488673" lon="17.6676105">
        <ele>26.0929</ele>
        <time>2013-03-10T10:05:43Z</time>
      </trkpt>
      <trkpt lat="59.9488557" lon="17.6676053">
        <ele>26.0929</ele>
        <time>2013-03-10T10:05:44Z</time>
      </trkpt>
      <trkpt lat="59.9488443" lon="17.6676">
        <ele>26.0929</ele>
        <time>2013-03-10T10:05:45Z</time>
      </trkpt>
      <trkpt lat="59.9488329" lon="17.6675938">
        <ele>26.0929</ele>
        <time>2013-03-10T10:05:46Z</time>
      </trkpt>
      <trkpt lat="59.9488214" lon="17.6675877">
        <ele>26.0929</ele>
        <time>2013-03-10T10:05:47Z</time>
      </trkpt>
      <trkpt lat="59.9488096" lon="17.6675819">
        <ele>26.0929</ele>
        <time>2013-03-10T10:05:48Z</time>
      </trkpt>
      <trkpt lat="59.9487977" lon="17.6675755">
        <ele>26.0929</ele>
        <time>2013-03-10T10:05:49Z</time>
      </trkpt>
      <trkpt lat="59.9487854" lon="17.6675672">
        <ele>26.0929</ele>
        <time>2013-03-10T10:05:50Z</time>
      </trkpt>
      <trkpt lat="59.9487735" lon="17.667558">
        <ele>26.0929</ele>
        <time>2013-03-10T10:05:51Z</time>
      </trkpt>
      <trkpt lat="59.9487615" lon="17.6675487">
        <ele>26.0929</ele>
        <time>2013-03-10T10:05:52Z</time>
      </trkpt>
      <trkpt lat="59.9487494" lon="17.6675405">
        <ele>26.0929</ele>
        <time>2013-03-10T10:05:53Z</time>
      </trkpt>
      <trkpt lat="59.9487375" lon="17.6675323">
        <ele>26.0929</ele>
        <time>2013-03-10T10:05:54Z</time>
      </trkpt>
      <trkpt lat="59.9487257" lon="17.667524">
        <ele>26.0929</ele>
        <time>2013-03-10T10:05:55Z</time>
      </trkpt>
      <trkpt lat="59.9487149" lon="17.6675171">
        <ele>26.0929</ele>
        <time>2013-03-10T10:05:56Z</time>
      </trkpt>
      <trkpt lat="59.9487049" lon="17.6675108">
        <ele>26.0929</ele>
        <time>2013-03-10T10:05:57Z</time>
      </trkpt>
      <trkpt lat="59.948694" lon="17.6675049">
        <ele>26.0929</ele>
        <time>2013-03-10T10:05:58Z</time>
      </trkpt>
      <trkpt lat="59.9486827" lon="17.6675001">
        <ele>26.0929</ele>
        <time>2013-03-10T10:05:59Z</time>
      </trkpt>
      <trkpt lat="59.9486714" lon="17.6674945">
        <ele>26.0929</ele>
        <time>2013-03-10T10:06:00Z</time>
      </trkpt>
      <trkpt lat="59.9486599" lon="17.667487">
        <ele>26.0929</ele>
        <time>2013-03-10T10:06:01Z</time>
      </trkpt>
      <trkpt lat="59.9486476" lon="17.6674782">
        <ele>26.0929</ele>
        <time>2013-03-10T10:06:02Z</time>
      </trkpt>
      <trkpt lat="59.9486352" lon="17.6674696">
        <ele>26.0929</ele>
        <time>2013-03-10T10:06:03Z</time>
      </trkpt>
      <trkpt lat="59.9486228" lon="17.6674616">
        <ele>26.0929</ele>
        <time>2013-03-10T10:06:04Z</time>
      </trkpt>
      <trkpt lat="59.9486131" lon="17.6674565">
        <ele>26.0929</ele>
        <time>2013-03-10T10:06:05Z</time>
      </trkpt>
      <trkpt lat="59.9486004" lon="17.6674564">
        <ele>26.0929</ele>
        <time>2013-03-10T10:06:06Z</time>
      </trkpt>
      <trkpt lat="59.9485854" lon="17.6674597">
        <ele>26.5736</ele>
        <time>2013-03-10T10:06:07Z</time>
      </trkpt>
      <trkpt lat="59.9485728" lon="17.6674618">
        <ele>26.5736</ele>
        <time>2013-03-10T10:06:08Z</time>
      </trkpt>
      <trkpt lat="59.9485605" lon="17.6674605">
        <ele>26.5736</ele>
        <time>2013-03-10T10:06:09Z</time>
      </trkpt>
      <trkpt lat="59.948548" lon="17.6674574">
        <ele>26.5736</ele>
        <time>2013-03-10T10:06:10Z</time>
      </trkpt>
      <trkpt lat="59.9485347" lon="17.6674543">
        <ele>26.5736</ele>
        <time>2013-03-10T10:06:11Z</time>
      </trkpt>
      <trkpt lat="59.9485216" lon="17.6674504">
        <ele>26.5736</ele>
        <time>2013-03-10T10:06:12Z</time>
      </trkpt>
      <trkpt lat="59.9485097" lon="17.6674427">
        <ele>26.0929</ele>
        <time>2013-03-10T10:06:13Z</time>
      </trkpt>
      <trkpt lat="59.9484973" lon="17.6674334">
        <ele>26.0929</ele>
        <time>2013-03-10T10:06:14Z</time>
      </trkpt>
      <trkpt lat="59.9484849" lon="17.6674276">
        <ele>26.0929</ele>
        <time>2013-03-10T10:06:15Z</time>
      </trkpt>
      <trkpt lat="59.9484724" lon="17.6674225">
        <ele>25.6123</ele>
        <time>2013-03-10T10:06:16Z</time>
      </trkpt>
      <trkpt lat="59.9484594" lon="17.6674157">
        <ele>25.6123</ele>
        <time>2013-03-10T10:06:17Z</time>
      </trkpt>
      <trkpt lat="59.9484465" lon="17.6674069">
        <ele>25.6123</ele>
        <time>2013-03-10T10:06:18Z</time>
      </trkpt>
      <trkpt lat="59.9484331" lon="17.6673965">
        <ele>25.6123</ele>
        <time>2013-03-10T10:06:19Z</time>
      </trkpt>
      <trkpt lat="59.9484202" lon="17.6673876">
        <ele>25.6123</ele>
        <time>2013-03-10T10:06:20Z</time>
      </trkpt>
      <trkpt lat="59.9484076" lon="17.6673799">
        <ele>26.0929</ele>
        <time>2013-03-10T10:06:21Z</time>
      </trkpt>
      <trkpt lat="59.9483956" lon="17.6673727">
        <ele>26.0929</ele>
        <time>2013-03-10T10:06:22Z</time>
      </trkpt>
      <trkpt lat="59.9483834" lon="17.6673663">
        <ele>26.0929</ele>
        <time>2013-03-10T10:06:23Z</time>
      </trkpt>
      <trkpt lat="59.9483712" lon="17.6673604">
        <ele>26.0929</ele>
        <time>2013-03-10T10:06:24Z</time>
      </trkpt>
      <trkpt lat="59.9483585" lon="17.667354">
        <ele>26.0929</ele>
        <time>2013-03-10T10:06:25Z</time>
      </trkpt>
      <trkpt lat="59.9483461" lon="17.6673478">
        <ele>26.0929</ele>
        <time>2013-03-10T10:06:26Z</time>
      </trkpt>
      <trkpt lat="59.9483346" lon="17.6673433">
        <ele>26.0929</ele>
        <time>2013-03-10T10:06:27Z</time>
      </trkpt>
      <trkpt lat="59.9483226" lon="17.667338">
        <ele>25.6123</ele>
        <time>2013-03-10T10:06:28Z</time>
      </trkpt>
      <trkpt lat="59.9483104" lon="17.6673334">
        <ele>25.6123</ele>
        <time>2013-03-10T10:06:29Z</time>
      </trkpt>
      <trkpt lat="59.9482979" lon="17.6673276">
        <ele>26.0929</ele>
        <time>2013-03-10T10:06:30Z</time>
      </trkpt>
      <trkpt lat="59.9482849" lon="17.6673188">
        <ele>26.0929</ele>
        <time>2013-03-10T10:06:31Z</time>
      </trkpt>
      <trkpt lat="59.9482723" lon="17.6673096">
        <ele>26.0929</ele>
        <time>2013-03-10T10:06:32Z</time>
      </trkpt>
      <trkpt lat="59.9482601" lon="17.6673041">
        <ele>26.0929</ele>
        <time>2013-03-10T10:06:33Z</time>
      </trkpt>
      <trkpt lat="59.9482481" lon="17.6672994">
        <ele>26.0929</ele>
        <time>2013-03-10T10:06:34Z</time>
      </trkpt>
      <trkpt lat="59.9482348" lon="17.6672924">
        <ele>26.5736</ele>
        <time>2013-03-10T10:06:35Z</time>
      </trkpt>
      <trkpt lat="59.948222" lon="17.6672855">
        <ele>26.5736</ele>
        <time>2013-03-10T10:06:36Z</time>
      </trkpt>
      <trkpt lat="59.9482094" lon="17.6672761">
        <ele>26.5736</ele>
        <time>2013-03-10T10:06:37Z</time>
      </trkpt>
      <trkpt lat="59.9481962" lon="17.6672706">
        <ele>27.0543</ele>
        <time>2013-03-10T10:06:38Z</time>
      </trkpt>
      <trkpt lat="59.9481832" lon="17.6672665">
        <ele>27.0543</ele>
        <time>2013-03-10T10:06:39Z</time>
      </trkpt>
      <trkpt lat="59.9481711" lon="17.6672602">
        <ele>27.0543</ele>
        <time>2013-03-10T10:06:40Z</time>
      </trkpt>
      <trkpt lat="59.9481595" lon="17.6672559">
        <ele>27.0543</ele>
        <time>2013-03-10T10:06:41Z</time>
      </trkpt>
      <trkpt lat="59.9481487" lon="17.6672519">
        <ele>26.5736</ele>
        <time>2013-03-10T10:06:42Z</time>
      </trkpt>
      <trkpt lat="59.9481372" lon="17.6672453">
        <ele>26.5736</ele>
        <time>2013-03-10T10:06:43Z</time>
      </trkpt>
      <trkpt lat="59.9481255" lon="17.667239">
        <ele>26.5736</ele>
        <time>2013-03-10T10:06:44Z</time>
      </trkpt>
      <trkpt lat="59.9481144" lon="17.6672297">
        <ele>26.5736</ele>
        <time>2013-03-10T10:06:45Z</time>
      </trkpt>
      <trkpt lat="59.9481034" lon="17.6672212">
        <ele>27.0543</ele>
        <time>2013-03-10T10:06:46Z</time>
      </trkpt>
      <trkpt lat="59.9480907" lon="17.6672142">
        <ele>26.5736</ele>
        <time>2013-03-10T10:06:47Z</time>
      </trkpt>
      <trkpt lat="59.9480776" lon="17.6672057">
        <ele>26.5736</ele>
        <time>2013-03-10T10:06:48Z</time>
      </trkpt>
      <trkpt lat="59.9480643" lon="17.6672007">
        <ele>27.0543</ele>
        <time>2013-03-10T10:06:49Z</time>
      </trkpt>
      <trkpt lat="59.9480508" lon="17.667194">
        <ele>27.0543</ele>
        <time>2013-03-10T10:06:50Z</time>
      </trkpt>
      <trkpt lat="59.9480372" lon="17.6671825">
        <ele>27.0543</ele>
        <time>2013-03-10T10:06:51Z</time>
      </trkpt>
      <trkpt lat="59.9480237" lon="17.6671722">
        <ele>27.0543</ele>
        <time>2013-03-10T10:06:52Z</time>
      </trkpt>
      <trkpt lat="59.9480104" lon="17.6671637">
        <ele>27.5349</ele>
        <time>2013-03-10T10:06:53Z</time>
      </trkpt>
      <trkpt lat="59.9479984" lon="17.6671562">
        <ele>27.5349</ele>
        <time>2013-03-10T10:06:54Z</time>
      </trkpt>
      <trkpt lat="59.947987" lon="17.66715">
        <ele>27.5349</ele>
        <time>2013-03-10T10:06:55Z</time>
      </trkpt>
      <trkpt lat="59.9479758" lon="17.6671438">
        <ele>27.5349</ele>
        <time>2013-03-10T10:06:56Z</time>
      </trkpt>
      <trkpt lat="59.9479651" lon="17.6671383">
        <ele>27.5349</ele>
        <time>2013-03-10T10:06:57Z</time>
      </trkpt>
      <trkpt lat="59.947954" lon="17.6671338">
        <ele>27.5349</ele>
        <time>2013-03-10T10:06:58Z</time>
      </trkpt>
      <trkpt lat="59.9479425" lon="17.6671277">
        <ele>27.5349</ele>
        <time>2013-03-10T10:06:59Z</time>
      </trkpt>
      <trkpt lat="59.9479301" lon="17.6671194">
        <ele>27.0543</ele>
        <time>2013-03-10T10:07:00Z</time>
      </trkpt>
      <trkpt lat="59.9479171" lon="17.6671111">
        <ele>27.5349</ele>
        <time>2013-03-10T10:07:01Z</time>
      </trkpt>
      <trkpt lat="59.9479042" lon="17.6671041">
        <ele>27.5349</ele>
        <time>2013-03-10T10:07:02Z</time>
      </trkpt>
      <trkpt lat="59.9478911" lon="17.6670956">
        <ele>27.5349</ele>
        <time>2013-03-10T10:07:03Z</time>
      </trkpt>
      <trkpt lat="59.9478782" lon="17.6670876">
        <ele>27.5349</ele>
        <time>2013-03-10T10:07:04Z</time>
      </trkpt>
      <trkpt lat="59.9478653" lon="17.6670805">
        <ele>27.5349</ele>
        <time>2013-03-10T10:07:05Z</time>
      </trkpt>
      <trkpt lat="59.9478524" lon="17.6670737">
        <ele>27.5349</ele>
        <time>2013-03-10T10:07:06Z</time>
      </trkpt>
      <trkpt lat="59.9478393" lon="17.6670666">
        <ele>27.5349</ele>
        <time>2013-03-10T10:07:07Z</time>
      </trkpt>
      <trkpt lat="59.947826" lon="17.6670598">
        <ele>27.5349</ele>
        <time>2013-03-10T10:07:08Z</time>
      </trkpt>
      <trkpt lat="59.9478125" lon="17.6670541">
        <ele>27.5349</ele>
        <time>2013-03-10T10:07:09Z</time>
      </trkpt>
      <trkpt lat="59.9477989" lon="17.6670484">
        <ele>28.0155</ele>
        <time>2013-03-10T10:07:10Z</time>
      </trkpt>
      <trkpt lat="59.9477861" lon="17.667043">
        <ele>27.5349</ele>
        <time>2013-03-10T10:07:11Z</time>
      </trkpt>
      <trkpt lat="59.9477732" lon="17.6670374">
        <ele>27.5349</ele>
        <time>2013-03-10T10:07:12Z</time>
      </trkpt>
      <trkpt lat="59.9477596" lon="17.6670353">
        <ele>28.0155</ele>
        <time>2013-03-10T10:07:13Z</time>
      </trkpt>
      <trkpt lat="59.947746" lon="17.6670328">
        <ele>28.0155</ele>
        <time>2013-03-10T10:07:14Z</time>
      </trkpt>
      <trkpt lat="59.9477333" lon="17.6670256">
        <ele>27.5349</ele>
        <time>2013-03-10T10:07:15Z</time>
      </trkpt>
      <trkpt lat="59.9477213" lon="17.6670184">
        <ele>27.5349</ele>
        <time>2013-03-10T10:07:16Z</time>
      </trkpt>
      <trkpt lat="59.9477094" lon="17.6670121">
        <ele>27.5349</ele>
        <time>2013-03-10T10:07:17Z</time>
      </trkpt>
      <trkpt lat="59.947697" lon="17.6670066">
        <ele>27.5349</ele>
        <time>2013-03-10T10:07:18Z</time>
      </trkpt>
      <trkpt lat="59.9476841" lon="17.6670007">
        <ele>27.5349</ele>
        <time>2013-03-10T10:07:19Z</time>
      </trkpt>
      <trkpt lat="59.9476709" lon="17.6669941">
        <ele>27.5349</ele>
        <time>2013-03-10T10:07:20Z</time>
      </trkpt>
      <trkpt lat="59.9476579" lon="17.6669877">
        <ele>28.0155</ele>
        <time>2013-03-10T10:07:21Z</time>
      </trkpt>
      <trkpt lat="59.9476446" lon="17.6669806">
        <ele>27.5349</ele>
        <time>2013-03-10T10:07:22Z</time>
      </trkpt>
      <trkpt lat="59.947631" lon="17.6669731">
        <ele>27.5349</ele>
        <time>2013-03-10T10:07:23Z</time>
      </trkpt>
      <trkpt lat="59.9476172" lon="17.6669665">
        <ele>28.0155</ele>
        <time>2013-03-10T10:07:24Z</time>
      </trkpt>
      <trkpt lat="59.947604" lon="17.6669591">
        <ele>28.0155</ele>
        <time>2013-03-10T10:07:25Z</time>
      </trkpt>
      <trkpt lat="59.9475911" lon="17.666951">
        <ele>28.4962</ele>
        <time>2013-03-10T10:07:26Z</time>
      </trkpt>
      <trkpt lat="59.9475778" lon="17.6669436">
        <ele>28.4962</ele>
        <time>2013-03-10T10:07:27Z</time>
      </trkpt>
      <trkpt lat="59.9475647" lon="17.6669365">
        <ele>28.4962</ele>
        <time>2013-03-10T10:07:28Z</time>
      </trkpt>
      <trkpt lat="59.9475515" lon="17.6669306">
        <ele>28.4962</ele>
        <time>2013-03-10T10:07:29Z</time>
      </trkpt>
      <trkpt lat="59.947539" lon="17.6669263">
        <ele>28.9769</ele>
        <time>2013-03-10T10:07:30Z</time>
      </trkpt>
      <trkpt lat="59.947527" lon="17.666923">
        <ele>28.9769</ele>
        <time>2013-03-10T10:07:31Z</time>
      </trkpt>
      <trkpt lat="59.9475146" lon="17.6669189">
        <ele>28.4962</ele>
        <time>2013-03-10T10:07:32Z</time>
      </trkpt>
      <trkpt lat="59.9475016" lon="17.6669128">
        <ele>28.4962</ele>
        <time>2013-03-10T10:07:33Z</time>
      </trkpt>
      <trkpt lat="59.9474888" lon="17.6669061">
        <ele>28.4962</ele>
        <time>2013-03-10T10:07:34Z</time>
      </trkpt>
      <trkpt lat="59.9474763" lon="17.6668973">
        <ele>28.0155</ele>
        <time>2013-03-10T10:07:35Z</time>
      </trkpt>
      <trkpt lat="59.9474642" lon="17.6668895">
        <ele>28.0155</ele>
        <time>2013-03-10T10:07:36Z</time>
      </trkpt>
      <trkpt lat="59.9474519" lon="17.6668852">
        <ele>28.0155</ele>
        <time>2013-03-10T10:07:37Z</time>
      </trkpt>
      <trkpt lat="59.9474391" lon="17.6668785">
        <ele>27.5349</ele>
        <time>2013-03-10T10:07:38Z</time>
      </trkpt>
      <trkpt lat="59.9474266" lon="17.6668711">
        <ele>27.5349</ele>
        <time>2013-03-10T10:07:39Z</time>
      </trkpt>
      <trkpt lat="59.9474137" lon="17.6668643">
        <ele>27.5349</ele>
        <time>2013-03-10T10:07:40Z</time>
      </trkpt>
      <trkpt lat="59.9474008" lon="17.6668567">
        <ele>27.5349</ele>
        <time>2013-03-10T10:07:41Z</time>
      </trkpt>
      <trkpt lat="59.9473882" lon="17.666851">
        <ele>27.5349</ele>
        <time>2013-03-10T10:07:42Z</time>
      </trkpt>
      <trkpt lat="59.9473753" lon="17.6668462">
        <ele>28.0155</ele>
        <time>2013-03-10T10:07:43Z</time>
      </trkpt>
      <trkpt lat="59.9473619" lon="17.6668401">
        <ele>27.5349</ele>
        <time>2013-03-10T10:07:44Z</time>
      </trkpt>
      <trkpt lat="59.9473484" lon="17.6668332">
        <ele>27.5349</ele>
        <time>2013-03-10T10:07:45Z</time>
      </trkpt>
      <trkpt lat="59.9473354" lon="17.6668268">
        <ele>27.5349</ele>
        <time>2013-03-10T10:07:46Z</time>
      </trkpt>
      <trkpt lat="59.9473224" lon="17.66682">
        <ele>27.5349</ele>
        <time>2013-03-10T10:07:47Z</time>
      </trkpt>
      <trkpt lat="59.9473096" lon="17.6668133">
        <ele>27.5349</ele>
        <time>2013-03-10T10:07:48Z</time>
      </trkpt>
      <trkpt lat="59.947297" lon="17.6668086">
        <ele>28.0155</ele>
        <time>2013-03-10T10:07:49Z</time>
      </trkpt>
      <trkpt lat="59.9472841" lon="17.6668049">
        <ele>28.0155</ele>
        <time>2013-03-10T10:07:50Z</time>
      </trkpt>
      <trkpt lat="59.947271" lon="17.6668001">
        <ele>28.0155</ele>
        <time>2013-03-10T10:07:51Z</time>
      </trkpt>
      <trkpt lat="59.947258" lon="17.6667931">
        <ele>27.5349</ele>
        <time>2013-03-10T10:07:52Z</time>
      </trkpt>
      <trkpt lat="59.9472456" lon="17.6667862">
        <ele>27.5349</ele>
        <time>2013-03-10T10:07:53Z</time>
      </trkpt>
      <trkpt lat="59.9472328" lon="17.6667802">
        <ele>27.5349</ele>
        <time>2013-03-10T10:07:54Z</time>
      </trkpt>
      <trkpt lat="59.9472204" lon="17.6667733">
        <ele>27.5349</ele>
        <time>2013-03-10T10:07:55Z</time>
      </trkpt>
      <trkpt lat="59.947208" lon="17.6667676">
        <ele>27.5349</ele>
        <time>2013-03-10T10:07:56Z</time>
      </trkpt>
      <trkpt lat="59.9471954" lon="17.666762">
        <ele>27.5349</ele>
        <time>2013-03-10T10:07:57Z</time>
      </trkpt>
      <trkpt lat="59.9471827" lon="17.6667567">
        <ele>27.5349</ele>
        <time>2013-03-10T10:07:58Z</time>
      </trkpt>
      <trkpt lat="59.9471699" lon="17.6667522">
        <ele>27.0543</ele>
        <time>2013-03-10T10:07:59Z</time>
      </trkpt>
      <trkpt lat="59.9471572" lon="17.6667481">
        <ele>27.5349</ele>
        <time>2013-03-10T10:08:00Z</time>
      </trkpt>
      <trkpt lat="59.9471446" lon="17.6667443">
        <ele>27.5349</ele>
        <time>2013-03-10T10:08:01Z</time>
      </trkpt>
      <trkpt lat="59.9471318" lon="17.6667387">
        <ele>27.0543</ele>
        <time>2013-03-10T10:08:02Z</time>
      </trkpt>
      <trkpt lat="59.947119" lon="17.6667323">
        <ele>27.0543</ele>
        <time>2013-03-10T10:08:03Z</time>
      </trkpt>
      <trkpt lat="59.9471062" lon="17.6667258">
        <ele>27.0543</ele>
        <time>2013-03-10T10:08:04Z</time>
      </trkpt>
      <trkpt lat="59.9470935" lon="17.6667203">
        <ele>27.0543</ele>
        <time>2013-03-10T10:08:05Z</time>
      </trkpt>
      <trkpt lat="59.9470809" lon="17.6667154">
        <ele>27.0543</ele>
        <time>2013-03-10T10:08:06Z</time>
      </trkpt>
      <trkpt lat="59.9470674" lon="17.6667086">
        <ele>27.0543</ele>
        <time>2013-03-10T10:08:07Z</time>
      </trkpt>
      <trkpt lat="59.9470536" lon="17.6667001">
        <ele>27.0543</ele>
        <time>2013-03-10T10:08:08Z</time>
      </trkpt>
      <trkpt lat="59.9470407" lon="17.6666934">
        <ele>27.0543</ele>
        <time>2013-03-10T10:08:09Z</time>
      </trkpt>
      <trkpt lat="59.9470283" lon="17.6666877">
        <ele>26.5736</ele>
        <time>2013-03-10T10:08:10Z</time>
      </trkpt>
      <trkpt lat="59.9470159" lon="17.6666844">
        <ele>26.5736</ele>
        <time>2013-03-10T10:08:11Z</time>
      </trkpt>
      <trkpt lat="59.9470031" lon="17.6666822">
        <ele>26.5736</ele>
        <time>2013-03-10T10:08:12Z</time>
      </trkpt>
      <trkpt lat="59.9469902" lon="17.6666771">
        <ele>27.0543</ele>
        <time>2013-03-10T10:08:13Z</time>
      </trkpt>
      <trkpt lat="59.9469779" lon="17.6666728">
        <ele>27.0543</ele>
        <time>2013-03-10T10:08:14Z</time>
      </trkpt>
      <trkpt lat="59.9469651" lon="17.6666673">
        <ele>27.0543</ele>
        <time>2013-03-10T10:08:15Z</time>
      </trkpt>
      <trkpt lat="59.9469525" lon="17.6666615">
        <ele>27.0543</ele>
        <time>2013-03-10T10:08:16Z</time>
      </trkpt>
      <trkpt lat="59.94694" lon="17.666655">
        <ele>27.0543</ele>
        <time>2013-03-10T10:08:17Z</time>
      </trkpt>
      <trkpt lat="59.9469275" lon="17.6666493">
        <ele>27.0543</ele>
        <time>2013-03-10T10:08:18Z</time>
      </trkpt>
      <trkpt lat="59.9469146" lon="17.6666433">
        <ele>27.5349</ele>
        <time>2013-03-10T10:08:19Z</time>
      </trkpt>
      <trkpt lat="59.9469014" lon="17.6666382">
        <ele>27.5349</ele>
        <time>2013-03-10T10:08:20Z</time>
      </trkpt>
      <trkpt lat="59.9468884" lon="17.6666335">
        <ele>28.0155</ele>
        <time>2013-03-10T10:08:21Z</time>
      </trkpt>
      <trkpt lat="59.9468754" lon="17.6666283">
        <ele>28.0155</ele>
        <time>2013-03-10T10:08:22Z</time>
      </trkpt>
      <trkpt lat="59.946862" lon="17.6666222">
        <ele>28.0155</ele>
        <time>2013-03-10T10:08:23Z</time>
      </trkpt>
      <trkpt lat="59.9468486" lon="17.6666163">
        <ele>28.0155</ele>
        <time>2013-03-10T10:08:24Z</time>
      </trkpt>
      <trkpt lat="59.9468359" lon="17.6666097">
        <ele>28.0155</ele>
        <time>2013-03-10T10:08:25Z</time>
      </trkpt>
      <trkpt lat="59.946823" lon="17.6666034">
        <ele>28.0155</ele>
        <time>2013-03-10T10:08:26Z</time>
      </trkpt>
      <trkpt lat="59.94681" lon="17.6665982">
        <ele>28.0155</ele>
        <time>2013-03-10T10:08:27Z</time>
      </trkpt>
      <trkpt lat="59.9467961" lon="17.6665942">
        <ele>28.0155</ele>
        <time>2013-03-10T10:08:28Z</time>
      </trkpt>
      <trkpt lat="59.9467819" lon="17.66659">
        <ele>28.0155</ele>
        <time>2013-03-10T10:08:29Z</time>
      </trkpt>
      <trkpt lat="59.9467682" lon="17.6665865">
        <ele>28.4962</ele>
        <time>2013-03-10T10:08:30Z</time>
      </trkpt>
      <trkpt lat="59.9467541" lon="17.6665835">
        <ele>28.4962</ele>
        <time>2013-03-10T10:08:31Z</time>
      </trkpt>
      <trkpt lat="59.9467401" lon="17.6665801">
        <ele>28.4962</ele>
        <time>2013-03-10T10:08:32Z</time>
      </trkpt>
      <trkpt lat="59.9467266" lon="17.6665786">
        <ele>28.4962</ele>
        <time>2013-03-10T10:08:33Z</time>
      </trkpt>
      <trkpt lat="59.9467131" lon="17.666577">
        <ele>28.0155</ele>
        <time>2013-03-10T10:08:34Z</time>
      </trkpt>
      <trkpt lat="59.9466998" lon="17.6665749">
        <ele>28.0155</ele>
        <time>2013-03-10T10:08:35Z</time>
      </trkpt>
      <trkpt lat="59.9466868" lon="17.6665751">
        <ele>28.0155</ele>
        <time>2013-03-10T10:08:36Z</time>
      </trkpt>
      <trkpt lat="59.9466735" lon="17.666576">
        <ele>28.0155</ele>
        <time>2013-03-10T10:08:37Z</time>
      </trkpt>
      <trkpt lat="59.9466603" lon="17.6665776">
        <ele>28.0155</ele>
        <time>2013-03-10T10:08:38Z</time>
      </trkpt>
      <trkpt lat="59.9466468" lon="17.6665806">
        <ele>28.4962</ele>
        <time>2013-03-10T10:08:39Z</time>
      </trkpt>
      <trkpt lat="59.946633" lon="17.6665832">
        <ele>28.4962</ele>
        <time>2013-03-10T10:08:40Z</time>
      </trkpt>
      <trkpt lat="59.9466193" lon="17.6665856">
        <ele>28.4962</ele>
        <time>2013-03-10T10:08:41Z</time>
      </trkpt>
      <trkpt lat="59.9466056" lon="17.666589">
        <ele>28.4962</ele>
        <time>2013-03-10T10:08:42Z</time>
      </trkpt>
      <trkpt lat="59.9465924" lon="17.6665905">
        <ele>28.4962</ele>
        <time>2013-03-10T10:08:43Z</time>
      </trkpt>
      <trkpt lat="59.9465791" lon="17.6665888">
        <ele>28.4962</ele>
        <time>2013-03-10T10:08:44Z</time>
      </trkpt>
      <trkpt lat="59.9465655" lon="17.6665883">
        <ele>28.4962</ele>
        <time>2013-03-10T10:08:45Z</time>
      </trkpt>
      <trkpt lat="59.9465518" lon="17.6665884">
        <ele>28.4962</ele>
        <time>2013-03-10T10:08:46Z</time>
      </trkpt>
      <trkpt lat="59.9465382" lon="17.6665878">
        <ele>28.4962</ele>
        <time>2013-03-10T10:08:47Z</time>
      </trkpt>
      <trkpt lat="59.9465252" lon="17.6665857">
        <ele>28.4962</ele>
        <time>2013-03-10T10:08:48Z</time>
      </trkpt>
      <trkpt lat="59.9465119" lon="17.6665795">
        <ele>28.0155</ele>
        <time>2013-03-10T10:08:49Z</time>
      </trkpt>
      <trkpt lat="59.9464988" lon="17.6665713">
        <ele>28.0155</ele>
        <time>2013-03-10T10:08:50Z</time>
      </trkpt>
      <trkpt lat="59.946486" lon="17.666566">
        <ele>28.0155</ele>
        <time>2013-03-10T10:08:51Z</time>
      </trkpt>
      <trkpt lat="59.9464734" lon="17.6665619">
        <ele>28.0155</ele>
        <time>2013-03-10T10:08:52Z</time>
      </trkpt>
      <trkpt lat="59.9464606" lon="17.6665583">
        <ele>28.0155</ele>
        <time>2013-03-10T10:08:53Z</time>
      </trkpt>
      <trkpt lat="59.9464481" lon="17.6665536">
        <ele>28.0155</ele>
        <time>2013-03-10T10:08:54Z</time>
      </trkpt>
      <trkpt lat="59.9464356" lon="17.6665479">
        <ele>28.0155</ele>
        <time>2013-03-10T10:08:55Z</time>
      </trkpt>
      <trkpt lat="59.9464236" lon="17.6665419">
        <ele>28.0155</ele>
        <time>2013-03-10T10:08:56Z</time>
      </trkpt>
      <trkpt lat="59.9464117" lon="17.6665361">
        <ele>27.5349</ele>
        <time>2013-03-10T10:08:57Z</time>
      </trkpt>
      <trkpt lat="59.9463993" lon="17.6665331">
        <ele>28.0155</ele>
        <time>2013-03-10T10:08:58Z</time>
      </trkpt>
      <trkpt lat="59.9463868" lon="17.6665309">
        <ele>28.0155</ele>
        <time>2013-03-10T10:08:59Z</time>
      </trkpt>
      <trkpt lat="59.9463745" lon="17.6665255">
        <ele>28.0155</ele>
        <time>2013-03-10T10:09:00Z</time>
      </trkpt>
      <trkpt lat="59.9463627" lon="17.6665165">
        <ele>28.0155</ele>
        <time>2013-03-10T10:09:01Z</time>
      </trkpt>
      <trkpt lat="59.9463511" lon="17.666507">
        <ele>28.0155</ele>
        <time>2013-03-10T10:09:02Z</time>
      </trkpt>
      <trkpt lat="59.9463392" lon="17.6664979">
        <ele>28.0155</ele>
        <time>2013-03-10T10:09:03Z</time>
      </trkpt>
      <trkpt lat="59.9463269" lon="17.6664899">
        <ele>28.0155</ele>
        <time>2013-03-10T10:09:04Z</time>
      </trkpt>
      <trkpt lat="59.9463147" lon="17.6664822">
        <ele>28.0155</ele>
        <time>2013-03-10T10:09:05Z</time>
      </trkpt>
      <trkpt lat="59.946302" lon="17.6664738">
        <ele>28.4962</ele>
        <time>2013-03-10T10:09:06Z</time>
      </trkpt>
      <trkpt lat="59.94629" lon="17.666464">
        <ele>28.0155</ele>
        <time>2013-03-10T10:09:07Z</time>
      </trkpt>
      <trkpt lat="59.9462781" lon="17.6664522">
        <ele>28.0155</ele>
        <time>2013-03-10T10:09:08Z</time>
      </trkpt>
      <trkpt lat="59.9462657" lon="17.6664401">
        <ele>28.0155</ele>
        <time>2013-03-10T10:09:09Z</time>
      </trkpt>
      <trkpt lat="59.9462537" lon="17.6664283">
        <ele>28.0155</ele>
        <time>2013-03-10T10:09:10Z</time>
      </trkpt>
      <trkpt lat="59.9462414" lon="17.6664175">
        <ele>28.0155</ele>
        <time>2013-03-10T10:09:11Z</time>
      </trkpt>
      <trkpt lat="59.9462294" lon="17.6664066">
        <ele>28.0155</ele>
        <time>2013-03-10T10:09:12Z</time>
      </trkpt>
      <trkpt lat="59.9462174" lon="17.6663973">
        <ele>28.0155</ele>
        <time>2013-03-10T10:09:13Z</time>
      </trkpt>
      <trkpt lat="59.9462051" lon="17.66639">
        <ele>28.0155</ele>
        <time>2013-03-10T10:09:14Z</time>
      </trkpt>
      <trkpt lat="59.946193" lon="17.6663833">
        <ele>28.0155</ele>
        <time>2013-03-10T10:09:15Z</time>
      </trkpt>
      <trkpt lat="59.9461811" lon="17.6663774">
        <ele>28.0155</ele>
        <time>2013-03-10T10:09:16Z</time>
      </trkpt>
      <trkpt lat="59.9461689" lon="17.6663727">
        <ele>28.0155</ele>
        <time>2013-03-10T10:09:17Z</time>
      </trkpt>
      <trkpt lat="59.9461569" lon="17.6663677">
        <ele>28.0155</ele>
        <time>2013-03-10T10:09:18Z</time>
      </trkpt>
      <trkpt lat="59.9461445" lon="17.666363">
        <ele>28.0155</ele>
        <time>2013-03-10T10:09:19Z</time>
      </trkpt>
      <trkpt lat="59.9461318" lon="17.6663579">
        <ele>28.0155</ele>
        <time>2013-03-10T10:09:20Z</time>
      </trkpt>
      <trkpt lat="59.9461186" lon="17.666353">
        <ele>28.0155</ele>
        <time>2013-03-10T10:09:21Z</time>
      </trkpt>
      <trkpt lat="59.9461056" lon="17.6663474">
        <ele>28.0155</ele>
        <time>2013-03-10T10:09:22Z</time>
      </trkpt>
      <trkpt lat="59.9460931" lon="17.6663409">
        <ele>28.0155</ele>
        <time>2013-03-10T10:09:23Z</time>
      </trkpt>
      <trkpt lat="59.9460803" lon="17.6663355">
        <ele>28.0155</ele>
        <time>2013-03-10T10:09:24Z</time>
      </trkpt>
      <trkpt lat="59.9460668" lon="17.6663302">
        <ele>28.0155</ele>
        <time>2013-03-10T10:09:25Z</time>
      </trkpt>
      <trkpt lat="59.9460529" lon="17.6663252">
        <ele>28.0155</ele>
        <time>2013-03-10T10:09:26Z</time>
      </trkpt>
      <trkpt lat="59.9460393" lon="17.6663195">
        <ele>28.0155</ele>
        <time>2013-03-10T10:09:27Z</time>
      </trkpt>
      <trkpt lat="59.9460257" lon="17.6663144">
        <ele>28.0155</ele>
        <time>2013-03-10T10:09:28Z</time>
      </trkpt>
      <trkpt lat="59.9460124" lon="17.6663092">
        <ele>28.0155</ele>
        <time>2013-03-10T10:09:29Z</time>
      </trkpt>
      <trkpt lat="59.9459992" lon="17.6663036">
        <ele>28.0155</ele>
        <time>2013-03-10T10:09:30Z</time>
      </trkpt>
      <trkpt lat="59.9459863" lon="17.6662992">
        <ele>28.0155</ele>
        <time>2013-03-10T10:09:31Z</time>
      </trkpt>
      <trkpt lat="59.9459745" lon="17.6662953">
        <ele>28.0155</ele>
        <time>2013-03-10T10:09:32Z</time>
      </trkpt>
      <trkpt lat="59.9459631" lon="17.6662907">
        <ele>28.0155</ele>
        <time>2013-03-10T10:09:33Z</time>
      </trkpt>
      <trkpt lat="59.9459514" lon="17.6662849">
        <ele>28.0155</ele>
        <time>2013-03-10T10:09:34Z</time>
      </trkpt>
      <trkpt lat="59.9459397" lon="17.666279">
        <ele>28.0155</ele>
        <time>2013-03-10T10:09:35Z</time>
      </trkpt>
      <trkpt lat="59.9459278" lon="17.666274">
        <ele>28.0155</ele>
        <time>2013-03-10T10:09:36Z</time>
      </trkpt>
      <trkpt lat="59.9459158" lon="17.6662702">
        <ele>28.0155</ele>
        <time>2013-03-10T10:09:37Z</time>
      </trkpt>
      <trkpt lat="59.9459036" lon="17.6662678">
        <ele>28.0155</ele>
        <time>2013-03-10T10:09:38Z</time>
      </trkpt>
      <trkpt lat="59.9458911" lon="17.6662655">
        <ele>28.0155</ele>
        <time>2013-03-10T10:09:39Z</time>
      </trkpt>
      <trkpt lat="59.9458782" lon="17.6662605">
        <ele>28.0155</ele>
        <time>2013-03-10T10:09:40Z</time>
      </trkpt>
      <trkpt lat="59.9458657" lon="17.6662553">
        <ele>28.0155</ele>
        <time>2013-03-10T10:09:41Z</time>
      </trkpt>
      <trkpt lat="59.945853" lon="17.6662502">
        <ele>28.0155</ele>
        <time>2013-03-10T10:09:42Z</time>
      </trkpt>
      <trkpt lat="59.9458403" lon="17.6662448">
        <ele>28.0155</ele>
        <time>2013-03-10T10:09:43Z</time>
      </trkpt>
      <trkpt lat="59.9458274" lon="17.6662394">
        <ele>28.0155</ele>
        <time>2013-03-10T10:09:44Z</time>
      </trkpt>
      <trkpt lat="59.9458146" lon="17.6662346">
        <ele>28.0155</ele>
        <time>2013-03-10T10:09:45Z</time>
      </trkpt>
      <trkpt lat="59.945802" lon="17.6662305">
        <ele>28.4962</ele>
        <time>2013-03-10T10:09:46Z</time>
      </trkpt>
      <trkpt lat="59.9457895" lon="17.6662274">
        <ele>28.4962</ele>
        <time>2013-03-10T10:09:47Z</time>
      </trkpt>
      <trkpt lat="59.9457778" lon="17.6662206">
        <ele>28.0155</ele>
        <time>2013-03-10T10:09:48Z</time>
      </trkpt>
      <trkpt lat="59.9457662" lon="17.6662117">
        <ele>28.0155</ele>
        <time>2013-03-10T10:09:49Z</time>
      </trkpt>
      <trkpt lat="59.9457542" lon="17.6662066">
        <ele>27.5349</ele>
        <time>2013-03-10T10:09:50Z</time>
      </trkpt>
      <trkpt lat="59.9457425" lon="17.6662026">
        <ele>27.5349</ele>
        <time>2013-03-10T10:09:51Z</time>
      </trkpt>
      <trkpt lat="59.9457306" lon="17.6661984">
        <ele>27.5349</ele>
        <time>2013-03-10T10:09:52Z</time>
      </trkpt>
      <trkpt lat="59.9457186" lon="17.6661936">
        <ele>27.5349</ele>
        <time>2013-03-10T10:09:53Z</time>
      </trkpt>
      <trkpt lat="59.945706" lon="17.6661889">
        <ele>28.0155</ele>
        <time>2013-03-10T10:09:54Z</time>
      </trkpt>
      <trkpt lat="59.9456929" lon="17.6661844">
        <ele>28.0155</ele>
        <time>2013-03-10T10:09:55Z</time>
      </trkpt>
      <trkpt lat="59.9456801" lon="17.6661787">
        <ele>28.0155</ele>
        <time>2013-03-10T10:09:56Z</time>
      </trkpt>
      <trkpt lat="59.9456673" lon="17.6661722">
        <ele>27.5349</ele>
        <time>2013-03-10T10:09:57Z</time>
      </trkpt>
      <trkpt lat="59.9456546" lon="17.6661657">
        <ele>28.0155</ele>
        <time>2013-03-10T10:09:58Z</time>
      </trkpt>
      <trkpt lat="59.945642" lon="17.6661614">
        <ele>28.0155</ele>
        <time>2013-03-10T10:09:59Z</time>
      </trkpt>
      <trkpt lat="59.9456292" lon="17.6661581">
        <ele>28.0155</ele>
        <time>2013-03-10T10:10:00Z</time>
      </trkpt>
      <trkpt lat="59.9456166" lon="17.6661543">
        <ele>28.0155</ele>
        <time>2013-03-10T10:10:01Z</time>
      </trkpt>
      <trkpt lat="59.9456047" lon="17.6661502">
        <ele>27.5349</ele>
        <time>2013-03-10T10:10:02Z</time>
      </trkpt>
      <trkpt lat="59.9455927" lon="17.6661472">
        <ele>27.5349</ele>
        <time>2013-03-10T10:10:03Z</time>
      </trkpt>
      <trkpt lat="59.9455804" lon="17.666144">
        <ele>27.5349</ele>
        <time>2013-03-10T10:10:04Z</time>
      </trkpt>
      <trkpt lat="59.9455678" lon="17.6661393">
        <ele>27.5349</ele>
        <time>2013-03-10T10:10:05Z</time>
      </trkpt>
      <trkpt lat="59.9455555" lon="17.6661341">
        <ele>27.5349</ele>
        <time>2013-03-10T10:10:06Z</time>
      </trkpt>
      <trkpt lat="59.9455436" lon="17.6661289">
        <ele>27.5349</ele>
        <time>2013-03-10T10:10:07Z</time>
      </trkpt>
      <trkpt lat="59.9455315" lon="17.6661252">
        <ele>28.0155</ele>
        <time>2013-03-10T10:10:08Z</time>
      </trkpt>
      <trkpt lat="59.9455182" lon="17.6661222">
        <ele>28.0155</ele>
        <time>2013-03-10T10:10:09Z</time>
      </trkpt>
      <trkpt lat="59.9455053" lon="17.6661168">
        <ele>28.0155</ele>
        <time>2013-03-10T10:10:10Z</time>
      </trkpt>
      <trkpt lat="59.9454928" lon="17.6661093">
        <ele>28.0155</ele>
        <time>2013-03-10T10:10:11Z</time>
      </trkpt>
      <trkpt lat="59.9454798" lon="17.6661025">
        <ele>28.0155</ele>
        <time>2013-03-10T10:10:12Z</time>
      </trkpt>
      <trkpt lat="59.9454665" lon="17.6660978">
        <ele>28.0155</ele>
        <time>2013-03-10T10:10:13Z</time>
      </trkpt>
      <trkpt lat="59.9454539" lon="17.6660922">
        <ele>28.0155</ele>
        <time>2013-03-10T10:10:14Z</time>
      </trkpt>
      <trkpt lat="59.9454416" lon="17.666087">
        <ele>28.0155</ele>
        <time>2013-03-10T10:10:15Z</time>
      </trkpt>
      <trkpt lat="59.9454302" lon="17.6660829">
        <ele>28.0155</ele>
        <time>2013-03-10T10:10:16Z</time>
      </trkpt>
      <trkpt lat="59.9454188" lon="17.6660793">
        <ele>28.0155</ele>
        <time>2013-03-10T10:10:17Z</time>
      </trkpt>
      <trkpt lat="59.945407" lon="17.6660771">
        <ele>28.0155</ele>
        <time>2013-03-10T10:10:18Z</time>
      </trkpt>
      <trkpt lat="59.9453954" lon="17.6660744">
        <ele>28.0155</ele>
        <time>2013-03-10T10:10:19Z</time>
      </trkpt>
      <trkpt lat="59.9453835" lon="17.6660718">
        <ele>28.0155</ele>
        <time>2013-03-10T10:10:20Z</time>
      </trkpt>
      <trkpt lat="59.9453714" lon="17.6660692">
        <ele>28.0155</ele>
        <time>2013-03-10T10:10:21Z</time>
      </trkpt>
      <trkpt lat="59.9453583" lon="17.6660642">
        <ele>28.0155</ele>
        <time>2013-03-10T10:10:22Z</time>
      </trkpt>
      <trkpt lat="59.9453451" lon="17.6660572">
        <ele>28.0155</ele>
        <time>2013-03-10T10:10:23Z</time>
      </trkpt>
      <trkpt lat="59.9453326" lon="17.6660505">
        <ele>27.5349</ele>
        <time>2013-03-10T10:10:24Z</time>
      </trkpt>
      <trkpt lat="59.9453201" lon="17.6660441">
        <ele>27.5349</ele>
        <time>2013-03-10T10:10:25Z</time>
      </trkpt>
      <trkpt lat="59.9453074" lon="17.6660382">
        <ele>27.5349</ele>
        <time>2013-03-10T10:10:26Z</time>
      </trkpt>
      <trkpt lat="59.945295" lon="17.6660305">
        <ele>27.5349</ele>
        <time>2013-03-10T10:10:27Z</time>
      </trkpt>
      <trkpt lat="59.9452821" lon="17.6660234">
        <ele>27.5349</ele>
        <time>2013-03-10T10:10:28Z</time>
      </trkpt>
      <trkpt lat="59.9452695" lon="17.6660186">
        <ele>27.5349</ele>
        <time>2013-03-10T10:10:29Z</time>
      </trkpt>
      <trkpt lat="59.9452566" lon="17.666016">
        <ele>28.0155</ele>
        <time>2013-03-10T10:10:30Z</time>
      </trkpt>
      <trkpt lat="59.9452438" lon="17.6660149">
        <ele>28.0155</ele>
        <time>2013-03-10T10:10:31Z</time>
      </trkpt>
      <trkpt lat="59.9452311" lon="17.666013">
        <ele>28.0155</ele>
        <time>2013-03-10T10:10:32Z</time>
      </trkpt>
      <trkpt lat="59.9452189" lon="17.6660094">
        <ele>28.0155</ele>
        <time>2013-03-10T10:10:33Z</time>
      </trkpt>
      <trkpt lat="59.9452075" lon="17.6660032">
        <ele>27.5349</ele>
        <time>2013-03-10T10:10:34Z</time>
      </trkpt>
      <trkpt lat="59.9451961" lon="17.6659963">
        <ele>27.5349</ele>
        <time>2013-03-10T10:10:35Z</time>
      </trkpt>
      <trkpt lat="59.9451844" lon="17.6659907">
        <ele>27.5349</ele>
        <time>2013-03-10T10:10:36Z</time>
      </trkpt>
      <trkpt lat="59.9451718" lon="17.6659865">
        <ele>27.5349</ele>
        <time>2013-03-10T10:10:37Z</time>
      </trkpt>
      <trkpt lat="59.9451588" lon="17.6659829">
        <ele>27.5349</ele>
        <time>2013-03-10T10:10:38Z</time>
      </trkpt>
      <trkpt lat="59.9451453" lon="17.6659777">
        <ele>27.5349</ele>
        <time>2013-03-10T10:10:39Z</time>
      </trkpt>
      <trkpt lat="59.9451322" lon="17.6659723">
        <ele>27.5349</ele>
        <time>2013-03-10T10:10:40Z</time>
      </trkpt>
      <trkpt lat="59.9451193" lon="17.6659666">
        <ele>27.5349</ele>
        <time>2013-03-10T10:10:41Z</time>
      </trkpt>
      <trkpt lat="59.9451063" lon="17.6659621">
        <ele>27.5349</ele>
        <time>2013-03-10T10:10:42Z</time>
      </trkpt>
      <trkpt lat="59.945093" lon="17.665959">
        <ele>27.5349</ele>
        <time>2013-03-10T10:10:43Z</time>
      </trkpt>
      <trkpt lat="59.9450796" lon="17.6659552">
        <ele>27.5349</ele>
        <time>2013-03-10T10:10:44Z</time>
      </trkpt>
      <trkpt lat="59.9450664" lon="17.6659502">
        <ele>27.5349</ele>
        <time>2013-03-10T10:10:45Z</time>
      </trkpt>
      <trkpt lat="59.9450535" lon="17.665945">
        <ele>27.5349</ele>
        <time>2013-03-10T10:10:46Z</time>
      </trkpt>
      <trkpt lat="59.9450425" lon="17.6659367">
        <ele>27.0543</ele>
        <time>2013-03-10T10:10:47Z</time>
      </trkpt>
      <trkpt lat="59.9450313" lon="17.665929">
        <ele>27.0543</ele>
        <time>2013-03-10T10:10:48Z</time>
      </trkpt>
      <trkpt lat="59.9450198" lon="17.6659234">
        <ele>26.5736</ele>
        <time>2013-03-10T10:10:49Z</time>
      </trkpt>
      <trkpt lat="59.9450079" lon="17.6659172">
        <ele>26.5736</ele>
        <time>2013-03-10T10:10:50Z</time>
      </trkpt>
      <trkpt lat="59.9449955" lon="17.6659125">
        <ele>26.5736</ele>
        <time>2013-03-10T10:10:51Z</time>
      </trkpt>
      <trkpt lat="59.9449826" lon="17.6659091">
        <ele>26.5736</ele>
        <time>2013-03-10T10:10:52Z</time>
      </trkpt>
      <trkpt lat="59.944969" lon="17.6659045">
        <ele>26.5736</ele>
        <time>2013-03-10T10:10:53Z</time>
      </trkpt>
      <trkpt lat="59.9449549" lon="17.6658975">
        <ele>26.5736</ele>
        <time>2013-03-10T10:10:54Z</time>
      </trkpt>
      <trkpt lat="59.9449413" lon="17.6658891">
        <ele>26.5736</ele>
        <time>2013-03-10T10:10:55Z</time>
      </trkpt>
      <trkpt lat="59.9449277" lon="17.6658804">
        <ele>26.5736</ele>
        <time>2013-03-10T10:10:56Z</time>
      </trkpt>
      <trkpt lat="59.9449142" lon="17.6658766">
        <ele>26.5736</ele>
        <time>2013-03-10T10:10:57Z</time>
      </trkpt>
      <trkpt lat="59.9449008" lon="17.6658747">
        <ele>27.0543</ele>
        <time>2013-03-10T10:10:58Z</time>
      </trkpt>
      <trkpt lat="59.9448872" lon="17.6658702">
        <ele>27.0543</ele>
        <time>2013-03-10T10:10:59Z</time>
      </trkpt>
      <trkpt lat="59.9448738" lon="17.6658648">
        <ele>27.0543</ele>
        <time>2013-03-10T10:11:00Z</time>
      </trkpt>
      <trkpt lat="59.9448607" lon="17.6658611">
        <ele>27.5349</ele>
        <time>2013-03-10T10:11:01Z</time>
      </trkpt>
      <trkpt lat="59.9448482" lon="17.665858">
        <ele>27.5349</ele>
        <time>2013-03-10T10:11:02Z</time>
      </trkpt>
      <trkpt lat="59.9448354" lon="17.665854">
        <ele>27.5349</ele>
        <time>2013-03-10T10:11:03Z</time>
      </trkpt>
      <trkpt lat="59.944822" lon="17.66585">
        <ele>27.5349</ele>
        <time>2013-03-10T10:11:04Z</time>
      </trkpt>
      <trkpt lat="59.944809" lon="17.6658462">
        <ele>27.5349</ele>
        <time>2013-03-10T10:11:05Z</time>
      </trkpt>
      <trkpt lat="59.9447959" lon="17.6658435">
        <ele>27.5349</ele>
        <time>2013-03-10T10:11:06Z</time>
      </trkpt>
      <trkpt lat="59.9447824" lon="17.6658409">
        <ele>28.0155</ele>
        <time>2013-03-10T10:11:07Z</time>
      </trkpt>
      <trkpt lat="59.9447688" lon="17.6658372">
        <ele>28.0155</ele>
        <time>2013-03-10T10:11:08Z</time>
      </trkpt>
      <trkpt lat="59.9447557" lon="17.6658332">
        <ele>28.0155</ele>
        <time>2013-03-10T10:11:09Z</time>
      </trkpt>
      <trkpt lat="59.9447423" lon="17.6658294">
        <ele>28.0155</ele>
        <time>2013-03-10T10:11:10Z</time>
      </trkpt>
      <trkpt lat="59.9447266" lon="17.6658238">
        <ele>27.5349</ele>
        <time>2013-03-10T10:11:11Z</time>
      </trkpt>
      <trkpt lat="59.9447106" lon="17.6658162">
        <ele>27.5349</ele>
        <time>2013-03-10T10:11:12Z</time>
      </trkpt>
      <trkpt lat="59.9446968" lon="17.66581">
        <ele>27.5349</ele>
        <time>2013-03-10T10:11:13Z</time>
      </trkpt>
      <trkpt lat="59.9446833" lon="17.6658036">
        <ele>27.5349</ele>
        <time>2013-03-10T10:11:14Z</time>
      </trkpt>
      <trkpt lat="59.9446696" lon="17.6657993">
        <ele>27.5349</ele>
        <time>2013-03-10T10:11:15Z</time>
      </trkpt>
      <trkpt lat="59.9446557" lon="17.665796">
        <ele>27.5349</ele>
        <time>2013-03-10T10:11:16Z</time>
      </trkpt>
      <trkpt lat="59.9446418" lon="17.6657922">
        <ele>27.5349</ele>
        <time>2013-03-10T10:11:17Z</time>
      </trkpt>
      <trkpt lat="59.9446284" lon="17.6657882">
        <ele>28.0155</ele>
        <time>2013-03-10T10:11:18Z</time>
      </trkpt>
      <trkpt lat="59.9446154" lon="17.6657838">
        <ele>28.0155</ele>
        <time>2013-03-10T10:11:19Z</time>
      </trkpt>
      <trkpt lat="59.944603" lon="17.6657767">
        <ele>28.0155</ele>
        <time>2013-03-10T10:11:20Z</time>
      </trkpt>
      <trkpt lat="59.944591" lon="17.6657689">
        <ele>28.0155</ele>
        <time>2013-03-10T10:11:21Z</time>
      </trkpt>
      <trkpt lat="59.9445797" lon="17.6657625">
        <ele>28.0155</ele>
        <time>2013-03-10T10:11:22Z</time>
      </trkpt>
      <trkpt lat="59.9445685" lon="17.6657571">
        <ele>28.0155</ele>
        <time>2013-03-10T10:11:23Z</time>
      </trkpt>
      <trkpt lat="59.9445571" lon="17.6657521">
        <ele>28.0155</ele>
        <time>2013-03-10T10:11:24Z</time>
      </trkpt>
      <trkpt lat="59.9445452" lon="17.6657446">
        <ele>28.0155</ele>
        <time>2013-03-10T10:11:25Z</time>
      </trkpt>
      <trkpt lat="59.944533" lon="17.6657343">
        <ele>28.0155</ele>
        <time>2013-03-10T10:11:26Z</time>
      </trkpt>
      <trkpt lat="59.9445216" lon="17.6657265">
        <ele>28.0155</ele>
        <time>2013-03-10T10:11:27Z</time>
      </trkpt>
      <trkpt lat="59.9445096" lon="17.6657197">
        <ele>28.0155</ele>
        <time>2013-03-10T10:11:28Z</time>
      </trkpt>
      <trkpt lat="59.944497" lon="17.6657118">
        <ele>28.0155</ele>
        <time>2013-03-10T10:11:29Z</time>
      </trkpt>
      <trkpt lat="59.9444843" lon="17.6657034">
        <ele>28.0155</ele>
        <time>2013-03-10T10:11:30Z</time>
      </trkpt>
      <trkpt lat="59.9444713" lon="17.6656962">
        <ele>28.0155</ele>
        <time>2013-03-10T10:11:31Z</time>
      </trkpt>
      <trkpt lat="59.9444579" lon="17.6656936">
        <ele>28.4962</ele>
        <time>2013-03-10T10:11:32Z</time>
      </trkpt>
      <trkpt lat="59.9444448" lon="17.66569">
        <ele>28.4962</ele>
        <time>2013-03-10T10:11:33Z</time>
      </trkpt>
      <trkpt lat="59.9444318" lon="17.665683">
        <ele>28.4962</ele>
        <time>2013-03-10T10:11:34Z</time>
      </trkpt>
      <trkpt lat="59.9444185" lon="17.6656775">
        <ele>28.4962</ele>
        <time>2013-03-10T10:11:35Z</time>
      </trkpt>
      <trkpt lat="59.9444056" lon="17.6656715">
        <ele>28.4962</ele>
        <time>2013-03-10T10:11:36Z</time>
      </trkpt>
      <trkpt lat="59.9443931" lon="17.6656652">
        <ele>28.4962</ele>
        <time>2013-03-10T10:11:37Z</time>
      </trkpt>
      <trkpt lat="59.944381" lon="17.6656594">
        <ele>28.4962</ele>
        <time>2013-03-10T10:11:38Z</time>
      </trkpt>
      <trkpt lat="59.944368" lon="17.6656558">
        <ele>28.0155</ele>
        <time>2013-03-10T10:11:39Z</time>
      </trkpt>
      <trkpt lat="59.9443546" lon="17.6656516">
        <ele>28.0155</ele>
        <time>2013-03-10T10:11:40Z</time>
      </trkpt>
      <trkpt lat="59.9443418" lon="17.6656465">
        <ele>28.0155</ele>
        <time>2013-03-10T10:11:41Z</time>
      </trkpt>
      <trkpt lat="59.9443292" lon="17.6656406">
        <ele>28.0155</ele>
        <time>2013-03-10T10:11:42Z</time>
      </trkpt>
      <trkpt lat="59.9443152" lon="17.6656358">
        <ele>28.0155</ele>
        <time>2013-03-10T10:11:43Z</time>
      </trkpt>
      <trkpt lat="59.9443009" lon="17.6656299">
        <ele>28.0155</ele>
        <time>2013-03-10T10:11:44Z</time>
      </trkpt>
      <trkpt lat="59.9442867" lon="17.6656228">
        <ele>28.0155</ele>
        <time>2013-03-10T10:11:45Z</time>
      </trkpt>
      <trkpt lat="59.944273" lon="17.6656156">
        <ele>28.0155</ele>
        <time>2013-03-10T10:11:46Z</time>
      </trkpt>
      <trkpt lat="59.9442596" lon="17.6656077">
        <ele>27.5349</ele>
        <time>2013-03-10T10:11:47Z</time>
      </trkpt>
      <trkpt lat="59.9442465" lon="17.6656006">
        <ele>27.5349</ele>
        <time>2013-03-10T10:11:48Z</time>
      </trkpt>
      <trkpt lat="59.9442333" lon="17.6655964">
        <ele>28.0155</ele>
        <time>2013-03-10T10:11:49Z</time>
      </trkpt>
      <trkpt lat="59.9442206" lon="17.6655913">
        <ele>27.5349</ele>
        <time>2013-03-10T10:11:50Z</time>
      </trkpt>
      <trkpt lat="59.9442088" lon="17.665585">
        <ele>27.5349</ele>
        <time>2013-03-10T10:11:51Z</time>
      </trkpt>
      <trkpt lat="59.9441971" lon="17.6655815">
        <ele>27.5349</ele>
        <time>2013-03-10T10:11:52Z</time>
      </trkpt>
      <trkpt lat="59.9441853" lon="17.6655796">
        <ele>28.0155</ele>
        <time>2013-03-10T10:11:53Z</time>
      </trkpt>
      <trkpt lat="59.944174" lon="17.6655766">
        <ele>27.5349</ele>
        <time>2013-03-10T10:11:54Z</time>
      </trkpt>
      <trkpt lat="59.9441631" lon="17.6655714">
        <ele>27.5349</ele>
        <time>2013-03-10T10:11:55Z</time>
      </trkpt>
      <trkpt lat="59.9441516" lon="17.6655664">
        <ele>27.5349</ele>
        <time>2013-03-10T10:11:56Z</time>
      </trkpt>
      <trkpt lat="59.9441397" lon="17.6655622">
        <ele>27.5349</ele>
        <time>2013-03-10T10:11:57Z</time>
      </trkpt>
      <trkpt lat="59.9441273" lon="17.6655571">
        <ele>27.5349</ele>
        <time>2013-03-10T10:11:58Z</time>
      </trkpt>
      <trkpt lat="59.9441147" lon="17.6655503">
        <ele>27.5349</ele>
        <time>2013-03-10T10:11:59Z</time>
      </trkpt>
      <trkpt lat="59.944102" lon="17.6655424">
        <ele>27.5349</ele>
        <time>2013-03-10T10:12:00Z</time>
      </trkpt>
      <trkpt lat="59.9440893" lon="17.6655338">
        <ele>27.5349</ele>
        <time>2013-03-10T10:12:01Z</time>
      </trkpt>
      <trkpt lat="59.9440771" lon="17.6655255">
        <ele>27.0543</ele>
        <time>2013-03-10T10:12:02Z</time>
      </trkpt>
      <trkpt lat="59.9440652" lon="17.665519">
        <ele>27.0543</ele>
        <time>2013-03-10T10:12:03Z</time>
      </trkpt>
      <trkpt lat="59.9440536" lon="17.6655162">
        <ele>27.5349</ele>
        <time>2013-03-10T10:12:04Z</time>
      </trkpt>
      <trkpt lat="59.9440424" lon="17.6655144">
        <ele>27.5349</ele>
        <time>2013-03-10T10:12:05Z</time>
      </trkpt>
      <trkpt lat="59.9440309" lon="17.66551">
        <ele>27.0543</ele>
        <time>2013-03-10T10:12:06Z</time>
      </trkpt>
      <trkpt lat="59.9440192" lon="17.6655058">
        <ele>27.0543</ele>
        <time>2013-03-10T10:12:07Z</time>
      </trkpt>
      <trkpt lat="59.9440077" lon="17.6655016">
        <ele>27.0543</ele>
        <time>2013-03-10T10:12:08Z</time>
      </trkpt>
      <trkpt lat="59.9439958" lon="17.6654968">
        <ele>27.0543</ele>
        <time>2013-03-10T10:12:09Z</time>
      </trkpt>
      <trkpt lat="59.9439833" lon="17.6654913">
        <ele>27.0543</ele>
        <time>2013-03-10T10:12:10Z</time>
      </trkpt>
      <trkpt lat="59.9439705" lon="17.6654841">
        <ele>27.0543</ele>
        <time>2013-03-10T10:12:11Z</time>
      </trkpt>
      <trkpt lat="59.9439579" lon="17.6654764">
        <ele>27.0543</ele>
        <time>2013-03-10T10:12:12Z</time>
      </trkpt>
      <trkpt lat="59.9439453" lon="17.6654683">
        <ele>27.0543</ele>
        <time>2013-03-10T10:12:13Z</time>
      </trkpt>
      <trkpt lat="59.9439326" lon="17.6654621">
        <ele>27.5349</ele>
        <time>2013-03-10T10:12:14Z</time>
      </trkpt>
      <trkpt lat="59.9439203" lon="17.6654555">
        <ele>27.5349</ele>
        <time>2013-03-10T10:12:15Z</time>
      </trkpt>
      <trkpt lat="59.9439088" lon="17.665445">
        <ele>27.0543</ele>
        <time>2013-03-10T10:12:16Z</time>
      </trkpt>
      <trkpt lat="59.9438974" lon="17.6654347">
        <ele>27.0543</ele>
        <time>2013-03-10T10:12:17Z</time>
      </trkpt>
      <trkpt lat="59.9438869" lon="17.6654232">
        <ele>26.5736</ele>
        <time>2013-03-10T10:12:18Z</time>
      </trkpt>
      <trkpt lat="59.9438761" lon="17.6654132">
        <ele>26.5736</ele>
        <time>2013-03-10T10:12:19Z</time>
      </trkpt>
      <trkpt lat="59.9438647" lon="17.6654068">
        <ele>26.5736</ele>
        <time>2013-03-10T10:12:20Z</time>
      </trkpt>
      <trkpt lat="59.9438533" lon="17.6653984">
        <ele>26.0929</ele>
        <time>2013-03-10T10:12:21Z</time>
      </trkpt>
      <trkpt lat="59.9438413" lon="17.6653904">
        <ele>26.0929</ele>
        <time>2013-03-10T10:12:22Z</time>
      </trkpt>
      <trkpt lat="59.9438294" lon="17.6653838">
        <ele>26.5736</ele>
        <time>2013-03-10T10:12:23Z</time>
      </trkpt>
      <trkpt lat="59.9438201" lon="17.6653767">
        <ele>26.5736</ele>
        <time>2013-03-10T10:12:24Z</time>
      </trkpt>
      <trkpt lat="59.9438071" lon="17.6653721">
        <ele>26.5736</ele>
        <time>2013-03-10T10:12:25Z</time>
      </trkpt>
      <trkpt lat="59.9437918" lon="17.6653702">
        <ele>26.5736</ele>
        <time>2013-03-10T10:12:26Z</time>
      </trkpt>
      <trkpt lat="59.9437803" lon="17.6653667">
        <ele>26.5736</ele>
        <time>2013-03-10T10:12:27Z</time>
      </trkpt>
      <trkpt lat="59.9437692" lon="17.6653619">
        <ele>26.5736</ele>
        <time>2013-03-10T10:12:28Z</time>
      </trkpt>
      <trkpt lat="59.9437566" lon="17.6653597">
        <ele>27.0543</ele>
        <time>2013-03-10T10:12:29Z</time>
      </trkpt>
      <trkpt lat="59.9437441" lon="17.6653566">
        <ele>26.5736</ele>
        <time>2013-03-10T10:12:30Z</time>
      </trkpt>
      <trkpt lat="59.9437321" lon="17.6653504">
        <ele>27.0543</ele>
        <time>2013-03-10T10:12:31Z</time>
      </trkpt>
      <trkpt lat="59.9437207" lon="17.665343">
        <ele>27.0543</ele>
        <time>2013-03-10T10:12:32Z</time>
      </trkpt>
      <trkpt lat="59.9437094" lon="17.6653379">
        <ele>26.5736</ele>
        <time>2013-03-10T10:12:33Z</time>
      </trkpt>
      <trkpt lat="59.9436984" lon="17.6653347">
        <ele>26.5736</ele>
        <time>2013-03-10T10:12:34Z</time>
      </trkpt>
      <trkpt lat="59.9436876" lon="17.6653287">
        <ele>26.5736</ele>
        <time>2013-03-10T10:12:35Z</time>
      </trkpt>
      <trkpt lat="59.9436758" lon="17.665321">
        <ele>26.5736</ele>
        <time>2013-03-10T10:12:36Z</time>
      </trkpt>
      <trkpt lat="59.9436635" lon="17.6653136">
        <ele>26.5736</ele>
        <time>2013-03-10T10:12:37Z</time>
      </trkpt>
      <trkpt lat="59.9436511" lon="17.6653046">
        <ele>26.5736</ele>
        <time>2013-03-10T10:12:38Z</time>
      </trkpt>
      <trkpt lat="59.9436387" lon="17.6652949">
        <ele>26.5736</ele>
        <time>2013-03-10T10:12:39Z</time>
      </trkpt>
      <trkpt lat="59.9436259" lon="17.6652857">
        <ele>26.5736</ele>
        <time>2013-03-10T10:12:40Z</time>
      </trkpt>
      <trkpt lat="59.9436125" lon="17.6652773">
        <ele>26.5736</ele>
        <time>2013-03-10T10:12:41Z</time>
      </trkpt>
      <trkpt lat="59.943599" lon="17.6652694">
        <ele>26.5736</ele>
        <time>2013-03-10T10:12:42Z</time>
      </trkpt>
      <trkpt lat="59.9435865" lon="17.6652593">
        <ele>26.5736</ele>
        <time>2013-03-10T10:12:43Z</time>
      </trkpt>
      <trkpt lat="59.9435739" lon="17.665251">
        <ele>26.5736</ele>
        <time>2013-03-10T10:12:44Z</time>
      </trkpt>
      <trkpt lat="59.9435612" lon="17.6652429">
        <ele>26.5736</ele>
        <time>2013-03-10T10:12:45Z</time>
      </trkpt>
      <trkpt lat="59.9435492" lon="17.6652343">
        <ele>26.0929</ele>
        <time>2013-03-10T10:12:46Z</time>
      </trkpt>
      <trkpt lat="59.9435375" lon="17.665226">
        <ele>26.0929</ele>
        <time>2013-03-10T10:12:47Z</time>
      </trkpt>
      <trkpt lat="59.943526" lon="17.6652167">
        <ele>26.0929</ele>
        <time>2013-03-10T10:12:48Z</time>
      </trkpt>
      <trkpt lat="59.943515" lon="17.6652058">
        <ele>26.0929</ele>
        <time>2013-03-10T10:12:49Z</time>
      </trkpt>
      <trkpt lat="59.9435045" lon="17.6651965">
        <ele>26.0929</ele>
        <time>2013-03-10T10:12:50Z</time>
      </trkpt>
      <trkpt lat="59.9434936" lon="17.6651871">
        <ele>26.0929</ele>
        <time>2013-03-10T10:12:51Z</time>
      </trkpt>
      <trkpt lat="59.9434822" lon="17.6651782">
        <ele>26.0929</ele>
        <time>2013-03-10T10:12:52Z</time>
      </trkpt>
      <trkpt lat="59.9434703" lon="17.6651644">
        <ele>26.0929</ele>
        <time>2013-03-10T10:12:53Z</time>
      </trkpt>
      <trkpt lat="59.9434591" lon="17.6651503">
        <ele>26.0929</ele>
        <time>2013-03-10T10:12:54Z</time>
      </trkpt>
      <trkpt lat="59.9434501" lon="17.6651466">
        <ele>26.0929</ele>
        <time>2013-03-10T10:12:55Z</time>
      </trkpt>
      <trkpt lat="59.9434382" lon="17.6651411">
        <ele>26.0929</ele>
        <time>2013-03-10T10:12:56Z</time>
      </trkpt>
      <trkpt lat="59.943424" lon="17.6651297">
        <ele>25.6123</ele>
        <time>2013-03-10T10:12:57Z</time>
      </trkpt>
      <trkpt lat="59.9434114" lon="17.6651196">
        <ele>26.0929</ele>
        <time>2013-03-10T10:12:58Z</time>
      </trkpt>
      <trkpt lat="59.943399" lon="17.66511">
        <ele>26.0929</ele>
        <time>2013-03-10T10:12:59Z</time>
      </trkpt>
      <trkpt lat="59.9433865" lon="17.6650998">
        <ele>26.0929</ele>
        <time>2013-03-10T10:13:00Z</time>
      </trkpt>
      <trkpt lat="59.9433735" lon="17.6650886">
        <ele>26.0929</ele>
        <time>2013-03-10T10:13:01Z</time>
      </trkpt>
      <trkpt lat="59.9433607" lon="17.665079">
        <ele>26.0929</ele>
        <time>2013-03-10T10:13:02Z</time>
      </trkpt>
      <trkpt lat="59.9433478" lon="17.6650707">
        <ele>26.0929</ele>
        <time>2013-03-10T10:13:03Z</time>
      </trkpt>
      <trkpt lat="59.9433347" lon="17.6650621">
        <ele>26.0929</ele>
        <time>2013-03-10T10:13:04Z</time>
      </trkpt>
      <trkpt lat="59.9433219" lon="17.6650544">
        <ele>26.0929</ele>
        <time>2013-03-10T10:13:05Z</time>
      </trkpt>
      <trkpt lat="59.943309" lon="17.6650431">
        <ele>25.6123</ele>
        <time>2013-03-10T10:13:06Z</time>
      </trkpt>
      <trkpt lat="59.943297" lon="17.6650312">
        <ele>25.6123</ele>
        <time>2013-03-10T10:13:07Z</time>
      </trkpt>
      <trkpt lat="59.9432865" lon="17.6650199">
        <ele>25.6123</ele>
        <time>2013-03-10T10:13:08Z</time>
      </trkpt>
      <trkpt lat="59.9432762" lon="17.6650104">
        <ele>25.1317</ele>
        <time>2013-03-10T10:13:09Z</time>
      </trkpt>
      <trkpt lat="59.9432647" lon="17.6650012">
        <ele>25.6123</ele>
        <time>2013-03-10T10:13:10Z</time>
      </trkpt>
      <trkpt lat="59.9432514" lon="17.6649923">
        <ele>25.6123</ele>
        <time>2013-03-10T10:13:11Z</time>
      </trkpt>
      <trkpt lat="59.9432373" lon="17.6649808">
        <ele>25.6123</ele>
        <time>2013-03-10T10:13:12Z</time>
      </trkpt>
      <trkpt lat="59.943222" lon="17.664967">
        <ele>26.0929</ele>
        <time>2013-03-10T10:13:13Z</time>
      </trkpt>
      <trkpt lat="59.9432106" lon="17.6649563">
        <ele>26.0929</ele>
        <time>2013-03-10T10:13:14Z</time>
      </trkpt>
      <trkpt lat="59.943198" lon="17.6649441">
        <ele>26.0929</ele>
        <time>2013-03-10T10:13:15Z</time>
      </trkpt>
      <trkpt lat="59.9431867" lon="17.6649353">
        <ele>26.0929</ele>
        <time>2013-03-10T10:13:16Z</time>
      </trkpt>
      <trkpt lat="59.9431758" lon="17.6649287">
        <ele>26.5736</ele>
        <time>2013-03-10T10:13:17Z</time>
      </trkpt>
      <trkpt lat="59.9431634" lon="17.6649194">
        <ele>26.5736</ele>
        <time>2013-03-10T10:13:18Z</time>
      </trkpt>
      <trkpt lat="59.9431502" lon="17.6649095">
        <ele>27.0543</ele>
        <time>2013-03-10T10:13:19Z</time>
      </trkpt>
      <trkpt lat="59.9431369" lon="17.6649007">
        <ele>27.0543</ele>
        <time>2013-03-10T10:13:20Z</time>
      </trkpt>
      <trkpt lat="59.9431251" lon="17.6648905">
        <ele>27.0543</ele>
        <time>2013-03-10T10:13:21Z</time>
      </trkpt>
      <trkpt lat="59.9431142" lon="17.6648784">
        <ele>27.0543</ele>
        <time>2013-03-10T10:13:22Z</time>
      </trkpt>
      <trkpt lat="59.9431034" lon="17.664867">
        <ele>27.0543</ele>
        <time>2013-03-10T10:13:23Z</time>
      </trkpt>
      <trkpt lat="59.9430922" lon="17.6648552">
        <ele>27.0543</ele>
        <time>2013-03-10T10:13:24Z</time>
      </trkpt>
      <trkpt lat="59.9430803" lon="17.6648438">
        <ele>27.0543</ele>
        <time>2013-03-10T10:13:25Z</time>
      </trkpt>
      <trkpt lat="59.9430694" lon="17.664836">
        <ele>27.0543</ele>
        <time>2013-03-10T10:13:26Z</time>
      </trkpt>
      <trkpt lat="59.9430571" lon="17.664827">
        <ele>27.0543</ele>
        <time>2013-03-10T10:13:27Z</time>
      </trkpt>
      <trkpt lat="59.9430452" lon="17.6648166">
        <ele>27.5349</ele>
        <time>2013-03-10T10:13:28Z</time>
      </trkpt>
      <trkpt lat="59.9430327" lon="17.6648035">
        <ele>27.5349</ele>
        <time>2013-03-10T10:13:29Z</time>
      </trkpt>
      <trkpt lat="59.9430202" lon="17.664793">
        <ele>27.5349</ele>
        <time>2013-03-10T10:13:30Z</time>
      </trkpt>
      <trkpt lat="59.9430096" lon="17.6647847">
        <ele>27.5349</ele>
        <time>2013-03-10T10:13:31Z</time>
      </trkpt>
      <trkpt lat="59.942998" lon="17.6647734">
        <ele>27.5349</ele>
        <time>2013-03-10T10:13:32Z</time>
      </trkpt>
      <trkpt lat="59.9429851" lon="17.6647598">
        <ele>27.5349</ele>
        <time>2013-03-10T10:13:33Z</time>
      </trkpt>
      <trkpt lat="59.9429715" lon="17.6647456">
        <ele>27.5349</ele>
        <time>2013-03-10T10:13:34Z</time>
      </trkpt>
      <trkpt lat="59.9429592" lon="17.6647332">
        <ele>27.5349</ele>
        <time>2013-03-10T10:13:35Z</time>
      </trkpt>
      <trkpt lat="59.9429476" lon="17.6647184">
        <ele>27.0543</ele>
        <time>2013-03-10T10:13:36Z</time>
      </trkpt>
      <trkpt lat="59.9429362" lon="17.664703">
        <ele>27.0543</ele>
        <time>2013-03-10T10:13:37Z</time>
      </trkpt>
      <trkpt lat="59.9429234" lon="17.6646893">
        <ele>27.0543</ele>
        <time>2013-03-10T10:13:38Z</time>
      </trkpt>
      <trkpt lat="59.9429095" lon="17.6646747">
        <ele>27.0543</ele>
        <time>2013-03-10T10:13:39Z</time>
      </trkpt>
      <trkpt lat="59.9428945" lon="17.6646603">
        <ele>26.5736</ele>
        <time>2013-03-10T10:13:40Z</time>
      </trkpt>
      <trkpt lat="59.9428799" lon="17.6646455">
        <ele>26.5736</ele>
        <time>2013-03-10T10:13:41Z</time>
      </trkpt>
      <trkpt lat="59.9428664" lon="17.6646286">
        <ele>26.5736</ele>
        <time>2013-03-10T10:13:42Z</time>
      </trkpt>
      <trkpt lat="59.9428536" lon="17.6646112">
        <ele>26.0929</ele>
        <time>2013-03-10T10:13:43Z</time>
      </trkpt>
      <trkpt lat="59.9428415" lon="17.6645994">
        <ele>26.5736</ele>
        <time>2013-03-10T10:13:44Z</time>
      </trkpt>
      <trkpt lat="59.9428281" lon="17.6645895">
        <ele>26.5736</ele>
        <time>2013-03-10T10:13:45Z</time>
      </trkpt>
      <trkpt lat="59.9428142" lon="17.6645773">
        <ele>26.5736</ele>
        <time>2013-03-10T10:13:46Z</time>
      </trkpt>
      <trkpt lat="59.9428019" lon="17.6645628">
        <ele>26.5736</ele>
        <time>2013-03-10T10:13:47Z</time>
      </trkpt>
      <trkpt lat="59.9427908" lon="17.6645514">
        <ele>26.5736</ele>
        <time>2013-03-10T10:13:48Z</time>
      </trkpt>
      <trkpt lat="59.9427789" lon="17.664539">
        <ele>26.5736</ele>
        <time>2013-03-10T10:13:49Z</time>
      </trkpt>
      <trkpt lat="59.9427667" lon="17.6645283">
        <ele>27.0543</ele>
        <time>2013-03-10T10:13:50Z</time>
      </trkpt>
      <trkpt lat="59.9427547" lon="17.6645193">
        <ele>27.0543</ele>
        <time>2013-03-10T10:13:51Z</time>
      </trkpt>
      <trkpt lat="59.942742" lon="17.6645064">
        <ele>27.0543</ele>
        <time>2013-03-10T10:13:52Z</time>
      </trkpt>
      <trkpt lat="59.942728" lon="17.6644872">
        <ele>27.0543</ele>
        <time>2013-03-10T10:13:53Z</time>
      </trkpt>
      <trkpt lat="59.9427164" lon="17.6644716">
        <ele>27.0543</ele>
        <time>2013-03-10T10:13:54Z</time>
      </trkpt>
      <trkpt lat="59.9427054" lon="17.664459">
        <ele>27.0543</ele>
        <time>2013-03-10T10:13:55Z</time>
      </trkpt>
      <trkpt lat="59.9426935" lon="17.6644452">
        <ele>27.0543</ele>
        <time>2013-03-10T10:13:56Z</time>
      </trkpt>
      <trkpt lat="59.9426816" lon="17.6644314">
        <ele>27.0543</ele>
        <time>2013-03-10T10:13:57Z</time>
      </trkpt>
      <trkpt lat="59.9426696" lon="17.6644184">
        <ele>27.0543</ele>
        <time>2013-03-10T10:13:58Z</time>
      </trkpt>
      <trkpt lat="59.9426578" lon="17.6644059">
        <ele>27.0543</ele>
        <time>2013-03-10T10:13:59Z</time>
      </trkpt>
      <trkpt lat="59.9426463" lon="17.6643929">
        <ele>27.0543</ele>
        <time>2013-03-10T10:14:00Z</time>
      </trkpt>
      <trkpt lat="59.9426339" lon="17.6643791">
        <ele>27.0543</ele>
        <time>2013-03-10T10:14:01Z</time>
      </trkpt>
      <trkpt lat="59.9426214" lon="17.6643682">
        <ele>27.5349</ele>
        <time>2013-03-10T10:14:02Z</time>
      </trkpt>
      <trkpt lat="59.9426089" lon="17.6643558">
        <ele>27.5349</ele>
        <time>2013-03-10T10:14:03Z</time>
      </trkpt>
      <trkpt lat="59.9425965" lon="17.6643428">
        <ele>27.5349</ele>
        <time>2013-03-10T10:14:04Z</time>
      </trkpt>
      <trkpt lat="59.9425848" lon="17.6643289">
        <ele>27.5349</ele>
        <time>2013-03-10T10:14:05Z</time>
      </trkpt>
      <trkpt lat="59.9425736" lon="17.6643143">
        <ele>27.5349</ele>
        <time>2013-03-10T10:14:06Z</time>
      </trkpt>
      <trkpt lat="59.942562" lon="17.6642993">
        <ele>27.5349</ele>
        <time>2013-03-10T10:14:07Z</time>
      </trkpt>
      <trkpt lat="59.9425515" lon="17.6642851">
        <ele>27.5349</ele>
        <time>2013-03-10T10:14:08Z</time>
      </trkpt>
      <trkpt lat="59.9425407" lon="17.6642706">
        <ele>27.5349</ele>
        <time>2013-03-10T10:14:09Z</time>
      </trkpt>
      <trkpt lat="59.9425301" lon="17.6642553">
        <ele>27.5349</ele>
        <time>2013-03-10T10:14:10Z</time>
      </trkpt>
      <trkpt lat="59.9425189" lon="17.6642417">
        <ele>27.5349</ele>
        <time>2013-03-10T10:14:11Z</time>
      </trkpt>
      <trkpt lat="59.9425079" lon="17.6642273">
        <ele>27.5349</ele>
        <time>2013-03-10T10:14:12Z</time>
      </trkpt>
      <trkpt lat="59.9424956" lon="17.6642128">
        <ele>27.5349</ele>
        <time>2013-03-10T10:14:13Z</time>
      </trkpt>
      <trkpt lat="59.9424845" lon="17.6641967">
        <ele>27.5349</ele>
        <time>2013-03-10T10:14:14Z</time>
      </trkpt>
      <trkpt lat="59.9424742" lon="17.6641817">
        <ele>27.5349</ele>
        <time>2013-03-10T10:14:15Z</time>
      </trkpt>
      <trkpt lat="59.942463" lon="17.6641673">
        <ele>27.5349</ele>
        <time>2013-03-10T10:14:16Z</time>
      </trkpt>
      <trkpt lat="59.9424516" lon="17.6641526">
        <ele>27.5349</ele>
        <time>2013-03-10T10:14:17Z</time>
      </trkpt>
      <trkpt lat="59.94244" lon="17.6641351">
        <ele>28.0155</ele>
        <time>2013-03-10T10:14:18Z</time>
      </trkpt>
      <trkpt lat="59.9424242" lon="17.6641142">
        <ele>28.0155</ele>
        <time>2013-03-10T10:14:19Z</time>
      </trkpt>
      <trkpt lat="59.9424081" lon="17.6640932">
        <ele>28.0155</ele>
        <time>2013-03-10T10:14:20Z</time>
      </trkpt>
      <trkpt lat="59.9423957" lon="17.6640786">
        <ele>28.4962</ele>
        <time>2013-03-10T10:14:21Z</time>
      </trkpt>
      <trkpt lat="59.9423853" lon="17.6640648">
        <ele>28.0155</ele>
        <time>2013-03-10T10:14:22Z</time>
      </trkpt>
      <trkpt lat="59.9423755" lon="17.6640516">
        <ele>28.0155</ele>
        <time>2013-03-10T10:14:23Z</time>
      </trkpt>
      <trkpt lat="59.9423659" lon="17.6640377">
        <ele>28.0155</ele>
        <time>2013-03-10T10:14:24Z</time>
      </trkpt>
      <trkpt lat="59.9423558" lon="17.6640225">
        <ele>28.0155</ele>
        <time>2013-03-10T10:14:25Z</time>
      </trkpt>
      <trkpt lat="59.942345" lon="17.6640072">
        <ele>28.0155</ele>
        <time>2013-03-10T10:14:26Z</time>
      </trkpt>
      <trkpt lat="59.9423348" lon="17.6639942">
        <ele>28.4962</ele>
        <time>2013-03-10T10:14:27Z</time>
      </trkpt>
      <trkpt lat="59.9423241" lon="17.6639808">
        <ele>28.4962</ele>
        <time>2013-03-10T10:14:28Z</time>
      </trkpt>
      <trkpt lat="59.9423131" lon="17.6639664">
        <ele>28.4962</ele>
        <time>2013-03-10T10:14:29Z</time>
      </trkpt>
      <trkpt lat="59.9423024" lon="17.6639497">
        <ele>28.4962</ele>
        <time>2013-03-10T10:14:30Z</time>
      </trkpt>
      <trkpt lat="59.942292" lon="17.663934">
        <ele>28.0155</ele>
        <time>2013-03-10T10:14:31Z</time>
      </trkpt>
      <trkpt lat="59.9422827" lon="17.6639179">
        <ele>28.0155</ele>
        <time>2013-03-10T10:14:32Z</time>
      </trkpt>
      <trkpt lat="59.942273" lon="17.6639019">
        <ele>28.0155</ele>
        <time>2013-03-10T10:14:33Z</time>
      </trkpt>
      <trkpt lat="59.9422639" lon="17.6638866">
        <ele>28.0155</ele>
        <time>2013-03-10T10:14:34Z</time>
      </trkpt>
      <trkpt lat="59.9422537" lon="17.6638721">
        <ele>28.0155</ele>
        <time>2013-03-10T10:14:35Z</time>
      </trkpt>
      <trkpt lat="59.9422439" lon="17.663858">
        <ele>27.5349</ele>
        <time>2013-03-10T10:14:36Z</time>
      </trkpt>
      <trkpt lat="59.942233" lon="17.6638415">
        <ele>27.5349</ele>
        <time>2013-03-10T10:14:37Z</time>
      </trkpt>
      <trkpt lat="59.9422201" lon="17.6638211">
        <ele>27.5349</ele>
        <time>2013-03-10T10:14:38Z</time>
      </trkpt>
      <trkpt lat="59.9422066" lon="17.6637983">
        <ele>27.5349</ele>
        <time>2013-03-10T10:14:39Z</time>
      </trkpt>
      <trkpt lat="59.9421931" lon="17.6637775">
        <ele>27.5349</ele>
        <time>2013-03-10T10:14:40Z</time>
      </trkpt>
      <trkpt lat="59.9421803" lon="17.6637591">
        <ele>27.5349</ele>
        <time>2013-03-10T10:14:41Z</time>
      </trkpt>
      <trkpt lat="59.9421687" lon="17.6637426">
        <ele>27.5349</ele>
        <time>2013-03-10T10:14:42Z</time>
      </trkpt>
      <trkpt lat="59.9421589" lon="17.6637276">
        <ele>27.5349</ele>
        <time>2013-03-10T10:14:43Z</time>
      </trkpt>
      <trkpt lat="59.942149" lon="17.6637122">
        <ele>27.5349</ele>
        <time>2013-03-10T10:14:44Z</time>
      </trkpt>
      <trkpt lat="59.9421383" lon="17.6636959">
        <ele>27.5349</ele>
        <time>2013-03-10T10:14:45Z</time>
      </trkpt>
      <trkpt lat="59.9421252" lon="17.6636772">
        <ele>27.5349</ele>
        <time>2013-03-10T10:14:46Z</time>
      </trkpt>
      <trkpt lat="59.9421119" lon="17.663656">
        <ele>27.5349</ele>
        <time>2013-03-10T10:14:47Z</time>
      </trkpt>
      <trkpt lat="59.9421004" lon="17.6636368">
        <ele>27.0543</ele>
        <time>2013-03-10T10:14:48Z</time>
      </trkpt>
      <trkpt lat="59.9420888" lon="17.6636177">
        <ele>27.0543</ele>
        <time>2013-03-10T10:14:49Z</time>
      </trkpt>
      <trkpt lat="59.9420776" lon="17.6636015">
        <ele>27.5349</ele>
        <time>2013-03-10T10:14:50Z</time>
      </trkpt>
      <trkpt lat="59.9420666" lon="17.6635855">
        <ele>27.5349</ele>
        <time>2013-03-10T10:14:51Z</time>
      </trkpt>
      <trkpt lat="59.9420567" lon="17.6635687">
        <ele>27.5349</ele>
        <time>2013-03-10T10:14:52Z</time>
      </trkpt>
      <trkpt lat="59.9420468" lon="17.6635503">
        <ele>27.0543</ele>
        <time>2013-03-10T10:14:53Z</time>
      </trkpt>
      <trkpt lat="59.9420367" lon="17.663533">
        <ele>27.0543</ele>
        <time>2013-03-10T10:14:54Z</time>
      </trkpt>
      <trkpt lat="59.9420273" lon="17.6635174">
        <ele>27.0543</ele>
        <time>2013-03-10T10:14:55Z</time>
      </trkpt>
      <trkpt lat="59.9420165" lon="17.6635016">
        <ele>27.0543</ele>
        <time>2013-03-10T10:14:56Z</time>
      </trkpt>
      <trkpt lat="59.9420039" lon="17.6634861">
        <ele>26.5736</ele>
        <time>2013-03-10T10:14:57Z</time>
      </trkpt>
      <trkpt lat="59.9419916" lon="17.6634695">
        <ele>26.5736</ele>
        <time>2013-03-10T10:14:58Z</time>
      </trkpt>
      <trkpt lat="59.94198" lon="17.6634523">
        <ele>26.5736</ele>
        <time>2013-03-10T10:14:59Z</time>
      </trkpt>
      <trkpt lat="59.9419692" lon="17.6634363">
        <ele>26.0929</ele>
        <time>2013-03-10T10:15:00Z</time>
      </trkpt>
      <trkpt lat="59.9419585" lon="17.6634186">
        <ele>26.0929</ele>
        <time>2013-03-10T10:15:01Z</time>
      </trkpt>
      <trkpt lat="59.9419469" lon="17.6634019">
        <ele>25.6123</ele>
        <time>2013-03-10T10:15:02Z</time>
      </trkpt>
      <trkpt lat="59.9419351" lon="17.663387">
        <ele>25.6123</ele>
        <time>2013-03-10T10:15:03Z</time>
      </trkpt>
      <trkpt lat="59.9419246" lon="17.6633706">
        <ele>25.6123</ele>
        <time>2013-03-10T10:15:04Z</time>
      </trkpt>
      <trkpt lat="59.9419139" lon="17.6633533">
        <ele>25.6123</ele>
        <time>2013-03-10T10:15:05Z</time>
      </trkpt>
      <trkpt lat="59.9419036" lon="17.6633375">
        <ele>25.6123</ele>
        <time>2013-03-10T10:15:06Z</time>
      </trkpt>
      <trkpt lat="59.9418942" lon="17.6633218">
        <ele>25.6123</ele>
        <time>2013-03-10T10:15:07Z</time>
      </trkpt>
      <trkpt lat="59.9418844" lon="17.6633048">
        <ele>25.6123</ele>
        <time>2013-03-10T10:15:08Z</time>
      </trkpt>
      <trkpt lat="59.9418731" lon="17.6632843">
        <ele>25.6123</ele>
        <time>2013-03-10T10:15:09Z</time>
      </trkpt>
      <trkpt lat="59.9418637" lon="17.6632649">
        <ele>25.6123</ele>
        <time>2013-03-10T10:15:10Z</time>
      </trkpt>
      <trkpt lat="59.9418552" lon="17.6632467">
        <ele>25.6123</ele>
        <time>2013-03-10T10:15:11Z</time>
      </trkpt>
      <trkpt lat="59.9418471" lon="17.6632265">
        <ele>26.0929</ele>
        <time>2013-03-10T10:15:12Z</time>
      </trkpt>
      <trkpt lat="59.9418388" lon="17.6632061">
        <ele>26.0929</ele>
        <time>2013-03-10T10:15:13Z</time>
      </trkpt>
      <trkpt lat="59.9418294" lon="17.6631892">
        <ele>25.6123</ele>
        <time>2013-03-10T10:15:14Z</time>
      </trkpt>
      <trkpt lat="59.9418186" lon="17.6631705">
        <ele>25.6123</ele>
        <time>2013-03-10T10:15:15Z</time>
      </trkpt>
      <trkpt lat="59.9418098" lon="17.6631508">
        <ele>25.6123</ele>
        <time>2013-03-10T10:15:16Z</time>
      </trkpt>
      <trkpt lat="59.9418004" lon="17.6631322">
        <ele>25.6123</ele>
        <time>2013-03-10T10:15:17Z</time>
      </trkpt>
      <trkpt lat="59.9417911" lon="17.6631137">
        <ele>25.6123</ele>
        <time>2013-03-10T10:15:18Z</time>
      </trkpt>
      <trkpt lat="59.9417827" lon="17.663094">
        <ele>25.6123</ele>
        <time>2013-03-10T10:15:19Z</time>
      </trkpt>
      <trkpt lat="59.9417736" lon="17.6630766">
        <ele>25.6123</ele>
        <time>2013-03-10T10:15:20Z</time>
      </trkpt>
      <trkpt lat="59.9417641" lon="17.6630608">
        <ele>26.0929</ele>
        <time>2013-03-10T10:15:21Z</time>
      </trkpt>
      <trkpt lat="59.9417531" lon="17.6630441">
        <ele>26.0929</ele>
        <time>2013-03-10T10:15:22Z</time>
      </trkpt>
      <trkpt lat="59.9417419" lon="17.6630251">
        <ele>26.0929</ele>
        <time>2013-03-10T10:15:23Z</time>
      </trkpt>
      <trkpt lat="59.9417321" lon="17.663006">
        <ele>26.0929</ele>
        <time>2013-03-10T10:15:24Z</time>
      </trkpt>
      <trkpt lat="59.9417223" lon="17.662985">
        <ele>26.0929</ele>
        <time>2013-03-10T10:15:25Z</time>
      </trkpt>
      <trkpt lat="59.9417114" lon="17.662965">
        <ele>26.0929</ele>
        <time>2013-03-10T10:15:26Z</time>
      </trkpt>
      <trkpt lat="59.9417019" lon="17.6629479">
        <ele>26.5736</ele>
        <time>2013-03-10T10:15:27Z</time>
      </trkpt>
      <trkpt lat="59.9416935" lon="17.6629323">
        <ele>26.5736</ele>
        <time>2013-03-10T10:15:28Z</time>
      </trkpt>
      <trkpt lat="59.9416827" lon="17.6629173">
        <ele>26.5736</ele>
        <time>2013-03-10T10:15:29Z</time>
      </trkpt>
      <trkpt lat="59.9416709" lon="17.6629043">
        <ele>26.5736</ele>
        <time>2013-03-10T10:15:30Z</time>
      </trkpt>
      <trkpt lat="59.9416596" lon="17.6628903">
        <ele>27.0543</ele>
        <time>2013-03-10T10:15:31Z</time>
      </trkpt>
      <trkpt lat="59.9416488" lon="17.6628749">
        <ele>27.0543</ele>
        <time>2013-03-10T10:15:32Z</time>
      </trkpt>
      <trkpt lat="59.9416391" lon="17.662857">
        <ele>27.5349</ele>
        <time>2013-03-10T10:15:33Z</time>
      </trkpt>
      <trkpt lat="59.9416291" lon="17.6628375">
        <ele>27.5349</ele>
        <time>2013-03-10T10:15:34Z</time>
      </trkpt>
      <trkpt lat="59.9416184" lon="17.6628213">
        <ele>28.0155</ele>
        <time>2013-03-10T10:15:35Z</time>
      </trkpt>
      <trkpt lat="59.9416068" lon="17.6628045">
        <ele>28.0155</ele>
        <time>2013-03-10T10:15:36Z</time>
      </trkpt>
      <trkpt lat="59.9415943" lon="17.6627857">
        <ele>28.4962</ele>
        <time>2013-03-10T10:15:37Z</time>
      </trkpt>
      <trkpt lat="59.9415829" lon="17.6627677">
        <ele>28.4962</ele>
        <time>2013-03-10T10:15:38Z</time>
      </trkpt>
      <trkpt lat="59.9415711" lon="17.6627493">
        <ele>28.4962</ele>
        <time>2013-03-10T10:15:39Z</time>
      </trkpt>
      <trkpt lat="59.9415601" lon="17.6627303">
        <ele>28.9769</ele>
        <time>2013-03-10T10:15:40Z</time>
      </trkpt>
      <trkpt lat="59.9415497" lon="17.6627137">
        <ele>28.9769</ele>
        <time>2013-03-10T10:15:41Z</time>
      </trkpt>
      <trkpt lat="59.9415392" lon="17.6626982">
        <ele>28.9769</ele>
        <time>2013-03-10T10:15:42Z</time>
      </trkpt>
      <trkpt lat="59.9415288" lon="17.662682">
        <ele>28.9769</ele>
        <time>2013-03-10T10:15:43Z</time>
      </trkpt>
      <trkpt lat="59.9415167" lon="17.6626634">
        <ele>29.4575</ele>
        <time>2013-03-10T10:15:44Z</time>
      </trkpt>
      <trkpt lat="59.9415047" lon="17.6626449">
        <ele>29.4575</ele>
        <time>2013-03-10T10:15:45Z</time>
      </trkpt>
      <trkpt lat="59.9414921" lon="17.6626251">
        <ele>28.9769</ele>
        <time>2013-03-10T10:15:46Z</time>
      </trkpt>
      <trkpt lat="59.9414793" lon="17.6626057">
        <ele>29.4575</ele>
        <time>2013-03-10T10:15:47Z</time>
      </trkpt>
      <trkpt lat="59.9414658" lon="17.662592">
        <ele>29.4575</ele>
        <time>2013-03-10T10:15:48Z</time>
      </trkpt>
      <trkpt lat="59.941453" lon="17.6625812">
        <ele>29.4575</ele>
        <time>2013-03-10T10:15:49Z</time>
      </trkpt>
      <trkpt lat="59.941442" lon="17.6625685">
        <ele>29.4575</ele>
        <time>2013-03-10T10:15:50Z</time>
      </trkpt>
      <trkpt lat="59.9414307" lon="17.6625517">
        <ele>29.4575</ele>
        <time>2013-03-10T10:15:51Z</time>
      </trkpt>
      <trkpt lat="59.9414185" lon="17.6625324">
        <ele>29.4575</ele>
        <time>2013-03-10T10:15:52Z</time>
      </trkpt>
      <trkpt lat="59.9414063" lon="17.6625116">
        <ele>29.4575</ele>
        <time>2013-03-10T10:15:53Z</time>
      </trkpt>
      <trkpt lat="59.9413942" lon="17.6624928">
        <ele>29.4575</ele>
        <time>2013-03-10T10:15:54Z</time>
      </trkpt>
      <trkpt lat="59.9413828" lon="17.6624755">
        <ele>29.4575</ele>
        <time>2013-03-10T10:15:55Z</time>
      </trkpt>
      <trkpt lat="59.9413714" lon="17.6624609">
        <ele>29.9381</ele>
        <time>2013-03-10T10:15:56Z</time>
      </trkpt>
      <trkpt lat="59.9413603" lon="17.6624476">
        <ele>29.9381</ele>
        <time>2013-03-10T10:15:57Z</time>
      </trkpt>
      <trkpt lat="59.9413489" lon="17.6624364">
        <ele>29.9381</ele>
        <time>2013-03-10T10:15:58Z</time>
      </trkpt>
      <trkpt lat="59.9413359" lon="17.6624283">
        <ele>29.9381</ele>
        <time>2013-03-10T10:15:59Z</time>
      </trkpt>
      <trkpt lat="59.9413234" lon="17.6624172">
        <ele>29.9381</ele>
        <time>2013-03-10T10:16:00Z</time>
      </trkpt>
      <trkpt lat="59.9413116" lon="17.6624024">
        <ele>29.9381</ele>
        <time>2013-03-10T10:16:01Z</time>
      </trkpt>
      <trkpt lat="59.9412999" lon="17.6623893">
        <ele>29.9381</ele>
        <time>2013-03-10T10:16:02Z</time>
      </trkpt>
      <trkpt lat="59.9412879" lon="17.6623785">
        <ele>29.9381</ele>
        <time>2013-03-10T10:16:03Z</time>
      </trkpt>
      <trkpt lat="59.9412757" lon="17.662368">
        <ele>30.4188</ele>
        <time>2013-03-10T10:16:04Z</time>
      </trkpt>
      <trkpt lat="59.9412626" lon="17.6623574">
        <ele>30.4188</ele>
        <time>2013-03-10T10:16:05Z</time>
      </trkpt>
      <trkpt lat="59.9412489" lon="17.6623469">
        <ele>30.4188</ele>
        <time>2013-03-10T10:16:06Z</time>
      </trkpt>
      <trkpt lat="59.9412346" lon="17.6623371">
        <ele>30.8995</ele>
        <time>2013-03-10T10:16:07Z</time>
      </trkpt>
      <trkpt lat="59.9412198" lon="17.6623287">
        <ele>30.8995</ele>
        <time>2013-03-10T10:16:08Z</time>
      </trkpt>
      <trkpt lat="59.9412054" lon="17.6623211">
        <ele>30.8995</ele>
        <time>2013-03-10T10:16:09Z</time>
      </trkpt>
      <trkpt lat="59.9411919" lon="17.6623148">
        <ele>30.8995</ele>
        <time>2013-03-10T10:16:10Z</time>
      </trkpt>
      <trkpt lat="59.9411779" lon="17.662309">
        <ele>31.3801</ele>
        <time>2013-03-10T10:16:11Z</time>
      </trkpt>
      <trkpt lat="59.9411641" lon="17.6623034">
        <ele>31.3801</ele>
        <time>2013-03-10T10:16:12Z</time>
      </trkpt>
      <trkpt lat="59.9411493" lon="17.6622951">
        <ele>31.3801</ele>
        <time>2013-03-10T10:16:13Z</time>
      </trkpt>
      <trkpt lat="59.9411363" lon="17.6622861">
        <ele>31.3801</ele>
        <time>2013-03-10T10:16:14Z</time>
      </trkpt>
      <trkpt lat="59.941122" lon="17.6622782">
        <ele>31.3801</ele>
        <time>2013-03-10T10:16:15Z</time>
      </trkpt>
      <trkpt lat="59.9411082" lon="17.6622732">
        <ele>31.3801</ele>
        <time>2013-03-10T10:16:16Z</time>
      </trkpt>
      <trkpt lat="59.9410945" lon="17.6622692">
        <ele>31.3801</ele>
        <time>2013-03-10T10:16:17Z</time>
      </trkpt>
      <trkpt lat="59.9410814" lon="17.6622655">
        <ele>31.3801</ele>
        <time>2013-03-10T10:16:18Z</time>
      </trkpt>
      <trkpt lat="59.9410679" lon="17.6622609">
        <ele>31.3801</ele>
        <time>2013-03-10T10:16:19Z</time>
      </trkpt>
      <trkpt lat="59.9410535" lon="17.6622573">
        <ele>31.8607</ele>
        <time>2013-03-10T10:16:20Z</time>
      </trkpt>
      <trkpt lat="59.9410393" lon="17.6622537">
        <ele>31.8607</ele>
        <time>2013-03-10T10:16:21Z</time>
      </trkpt>
      <trkpt lat="59.9410265" lon="17.6622485">
        <ele>31.8607</ele>
        <time>2013-03-10T10:16:22Z</time>
      </trkpt>
      <trkpt lat="59.9410141" lon="17.6622419">
        <ele>31.8607</ele>
        <time>2013-03-10T10:16:23Z</time>
      </trkpt>
      <trkpt lat="59.9410021" lon="17.6622377">
        <ele>31.3801</ele>
        <time>2013-03-10T10:16:24Z</time>
      </trkpt>
      <trkpt lat="59.9409888" lon="17.6622336">
        <ele>31.3801</ele>
        <time>2013-03-10T10:16:25Z</time>
      </trkpt>
      <trkpt lat="59.9409759" lon="17.6622282">
        <ele>31.3801</ele>
        <time>2013-03-10T10:16:26Z</time>
      </trkpt>
      <trkpt lat="59.9409623" lon="17.662222">
        <ele>31.3801</ele>
        <time>2013-03-10T10:16:27Z</time>
      </trkpt>
      <trkpt lat="59.9409488" lon="17.6622159">
        <ele>31.3801</ele>
        <time>2013-03-10T10:16:28Z</time>
      </trkpt>
      <trkpt lat="59.9409353" lon="17.6622115">
        <ele>31.3801</ele>
        <time>2013-03-10T10:16:29Z</time>
      </trkpt>
      <trkpt lat="59.9409217" lon="17.6622074">
        <ele>31.3801</ele>
        <time>2013-03-10T10:16:30Z</time>
      </trkpt>
      <trkpt lat="59.9409084" lon="17.6622034">
        <ele>31.3801</ele>
        <time>2013-03-10T10:16:31Z</time>
      </trkpt>
      <trkpt lat="59.9408951" lon="17.6621998">
        <ele>31.3801</ele>
        <time>2013-03-10T10:16:32Z</time>
      </trkpt>
      <trkpt lat="59.9408815" lon="17.6621963">
        <ele>31.3801</ele>
        <time>2013-03-10T10:16:33Z</time>
      </trkpt>
      <trkpt lat="59.9408681" lon="17.6621941">
        <ele>31.3801</ele>
        <time>2013-03-10T10:16:34Z</time>
      </trkpt>
      <trkpt lat="59.940855" lon="17.6621945">
        <ele>31.3801</ele>
        <time>2013-03-10T10:16:35Z</time>
      </trkpt>
      <trkpt lat="59.9408421" lon="17.6621934">
        <ele>31.3801</ele>
        <time>2013-03-10T10:16:36Z</time>
      </trkpt>
      <trkpt lat="59.9408265" lon="17.6621926">
        <ele>31.3801</ele>
        <time>2013-03-10T10:16:37Z</time>
      </trkpt>
      <trkpt lat="59.9408105" lon="17.6621936">
        <ele>31.3801</ele>
        <time>2013-03-10T10:16:38Z</time>
      </trkpt>
      <trkpt lat="59.940796" lon="17.6621924">
        <ele>31.3801</ele>
        <time>2013-03-10T10:16:39Z</time>
      </trkpt>
      <trkpt lat="59.9407825" lon="17.662189">
        <ele>31.3801</ele>
        <time>2013-03-10T10:16:40Z</time>
      </trkpt>
      <trkpt lat="59.9407704" lon="17.6621838">
        <ele>31.3801</ele>
        <time>2013-03-10T10:16:41Z</time>
      </trkpt>
      <trkpt lat="59.9407561" lon="17.6621799">
        <ele>31.3801</ele>
        <time>2013-03-10T10:16:42Z</time>
      </trkpt>
      <trkpt lat="59.9407411" lon="17.6621755">
        <ele>31.3801</ele>
        <time>2013-03-10T10:16:43Z</time>
      </trkpt>
      <trkpt lat="59.9407271" lon="17.6621711">
        <ele>31.3801</ele>
        <time>2013-03-10T10:16:44Z</time>
      </trkpt>
      <trkpt lat="59.9407132" lon="17.6621666">
        <ele>31.3801</ele>
        <time>2013-03-10T10:16:45Z</time>
      </trkpt>
      <trkpt lat="59.9407005" lon="17.6621599">
        <ele>31.3801</ele>
        <time>2013-03-10T10:16:46Z</time>
      </trkpt>
      <trkpt lat="59.9406855" lon="17.6621542">
        <ele>31.3801</ele>
        <time>2013-03-10T10:16:47Z</time>
      </trkpt>
      <trkpt lat="59.9406694" lon="17.6621499">
        <ele>31.3801</ele>
        <time>2013-03-10T10:16:48Z</time>
      </trkpt>
      <trkpt lat="59.9406547" lon="17.6621448">
        <ele>31.3801</ele>
        <time>2013-03-10T10:16:49Z</time>
      </trkpt>
      <trkpt lat="59.9406405" lon="17.6621383">
        <ele>31.3801</ele>
        <time>2013-03-10T10:16:50Z</time>
      </trkpt>
      <trkpt lat="59.9406261" lon="17.6621314">
        <ele>31.3801</ele>
        <time>2013-03-10T10:16:51Z</time>
      </trkpt>
      <trkpt lat="59.940613" lon="17.6621216">
        <ele>31.3801</ele>
        <time>2013-03-10T10:16:52Z</time>
      </trkpt>
      <trkpt lat="59.940606" lon="17.662103">
        <ele>31.3801</ele>
        <time>2013-03-10T10:16:53Z</time>
      </trkpt>
      <trkpt lat="59.9405925" lon="17.6620931">
        <ele>31.3801</ele>
        <time>2013-03-10T10:16:54Z</time>
      </trkpt>
      <trkpt lat="59.9405811" lon="17.6620806">
        <ele>31.3801</ele>
        <time>2013-03-10T10:16:55Z</time>
      </trkpt>
      <trkpt lat="59.9405687" lon="17.6620683">
        <ele>31.3801</ele>
        <time>2013-03-10T10:16:56Z</time>
      </trkpt>
      <trkpt lat="59.940557" lon="17.6620526">
        <ele>31.3801</ele>
        <time>2013-03-10T10:16:57Z</time>
      </trkpt>
      <trkpt lat="59.9405459" lon="17.6620362">
        <ele>31.3801</ele>
        <time>2013-03-10T10:16:58Z</time>
      </trkpt>
      <trkpt lat="59.9405351" lon="17.6620196">
        <ele>31.3801</ele>
        <time>2013-03-10T10:16:59Z</time>
      </trkpt>
      <trkpt lat="59.9405241" lon="17.6620018">
        <ele>31.3801</ele>
        <time>2013-03-10T10:17:00Z</time>
      </trkpt>
      <trkpt lat="59.9405154" lon="17.6619831">
        <ele>30.8995</ele>
        <time>2013-03-10T10:17:01Z</time>
      </trkpt>
      <trkpt lat="59.9405052" lon="17.6619621">
        <ele>30.8995</ele>
        <time>2013-03-10T10:17:02Z</time>
      </trkpt>
      <trkpt lat="59.9404946" lon="17.6619396">
        <ele>30.8995</ele>
        <time>2013-03-10T10:17:03Z</time>
      </trkpt>
      <trkpt lat="59.9404852" lon="17.6619184">
        <ele>30.4188</ele>
        <time>2013-03-10T10:17:04Z</time>
      </trkpt>
      <trkpt lat="59.9404769" lon="17.6618973">
        <ele>30.4188</ele>
        <time>2013-03-10T10:17:05Z</time>
      </trkpt>
      <trkpt lat="59.940469" lon="17.6618756">
        <ele>30.4188</ele>
        <time>2013-03-10T10:17:06Z</time>
      </trkpt>
      <trkpt lat="59.9404614" lon="17.6618533">
        <ele>30.4188</ele>
        <time>2013-03-10T10:17:07Z</time>
      </trkpt>
      <trkpt lat="59.9404539" lon="17.6618304">
        <ele>30.4188</ele>
        <time>2013-03-10T10:17:08Z</time>
      </trkpt>
      <trkpt lat="59.9404469" lon="17.6618056">
        <ele>29.9381</ele>
        <time>2013-03-10T10:17:09Z</time>
      </trkpt>
      <trkpt lat="59.9404376" lon="17.6617793">
        <ele>29.9381</ele>
        <time>2013-03-10T10:17:10Z</time>
      </trkpt>
      <trkpt lat="59.9404288" lon="17.6617545">
        <ele>29.4575</ele>
        <time>2013-03-10T10:17:11Z</time>
      </trkpt>
      <trkpt lat="59.940423" lon="17.6617296">
        <ele>29.4575</ele>
        <time>2013-03-10T10:17:12Z</time>
      </trkpt>
      <trkpt lat="59.9404168" lon="17.6617051">
        <ele>29.4575</ele>
        <time>2013-03-10T10:17:13Z</time>
      </trkpt>
      <trkpt lat="59.940412" lon="17.6616776">
        <ele>28.9769</ele>
        <time>2013-03-10T10:17:14Z</time>
      </trkpt>
      <trkpt lat="59.9404102" lon="17.6616501">
        <ele>28.9769</ele>
        <time>2013-03-10T10:17:15Z</time>
      </trkpt>
      <trkpt lat="59.940409" lon="17.6616233">
        <ele>28.9769</ele>
        <time>2013-03-10T10:17:16Z</time>
      </trkpt>
      <trkpt lat="59.9404078" lon="17.6615954">
        <ele>28.9769</ele>
        <time>2013-03-10T10:17:17Z</time>
      </trkpt>
      <trkpt lat="59.9404078" lon="17.6615702">
        <ele>28.4962</ele>
        <time>2013-03-10T10:17:18Z</time>
      </trkpt>
      <trkpt lat="59.9404079" lon="17.6615466">
        <ele>28.4962</ele>
        <time>2013-03-10T10:17:19Z</time>
      </trkpt>
      <trkpt lat="59.9404066" lon="17.661521">
        <ele>28.4962</ele>
        <time>2013-03-10T10:17:20Z</time>
      </trkpt>
      <trkpt lat="59.9404053" lon="17.6614941">
        <ele>28.4962</ele>
        <time>2013-03-10T10:17:21Z</time>
      </trkpt>
      <trkpt lat="59.9404044" lon="17.6614685">
        <ele>28.4962</ele>
        <time>2013-03-10T10:17:22Z</time>
      </trkpt>
      <trkpt lat="59.9404034" lon="17.6614409">
        <ele>28.4962</ele>
        <time>2013-03-10T10:17:23Z</time>
      </trkpt>
      <trkpt lat="59.9404032" lon="17.6614119">
        <ele>28.4962</ele>
        <time>2013-03-10T10:17:24Z</time>
      </trkpt>
      <trkpt lat="59.9404017" lon="17.6613887">
        <ele>28.4962</ele>
        <time>2013-03-10T10:17:25Z</time>
      </trkpt>
      <trkpt lat="59.9404012" lon="17.6613673">
        <ele>28.4962</ele>
        <time>2013-03-10T10:17:26Z</time>
      </trkpt>
      <trkpt lat="59.9404029" lon="17.6613398">
        <ele>28.4962</ele>
        <time>2013-03-10T10:17:27Z</time>
      </trkpt>
      <trkpt lat="59.9404032" lon="17.661314">
        <ele>28.0155</ele>
        <time>2013-03-10T10:17:28Z</time>
      </trkpt>
      <trkpt lat="59.9404029" lon="17.6612891">
        <ele>28.0155</ele>
        <time>2013-03-10T10:17:29Z</time>
      </trkpt>
      <trkpt lat="59.9404053" lon="17.661271">
        <ele>28.0155</ele>
        <time>2013-03-10T10:17:30Z</time>
      </trkpt>
      <trkpt lat="59.940403" lon="17.6612361">
        <ele>28.9769</ele>
        <time>2013-03-10T10:17:31Z</time>
      </trkpt>
      <trkpt lat="59.9404011" lon="17.6611993">
        <ele>29.4575</ele>
        <time>2013-03-10T10:17:32Z</time>
      </trkpt>
      <trkpt lat="59.9404011" lon="17.6611752">
        <ele>29.4575</ele>
        <time>2013-03-10T10:17:33Z</time>
      </trkpt>
      <trkpt lat="59.9404018" lon="17.6611522">
        <ele>29.4575</ele>
        <time>2013-03-10T10:17:34Z</time>
      </trkpt>
      <trkpt lat="59.9404023" lon="17.6611274">
        <ele>28.9769</ele>
        <time>2013-03-10T10:17:35Z</time>
      </trkpt>
      <trkpt lat="59.9404033" lon="17.6610979">
        <ele>29.9381</ele>
        <time>2013-03-10T10:17:36Z</time>
      </trkpt>
      <trkpt lat="59.940406" lon="17.6610819">
        <ele>29.4575</ele>
        <time>2013-03-10T10:17:37Z</time>
      </trkpt>
      <trkpt lat="59.9404086" lon="17.661079">
        <ele>28.9769</ele>
        <time>2013-03-10T10:17:38Z</time>
      </trkpt>
      <trkpt lat="59.9404107" lon="17.661083">
        <ele>29.4575</ele>
        <time>2013-03-10T10:17:39Z</time>
      </trkpt>
      <trkpt lat="59.940412" lon="17.6610865">
        <ele>29.4575</ele>
        <time>2013-03-10T10:17:40Z</time>
      </trkpt>
      <trkpt lat="59.9404133" lon="17.6610873">
        <ele>29.4575</ele>
        <time>2013-03-10T10:17:41Z</time>
      </trkpt>
      <trkpt lat="59.9404122" lon="17.6610792">
        <ele>30.4188</ele>
        <time>2013-03-10T10:17:42Z</time>
      </trkpt>
      <trkpt lat="59.9404096" lon="17.6610675">
        <ele>29.9381</ele>
        <time>2013-03-10T10:17:43Z</time>
      </trkpt>
      <trkpt lat="59.9404086" lon="17.6610507">
        <ele>29.4575</ele>
        <time>2013-03-10T10:17:44Z</time>
      </trkpt>
      <trkpt lat="59.9404104" lon="17.6610297">
        <ele>29.4575</ele>
        <time>2013-03-10T10:17:45Z</time>
      </trkpt>
      <trkpt lat="59.9404142" lon="17.6610064">
        <ele>29.4575</ele>
        <time>2013-03-10T10:17:46Z</time>
      </trkpt>
      <trkpt lat="59.9404184" lon="17.6609835">
        <ele>29.4575</ele>
        <time>2013-03-10T10:17:47Z</time>
      </trkpt>
      <trkpt lat="59.9404236" lon="17.6609597">
        <ele>29.4575</ele>
        <time>2013-03-10T10:17:48Z</time>
      </trkpt>
      <trkpt lat="59.9404293" lon="17.6609346">
        <ele>29.4575</ele>
        <time>2013-03-10T10:17:49Z</time>
      </trkpt>
      <trkpt lat="59.9404344" lon="17.6609115">
        <ele>29.4575</ele>
        <time>2013-03-10T10:17:50Z</time>
      </trkpt>
      <trkpt lat="59.9404382" lon="17.660888">
        <ele>29.4575</ele>
        <time>2013-03-10T10:17:51Z</time>
      </trkpt>
      <trkpt lat="59.9404407" lon="17.6608639">
        <ele>28.9769</ele>
        <time>2013-03-10T10:17:52Z</time>
      </trkpt>
      <trkpt lat="59.9404455" lon="17.6608375">
        <ele>29.4575</ele>
        <time>2013-03-10T10:17:53Z</time>
      </trkpt>
      <trkpt lat="59.940453" lon="17.6608127">
        <ele>28.9769</ele>
        <time>2013-03-10T10:17:54Z</time>
      </trkpt>
      <trkpt lat="59.9404603" lon="17.6607898">
        <ele>29.4575</ele>
        <time>2013-03-10T10:17:55Z</time>
      </trkpt>
      <trkpt lat="59.9404648" lon="17.660769">
        <ele>29.4575</ele>
        <time>2013-03-10T10:17:56Z</time>
      </trkpt>
      <trkpt lat="59.9404692" lon="17.6607458">
        <ele>29.4575</ele>
        <time>2013-03-10T10:17:57Z</time>
      </trkpt>
      <trkpt lat="59.9404762" lon="17.6607199">
        <ele>29.4575</ele>
        <time>2013-03-10T10:17:58Z</time>
      </trkpt>
      <trkpt lat="59.9404836" lon="17.6606961">
        <ele>29.4575</ele>
        <time>2013-03-10T10:17:59Z</time>
      </trkpt>
      <trkpt lat="59.9404905" lon="17.660673">
        <ele>29.4575</ele>
        <time>2013-03-10T10:18:00Z</time>
      </trkpt>
      <trkpt lat="59.9404971" lon="17.6606478">
        <ele>29.4575</ele>
        <time>2013-03-10T10:18:01Z</time>
      </trkpt>
      <trkpt lat="59.9405026" lon="17.6606226">
        <ele>29.4575</ele>
        <time>2013-03-10T10:18:02Z</time>
      </trkpt>
      <trkpt lat="59.9405091" lon="17.6606018">
        <ele>29.4575</ele>
        <time>2013-03-10T10:18:03Z</time>
      </trkpt>
      <trkpt lat="59.9405149" lon="17.6605795">
        <ele>29.4575</ele>
        <time>2013-03-10T10:18:04Z</time>
      </trkpt>
      <trkpt lat="59.9405197" lon="17.6605541">
        <ele>29.4575</ele>
        <time>2013-03-10T10:18:05Z</time>
      </trkpt>
      <trkpt lat="59.9405245" lon="17.6605313">
        <ele>29.9381</ele>
        <time>2013-03-10T10:18:06Z</time>
      </trkpt>
      <trkpt lat="59.9405288" lon="17.6605092">
        <ele>29.9381</ele>
        <time>2013-03-10T10:18:07Z</time>
      </trkpt>
      <trkpt lat="59.9405327" lon="17.6604857">
        <ele>30.4188</ele>
        <time>2013-03-10T10:18:08Z</time>
      </trkpt>
      <trkpt lat="59.9405351" lon="17.6604589">
        <ele>29.9381</ele>
        <time>2013-03-10T10:18:09Z</time>
      </trkpt>
      <trkpt lat="59.9405375" lon="17.6604319">
        <ele>30.4188</ele>
        <time>2013-03-10T10:18:10Z</time>
      </trkpt>
      <trkpt lat="59.9405384" lon="17.6604054">
        <ele>30.4188</ele>
        <time>2013-03-10T10:18:11Z</time>
      </trkpt>
      <trkpt lat="59.9405389" lon="17.660385">
        <ele>30.8995</ele>
        <time>2013-03-10T10:18:12Z</time>
      </trkpt>
      <trkpt lat="59.9405382" lon="17.660364">
        <ele>31.3801</ele>
        <time>2013-03-10T10:18:13Z</time>
      </trkpt>
      <trkpt lat="59.940537" lon="17.6603423">
        <ele>31.3801</ele>
        <time>2013-03-10T10:18:14Z</time>
      </trkpt>
      <trkpt lat="59.9405344" lon="17.6603232">
        <ele>31.3801</ele>
        <time>2013-03-10T10:18:15Z</time>
      </trkpt>
      <trkpt lat="59.940532" lon="17.6602961">
        <ele>31.8607</ele>
        <time>2013-03-10T10:18:16Z</time>
      </trkpt>
      <trkpt lat="59.9405285" lon="17.6602665">
        <ele>31.3801</ele>
        <time>2013-03-10T10:18:17Z</time>
      </trkpt>
      <trkpt lat="59.9405242" lon="17.6602362">
        <ele>31.3801</ele>
        <time>2013-03-10T10:18:18Z</time>
      </trkpt>
      <trkpt lat="59.940522" lon="17.6602048">
        <ele>31.8607</ele>
        <time>2013-03-10T10:18:19Z</time>
      </trkpt>
      <trkpt lat="59.9405203" lon="17.6601723">
        <ele>32.3416</ele>
        <time>2013-03-10T10:18:20Z</time>
      </trkpt>
      <trkpt lat="59.9405172" lon="17.6601507">
        <ele>32.8223</ele>
        <time>2013-03-10T10:18:21Z</time>
      </trkpt>
      <trkpt lat="59.9405147" lon="17.6601314">
        <ele>32.8223</ele>
        <time>2013-03-10T10:18:22Z</time>
      </trkpt>
      <trkpt lat="59.9405114" lon="17.6601003">
        <ele>32.3416</ele>
        <time>2013-03-10T10:18:23Z</time>
      </trkpt>
      <trkpt lat="59.9405065" lon="17.6600785">
        <ele>32.8223</ele>
        <time>2013-03-10T10:18:24Z</time>
      </trkpt>
      <trkpt lat="59.9405006" lon="17.6600485">
        <ele>32.8223</ele>
        <time>2013-03-10T10:18:25Z</time>
      </trkpt>
      <trkpt lat="59.940493" lon="17.6600132">
        <ele>33.7834</ele>
        <time>2013-03-10T10:18:26Z</time>
      </trkpt>
      <trkpt lat="59.9404859" lon="17.6600014">
        <ele>33.3029</ele>
        <time>2013-03-10T10:18:27Z</time>
      </trkpt>
      <trkpt lat="59.9404768" lon="17.6599805">
        <ele>33.3029</ele>
        <time>2013-03-10T10:18:28Z</time>
      </trkpt>
      <trkpt lat="59.9404707" lon="17.6599636">
        <ele>32.8223</ele>
        <time>2013-03-10T10:18:29Z</time>
      </trkpt>
      <trkpt lat="59.9404612" lon="17.6599406">
        <ele>33.7834</ele>
        <time>2013-03-10T10:18:30Z</time>
      </trkpt>
      <trkpt lat="59.940456" lon="17.6599211">
        <ele>34.2642</ele>
        <time>2013-03-10T10:18:31Z</time>
      </trkpt>
      <trkpt lat="59.9404468" lon="17.659904">
        <ele>34.2642</ele>
        <time>2013-03-10T10:18:32Z</time>
      </trkpt>
      <trkpt lat="59.9404382" lon="17.6598793">
        <ele>34.2642</ele>
        <time>2013-03-10T10:18:33Z</time>
      </trkpt>
      <trkpt lat="59.9404322" lon="17.6598568">
        <ele>34.2642</ele>
        <time>2013-03-10T10:18:34Z</time>
      </trkpt>
      <trkpt lat="59.9404262" lon="17.6598427">
        <ele>33.7834</ele>
        <time>2013-03-10T10:18:35Z</time>
      </trkpt>
      <trkpt lat="59.9404224" lon="17.6598214">
        <ele>32.8223</ele>
        <time>2013-03-10T10:18:36Z</time>
      </trkpt>
      <trkpt lat="59.9404122" lon="17.6597986">
        <ele>32.3416</ele>
        <time>2013-03-10T10:18:37Z</time>
      </trkpt>
      <trkpt lat="59.940392" lon="17.6597765">
        <ele>31.3801</ele>
        <time>2013-03-10T10:18:38Z</time>
      </trkpt>
      <trkpt lat="59.9403794" lon="17.6597528">
        <ele>32.3416</ele>
        <time>2013-03-10T10:18:39Z</time>
      </trkpt>
      <trkpt lat="59.9403739" lon="17.6597308">
        <ele>32.8223</ele>
        <time>2013-03-10T10:18:40Z</time>
      </trkpt>
      <trkpt lat="59.9403748" lon="17.6597135">
        <ele>32.3416</ele>
        <time>2013-03-10T10:18:41Z</time>
      </trkpt>
      <trkpt lat="59.9403714" lon="17.6596869">
        <ele>32.8223</ele>
        <time>2013-03-10T10:18:42Z</time>
      </trkpt>
      <trkpt lat="59.9403666" lon="17.6596598">
        <ele>33.3029</ele>
        <time>2013-03-10T10:18:43Z</time>
      </trkpt>
      <trkpt lat="59.9403613" lon="17.6596284">
        <ele>32.3416</ele>
        <time>2013-03-10T10:18:44Z</time>
      </trkpt>
      <trkpt lat="59.9403568" lon="17.6596015">
        <ele>32.3416</ele>
        <time>2013-03-10T10:18:45Z</time>
      </trkpt>
      <trkpt lat="59.9403525" lon="17.6595807">
        <ele>31.8607</ele>
        <time>2013-03-10T10:18:46Z</time>
      </trkpt>
      <trkpt lat="59.940349" lon="17.65956">
        <ele>31.8607</ele>
        <time>2013-03-10T10:18:47Z</time>
      </trkpt>
      <trkpt lat="59.940348" lon="17.6595298">
        <ele>31.8607</ele>
        <time>2013-03-10T10:18:48Z</time>
      </trkpt>
      <trkpt lat="59.9403442" lon="17.6595018">
        <ele>31.3801</ele>
        <time>2013-03-10T10:18:49Z</time>
      </trkpt>
      <trkpt lat="59.9403386" lon="17.6594752">
        <ele>31.3801</ele>
        <time>2013-03-10T10:18:50Z</time>
      </trkpt>
      <trkpt lat="59.9403356" lon="17.6594533">
        <ele>30.8995</ele>
        <time>2013-03-10T10:18:51Z</time>
      </trkpt>
      <trkpt lat="59.9403332" lon="17.659434">
        <ele>30.8995</ele>
        <time>2013-03-10T10:18:52Z</time>
      </trkpt>
      <trkpt lat="59.9403309" lon="17.6594132">
        <ele>30.8995</ele>
        <time>2013-03-10T10:18:53Z</time>
      </trkpt>
      <trkpt lat="59.9403292" lon="17.6593908">
        <ele>30.4188</ele>
        <time>2013-03-10T10:18:54Z</time>
      </trkpt>
      <trkpt lat="59.9403268" lon="17.659368">
        <ele>30.4188</ele>
        <time>2013-03-10T10:18:55Z</time>
      </trkpt>
      <trkpt lat="59.9403227" lon="17.6593454">
        <ele>29.9381</ele>
        <time>2013-03-10T10:18:56Z</time>
      </trkpt>
      <trkpt lat="59.940318" lon="17.6593227">
        <ele>29.9381</ele>
        <time>2013-03-10T10:18:57Z</time>
      </trkpt>
      <trkpt lat="59.9403142" lon="17.659299">
        <ele>29.9381</ele>
        <time>2013-03-10T10:18:58Z</time>
      </trkpt>
      <trkpt lat="59.9403096" lon="17.6592756">
        <ele>29.9381</ele>
        <time>2013-03-10T10:18:59Z</time>
      </trkpt>
      <trkpt lat="59.940305" lon="17.6592516">
        <ele>29.9381</ele>
        <time>2013-03-10T10:19:00Z</time>
      </trkpt>
      <trkpt lat="59.9403008" lon="17.6592249">
        <ele>29.9381</ele>
        <time>2013-03-10T10:19:01Z</time>
      </trkpt>
      <trkpt lat="59.9402967" lon="17.6591984">
        <ele>29.4575</ele>
        <time>2013-03-10T10:19:02Z</time>
      </trkpt>
      <trkpt lat="59.9402929" lon="17.6591721">
        <ele>29.4575</ele>
        <time>2013-03-10T10:19:03Z</time>
      </trkpt>
      <trkpt lat="59.9402893" lon="17.6591462">
        <ele>29.4575</ele>
        <time>2013-03-10T10:19:04Z</time>
      </trkpt>
      <trkpt lat="59.9402853" lon="17.6591204">
        <ele>29.4575</ele>
        <time>2013-03-10T10:19:05Z</time>
      </trkpt>
      <trkpt lat="59.9402801" lon="17.6590948">
        <ele>29.4575</ele>
        <time>2013-03-10T10:19:06Z</time>
      </trkpt>
      <trkpt lat="59.9402754" lon="17.6590686">
        <ele>28.9769</ele>
        <time>2013-03-10T10:19:07Z</time>
      </trkpt>
      <trkpt lat="59.9402702" lon="17.6590436">
        <ele>28.9769</ele>
        <time>2013-03-10T10:19:08Z</time>
      </trkpt>
      <trkpt lat="59.9402667" lon="17.6590167">
        <ele>28.9769</ele>
        <time>2013-03-10T10:19:09Z</time>
      </trkpt>
      <trkpt lat="59.9402631" lon="17.6589893">
        <ele>28.9769</ele>
        <time>2013-03-10T10:19:10Z</time>
      </trkpt>
      <trkpt lat="59.9402594" lon="17.6589636">
        <ele>28.9769</ele>
        <time>2013-03-10T10:19:11Z</time>
      </trkpt>
      <trkpt lat="59.9402555" lon="17.6589358">
        <ele>28.4962</ele>
        <time>2013-03-10T10:19:12Z</time>
      </trkpt>
      <trkpt lat="59.9402511" lon="17.6589072">
        <ele>28.4962</ele>
        <time>2013-03-10T10:19:13Z</time>
      </trkpt>
      <trkpt lat="59.9402459" lon="17.6588805">
        <ele>28.4962</ele>
        <time>2013-03-10T10:19:14Z</time>
      </trkpt>
      <trkpt lat="59.9402397" lon="17.6588545">
        <ele>28.4962</ele>
        <time>2013-03-10T10:19:15Z</time>
      </trkpt>
      <trkpt lat="59.9402339" lon="17.6588289">
        <ele>28.0155</ele>
        <time>2013-03-10T10:19:16Z</time>
      </trkpt>
      <trkpt lat="59.9402284" lon="17.6588037">
        <ele>28.0155</ele>
        <time>2013-03-10T10:19:17Z</time>
      </trkpt>
      <trkpt lat="59.9402232" lon="17.6587779">
        <ele>28.0155</ele>
        <time>2013-03-10T10:19:18Z</time>
      </trkpt>
      <trkpt lat="59.9402174" lon="17.6587516">
        <ele>28.0155</ele>
        <time>2013-03-10T10:19:19Z</time>
      </trkpt>
      <trkpt lat="59.9402112" lon="17.6587255">
        <ele>27.5349</ele>
        <time>2013-03-10T10:19:20Z</time>
      </trkpt>
      <trkpt lat="59.940205" lon="17.6586991">
        <ele>27.5349</ele>
        <time>2013-03-10T10:19:21Z</time>
      </trkpt>
      <trkpt lat="59.9401988" lon="17.6586736">
        <ele>27.5349</ele>
        <time>2013-03-10T10:19:22Z</time>
      </trkpt>
      <trkpt lat="59.940192" lon="17.6586485">
        <ele>27.5349</ele>
        <time>2013-03-10T10:19:23Z</time>
      </trkpt>
      <trkpt lat="59.9401862" lon="17.6586233">
        <ele>27.5349</ele>
        <time>2013-03-10T10:19:24Z</time>
      </trkpt>
      <trkpt lat="59.9401817" lon="17.6585945">
        <ele>27.5349</ele>
        <time>2013-03-10T10:19:25Z</time>
      </trkpt>
      <trkpt lat="59.9401766" lon="17.6585676">
        <ele>27.5349</ele>
        <time>2013-03-10T10:19:26Z</time>
      </trkpt>
      <trkpt lat="59.9401702" lon="17.6585443">
        <ele>27.5349</ele>
        <time>2013-03-10T10:19:27Z</time>
      </trkpt>
      <trkpt lat="59.9401636" lon="17.658523">
        <ele>27.5349</ele>
        <time>2013-03-10T10:19:28Z</time>
      </trkpt>
      <trkpt lat="59.9401571" lon="17.6584991">
        <ele>28.0155</ele>
        <time>2013-03-10T10:19:29Z</time>
      </trkpt>
      <trkpt lat="59.9401511" lon="17.6584726">
        <ele>28.0155</ele>
        <time>2013-03-10T10:19:30Z</time>
      </trkpt>
      <trkpt lat="59.940145" lon="17.6584449">
        <ele>28.0155</ele>
        <time>2013-03-10T10:19:31Z</time>
      </trkpt>
      <trkpt lat="59.9401396" lon="17.6584169">
        <ele>28.0155</ele>
        <time>2013-03-10T10:19:32Z</time>
      </trkpt>
      <trkpt lat="59.9401345" lon="17.658391">
        <ele>28.0155</ele>
        <time>2013-03-10T10:19:33Z</time>
      </trkpt>
      <trkpt lat="59.9401291" lon="17.6583648">
        <ele>28.0155</ele>
        <time>2013-03-10T10:19:34Z</time>
      </trkpt>
      <trkpt lat="59.9401231" lon="17.6583374">
        <ele>28.0155</ele>
        <time>2013-03-10T10:19:35Z</time>
      </trkpt>
      <trkpt lat="59.9401173" lon="17.65831">
        <ele>28.0155</ele>
        <time>2013-03-10T10:19:36Z</time>
      </trkpt>
      <trkpt lat="59.9401113" lon="17.6582842">
        <ele>28.4962</ele>
        <time>2013-03-10T10:19:37Z</time>
      </trkpt>
      <trkpt lat="59.9401056" lon="17.6582584">
        <ele>28.4962</ele>
        <time>2013-03-10T10:19:38Z</time>
      </trkpt>
      <trkpt lat="59.9400998" lon="17.6582315">
        <ele>28.4962</ele>
        <time>2013-03-10T10:19:39Z</time>
      </trkpt>
      <trkpt lat="59.9400939" lon="17.6582045">
        <ele>28.4962</ele>
        <time>2013-03-10T10:19:40Z</time>
      </trkpt>
      <trkpt lat="59.940083" lon="17.6581509">
        <ele>28.4962</ele>
        <time>2013-03-10T10:19:42Z</time>
      </trkpt>
      <trkpt lat="59.9400775" lon="17.6581262">
        <ele>28.4962</ele>
        <time>2013-03-10T10:19:43Z</time>
      </trkpt>
      <trkpt lat="59.940072" lon="17.6581013">
        <ele>28.4962</ele>
        <time>2013-03-10T10:19:44Z</time>
      </trkpt>
      <trkpt lat="59.940067" lon="17.6580791">
        <ele>28.4962</ele>
        <time>2013-03-10T10:19:45Z</time>
      </trkpt>
      <trkpt lat="59.940062" lon="17.6580563">
        <ele>28.4962</ele>
        <time>2013-03-10T10:19:46Z</time>
      </trkpt>
      <trkpt lat="59.9400558" lon="17.6580309">
        <ele>28.4962</ele>
        <time>2013-03-10T10:19:47Z</time>
      </trkpt>
      <trkpt lat="59.9400485" lon="17.6580051">
        <ele>28.4962</ele>
        <time>2013-03-10T10:19:48Z</time>
      </trkpt>
      <trkpt lat="59.9400403" lon="17.657978">
        <ele>28.9769</ele>
        <time>2013-03-10T10:19:49Z</time>
      </trkpt>
      <trkpt lat="59.940033" lon="17.6579506">
        <ele>28.9769</ele>
        <time>2013-03-10T10:19:50Z</time>
      </trkpt>
      <trkpt lat="59.9400258" lon="17.6579248">
        <ele>28.9769</ele>
        <time>2013-03-10T10:19:51Z</time>
      </trkpt>
      <trkpt lat="59.9400195" lon="17.6578992">
        <ele>28.9769</ele>
        <time>2013-03-10T10:19:52Z</time>
      </trkpt>
      <trkpt lat="59.9400137" lon="17.6578708">
        <ele>29.4575</ele>
        <time>2013-03-10T10:19:53Z</time>
      </trkpt>
      <trkpt lat="59.9400082" lon="17.6578418">
        <ele>29.4575</ele>
        <time>2013-03-10T10:19:54Z</time>
      </trkpt>
      <trkpt lat="59.9400035" lon="17.6578154">
        <ele>29.4575</ele>
        <time>2013-03-10T10:19:55Z</time>
      </trkpt>
      <trkpt lat="59.9399982" lon="17.6577879">
        <ele>29.4575</ele>
        <time>2013-03-10T10:19:56Z</time>
      </trkpt>
      <trkpt lat="59.9399926" lon="17.65776">
        <ele>29.9381</ele>
        <time>2013-03-10T10:19:57Z</time>
      </trkpt>
      <trkpt lat="59.9399864" lon="17.6577319">
        <ele>29.9381</ele>
        <time>2013-03-10T10:19:58Z</time>
      </trkpt>
      <trkpt lat="59.9399794" lon="17.6577033">
        <ele>29.9381</ele>
        <time>2013-03-10T10:19:59Z</time>
      </trkpt>
      <trkpt lat="59.9399735" lon="17.6576769">
        <ele>29.9381</ele>
        <time>2013-03-10T10:20:00Z</time>
      </trkpt>
      <trkpt lat="59.9399677" lon="17.6576508">
        <ele>29.9381</ele>
        <time>2013-03-10T10:20:01Z</time>
      </trkpt>
      <trkpt lat="59.939962" lon="17.6576237">
        <ele>29.9381</ele>
        <time>2013-03-10T10:20:02Z</time>
      </trkpt>
      <trkpt lat="59.9399569" lon="17.6575967">
        <ele>29.9381</ele>
        <time>2013-03-10T10:20:03Z</time>
      </trkpt>
      <trkpt lat="59.9399517" lon="17.6575702">
        <ele>29.9381</ele>
        <time>2013-03-10T10:20:04Z</time>
      </trkpt>
      <trkpt lat="59.9399468" lon="17.6575429">
        <ele>29.9381</ele>
        <time>2013-03-10T10:20:05Z</time>
      </trkpt>
      <trkpt lat="59.9399422" lon="17.6575168">
        <ele>29.9381</ele>
        <time>2013-03-10T10:20:06Z</time>
      </trkpt>
      <trkpt lat="59.9399377" lon="17.65749">
        <ele>29.9381</ele>
        <time>2013-03-10T10:20:07Z</time>
      </trkpt>
      <trkpt lat="59.9399328" lon="17.6574629">
        <ele>29.9381</ele>
        <time>2013-03-10T10:20:08Z</time>
      </trkpt>
      <trkpt lat="59.9399269" lon="17.6574362">
        <ele>29.9381</ele>
        <time>2013-03-10T10:20:09Z</time>
      </trkpt>
      <trkpt lat="59.9399216" lon="17.6574099">
        <ele>29.9381</ele>
        <time>2013-03-10T10:20:10Z</time>
      </trkpt>
      <trkpt lat="59.9399165" lon="17.6573843">
        <ele>29.9381</ele>
        <time>2013-03-10T10:20:11Z</time>
      </trkpt>
      <trkpt lat="59.9399098" lon="17.657358">
        <ele>29.9381</ele>
        <time>2013-03-10T10:20:12Z</time>
      </trkpt>
      <trkpt lat="59.9399035" lon="17.6573299">
        <ele>29.9381</ele>
        <time>2013-03-10T10:20:13Z</time>
      </trkpt>
      <trkpt lat="59.9398978" lon="17.6573025">
        <ele>29.9381</ele>
        <time>2013-03-10T10:20:14Z</time>
      </trkpt>
      <trkpt lat="59.9398921" lon="17.6572761">
        <ele>29.9381</ele>
        <time>2013-03-10T10:20:15Z</time>
      </trkpt>
      <trkpt lat="59.9398863" lon="17.6572493">
        <ele>29.9381</ele>
        <time>2013-03-10T10:20:16Z</time>
      </trkpt>
      <trkpt lat="59.9398802" lon="17.6572227">
        <ele>29.9381</ele>
        <time>2013-03-10T10:20:17Z</time>
      </trkpt>
      <trkpt lat="59.9398741" lon="17.6571964">
        <ele>30.4188</ele>
        <time>2013-03-10T10:20:18Z</time>
      </trkpt>
      <trkpt lat="59.9398686" lon="17.6571689">
        <ele>30.4188</ele>
        <time>2013-03-10T10:20:19Z</time>
      </trkpt>
      <trkpt lat="59.939863" lon="17.657142">
        <ele>30.4188</ele>
        <time>2013-03-10T10:20:20Z</time>
      </trkpt>
      <trkpt lat="59.9398575" lon="17.6571174">
        <ele>30.4188</ele>
        <time>2013-03-10T10:20:21Z</time>
      </trkpt>
      <trkpt lat="59.9398499" lon="17.6570939">
        <ele>30.8995</ele>
        <time>2013-03-10T10:20:22Z</time>
      </trkpt>
      <trkpt lat="59.9398444" lon="17.6570689">
        <ele>30.8995</ele>
        <time>2013-03-10T10:20:23Z</time>
      </trkpt>
      <trkpt lat="59.9398408" lon="17.6570429">
        <ele>30.8995</ele>
        <time>2013-03-10T10:20:24Z</time>
      </trkpt>
      <trkpt lat="59.9398356" lon="17.6570157">
        <ele>30.8995</ele>
        <time>2013-03-10T10:20:25Z</time>
      </trkpt>
      <trkpt lat="59.9398297" lon="17.6569864">
        <ele>31.3801</ele>
        <time>2013-03-10T10:20:26Z</time>
      </trkpt>
      <trkpt lat="59.9398243" lon="17.6569591">
        <ele>31.3801</ele>
        <time>2013-03-10T10:20:27Z</time>
      </trkpt>
      <trkpt lat="59.9398197" lon="17.6569331">
        <ele>31.3801</ele>
        <time>2013-03-10T10:20:28Z</time>
      </trkpt>
      <trkpt lat="59.939815" lon="17.6569071">
        <ele>31.3801</ele>
        <time>2013-03-10T10:20:29Z</time>
      </trkpt>
      <trkpt lat="59.9398101" lon="17.6568808">
        <ele>31.3801</ele>
        <time>2013-03-10T10:20:30Z</time>
      </trkpt>
      <trkpt lat="59.9398046" lon="17.6568529">
        <ele>31.8607</ele>
        <time>2013-03-10T10:20:31Z</time>
      </trkpt>
      <trkpt lat="59.9397994" lon="17.656825">
        <ele>31.8607</ele>
        <time>2013-03-10T10:20:32Z</time>
      </trkpt>
      <trkpt lat="59.9397942" lon="17.656798">
        <ele>32.3416</ele>
        <time>2013-03-10T10:20:33Z</time>
      </trkpt>
      <trkpt lat="59.9397891" lon="17.6567715">
        <ele>32.3416</ele>
        <time>2013-03-10T10:20:34Z</time>
      </trkpt>
      <trkpt lat="59.9397838" lon="17.6567456">
        <ele>32.3416</ele>
        <time>2013-03-10T10:20:35Z</time>
      </trkpt>
      <trkpt lat="59.939778" lon="17.6567225">
        <ele>32.3416</ele>
        <time>2013-03-10T10:20:36Z</time>
      </trkpt>
      <trkpt lat="59.9397718" lon="17.6567007">
        <ele>32.8223</ele>
        <time>2013-03-10T10:20:37Z</time>
      </trkpt>
      <trkpt lat="59.9397665" lon="17.6566773">
        <ele>32.8223</ele>
        <time>2013-03-10T10:20:38Z</time>
      </trkpt>
      <trkpt lat="59.9397619" lon="17.6566512">
        <ele>32.8223</ele>
        <time>2013-03-10T10:20:39Z</time>
      </trkpt>
      <trkpt lat="59.9397574" lon="17.6566271">
        <ele>32.8223</ele>
        <time>2013-03-10T10:20:40Z</time>
      </trkpt>
      <trkpt lat="59.9397524" lon="17.6566012">
        <ele>32.8223</ele>
        <time>2013-03-10T10:20:41Z</time>
      </trkpt>
      <trkpt lat="59.9397463" lon="17.6565751">
        <ele>32.8223</ele>
        <time>2013-03-10T10:20:42Z</time>
      </trkpt>
      <trkpt lat="59.9397398" lon="17.656549">
        <ele>32.8223</ele>
        <time>2013-03-10T10:20:43Z</time>
      </trkpt>
      <trkpt lat="59.9397341" lon="17.6565235">
        <ele>32.8223</ele>
        <time>2013-03-10T10:20:44Z</time>
      </trkpt>
      <trkpt lat="59.9397284" lon="17.6564995">
        <ele>33.3029</ele>
        <time>2013-03-10T10:20:45Z</time>
      </trkpt>
      <trkpt lat="59.9397236" lon="17.6564725">
        <ele>33.3029</ele>
        <time>2013-03-10T10:20:46Z</time>
      </trkpt>
      <trkpt lat="59.9397178" lon="17.6564452">
        <ele>33.3029</ele>
        <time>2013-03-10T10:20:47Z</time>
      </trkpt>
      <trkpt lat="59.9397129" lon="17.6564186">
        <ele>33.3029</ele>
        <time>2013-03-10T10:20:48Z</time>
      </trkpt>
      <trkpt lat="59.9397093" lon="17.6563909">
        <ele>33.3029</ele>
        <time>2013-03-10T10:20:49Z</time>
      </trkpt>
      <trkpt lat="59.939705" lon="17.6563654">
        <ele>33.3029</ele>
        <time>2013-03-10T10:20:50Z</time>
      </trkpt>
      <trkpt lat="59.9397002" lon="17.656339">
        <ele>33.3029</ele>
        <time>2013-03-10T10:20:51Z</time>
      </trkpt>
      <trkpt lat="59.9396953" lon="17.6563121">
        <ele>33.3029</ele>
        <time>2013-03-10T10:20:52Z</time>
      </trkpt>
      <trkpt lat="59.9396906" lon="17.6562866">
        <ele>33.3029</ele>
        <time>2013-03-10T10:20:53Z</time>
      </trkpt>
      <trkpt lat="59.9396863" lon="17.6562613">
        <ele>33.3029</ele>
        <time>2013-03-10T10:20:54Z</time>
      </trkpt>
      <trkpt lat="59.9396807" lon="17.6562365">
        <ele>33.3029</ele>
        <time>2013-03-10T10:20:55Z</time>
      </trkpt>
      <trkpt lat="59.9396752" lon="17.6562097">
        <ele>33.7834</ele>
        <time>2013-03-10T10:20:56Z</time>
      </trkpt>
      <trkpt lat="59.9396709" lon="17.6561845">
        <ele>33.7834</ele>
        <time>2013-03-10T10:20:57Z</time>
      </trkpt>
      <trkpt lat="59.9396666" lon="17.6561604">
        <ele>33.3029</ele>
        <time>2013-03-10T10:20:58Z</time>
      </trkpt>
      <trkpt lat="59.939662" lon="17.6561369">
        <ele>33.3029</ele>
        <time>2013-03-10T10:20:59Z</time>
      </trkpt>
      <trkpt lat="59.9396559" lon="17.6561132">
        <ele>33.3029</ele>
        <time>2013-03-10T10:21:00Z</time>
      </trkpt>
      <trkpt lat="59.9396506" lon="17.6560903">
        <ele>33.3029</ele>
        <time>2013-03-10T10:21:01Z</time>
      </trkpt>
      <trkpt lat="59.939645" lon="17.6560683">
        <ele>33.3029</ele>
        <time>2013-03-10T10:21:02Z</time>
      </trkpt>
      <trkpt lat="59.9396403" lon="17.6560475">
        <ele>33.3029</ele>
        <time>2013-03-10T10:21:03Z</time>
      </trkpt>
      <trkpt lat="59.9396353" lon="17.6560261">
        <ele>32.8223</ele>
        <time>2013-03-10T10:21:04Z</time>
      </trkpt>
      <trkpt lat="59.9396305" lon="17.6560039">
        <ele>32.8223</ele>
        <time>2013-03-10T10:21:05Z</time>
      </trkpt>
      <trkpt lat="59.9396268" lon="17.6559805">
        <ele>32.8223</ele>
        <time>2013-03-10T10:21:06Z</time>
      </trkpt>
      <trkpt lat="59.9396226" lon="17.6559552">
        <ele>33.3029</ele>
        <time>2013-03-10T10:21:07Z</time>
      </trkpt>
      <trkpt lat="59.9396176" lon="17.6559315">
        <ele>33.3029</ele>
        <time>2013-03-10T10:21:08Z</time>
      </trkpt>
      <trkpt lat="59.9396124" lon="17.6559077">
        <ele>33.3029</ele>
        <time>2013-03-10T10:21:09Z</time>
      </trkpt>
      <trkpt lat="59.9396078" lon="17.6558841">
        <ele>33.3029</ele>
        <time>2013-03-10T10:21:10Z</time>
      </trkpt>
      <trkpt lat="59.9396031" lon="17.6558604">
        <ele>33.3029</ele>
        <time>2013-03-10T10:21:11Z</time>
      </trkpt>
      <trkpt lat="59.9395984" lon="17.655835">
        <ele>33.3029</ele>
        <time>2013-03-10T10:21:12Z</time>
      </trkpt>
      <trkpt lat="59.9395933" lon="17.655811">
        <ele>33.3029</ele>
        <time>2013-03-10T10:21:13Z</time>
      </trkpt>
      <trkpt lat="59.9395879" lon="17.6557869">
        <ele>33.3029</ele>
        <time>2013-03-10T10:21:14Z</time>
      </trkpt>
      <trkpt lat="59.9395834" lon="17.6557619">
        <ele>33.7834</ele>
        <time>2013-03-10T10:21:15Z</time>
      </trkpt>
      <trkpt lat="59.9395785" lon="17.655737">
        <ele>33.7834</ele>
        <time>2013-03-10T10:21:16Z</time>
      </trkpt>
      <trkpt lat="59.9395725" lon="17.6557108">
        <ele>33.7834</ele>
        <time>2013-03-10T10:21:17Z</time>
      </trkpt>
      <trkpt lat="59.9395677" lon="17.6556842">
        <ele>33.7834</ele>
        <time>2013-03-10T10:21:18Z</time>
      </trkpt>
      <trkpt lat="59.9395632" lon="17.6556564">
        <ele>33.7834</ele>
        <time>2013-03-10T10:21:19Z</time>
      </trkpt>
      <trkpt lat="59.9395586" lon="17.6556303">
        <ele>33.3029</ele>
        <time>2013-03-10T10:21:20Z</time>
      </trkpt>
      <trkpt lat="59.9395538" lon="17.655604">
        <ele>33.7834</ele>
        <time>2013-03-10T10:21:21Z</time>
      </trkpt>
      <trkpt lat="59.939548" lon="17.6555807">
        <ele>33.3029</ele>
        <time>2013-03-10T10:21:22Z</time>
      </trkpt>
      <trkpt lat="59.9395425" lon="17.6555575">
        <ele>33.3029</ele>
        <time>2013-03-10T10:21:23Z</time>
      </trkpt>
      <trkpt lat="59.9395377" lon="17.655531">
        <ele>33.3029</ele>
        <time>2013-03-10T10:21:24Z</time>
      </trkpt>
      <trkpt lat="59.9395329" lon="17.6555031">
        <ele>33.3029</ele>
        <time>2013-03-10T10:21:25Z</time>
      </trkpt>
      <trkpt lat="59.9395278" lon="17.6554764">
        <ele>33.3029</ele>
        <time>2013-03-10T10:21:26Z</time>
      </trkpt>
      <trkpt lat="59.9395227" lon="17.6554511">
        <ele>33.3029</ele>
        <time>2013-03-10T10:21:27Z</time>
      </trkpt>
      <trkpt lat="59.939517" lon="17.6554287">
        <ele>33.3029</ele>
        <time>2013-03-10T10:21:28Z</time>
      </trkpt>
      <trkpt lat="59.9395108" lon="17.6554067">
        <ele>33.3029</ele>
        <time>2013-03-10T10:21:29Z</time>
      </trkpt>
      <trkpt lat="59.939505" lon="17.6553811">
        <ele>33.3029</ele>
        <time>2013-03-10T10:21:30Z</time>
      </trkpt>
      <trkpt lat="59.9395009" lon="17.6553567">
        <ele>33.3029</ele>
        <time>2013-03-10T10:21:31Z</time>
      </trkpt>
      <trkpt lat="59.9394965" lon="17.6553318">
        <ele>33.3029</ele>
        <time>2013-03-10T10:21:32Z</time>
      </trkpt>
      <trkpt lat="59.9394916" lon="17.6553059">
        <ele>33.3029</ele>
        <time>2013-03-10T10:21:33Z</time>
      </trkpt>
      <trkpt lat="59.9394858" lon="17.6552809">
        <ele>33.3029</ele>
        <time>2013-03-10T10:21:34Z</time>
      </trkpt>
      <trkpt lat="59.9394791" lon="17.6552571">
        <ele>33.3029</ele>
        <time>2013-03-10T10:21:35Z</time>
      </trkpt>
      <trkpt lat="59.9394729" lon="17.6552335">
        <ele>33.3029</ele>
        <time>2013-03-10T10:21:36Z</time>
      </trkpt>
      <trkpt lat="59.9394702" lon="17.6552049">
        <ele>33.3029</ele>
        <time>2013-03-10T10:21:37Z</time>
      </trkpt>
      <trkpt lat="59.9394679" lon="17.6551777">
        <ele>33.3029</ele>
        <time>2013-03-10T10:21:38Z</time>
      </trkpt>
      <trkpt lat="59.9394626" lon="17.6551554">
        <ele>33.3029</ele>
        <time>2013-03-10T10:21:39Z</time>
      </trkpt>
      <trkpt lat="59.9394573" lon="17.6551289">
        <ele>33.3029</ele>
        <time>2013-03-10T10:21:40Z</time>
      </trkpt>
      <trkpt lat="59.9394521" lon="17.6551031">
        <ele>33.3029</ele>
        <time>2013-03-10T10:21:41Z</time>
      </trkpt>
      <trkpt lat="59.9394467" lon="17.6550772">
        <ele>33.3029</ele>
        <time>2013-03-10T10:21:42Z</time>
      </trkpt>
      <trkpt lat="59.9394423" lon="17.6550514">
        <ele>33.3029</ele>
        <time>2013-03-10T10:21:43Z</time>
      </trkpt>
      <trkpt lat="59.9394379" lon="17.6550247">
        <ele>33.3029</ele>
        <time>2013-03-10T10:21:44Z</time>
      </trkpt>
      <trkpt lat="59.9394338" lon="17.6549972">
        <ele>32.8223</ele>
        <time>2013-03-10T10:21:45Z</time>
      </trkpt>
      <trkpt lat="59.9394311" lon="17.6549684">
        <ele>32.8223</ele>
        <time>2013-03-10T10:21:46Z</time>
      </trkpt>
      <trkpt lat="59.9394284" lon="17.6549409">
        <ele>32.3416</ele>
        <time>2013-03-10T10:21:47Z</time>
      </trkpt>
      <trkpt lat="59.9394244" lon="17.6549149">
        <ele>32.3416</ele>
        <time>2013-03-10T10:21:48Z</time>
      </trkpt>
      <trkpt lat="59.9394201" lon="17.6548898">
        <ele>32.3416</ele>
        <time>2013-03-10T10:21:49Z</time>
      </trkpt>
      <trkpt lat="59.9394145" lon="17.6548658">
        <ele>32.3416</ele>
        <time>2013-03-10T10:21:50Z</time>
      </trkpt>
      <trkpt lat="59.9394077" lon="17.6548413">
        <ele>32.8223</ele>
        <time>2013-03-10T10:21:51Z</time>
      </trkpt>
      <trkpt lat="59.9394022" lon="17.6548187">
        <ele>32.8223</ele>
        <time>2013-03-10T10:21:52Z</time>
      </trkpt>
      <trkpt lat="59.939397" lon="17.6547975">
        <ele>32.8223</ele>
        <time>2013-03-10T10:21:53Z</time>
      </trkpt>
      <trkpt lat="59.9393905" lon="17.6547777">
        <ele>33.3029</ele>
        <time>2013-03-10T10:21:54Z</time>
      </trkpt>
      <trkpt lat="59.9393838" lon="17.6547607">
        <ele>33.3029</ele>
        <time>2013-03-10T10:21:55Z</time>
      </trkpt>
      <trkpt lat="59.9393767" lon="17.6547432">
        <ele>33.3029</ele>
        <time>2013-03-10T10:21:56Z</time>
      </trkpt>
      <trkpt lat="59.939372" lon="17.6547197">
        <ele>33.3029</ele>
        <time>2013-03-10T10:21:57Z</time>
      </trkpt>
      <trkpt lat="59.9393694" lon="17.6546918">
        <ele>33.3029</ele>
        <time>2013-03-10T10:21:58Z</time>
      </trkpt>
      <trkpt lat="59.939368" lon="17.654666">
        <ele>33.3029</ele>
        <time>2013-03-10T10:21:59Z</time>
      </trkpt>
      <trkpt lat="59.9393677" lon="17.6546399">
        <ele>32.8223</ele>
        <time>2013-03-10T10:22:00Z</time>
      </trkpt>
      <trkpt lat="59.9393663" lon="17.6546136">
        <ele>32.8223</ele>
        <time>2013-03-10T10:22:01Z</time>
      </trkpt>
      <trkpt lat="59.9393623" lon="17.6545882">
        <ele>32.8223</ele>
        <time>2013-03-10T10:22:02Z</time>
      </trkpt>
      <trkpt lat="59.9393569" lon="17.6545622">
        <ele>32.8223</ele>
        <time>2013-03-10T10:22:03Z</time>
      </trkpt>
      <trkpt lat="59.9393517" lon="17.6545357">
        <ele>32.8223</ele>
        <time>2013-03-10T10:22:04Z</time>
      </trkpt>
      <trkpt lat="59.9393486" lon="17.6545092">
        <ele>32.3416</ele>
        <time>2013-03-10T10:22:05Z</time>
      </trkpt>
      <trkpt lat="59.9393466" lon="17.6544804">
        <ele>32.3416</ele>
        <time>2013-03-10T10:22:06Z</time>
      </trkpt>
      <trkpt lat="59.9393433" lon="17.6544528">
        <ele>32.3416</ele>
        <time>2013-03-10T10:22:07Z</time>
      </trkpt>
      <trkpt lat="59.9393397" lon="17.6544245">
        <ele>31.8607</ele>
        <time>2013-03-10T10:22:08Z</time>
      </trkpt>
      <trkpt lat="59.9393353" lon="17.6543968">
        <ele>31.8607</ele>
        <time>2013-03-10T10:22:09Z</time>
      </trkpt>
      <trkpt lat="59.9393301" lon="17.654371">
        <ele>31.8607</ele>
        <time>2013-03-10T10:22:10Z</time>
      </trkpt>
      <trkpt lat="59.939324" lon="17.6543464">
        <ele>31.8607</ele>
        <time>2013-03-10T10:22:11Z</time>
      </trkpt>
      <trkpt lat="59.9393185" lon="17.6543222">
        <ele>31.8607</ele>
        <time>2013-03-10T10:22:12Z</time>
      </trkpt>
      <trkpt lat="59.9393131" lon="17.6542977">
        <ele>31.8607</ele>
        <time>2013-03-10T10:22:13Z</time>
      </trkpt>
      <trkpt lat="59.9393083" lon="17.6542723">
        <ele>31.3801</ele>
        <time>2013-03-10T10:22:14Z</time>
      </trkpt>
      <trkpt lat="59.939304" lon="17.6542468">
        <ele>31.3801</ele>
        <time>2013-03-10T10:22:15Z</time>
      </trkpt>
      <trkpt lat="59.9392983" lon="17.6542214">
        <ele>31.3801</ele>
        <time>2013-03-10T10:22:16Z</time>
      </trkpt>
      <trkpt lat="59.9392923" lon="17.654197">
        <ele>30.8995</ele>
        <time>2013-03-10T10:22:17Z</time>
      </trkpt>
      <trkpt lat="59.939286" lon="17.6541741">
        <ele>30.8995</ele>
        <time>2013-03-10T10:22:18Z</time>
      </trkpt>
      <trkpt lat="59.9392796" lon="17.6541509">
        <ele>30.8995</ele>
        <time>2013-03-10T10:22:19Z</time>
      </trkpt>
      <trkpt lat="59.9392753" lon="17.6541251">
        <ele>30.8995</ele>
        <time>2013-03-10T10:22:20Z</time>
      </trkpt>
      <trkpt lat="59.9392715" lon="17.6540967">
        <ele>30.8995</ele>
        <time>2013-03-10T10:22:21Z</time>
      </trkpt>
      <trkpt lat="59.9392663" lon="17.6540707">
        <ele>30.8995</ele>
        <time>2013-03-10T10:22:22Z</time>
      </trkpt>
      <trkpt lat="59.9392608" lon="17.6540459">
        <ele>30.4188</ele>
        <time>2013-03-10T10:22:23Z</time>
      </trkpt>
      <trkpt lat="59.9392566" lon="17.6540198">
        <ele>30.4188</ele>
        <time>2013-03-10T10:22:24Z</time>
      </trkpt>
      <trkpt lat="59.9392519" lon="17.6539949">
        <ele>30.4188</ele>
        <time>2013-03-10T10:22:25Z</time>
      </trkpt>
      <trkpt lat="59.9392462" lon="17.6539773">
        <ele>30.4188</ele>
        <time>2013-03-10T10:22:26Z</time>
      </trkpt>
      <trkpt lat="59.9392405" lon="17.6539568">
        <ele>30.4188</ele>
        <time>2013-03-10T10:22:27Z</time>
      </trkpt>
      <trkpt lat="59.9392363" lon="17.6539345">
        <ele>29.9381</ele>
        <time>2013-03-10T10:22:28Z</time>
      </trkpt>
      <trkpt lat="59.939231" lon="17.6539117">
        <ele>29.9381</ele>
        <time>2013-03-10T10:22:29Z</time>
      </trkpt>
      <trkpt lat="59.9392257" lon="17.6538887">
        <ele>29.9381</ele>
        <time>2013-03-10T10:22:30Z</time>
      </trkpt>
      <trkpt lat="59.9392219" lon="17.6538651">
        <ele>29.9381</ele>
        <time>2013-03-10T10:22:31Z</time>
      </trkpt>
      <trkpt lat="59.9392175" lon="17.6538429">
        <ele>29.9381</ele>
        <time>2013-03-10T10:22:32Z</time>
      </trkpt>
      <trkpt lat="59.9392123" lon="17.6538244">
        <ele>29.9381</ele>
        <time>2013-03-10T10:22:33Z</time>
      </trkpt>
      <trkpt lat="59.9392066" lon="17.6538023">
        <ele>29.9381</ele>
        <time>2013-03-10T10:22:34Z</time>
      </trkpt>
      <trkpt lat="59.9392007" lon="17.6537774">
        <ele>29.9381</ele>
        <time>2013-03-10T10:22:35Z</time>
      </trkpt>
      <trkpt lat="59.9391942" lon="17.6537547">
        <ele>29.9381</ele>
        <time>2013-03-10T10:22:36Z</time>
      </trkpt>
      <trkpt lat="59.9391877" lon="17.6537314">
        <ele>29.9381</ele>
        <time>2013-03-10T10:22:37Z</time>
      </trkpt>
      <trkpt lat="59.9391819" lon="17.6537058">
        <ele>29.4575</ele>
        <time>2013-03-10T10:22:38Z</time>
      </trkpt>
      <trkpt lat="59.9391767" lon="17.6536804">
        <ele>29.9381</ele>
        <time>2013-03-10T10:22:39Z</time>
      </trkpt>
      <trkpt lat="59.9391717" lon="17.6536573">
        <ele>29.9381</ele>
        <time>2013-03-10T10:22:40Z</time>
      </trkpt>
      <trkpt lat="59.9391664" lon="17.6536351">
        <ele>29.9381</ele>
        <time>2013-03-10T10:22:41Z</time>
      </trkpt>
      <trkpt lat="59.9391608" lon="17.6536127">
        <ele>29.9381</ele>
        <time>2013-03-10T10:22:42Z</time>
      </trkpt>
      <trkpt lat="59.9391556" lon="17.6535885">
        <ele>29.9381</ele>
        <time>2013-03-10T10:22:43Z</time>
      </trkpt>
      <trkpt lat="59.9391503" lon="17.6535651">
        <ele>29.9381</ele>
        <time>2013-03-10T10:22:44Z</time>
      </trkpt>
      <trkpt lat="59.9391467" lon="17.6535393">
        <ele>29.9381</ele>
        <time>2013-03-10T10:22:45Z</time>
      </trkpt>
      <trkpt lat="59.9391441" lon="17.6535107">
        <ele>29.9381</ele>
        <time>2013-03-10T10:22:46Z</time>
      </trkpt>
      <trkpt lat="59.9391398" lon="17.6534843">
        <ele>29.9381</ele>
        <time>2013-03-10T10:22:47Z</time>
      </trkpt>
      <trkpt lat="59.9391335" lon="17.6534626">
        <ele>29.9381</ele>
        <time>2013-03-10T10:22:48Z</time>
      </trkpt>
      <trkpt lat="59.9391275" lon="17.6534425">
        <ele>29.9381</ele>
        <time>2013-03-10T10:22:49Z</time>
      </trkpt>
      <trkpt lat="59.9391212" lon="17.6534211">
        <ele>30.4188</ele>
        <time>2013-03-10T10:22:50Z</time>
      </trkpt>
      <trkpt lat="59.939115" lon="17.6533986">
        <ele>30.4188</ele>
        <time>2013-03-10T10:22:51Z</time>
      </trkpt>
      <trkpt lat="59.9391089" lon="17.6533759">
        <ele>30.4188</ele>
        <time>2013-03-10T10:22:52Z</time>
      </trkpt>
      <trkpt lat="59.9391027" lon="17.6533559">
        <ele>30.4188</ele>
        <time>2013-03-10T10:22:53Z</time>
      </trkpt>
      <trkpt lat="59.9390959" lon="17.653334">
        <ele>30.4188</ele>
        <time>2013-03-10T10:22:54Z</time>
      </trkpt>
      <trkpt lat="59.9390891" lon="17.6533119">
        <ele>30.4188</ele>
        <time>2013-03-10T10:22:55Z</time>
      </trkpt>
      <trkpt lat="59.9390828" lon="17.65329">
        <ele>30.4188</ele>
        <time>2013-03-10T10:22:56Z</time>
      </trkpt>
      <trkpt lat="59.9390767" lon="17.6532688">
        <ele>30.4188</ele>
        <time>2013-03-10T10:22:57Z</time>
      </trkpt>
      <trkpt lat="59.9390706" lon="17.6532455">
        <ele>29.9381</ele>
        <time>2013-03-10T10:22:58Z</time>
      </trkpt>
      <trkpt lat="59.9390643" lon="17.653221">
        <ele>29.9381</ele>
        <time>2013-03-10T10:22:59Z</time>
      </trkpt>
      <trkpt lat="59.9390574" lon="17.6531982">
        <ele>30.4188</ele>
        <time>2013-03-10T10:23:00Z</time>
      </trkpt>
      <trkpt lat="59.939052" lon="17.6531754">
        <ele>30.4188</ele>
        <time>2013-03-10T10:23:01Z</time>
      </trkpt>
      <trkpt lat="59.9390483" lon="17.6531496">
        <ele>30.4188</ele>
        <time>2013-03-10T10:23:02Z</time>
      </trkpt>
      <trkpt lat="59.9390432" lon="17.6531283">
        <ele>30.4188</ele>
        <time>2013-03-10T10:23:03Z</time>
      </trkpt>
      <trkpt lat="59.9390374" lon="17.6531068">
        <ele>30.4188</ele>
        <time>2013-03-10T10:23:04Z</time>
      </trkpt>
      <trkpt lat="59.9390321" lon="17.6530818">
        <ele>30.4188</ele>
        <time>2013-03-10T10:23:05Z</time>
      </trkpt>
      <trkpt lat="59.9390265" lon="17.6530568">
        <ele>30.4188</ele>
        <time>2013-03-10T10:23:06Z</time>
      </trkpt>
      <trkpt lat="59.9390207" lon="17.6530301">
        <ele>29.9381</ele>
        <time>2013-03-10T10:23:07Z</time>
      </trkpt>
      <trkpt lat="59.9390144" lon="17.6530027">
        <ele>30.4188</ele>
        <time>2013-03-10T10:23:08Z</time>
      </trkpt>
      <trkpt lat="59.9390084" lon="17.652978">
        <ele>29.9381</ele>
        <time>2013-03-10T10:23:09Z</time>
      </trkpt>
      <trkpt lat="59.9390032" lon="17.6529534">
        <ele>29.9381</ele>
        <time>2013-03-10T10:23:10Z</time>
      </trkpt>
      <trkpt lat="59.938996" lon="17.6529293">
        <ele>29.9381</ele>
        <time>2013-03-10T10:23:11Z</time>
      </trkpt>
      <trkpt lat="59.9389892" lon="17.6529062">
        <ele>29.9381</ele>
        <time>2013-03-10T10:23:12Z</time>
      </trkpt>
      <trkpt lat="59.9389824" lon="17.6528818">
        <ele>29.9381</ele>
        <time>2013-03-10T10:23:13Z</time>
      </trkpt>
      <trkpt lat="59.9389758" lon="17.6528571">
        <ele>29.4575</ele>
        <time>2013-03-10T10:23:14Z</time>
      </trkpt>
      <trkpt lat="59.9389693" lon="17.6528326">
        <ele>29.4575</ele>
        <time>2013-03-10T10:23:15Z</time>
      </trkpt>
      <trkpt lat="59.9389626" lon="17.6528062">
        <ele>29.4575</ele>
        <time>2013-03-10T10:23:16Z</time>
      </trkpt>
      <trkpt lat="59.9389555" lon="17.6527779">
        <ele>29.4575</ele>
        <time>2013-03-10T10:23:17Z</time>
      </trkpt>
      <trkpt lat="59.9389482" lon="17.652754">
        <ele>29.4575</ele>
        <time>2013-03-10T10:23:18Z</time>
      </trkpt>
      <trkpt lat="59.938941" lon="17.6527302">
        <ele>29.4575</ele>
        <time>2013-03-10T10:23:19Z</time>
      </trkpt>
      <trkpt lat="59.9389355" lon="17.6527083">
        <ele>29.4575</ele>
        <time>2013-03-10T10:23:20Z</time>
      </trkpt>
      <trkpt lat="59.9389281" lon="17.652684">
        <ele>29.4575</ele>
        <time>2013-03-10T10:23:21Z</time>
      </trkpt>
      <trkpt lat="59.9389215" lon="17.6526597">
        <ele>29.4575</ele>
        <time>2013-03-10T10:23:22Z</time>
      </trkpt>
      <trkpt lat="59.9389161" lon="17.6526364">
        <ele>29.4575</ele>
        <time>2013-03-10T10:23:23Z</time>
      </trkpt>
      <trkpt lat="59.9389094" lon="17.6526149">
        <ele>29.4575</ele>
        <time>2013-03-10T10:23:24Z</time>
      </trkpt>
      <trkpt lat="59.9389026" lon="17.6525913">
        <ele>29.4575</ele>
        <time>2013-03-10T10:23:25Z</time>
      </trkpt>
      <trkpt lat="59.938898" lon="17.6525669">
        <ele>29.4575</ele>
        <time>2013-03-10T10:23:26Z</time>
      </trkpt>
      <trkpt lat="59.938893" lon="17.6525426">
        <ele>29.4575</ele>
        <time>2013-03-10T10:23:27Z</time>
      </trkpt>
      <trkpt lat="59.9388864" lon="17.6525208">
        <ele>29.4575</ele>
        <time>2013-03-10T10:23:28Z</time>
      </trkpt>
      <trkpt lat="59.9388799" lon="17.6524997">
        <ele>29.4575</ele>
        <time>2013-03-10T10:23:29Z</time>
      </trkpt>
      <trkpt lat="59.938875" lon="17.6524783">
        <ele>29.4575</ele>
        <time>2013-03-10T10:23:30Z</time>
      </trkpt>
      <trkpt lat="59.9388695" lon="17.652458">
        <ele>28.9769</ele>
        <time>2013-03-10T10:23:31Z</time>
      </trkpt>
      <trkpt lat="59.9388644" lon="17.6524348">
        <ele>28.9769</ele>
        <time>2013-03-10T10:23:32Z</time>
      </trkpt>
      <trkpt lat="59.9388597" lon="17.652407">
        <ele>28.4962</ele>
        <time>2013-03-10T10:23:33Z</time>
      </trkpt>
      <trkpt lat="59.9388535" lon="17.6523814">
        <ele>28.4962</ele>
        <time>2013-03-10T10:23:34Z</time>
      </trkpt>
      <trkpt lat="59.9388471" lon="17.6523574">
        <ele>28.4962</ele>
        <time>2013-03-10T10:23:35Z</time>
      </trkpt>
      <trkpt lat="59.9388416" lon="17.6523331">
        <ele>28.4962</ele>
        <time>2013-03-10T10:23:36Z</time>
      </trkpt>
      <trkpt lat="59.9388367" lon="17.6523054">
        <ele>28.4962</ele>
        <time>2013-03-10T10:23:37Z</time>
      </trkpt>
      <trkpt lat="59.9388321" lon="17.6522792">
        <ele>28.0155</ele>
        <time>2013-03-10T10:23:38Z</time>
      </trkpt>
      <trkpt lat="59.9388308" lon="17.652252">
        <ele>27.5349</ele>
        <time>2013-03-10T10:23:39Z</time>
      </trkpt>
      <trkpt lat="59.938828" lon="17.6522251">
        <ele>27.5349</ele>
        <time>2013-03-10T10:23:40Z</time>
      </trkpt>
      <trkpt lat="59.9388222" lon="17.6522032">
        <ele>27.0543</ele>
        <time>2013-03-10T10:23:41Z</time>
      </trkpt>
      <trkpt lat="59.9388161" lon="17.6521815">
        <ele>26.5736</ele>
        <time>2013-03-10T10:23:42Z</time>
      </trkpt>
      <trkpt lat="59.9388103" lon="17.6521594">
        <ele>26.5736</ele>
        <time>2013-03-10T10:23:43Z</time>
      </trkpt>
      <trkpt lat="59.9388044" lon="17.652134">
        <ele>26.5736</ele>
        <time>2013-03-10T10:23:44Z</time>
      </trkpt>
      <trkpt lat="59.9388002" lon="17.6521098">
        <ele>26.0929</ele>
        <time>2013-03-10T10:23:45Z</time>
      </trkpt>
      <trkpt lat="59.938799" lon="17.6520825">
        <ele>25.6123</ele>
        <time>2013-03-10T10:23:46Z</time>
      </trkpt>
      <trkpt lat="59.9387945" lon="17.6520556">
        <ele>25.6123</ele>
        <time>2013-03-10T10:23:47Z</time>
      </trkpt>
      <trkpt lat="59.9387894" lon="17.6520316">
        <ele>25.6123</ele>
        <time>2013-03-10T10:23:48Z</time>
      </trkpt>
      <trkpt lat="59.9387847" lon="17.6520057">
        <ele>25.6123</ele>
        <time>2013-03-10T10:23:49Z</time>
      </trkpt>
      <trkpt lat="59.9387777" lon="17.6519866">
        <ele>25.6123</ele>
        <time>2013-03-10T10:23:50Z</time>
      </trkpt>
      <trkpt lat="59.9387681" lon="17.65197">
        <ele>25.6123</ele>
        <time>2013-03-10T10:23:51Z</time>
      </trkpt>
      <trkpt lat="59.9387591" lon="17.651951">
        <ele>26.0929</ele>
        <time>2013-03-10T10:23:52Z</time>
      </trkpt>
      <trkpt lat="59.9387531" lon="17.6519312">
        <ele>25.6123</ele>
        <time>2013-03-10T10:23:53Z</time>
      </trkpt>
      <trkpt lat="59.9387477" lon="17.651909">
        <ele>25.6123</ele>
        <time>2013-03-10T10:23:54Z</time>
      </trkpt>
      <trkpt lat="59.9387437" lon="17.6518842">
        <ele>25.6123</ele>
        <time>2013-03-10T10:23:55Z</time>
      </trkpt>
      <trkpt lat="59.9387416" lon="17.6518582">
        <ele>25.1317</ele>
        <time>2013-03-10T10:23:56Z</time>
      </trkpt>
      <trkpt lat="59.9387364" lon="17.6518344">
        <ele>25.1317</ele>
        <time>2013-03-10T10:23:57Z</time>
      </trkpt>
      <trkpt lat="59.9387317" lon="17.6518122">
        <ele>24.651</ele>
        <time>2013-03-10T10:23:58Z</time>
      </trkpt>
      <trkpt lat="59.9387272" lon="17.6517884">
        <ele>24.1703</ele>
        <time>2013-03-10T10:23:59Z</time>
      </trkpt>
      <trkpt lat="59.938721" lon="17.651766">
        <ele>24.1703</ele>
        <time>2013-03-10T10:24:00Z</time>
      </trkpt>
      <trkpt lat="59.9387132" lon="17.6517443">
        <ele>24.1703</ele>
        <time>2013-03-10T10:24:01Z</time>
      </trkpt>
      <trkpt lat="59.9387041" lon="17.6517232">
        <ele>24.1703</ele>
        <time>2013-03-10T10:24:02Z</time>
      </trkpt>
      <trkpt lat="59.9386939" lon="17.6516987">
        <ele>24.651</ele>
        <time>2013-03-10T10:24:03Z</time>
      </trkpt>
      <trkpt lat="59.9386837" lon="17.6516786">
        <ele>24.651</ele>
        <time>2013-03-10T10:24:04Z</time>
      </trkpt>
      <trkpt lat="59.9386743" lon="17.6516551">
        <ele>24.651</ele>
        <time>2013-03-10T10:24:05Z</time>
      </trkpt>
      <trkpt lat="59.9386654" lon="17.6516303">
        <ele>24.651</ele>
        <time>2013-03-10T10:24:06Z</time>
      </trkpt>
      <trkpt lat="59.9386572" lon="17.651609">
        <ele>24.1703</ele>
        <time>2013-03-10T10:24:07Z</time>
      </trkpt>
      <trkpt lat="59.9386483" lon="17.6515851">
        <ele>24.1703</ele>
        <time>2013-03-10T10:24:08Z</time>
      </trkpt>
      <trkpt lat="59.9386401" lon="17.651564">
        <ele>24.1703</ele>
        <time>2013-03-10T10:24:09Z</time>
      </trkpt>
      <trkpt lat="59.9386323" lon="17.6515429">
        <ele>24.1703</ele>
        <time>2013-03-10T10:24:10Z</time>
      </trkpt>
      <trkpt lat="59.9386249" lon="17.651524">
        <ele>24.1703</ele>
        <time>2013-03-10T10:24:11Z</time>
      </trkpt>
      <trkpt lat="59.9386179" lon="17.651505">
        <ele>24.1703</ele>
        <time>2013-03-10T10:24:12Z</time>
      </trkpt>
      <trkpt lat="59.9386106" lon="17.6514858">
        <ele>24.1703</ele>
        <time>2013-03-10T10:24:13Z</time>
      </trkpt>
      <trkpt lat="59.9386023" lon="17.651469">
        <ele>24.651</ele>
        <time>2013-03-10T10:24:14Z</time>
      </trkpt>
      <trkpt lat="59.9385945" lon="17.6514511">
        <ele>24.651</ele>
        <time>2013-03-10T10:24:15Z</time>
      </trkpt>
      <trkpt lat="59.9385868" lon="17.6514305">
        <ele>24.651</ele>
        <time>2013-03-10T10:24:16Z</time>
      </trkpt>
      <trkpt lat="59.9385784" lon="17.6514076">
        <ele>25.1317</ele>
        <time>2013-03-10T10:24:17Z</time>
      </trkpt>
      <trkpt lat="59.9385696" lon="17.6513851">
        <ele>25.6123</ele>
        <time>2013-03-10T10:24:18Z</time>
      </trkpt>
      <trkpt lat="59.9385617" lon="17.6513644">
        <ele>25.6123</ele>
        <time>2013-03-10T10:24:19Z</time>
      </trkpt>
      <trkpt lat="59.9385539" lon="17.6513434">
        <ele>26.0929</ele>
        <time>2013-03-10T10:24:20Z</time>
      </trkpt>
      <trkpt lat="59.9385456" lon="17.6513225">
        <ele>26.0929</ele>
        <time>2013-03-10T10:24:21Z</time>
      </trkpt>
      <trkpt lat="59.9385374" lon="17.6513013">
        <ele>26.5736</ele>
        <time>2013-03-10T10:24:22Z</time>
      </trkpt>
      <trkpt lat="59.9385295" lon="17.6512787">
        <ele>26.5736</ele>
        <time>2013-03-10T10:24:23Z</time>
      </trkpt>
      <trkpt lat="59.938521" lon="17.6512559">
        <ele>27.0543</ele>
        <time>2013-03-10T10:24:24Z</time>
      </trkpt>
      <trkpt lat="59.9385128" lon="17.6512342">
        <ele>27.0543</ele>
        <time>2013-03-10T10:24:25Z</time>
      </trkpt>
      <trkpt lat="59.9385048" lon="17.6512128">
        <ele>27.0543</ele>
        <time>2013-03-10T10:24:26Z</time>
      </trkpt>
      <trkpt lat="59.9384962" lon="17.65119">
        <ele>27.5349</ele>
        <time>2013-03-10T10:24:27Z</time>
      </trkpt>
      <trkpt lat="59.9384904" lon="17.6511652">
        <ele>27.5349</ele>
        <time>2013-03-10T10:24:28Z</time>
      </trkpt>
      <trkpt lat="59.9384846" lon="17.6511378">
        <ele>27.5349</ele>
        <time>2013-03-10T10:24:29Z</time>
      </trkpt>
      <trkpt lat="59.9384774" lon="17.6511127">
        <ele>27.5349</ele>
        <time>2013-03-10T10:24:30Z</time>
      </trkpt>
      <trkpt lat="59.9384698" lon="17.6510874">
        <ele>27.5349</ele>
        <time>2013-03-10T10:24:31Z</time>
      </trkpt>
      <trkpt lat="59.9384609" lon="17.6510645">
        <ele>27.5349</ele>
        <time>2013-03-10T10:24:32Z</time>
      </trkpt>
      <trkpt lat="59.9384521" lon="17.651044">
        <ele>27.5349</ele>
        <time>2013-03-10T10:24:33Z</time>
      </trkpt>
      <trkpt lat="59.9384446" lon="17.6510234">
        <ele>27.5349</ele>
        <time>2013-03-10T10:24:34Z</time>
      </trkpt>
      <trkpt lat="59.9384366" lon="17.6510065">
        <ele>27.5349</ele>
        <time>2013-03-10T10:24:35Z</time>
      </trkpt>
      <trkpt lat="59.9384291" lon="17.6509878">
        <ele>27.5349</ele>
        <time>2013-03-10T10:24:36Z</time>
      </trkpt>
      <trkpt lat="59.9384199" lon="17.6509689">
        <ele>27.5349</ele>
        <time>2013-03-10T10:24:37Z</time>
      </trkpt>
      <trkpt lat="59.9384097" lon="17.6509523">
        <ele>27.5349</ele>
        <time>2013-03-10T10:24:38Z</time>
      </trkpt>
      <trkpt lat="59.9383987" lon="17.6509347">
        <ele>27.5349</ele>
        <time>2013-03-10T10:24:39Z</time>
      </trkpt>
      <trkpt lat="59.9383881" lon="17.650916">
        <ele>27.5349</ele>
        <time>2013-03-10T10:24:40Z</time>
      </trkpt>
      <trkpt lat="59.938379" lon="17.6508969">
        <ele>27.5349</ele>
        <time>2013-03-10T10:24:41Z</time>
      </trkpt>
      <trkpt lat="59.9383697" lon="17.6508793">
        <ele>28.0155</ele>
        <time>2013-03-10T10:24:42Z</time>
      </trkpt>
      <trkpt lat="59.9383597" lon="17.6508637">
        <ele>27.5349</ele>
        <time>2013-03-10T10:24:43Z</time>
      </trkpt>
      <trkpt lat="59.9383526" lon="17.6508435">
        <ele>28.0155</ele>
        <time>2013-03-10T10:24:44Z</time>
      </trkpt>
      <trkpt lat="59.9383462" lon="17.6508223">
        <ele>28.0155</ele>
        <time>2013-03-10T10:24:45Z</time>
      </trkpt>
      <trkpt lat="59.9383384" lon="17.6507989">
        <ele>28.0155</ele>
        <time>2013-03-10T10:24:46Z</time>
      </trkpt>
      <trkpt lat="59.9383306" lon="17.6507768">
        <ele>28.0155</ele>
        <time>2013-03-10T10:24:47Z</time>
      </trkpt>
      <trkpt lat="59.9383251" lon="17.6507524">
        <ele>28.0155</ele>
        <time>2013-03-10T10:24:48Z</time>
      </trkpt>
      <trkpt lat="59.9383185" lon="17.6507315">
        <ele>27.5349</ele>
        <time>2013-03-10T10:24:49Z</time>
      </trkpt>
      <trkpt lat="59.9383111" lon="17.6507104">
        <ele>27.5349</ele>
        <time>2013-03-10T10:24:50Z</time>
      </trkpt>
      <trkpt lat="59.9383016" lon="17.6506941">
        <ele>27.5349</ele>
        <time>2013-03-10T10:24:51Z</time>
      </trkpt>
      <trkpt lat="59.9382909" lon="17.6506747">
        <ele>27.5349</ele>
        <time>2013-03-10T10:24:52Z</time>
      </trkpt>
      <trkpt lat="59.9382826" lon="17.6506576">
        <ele>27.5349</ele>
        <time>2013-03-10T10:24:53Z</time>
      </trkpt>
      <trkpt lat="59.9382718" lon="17.6506414">
        <ele>27.0543</ele>
        <time>2013-03-10T10:24:54Z</time>
      </trkpt>
      <trkpt lat="59.938261" lon="17.6506238">
        <ele>27.0543</ele>
        <time>2013-03-10T10:24:55Z</time>
      </trkpt>
      <trkpt lat="59.9382525" lon="17.6506035">
        <ele>27.0543</ele>
        <time>2013-03-10T10:24:56Z</time>
      </trkpt>
      <trkpt lat="59.9382432" lon="17.6505829">
        <ele>27.0543</ele>
        <time>2013-03-10T10:24:57Z</time>
      </trkpt>
      <trkpt lat="59.9382354" lon="17.6505633">
        <ele>26.5736</ele>
        <time>2013-03-10T10:24:58Z</time>
      </trkpt>
      <trkpt lat="59.9382272" lon="17.6505431">
        <ele>26.5736</ele>
        <time>2013-03-10T10:24:59Z</time>
      </trkpt>
      <trkpt lat="59.9382159" lon="17.6505229">
        <ele>27.0543</ele>
        <time>2013-03-10T10:25:00Z</time>
      </trkpt>
      <trkpt lat="59.9382066" lon="17.6504991">
        <ele>27.0543</ele>
        <time>2013-03-10T10:25:01Z</time>
      </trkpt>
      <trkpt lat="59.9381998" lon="17.6504773">
        <ele>27.0543</ele>
        <time>2013-03-10T10:25:02Z</time>
      </trkpt>
      <trkpt lat="59.9381929" lon="17.6504582">
        <ele>27.5349</ele>
        <time>2013-03-10T10:25:03Z</time>
      </trkpt>
      <trkpt lat="59.9381837" lon="17.6504418">
        <ele>27.0543</ele>
        <time>2013-03-10T10:25:04Z</time>
      </trkpt>
      <trkpt lat="59.9381764" lon="17.6504218">
        <ele>27.0543</ele>
        <time>2013-03-10T10:25:05Z</time>
      </trkpt>
      <trkpt lat="59.9381695" lon="17.6504009">
        <ele>27.0543</ele>
        <time>2013-03-10T10:25:06Z</time>
      </trkpt>
      <trkpt lat="59.9381634" lon="17.6503774">
        <ele>27.5349</ele>
        <time>2013-03-10T10:25:07Z</time>
      </trkpt>
      <trkpt lat="59.9381547" lon="17.6503566">
        <ele>27.5349</ele>
        <time>2013-03-10T10:25:08Z</time>
      </trkpt>
      <trkpt lat="59.9381459" lon="17.6503353">
        <ele>27.5349</ele>
        <time>2013-03-10T10:25:09Z</time>
      </trkpt>
      <trkpt lat="59.9381381" lon="17.6503125">
        <ele>27.5349</ele>
        <time>2013-03-10T10:25:10Z</time>
      </trkpt>
      <trkpt lat="59.9381301" lon="17.6502892">
        <ele>27.5349</ele>
        <time>2013-03-10T10:25:11Z</time>
      </trkpt>
      <trkpt lat="59.9381219" lon="17.6502624">
        <ele>28.0155</ele>
        <time>2013-03-10T10:25:12Z</time>
      </trkpt>
      <trkpt lat="59.9381122" lon="17.6502379">
        <ele>28.0155</ele>
        <time>2013-03-10T10:25:13Z</time>
      </trkpt>
      <trkpt lat="59.9381015" lon="17.6502166">
        <ele>28.4962</ele>
        <time>2013-03-10T10:25:14Z</time>
      </trkpt>
      <trkpt lat="59.938092" lon="17.6501935">
        <ele>28.4962</ele>
        <time>2013-03-10T10:25:15Z</time>
      </trkpt>
      <trkpt lat="59.9380843" lon="17.6501671">
        <ele>28.4962</ele>
        <time>2013-03-10T10:25:16Z</time>
      </trkpt>
      <trkpt lat="59.9380766" lon="17.6501425">
        <ele>28.9769</ele>
        <time>2013-03-10T10:25:17Z</time>
      </trkpt>
      <trkpt lat="59.9380687" lon="17.6501182">
        <ele>28.9769</ele>
        <time>2013-03-10T10:25:18Z</time>
      </trkpt>
      <trkpt lat="59.938061" lon="17.6500935">
        <ele>28.9769</ele>
        <time>2013-03-10T10:25:19Z</time>
      </trkpt>
      <trkpt lat="59.9380531" lon="17.65007">
        <ele>28.9769</ele>
        <time>2013-03-10T10:25:20Z</time>
      </trkpt>
      <trkpt lat="59.9380444" lon="17.6500453">
        <ele>28.9769</ele>
        <time>2013-03-10T10:25:21Z</time>
      </trkpt>
      <trkpt lat="59.9380366" lon="17.6500214">
        <ele>28.9769</ele>
        <time>2013-03-10T10:25:22Z</time>
      </trkpt>
      <trkpt lat="59.9380279" lon="17.6500005">
        <ele>29.4575</ele>
        <time>2013-03-10T10:25:23Z</time>
      </trkpt>
      <trkpt lat="59.9380185" lon="17.6499788">
        <ele>29.4575</ele>
        <time>2013-03-10T10:25:24Z</time>
      </trkpt>
      <trkpt lat="59.9380097" lon="17.6499566">
        <ele>29.4575</ele>
        <time>2013-03-10T10:25:25Z</time>
      </trkpt>
      <trkpt lat="59.9380012" lon="17.6499337">
        <ele>29.4575</ele>
        <time>2013-03-10T10:25:26Z</time>
      </trkpt>
      <trkpt lat="59.937993" lon="17.6499116">
        <ele>29.4575</ele>
        <time>2013-03-10T10:25:27Z</time>
      </trkpt>
      <trkpt lat="59.9379838" lon="17.6498899">
        <ele>29.9381</ele>
        <time>2013-03-10T10:25:28Z</time>
      </trkpt>
      <trkpt lat="59.9379753" lon="17.6498705">
        <ele>29.9381</ele>
        <time>2013-03-10T10:25:29Z</time>
      </trkpt>
      <trkpt lat="59.9379656" lon="17.6498519">
        <ele>29.9381</ele>
        <time>2013-03-10T10:25:30Z</time>
      </trkpt>
      <trkpt lat="59.9379561" lon="17.6498334">
        <ele>29.9381</ele>
        <time>2013-03-10T10:25:31Z</time>
      </trkpt>
      <trkpt lat="59.9379485" lon="17.6498132">
        <ele>30.4188</ele>
        <time>2013-03-10T10:25:32Z</time>
      </trkpt>
      <trkpt lat="59.9379406" lon="17.6497929">
        <ele>29.9381</ele>
        <time>2013-03-10T10:25:33Z</time>
      </trkpt>
      <trkpt lat="59.9379331" lon="17.6497727">
        <ele>29.9381</ele>
        <time>2013-03-10T10:25:34Z</time>
      </trkpt>
      <trkpt lat="59.9379243" lon="17.6497539">
        <ele>29.9381</ele>
        <time>2013-03-10T10:25:35Z</time>
      </trkpt>
      <trkpt lat="59.9379154" lon="17.6497339">
        <ele>29.9381</ele>
        <time>2013-03-10T10:25:36Z</time>
      </trkpt>
      <trkpt lat="59.9379055" lon="17.6497132">
        <ele>29.9381</ele>
        <time>2013-03-10T10:25:37Z</time>
      </trkpt>
      <trkpt lat="59.9378962" lon="17.6496946">
        <ele>29.9381</ele>
        <time>2013-03-10T10:25:38Z</time>
      </trkpt>
      <trkpt lat="59.9378886" lon="17.6496755">
        <ele>29.9381</ele>
        <time>2013-03-10T10:25:39Z</time>
      </trkpt>
      <trkpt lat="59.9378834" lon="17.6496516">
        <ele>29.9381</ele>
        <time>2013-03-10T10:25:40Z</time>
      </trkpt>
      <trkpt lat="59.9378784" lon="17.649627">
        <ele>29.9381</ele>
        <time>2013-03-10T10:25:41Z</time>
      </trkpt>
      <trkpt lat="59.937873" lon="17.6496029">
        <ele>29.4575</ele>
        <time>2013-03-10T10:25:42Z</time>
      </trkpt>
      <trkpt lat="59.9378682" lon="17.6495788">
        <ele>28.9769</ele>
        <time>2013-03-10T10:25:43Z</time>
      </trkpt>
      <trkpt lat="59.937861" lon="17.6495567">
        <ele>28.9769</ele>
        <time>2013-03-10T10:25:44Z</time>
      </trkpt>
      <trkpt lat="59.9378515" lon="17.6495354">
        <ele>28.9769</ele>
        <time>2013-03-10T10:25:45Z</time>
      </trkpt>
      <trkpt lat="59.9378409" lon="17.6495169">
        <ele>28.9769</ele>
        <time>2013-03-10T10:25:46Z</time>
      </trkpt>
      <trkpt lat="59.9378313" lon="17.6494993">
        <ele>28.9769</ele>
        <time>2013-03-10T10:25:47Z</time>
      </trkpt>
      <trkpt lat="59.9378263" lon="17.6494739">
        <ele>28.9769</ele>
        <time>2013-03-10T10:25:48Z</time>
      </trkpt>
      <trkpt lat="59.9378225" lon="17.6494464">
        <ele>28.9769</ele>
        <time>2013-03-10T10:25:49Z</time>
      </trkpt>
      <trkpt lat="59.9378183" lon="17.649419">
        <ele>28.4962</ele>
        <time>2013-03-10T10:25:50Z</time>
      </trkpt>
      <trkpt lat="59.9378133" lon="17.6493946">
        <ele>28.9769</ele>
        <time>2013-03-10T10:25:51Z</time>
      </trkpt>
      <trkpt lat="59.9378076" lon="17.6493761">
        <ele>28.9769</ele>
        <time>2013-03-10T10:25:52Z</time>
      </trkpt>
      <trkpt lat="59.9378009" lon="17.6493573">
        <ele>28.9769</ele>
        <time>2013-03-10T10:25:53Z</time>
      </trkpt>
      <trkpt lat="59.9377931" lon="17.6493366">
        <ele>28.9769</ele>
        <time>2013-03-10T10:25:54Z</time>
      </trkpt>
      <trkpt lat="59.9377838" lon="17.6493141">
        <ele>29.4575</ele>
        <time>2013-03-10T10:25:55Z</time>
      </trkpt>
      <trkpt lat="59.9377739" lon="17.6492929">
        <ele>29.4575</ele>
        <time>2013-03-10T10:25:56Z</time>
      </trkpt>
      <trkpt lat="59.9377622" lon="17.6492738">
        <ele>29.4575</ele>
        <time>2013-03-10T10:25:57Z</time>
      </trkpt>
      <trkpt lat="59.9377496" lon="17.6492571">
        <ele>29.9381</ele>
        <time>2013-03-10T10:25:58Z</time>
      </trkpt>
      <trkpt lat="59.9377375" lon="17.6492376">
        <ele>29.9381</ele>
        <time>2013-03-10T10:25:59Z</time>
      </trkpt>
      <trkpt lat="59.9377263" lon="17.6492181">
        <ele>30.4188</ele>
        <time>2013-03-10T10:26:00Z</time>
      </trkpt>
      <trkpt lat="59.9377159" lon="17.6492022">
        <ele>30.4188</ele>
        <time>2013-03-10T10:26:01Z</time>
      </trkpt>
      <trkpt lat="59.9377051" lon="17.6491854">
        <ele>30.8995</ele>
        <time>2013-03-10T10:26:02Z</time>
      </trkpt>
      <trkpt lat="59.9376932" lon="17.6491667">
        <ele>30.8995</ele>
        <time>2013-03-10T10:26:03Z</time>
      </trkpt>
      <trkpt lat="59.9376812" lon="17.6491506">
        <ele>31.3801</ele>
        <time>2013-03-10T10:26:04Z</time>
      </trkpt>
      <trkpt lat="59.9376705" lon="17.6491324">
        <ele>31.3801</ele>
        <time>2013-03-10T10:26:05Z</time>
      </trkpt>
      <trkpt lat="59.9376585" lon="17.6491144">
        <ele>31.8607</ele>
        <time>2013-03-10T10:26:06Z</time>
      </trkpt>
      <trkpt lat="59.9376469" lon="17.6490955">
        <ele>31.8607</ele>
        <time>2013-03-10T10:26:07Z</time>
      </trkpt>
      <trkpt lat="59.937636" lon="17.6490776">
        <ele>32.3416</ele>
        <time>2013-03-10T10:26:08Z</time>
      </trkpt>
      <trkpt lat="59.9376249" lon="17.6490611">
        <ele>32.3416</ele>
        <time>2013-03-10T10:26:09Z</time>
      </trkpt>
      <trkpt lat="59.9376139" lon="17.6490449">
        <ele>32.3416</ele>
        <time>2013-03-10T10:26:10Z</time>
      </trkpt>
      <trkpt lat="59.9376015" lon="17.6490285">
        <ele>32.8223</ele>
        <time>2013-03-10T10:26:11Z</time>
      </trkpt>
      <trkpt lat="59.9375917" lon="17.6490086">
        <ele>32.8223</ele>
        <time>2013-03-10T10:26:12Z</time>
      </trkpt>
      <trkpt lat="59.9375821" lon="17.648988">
        <ele>33.3029</ele>
        <time>2013-03-10T10:26:13Z</time>
      </trkpt>
      <trkpt lat="59.9375703" lon="17.648966">
        <ele>33.7834</ele>
        <time>2013-03-10T10:26:14Z</time>
      </trkpt>
      <trkpt lat="59.9375637" lon="17.6489386">
        <ele>34.2642</ele>
        <time>2013-03-10T10:26:15Z</time>
      </trkpt>
      <trkpt lat="59.9375622" lon="17.6489101">
        <ele>34.7449</ele>
        <time>2013-03-10T10:26:16Z</time>
      </trkpt>
      <trkpt lat="59.9375604" lon="17.6488826">
        <ele>34.7449</ele>
        <time>2013-03-10T10:26:17Z</time>
      </trkpt>
      <trkpt lat="59.937557" lon="17.6488526">
        <ele>34.7449</ele>
        <time>2013-03-10T10:26:18Z</time>
      </trkpt>
      <trkpt lat="59.9375528" lon="17.6488252">
        <ele>35.2255</ele>
        <time>2013-03-10T10:26:19Z</time>
      </trkpt>
      <trkpt lat="59.9375481" lon="17.6487979">
        <ele>35.2255</ele>
        <time>2013-03-10T10:26:20Z</time>
      </trkpt>
      <trkpt lat="59.9375427" lon="17.6487702">
        <ele>35.7061</ele>
        <time>2013-03-10T10:26:21Z</time>
      </trkpt>
      <trkpt lat="59.9375366" lon="17.6487404">
        <ele>35.7061</ele>
        <time>2013-03-10T10:26:22Z</time>
      </trkpt>
      <trkpt lat="59.9375284" lon="17.6487146">
        <ele>35.7061</ele>
        <time>2013-03-10T10:26:23Z</time>
      </trkpt>
      <trkpt lat="59.9375196" lon="17.6486892">
        <ele>35.7061</ele>
        <time>2013-03-10T10:26:24Z</time>
      </trkpt>
      <trkpt lat="59.9375108" lon="17.6486653">
        <ele>35.7061</ele>
        <time>2013-03-10T10:26:25Z</time>
      </trkpt>
      <trkpt lat="59.9375009" lon="17.6486439">
        <ele>35.7061</ele>
        <time>2013-03-10T10:26:26Z</time>
      </trkpt>
      <trkpt lat="59.9374911" lon="17.6486228">
        <ele>35.7061</ele>
        <time>2013-03-10T10:26:27Z</time>
      </trkpt>
      <trkpt lat="59.9374809" lon="17.6486015">
        <ele>35.7061</ele>
        <time>2013-03-10T10:26:28Z</time>
      </trkpt>
      <trkpt lat="59.9374704" lon="17.6485827">
        <ele>35.7061</ele>
        <time>2013-03-10T10:26:29Z</time>
      </trkpt>
      <trkpt lat="59.9374579" lon="17.6485687">
        <ele>35.7061</ele>
        <time>2013-03-10T10:26:30Z</time>
      </trkpt>
      <trkpt lat="59.9374466" lon="17.6485529">
        <ele>36.1868</ele>
        <time>2013-03-10T10:26:31Z</time>
      </trkpt>
      <trkpt lat="59.9374381" lon="17.6485327">
        <ele>35.7061</ele>
        <time>2013-03-10T10:26:32Z</time>
      </trkpt>
      <trkpt lat="59.9374309" lon="17.6485112">
        <ele>35.7061</ele>
        <time>2013-03-10T10:26:33Z</time>
      </trkpt>
      <trkpt lat="59.9374211" lon="17.6484938">
        <ele>35.7061</ele>
        <time>2013-03-10T10:26:34Z</time>
      </trkpt>
      <trkpt lat="59.9374102" lon="17.6484787">
        <ele>35.7061</ele>
        <time>2013-03-10T10:26:35Z</time>
      </trkpt>
      <trkpt lat="59.9373982" lon="17.6484656">
        <ele>35.7061</ele>
        <time>2013-03-10T10:26:36Z</time>
      </trkpt>
      <trkpt lat="59.9373871" lon="17.6484501">
        <ele>35.2255</ele>
        <time>2013-03-10T10:26:37Z</time>
      </trkpt>
      <trkpt lat="59.9373761" lon="17.6484352">
        <ele>35.2255</ele>
        <time>2013-03-10T10:26:38Z</time>
      </trkpt>
      <trkpt lat="59.9373643" lon="17.6484218">
        <ele>35.2255</ele>
        <time>2013-03-10T10:26:39Z</time>
      </trkpt>
      <trkpt lat="59.9373526" lon="17.6484087">
        <ele>35.2255</ele>
        <time>2013-03-10T10:26:40Z</time>
      </trkpt>
      <trkpt lat="59.9373404" lon="17.6483965">
        <ele>34.7449</ele>
        <time>2013-03-10T10:26:41Z</time>
      </trkpt>
      <trkpt lat="59.9373277" lon="17.6483843">
        <ele>34.7449</ele>
        <time>2013-03-10T10:26:42Z</time>
      </trkpt>
      <trkpt lat="59.937316" lon="17.648371">
        <ele>34.7449</ele>
        <time>2013-03-10T10:26:43Z</time>
      </trkpt>
      <trkpt lat="59.9373031" lon="17.6483616">
        <ele>34.2642</ele>
        <time>2013-03-10T10:26:44Z</time>
      </trkpt>
      <trkpt lat="59.9372923" lon="17.6483484">
        <ele>34.2642</ele>
        <time>2013-03-10T10:26:45Z</time>
      </trkpt>
      <trkpt lat="59.9372801" lon="17.6483382">
        <ele>34.2642</ele>
        <time>2013-03-10T10:26:46Z</time>
      </trkpt>
      <trkpt lat="59.9372677" lon="17.6483296">
        <ele>34.2642</ele>
        <time>2013-03-10T10:26:47Z</time>
      </trkpt>
      <trkpt lat="59.9372565" lon="17.6483182">
        <ele>34.2642</ele>
        <time>2013-03-10T10:26:48Z</time>
      </trkpt>
      <trkpt lat="59.9372478" lon="17.6483031">
        <ele>34.2642</ele>
        <time>2013-03-10T10:26:49Z</time>
      </trkpt>
      <trkpt lat="59.9372447" lon="17.6482829">
        <ele>34.7449</ele>
        <time>2013-03-10T10:26:50Z</time>
      </trkpt>
      <trkpt lat="59.9372456" lon="17.6482659">
        <ele>34.2642</ele>
        <time>2013-03-10T10:26:51Z</time>
      </trkpt>
      <trkpt lat="59.9372518" lon="17.6482337">
        <ele>34.2642</ele>
        <time>2013-03-10T10:26:52Z</time>
      </trkpt>
      <trkpt lat="59.9372523" lon="17.6481963">
        <ele>34.2642</ele>
        <time>2013-03-10T10:26:53Z</time>
      </trkpt>
      <trkpt lat="59.937247" lon="17.6481737">
        <ele>34.2642</ele>
        <time>2013-03-10T10:26:54Z</time>
      </trkpt>
      <trkpt lat="59.9372412" lon="17.6481565">
        <ele>34.2642</ele>
        <time>2013-03-10T10:26:55Z</time>
      </trkpt>
      <trkpt lat="59.9372371" lon="17.6481359">
        <ele>34.2642</ele>
        <time>2013-03-10T10:26:56Z</time>
      </trkpt>
      <trkpt lat="59.9372324" lon="17.6481115">
        <ele>34.2642</ele>
        <time>2013-03-10T10:26:57Z</time>
      </trkpt>
      <trkpt lat="59.9372264" lon="17.6480907">
        <ele>34.2642</ele>
        <time>2013-03-10T10:26:58Z</time>
      </trkpt>
      <trkpt lat="59.9372181" lon="17.6480737">
        <ele>34.2642</ele>
        <time>2013-03-10T10:26:59Z</time>
      </trkpt>
      <trkpt lat="59.9372071" lon="17.6480659">
        <ele>33.7834</ele>
        <time>2013-03-10T10:27:00Z</time>
      </trkpt>
      <trkpt lat="59.9371942" lon="17.6480565">
        <ele>33.7834</ele>
        <time>2013-03-10T10:27:01Z</time>
      </trkpt>
      <trkpt lat="59.9371813" lon="17.6480443">
        <ele>33.7834</ele>
        <time>2013-03-10T10:27:02Z</time>
      </trkpt>
      <trkpt lat="59.9371689" lon="17.6480311">
        <ele>34.2642</ele>
        <time>2013-03-10T10:27:03Z</time>
      </trkpt>
      <trkpt lat="59.9371569" lon="17.6480172">
        <ele>34.2642</ele>
        <time>2013-03-10T10:27:04Z</time>
      </trkpt>
      <trkpt lat="59.9371449" lon="17.6480028">
        <ele>34.2642</ele>
        <time>2013-03-10T10:27:05Z</time>
      </trkpt>
      <trkpt lat="59.9371353" lon="17.6479892">
        <ele>34.2642</ele>
        <time>2013-03-10T10:27:06Z</time>
      </trkpt>
      <trkpt lat="59.9371244" lon="17.6479785">
        <ele>33.7834</ele>
        <time>2013-03-10T10:27:07Z</time>
      </trkpt>
      <trkpt lat="59.9371124" lon="17.6479689">
        <ele>33.7834</ele>
        <time>2013-03-10T10:27:08Z</time>
      </trkpt>
      <trkpt lat="59.9371003" lon="17.6479581">
        <ele>33.7834</ele>
        <time>2013-03-10T10:27:09Z</time>
      </trkpt>
      <trkpt lat="59.9370887" lon="17.6479478">
        <ele>33.7834</ele>
        <time>2013-03-10T10:27:10Z</time>
      </trkpt>
      <trkpt lat="59.9370776" lon="17.6479367">
        <ele>33.3029</ele>
        <time>2013-03-10T10:27:11Z</time>
      </trkpt>
      <trkpt lat="59.9370663" lon="17.6479256">
        <ele>33.3029</ele>
        <time>2013-03-10T10:27:12Z</time>
      </trkpt>
      <trkpt lat="59.937054" lon="17.6479142">
        <ele>33.3029</ele>
        <time>2013-03-10T10:27:13Z</time>
      </trkpt>
      <trkpt lat="59.9370415" lon="17.6479018">
        <ele>33.3029</ele>
        <time>2013-03-10T10:27:14Z</time>
      </trkpt>
      <trkpt lat="59.9370281" lon="17.6478903">
        <ele>33.3029</ele>
        <time>2013-03-10T10:27:15Z</time>
      </trkpt>
      <trkpt lat="59.937015" lon="17.6478789">
        <ele>33.3029</ele>
        <time>2013-03-10T10:27:16Z</time>
      </trkpt>
      <trkpt lat="59.9370007" lon="17.6478678">
        <ele>33.7834</ele>
        <time>2013-03-10T10:27:17Z</time>
      </trkpt>
      <trkpt lat="59.9369871" lon="17.6478561">
        <ele>33.7834</ele>
        <time>2013-03-10T10:27:18Z</time>
      </trkpt>
      <trkpt lat="59.9369746" lon="17.6478412">
        <ele>33.7834</ele>
        <time>2013-03-10T10:27:19Z</time>
      </trkpt>
      <trkpt lat="59.9369631" lon="17.6478261">
        <ele>33.7834</ele>
        <time>2013-03-10T10:27:20Z</time>
      </trkpt>
      <trkpt lat="59.9369514" lon="17.6478121">
        <ele>33.3029</ele>
        <time>2013-03-10T10:27:21Z</time>
      </trkpt>
      <trkpt lat="59.9369398" lon="17.6477966">
        <ele>33.3029</ele>
        <time>2013-03-10T10:27:22Z</time>
      </trkpt>
      <trkpt lat="59.9369295" lon="17.6477813">
        <ele>33.3029</ele>
        <time>2013-03-10T10:27:23Z</time>
      </trkpt>
      <trkpt lat="59.9369193" lon="17.6477679">
        <ele>33.3029</ele>
        <time>2013-03-10T10:27:24Z</time>
      </trkpt>
      <trkpt lat="59.9369068" lon="17.6477555">
        <ele>33.3029</ele>
        <time>2013-03-10T10:27:25Z</time>
      </trkpt>
      <trkpt lat="59.9368937" lon="17.6477432">
        <ele>33.3029</ele>
        <time>2013-03-10T10:27:26Z</time>
      </trkpt>
      <trkpt lat="59.936881" lon="17.6477318">
        <ele>33.3029</ele>
        <time>2013-03-10T10:27:27Z</time>
      </trkpt>
      <trkpt lat="59.9368691" lon="17.6477189">
        <ele>33.3029</ele>
        <time>2013-03-10T10:27:28Z</time>
      </trkpt>
      <trkpt lat="59.936858" lon="17.6477044">
        <ele>33.3029</ele>
        <time>2013-03-10T10:27:29Z</time>
      </trkpt>
      <trkpt lat="59.936847" lon="17.64769">
        <ele>32.8223</ele>
        <time>2013-03-10T10:27:30Z</time>
      </trkpt>
      <trkpt lat="59.9368358" lon="17.6476736">
        <ele>32.8223</ele>
        <time>2013-03-10T10:27:31Z</time>
      </trkpt>
      <trkpt lat="59.9368242" lon="17.647658">
        <ele>32.8223</ele>
        <time>2013-03-10T10:27:32Z</time>
      </trkpt>
      <trkpt lat="59.9368137" lon="17.6476437">
        <ele>32.8223</ele>
        <time>2013-03-10T10:27:33Z</time>
      </trkpt>
      <trkpt lat="59.9368027" lon="17.6476282">
        <ele>32.8223</ele>
        <time>2013-03-10T10:27:34Z</time>
      </trkpt>
      <trkpt lat="59.9367922" lon="17.6476132">
        <ele>32.3416</ele>
        <time>2013-03-10T10:27:35Z</time>
      </trkpt>
      <trkpt lat="59.9367809" lon="17.647599">
        <ele>32.3416</ele>
        <time>2013-03-10T10:27:36Z</time>
      </trkpt>
      <trkpt lat="59.93677" lon="17.6475835">
        <ele>32.3416</ele>
        <time>2013-03-10T10:27:37Z</time>
      </trkpt>
      <trkpt lat="59.936759" lon="17.6475669">
        <ele>32.3416</ele>
        <time>2013-03-10T10:27:38Z</time>
      </trkpt>
      <trkpt lat="59.9367471" lon="17.6475526">
        <ele>32.3416</ele>
        <time>2013-03-10T10:27:39Z</time>
      </trkpt>
      <trkpt lat="59.9367347" lon="17.6475403">
        <ele>32.3416</ele>
        <time>2013-03-10T10:27:40Z</time>
      </trkpt>
      <trkpt lat="59.9367223" lon="17.6475276">
        <ele>32.8223</ele>
        <time>2013-03-10T10:27:41Z</time>
      </trkpt>
      <trkpt lat="59.9367116" lon="17.6475116">
        <ele>32.8223</ele>
        <time>2013-03-10T10:27:42Z</time>
      </trkpt>
      <trkpt lat="59.936698" lon="17.6475001">
        <ele>32.8223</ele>
        <time>2013-03-10T10:27:43Z</time>
      </trkpt>
      <trkpt lat="59.9366861" lon="17.6474857">
        <ele>32.8223</ele>
        <time>2013-03-10T10:27:44Z</time>
      </trkpt>
      <trkpt lat="59.9366751" lon="17.6474723">
        <ele>32.8223</ele>
        <time>2013-03-10T10:27:45Z</time>
      </trkpt>
      <trkpt lat="59.9366653" lon="17.6474593">
        <ele>32.8223</ele>
        <time>2013-03-10T10:27:46Z</time>
      </trkpt>
      <trkpt lat="59.9366551" lon="17.6474447">
        <ele>32.8223</ele>
        <time>2013-03-10T10:27:47Z</time>
      </trkpt>
      <trkpt lat="59.9366452" lon="17.6474281">
        <ele>32.8223</ele>
        <time>2013-03-10T10:27:48Z</time>
      </trkpt>
      <trkpt lat="59.9366343" lon="17.6474104">
        <ele>32.8223</ele>
        <time>2013-03-10T10:27:49Z</time>
      </trkpt>
      <trkpt lat="59.9366249" lon="17.6473954">
        <ele>32.8223</ele>
        <time>2013-03-10T10:27:50Z</time>
      </trkpt>
      <trkpt lat="59.9366142" lon="17.6473811">
        <ele>32.8223</ele>
        <time>2013-03-10T10:27:51Z</time>
      </trkpt>
      <trkpt lat="59.9366049" lon="17.6473655">
        <ele>32.3416</ele>
        <time>2013-03-10T10:27:52Z</time>
      </trkpt>
      <trkpt lat="59.9365956" lon="17.6473495">
        <ele>32.3416</ele>
        <time>2013-03-10T10:27:53Z</time>
      </trkpt>
      <trkpt lat="59.9365841" lon="17.6473345">
        <ele>32.3416</ele>
        <time>2013-03-10T10:27:54Z</time>
      </trkpt>
      <trkpt lat="59.936573" lon="17.6473175">
        <ele>32.3416</ele>
        <time>2013-03-10T10:27:55Z</time>
      </trkpt>
      <trkpt lat="59.9365618" lon="17.647302">
        <ele>32.3416</ele>
        <time>2013-03-10T10:27:56Z</time>
      </trkpt>
      <trkpt lat="59.9365495" lon="17.6472874">
        <ele>32.3416</ele>
        <time>2013-03-10T10:27:57Z</time>
      </trkpt>
      <trkpt lat="59.9365375" lon="17.6472723">
        <ele>32.3416</ele>
        <time>2013-03-10T10:27:58Z</time>
      </trkpt>
      <trkpt lat="59.9365266" lon="17.6472543">
        <ele>32.3416</ele>
        <time>2013-03-10T10:27:59Z</time>
      </trkpt>
      <trkpt lat="59.9365158" lon="17.647236">
        <ele>32.3416</ele>
        <time>2013-03-10T10:28:00Z</time>
      </trkpt>
      <trkpt lat="59.9365048" lon="17.6472214">
        <ele>32.3416</ele>
        <time>2013-03-10T10:28:01Z</time>
      </trkpt>
      <trkpt lat="59.9364929" lon="17.6472069">
        <ele>32.3416</ele>
        <time>2013-03-10T10:28:02Z</time>
      </trkpt>
      <trkpt lat="59.9364813" lon="17.6471915">
        <ele>32.3416</ele>
        <time>2013-03-10T10:28:03Z</time>
      </trkpt>
      <trkpt lat="59.936469" lon="17.6471775">
        <ele>32.3416</ele>
        <time>2013-03-10T10:28:04Z</time>
      </trkpt>
      <trkpt lat="59.9364563" lon="17.6471639">
        <ele>32.8223</ele>
        <time>2013-03-10T10:28:05Z</time>
      </trkpt>
      <trkpt lat="59.9364437" lon="17.64715">
        <ele>32.8223</ele>
        <time>2013-03-10T10:28:06Z</time>
      </trkpt>
      <trkpt lat="59.9364316" lon="17.6471356">
        <ele>32.8223</ele>
        <time>2013-03-10T10:28:07Z</time>
      </trkpt>
      <trkpt lat="59.9364202" lon="17.647121">
        <ele>32.8223</ele>
        <time>2013-03-10T10:28:08Z</time>
      </trkpt>
      <trkpt lat="59.936408" lon="17.6471044">
        <ele>32.8223</ele>
        <time>2013-03-10T10:28:09Z</time>
      </trkpt>
      <trkpt lat="59.9363977" lon="17.6470868">
        <ele>32.8223</ele>
        <time>2013-03-10T10:28:10Z</time>
      </trkpt>
      <trkpt lat="59.9363871" lon="17.6470708">
        <ele>32.8223</ele>
        <time>2013-03-10T10:28:11Z</time>
      </trkpt>
      <trkpt lat="59.9363756" lon="17.6470527">
        <ele>33.3029</ele>
        <time>2013-03-10T10:28:12Z</time>
      </trkpt>
      <trkpt lat="59.9363643" lon="17.6470349">
        <ele>33.3029</ele>
        <time>2013-03-10T10:28:13Z</time>
      </trkpt>
      <trkpt lat="59.9363535" lon="17.6470207">
        <ele>33.3029</ele>
        <time>2013-03-10T10:28:14Z</time>
      </trkpt>
      <trkpt lat="59.9363427" lon="17.6470085">
        <ele>33.3029</ele>
        <time>2013-03-10T10:28:15Z</time>
      </trkpt>
      <trkpt lat="59.9363322" lon="17.6469962">
        <ele>33.3029</ele>
        <time>2013-03-10T10:28:16Z</time>
      </trkpt>
      <trkpt lat="59.9363213" lon="17.6469848">
        <ele>33.3029</ele>
        <time>2013-03-10T10:28:17Z</time>
      </trkpt>
      <trkpt lat="59.9363109" lon="17.646972">
        <ele>33.3029</ele>
        <time>2013-03-10T10:28:18Z</time>
      </trkpt>
      <trkpt lat="59.9362992" lon="17.6469584">
        <ele>33.3029</ele>
        <time>2013-03-10T10:28:19Z</time>
      </trkpt>
      <trkpt lat="59.9362895" lon="17.6469465">
        <ele>33.3029</ele>
        <time>2013-03-10T10:28:20Z</time>
      </trkpt>
      <trkpt lat="59.9362786" lon="17.6469349">
        <ele>33.3029</ele>
        <time>2013-03-10T10:28:21Z</time>
      </trkpt>
      <trkpt lat="59.9362682" lon="17.646924">
        <ele>33.3029</ele>
        <time>2013-03-10T10:28:22Z</time>
      </trkpt>
      <trkpt lat="59.9362567" lon="17.6469116">
        <ele>33.3029</ele>
        <time>2013-03-10T10:28:23Z</time>
      </trkpt>
      <trkpt lat="59.9362458" lon="17.6468978">
        <ele>33.3029</ele>
        <time>2013-03-10T10:28:24Z</time>
      </trkpt>
      <trkpt lat="59.936235" lon="17.6468841">
        <ele>33.3029</ele>
        <time>2013-03-10T10:28:25Z</time>
      </trkpt>
      <trkpt lat="59.9362228" lon="17.6468694">
        <ele>33.3029</ele>
        <time>2013-03-10T10:28:26Z</time>
      </trkpt>
      <trkpt lat="59.9362116" lon="17.6468549">
        <ele>33.3029</ele>
        <time>2013-03-10T10:28:27Z</time>
      </trkpt>
      <trkpt lat="59.9362004" lon="17.6468394">
        <ele>33.3029</ele>
        <time>2013-03-10T10:28:28Z</time>
      </trkpt>
      <trkpt lat="59.9361899" lon="17.6468243">
        <ele>33.3029</ele>
        <time>2013-03-10T10:28:29Z</time>
      </trkpt>
      <trkpt lat="59.9361791" lon="17.6468078">
        <ele>33.3029</ele>
        <time>2013-03-10T10:28:30Z</time>
      </trkpt>
      <trkpt lat="59.9361687" lon="17.6467937">
        <ele>33.3029</ele>
        <time>2013-03-10T10:28:31Z</time>
      </trkpt>
      <trkpt lat="59.9361574" lon="17.6467787">
        <ele>33.3029</ele>
        <time>2013-03-10T10:28:32Z</time>
      </trkpt>
      <trkpt lat="59.9361467" lon="17.6467638">
        <ele>33.3029</ele>
        <time>2013-03-10T10:28:33Z</time>
      </trkpt>
      <trkpt lat="59.9361353" lon="17.6467493">
        <ele>33.3029</ele>
        <time>2013-03-10T10:28:34Z</time>
      </trkpt>
      <trkpt lat="59.9361239" lon="17.6467367">
        <ele>33.3029</ele>
        <time>2013-03-10T10:28:35Z</time>
      </trkpt>
      <trkpt lat="59.9361122" lon="17.646723">
        <ele>33.3029</ele>
        <time>2013-03-10T10:28:36Z</time>
      </trkpt>
      <trkpt lat="59.9361007" lon="17.6467099">
        <ele>33.3029</ele>
        <time>2013-03-10T10:28:37Z</time>
      </trkpt>
      <trkpt lat="59.9360893" lon="17.6466969">
        <ele>33.3029</ele>
        <time>2013-03-10T10:28:38Z</time>
      </trkpt>
      <trkpt lat="59.9360788" lon="17.6466826">
        <ele>33.3029</ele>
        <time>2013-03-10T10:28:39Z</time>
      </trkpt>
      <trkpt lat="59.9360681" lon="17.6466677">
        <ele>33.3029</ele>
        <time>2013-03-10T10:28:40Z</time>
      </trkpt>
      <trkpt lat="59.9360573" lon="17.6466531">
        <ele>33.3029</ele>
        <time>2013-03-10T10:28:41Z</time>
      </trkpt>
      <trkpt lat="59.9360469" lon="17.6466396">
        <ele>33.3029</ele>
        <time>2013-03-10T10:28:42Z</time>
      </trkpt>
      <trkpt lat="59.936035" lon="17.6466269">
        <ele>33.3029</ele>
        <time>2013-03-10T10:28:43Z</time>
      </trkpt>
      <trkpt lat="59.9360222" lon="17.646613">
        <ele>33.7834</ele>
        <time>2013-03-10T10:28:44Z</time>
      </trkpt>
      <trkpt lat="59.9360099" lon="17.6465979">
        <ele>33.7834</ele>
        <time>2013-03-10T10:28:45Z</time>
      </trkpt>
      <trkpt lat="59.9359981" lon="17.6465827">
        <ele>33.7834</ele>
        <time>2013-03-10T10:28:46Z</time>
      </trkpt>
      <trkpt lat="59.9359858" lon="17.6465678">
        <ele>33.7834</ele>
        <time>2013-03-10T10:28:47Z</time>
      </trkpt>
      <trkpt lat="59.9359729" lon="17.6465522">
        <ele>33.7834</ele>
        <time>2013-03-10T10:28:48Z</time>
      </trkpt>
      <trkpt lat="59.9359604" lon="17.6465357">
        <ele>33.7834</ele>
        <time>2013-03-10T10:28:49Z</time>
      </trkpt>
      <trkpt lat="59.9359479" lon="17.6465234">
        <ele>33.7834</ele>
        <time>2013-03-10T10:28:50Z</time>
      </trkpt>
      <trkpt lat="59.9359371" lon="17.6465083">
        <ele>33.7834</ele>
        <time>2013-03-10T10:28:51Z</time>
      </trkpt>
      <trkpt lat="59.935925" lon="17.6464923">
        <ele>33.7834</ele>
        <time>2013-03-10T10:28:52Z</time>
      </trkpt>
      <trkpt lat="59.9359136" lon="17.6464772">
        <ele>33.7834</ele>
        <time>2013-03-10T10:28:53Z</time>
      </trkpt>
      <trkpt lat="59.9359012" lon="17.6464628">
        <ele>33.7834</ele>
        <time>2013-03-10T10:28:54Z</time>
      </trkpt>
      <trkpt lat="59.9358885" lon="17.6464491">
        <ele>34.2642</ele>
        <time>2013-03-10T10:28:55Z</time>
      </trkpt>
      <trkpt lat="59.9358768" lon="17.646435">
        <ele>34.2642</ele>
        <time>2013-03-10T10:28:56Z</time>
      </trkpt>
      <trkpt lat="59.9358656" lon="17.6464193">
        <ele>34.2642</ele>
        <time>2013-03-10T10:28:57Z</time>
      </trkpt>
      <trkpt lat="59.9358545" lon="17.6464037">
        <ele>33.7834</ele>
        <time>2013-03-10T10:28:58Z</time>
      </trkpt>
      <trkpt lat="59.9358437" lon="17.6463887">
        <ele>33.7834</ele>
        <time>2013-03-10T10:28:59Z</time>
      </trkpt>
      <trkpt lat="59.9358333" lon="17.6463737">
        <ele>33.7834</ele>
        <time>2013-03-10T10:29:00Z</time>
      </trkpt>
      <trkpt lat="59.9358226" lon="17.6463581">
        <ele>33.7834</ele>
        <time>2013-03-10T10:29:01Z</time>
      </trkpt>
      <trkpt lat="59.9358111" lon="17.6463423">
        <ele>33.3029</ele>
        <time>2013-03-10T10:29:02Z</time>
      </trkpt>
      <trkpt lat="59.9358002" lon="17.646328">
        <ele>33.3029</ele>
        <time>2013-03-10T10:29:03Z</time>
      </trkpt>
      <trkpt lat="59.9357889" lon="17.6463143">
        <ele>33.3029</ele>
        <time>2013-03-10T10:29:04Z</time>
      </trkpt>
      <trkpt lat="59.9357768" lon="17.6462983">
        <ele>33.3029</ele>
        <time>2013-03-10T10:29:05Z</time>
      </trkpt>
      <trkpt lat="59.935764" lon="17.6462815">
        <ele>33.3029</ele>
        <time>2013-03-10T10:29:06Z</time>
      </trkpt>
      <trkpt lat="59.935752" lon="17.6462659">
        <ele>32.8223</ele>
        <time>2013-03-10T10:29:07Z</time>
      </trkpt>
      <trkpt lat="59.9357434" lon="17.6462503">
        <ele>32.8223</ele>
        <time>2013-03-10T10:29:08Z</time>
      </trkpt>
      <trkpt lat="59.9357325" lon="17.6462342">
        <ele>32.3416</ele>
        <time>2013-03-10T10:29:09Z</time>
      </trkpt>
      <trkpt lat="59.9357194" lon="17.6462178">
        <ele>32.8223</ele>
        <time>2013-03-10T10:29:10Z</time>
      </trkpt>
      <trkpt lat="59.9357087" lon="17.6461991">
        <ele>32.3416</ele>
        <time>2013-03-10T10:29:11Z</time>
      </trkpt>
      <trkpt lat="59.9356986" lon="17.6461799">
        <ele>32.3416</ele>
        <time>2013-03-10T10:29:12Z</time>
      </trkpt>
      <trkpt lat="59.9356862" lon="17.6461639">
        <ele>32.3416</ele>
        <time>2013-03-10T10:29:13Z</time>
      </trkpt>
      <trkpt lat="59.9356706" lon="17.6461534">
        <ele>32.8223</ele>
        <time>2013-03-10T10:29:14Z</time>
      </trkpt>
      <trkpt lat="59.9356566" lon="17.6461413">
        <ele>32.8223</ele>
        <time>2013-03-10T10:29:15Z</time>
      </trkpt>
      <trkpt lat="59.9356429" lon="17.6461291">
        <ele>32.8223</ele>
        <time>2013-03-10T10:29:16Z</time>
      </trkpt>
      <trkpt lat="59.9356305" lon="17.646115">
        <ele>32.8223</ele>
        <time>2013-03-10T10:29:17Z</time>
      </trkpt>
      <trkpt lat="59.9356189" lon="17.6461017">
        <ele>32.8223</ele>
        <time>2013-03-10T10:29:18Z</time>
      </trkpt>
      <trkpt lat="59.9356061" lon="17.6460906">
        <ele>32.8223</ele>
        <time>2013-03-10T10:29:19Z</time>
      </trkpt>
      <trkpt lat="59.9355938" lon="17.6460766">
        <ele>32.8223</ele>
        <time>2013-03-10T10:29:20Z</time>
      </trkpt>
      <trkpt lat="59.9355836" lon="17.646059">
        <ele>32.8223</ele>
        <time>2013-03-10T10:29:21Z</time>
      </trkpt>
      <trkpt lat="59.9355729" lon="17.6460439">
        <ele>32.3416</ele>
        <time>2013-03-10T10:29:22Z</time>
      </trkpt>
      <trkpt lat="59.9355595" lon="17.6460302">
        <ele>32.8223</ele>
        <time>2013-03-10T10:29:23Z</time>
      </trkpt>
      <trkpt lat="59.9355496" lon="17.6460131">
        <ele>32.3416</ele>
        <time>2013-03-10T10:29:24Z</time>
      </trkpt>
      <trkpt lat="59.9355411" lon="17.6459923">
        <ele>32.3416</ele>
        <time>2013-03-10T10:29:25Z</time>
      </trkpt>
      <trkpt lat="59.9355321" lon="17.6459694">
        <ele>32.3416</ele>
        <time>2013-03-10T10:29:26Z</time>
      </trkpt>
      <trkpt lat="59.9355243" lon="17.6459493">
        <ele>32.3416</ele>
        <time>2013-03-10T10:29:27Z</time>
      </trkpt>
      <trkpt lat="59.9355142" lon="17.6459321">
        <ele>31.8607</ele>
        <time>2013-03-10T10:29:28Z</time>
      </trkpt>
      <trkpt lat="59.9355023" lon="17.6459173">
        <ele>31.8607</ele>
        <time>2013-03-10T10:29:29Z</time>
      </trkpt>
      <trkpt lat="59.9354902" lon="17.6459074">
        <ele>31.8607</ele>
        <time>2013-03-10T10:29:30Z</time>
      </trkpt>
      <trkpt lat="59.9354769" lon="17.6459005">
        <ele>31.8607</ele>
        <time>2013-03-10T10:29:31Z</time>
      </trkpt>
      <trkpt lat="59.9354645" lon="17.6458954">
        <ele>31.8607</ele>
        <time>2013-03-10T10:29:32Z</time>
      </trkpt>
      <trkpt lat="59.9354502" lon="17.6458882">
        <ele>31.8607</ele>
        <time>2013-03-10T10:29:33Z</time>
      </trkpt>
      <trkpt lat="59.935436" lon="17.6458799">
        <ele>32.3416</ele>
        <time>2013-03-10T10:29:34Z</time>
      </trkpt>
      <trkpt lat="59.9354222" lon="17.6458696">
        <ele>32.3416</ele>
        <time>2013-03-10T10:29:35Z</time>
      </trkpt>
      <trkpt lat="59.935409" lon="17.6458582">
        <ele>32.3416</ele>
        <time>2013-03-10T10:29:36Z</time>
      </trkpt>
      <trkpt lat="59.9353957" lon="17.6458463">
        <ele>32.3416</ele>
        <time>2013-03-10T10:29:37Z</time>
      </trkpt>
      <trkpt lat="59.9353823" lon="17.645835">
        <ele>32.3416</ele>
        <time>2013-03-10T10:29:38Z</time>
      </trkpt>
      <trkpt lat="59.9353688" lon="17.6458246">
        <ele>32.8223</ele>
        <time>2013-03-10T10:29:39Z</time>
      </trkpt>
      <trkpt lat="59.9353541" lon="17.6458142">
        <ele>32.8223</ele>
        <time>2013-03-10T10:29:40Z</time>
      </trkpt>
      <trkpt lat="59.9353388" lon="17.6458028">
        <ele>32.8223</ele>
        <time>2013-03-10T10:29:41Z</time>
      </trkpt>
      <trkpt lat="59.9353256" lon="17.6457913">
        <ele>33.3029</ele>
        <time>2013-03-10T10:29:42Z</time>
      </trkpt>
      <trkpt lat="59.9353123" lon="17.6457788">
        <ele>33.3029</ele>
        <time>2013-03-10T10:29:43Z</time>
      </trkpt>
      <trkpt lat="59.9352994" lon="17.6457654">
        <ele>33.3029</ele>
        <time>2013-03-10T10:29:44Z</time>
      </trkpt>
      <trkpt lat="59.9352849" lon="17.6457508">
        <ele>33.3029</ele>
        <time>2013-03-10T10:29:45Z</time>
      </trkpt>
      <trkpt lat="59.935273" lon="17.6457375">
        <ele>33.3029</ele>
        <time>2013-03-10T10:29:46Z</time>
      </trkpt>
      <trkpt lat="59.9352616" lon="17.6457239">
        <ele>33.3029</ele>
        <time>2013-03-10T10:29:47Z</time>
      </trkpt>
      <trkpt lat="59.9352501" lon="17.6457095">
        <ele>33.3029</ele>
        <time>2013-03-10T10:29:48Z</time>
      </trkpt>
      <trkpt lat="59.9352403" lon="17.6456908">
        <ele>33.3029</ele>
        <time>2013-03-10T10:29:49Z</time>
      </trkpt>
      <trkpt lat="59.9352283" lon="17.6456757">
        <ele>33.3029</ele>
        <time>2013-03-10T10:29:50Z</time>
      </trkpt>
      <trkpt lat="59.9352144" lon="17.6456634">
        <ele>33.3029</ele>
        <time>2013-03-10T10:29:51Z</time>
      </trkpt>
      <trkpt lat="59.9352009" lon="17.6456505">
        <ele>33.3029</ele>
        <time>2013-03-10T10:29:52Z</time>
      </trkpt>
      <trkpt lat="59.93519" lon="17.645635">
        <ele>33.3029</ele>
        <time>2013-03-10T10:29:53Z</time>
      </trkpt>
      <trkpt lat="59.9351778" lon="17.6456215">
        <ele>33.7834</ele>
        <time>2013-03-10T10:29:54Z</time>
      </trkpt>
      <trkpt lat="59.9351685" lon="17.6456064">
        <ele>33.7834</ele>
        <time>2013-03-10T10:29:55Z</time>
      </trkpt>
      <trkpt lat="59.9351597" lon="17.6455908">
        <ele>33.7834</ele>
        <time>2013-03-10T10:29:56Z</time>
      </trkpt>
      <trkpt lat="59.9351493" lon="17.6455752">
        <ele>33.7834</ele>
        <time>2013-03-10T10:29:57Z</time>
      </trkpt>
      <trkpt lat="59.9351362" lon="17.6455617">
        <ele>33.7834</ele>
        <time>2013-03-10T10:29:58Z</time>
      </trkpt>
      <trkpt lat="59.9351239" lon="17.6455468">
        <ele>33.7834</ele>
        <time>2013-03-10T10:29:59Z</time>
      </trkpt>
      <trkpt lat="59.9351129" lon="17.6455317">
        <ele>33.7834</ele>
        <time>2013-03-10T10:30:00Z</time>
      </trkpt>
      <trkpt lat="59.9351014" lon="17.6455183">
        <ele>33.7834</ele>
        <time>2013-03-10T10:30:01Z</time>
      </trkpt>
      <trkpt lat="59.9350877" lon="17.6455069">
        <ele>34.2642</ele>
        <time>2013-03-10T10:30:02Z</time>
      </trkpt>
      <trkpt lat="59.9350746" lon="17.6454943">
        <ele>34.2642</ele>
        <time>2013-03-10T10:30:03Z</time>
      </trkpt>
      <trkpt lat="59.9350637" lon="17.6454783">
        <ele>34.2642</ele>
        <time>2013-03-10T10:30:04Z</time>
      </trkpt>
      <trkpt lat="59.9350547" lon="17.645463">
        <ele>34.2642</ele>
        <time>2013-03-10T10:30:05Z</time>
      </trkpt>
      <trkpt lat="59.9350457" lon="17.645447">
        <ele>34.2642</ele>
        <time>2013-03-10T10:30:06Z</time>
      </trkpt>
      <trkpt lat="59.9350368" lon="17.645434">
        <ele>34.2642</ele>
        <time>2013-03-10T10:30:07Z</time>
      </trkpt>
      <trkpt lat="59.935029" lon="17.6454179">
        <ele>34.2642</ele>
        <time>2013-03-10T10:30:08Z</time>
      </trkpt>
      <trkpt lat="59.9350197" lon="17.6453997">
        <ele>34.2642</ele>
        <time>2013-03-10T10:30:09Z</time>
      </trkpt>
      <trkpt lat="59.9350091" lon="17.6453812">
        <ele>34.2642</ele>
        <time>2013-03-10T10:30:10Z</time>
      </trkpt>
      <trkpt lat="59.9349995" lon="17.6453656">
        <ele>34.2642</ele>
        <time>2013-03-10T10:30:11Z</time>
      </trkpt>
      <trkpt lat="59.9349859" lon="17.6453552">
        <ele>34.2642</ele>
        <time>2013-03-10T10:30:12Z</time>
      </trkpt>
      <trkpt lat="59.9349698" lon="17.6453453">
        <ele>34.2642</ele>
        <time>2013-03-10T10:30:13Z</time>
      </trkpt>
      <trkpt lat="59.934956" lon="17.6453339">
        <ele>34.2642</ele>
        <time>2013-03-10T10:30:14Z</time>
      </trkpt>
      <trkpt lat="59.9349424" lon="17.6453215">
        <ele>33.7834</ele>
        <time>2013-03-10T10:30:15Z</time>
      </trkpt>
      <trkpt lat="59.934929" lon="17.6453092">
        <ele>33.7834</ele>
        <time>2013-03-10T10:30:16Z</time>
      </trkpt>
      <trkpt lat="59.9349161" lon="17.6452976">
        <ele>33.7834</ele>
        <time>2013-03-10T10:30:17Z</time>
      </trkpt>
      <trkpt lat="59.9349031" lon="17.6452856">
        <ele>33.7834</ele>
        <time>2013-03-10T10:30:18Z</time>
      </trkpt>
      <trkpt lat="59.9348896" lon="17.6452728">
        <ele>34.2642</ele>
        <time>2013-03-10T10:30:19Z</time>
      </trkpt>
      <trkpt lat="59.9348768" lon="17.6452588">
        <ele>34.2642</ele>
        <time>2013-03-10T10:30:20Z</time>
      </trkpt>
      <trkpt lat="59.9348641" lon="17.6452447">
        <ele>34.2642</ele>
        <time>2013-03-10T10:30:21Z</time>
      </trkpt>
      <trkpt lat="59.9348508" lon="17.6452303">
        <ele>34.2642</ele>
        <time>2013-03-10T10:30:22Z</time>
      </trkpt>
      <trkpt lat="59.9348358" lon="17.6452169">
        <ele>34.2642</ele>
        <time>2013-03-10T10:30:23Z</time>
      </trkpt>
      <trkpt lat="59.9348225" lon="17.645204">
        <ele>34.2642</ele>
        <time>2013-03-10T10:30:24Z</time>
      </trkpt>
      <trkpt lat="59.9348103" lon="17.6451874">
        <ele>34.2642</ele>
        <time>2013-03-10T10:30:25Z</time>
      </trkpt>
      <trkpt lat="59.9347971" lon="17.6451688">
        <ele>34.2642</ele>
        <time>2013-03-10T10:30:26Z</time>
      </trkpt>
      <trkpt lat="59.9347856" lon="17.6451506">
        <ele>34.2642</ele>
        <time>2013-03-10T10:30:27Z</time>
      </trkpt>
      <trkpt lat="59.9347737" lon="17.6451294">
        <ele>34.2642</ele>
        <time>2013-03-10T10:30:28Z</time>
      </trkpt>
      <trkpt lat="59.9347598" lon="17.6451121">
        <ele>34.2642</ele>
        <time>2013-03-10T10:30:29Z</time>
      </trkpt>
      <trkpt lat="59.9347461" lon="17.6450946">
        <ele>34.2642</ele>
        <time>2013-03-10T10:30:30Z</time>
      </trkpt>
      <trkpt lat="59.9347331" lon="17.6450781">
        <ele>34.2642</ele>
        <time>2013-03-10T10:30:31Z</time>
      </trkpt>
      <trkpt lat="59.9347208" lon="17.6450634">
        <ele>34.2642</ele>
        <time>2013-03-10T10:30:32Z</time>
      </trkpt>
      <trkpt lat="59.9347098" lon="17.6450499">
        <ele>34.2642</ele>
        <time>2013-03-10T10:30:33Z</time>
      </trkpt>
      <trkpt lat="59.9346944" lon="17.6450367">
        <ele>34.2642</ele>
        <time>2013-03-10T10:30:34Z</time>
      </trkpt>
      <trkpt lat="59.934683" lon="17.6450222">
        <ele>34.2642</ele>
        <time>2013-03-10T10:30:35Z</time>
      </trkpt>
      <trkpt lat="59.9346711" lon="17.6450066">
        <ele>34.2642</ele>
        <time>2013-03-10T10:30:36Z</time>
      </trkpt>
      <trkpt lat="59.9346597" lon="17.6449925">
        <ele>34.2642</ele>
        <time>2013-03-10T10:30:37Z</time>
      </trkpt>
      <trkpt lat="59.9346466" lon="17.6449759">
        <ele>34.2642</ele>
        <time>2013-03-10T10:30:38Z</time>
      </trkpt>
      <trkpt lat="59.9346326" lon="17.6449598">
        <ele>34.2642</ele>
        <time>2013-03-10T10:30:39Z</time>
      </trkpt>
      <trkpt lat="59.9346175" lon="17.644948">
        <ele>34.7449</ele>
        <time>2013-03-10T10:30:40Z</time>
      </trkpt>
      <trkpt lat="59.9346032" lon="17.6449319">
        <ele>34.7449</ele>
        <time>2013-03-10T10:30:41Z</time>
      </trkpt>
      <trkpt lat="59.9345943" lon="17.6449133">
        <ele>34.7449</ele>
        <time>2013-03-10T10:30:42Z</time>
      </trkpt>
      <trkpt lat="59.9345847" lon="17.6448969">
        <ele>34.7449</ele>
        <time>2013-03-10T10:30:43Z</time>
      </trkpt>
      <trkpt lat="59.9345711" lon="17.644882">
        <ele>34.7449</ele>
        <time>2013-03-10T10:30:44Z</time>
      </trkpt>
      <trkpt lat="59.9345597" lon="17.6448626">
        <ele>34.7449</ele>
        <time>2013-03-10T10:30:45Z</time>
      </trkpt>
      <trkpt lat="59.9345487" lon="17.6448444">
        <ele>34.2642</ele>
        <time>2013-03-10T10:30:46Z</time>
      </trkpt>
      <trkpt lat="59.934538" lon="17.6448271">
        <ele>34.2642</ele>
        <time>2013-03-10T10:30:47Z</time>
      </trkpt>
      <trkpt lat="59.9345255" lon="17.6448085">
        <ele>34.2642</ele>
        <time>2013-03-10T10:30:48Z</time>
      </trkpt>
      <trkpt lat="59.9345146" lon="17.6447921">
        <ele>34.2642</ele>
        <time>2013-03-10T10:30:49Z</time>
      </trkpt>
      <trkpt lat="59.9345032" lon="17.644775">
        <ele>34.2642</ele>
        <time>2013-03-10T10:30:50Z</time>
      </trkpt>
      <trkpt lat="59.934494" lon="17.6447558">
        <ele>33.7834</ele>
        <time>2013-03-10T10:30:51Z</time>
      </trkpt>
      <trkpt lat="59.9344856" lon="17.6447361">
        <ele>33.7834</ele>
        <time>2013-03-10T10:30:52Z</time>
      </trkpt>
      <trkpt lat="59.9344749" lon="17.6447165">
        <ele>33.7834</ele>
        <time>2013-03-10T10:30:53Z</time>
      </trkpt>
      <trkpt lat="59.9344634" lon="17.6446951">
        <ele>33.7834</ele>
        <time>2013-03-10T10:30:54Z</time>
      </trkpt>
      <trkpt lat="59.934452" lon="17.6446749">
        <ele>33.3029</ele>
        <time>2013-03-10T10:30:55Z</time>
      </trkpt>
      <trkpt lat="59.9344409" lon="17.6446531">
        <ele>33.7834</ele>
        <time>2013-03-10T10:30:56Z</time>
      </trkpt>
      <trkpt lat="59.9344293" lon="17.6446331">
        <ele>33.3029</ele>
        <time>2013-03-10T10:30:57Z</time>
      </trkpt>
      <trkpt lat="59.9344188" lon="17.6446148">
        <ele>33.3029</ele>
        <time>2013-03-10T10:30:58Z</time>
      </trkpt>
      <trkpt lat="59.9344085" lon="17.6445984">
        <ele>32.8223</ele>
        <time>2013-03-10T10:30:59Z</time>
      </trkpt>
      <trkpt lat="59.934398" lon="17.6445873">
        <ele>32.8223</ele>
        <time>2013-03-10T10:31:00Z</time>
      </trkpt>
      <trkpt lat="59.9343852" lon="17.6445709">
        <ele>33.3029</ele>
        <time>2013-03-10T10:31:01Z</time>
      </trkpt>
      <trkpt lat="59.9343742" lon="17.6445538">
        <ele>32.8223</ele>
        <time>2013-03-10T10:31:02Z</time>
      </trkpt>
      <trkpt lat="59.9343613" lon="17.6445372">
        <ele>32.8223</ele>
        <time>2013-03-10T10:31:03Z</time>
      </trkpt>
      <trkpt lat="59.9343456" lon="17.6445207">
        <ele>32.8223</ele>
        <time>2013-03-10T10:31:04Z</time>
      </trkpt>
      <trkpt lat="59.9343328" lon="17.644504">
        <ele>33.3029</ele>
        <time>2013-03-10T10:31:05Z</time>
      </trkpt>
      <trkpt lat="59.9343192" lon="17.6444899">
        <ele>33.3029</ele>
        <time>2013-03-10T10:31:06Z</time>
      </trkpt>
      <trkpt lat="59.9343049" lon="17.644475">
        <ele>33.3029</ele>
        <time>2013-03-10T10:31:07Z</time>
      </trkpt>
      <trkpt lat="59.9342914" lon="17.6444588">
        <ele>33.3029</ele>
        <time>2013-03-10T10:31:08Z</time>
      </trkpt>
      <trkpt lat="59.9342783" lon="17.6444426">
        <ele>33.7834</ele>
        <time>2013-03-10T10:31:09Z</time>
      </trkpt>
      <trkpt lat="59.9342656" lon="17.6444269">
        <ele>33.7834</ele>
        <time>2013-03-10T10:31:10Z</time>
      </trkpt>
      <trkpt lat="59.9342528" lon="17.6444124">
        <ele>34.2642</ele>
        <time>2013-03-10T10:31:11Z</time>
      </trkpt>
      <trkpt lat="59.934241" lon="17.6443979">
        <ele>34.2642</ele>
        <time>2013-03-10T10:31:12Z</time>
      </trkpt>
      <trkpt lat="59.9342287" lon="17.6443844">
        <ele>34.2642</ele>
        <time>2013-03-10T10:31:13Z</time>
      </trkpt>
      <trkpt lat="59.9342173" lon="17.6443729">
        <ele>34.2642</ele>
        <time>2013-03-10T10:31:14Z</time>
      </trkpt>
      <trkpt lat="59.9342054" lon="17.6443612">
        <ele>33.7834</ele>
        <time>2013-03-10T10:31:15Z</time>
      </trkpt>
      <trkpt lat="59.9341945" lon="17.6443482">
        <ele>33.7834</ele>
        <time>2013-03-10T10:31:16Z</time>
      </trkpt>
      <trkpt lat="59.9341824" lon="17.6443306">
        <ele>33.7834</ele>
        <time>2013-03-10T10:31:17Z</time>
      </trkpt>
      <trkpt lat="59.9341717" lon="17.6443138">
        <ele>33.7834</ele>
        <time>2013-03-10T10:31:18Z</time>
      </trkpt>
      <trkpt lat="59.9341604" lon="17.6442991">
        <ele>33.7834</ele>
        <time>2013-03-10T10:31:19Z</time>
      </trkpt>
      <trkpt lat="59.9341495" lon="17.6442834">
        <ele>33.7834</ele>
        <time>2013-03-10T10:31:20Z</time>
      </trkpt>
      <trkpt lat="59.9341375" lon="17.6442678">
        <ele>33.7834</ele>
        <time>2013-03-10T10:31:21Z</time>
      </trkpt>
      <trkpt lat="59.9341256" lon="17.6442507">
        <ele>34.2642</ele>
        <time>2013-03-10T10:31:22Z</time>
      </trkpt>
      <trkpt lat="59.9341136" lon="17.6442338">
        <ele>34.2642</ele>
        <time>2013-03-10T10:31:23Z</time>
      </trkpt>
      <trkpt lat="59.9341023" lon="17.6442181">
        <ele>34.2642</ele>
        <time>2013-03-10T10:31:24Z</time>
      </trkpt>
      <trkpt lat="59.9340909" lon="17.6442027">
        <ele>34.2642</ele>
        <time>2013-03-10T10:31:25Z</time>
      </trkpt>
      <trkpt lat="59.9340821" lon="17.6441893">
        <ele>34.7449</ele>
        <time>2013-03-10T10:31:26Z</time>
      </trkpt>
      <trkpt lat="59.9340715" lon="17.6441756">
        <ele>34.7449</ele>
        <time>2013-03-10T10:31:27Z</time>
      </trkpt>
      <trkpt lat="59.9340603" lon="17.6441618">
        <ele>34.7449</ele>
        <time>2013-03-10T10:31:28Z</time>
      </trkpt>
      <trkpt lat="59.9340485" lon="17.6441493">
        <ele>34.7449</ele>
        <time>2013-03-10T10:31:29Z</time>
      </trkpt>
      <trkpt lat="59.9340365" lon="17.6441353">
        <ele>34.7449</ele>
        <time>2013-03-10T10:31:30Z</time>
      </trkpt>
      <trkpt lat="59.9340262" lon="17.6441221">
        <ele>34.7449</ele>
        <time>2013-03-10T10:31:31Z</time>
      </trkpt>
      <trkpt lat="59.934014" lon="17.6441108">
        <ele>34.7449</ele>
        <time>2013-03-10T10:31:32Z</time>
      </trkpt>
      <trkpt lat="59.9340004" lon="17.6440932">
        <ele>34.7449</ele>
        <time>2013-03-10T10:31:33Z</time>
      </trkpt>
      <trkpt lat="59.9339873" lon="17.6440776">
        <ele>35.2255</ele>
        <time>2013-03-10T10:31:34Z</time>
      </trkpt>
      <trkpt lat="59.9339744" lon="17.6440658">
        <ele>35.2255</ele>
        <time>2013-03-10T10:31:35Z</time>
      </trkpt>
      <trkpt lat="59.9339624" lon="17.6440524">
        <ele>35.2255</ele>
        <time>2013-03-10T10:31:36Z</time>
      </trkpt>
      <trkpt lat="59.9339495" lon="17.6440346">
        <ele>34.7449</ele>
        <time>2013-03-10T10:31:37Z</time>
      </trkpt>
      <trkpt lat="59.933936" lon="17.6440192">
        <ele>34.7449</ele>
        <time>2013-03-10T10:31:38Z</time>
      </trkpt>
      <trkpt lat="59.9339239" lon="17.6440058">
        <ele>34.7449</ele>
        <time>2013-03-10T10:31:39Z</time>
      </trkpt>
      <trkpt lat="59.9339137" lon="17.6439871">
        <ele>34.7449</ele>
        <time>2013-03-10T10:31:40Z</time>
      </trkpt>
      <trkpt lat="59.9339034" lon="17.6439662">
        <ele>34.2642</ele>
        <time>2013-03-10T10:31:41Z</time>
      </trkpt>
      <trkpt lat="59.9338934" lon="17.6439503">
        <ele>34.2642</ele>
        <time>2013-03-10T10:31:42Z</time>
      </trkpt>
      <trkpt lat="59.9338848" lon="17.6439379">
        <ele>33.7834</ele>
        <time>2013-03-10T10:31:43Z</time>
      </trkpt>
      <trkpt lat="59.933874" lon="17.6439245">
        <ele>33.7834</ele>
        <time>2013-03-10T10:31:44Z</time>
      </trkpt>
      <trkpt lat="59.9338645" lon="17.6439116">
        <ele>33.3029</ele>
        <time>2013-03-10T10:31:45Z</time>
      </trkpt>
      <trkpt lat="59.9338547" lon="17.6438995">
        <ele>33.3029</ele>
        <time>2013-03-10T10:31:46Z</time>
      </trkpt>
      <trkpt lat="59.9338434" lon="17.6438866">
        <ele>33.3029</ele>
        <time>2013-03-10T10:31:47Z</time>
      </trkpt>
      <trkpt lat="59.9338319" lon="17.6438757">
        <ele>33.3029</ele>
        <time>2013-03-10T10:31:48Z</time>
      </trkpt>
      <trkpt lat="59.933823" lon="17.6438638">
        <ele>32.8223</ele>
        <time>2013-03-10T10:31:49Z</time>
      </trkpt>
      <trkpt lat="59.9338144" lon="17.6438505">
        <ele>32.8223</ele>
        <time>2013-03-10T10:31:50Z</time>
      </trkpt>
      <trkpt lat="59.9338032" lon="17.6438373">
        <ele>32.8223</ele>
        <time>2013-03-10T10:31:51Z</time>
      </trkpt>
      <trkpt lat="59.9337928" lon="17.6438264">
        <ele>32.8223</ele>
        <time>2013-03-10T10:31:52Z</time>
      </trkpt>
      <trkpt lat="59.9337811" lon="17.6438237">
        <ele>32.3416</ele>
        <time>2013-03-10T10:31:53Z</time>
      </trkpt>
      <trkpt lat="59.9337677" lon="17.6438167">
        <ele>32.3416</ele>
        <time>2013-03-10T10:31:54Z</time>
      </trkpt>
      <trkpt lat="59.9337554" lon="17.643803">
        <ele>31.8607</ele>
        <time>2013-03-10T10:31:55Z</time>
      </trkpt>
      <trkpt lat="59.9337423" lon="17.6437928">
        <ele>31.8607</ele>
        <time>2013-03-10T10:31:56Z</time>
      </trkpt>
      <trkpt lat="59.9337295" lon="17.6437813">
        <ele>31.8607</ele>
        <time>2013-03-10T10:31:57Z</time>
      </trkpt>
      <trkpt lat="59.9337178" lon="17.6437685">
        <ele>31.8607</ele>
        <time>2013-03-10T10:31:58Z</time>
      </trkpt>
      <trkpt lat="59.9337058" lon="17.643758">
        <ele>31.8607</ele>
        <time>2013-03-10T10:31:59Z</time>
      </trkpt>
      <trkpt lat="59.933692" lon="17.6437462">
        <ele>31.8607</ele>
        <time>2013-03-10T10:32:00Z</time>
      </trkpt>
      <trkpt lat="59.9336784" lon="17.6437343">
        <ele>31.8607</ele>
        <time>2013-03-10T10:32:01Z</time>
      </trkpt>
      <trkpt lat="59.9336665" lon="17.6437227">
        <ele>31.3801</ele>
        <time>2013-03-10T10:32:02Z</time>
      </trkpt>
      <trkpt lat="59.9336568" lon="17.6437093">
        <ele>31.3801</ele>
        <time>2013-03-10T10:32:03Z</time>
      </trkpt>
      <trkpt lat="59.9336475" lon="17.6436942">
        <ele>31.3801</ele>
        <time>2013-03-10T10:32:04Z</time>
      </trkpt>
      <trkpt lat="59.9336355" lon="17.6436809">
        <ele>31.3801</ele>
        <time>2013-03-10T10:32:05Z</time>
      </trkpt>
      <trkpt lat="59.9336229" lon="17.6436676">
        <ele>30.8995</ele>
        <time>2013-03-10T10:32:06Z</time>
      </trkpt>
      <trkpt lat="59.9336093" lon="17.643655">
        <ele>30.8995</ele>
        <time>2013-03-10T10:32:07Z</time>
      </trkpt>
      <trkpt lat="59.9335978" lon="17.643641">
        <ele>30.8995</ele>
        <time>2013-03-10T10:32:08Z</time>
      </trkpt>
      <trkpt lat="59.9335864" lon="17.643627">
        <ele>30.8995</ele>
        <time>2013-03-10T10:32:09Z</time>
      </trkpt>
      <trkpt lat="59.933575" lon="17.6436134">
        <ele>30.4188</ele>
        <time>2013-03-10T10:32:10Z</time>
      </trkpt>
      <trkpt lat="59.9335641" lon="17.6436006">
        <ele>29.9381</ele>
        <time>2013-03-10T10:32:11Z</time>
      </trkpt>
      <trkpt lat="59.9335523" lon="17.6435883">
        <ele>29.9381</ele>
        <time>2013-03-10T10:32:12Z</time>
      </trkpt>
      <trkpt lat="59.9335419" lon="17.6435748">
        <ele>29.4575</ele>
        <time>2013-03-10T10:32:13Z</time>
      </trkpt>
      <trkpt lat="59.9335308" lon="17.6435617">
        <ele>29.4575</ele>
        <time>2013-03-10T10:32:14Z</time>
      </trkpt>
      <trkpt lat="59.933519" lon="17.64355">
        <ele>28.9769</ele>
        <time>2013-03-10T10:32:15Z</time>
      </trkpt>
      <trkpt lat="59.9335066" lon="17.6435402">
        <ele>28.4962</ele>
        <time>2013-03-10T10:32:16Z</time>
      </trkpt>
      <trkpt lat="59.9334905" lon="17.6435302">
        <ele>28.0155</ele>
        <time>2013-03-10T10:32:17Z</time>
      </trkpt>
      <trkpt lat="59.9334748" lon="17.6435188">
        <ele>28.0155</ele>
        <time>2013-03-10T10:32:18Z</time>
      </trkpt>
      <trkpt lat="59.9334641" lon="17.6435026">
        <ele>28.0155</ele>
        <time>2013-03-10T10:32:19Z</time>
      </trkpt>
      <trkpt lat="59.9334564" lon="17.643483">
        <ele>27.5349</ele>
        <time>2013-03-10T10:32:20Z</time>
      </trkpt>
      <trkpt lat="59.9334475" lon="17.6434663">
        <ele>27.5349</ele>
        <time>2013-03-10T10:32:21Z</time>
      </trkpt>
      <trkpt lat="59.9334363" lon="17.6434534">
        <ele>27.5349</ele>
        <time>2013-03-10T10:32:22Z</time>
      </trkpt>
      <trkpt lat="59.9334259" lon="17.6434385">
        <ele>27.5349</ele>
        <time>2013-03-10T10:32:23Z</time>
      </trkpt>
      <trkpt lat="59.9334154" lon="17.6434231">
        <ele>27.5349</ele>
        <time>2013-03-10T10:32:24Z</time>
      </trkpt>
      <trkpt lat="59.9334054" lon="17.643407">
        <ele>27.0543</ele>
        <time>2013-03-10T10:32:25Z</time>
      </trkpt>
      <trkpt lat="59.9333968" lon="17.6433931">
        <ele>27.0543</ele>
        <time>2013-03-10T10:32:26Z</time>
      </trkpt>
      <trkpt lat="59.933387" lon="17.643379">
        <ele>26.5736</ele>
        <time>2013-03-10T10:32:27Z</time>
      </trkpt>
      <trkpt lat="59.9333756" lon="17.6433624">
        <ele>26.0929</ele>
        <time>2013-03-10T10:32:28Z</time>
      </trkpt>
      <trkpt lat="59.9333648" lon="17.6433461">
        <ele>26.0929</ele>
        <time>2013-03-10T10:32:29Z</time>
      </trkpt>
      <trkpt lat="59.9333554" lon="17.6433298">
        <ele>26.0929</ele>
        <time>2013-03-10T10:32:30Z</time>
      </trkpt>
      <trkpt lat="59.9333464" lon="17.6433096">
        <ele>25.6123</ele>
        <time>2013-03-10T10:32:31Z</time>
      </trkpt>
      <trkpt lat="59.9333373" lon="17.6432909">
        <ele>25.6123</ele>
        <time>2013-03-10T10:32:32Z</time>
      </trkpt>
      <trkpt lat="59.9333284" lon="17.6432738">
        <ele>24.651</ele>
        <time>2013-03-10T10:32:33Z</time>
      </trkpt>
      <trkpt lat="59.9333205" lon="17.6432562">
        <ele>24.1703</ele>
        <time>2013-03-10T10:32:34Z</time>
      </trkpt>
      <trkpt lat="59.9333128" lon="17.6432369">
        <ele>24.1703</ele>
        <time>2013-03-10T10:32:35Z</time>
      </trkpt>
      <trkpt lat="59.9333061" lon="17.643219">
        <ele>23.6896</ele>
        <time>2013-03-10T10:32:36Z</time>
      </trkpt>
      <trkpt lat="59.933299" lon="17.6432038">
        <ele>23.209</ele>
        <time>2013-03-10T10:32:37Z</time>
      </trkpt>
      <trkpt lat="59.9332915" lon="17.6431894">
        <ele>23.209</ele>
        <time>2013-03-10T10:32:38Z</time>
      </trkpt>
      <trkpt lat="59.9332828" lon="17.6431757">
        <ele>22.7283</ele>
        <time>2013-03-10T10:32:39Z</time>
      </trkpt>
      <trkpt lat="59.933275" lon="17.6431609">
        <ele>22.7283</ele>
        <time>2013-03-10T10:32:40Z</time>
      </trkpt>
      <trkpt lat="59.9332674" lon="17.6431433">
        <ele>22.7283</ele>
        <time>2013-03-10T10:32:41Z</time>
      </trkpt>
      <trkpt lat="59.933258" lon="17.6431249">
        <ele>22.7283</ele>
        <time>2013-03-10T10:32:42Z</time>
      </trkpt>
      <trkpt lat="59.9332489" lon="17.6431071">
        <ele>22.2476</ele>
        <time>2013-03-10T10:32:43Z</time>
      </trkpt>
      <trkpt lat="59.9332404" lon="17.6430895">
        <ele>22.2476</ele>
        <time>2013-03-10T10:32:44Z</time>
      </trkpt>
      <trkpt lat="59.9332313" lon="17.6430735">
        <ele>22.2476</ele>
        <time>2013-03-10T10:32:45Z</time>
      </trkpt>
      <trkpt lat="59.9332208" lon="17.6430567">
        <ele>21.767</ele>
        <time>2013-03-10T10:32:46Z</time>
      </trkpt>
      <trkpt lat="59.9332108" lon="17.6430386">
        <ele>21.767</ele>
        <time>2013-03-10T10:32:47Z</time>
      </trkpt>
      <trkpt lat="59.9332005" lon="17.6430201">
        <ele>21.767</ele>
        <time>2013-03-10T10:32:48Z</time>
      </trkpt>
      <trkpt lat="59.9331899" lon="17.643003">
        <ele>21.767</ele>
        <time>2013-03-10T10:32:49Z</time>
      </trkpt>
      <trkpt lat="59.9331782" lon="17.6429863">
        <ele>21.767</ele>
        <time>2013-03-10T10:32:50Z</time>
      </trkpt>
      <trkpt lat="59.9331668" lon="17.6429685">
        <ele>21.767</ele>
        <time>2013-03-10T10:32:51Z</time>
      </trkpt>
      <trkpt lat="59.9331557" lon="17.642953">
        <ele>21.2864</ele>
        <time>2013-03-10T10:32:52Z</time>
      </trkpt>
      <trkpt lat="59.9331435" lon="17.6429375">
        <ele>21.2864</ele>
        <time>2013-03-10T10:32:53Z</time>
      </trkpt>
      <trkpt lat="59.9331325" lon="17.6429229">
        <ele>21.2864</ele>
        <time>2013-03-10T10:32:54Z</time>
      </trkpt>
      <trkpt lat="59.9331212" lon="17.6429063">
        <ele>21.2864</ele>
        <time>2013-03-10T10:32:55Z</time>
      </trkpt>
      <trkpt lat="59.9331088" lon="17.6428898">
        <ele>21.2864</ele>
        <time>2013-03-10T10:32:56Z</time>
      </trkpt>
      <trkpt lat="59.9330979" lon="17.6428759">
        <ele>21.2864</ele>
        <time>2013-03-10T10:32:57Z</time>
      </trkpt>
      <trkpt lat="59.9330848" lon="17.6428626">
        <ele>21.2864</ele>
        <time>2013-03-10T10:32:58Z</time>
      </trkpt>
      <trkpt lat="59.9330724" lon="17.6428506">
        <ele>21.2864</ele>
        <time>2013-03-10T10:32:59Z</time>
      </trkpt>
      <trkpt lat="59.9330602" lon="17.6428374">
        <ele>21.2864</ele>
        <time>2013-03-10T10:33:00Z</time>
      </trkpt>
      <trkpt lat="59.9330493" lon="17.6428224">
        <ele>21.2864</ele>
        <time>2013-03-10T10:33:01Z</time>
      </trkpt>
      <trkpt lat="59.9330371" lon="17.6428075">
        <ele>21.2864</ele>
        <time>2013-03-10T10:33:02Z</time>
      </trkpt>
      <trkpt lat="59.9330269" lon="17.6427941">
        <ele>21.2864</ele>
        <time>2013-03-10T10:33:03Z</time>
      </trkpt>
      <trkpt lat="59.9330166" lon="17.6427806">
        <ele>21.2864</ele>
        <time>2013-03-10T10:33:04Z</time>
      </trkpt>
      <trkpt lat="59.9330071" lon="17.6427672">
        <ele>21.2864</ele>
        <time>2013-03-10T10:33:05Z</time>
      </trkpt>
      <trkpt lat="59.9329963" lon="17.642753">
        <ele>21.2864</ele>
        <time>2013-03-10T10:33:06Z</time>
      </trkpt>
      <trkpt lat="59.9329848" lon="17.6427392">
        <ele>21.2864</ele>
        <time>2013-03-10T10:33:07Z</time>
      </trkpt>
      <trkpt lat="59.9329736" lon="17.6427273">
        <ele>21.2864</ele>
        <time>2013-03-10T10:33:08Z</time>
      </trkpt>
      <trkpt lat="59.9329623" lon="17.6427143">
        <ele>21.2864</ele>
        <time>2013-03-10T10:33:09Z</time>
      </trkpt>
      <trkpt lat="59.9329511" lon="17.6427002">
        <ele>21.2864</ele>
        <time>2013-03-10T10:33:10Z</time>
      </trkpt>
      <trkpt lat="59.9329363" lon="17.6426854">
        <ele>20.8057</ele>
        <time>2013-03-10T10:33:11Z</time>
      </trkpt>
      <trkpt lat="59.9329206" lon="17.6426701">
        <ele>20.8057</ele>
        <time>2013-03-10T10:33:12Z</time>
      </trkpt>
      <trkpt lat="59.9329078" lon="17.6426532">
        <ele>20.8057</ele>
        <time>2013-03-10T10:33:13Z</time>
      </trkpt>
      <trkpt lat="59.932897" lon="17.6426351">
        <ele>20.8057</ele>
        <time>2013-03-10T10:33:14Z</time>
      </trkpt>
      <trkpt lat="59.9328872" lon="17.6426176">
        <ele>20.8057</ele>
        <time>2013-03-10T10:33:15Z</time>
      </trkpt>
      <trkpt lat="59.9328766" lon="17.6426005">
        <ele>20.8057</ele>
        <time>2013-03-10T10:33:16Z</time>
      </trkpt>
      <trkpt lat="59.9328648" lon="17.6425818">
        <ele>20.8057</ele>
        <time>2013-03-10T10:33:17Z</time>
      </trkpt>
      <trkpt lat="59.9328538" lon="17.6425637">
        <ele>20.8057</ele>
        <time>2013-03-10T10:33:18Z</time>
      </trkpt>
      <trkpt lat="59.9328415" lon="17.6425472">
        <ele>21.2864</ele>
        <time>2013-03-10T10:33:19Z</time>
      </trkpt>
      <trkpt lat="59.93283" lon="17.6425314">
        <ele>20.8057</ele>
        <time>2013-03-10T10:33:20Z</time>
      </trkpt>
      <trkpt lat="59.9328182" lon="17.6425149">
        <ele>21.2864</ele>
        <time>2013-03-10T10:33:21Z</time>
      </trkpt>
      <trkpt lat="59.9328061" lon="17.6425025">
        <ele>21.2864</ele>
        <time>2013-03-10T10:33:22Z</time>
      </trkpt>
      <trkpt lat="59.932796" lon="17.6424875">
        <ele>21.767</ele>
        <time>2013-03-10T10:33:23Z</time>
      </trkpt>
      <trkpt lat="59.9327864" lon="17.6424749">
        <ele>21.767</ele>
        <time>2013-03-10T10:33:24Z</time>
      </trkpt>
      <trkpt lat="59.9327761" lon="17.6424611">
        <ele>21.767</ele>
        <time>2013-03-10T10:33:25Z</time>
      </trkpt>
      <trkpt lat="59.9327656" lon="17.6424464">
        <ele>22.2476</ele>
        <time>2013-03-10T10:33:26Z</time>
      </trkpt>
      <trkpt lat="59.9327574" lon="17.6424231">
        <ele>22.2476</ele>
        <time>2013-03-10T10:33:27Z</time>
      </trkpt>
      <trkpt lat="59.9327502" lon="17.6423992">
        <ele>22.7283</ele>
        <time>2013-03-10T10:33:28Z</time>
      </trkpt>
      <trkpt lat="59.9327409" lon="17.6423804">
        <ele>22.7283</ele>
        <time>2013-03-10T10:33:29Z</time>
      </trkpt>
      <trkpt lat="59.9327312" lon="17.6423609">
        <ele>22.7283</ele>
        <time>2013-03-10T10:33:30Z</time>
      </trkpt>
      <trkpt lat="59.9327214" lon="17.6423419">
        <ele>23.209</ele>
        <time>2013-03-10T10:33:31Z</time>
      </trkpt>
      <trkpt lat="59.932711" lon="17.6423278">
        <ele>23.6896</ele>
        <time>2013-03-10T10:33:32Z</time>
      </trkpt>
      <trkpt lat="59.9327006" lon="17.642316">
        <ele>24.1703</ele>
        <time>2013-03-10T10:33:33Z</time>
      </trkpt>
      <trkpt lat="59.9326897" lon="17.6423032">
        <ele>24.651</ele>
        <time>2013-03-10T10:33:34Z</time>
      </trkpt>
      <trkpt lat="59.9326776" lon="17.642291">
        <ele>25.1317</ele>
        <time>2013-03-10T10:33:35Z</time>
      </trkpt>
      <trkpt lat="59.9326624" lon="17.6422816">
        <ele>26.0929</ele>
        <time>2013-03-10T10:33:36Z</time>
      </trkpt>
      <trkpt lat="59.9326488" lon="17.6422705">
        <ele>26.5736</ele>
        <time>2013-03-10T10:33:37Z</time>
      </trkpt>
      <trkpt lat="59.9326353" lon="17.6422568">
        <ele>27.0543</ele>
        <time>2013-03-10T10:33:38Z</time>
      </trkpt>
      <trkpt lat="59.9326247" lon="17.6422413">
        <ele>27.5349</ele>
        <time>2013-03-10T10:33:39Z</time>
      </trkpt>
      <trkpt lat="59.932612" lon="17.6422268">
        <ele>28.0155</ele>
        <time>2013-03-10T10:33:40Z</time>
      </trkpt>
      <trkpt lat="59.9325988" lon="17.6422153">
        <ele>28.4962</ele>
        <time>2013-03-10T10:33:41Z</time>
      </trkpt>
      <trkpt lat="59.9325875" lon="17.6422016">
        <ele>28.4962</ele>
        <time>2013-03-10T10:33:42Z</time>
      </trkpt>
      <trkpt lat="59.9325755" lon="17.6421891">
        <ele>28.9769</ele>
        <time>2013-03-10T10:33:43Z</time>
      </trkpt>
      <trkpt lat="59.9325621" lon="17.6421777">
        <ele>28.9769</ele>
        <time>2013-03-10T10:33:44Z</time>
      </trkpt>
      <trkpt lat="59.9325504" lon="17.6421659">
        <ele>28.9769</ele>
        <time>2013-03-10T10:33:45Z</time>
      </trkpt>
      <trkpt lat="59.932538" lon="17.6421518">
        <ele>29.4575</ele>
        <time>2013-03-10T10:33:46Z</time>
      </trkpt>
      <trkpt lat="59.9325256" lon="17.6421373">
        <ele>29.4575</ele>
        <time>2013-03-10T10:33:47Z</time>
      </trkpt>
      <trkpt lat="59.932515" lon="17.6421249">
        <ele>29.4575</ele>
        <time>2013-03-10T10:33:48Z</time>
      </trkpt>
      <trkpt lat="59.9325022" lon="17.6421113">
        <ele>29.4575</ele>
        <time>2013-03-10T10:33:49Z</time>
      </trkpt>
      <trkpt lat="59.9324903" lon="17.6420948">
        <ele>29.4575</ele>
        <time>2013-03-10T10:33:50Z</time>
      </trkpt>
      <trkpt lat="59.9324793" lon="17.6420803">
        <ele>29.9381</ele>
        <time>2013-03-10T10:33:51Z</time>
      </trkpt>
      <trkpt lat="59.9324683" lon="17.6420668">
        <ele>29.9381</ele>
        <time>2013-03-10T10:33:52Z</time>
      </trkpt>
      <trkpt lat="59.932454" lon="17.6420539">
        <ele>29.9381</ele>
        <time>2013-03-10T10:33:53Z</time>
      </trkpt>
      <trkpt lat="59.9324395" lon="17.6420424">
        <ele>29.9381</ele>
        <time>2013-03-10T10:33:54Z</time>
      </trkpt>
      <trkpt lat="59.9324263" lon="17.6420311">
        <ele>29.9381</ele>
        <time>2013-03-10T10:33:55Z</time>
      </trkpt>
      <trkpt lat="59.932412" lon="17.6420197">
        <ele>29.9381</ele>
        <time>2013-03-10T10:33:56Z</time>
      </trkpt>
      <trkpt lat="59.9323984" lon="17.6420087">
        <ele>29.9381</ele>
        <time>2013-03-10T10:33:57Z</time>
      </trkpt>
      <trkpt lat="59.9323856" lon="17.6419954">
        <ele>29.9381</ele>
        <time>2013-03-10T10:33:58Z</time>
      </trkpt>
      <trkpt lat="59.9323723" lon="17.6419824">
        <ele>29.9381</ele>
        <time>2013-03-10T10:33:59Z</time>
      </trkpt>
      <trkpt lat="59.9323617" lon="17.6419719">
        <ele>29.9381</ele>
        <time>2013-03-10T10:34:00Z</time>
      </trkpt>
      <trkpt lat="59.9323505" lon="17.6419579">
        <ele>29.4575</ele>
        <time>2013-03-10T10:34:01Z</time>
      </trkpt>
      <trkpt lat="59.9323394" lon="17.6419405">
        <ele>29.4575</ele>
        <time>2013-03-10T10:34:02Z</time>
      </trkpt>
      <trkpt lat="59.9323284" lon="17.6419243">
        <ele>29.4575</ele>
        <time>2013-03-10T10:34:03Z</time>
      </trkpt>
      <trkpt lat="59.9323172" lon="17.6419103">
        <ele>28.9769</ele>
        <time>2013-03-10T10:34:04Z</time>
      </trkpt>
      <trkpt lat="59.9323047" lon="17.6418979">
        <ele>28.9769</ele>
        <time>2013-03-10T10:34:05Z</time>
      </trkpt>
      <trkpt lat="59.9322913" lon="17.6418882">
        <ele>28.9769</ele>
        <time>2013-03-10T10:34:06Z</time>
      </trkpt>
      <trkpt lat="59.9322782" lon="17.6418793">
        <ele>28.9769</ele>
        <time>2013-03-10T10:34:07Z</time>
      </trkpt>
      <trkpt lat="59.9322642" lon="17.6418701">
        <ele>28.9769</ele>
        <time>2013-03-10T10:34:08Z</time>
      </trkpt>
      <trkpt lat="59.9322499" lon="17.6418602">
        <ele>28.9769</ele>
        <time>2013-03-10T10:34:09Z</time>
      </trkpt>
      <trkpt lat="59.9322357" lon="17.6418493">
        <ele>28.9769</ele>
        <time>2013-03-10T10:34:10Z</time>
      </trkpt>
      <trkpt lat="59.9322223" lon="17.6418374">
        <ele>28.9769</ele>
        <time>2013-03-10T10:34:11Z</time>
      </trkpt>
      <trkpt lat="59.93221" lon="17.6418237">
        <ele>28.9769</ele>
        <time>2013-03-10T10:34:12Z</time>
      </trkpt>
      <trkpt lat="59.9321976" lon="17.6418098">
        <ele>28.9769</ele>
        <time>2013-03-10T10:34:13Z</time>
      </trkpt>
      <trkpt lat="59.9321842" lon="17.6417976">
        <ele>28.9769</ele>
        <time>2013-03-10T10:34:14Z</time>
      </trkpt>
      <trkpt lat="59.932172" lon="17.6417864">
        <ele>28.9769</ele>
        <time>2013-03-10T10:34:15Z</time>
      </trkpt>
      <trkpt lat="59.9321587" lon="17.6417738">
        <ele>28.9769</ele>
        <time>2013-03-10T10:34:16Z</time>
      </trkpt>
      <trkpt lat="59.9321468" lon="17.641761">
        <ele>28.4962</ele>
        <time>2013-03-10T10:34:17Z</time>
      </trkpt>
      <trkpt lat="59.9321348" lon="17.6417483">
        <ele>28.4962</ele>
        <time>2013-03-10T10:34:18Z</time>
      </trkpt>
      <trkpt lat="59.9321239" lon="17.6417377">
        <ele>28.4962</ele>
        <time>2013-03-10T10:34:19Z</time>
      </trkpt>
      <trkpt lat="59.9321115" lon="17.641727">
        <ele>28.0155</ele>
        <time>2013-03-10T10:34:20Z</time>
      </trkpt>
      <trkpt lat="59.9320985" lon="17.6417146">
        <ele>28.0155</ele>
        <time>2013-03-10T10:34:21Z</time>
      </trkpt>
      <trkpt lat="59.9320882" lon="17.6417005">
        <ele>28.0155</ele>
        <time>2013-03-10T10:34:22Z</time>
      </trkpt>
      <trkpt lat="59.9320768" lon="17.6416875">
        <ele>28.0155</ele>
        <time>2013-03-10T10:34:23Z</time>
      </trkpt>
      <trkpt lat="59.9320648" lon="17.6416767">
        <ele>27.5349</ele>
        <time>2013-03-10T10:34:24Z</time>
      </trkpt>
      <trkpt lat="59.9320532" lon="17.6416654">
        <ele>27.5349</ele>
        <time>2013-03-10T10:34:25Z</time>
      </trkpt>
      <trkpt lat="59.9320416" lon="17.6416533">
        <ele>27.5349</ele>
        <time>2013-03-10T10:34:26Z</time>
      </trkpt>
      <trkpt lat="59.9320295" lon="17.6416401">
        <ele>27.5349</ele>
        <time>2013-03-10T10:34:27Z</time>
      </trkpt>
      <trkpt lat="59.9320169" lon="17.6416279">
        <ele>27.5349</ele>
        <time>2013-03-10T10:34:28Z</time>
      </trkpt>
      <trkpt lat="59.9320049" lon="17.6416172">
        <ele>27.5349</ele>
        <time>2013-03-10T10:34:29Z</time>
      </trkpt>
      <trkpt lat="59.9319926" lon="17.6416068">
        <ele>27.0543</ele>
        <time>2013-03-10T10:34:30Z</time>
      </trkpt>
      <trkpt lat="59.9319806" lon="17.6415969">
        <ele>27.0543</ele>
        <time>2013-03-10T10:34:31Z</time>
      </trkpt>
      <trkpt lat="59.9319687" lon="17.6415887">
        <ele>27.0543</ele>
        <time>2013-03-10T10:34:32Z</time>
      </trkpt>
      <trkpt lat="59.931955" lon="17.641581">
        <ele>26.5736</ele>
        <time>2013-03-10T10:34:33Z</time>
      </trkpt>
      <trkpt lat="59.9319406" lon="17.641573">
        <ele>26.5736</ele>
        <time>2013-03-10T10:34:34Z</time>
      </trkpt>
      <trkpt lat="59.9319262" lon="17.6415665">
        <ele>26.5736</ele>
        <time>2013-03-10T10:34:35Z</time>
      </trkpt>
      <trkpt lat="59.9319109" lon="17.6415608">
        <ele>26.5736</ele>
        <time>2013-03-10T10:34:36Z</time>
      </trkpt>
      <trkpt lat="59.9318957" lon="17.6415565">
        <ele>26.5736</ele>
        <time>2013-03-10T10:34:37Z</time>
      </trkpt>
      <trkpt lat="59.9318798" lon="17.6415518">
        <ele>26.5736</ele>
        <time>2013-03-10T10:34:38Z</time>
      </trkpt>
      <trkpt lat="59.9318635" lon="17.6415476">
        <ele>26.5736</ele>
        <time>2013-03-10T10:34:39Z</time>
      </trkpt>
      <trkpt lat="59.9318482" lon="17.6415431">
        <ele>26.5736</ele>
        <time>2013-03-10T10:34:40Z</time>
      </trkpt>
      <trkpt lat="59.9318332" lon="17.6415372">
        <ele>26.5736</ele>
        <time>2013-03-10T10:34:41Z</time>
      </trkpt>
      <trkpt lat="59.9318179" lon="17.6415306">
        <ele>26.5736</ele>
        <time>2013-03-10T10:34:42Z</time>
      </trkpt>
      <trkpt lat="59.9318035" lon="17.6415236">
        <ele>26.5736</ele>
        <time>2013-03-10T10:34:43Z</time>
      </trkpt>
      <trkpt lat="59.9317903" lon="17.6415167">
        <ele>26.5736</ele>
        <time>2013-03-10T10:34:44Z</time>
      </trkpt>
      <trkpt lat="59.9317771" lon="17.6415089">
        <ele>26.5736</ele>
        <time>2013-03-10T10:34:45Z</time>
      </trkpt>
      <trkpt lat="59.9317636" lon="17.6415007">
        <ele>26.5736</ele>
        <time>2013-03-10T10:34:46Z</time>
      </trkpt>
      <trkpt lat="59.9317496" lon="17.6414917">
        <ele>26.5736</ele>
        <time>2013-03-10T10:34:47Z</time>
      </trkpt>
      <trkpt lat="59.9317366" lon="17.6414825">
        <ele>26.5736</ele>
        <time>2013-03-10T10:34:48Z</time>
      </trkpt>
      <trkpt lat="59.9317232" lon="17.6414732">
        <ele>26.5736</ele>
        <time>2013-03-10T10:34:49Z</time>
      </trkpt>
      <trkpt lat="59.9317099" lon="17.641464">
        <ele>26.5736</ele>
        <time>2013-03-10T10:34:50Z</time>
      </trkpt>
      <trkpt lat="59.9316968" lon="17.6414556">
        <ele>26.5736</ele>
        <time>2013-03-10T10:34:51Z</time>
      </trkpt>
      <trkpt lat="59.9316841" lon="17.6414473">
        <ele>26.5736</ele>
        <time>2013-03-10T10:34:52Z</time>
      </trkpt>
      <trkpt lat="59.9316716" lon="17.6414378">
        <ele>26.0929</ele>
        <time>2013-03-10T10:34:53Z</time>
      </trkpt>
      <trkpt lat="59.9316582" lon="17.6414291">
        <ele>26.5736</ele>
        <time>2013-03-10T10:34:54Z</time>
      </trkpt>
      <trkpt lat="59.9316443" lon="17.6414198">
        <ele>26.5736</ele>
        <time>2013-03-10T10:34:55Z</time>
      </trkpt>
      <trkpt lat="59.9316304" lon="17.6414095">
        <ele>26.5736</ele>
        <time>2013-03-10T10:34:56Z</time>
      </trkpt>
      <trkpt lat="59.9316169" lon="17.6413989">
        <ele>27.0543</ele>
        <time>2013-03-10T10:34:57Z</time>
      </trkpt>
      <trkpt lat="59.9316034" lon="17.6413891">
        <ele>27.0543</ele>
        <time>2013-03-10T10:34:58Z</time>
      </trkpt>
      <trkpt lat="59.9315906" lon="17.641381">
        <ele>27.0543</ele>
        <time>2013-03-10T10:34:59Z</time>
      </trkpt>
      <trkpt lat="59.9315779" lon="17.6413715">
        <ele>27.0543</ele>
        <time>2013-03-10T10:35:00Z</time>
      </trkpt>
      <trkpt lat="59.9315637" lon="17.6413624">
        <ele>27.5349</ele>
        <time>2013-03-10T10:35:01Z</time>
      </trkpt>
      <trkpt lat="59.9315501" lon="17.6413535">
        <ele>27.5349</ele>
        <time>2013-03-10T10:35:02Z</time>
      </trkpt>
      <trkpt lat="59.9315366" lon="17.6413432">
        <ele>27.5349</ele>
        <time>2013-03-10T10:35:03Z</time>
      </trkpt>
      <trkpt lat="59.9315247" lon="17.6413328">
        <ele>28.0155</ele>
        <time>2013-03-10T10:35:04Z</time>
      </trkpt>
      <trkpt lat="59.9315126" lon="17.6413219">
        <ele>28.0155</ele>
        <time>2013-03-10T10:35:05Z</time>
      </trkpt>
      <trkpt lat="59.9314987" lon="17.6413115">
        <ele>28.0155</ele>
        <time>2013-03-10T10:35:06Z</time>
      </trkpt>
      <trkpt lat="59.9314869" lon="17.6413013">
        <ele>28.4962</ele>
        <time>2013-03-10T10:35:07Z</time>
      </trkpt>
      <trkpt lat="59.931476" lon="17.6412905">
        <ele>28.4962</ele>
        <time>2013-03-10T10:35:08Z</time>
      </trkpt>
      <trkpt lat="59.9314626" lon="17.6412804">
        <ele>28.4962</ele>
        <time>2013-03-10T10:35:09Z</time>
      </trkpt>
      <trkpt lat="59.9314485" lon="17.6412717">
        <ele>28.4962</ele>
        <time>2013-03-10T10:35:10Z</time>
      </trkpt>
      <trkpt lat="59.9314346" lon="17.6412628">
        <ele>28.4962</ele>
        <time>2013-03-10T10:35:11Z</time>
      </trkpt>
      <trkpt lat="59.9314216" lon="17.6412532">
        <ele>28.4962</ele>
        <time>2013-03-10T10:35:12Z</time>
      </trkpt>
      <trkpt lat="59.9314097" lon="17.6412436">
        <ele>28.0155</ele>
        <time>2013-03-10T10:35:13Z</time>
      </trkpt>
      <trkpt lat="59.9313961" lon="17.6412339">
        <ele>28.4962</ele>
        <time>2013-03-10T10:35:14Z</time>
      </trkpt>
      <trkpt lat="59.9313805" lon="17.6412256">
        <ele>28.0155</ele>
        <time>2013-03-10T10:35:15Z</time>
      </trkpt>
      <trkpt lat="59.9313658" lon="17.6412184">
        <ele>28.4962</ele>
        <time>2013-03-10T10:35:16Z</time>
      </trkpt>
      <trkpt lat="59.9313551" lon="17.6412099">
        <ele>28.4962</ele>
        <time>2013-03-10T10:35:17Z</time>
      </trkpt>
      <trkpt lat="59.9313449" lon="17.6412018">
        <ele>28.4962</ele>
        <time>2013-03-10T10:35:18Z</time>
      </trkpt>
      <trkpt lat="59.9313336" lon="17.6411941">
        <ele>28.4962</ele>
        <time>2013-03-10T10:35:19Z</time>
      </trkpt>
      <trkpt lat="59.9313227" lon="17.6411857">
        <ele>28.4962</ele>
        <time>2013-03-10T10:35:20Z</time>
      </trkpt>
      <trkpt lat="59.9313113" lon="17.6411779">
        <ele>28.4962</ele>
        <time>2013-03-10T10:35:21Z</time>
      </trkpt>
      <trkpt lat="59.9312992" lon="17.6411723">
        <ele>28.4962</ele>
        <time>2013-03-10T10:35:22Z</time>
      </trkpt>
      <trkpt lat="59.9312864" lon="17.6411644">
        <ele>28.0155</ele>
        <time>2013-03-10T10:35:23Z</time>
      </trkpt>
      <trkpt lat="59.9312745" lon="17.6411552">
        <ele>28.0155</ele>
        <time>2013-03-10T10:35:24Z</time>
      </trkpt>
      <trkpt lat="59.9312626" lon="17.6411463">
        <ele>27.5349</ele>
        <time>2013-03-10T10:35:25Z</time>
      </trkpt>
      <trkpt lat="59.9312507" lon="17.6411385">
        <ele>27.5349</ele>
        <time>2013-03-10T10:35:26Z</time>
      </trkpt>
      <trkpt lat="59.9312388" lon="17.6411307">
        <ele>27.0543</ele>
        <time>2013-03-10T10:35:27Z</time>
      </trkpt>
      <trkpt lat="59.9312268" lon="17.6411208">
        <ele>26.5736</ele>
        <time>2013-03-10T10:35:28Z</time>
      </trkpt>
      <trkpt lat="59.9312142" lon="17.6411106">
        <ele>26.5736</ele>
        <time>2013-03-10T10:35:29Z</time>
      </trkpt>
      <trkpt lat="59.9312004" lon="17.6411004">
        <ele>26.5736</ele>
        <time>2013-03-10T10:35:30Z</time>
      </trkpt>
      <trkpt lat="59.9311879" lon="17.6410904">
        <ele>26.0929</ele>
        <time>2013-03-10T10:35:31Z</time>
      </trkpt>
      <trkpt lat="59.9311753" lon="17.6410816">
        <ele>26.0929</ele>
        <time>2013-03-10T10:35:32Z</time>
      </trkpt>
      <trkpt lat="59.9311617" lon="17.6410733">
        <ele>25.6123</ele>
        <time>2013-03-10T10:35:33Z</time>
      </trkpt>
      <trkpt lat="59.9311491" lon="17.6410645">
        <ele>25.6123</ele>
        <time>2013-03-10T10:35:34Z</time>
      </trkpt>
      <trkpt lat="59.9311367" lon="17.6410553">
        <ele>25.1317</ele>
        <time>2013-03-10T10:35:35Z</time>
      </trkpt>
      <trkpt lat="59.9311243" lon="17.6410459">
        <ele>25.1317</ele>
        <time>2013-03-10T10:35:36Z</time>
      </trkpt>
      <trkpt lat="59.9311121" lon="17.6410355">
        <ele>24.651</ele>
        <time>2013-03-10T10:35:37Z</time>
      </trkpt>
      <trkpt lat="59.931101" lon="17.6410237">
        <ele>24.651</ele>
        <time>2013-03-10T10:35:38Z</time>
      </trkpt>
      <trkpt lat="59.9310888" lon="17.6410128">
        <ele>24.1703</ele>
        <time>2013-03-10T10:35:39Z</time>
      </trkpt>
      <trkpt lat="59.9310765" lon="17.6410023">
        <ele>24.1703</ele>
        <time>2013-03-10T10:35:40Z</time>
      </trkpt>
      <trkpt lat="59.9310642" lon="17.6409926">
        <ele>23.6896</ele>
        <time>2013-03-10T10:35:41Z</time>
      </trkpt>
      <trkpt lat="59.9310507" lon="17.6409821">
        <ele>23.6896</ele>
        <time>2013-03-10T10:35:42Z</time>
      </trkpt>
      <trkpt lat="59.9310367" lon="17.6409731">
        <ele>23.209</ele>
        <time>2013-03-10T10:35:43Z</time>
      </trkpt>
      <trkpt lat="59.931023" lon="17.6409645">
        <ele>23.209</ele>
        <time>2013-03-10T10:35:44Z</time>
      </trkpt>
      <trkpt lat="59.9310101" lon="17.6409543">
        <ele>23.209</ele>
        <time>2013-03-10T10:35:45Z</time>
      </trkpt>
      <trkpt lat="59.9309958" lon="17.6409458">
        <ele>23.209</ele>
        <time>2013-03-10T10:35:46Z</time>
      </trkpt>
      <trkpt lat="59.9309814" lon="17.6409392">
        <ele>23.209</ele>
        <time>2013-03-10T10:35:47Z</time>
      </trkpt>
      <trkpt lat="59.9309666" lon="17.6409339">
        <ele>23.209</ele>
        <time>2013-03-10T10:35:48Z</time>
      </trkpt>
      <trkpt lat="59.9309532" lon="17.6409275">
        <ele>23.209</ele>
        <time>2013-03-10T10:35:49Z</time>
      </trkpt>
      <trkpt lat="59.9309402" lon="17.6409205">
        <ele>23.209</ele>
        <time>2013-03-10T10:35:50Z</time>
      </trkpt>
      <trkpt lat="59.9309281" lon="17.6409136">
        <ele>23.209</ele>
        <time>2013-03-10T10:35:51Z</time>
      </trkpt>
      <trkpt lat="59.9309171" lon="17.6409051">
        <ele>23.209</ele>
        <time>2013-03-10T10:35:52Z</time>
      </trkpt>
      <trkpt lat="59.9309036" lon="17.6408987">
        <ele>23.209</ele>
        <time>2013-03-10T10:35:53Z</time>
      </trkpt>
      <trkpt lat="59.9308911" lon="17.6408949">
        <ele>23.6896</ele>
        <time>2013-03-10T10:35:54Z</time>
      </trkpt>
      <trkpt lat="59.930878" lon="17.6408894">
        <ele>23.6896</ele>
        <time>2013-03-10T10:35:55Z</time>
      </trkpt>
      <trkpt lat="59.9308647" lon="17.6408854">
        <ele>23.6896</ele>
        <time>2013-03-10T10:35:56Z</time>
      </trkpt>
      <trkpt lat="59.9308503" lon="17.6408827">
        <ele>23.6896</ele>
        <time>2013-03-10T10:35:57Z</time>
      </trkpt>
      <trkpt lat="59.9308358" lon="17.6408792">
        <ele>23.6896</ele>
        <time>2013-03-10T10:35:58Z</time>
      </trkpt>
      <trkpt lat="59.9308223" lon="17.6408761">
        <ele>23.6896</ele>
        <time>2013-03-10T10:35:59Z</time>
      </trkpt>
      <trkpt lat="59.9308084" lon="17.6408739">
        <ele>24.1703</ele>
        <time>2013-03-10T10:36:00Z</time>
      </trkpt>
      <trkpt lat="59.9307936" lon="17.6408719">
        <ele>24.1703</ele>
        <time>2013-03-10T10:36:01Z</time>
      </trkpt>
      <trkpt lat="59.9307782" lon="17.6408703">
        <ele>24.1703</ele>
        <time>2013-03-10T10:36:02Z</time>
      </trkpt>
      <trkpt lat="59.9307658" lon="17.6408682">
        <ele>24.1703</ele>
        <time>2013-03-10T10:36:03Z</time>
      </trkpt>
      <trkpt lat="59.9307528" lon="17.6408676">
        <ele>24.1703</ele>
        <time>2013-03-10T10:36:04Z</time>
      </trkpt>
      <trkpt lat="59.9307384" lon="17.6408672">
        <ele>24.1703</ele>
        <time>2013-03-10T10:36:05Z</time>
      </trkpt>
      <trkpt lat="59.9307237" lon="17.6408667">
        <ele>24.1703</ele>
        <time>2013-03-10T10:36:06Z</time>
      </trkpt>
      <trkpt lat="59.9307104" lon="17.6408662">
        <ele>24.1703</ele>
        <time>2013-03-10T10:36:07Z</time>
      </trkpt>
      <trkpt lat="59.9306964" lon="17.6408664">
        <ele>24.1703</ele>
        <time>2013-03-10T10:36:08Z</time>
      </trkpt>
      <trkpt lat="59.9306819" lon="17.6408666">
        <ele>24.1703</ele>
        <time>2013-03-10T10:36:09Z</time>
      </trkpt>
      <trkpt lat="59.9306687" lon="17.6408677">
        <ele>24.1703</ele>
        <time>2013-03-10T10:36:10Z</time>
      </trkpt>
      <trkpt lat="59.9306547" lon="17.64087">
        <ele>24.1703</ele>
        <time>2013-03-10T10:36:11Z</time>
      </trkpt>
      <trkpt lat="59.9306426" lon="17.6408697">
        <ele>24.1703</ele>
        <time>2013-03-10T10:36:12Z</time>
      </trkpt>
      <trkpt lat="59.9306316" lon="17.6408687">
        <ele>24.1703</ele>
        <time>2013-03-10T10:36:13Z</time>
      </trkpt>
      <trkpt lat="59.9306202" lon="17.6408687">
        <ele>24.1703</ele>
        <time>2013-03-10T10:36:14Z</time>
      </trkpt>
      <trkpt lat="59.9306088" lon="17.6408708">
        <ele>24.1703</ele>
        <time>2013-03-10T10:36:15Z</time>
      </trkpt>
      <trkpt lat="59.9305963" lon="17.6408745">
        <ele>24.1703</ele>
        <time>2013-03-10T10:36:16Z</time>
      </trkpt>
      <trkpt lat="59.9305836" lon="17.6408774">
        <ele>23.6896</ele>
        <time>2013-03-10T10:36:17Z</time>
      </trkpt>
      <trkpt lat="59.9305717" lon="17.6408811">
        <ele>23.6896</ele>
        <time>2013-03-10T10:36:18Z</time>
      </trkpt>
      <trkpt lat="59.9305607" lon="17.6408843">
        <ele>23.6896</ele>
        <time>2013-03-10T10:36:19Z</time>
      </trkpt>
      <trkpt lat="59.9305488" lon="17.6408868">
        <ele>23.6896</ele>
        <time>2013-03-10T10:36:20Z</time>
      </trkpt>
      <trkpt lat="59.9305367" lon="17.6408894">
        <ele>23.6896</ele>
        <time>2013-03-10T10:36:21Z</time>
      </trkpt>
      <trkpt lat="59.9305244" lon="17.6408921">
        <ele>23.209</ele>
        <time>2013-03-10T10:36:22Z</time>
      </trkpt>
      <trkpt lat="59.9305109" lon="17.6408962">
        <ele>23.209</ele>
        <time>2013-03-10T10:36:23Z</time>
      </trkpt>
      <trkpt lat="59.9304985" lon="17.6408992">
        <ele>23.209</ele>
        <time>2013-03-10T10:36:24Z</time>
      </trkpt>
      <trkpt lat="59.9304864" lon="17.6409027">
        <ele>22.7283</ele>
        <time>2013-03-10T10:36:25Z</time>
      </trkpt>
      <trkpt lat="59.9304736" lon="17.6409044">
        <ele>22.7283</ele>
        <time>2013-03-10T10:36:26Z</time>
      </trkpt>
      <trkpt lat="59.9304608" lon="17.6409055">
        <ele>22.2476</ele>
        <time>2013-03-10T10:36:27Z</time>
      </trkpt>
      <trkpt lat="59.9304466" lon="17.6409061">
        <ele>22.2476</ele>
        <time>2013-03-10T10:36:28Z</time>
      </trkpt>
      <trkpt lat="59.9304322" lon="17.6409059">
        <ele>21.767</ele>
        <time>2013-03-10T10:36:29Z</time>
      </trkpt>
      <trkpt lat="59.9304177" lon="17.6409055">
        <ele>21.767</ele>
        <time>2013-03-10T10:36:30Z</time>
      </trkpt>
      <trkpt lat="59.9304052" lon="17.6409045">
        <ele>21.767</ele>
        <time>2013-03-10T10:36:31Z</time>
      </trkpt>
      <trkpt lat="59.9303939" lon="17.640905">
        <ele>21.767</ele>
        <time>2013-03-10T10:36:32Z</time>
      </trkpt>
      <trkpt lat="59.9303812" lon="17.6409035">
        <ele>21.2864</ele>
        <time>2013-03-10T10:36:33Z</time>
      </trkpt>
      <trkpt lat="59.9303672" lon="17.6409009">
        <ele>21.2864</ele>
        <time>2013-03-10T10:36:34Z</time>
      </trkpt>
      <trkpt lat="59.9303524" lon="17.6408987">
        <ele>21.2864</ele>
        <time>2013-03-10T10:36:35Z</time>
      </trkpt>
      <trkpt lat="59.9303373" lon="17.6408975">
        <ele>21.2864</ele>
        <time>2013-03-10T10:36:36Z</time>
      </trkpt>
      <trkpt lat="59.9303228" lon="17.6408967">
        <ele>21.2864</ele>
        <time>2013-03-10T10:36:37Z</time>
      </trkpt>
      <trkpt lat="59.9303084" lon="17.6408972">
        <ele>21.2864</ele>
        <time>2013-03-10T10:36:38Z</time>
      </trkpt>
      <trkpt lat="59.9302937" lon="17.6408985">
        <ele>21.2864</ele>
        <time>2013-03-10T10:36:39Z</time>
      </trkpt>
      <trkpt lat="59.9302794" lon="17.6408994">
        <ele>20.8057</ele>
        <time>2013-03-10T10:36:40Z</time>
      </trkpt>
      <trkpt lat="59.9302658" lon="17.6408996">
        <ele>20.8057</ele>
        <time>2013-03-10T10:36:41Z</time>
      </trkpt>
      <trkpt lat="59.9302512" lon="17.6409002">
        <ele>20.325</ele>
        <time>2013-03-10T10:36:42Z</time>
      </trkpt>
      <trkpt lat="59.9302384" lon="17.6409003">
        <ele>20.325</ele>
        <time>2013-03-10T10:36:43Z</time>
      </trkpt>
      <trkpt lat="59.9302272" lon="17.6408993">
        <ele>20.325</ele>
        <time>2013-03-10T10:36:44Z</time>
      </trkpt>
      <trkpt lat="59.930215" lon="17.6408985">
        <ele>19.8444</ele>
        <time>2013-03-10T10:36:45Z</time>
      </trkpt>
      <trkpt lat="59.9302001" lon="17.6408991">
        <ele>20.325</ele>
        <time>2013-03-10T10:36:46Z</time>
      </trkpt>
      <trkpt lat="59.9301855" lon="17.6409008">
        <ele>19.8444</ele>
        <time>2013-03-10T10:36:47Z</time>
      </trkpt>
      <trkpt lat="59.9301716" lon="17.6409017">
        <ele>20.325</ele>
        <time>2013-03-10T10:36:48Z</time>
      </trkpt>
      <trkpt lat="59.9301572" lon="17.6409018">
        <ele>20.325</ele>
        <time>2013-03-10T10:36:49Z</time>
      </trkpt>
      <trkpt lat="59.9301435" lon="17.6409017">
        <ele>20.325</ele>
        <time>2013-03-10T10:36:50Z</time>
      </trkpt>
      <trkpt lat="59.9301296" lon="17.640902">
        <ele>20.8057</ele>
        <time>2013-03-10T10:36:51Z</time>
      </trkpt>
      <trkpt lat="59.9301157" lon="17.6409024">
        <ele>20.8057</ele>
        <time>2013-03-10T10:36:52Z</time>
      </trkpt>
      <trkpt lat="59.9301022" lon="17.6409029">
        <ele>20.8057</ele>
        <time>2013-03-10T10:36:53Z</time>
      </trkpt>
      <trkpt lat="59.9300891" lon="17.6409029">
        <ele>20.8057</ele>
        <time>2013-03-10T10:36:54Z</time>
      </trkpt>
      <trkpt lat="59.9300758" lon="17.6409016">
        <ele>20.8057</ele>
        <time>2013-03-10T10:36:55Z</time>
      </trkpt>
      <trkpt lat="59.9300619" lon="17.6409002">
        <ele>20.8057</ele>
        <time>2013-03-10T10:36:56Z</time>
      </trkpt>
      <trkpt lat="59.9300487" lon="17.6408993">
        <ele>20.8057</ele>
        <time>2013-03-10T10:36:57Z</time>
      </trkpt>
      <trkpt lat="59.930035" lon="17.6408977">
        <ele>20.8057</ele>
        <time>2013-03-10T10:36:58Z</time>
      </trkpt>
      <trkpt lat="59.9300213" lon="17.6408961">
        <ele>20.8057</ele>
        <time>2013-03-10T10:36:59Z</time>
      </trkpt>
      <trkpt lat="59.930008" lon="17.6408949">
        <ele>20.8057</ele>
        <time>2013-03-10T10:37:00Z</time>
      </trkpt>
      <trkpt lat="59.9299938" lon="17.6408941">
        <ele>20.8057</ele>
        <time>2013-03-10T10:37:01Z</time>
      </trkpt>
      <trkpt lat="59.92998" lon="17.640895">
        <ele>20.8057</ele>
        <time>2013-03-10T10:37:02Z</time>
      </trkpt>
      <trkpt lat="59.9299653" lon="17.6408951">
        <ele>21.2864</ele>
        <time>2013-03-10T10:37:03Z</time>
      </trkpt>
      <trkpt lat="59.9299509" lon="17.6408949">
        <ele>21.2864</ele>
        <time>2013-03-10T10:37:04Z</time>
      </trkpt>
      <trkpt lat="59.9299368" lon="17.6408942">
        <ele>21.2864</ele>
        <time>2013-03-10T10:37:05Z</time>
      </trkpt>
      <trkpt lat="59.9299228" lon="17.6408942">
        <ele>21.2864</ele>
        <time>2013-03-10T10:37:06Z</time>
      </trkpt>
      <trkpt lat="59.9299081" lon="17.6408952">
        <ele>21.767</ele>
        <time>2013-03-10T10:37:07Z</time>
      </trkpt>
      <trkpt lat="59.9298936" lon="17.6408962">
        <ele>21.767</ele>
        <time>2013-03-10T10:37:08Z</time>
      </trkpt>
      <trkpt lat="59.9298791" lon="17.6408955">
        <ele>21.767</ele>
        <time>2013-03-10T10:37:09Z</time>
      </trkpt>
      <trkpt lat="59.929865" lon="17.6408942">
        <ele>21.767</ele>
        <time>2013-03-10T10:37:10Z</time>
      </trkpt>
      <trkpt lat="59.929851" lon="17.6408929">
        <ele>21.767</ele>
        <time>2013-03-10T10:37:11Z</time>
      </trkpt>
      <trkpt lat="59.9298371" lon="17.6408911">
        <ele>21.767</ele>
        <time>2013-03-10T10:37:12Z</time>
      </trkpt>
      <trkpt lat="59.9298234" lon="17.6408919">
        <ele>22.2476</ele>
        <time>2013-03-10T10:37:13Z</time>
      </trkpt>
      <trkpt lat="59.9298111" lon="17.6408911">
        <ele>21.767</ele>
        <time>2013-03-10T10:37:14Z</time>
      </trkpt>
      <trkpt lat="59.9297978" lon="17.640891">
        <ele>21.767</ele>
        <time>2013-03-10T10:37:15Z</time>
      </trkpt>
      <trkpt lat="59.9297842" lon="17.640892">
        <ele>22.2476</ele>
        <time>2013-03-10T10:37:16Z</time>
      </trkpt>
      <trkpt lat="59.9297712" lon="17.6408942">
        <ele>22.2476</ele>
        <time>2013-03-10T10:37:17Z</time>
      </trkpt>
      <trkpt lat="59.9297578" lon="17.6408978">
        <ele>22.2476</ele>
        <time>2013-03-10T10:37:18Z</time>
      </trkpt>
      <trkpt lat="59.9297447" lon="17.6409012">
        <ele>22.2476</ele>
        <time>2013-03-10T10:37:19Z</time>
      </trkpt>
      <trkpt lat="59.9297316" lon="17.6409048">
        <ele>21.767</ele>
        <time>2013-03-10T10:37:20Z</time>
      </trkpt>
      <trkpt lat="59.9297184" lon="17.6409084">
        <ele>22.2476</ele>
        <time>2013-03-10T10:37:21Z</time>
      </trkpt>
      <trkpt lat="59.9297055" lon="17.6409101">
        <ele>21.767</ele>
        <time>2013-03-10T10:37:22Z</time>
      </trkpt>
      <trkpt lat="59.929692" lon="17.6409117">
        <ele>21.767</ele>
        <time>2013-03-10T10:37:23Z</time>
      </trkpt>
      <trkpt lat="59.9296785" lon="17.6409142">
        <ele>21.767</ele>
        <time>2013-03-10T10:37:24Z</time>
      </trkpt>
      <trkpt lat="59.9296656" lon="17.6409167">
        <ele>21.767</ele>
        <time>2013-03-10T10:37:25Z</time>
      </trkpt>
      <trkpt lat="59.9296526" lon="17.6409195">
        <ele>21.767</ele>
        <time>2013-03-10T10:37:26Z</time>
      </trkpt>
      <trkpt lat="59.9296396" lon="17.6409226">
        <ele>21.767</ele>
        <time>2013-03-10T10:37:27Z</time>
      </trkpt>
      <trkpt lat="59.9296252" lon="17.6409257">
        <ele>21.767</ele>
        <time>2013-03-10T10:37:28Z</time>
      </trkpt>
      <trkpt lat="59.9296101" lon="17.6409291">
        <ele>21.767</ele>
        <time>2013-03-10T10:37:29Z</time>
      </trkpt>
      <trkpt lat="59.9295951" lon="17.6409343">
        <ele>21.767</ele>
        <time>2013-03-10T10:37:30Z</time>
      </trkpt>
      <trkpt lat="59.9295804" lon="17.6409397">
        <ele>21.767</ele>
        <time>2013-03-10T10:37:31Z</time>
      </trkpt>
      <trkpt lat="59.9295671" lon="17.6409434">
        <ele>21.2864</ele>
        <time>2013-03-10T10:37:32Z</time>
      </trkpt>
      <trkpt lat="59.9295542" lon="17.6409457">
        <ele>21.2864</ele>
        <time>2013-03-10T10:37:33Z</time>
      </trkpt>
      <trkpt lat="59.929541" lon="17.6409474">
        <ele>21.2864</ele>
        <time>2013-03-10T10:37:34Z</time>
      </trkpt>
      <trkpt lat="59.9295283" lon="17.6409488">
        <ele>21.2864</ele>
        <time>2013-03-10T10:37:35Z</time>
      </trkpt>
      <trkpt lat="59.9295153" lon="17.640951">
        <ele>21.2864</ele>
        <time>2013-03-10T10:37:36Z</time>
      </trkpt>
      <trkpt lat="59.9295019" lon="17.6409536">
        <ele>21.2864</ele>
        <time>2013-03-10T10:37:37Z</time>
      </trkpt>
      <trkpt lat="59.9294884" lon="17.6409562">
        <ele>21.2864</ele>
        <time>2013-03-10T10:37:38Z</time>
      </trkpt>
      <trkpt lat="59.9294754" lon="17.6409589">
        <ele>21.2864</ele>
        <time>2013-03-10T10:37:39Z</time>
      </trkpt>
      <trkpt lat="59.9294625" lon="17.6409629">
        <ele>21.2864</ele>
        <time>2013-03-10T10:37:40Z</time>
      </trkpt>
      <trkpt lat="59.9294502" lon="17.6409666">
        <ele>21.2864</ele>
        <time>2013-03-10T10:37:41Z</time>
      </trkpt>
      <trkpt lat="59.929439" lon="17.6409702">
        <ele>21.2864</ele>
        <time>2013-03-10T10:37:42Z</time>
      </trkpt>
      <trkpt lat="59.9294279" lon="17.6409709">
        <ele>21.2864</ele>
        <time>2013-03-10T10:37:43Z</time>
      </trkpt>
      <trkpt lat="59.9294165" lon="17.6409708">
        <ele>21.2864</ele>
        <time>2013-03-10T10:37:44Z</time>
      </trkpt>
      <trkpt lat="59.9294046" lon="17.6409713">
        <ele>21.2864</ele>
        <time>2013-03-10T10:37:45Z</time>
      </trkpt>
      <trkpt lat="59.929392" lon="17.6409728">
        <ele>21.2864</ele>
        <time>2013-03-10T10:37:46Z</time>
      </trkpt>
      <trkpt lat="59.929379" lon="17.6409739">
        <ele>21.2864</ele>
        <time>2013-03-10T10:37:47Z</time>
      </trkpt>
      <trkpt lat="59.9293657" lon="17.6409742">
        <ele>21.2864</ele>
        <time>2013-03-10T10:37:48Z</time>
      </trkpt>
      <trkpt lat="59.9293523" lon="17.6409749">
        <ele>21.2864</ele>
        <time>2013-03-10T10:37:49Z</time>
      </trkpt>
      <trkpt lat="59.9293387" lon="17.6409752">
        <ele>21.2864</ele>
        <time>2013-03-10T10:37:50Z</time>
      </trkpt>
      <trkpt lat="59.9293252" lon="17.6409754">
        <ele>21.2864</ele>
        <time>2013-03-10T10:37:51Z</time>
      </trkpt>
      <trkpt lat="59.9293112" lon="17.6409763">
        <ele>21.2864</ele>
        <time>2013-03-10T10:37:52Z</time>
      </trkpt>
      <trkpt lat="59.9292957" lon="17.640977">
        <ele>21.2864</ele>
        <time>2013-03-10T10:37:53Z</time>
      </trkpt>
      <trkpt lat="59.929281" lon="17.6409775">
        <ele>21.2864</ele>
        <time>2013-03-10T10:37:54Z</time>
      </trkpt>
      <trkpt lat="59.9292671" lon="17.6409784">
        <ele>21.2864</ele>
        <time>2013-03-10T10:37:55Z</time>
      </trkpt>
      <trkpt lat="59.9292528" lon="17.6409796">
        <ele>21.2864</ele>
        <time>2013-03-10T10:37:56Z</time>
      </trkpt>
      <trkpt lat="59.9292385" lon="17.6409802">
        <ele>21.767</ele>
        <time>2013-03-10T10:37:57Z</time>
      </trkpt>
      <trkpt lat="59.9292241" lon="17.6409799">
        <ele>21.767</ele>
        <time>2013-03-10T10:37:58Z</time>
      </trkpt>
      <trkpt lat="59.9292103" lon="17.6409802">
        <ele>21.767</ele>
        <time>2013-03-10T10:37:59Z</time>
      </trkpt>
      <trkpt lat="59.9291968" lon="17.6409814">
        <ele>21.767</ele>
        <time>2013-03-10T10:38:00Z</time>
      </trkpt>
      <trkpt lat="59.9291837" lon="17.6409819">
        <ele>21.767</ele>
        <time>2013-03-10T10:38:01Z</time>
      </trkpt>
      <trkpt lat="59.9291704" lon="17.6409819">
        <ele>21.767</ele>
        <time>2013-03-10T10:38:02Z</time>
      </trkpt>
      <trkpt lat="59.929157" lon="17.6409822">
        <ele>21.767</ele>
        <time>2013-03-10T10:38:03Z</time>
      </trkpt>
      <trkpt lat="59.9291448" lon="17.6409848">
        <ele>21.767</ele>
        <time>2013-03-10T10:38:04Z</time>
      </trkpt>
      <trkpt lat="59.9291325" lon="17.6409872">
        <ele>21.767</ele>
        <time>2013-03-10T10:38:05Z</time>
      </trkpt>
      <trkpt lat="59.9291196" lon="17.6409883">
        <ele>21.767</ele>
        <time>2013-03-10T10:38:06Z</time>
      </trkpt>
      <trkpt lat="59.9291056" lon="17.6409884">
        <ele>21.767</ele>
        <time>2013-03-10T10:38:07Z</time>
      </trkpt>
      <trkpt lat="59.9290919" lon="17.6409889">
        <ele>21.767</ele>
        <time>2013-03-10T10:38:08Z</time>
      </trkpt>
      <trkpt lat="59.9290797" lon="17.6409913">
        <ele>21.767</ele>
        <time>2013-03-10T10:38:09Z</time>
      </trkpt>
      <trkpt lat="59.9290673" lon="17.6409926">
        <ele>21.767</ele>
        <time>2013-03-10T10:38:10Z</time>
      </trkpt>
      <trkpt lat="59.9290538" lon="17.6409924">
        <ele>21.767</ele>
        <time>2013-03-10T10:38:11Z</time>
      </trkpt>
      <trkpt lat="59.9290403" lon="17.6409923">
        <ele>21.767</ele>
        <time>2013-03-10T10:38:12Z</time>
      </trkpt>
      <trkpt lat="59.929027" lon="17.6409916">
        <ele>21.767</ele>
        <time>2013-03-10T10:38:13Z</time>
      </trkpt>
      <trkpt lat="59.9290127" lon="17.6409905">
        <ele>21.767</ele>
        <time>2013-03-10T10:38:14Z</time>
      </trkpt>
      <trkpt lat="59.9289984" lon="17.6409902">
        <ele>21.767</ele>
        <time>2013-03-10T10:38:15Z</time>
      </trkpt>
      <trkpt lat="59.9289847" lon="17.6409888">
        <ele>21.767</ele>
        <time>2013-03-10T10:38:16Z</time>
      </trkpt>
      <trkpt lat="59.9289714" lon="17.6409878">
        <ele>21.767</ele>
        <time>2013-03-10T10:38:17Z</time>
      </trkpt>
      <trkpt lat="59.92896" lon="17.6409851">
        <ele>21.767</ele>
        <time>2013-03-10T10:38:18Z</time>
      </trkpt>
      <trkpt lat="59.9289489" lon="17.6409838">
        <ele>21.767</ele>
        <time>2013-03-10T10:38:19Z</time>
      </trkpt>
      <trkpt lat="59.9289373" lon="17.6409832">
        <ele>21.767</ele>
        <time>2013-03-10T10:38:20Z</time>
      </trkpt>
      <trkpt lat="59.9289264" lon="17.6409825">
        <ele>21.767</ele>
        <time>2013-03-10T10:38:21Z</time>
      </trkpt>
      <trkpt lat="59.9289151" lon="17.6409856">
        <ele>21.767</ele>
        <time>2013-03-10T10:38:22Z</time>
      </trkpt>
      <trkpt lat="59.9289009" lon="17.64099">
        <ele>21.767</ele>
        <time>2013-03-10T10:38:23Z</time>
      </trkpt>
      <trkpt lat="59.9288847" lon="17.640992">
        <ele>21.767</ele>
        <time>2013-03-10T10:38:24Z</time>
      </trkpt>
      <trkpt lat="59.928872" lon="17.6409889">
        <ele>21.767</ele>
        <time>2013-03-10T10:38:25Z</time>
      </trkpt>
      <trkpt lat="59.9288599" lon="17.6409863">
        <ele>21.767</ele>
        <time>2013-03-10T10:38:26Z</time>
      </trkpt>
      <trkpt lat="59.9288446" lon="17.6409899">
        <ele>21.767</ele>
        <time>2013-03-10T10:38:27Z</time>
      </trkpt>
      <trkpt lat="59.9288286" lon="17.6409961">
        <ele>21.767</ele>
        <time>2013-03-10T10:38:28Z</time>
      </trkpt>
      <trkpt lat="59.9288129" lon="17.6410013">
        <ele>21.767</ele>
        <time>2013-03-10T10:38:29Z</time>
      </trkpt>
      <trkpt lat="59.9287979" lon="17.6410052">
        <ele>21.767</ele>
        <time>2013-03-10T10:38:30Z</time>
      </trkpt>
      <trkpt lat="59.9287837" lon="17.64101">
        <ele>21.767</ele>
        <time>2013-03-10T10:38:31Z</time>
      </trkpt>
      <trkpt lat="59.9287693" lon="17.6410153">
        <ele>21.767</ele>
        <time>2013-03-10T10:38:32Z</time>
      </trkpt>
      <trkpt lat="59.928755" lon="17.6410206">
        <ele>21.767</ele>
        <time>2013-03-10T10:38:33Z</time>
      </trkpt>
      <trkpt lat="59.9287412" lon="17.6410252">
        <ele>21.767</ele>
        <time>2013-03-10T10:38:34Z</time>
      </trkpt>
      <trkpt lat="59.928727" lon="17.6410296">
        <ele>22.2476</ele>
        <time>2013-03-10T10:38:35Z</time>
      </trkpt>
      <trkpt lat="59.9287134" lon="17.6410337">
        <ele>22.2476</ele>
        <time>2013-03-10T10:38:36Z</time>
      </trkpt>
      <trkpt lat="59.9286999" lon="17.6410369">
        <ele>22.2476</ele>
        <time>2013-03-10T10:38:37Z</time>
      </trkpt>
      <trkpt lat="59.9286859" lon="17.6410396">
        <ele>22.2476</ele>
        <time>2013-03-10T10:38:38Z</time>
      </trkpt>
      <trkpt lat="59.9286725" lon="17.6410417">
        <ele>22.2476</ele>
        <time>2013-03-10T10:38:39Z</time>
      </trkpt>
      <trkpt lat="59.9286601" lon="17.6410439">
        <ele>22.2476</ele>
        <time>2013-03-10T10:38:40Z</time>
      </trkpt>
      <trkpt lat="59.9286465" lon="17.6410477">
        <ele>22.7283</ele>
        <time>2013-03-10T10:38:41Z</time>
      </trkpt>
      <trkpt lat="59.9286326" lon="17.6410519">
        <ele>22.7283</ele>
        <time>2013-03-10T10:38:42Z</time>
      </trkpt>
      <trkpt lat="59.9286187" lon="17.6410558">
        <ele>22.7283</ele>
        <time>2013-03-10T10:38:43Z</time>
      </trkpt>
      <trkpt lat="59.9286045" lon="17.6410591">
        <ele>22.7283</ele>
        <time>2013-03-10T10:38:44Z</time>
      </trkpt>
      <trkpt lat="59.9285905" lon="17.641062">
        <ele>22.7283</ele>
        <time>2013-03-10T10:38:45Z</time>
      </trkpt>
      <trkpt lat="59.9285772" lon="17.6410644">
        <ele>22.7283</ele>
        <time>2013-03-10T10:38:46Z</time>
      </trkpt>
      <trkpt lat="59.9285631" lon="17.6410674">
        <ele>22.7283</ele>
        <time>2013-03-10T10:38:47Z</time>
      </trkpt>
      <trkpt lat="59.928549" lon="17.6410712">
        <ele>22.7283</ele>
        <time>2013-03-10T10:38:48Z</time>
      </trkpt>
      <trkpt lat="59.9285351" lon="17.6410745">
        <ele>22.7283</ele>
        <time>2013-03-10T10:38:49Z</time>
      </trkpt>
      <trkpt lat="59.9285217" lon="17.6410764">
        <ele>22.7283</ele>
        <time>2013-03-10T10:38:50Z</time>
      </trkpt>
      <trkpt lat="59.9285083" lon="17.6410769">
        <ele>22.7283</ele>
        <time>2013-03-10T10:38:51Z</time>
      </trkpt>
      <trkpt lat="59.9284948" lon="17.6410789">
        <ele>22.7283</ele>
        <time>2013-03-10T10:38:52Z</time>
      </trkpt>
      <trkpt lat="59.9284809" lon="17.6410827">
        <ele>22.7283</ele>
        <time>2013-03-10T10:38:53Z</time>
      </trkpt>
      <trkpt lat="59.9284669" lon="17.6410852">
        <ele>22.2476</ele>
        <time>2013-03-10T10:38:54Z</time>
      </trkpt>
      <trkpt lat="59.9284529" lon="17.6410863">
        <ele>22.2476</ele>
        <time>2013-03-10T10:38:55Z</time>
      </trkpt>
      <trkpt lat="59.9284379" lon="17.6410876">
        <ele>22.2476</ele>
        <time>2013-03-10T10:38:56Z</time>
      </trkpt>
      <trkpt lat="59.928423" lon="17.6410894">
        <ele>22.2476</ele>
        <time>2013-03-10T10:38:57Z</time>
      </trkpt>
      <trkpt lat="59.9284084" lon="17.6410908">
        <ele>22.2476</ele>
        <time>2013-03-10T10:38:58Z</time>
      </trkpt>
      <trkpt lat="59.9283938" lon="17.6410916">
        <ele>22.2476</ele>
        <time>2013-03-10T10:38:59Z</time>
      </trkpt>
      <trkpt lat="59.9283804" lon="17.6410934">
        <ele>21.767</ele>
        <time>2013-03-10T10:39:00Z</time>
      </trkpt>
      <trkpt lat="59.9283672" lon="17.6410956">
        <ele>21.767</ele>
        <time>2013-03-10T10:39:01Z</time>
      </trkpt>
      <trkpt lat="59.928353" lon="17.6410965">
        <ele>21.767</ele>
        <time>2013-03-10T10:39:02Z</time>
      </trkpt>
      <trkpt lat="59.9283389" lon="17.6410964">
        <ele>21.767</ele>
        <time>2013-03-10T10:39:03Z</time>
      </trkpt>
      <trkpt lat="59.9283255" lon="17.6410987">
        <ele>21.767</ele>
        <time>2013-03-10T10:39:04Z</time>
      </trkpt>
      <trkpt lat="59.928312" lon="17.6411017">
        <ele>21.767</ele>
        <time>2013-03-10T10:39:05Z</time>
      </trkpt>
      <trkpt lat="59.9282988" lon="17.6411028">
        <ele>21.767</ele>
        <time>2013-03-10T10:39:06Z</time>
      </trkpt>
      <trkpt lat="59.9282848" lon="17.6411039">
        <ele>21.767</ele>
        <time>2013-03-10T10:39:07Z</time>
      </trkpt>
      <trkpt lat="59.9282714" lon="17.6411049">
        <ele>21.767</ele>
        <time>2013-03-10T10:39:08Z</time>
      </trkpt>
      <trkpt lat="59.9282571" lon="17.6411069">
        <ele>21.767</ele>
        <time>2013-03-10T10:39:09Z</time>
      </trkpt>
      <trkpt lat="59.9282426" lon="17.6411104">
        <ele>21.767</ele>
        <time>2013-03-10T10:39:10Z</time>
      </trkpt>
      <trkpt lat="59.9282281" lon="17.6411136">
        <ele>21.767</ele>
        <time>2013-03-10T10:39:11Z</time>
      </trkpt>
      <trkpt lat="59.9282132" lon="17.6411158">
        <ele>21.767</ele>
        <time>2013-03-10T10:39:12Z</time>
      </trkpt>
      <trkpt lat="59.9281986" lon="17.6411162">
        <ele>22.2476</ele>
        <time>2013-03-10T10:39:13Z</time>
      </trkpt>
      <trkpt lat="59.928185" lon="17.6411173">
        <ele>22.2476</ele>
        <time>2013-03-10T10:39:14Z</time>
      </trkpt>
      <trkpt lat="59.928171" lon="17.6411189">
        <ele>22.2476</ele>
        <time>2013-03-10T10:39:15Z</time>
      </trkpt>
      <trkpt lat="59.9281569" lon="17.6411198">
        <ele>22.2476</ele>
        <time>2013-03-10T10:39:16Z</time>
      </trkpt>
      <trkpt lat="59.9281417" lon="17.641122">
        <ele>22.2476</ele>
        <time>2013-03-10T10:39:17Z</time>
      </trkpt>
      <trkpt lat="59.928128" lon="17.6411246">
        <ele>22.2476</ele>
        <time>2013-03-10T10:39:18Z</time>
      </trkpt>
      <trkpt lat="59.9281146" lon="17.6411262">
        <ele>22.2476</ele>
        <time>2013-03-10T10:39:19Z</time>
      </trkpt>
      <trkpt lat="59.9281012" lon="17.6411275">
        <ele>22.2476</ele>
        <time>2013-03-10T10:39:20Z</time>
      </trkpt>
      <trkpt lat="59.9280881" lon="17.6411293">
        <ele>22.2476</ele>
        <time>2013-03-10T10:39:21Z</time>
      </trkpt>
      <trkpt lat="59.9280743" lon="17.6411302">
        <ele>22.2476</ele>
        <time>2013-03-10T10:39:22Z</time>
      </trkpt>
      <trkpt lat="59.9280612" lon="17.6411308">
        <ele>22.2476</ele>
        <time>2013-03-10T10:39:23Z</time>
      </trkpt>
      <trkpt lat="59.9280481" lon="17.6411324">
        <ele>22.2476</ele>
        <time>2013-03-10T10:39:24Z</time>
      </trkpt>
      <trkpt lat="59.928035" lon="17.6411349">
        <ele>22.2476</ele>
        <time>2013-03-10T10:39:25Z</time>
      </trkpt>
      <trkpt lat="59.9280209" lon="17.6411375">
        <ele>22.7283</ele>
        <time>2013-03-10T10:39:26Z</time>
      </trkpt>
      <trkpt lat="59.9280082" lon="17.6411385">
        <ele>22.7283</ele>
        <time>2013-03-10T10:39:27Z</time>
      </trkpt>
      <trkpt lat="59.9279949" lon="17.64114">
        <ele>22.7283</ele>
        <time>2013-03-10T10:39:28Z</time>
      </trkpt>
      <trkpt lat="59.9279801" lon="17.6411416">
        <ele>22.7283</ele>
        <time>2013-03-10T10:39:29Z</time>
      </trkpt>
      <trkpt lat="59.9279656" lon="17.6411422">
        <ele>23.209</ele>
        <time>2013-03-10T10:39:30Z</time>
      </trkpt>
      <trkpt lat="59.927952" lon="17.6411427">
        <ele>23.209</ele>
        <time>2013-03-10T10:39:31Z</time>
      </trkpt>
      <trkpt lat="59.9279385" lon="17.6411446">
        <ele>23.209</ele>
        <time>2013-03-10T10:39:32Z</time>
      </trkpt>
      <trkpt lat="59.9279253" lon="17.6411464">
        <ele>23.209</ele>
        <time>2013-03-10T10:39:33Z</time>
      </trkpt>
      <trkpt lat="59.9279116" lon="17.6411482">
        <ele>23.209</ele>
        <time>2013-03-10T10:39:34Z</time>
      </trkpt>
      <trkpt lat="59.9278979" lon="17.6411487">
        <ele>23.209</ele>
        <time>2013-03-10T10:39:35Z</time>
      </trkpt>
      <trkpt lat="59.9278846" lon="17.6411487">
        <ele>22.7283</ele>
        <time>2013-03-10T10:39:36Z</time>
      </trkpt>
      <trkpt lat="59.9278713" lon="17.6411501">
        <ele>22.7283</ele>
        <time>2013-03-10T10:39:37Z</time>
      </trkpt>
      <trkpt lat="59.9278576" lon="17.6411522">
        <ele>22.7283</ele>
        <time>2013-03-10T10:39:38Z</time>
      </trkpt>
      <trkpt lat="59.927844" lon="17.6411546">
        <ele>22.7283</ele>
        <time>2013-03-10T10:39:39Z</time>
      </trkpt>
      <trkpt lat="59.9278311" lon="17.6411562">
        <ele>22.7283</ele>
        <time>2013-03-10T10:39:40Z</time>
      </trkpt>
      <trkpt lat="59.9278193" lon="17.6411607">
        <ele>23.209</ele>
        <time>2013-03-10T10:39:41Z</time>
      </trkpt>
      <trkpt lat="59.9278084" lon="17.6411646">
        <ele>23.209</ele>
        <time>2013-03-10T10:39:42Z</time>
      </trkpt>
      <trkpt lat="59.9277938" lon="17.6411664">
        <ele>23.209</ele>
        <time>2013-03-10T10:39:43Z</time>
      </trkpt>
      <trkpt lat="59.9277783" lon="17.6411685">
        <ele>23.209</ele>
        <time>2013-03-10T10:39:44Z</time>
      </trkpt>
      <trkpt lat="59.927763" lon="17.6411717">
        <ele>23.209</ele>
        <time>2013-03-10T10:39:45Z</time>
      </trkpt>
      <trkpt lat="59.9277488" lon="17.6411749">
        <ele>23.209</ele>
        <time>2013-03-10T10:39:46Z</time>
      </trkpt>
      <trkpt lat="59.927734" lon="17.641178">
        <ele>23.6896</ele>
        <time>2013-03-10T10:39:47Z</time>
      </trkpt>
      <trkpt lat="59.9277202" lon="17.6411801">
        <ele>23.6896</ele>
        <time>2013-03-10T10:39:48Z</time>
      </trkpt>
      <trkpt lat="59.9277073" lon="17.6411822">
        <ele>23.6896</ele>
        <time>2013-03-10T10:39:49Z</time>
      </trkpt>
      <trkpt lat="59.9276939" lon="17.6411837">
        <ele>23.6896</ele>
        <time>2013-03-10T10:39:50Z</time>
      </trkpt>
      <trkpt lat="59.9276812" lon="17.6411855">
        <ele>23.6896</ele>
        <time>2013-03-10T10:39:51Z</time>
      </trkpt>
      <trkpt lat="59.9276677" lon="17.6411879">
        <ele>23.6896</ele>
        <time>2013-03-10T10:39:52Z</time>
      </trkpt>
      <trkpt lat="59.9276536" lon="17.6411914">
        <ele>23.6896</ele>
        <time>2013-03-10T10:39:53Z</time>
      </trkpt>
      <trkpt lat="59.927639" lon="17.641194">
        <ele>23.6896</ele>
        <time>2013-03-10T10:39:54Z</time>
      </trkpt>
      <trkpt lat="59.9276249" lon="17.6411955">
        <ele>23.6896</ele>
        <time>2013-03-10T10:39:55Z</time>
      </trkpt>
      <trkpt lat="59.9276105" lon="17.6411971">
        <ele>24.1703</ele>
        <time>2013-03-10T10:39:56Z</time>
      </trkpt>
      <trkpt lat="59.9275956" lon="17.6411995">
        <ele>24.1703</ele>
        <time>2013-03-10T10:39:57Z</time>
      </trkpt>
      <trkpt lat="59.9275801" lon="17.6412012">
        <ele>24.1703</ele>
        <time>2013-03-10T10:39:58Z</time>
      </trkpt>
      <trkpt lat="59.9275655" lon="17.6412031">
        <ele>24.1703</ele>
        <time>2013-03-10T10:39:59Z</time>
      </trkpt>
      <trkpt lat="59.9275513" lon="17.6412049">
        <ele>24.1703</ele>
        <time>2013-03-10T10:40:00Z</time>
      </trkpt>
      <trkpt lat="59.927537" lon="17.641207">
        <ele>24.1703</ele>
        <time>2013-03-10T10:40:01Z</time>
      </trkpt>
      <trkpt lat="59.9275227" lon="17.6412088">
        <ele>24.1703</ele>
        <time>2013-03-10T10:40:02Z</time>
      </trkpt>
      <trkpt lat="59.9275075" lon="17.6412111">
        <ele>24.651</ele>
        <time>2013-03-10T10:40:03Z</time>
      </trkpt>
      <trkpt lat="59.9274925" lon="17.6412123">
        <ele>24.651</ele>
        <time>2013-03-10T10:40:04Z</time>
      </trkpt>
      <trkpt lat="59.9274785" lon="17.6412126">
        <ele>24.651</ele>
        <time>2013-03-10T10:40:05Z</time>
      </trkpt>
      <trkpt lat="59.9274646" lon="17.6412145">
        <ele>24.651</ele>
        <time>2013-03-10T10:40:06Z</time>
      </trkpt>
      <trkpt lat="59.9274515" lon="17.6412159">
        <ele>24.651</ele>
        <time>2013-03-10T10:40:07Z</time>
      </trkpt>
      <trkpt lat="59.9274381" lon="17.6412178">
        <ele>24.651</ele>
        <time>2013-03-10T10:40:08Z</time>
      </trkpt>
      <trkpt lat="59.9274251" lon="17.6412194">
        <ele>24.651</ele>
        <time>2013-03-10T10:40:09Z</time>
      </trkpt>
      <trkpt lat="59.9274123" lon="17.6412209">
        <ele>24.651</ele>
        <time>2013-03-10T10:40:10Z</time>
      </trkpt>
      <trkpt lat="59.9274001" lon="17.6412223">
        <ele>24.651</ele>
        <time>2013-03-10T10:40:11Z</time>
      </trkpt>
      <trkpt lat="59.927388" lon="17.6412235">
        <ele>24.651</ele>
        <time>2013-03-10T10:40:12Z</time>
      </trkpt>
      <trkpt lat="59.9273761" lon="17.6412242">
        <ele>24.651</ele>
        <time>2013-03-10T10:40:13Z</time>
      </trkpt>
      <trkpt lat="59.9273635" lon="17.6412257">
        <ele>24.651</ele>
        <time>2013-03-10T10:40:14Z</time>
      </trkpt>
      <trkpt lat="59.9273504" lon="17.6412272">
        <ele>24.651</ele>
        <time>2013-03-10T10:40:15Z</time>
      </trkpt>
      <trkpt lat="59.9273372" lon="17.6412287">
        <ele>24.651</ele>
        <time>2013-03-10T10:40:16Z</time>
      </trkpt>
      <trkpt lat="59.9273235" lon="17.6412306">
        <ele>24.651</ele>
        <time>2013-03-10T10:40:17Z</time>
      </trkpt>
      <trkpt lat="59.927309" lon="17.6412311">
        <ele>25.1317</ele>
        <time>2013-03-10T10:40:18Z</time>
      </trkpt>
      <trkpt lat="59.9272946" lon="17.6412311">
        <ele>25.1317</ele>
        <time>2013-03-10T10:40:19Z</time>
      </trkpt>
      <trkpt lat="59.9272811" lon="17.6412304">
        <ele>25.1317</ele>
        <time>2013-03-10T10:40:20Z</time>
      </trkpt>
      <trkpt lat="59.9272677" lon="17.6412303">
        <ele>24.651</ele>
        <time>2013-03-10T10:40:21Z</time>
      </trkpt>
      <trkpt lat="59.9272532" lon="17.6412309">
        <ele>24.651</ele>
        <time>2013-03-10T10:40:22Z</time>
      </trkpt>
      <trkpt lat="59.9272395" lon="17.6412313">
        <ele>24.651</ele>
        <time>2013-03-10T10:40:23Z</time>
      </trkpt>
      <trkpt lat="59.9272246" lon="17.6412318">
        <ele>24.651</ele>
        <time>2013-03-10T10:40:24Z</time>
      </trkpt>
      <trkpt lat="59.9272096" lon="17.6412323">
        <ele>24.651</ele>
        <time>2013-03-10T10:40:25Z</time>
      </trkpt>
      <trkpt lat="59.9271951" lon="17.6412329">
        <ele>24.651</ele>
        <time>2013-03-10T10:40:26Z</time>
      </trkpt>
      <trkpt lat="59.9271801" lon="17.6412334">
        <ele>24.651</ele>
        <time>2013-03-10T10:40:27Z</time>
      </trkpt>
      <trkpt lat="59.9271652" lon="17.6412348">
        <ele>25.1317</ele>
        <time>2013-03-10T10:40:28Z</time>
      </trkpt>
      <trkpt lat="59.9271516" lon="17.641236">
        <ele>24.651</ele>
        <time>2013-03-10T10:40:29Z</time>
      </trkpt>
      <trkpt lat="59.9271367" lon="17.641238">
        <ele>24.651</ele>
        <time>2013-03-10T10:40:30Z</time>
      </trkpt>
      <trkpt lat="59.9271225" lon="17.6412389">
        <ele>24.651</ele>
        <time>2013-03-10T10:40:31Z</time>
      </trkpt>
      <trkpt lat="59.9271087" lon="17.6412387">
        <ele>24.651</ele>
        <time>2013-03-10T10:40:32Z</time>
      </trkpt>
      <trkpt lat="59.9270942" lon="17.6412379">
        <ele>24.651</ele>
        <time>2013-03-10T10:40:33Z</time>
      </trkpt>
      <trkpt lat="59.9270797" lon="17.6412369">
        <ele>24.651</ele>
        <time>2013-03-10T10:40:34Z</time>
      </trkpt>
      <trkpt lat="59.9270651" lon="17.6412389">
        <ele>25.1317</ele>
        <time>2013-03-10T10:40:35Z</time>
      </trkpt>
      <trkpt lat="59.9270516" lon="17.6412409">
        <ele>25.1317</ele>
        <time>2013-03-10T10:40:36Z</time>
      </trkpt>
      <trkpt lat="59.9270377" lon="17.6412427">
        <ele>25.1317</ele>
        <time>2013-03-10T10:40:37Z</time>
      </trkpt>
      <trkpt lat="59.9270216" lon="17.6412459">
        <ele>25.1317</ele>
        <time>2013-03-10T10:40:38Z</time>
      </trkpt>
      <trkpt lat="59.9270066" lon="17.641248">
        <ele>24.651</ele>
        <time>2013-03-10T10:40:39Z</time>
      </trkpt>
      <trkpt lat="59.9269921" lon="17.64125">
        <ele>24.651</ele>
        <time>2013-03-10T10:40:40Z</time>
      </trkpt>
      <trkpt lat="59.9269776" lon="17.6412535">
        <ele>24.651</ele>
        <time>2013-03-10T10:40:41Z</time>
      </trkpt>
      <trkpt lat="59.9269616" lon="17.6412565">
        <ele>24.651</ele>
        <time>2013-03-10T10:40:42Z</time>
      </trkpt>
      <trkpt lat="59.9269458" lon="17.6412592">
        <ele>24.1703</ele>
        <time>2013-03-10T10:40:43Z</time>
      </trkpt>
      <trkpt lat="59.9269308" lon="17.641263">
        <ele>24.1703</ele>
        <time>2013-03-10T10:40:44Z</time>
      </trkpt>
      <trkpt lat="59.9269178" lon="17.641265">
        <ele>24.1703</ele>
        <time>2013-03-10T10:40:45Z</time>
      </trkpt>
      <trkpt lat="59.926905" lon="17.6412675">
        <ele>24.1703</ele>
        <time>2013-03-10T10:40:46Z</time>
      </trkpt>
      <trkpt lat="59.9268915" lon="17.6412682">
        <ele>24.1703</ele>
        <time>2013-03-10T10:40:47Z</time>
      </trkpt>
      <trkpt lat="59.9268776" lon="17.6412705">
        <ele>24.1703</ele>
        <time>2013-03-10T10:40:48Z</time>
      </trkpt>
      <trkpt lat="59.9268645" lon="17.6412733">
        <ele>24.1703</ele>
        <time>2013-03-10T10:40:49Z</time>
      </trkpt>
      <trkpt lat="59.9268505" lon="17.6412768">
        <ele>24.1703</ele>
        <time>2013-03-10T10:40:50Z</time>
      </trkpt>
      <trkpt lat="59.9268355" lon="17.6412783">
        <ele>24.1703</ele>
        <time>2013-03-10T10:40:51Z</time>
      </trkpt>
      <trkpt lat="59.926821" lon="17.641279">
        <ele>24.651</ele>
        <time>2013-03-10T10:40:52Z</time>
      </trkpt>
      <trkpt lat="59.9268072" lon="17.6412801">
        <ele>24.1703</ele>
        <time>2013-03-10T10:40:53Z</time>
      </trkpt>
      <trkpt lat="59.926793" lon="17.6412814">
        <ele>24.1703</ele>
        <time>2013-03-10T10:40:54Z</time>
      </trkpt>
      <trkpt lat="59.9267785" lon="17.6412821">
        <ele>24.1703</ele>
        <time>2013-03-10T10:40:55Z</time>
      </trkpt>
      <trkpt lat="59.9267645" lon="17.6412845">
        <ele>24.1703</ele>
        <time>2013-03-10T10:40:56Z</time>
      </trkpt>
      <trkpt lat="59.9267502" lon="17.6412868">
        <ele>24.1703</ele>
        <time>2013-03-10T10:40:57Z</time>
      </trkpt>
      <trkpt lat="59.9267361" lon="17.6412871">
        <ele>24.1703</ele>
        <time>2013-03-10T10:40:58Z</time>
      </trkpt>
      <trkpt lat="59.9267223" lon="17.6412866">
        <ele>24.1703</ele>
        <time>2013-03-10T10:40:59Z</time>
      </trkpt>
      <trkpt lat="59.9267086" lon="17.6412878">
        <ele>24.1703</ele>
        <time>2013-03-10T10:41:00Z</time>
      </trkpt>
      <trkpt lat="59.9266941" lon="17.6412905">
        <ele>24.1703</ele>
        <time>2013-03-10T10:41:01Z</time>
      </trkpt>
      <trkpt lat="59.9266792" lon="17.6412925">
        <ele>24.1703</ele>
        <time>2013-03-10T10:41:02Z</time>
      </trkpt>
      <trkpt lat="59.9266645" lon="17.6412943">
        <ele>24.1703</ele>
        <time>2013-03-10T10:41:03Z</time>
      </trkpt>
      <trkpt lat="59.9266502" lon="17.6412961">
        <ele>24.1703</ele>
        <time>2013-03-10T10:41:04Z</time>
      </trkpt>
      <trkpt lat="59.926636" lon="17.6412985">
        <ele>24.1703</ele>
        <time>2013-03-10T10:41:05Z</time>
      </trkpt>
      <trkpt lat="59.9266215" lon="17.6413008">
        <ele>24.1703</ele>
        <time>2013-03-10T10:41:06Z</time>
      </trkpt>
      <trkpt lat="59.9266067" lon="17.6413024">
        <ele>24.1703</ele>
        <time>2013-03-10T10:41:07Z</time>
      </trkpt>
      <trkpt lat="59.9265917" lon="17.6413032">
        <ele>24.651</ele>
        <time>2013-03-10T10:41:08Z</time>
      </trkpt>
      <trkpt lat="59.926578" lon="17.6413026">
        <ele>24.1703</ele>
        <time>2013-03-10T10:41:09Z</time>
      </trkpt>
      <trkpt lat="59.9265642" lon="17.6413018">
        <ele>24.1703</ele>
        <time>2013-03-10T10:41:10Z</time>
      </trkpt>
      <trkpt lat="59.9265512" lon="17.6413018">
        <ele>24.1703</ele>
        <time>2013-03-10T10:41:11Z</time>
      </trkpt>
      <trkpt lat="59.9265409" lon="17.6413038">
        <ele>24.1703</ele>
        <time>2013-03-10T10:41:12Z</time>
      </trkpt>
      <trkpt lat="59.9265284" lon="17.6413083">
        <ele>23.6896</ele>
        <time>2013-03-10T10:41:13Z</time>
      </trkpt>
      <trkpt lat="59.9265119" lon="17.6413106">
        <ele>23.6896</ele>
        <time>2013-03-10T10:41:14Z</time>
      </trkpt>
      <trkpt lat="59.9264969" lon="17.64131">
        <ele>23.6896</ele>
        <time>2013-03-10T10:41:15Z</time>
      </trkpt>
      <trkpt lat="59.9264827" lon="17.6413095">
        <ele>23.6896</ele>
        <time>2013-03-10T10:41:16Z</time>
      </trkpt>
      <trkpt lat="59.9264687" lon="17.6413121">
        <ele>23.6896</ele>
        <time>2013-03-10T10:41:17Z</time>
      </trkpt>
      <trkpt lat="59.9264543" lon="17.6413151">
        <ele>23.6896</ele>
        <time>2013-03-10T10:41:18Z</time>
      </trkpt>
      <trkpt lat="59.9264397" lon="17.6413179">
        <ele>23.6896</ele>
        <time>2013-03-10T10:41:19Z</time>
      </trkpt>
      <trkpt lat="59.9264259" lon="17.6413207">
        <ele>23.6896</ele>
        <time>2013-03-10T10:41:20Z</time>
      </trkpt>
      <trkpt lat="59.9264123" lon="17.641324">
        <ele>23.6896</ele>
        <time>2013-03-10T10:41:21Z</time>
      </trkpt>
      <trkpt lat="59.9263979" lon="17.6413261">
        <ele>23.6896</ele>
        <time>2013-03-10T10:41:22Z</time>
      </trkpt>
      <trkpt lat="59.9263838" lon="17.6413277">
        <ele>23.6896</ele>
        <time>2013-03-10T10:41:23Z</time>
      </trkpt>
      <trkpt lat="59.92637" lon="17.6413313">
        <ele>23.6896</ele>
        <time>2013-03-10T10:41:24Z</time>
      </trkpt>
      <trkpt lat="59.9263558" lon="17.641335">
        <ele>23.6896</ele>
        <time>2013-03-10T10:41:25Z</time>
      </trkpt>
      <trkpt lat="59.9263423" lon="17.6413369">
        <ele>23.6896</ele>
        <time>2013-03-10T10:41:26Z</time>
      </trkpt>
      <trkpt lat="59.9263296" lon="17.6413368">
        <ele>23.209</ele>
        <time>2013-03-10T10:41:27Z</time>
      </trkpt>
      <trkpt lat="59.9263164" lon="17.6413375">
        <ele>23.209</ele>
        <time>2013-03-10T10:41:28Z</time>
      </trkpt>
      <trkpt lat="59.9263032" lon="17.6413394">
        <ele>23.209</ele>
        <time>2013-03-10T10:41:29Z</time>
      </trkpt>
      <trkpt lat="59.9262903" lon="17.6413411">
        <ele>23.209</ele>
        <time>2013-03-10T10:41:30Z</time>
      </trkpt>
      <trkpt lat="59.9262773" lon="17.6413423">
        <ele>23.209</ele>
        <time>2013-03-10T10:41:31Z</time>
      </trkpt>
      <trkpt lat="59.9262637" lon="17.641343">
        <ele>23.209</ele>
        <time>2013-03-10T10:41:32Z</time>
      </trkpt>
      <trkpt lat="59.9262497" lon="17.641343">
        <ele>23.209</ele>
        <time>2013-03-10T10:41:33Z</time>
      </trkpt>
      <trkpt lat="59.9262359" lon="17.6413432">
        <ele>23.209</ele>
        <time>2013-03-10T10:41:34Z</time>
      </trkpt>
      <trkpt lat="59.9262216" lon="17.6413441">
        <ele>23.209</ele>
        <time>2013-03-10T10:41:35Z</time>
      </trkpt>
      <trkpt lat="59.9262067" lon="17.6413452">
        <ele>23.209</ele>
        <time>2013-03-10T10:41:36Z</time>
      </trkpt>
      <trkpt lat="59.9261914" lon="17.6413467">
        <ele>23.209</ele>
        <time>2013-03-10T10:41:37Z</time>
      </trkpt>
      <trkpt lat="59.9261763" lon="17.6413488">
        <ele>23.209</ele>
        <time>2013-03-10T10:41:38Z</time>
      </trkpt>
      <trkpt lat="59.9261617" lon="17.6413508">
        <ele>23.209</ele>
        <time>2013-03-10T10:41:39Z</time>
      </trkpt>
      <trkpt lat="59.9261479" lon="17.641351">
        <ele>23.209</ele>
        <time>2013-03-10T10:41:40Z</time>
      </trkpt>
      <trkpt lat="59.9261347" lon="17.6413499">
        <ele>23.209</ele>
        <time>2013-03-10T10:41:41Z</time>
      </trkpt>
      <trkpt lat="59.9261213" lon="17.6413505">
        <ele>23.209</ele>
        <time>2013-03-10T10:41:42Z</time>
      </trkpt>
      <trkpt lat="59.9261083" lon="17.6413524">
        <ele>23.209</ele>
        <time>2013-03-10T10:41:43Z</time>
      </trkpt>
      <trkpt lat="59.9260948" lon="17.6413539">
        <ele>22.7283</ele>
        <time>2013-03-10T10:41:44Z</time>
      </trkpt>
      <trkpt lat="59.9260805" lon="17.6413542">
        <ele>23.209</ele>
        <time>2013-03-10T10:41:45Z</time>
      </trkpt>
      <trkpt lat="59.926066" lon="17.6413546">
        <ele>23.209</ele>
        <time>2013-03-10T10:41:46Z</time>
      </trkpt>
      <trkpt lat="59.9260519" lon="17.6413557">
        <ele>23.209</ele>
        <time>2013-03-10T10:41:47Z</time>
      </trkpt>
      <trkpt lat="59.9260375" lon="17.6413587">
        <ele>23.209</ele>
        <time>2013-03-10T10:41:48Z</time>
      </trkpt>
      <trkpt lat="59.9260227" lon="17.6413614">
        <ele>23.209</ele>
        <time>2013-03-10T10:41:49Z</time>
      </trkpt>
      <trkpt lat="59.9260074" lon="17.6413642">
        <ele>23.209</ele>
        <time>2013-03-10T10:41:50Z</time>
      </trkpt>
      <trkpt lat="59.9259913" lon="17.6413664">
        <ele>23.209</ele>
        <time>2013-03-10T10:41:51Z</time>
      </trkpt>
      <trkpt lat="59.9259753" lon="17.6413673">
        <ele>23.209</ele>
        <time>2013-03-10T10:41:52Z</time>
      </trkpt>
      <trkpt lat="59.92596" lon="17.6413677">
        <ele>23.209</ele>
        <time>2013-03-10T10:41:53Z</time>
      </trkpt>
      <trkpt lat="59.9259458" lon="17.6413692">
        <ele>23.209</ele>
        <time>2013-03-10T10:41:54Z</time>
      </trkpt>
      <trkpt lat="59.9259328" lon="17.6413705">
        <ele>23.209</ele>
        <time>2013-03-10T10:41:55Z</time>
      </trkpt>
      <trkpt lat="59.9259203" lon="17.6413717">
        <ele>23.209</ele>
        <time>2013-03-10T10:41:56Z</time>
      </trkpt>
      <trkpt lat="59.9259083" lon="17.6413726">
        <ele>23.209</ele>
        <time>2013-03-10T10:41:57Z</time>
      </trkpt>
      <trkpt lat="59.9258963" lon="17.6413742">
        <ele>23.209</ele>
        <time>2013-03-10T10:41:58Z</time>
      </trkpt>
      <trkpt lat="59.9258829" lon="17.6413777">
        <ele>23.6896</ele>
        <time>2013-03-10T10:41:59Z</time>
      </trkpt>
      <trkpt lat="59.9258711" lon="17.6413816">
        <ele>23.6896</ele>
        <time>2013-03-10T10:42:00Z</time>
      </trkpt>
      <trkpt lat="59.9258578" lon="17.641385">
        <ele>24.1703</ele>
        <time>2013-03-10T10:42:01Z</time>
      </trkpt>
      <trkpt lat="59.9258441" lon="17.641387">
        <ele>23.6896</ele>
        <time>2013-03-10T10:42:02Z</time>
      </trkpt>
      <trkpt lat="59.9258312" lon="17.6413884">
        <ele>23.6896</ele>
        <time>2013-03-10T10:42:03Z</time>
      </trkpt>
      <trkpt lat="59.9258178" lon="17.641391">
        <ele>23.6896</ele>
        <time>2013-03-10T10:42:04Z</time>
      </trkpt>
      <trkpt lat="59.9258038" lon="17.6413951">
        <ele>23.6896</ele>
        <time>2013-03-10T10:42:05Z</time>
      </trkpt>
      <trkpt lat="59.9257908" lon="17.6413976">
        <ele>23.6896</ele>
        <time>2013-03-10T10:42:06Z</time>
      </trkpt>
      <trkpt lat="59.9257788" lon="17.6413989">
        <ele>23.6896</ele>
        <time>2013-03-10T10:42:07Z</time>
      </trkpt>
      <trkpt lat="59.9257661" lon="17.6414002">
        <ele>23.6896</ele>
        <time>2013-03-10T10:42:08Z</time>
      </trkpt>
      <trkpt lat="59.9257529" lon="17.6414018">
        <ele>23.6896</ele>
        <time>2013-03-10T10:42:09Z</time>
      </trkpt>
      <trkpt lat="59.9257399" lon="17.6414034">
        <ele>23.6896</ele>
        <time>2013-03-10T10:42:10Z</time>
      </trkpt>
      <trkpt lat="59.9257267" lon="17.6414048">
        <ele>23.6896</ele>
        <time>2013-03-10T10:42:11Z</time>
      </trkpt>
      <trkpt lat="59.9257131" lon="17.6414055">
        <ele>23.6896</ele>
        <time>2013-03-10T10:42:12Z</time>
      </trkpt>
      <trkpt lat="59.9256997" lon="17.6414054">
        <ele>24.1703</ele>
        <time>2013-03-10T10:42:13Z</time>
      </trkpt>
      <trkpt lat="59.9256868" lon="17.6414052">
        <ele>24.1703</ele>
        <time>2013-03-10T10:42:14Z</time>
      </trkpt>
      <trkpt lat="59.9256737" lon="17.6414059">
        <ele>24.1703</ele>
        <time>2013-03-10T10:42:15Z</time>
      </trkpt>
      <trkpt lat="59.9256601" lon="17.6414074">
        <ele>24.1703</ele>
        <time>2013-03-10T10:42:16Z</time>
      </trkpt>
      <trkpt lat="59.9256459" lon="17.6414088">
        <ele>24.1703</ele>
        <time>2013-03-10T10:42:17Z</time>
      </trkpt>
      <trkpt lat="59.9256319" lon="17.6414108">
        <ele>24.1703</ele>
        <time>2013-03-10T10:42:18Z</time>
      </trkpt>
      <trkpt lat="59.9256182" lon="17.6414138">
        <ele>24.1703</ele>
        <time>2013-03-10T10:42:19Z</time>
      </trkpt>
      <trkpt lat="59.9256038" lon="17.6414168">
        <ele>24.1703</ele>
        <time>2013-03-10T10:42:20Z</time>
      </trkpt>
      <trkpt lat="59.9255898" lon="17.6414179">
        <ele>24.1703</ele>
        <time>2013-03-10T10:42:21Z</time>
      </trkpt>
      <trkpt lat="59.9255764" lon="17.6414184">
        <ele>24.1703</ele>
        <time>2013-03-10T10:42:22Z</time>
      </trkpt>
      <trkpt lat="59.9255635" lon="17.6414208">
        <ele>24.1703</ele>
        <time>2013-03-10T10:42:23Z</time>
      </trkpt>
      <trkpt lat="59.9255503" lon="17.6414225">
        <ele>24.1703</ele>
        <time>2013-03-10T10:42:24Z</time>
      </trkpt>
      <trkpt lat="59.925537" lon="17.641425">
        <ele>24.1703</ele>
        <time>2013-03-10T10:42:25Z</time>
      </trkpt>
      <trkpt lat="59.9255235" lon="17.6414277">
        <ele>24.1703</ele>
        <time>2013-03-10T10:42:26Z</time>
      </trkpt>
      <trkpt lat="59.9255096" lon="17.64143">
        <ele>24.1703</ele>
        <time>2013-03-10T10:42:27Z</time>
      </trkpt>
      <trkpt lat="59.9254956" lon="17.6414316">
        <ele>24.1703</ele>
        <time>2013-03-10T10:42:28Z</time>
      </trkpt>
      <trkpt lat="59.9254819" lon="17.6414288">
        <ele>24.1703</ele>
        <time>2013-03-10T10:42:29Z</time>
      </trkpt>
      <trkpt lat="59.9254705" lon="17.6414241">
        <ele>24.1703</ele>
        <time>2013-03-10T10:42:30Z</time>
      </trkpt>
      <trkpt lat="59.9254591" lon="17.6414231">
        <ele>24.1703</ele>
        <time>2013-03-10T10:42:31Z</time>
      </trkpt>
      <trkpt lat="59.925447" lon="17.6414257">
        <ele>23.6896</ele>
        <time>2013-03-10T10:42:32Z</time>
      </trkpt>
      <trkpt lat="59.9254328" lon="17.6414298">
        <ele>23.6896</ele>
        <time>2013-03-10T10:42:33Z</time>
      </trkpt>
      <trkpt lat="59.9254179" lon="17.6414313">
        <ele>23.6896</ele>
        <time>2013-03-10T10:42:34Z</time>
      </trkpt>
      <trkpt lat="59.9254034" lon="17.6414318">
        <ele>23.6896</ele>
        <time>2013-03-10T10:42:35Z</time>
      </trkpt>
      <trkpt lat="59.9253883" lon="17.6414318">
        <ele>23.6896</ele>
        <time>2013-03-10T10:42:36Z</time>
      </trkpt>
      <trkpt lat="59.9253732" lon="17.641434">
        <ele>23.209</ele>
        <time>2013-03-10T10:42:37Z</time>
      </trkpt>
      <trkpt lat="59.9253579" lon="17.6414373">
        <ele>23.209</ele>
        <time>2013-03-10T10:42:38Z</time>
      </trkpt>
      <trkpt lat="59.9253421" lon="17.6414375">
        <ele>23.6896</ele>
        <time>2013-03-10T10:42:39Z</time>
      </trkpt>
      <trkpt lat="59.9253271" lon="17.6414386">
        <ele>23.6896</ele>
        <time>2013-03-10T10:42:40Z</time>
      </trkpt>
      <trkpt lat="59.9253117" lon="17.6414414">
        <ele>23.209</ele>
        <time>2013-03-10T10:42:41Z</time>
      </trkpt>
      <trkpt lat="59.9252967" lon="17.6414437">
        <ele>23.6896</ele>
        <time>2013-03-10T10:42:42Z</time>
      </trkpt>
      <trkpt lat="59.9252832" lon="17.6414461">
        <ele>23.6896</ele>
        <time>2013-03-10T10:42:43Z</time>
      </trkpt>
      <trkpt lat="59.9252711" lon="17.6414478">
        <ele>23.6896</ele>
        <time>2013-03-10T10:42:44Z</time>
      </trkpt>
      <trkpt lat="59.9252576" lon="17.6414489">
        <ele>23.6896</ele>
        <time>2013-03-10T10:42:45Z</time>
      </trkpt>
      <trkpt lat="59.9252423" lon="17.6414489">
        <ele>23.6896</ele>
        <time>2013-03-10T10:42:46Z</time>
      </trkpt>
      <trkpt lat="59.9252262" lon="17.6414481">
        <ele>23.6896</ele>
        <time>2013-03-10T10:42:47Z</time>
      </trkpt>
      <trkpt lat="59.9252122" lon="17.6414494">
        <ele>24.1703</ele>
        <time>2013-03-10T10:42:48Z</time>
      </trkpt>
      <trkpt lat="59.9251963" lon="17.6414516">
        <ele>24.1703</ele>
        <time>2013-03-10T10:42:49Z</time>
      </trkpt>
      <trkpt lat="59.9251794" lon="17.6414528">
        <ele>24.1703</ele>
        <time>2013-03-10T10:42:50Z</time>
      </trkpt>
      <trkpt lat="59.9251638" lon="17.6414544">
        <ele>24.1703</ele>
        <time>2013-03-10T10:42:51Z</time>
      </trkpt>
      <trkpt lat="59.9251495" lon="17.6414577">
        <ele>24.1703</ele>
        <time>2013-03-10T10:42:52Z</time>
      </trkpt>
      <trkpt lat="59.9251345" lon="17.6414592">
        <ele>24.1703</ele>
        <time>2013-03-10T10:42:53Z</time>
      </trkpt>
      <trkpt lat="59.9251195" lon="17.6414595">
        <ele>24.1703</ele>
        <time>2013-03-10T10:42:54Z</time>
      </trkpt>
      <trkpt lat="59.9251048" lon="17.6414588">
        <ele>24.651</ele>
        <time>2013-03-10T10:42:55Z</time>
      </trkpt>
      <trkpt lat="59.92509" lon="17.6414593">
        <ele>24.651</ele>
        <time>2013-03-10T10:42:56Z</time>
      </trkpt>
      <trkpt lat="59.9250745" lon="17.6414592">
        <ele>24.651</ele>
        <time>2013-03-10T10:42:57Z</time>
      </trkpt>
      <trkpt lat="59.925059" lon="17.6414588">
        <ele>24.651</ele>
        <time>2013-03-10T10:42:58Z</time>
      </trkpt>
      <trkpt lat="59.9250435" lon="17.6414573">
        <ele>24.651</ele>
        <time>2013-03-10T10:42:59Z</time>
      </trkpt>
      <trkpt lat="59.9250283" lon="17.6414564">
        <ele>25.1317</ele>
        <time>2013-03-10T10:43:00Z</time>
      </trkpt>
      <trkpt lat="59.9250129" lon="17.6414551">
        <ele>25.1317</ele>
        <time>2013-03-10T10:43:01Z</time>
      </trkpt>
      <trkpt lat="59.9249977" lon="17.6414524">
        <ele>25.1317</ele>
        <time>2013-03-10T10:43:02Z</time>
      </trkpt>
      <trkpt lat="59.9249829" lon="17.6414504">
        <ele>25.1317</ele>
        <time>2013-03-10T10:43:03Z</time>
      </trkpt>
      <trkpt lat="59.924968" lon="17.6414505">
        <ele>25.1317</ele>
        <time>2013-03-10T10:43:04Z</time>
      </trkpt>
      <trkpt lat="59.9249526" lon="17.6414505">
        <ele>25.1317</ele>
        <time>2013-03-10T10:43:05Z</time>
      </trkpt>
      <trkpt lat="59.9249373" lon="17.6414511">
        <ele>25.1317</ele>
        <time>2013-03-10T10:43:06Z</time>
      </trkpt>
      <trkpt lat="59.9249216" lon="17.6414509">
        <ele>25.6123</ele>
        <time>2013-03-10T10:43:07Z</time>
      </trkpt>
      <trkpt lat="59.9249054" lon="17.6414528">
        <ele>25.6123</ele>
        <time>2013-03-10T10:43:08Z</time>
      </trkpt>
      <trkpt lat="59.9248886" lon="17.6414585">
        <ele>25.6123</ele>
        <time>2013-03-10T10:43:09Z</time>
      </trkpt>
      <trkpt lat="59.9248723" lon="17.6414618">
        <ele>25.6123</ele>
        <time>2013-03-10T10:43:10Z</time>
      </trkpt>
      <trkpt lat="59.9248563" lon="17.6414665">
        <ele>25.6123</ele>
        <time>2013-03-10T10:43:11Z</time>
      </trkpt>
      <trkpt lat="59.9248408" lon="17.6414711">
        <ele>26.0929</ele>
        <time>2013-03-10T10:43:12Z</time>
      </trkpt>
      <trkpt lat="59.9248257" lon="17.6414736">
        <ele>26.0929</ele>
        <time>2013-03-10T10:43:13Z</time>
      </trkpt>
      <trkpt lat="59.9248106" lon="17.6414761">
        <ele>26.0929</ele>
        <time>2013-03-10T10:43:14Z</time>
      </trkpt>
      <trkpt lat="59.9247952" lon="17.6414778">
        <ele>26.0929</ele>
        <time>2013-03-10T10:43:15Z</time>
      </trkpt>
      <trkpt lat="59.9247796" lon="17.6414797">
        <ele>26.0929</ele>
        <time>2013-03-10T10:43:16Z</time>
      </trkpt>
      <trkpt lat="59.9247646" lon="17.6414811">
        <ele>26.0929</ele>
        <time>2013-03-10T10:43:17Z</time>
      </trkpt>
      <trkpt lat="59.9247497" lon="17.6414835">
        <ele>26.5736</ele>
        <time>2013-03-10T10:43:18Z</time>
      </trkpt>
      <trkpt lat="59.9247345" lon="17.641486">
        <ele>26.5736</ele>
        <time>2013-03-10T10:43:19Z</time>
      </trkpt>
      <trkpt lat="59.9247197" lon="17.6414877">
        <ele>26.5736</ele>
        <time>2013-03-10T10:43:20Z</time>
      </trkpt>
      <trkpt lat="59.9247051" lon="17.6414906">
        <ele>26.5736</ele>
        <time>2013-03-10T10:43:21Z</time>
      </trkpt>
      <trkpt lat="59.9246899" lon="17.6414946">
        <ele>26.5736</ele>
        <time>2013-03-10T10:43:22Z</time>
      </trkpt>
      <trkpt lat="59.9246744" lon="17.6414981">
        <ele>27.0543</ele>
        <time>2013-03-10T10:43:23Z</time>
      </trkpt>
      <trkpt lat="59.9246583" lon="17.6415018">
        <ele>27.0543</ele>
        <time>2013-03-10T10:43:24Z</time>
      </trkpt>
      <trkpt lat="59.9246433" lon="17.6415063">
        <ele>27.0543</ele>
        <time>2013-03-10T10:43:25Z</time>
      </trkpt>
      <trkpt lat="59.9246288" lon="17.6415109">
        <ele>27.0543</ele>
        <time>2013-03-10T10:43:26Z</time>
      </trkpt>
      <trkpt lat="59.9246144" lon="17.641517">
        <ele>27.0543</ele>
        <time>2013-03-10T10:43:27Z</time>
      </trkpt>
      <trkpt lat="59.9245995" lon="17.641522">
        <ele>26.5736</ele>
        <time>2013-03-10T10:43:28Z</time>
      </trkpt>
      <trkpt lat="59.9245832" lon="17.6415271">
        <ele>26.5736</ele>
        <time>2013-03-10T10:43:29Z</time>
      </trkpt>
      <trkpt lat="59.9245674" lon="17.6415301">
        <ele>26.5736</ele>
        <time>2013-03-10T10:43:30Z</time>
      </trkpt>
      <trkpt lat="59.9245526" lon="17.6415315">
        <ele>26.5736</ele>
        <time>2013-03-10T10:43:31Z</time>
      </trkpt>
      <trkpt lat="59.9245391" lon="17.6415353">
        <ele>26.5736</ele>
        <time>2013-03-10T10:43:32Z</time>
      </trkpt>
      <trkpt lat="59.9245259" lon="17.6415426">
        <ele>26.5736</ele>
        <time>2013-03-10T10:43:33Z</time>
      </trkpt>
      <trkpt lat="59.9245113" lon="17.6415488">
        <ele>26.5736</ele>
        <time>2013-03-10T10:43:34Z</time>
      </trkpt>
      <trkpt lat="59.9244962" lon="17.6415545">
        <ele>27.0543</ele>
        <time>2013-03-10T10:43:35Z</time>
      </trkpt>
      <trkpt lat="59.9244824" lon="17.6415619">
        <ele>27.0543</ele>
        <time>2013-03-10T10:43:36Z</time>
      </trkpt>
      <trkpt lat="59.9244694" lon="17.6415655">
        <ele>27.0543</ele>
        <time>2013-03-10T10:43:37Z</time>
      </trkpt>
      <trkpt lat="59.9244552" lon="17.6415675">
        <ele>27.0543</ele>
        <time>2013-03-10T10:43:38Z</time>
      </trkpt>
      <trkpt lat="59.9244412" lon="17.6415702">
        <ele>27.0543</ele>
        <time>2013-03-10T10:43:39Z</time>
      </trkpt>
      <trkpt lat="59.9244273" lon="17.6415731">
        <ele>27.0543</ele>
        <time>2013-03-10T10:43:40Z</time>
      </trkpt>
      <trkpt lat="59.9244135" lon="17.6415737">
        <ele>27.0543</ele>
        <time>2013-03-10T10:43:41Z</time>
      </trkpt>
      <trkpt lat="59.9244006" lon="17.6415758">
        <ele>27.0543</ele>
        <time>2013-03-10T10:43:42Z</time>
      </trkpt>
      <trkpt lat="59.9243876" lon="17.6415783">
        <ele>26.5736</ele>
        <time>2013-03-10T10:43:43Z</time>
      </trkpt>
      <trkpt lat="59.9243729" lon="17.6415793">
        <ele>26.5736</ele>
        <time>2013-03-10T10:43:44Z</time>
      </trkpt>
      <trkpt lat="59.9243583" lon="17.6415833">
        <ele>26.5736</ele>
        <time>2013-03-10T10:43:45Z</time>
      </trkpt>
      <trkpt lat="59.924343" lon="17.6415854">
        <ele>26.5736</ele>
        <time>2013-03-10T10:43:46Z</time>
      </trkpt>
      <trkpt lat="59.9243284" lon="17.6415873">
        <ele>26.5736</ele>
        <time>2013-03-10T10:43:47Z</time>
      </trkpt>
      <trkpt lat="59.9243146" lon="17.6415887">
        <ele>26.5736</ele>
        <time>2013-03-10T10:43:48Z</time>
      </trkpt>
      <trkpt lat="59.9243017" lon="17.6415903">
        <ele>26.5736</ele>
        <time>2013-03-10T10:43:49Z</time>
      </trkpt>
      <trkpt lat="59.9242884" lon="17.6415898">
        <ele>26.5736</ele>
        <time>2013-03-10T10:43:50Z</time>
      </trkpt>
      <trkpt lat="59.9242739" lon="17.6415898">
        <ele>26.5736</ele>
        <time>2013-03-10T10:43:51Z</time>
      </trkpt>
      <trkpt lat="59.9242592" lon="17.6415913">
        <ele>26.5736</ele>
        <time>2013-03-10T10:43:52Z</time>
      </trkpt>
      <trkpt lat="59.9242446" lon="17.6415938">
        <ele>26.5736</ele>
        <time>2013-03-10T10:43:53Z</time>
      </trkpt>
      <trkpt lat="59.9242294" lon="17.641598">
        <ele>27.0543</ele>
        <time>2013-03-10T10:43:54Z</time>
      </trkpt>
      <trkpt lat="59.9242139" lon="17.6416006">
        <ele>27.0543</ele>
        <time>2013-03-10T10:43:55Z</time>
      </trkpt>
      <trkpt lat="59.9241991" lon="17.6416018">
        <ele>27.0543</ele>
        <time>2013-03-10T10:43:56Z</time>
      </trkpt>
      <trkpt lat="59.9241855" lon="17.6416067">
        <ele>27.0543</ele>
        <time>2013-03-10T10:43:57Z</time>
      </trkpt>
      <trkpt lat="59.9241718" lon="17.6416099">
        <ele>27.0543</ele>
        <time>2013-03-10T10:43:58Z</time>
      </trkpt>
      <trkpt lat="59.9241577" lon="17.6416121">
        <ele>27.5349</ele>
        <time>2013-03-10T10:43:59Z</time>
      </trkpt>
      <trkpt lat="59.9241429" lon="17.6416129">
        <ele>27.5349</ele>
        <time>2013-03-10T10:44:00Z</time>
      </trkpt>
      <trkpt lat="59.9241284" lon="17.6416134">
        <ele>27.5349</ele>
        <time>2013-03-10T10:44:01Z</time>
      </trkpt>
      <trkpt lat="59.9241139" lon="17.6416131">
        <ele>27.5349</ele>
        <time>2013-03-10T10:44:02Z</time>
      </trkpt>
      <trkpt lat="59.9241001" lon="17.641613">
        <ele>27.5349</ele>
        <time>2013-03-10T10:44:03Z</time>
      </trkpt>
      <trkpt lat="59.9240864" lon="17.6416141">
        <ele>27.5349</ele>
        <time>2013-03-10T10:44:04Z</time>
      </trkpt>
      <trkpt lat="59.9240722" lon="17.641614">
        <ele>27.5349</ele>
        <time>2013-03-10T10:44:05Z</time>
      </trkpt>
      <trkpt lat="59.9240576" lon="17.6416139">
        <ele>27.5349</ele>
        <time>2013-03-10T10:44:06Z</time>
      </trkpt>
      <trkpt lat="59.9240426" lon="17.6416135">
        <ele>28.0155</ele>
        <time>2013-03-10T10:44:07Z</time>
      </trkpt>
      <trkpt lat="59.9240359" lon="17.6416118">
        <ele>27.5349</ele>
        <time>2013-03-10T10:44:08Z</time>
      </trkpt>
      <trkpt lat="59.9240299" lon="17.6416122">
        <ele>27.0543</ele>
        <time>2013-03-10T10:44:09Z</time>
      </trkpt>
      <trkpt lat="59.9240212" lon="17.6416141">
        <ele>26.5736</ele>
        <time>2013-03-10T10:44:10Z</time>
      </trkpt>
      <trkpt lat="59.9240108" lon="17.6416145">
        <ele>26.5736</ele>
        <time>2013-03-10T10:44:11Z</time>
      </trkpt>
      <trkpt lat="59.9240001" lon="17.6416147">
        <ele>26.0929</ele>
        <time>2013-03-10T10:44:12Z</time>
      </trkpt>
      <trkpt lat="59.9239892" lon="17.6416132">
        <ele>26.0929</ele>
        <time>2013-03-10T10:44:13Z</time>
      </trkpt>
      <trkpt lat="59.9239777" lon="17.6416113">
        <ele>26.0929</ele>
        <time>2013-03-10T10:44:14Z</time>
      </trkpt>
      <trkpt lat="59.9239672" lon="17.6416089">
        <ele>25.6123</ele>
        <time>2013-03-10T10:44:15Z</time>
      </trkpt>
      <trkpt lat="59.9239565" lon="17.6416068">
        <ele>25.6123</ele>
        <time>2013-03-10T10:44:16Z</time>
      </trkpt>
      <trkpt lat="59.9239431" lon="17.6416075">
        <ele>25.6123</ele>
        <time>2013-03-10T10:44:17Z</time>
      </trkpt>
      <trkpt lat="59.9239289" lon="17.6416059">
        <ele>25.6123</ele>
        <time>2013-03-10T10:44:18Z</time>
      </trkpt>
      <trkpt lat="59.9239154" lon="17.6416037">
        <ele>25.1317</ele>
        <time>2013-03-10T10:44:19Z</time>
      </trkpt>
      <trkpt lat="59.9239009" lon="17.6416023">
        <ele>25.6123</ele>
        <time>2013-03-10T10:44:20Z</time>
      </trkpt>
      <trkpt lat="59.9238875" lon="17.6416022">
        <ele>25.6123</ele>
        <time>2013-03-10T10:44:21Z</time>
      </trkpt>
      <trkpt lat="59.9238732" lon="17.6416013">
        <ele>25.1317</ele>
        <time>2013-03-10T10:44:22Z</time>
      </trkpt>
      <trkpt lat="59.9238592" lon="17.6416023">
        <ele>25.1317</ele>
        <time>2013-03-10T10:44:23Z</time>
      </trkpt>
      <trkpt lat="59.9238447" lon="17.6416042">
        <ele>25.6123</ele>
        <time>2013-03-10T10:44:24Z</time>
      </trkpt>
      <trkpt lat="59.9238305" lon="17.6416054">
        <ele>25.6123</ele>
        <time>2013-03-10T10:44:25Z</time>
      </trkpt>
      <trkpt lat="59.9238184" lon="17.6416064">
        <ele>25.6123</ele>
        <time>2013-03-10T10:44:26Z</time>
      </trkpt>
      <trkpt lat="59.9238067" lon="17.6416065">
        <ele>26.0929</ele>
        <time>2013-03-10T10:44:27Z</time>
      </trkpt>
      <trkpt lat="59.9237958" lon="17.6416087">
        <ele>25.6123</ele>
        <time>2013-03-10T10:44:28Z</time>
      </trkpt>
      <trkpt lat="59.9237828" lon="17.6416109">
        <ele>26.0929</ele>
        <time>2013-03-10T10:44:29Z</time>
      </trkpt>
      <trkpt lat="59.9237689" lon="17.6416132">
        <ele>26.0929</ele>
        <time>2013-03-10T10:44:30Z</time>
      </trkpt>
      <trkpt lat="59.9237539" lon="17.6416149">
        <ele>26.0929</ele>
        <time>2013-03-10T10:44:31Z</time>
      </trkpt>
      <trkpt lat="59.9237396" lon="17.6416142">
        <ele>26.0929</ele>
        <time>2013-03-10T10:44:32Z</time>
      </trkpt>
      <trkpt lat="59.923726" lon="17.6416151">
        <ele>26.0929</ele>
        <time>2013-03-10T10:44:33Z</time>
      </trkpt>
      <trkpt lat="59.9237115" lon="17.6416155">
        <ele>26.0929</ele>
        <time>2013-03-10T10:44:34Z</time>
      </trkpt>
      <trkpt lat="59.9236974" lon="17.6416152">
        <ele>26.0929</ele>
        <time>2013-03-10T10:44:35Z</time>
      </trkpt>
      <trkpt lat="59.9236829" lon="17.641615">
        <ele>26.0929</ele>
        <time>2013-03-10T10:44:36Z</time>
      </trkpt>
      <trkpt lat="59.9236666" lon="17.6416141">
        <ele>26.0929</ele>
        <time>2013-03-10T10:44:37Z</time>
      </trkpt>
      <trkpt lat="59.9236494" lon="17.6416105">
        <ele>26.5736</ele>
        <time>2013-03-10T10:44:38Z</time>
      </trkpt>
      <trkpt lat="59.9236396" lon="17.6416068">
        <ele>26.0929</ele>
        <time>2013-03-10T10:44:39Z</time>
      </trkpt>
      <trkpt lat="59.9236297" lon="17.6416089">
        <ele>26.0929</ele>
        <time>2013-03-10T10:44:40Z</time>
      </trkpt>
      <trkpt lat="59.9236183" lon="17.6416139">
        <ele>26.0929</ele>
        <time>2013-03-10T10:44:41Z</time>
      </trkpt>
      <trkpt lat="59.9236037" lon="17.6416204">
        <ele>26.0929</ele>
        <time>2013-03-10T10:44:42Z</time>
      </trkpt>
      <trkpt lat="59.9235875" lon="17.6416229">
        <ele>26.5736</ele>
        <time>2013-03-10T10:44:43Z</time>
      </trkpt>
      <trkpt lat="59.9235726" lon="17.6416255">
        <ele>26.5736</ele>
        <time>2013-03-10T10:44:44Z</time>
      </trkpt>
      <trkpt lat="59.923557" lon="17.6416284">
        <ele>26.5736</ele>
        <time>2013-03-10T10:44:45Z</time>
      </trkpt>
      <trkpt lat="59.9235417" lon="17.6416307">
        <ele>26.5736</ele>
        <time>2013-03-10T10:44:46Z</time>
      </trkpt>
      <trkpt lat="59.9235282" lon="17.6416326">
        <ele>26.5736</ele>
        <time>2013-03-10T10:44:47Z</time>
      </trkpt>
      <trkpt lat="59.9235125" lon="17.6416343">
        <ele>27.0543</ele>
        <time>2013-03-10T10:44:48Z</time>
      </trkpt>
      <trkpt lat="59.9234971" lon="17.6416379">
        <ele>27.0543</ele>
        <time>2013-03-10T10:44:49Z</time>
      </trkpt>
      <trkpt lat="59.9234857" lon="17.6416414">
        <ele>27.0543</ele>
        <time>2013-03-10T10:44:50Z</time>
      </trkpt>
      <trkpt lat="59.9234747" lon="17.6416438">
        <ele>27.0543</ele>
        <time>2013-03-10T10:44:51Z</time>
      </trkpt>
      <trkpt lat="59.9234642" lon="17.6416468">
        <ele>27.0543</ele>
        <time>2013-03-10T10:44:52Z</time>
      </trkpt>
      <trkpt lat="59.9234536" lon="17.6416483">
        <ele>26.5736</ele>
        <time>2013-03-10T10:44:53Z</time>
      </trkpt>
      <trkpt lat="59.9234423" lon="17.6416499">
        <ele>26.5736</ele>
        <time>2013-03-10T10:44:54Z</time>
      </trkpt>
      <trkpt lat="59.9234311" lon="17.641653">
        <ele>26.5736</ele>
        <time>2013-03-10T10:44:55Z</time>
      </trkpt>
      <trkpt lat="59.9234204" lon="17.6416556">
        <ele>26.5736</ele>
        <time>2013-03-10T10:44:56Z</time>
      </trkpt>
      <trkpt lat="59.9234095" lon="17.6416571">
        <ele>26.5736</ele>
        <time>2013-03-10T10:44:57Z</time>
      </trkpt>
      <trkpt lat="59.9233991" lon="17.6416593">
        <ele>26.5736</ele>
        <time>2013-03-10T10:44:58Z</time>
      </trkpt>
      <trkpt lat="59.9233883" lon="17.6416623">
        <ele>26.5736</ele>
        <time>2013-03-10T10:44:59Z</time>
      </trkpt>
      <trkpt lat="59.9233775" lon="17.6416643">
        <ele>26.5736</ele>
        <time>2013-03-10T10:45:00Z</time>
      </trkpt>
      <trkpt lat="59.9233672" lon="17.6416662">
        <ele>26.5736</ele>
        <time>2013-03-10T10:45:01Z</time>
      </trkpt>
      <trkpt lat="59.9233573" lon="17.6416665">
        <ele>26.5736</ele>
        <time>2013-03-10T10:45:02Z</time>
      </trkpt>
      <trkpt lat="59.9233477" lon="17.6416654">
        <ele>26.5736</ele>
        <time>2013-03-10T10:45:03Z</time>
      </trkpt>
      <trkpt lat="59.9233373" lon="17.6416647">
        <ele>26.5736</ele>
        <time>2013-03-10T10:45:04Z</time>
      </trkpt>
      <trkpt lat="59.9233256" lon="17.6416668">
        <ele>26.5736</ele>
        <time>2013-03-10T10:45:05Z</time>
      </trkpt>
      <trkpt lat="59.9233131" lon="17.64167">
        <ele>26.5736</ele>
        <time>2013-03-10T10:45:06Z</time>
      </trkpt>
      <trkpt lat="59.9233016" lon="17.6416725">
        <ele>26.5736</ele>
        <time>2013-03-10T10:45:07Z</time>
      </trkpt>
      <trkpt lat="59.9232919" lon="17.6416737">
        <ele>26.5736</ele>
        <time>2013-03-10T10:45:08Z</time>
      </trkpt>
      <trkpt lat="59.9232802" lon="17.6416753">
        <ele>27.0543</ele>
        <time>2013-03-10T10:45:09Z</time>
      </trkpt>
      <trkpt lat="59.9232681" lon="17.6416773">
        <ele>27.0543</ele>
        <time>2013-03-10T10:45:10Z</time>
      </trkpt>
      <trkpt lat="59.9232567" lon="17.6416789">
        <ele>27.0543</ele>
        <time>2013-03-10T10:45:11Z</time>
      </trkpt>
      <trkpt lat="59.9232442" lon="17.6416784">
        <ele>26.5736</ele>
        <time>2013-03-10T10:45:12Z</time>
      </trkpt>
      <trkpt lat="59.9232313" lon="17.6416773">
        <ele>26.5736</ele>
        <time>2013-03-10T10:45:13Z</time>
      </trkpt>
      <trkpt lat="59.9232192" lon="17.6416797">
        <ele>26.5736</ele>
        <time>2013-03-10T10:45:14Z</time>
      </trkpt>
      <trkpt lat="59.9232071" lon="17.6416807">
        <ele>26.5736</ele>
        <time>2013-03-10T10:45:15Z</time>
      </trkpt>
      <trkpt lat="59.9231946" lon="17.6416799">
        <ele>26.5736</ele>
        <time>2013-03-10T10:45:16Z</time>
      </trkpt>
      <trkpt lat="59.923182" lon="17.6416798">
        <ele>26.5736</ele>
        <time>2013-03-10T10:45:17Z</time>
      </trkpt>
      <trkpt lat="59.92317" lon="17.6416802">
        <ele>26.5736</ele>
        <time>2013-03-10T10:45:18Z</time>
      </trkpt>
      <trkpt lat="59.9231589" lon="17.6416809">
        <ele>26.5736</ele>
        <time>2013-03-10T10:45:19Z</time>
      </trkpt>
      <trkpt lat="59.9231485" lon="17.6416816">
        <ele>26.5736</ele>
        <time>2013-03-10T10:45:20Z</time>
      </trkpt>
      <trkpt lat="59.923138" lon="17.6416812">
        <ele>26.0929</ele>
        <time>2013-03-10T10:45:21Z</time>
      </trkpt>
      <trkpt lat="59.9231277" lon="17.6416809">
        <ele>26.0929</ele>
        <time>2013-03-10T10:45:22Z</time>
      </trkpt>
      <trkpt lat="59.9231172" lon="17.6416819">
        <ele>26.0929</ele>
        <time>2013-03-10T10:45:23Z</time>
      </trkpt>
      <trkpt lat="59.9231063" lon="17.6416829">
        <ele>26.0929</ele>
        <time>2013-03-10T10:45:24Z</time>
      </trkpt>
      <trkpt lat="59.9230956" lon="17.6416829">
        <ele>26.0929</ele>
        <time>2013-03-10T10:45:25Z</time>
      </trkpt>
      <trkpt lat="59.9230843" lon="17.6416835">
        <ele>25.6123</ele>
        <time>2013-03-10T10:45:26Z</time>
      </trkpt>
      <trkpt lat="59.9230733" lon="17.6416845">
        <ele>26.0929</ele>
        <time>2013-03-10T10:45:27Z</time>
      </trkpt>
      <trkpt lat="59.9230624" lon="17.6416847">
        <ele>26.0929</ele>
        <time>2013-03-10T10:45:28Z</time>
      </trkpt>
      <trkpt lat="59.9230512" lon="17.6416854">
        <ele>25.6123</ele>
        <time>2013-03-10T10:45:29Z</time>
      </trkpt>
      <trkpt lat="59.9230406" lon="17.6416866">
        <ele>25.6123</ele>
        <time>2013-03-10T10:45:30Z</time>
      </trkpt>
      <trkpt lat="59.92303" lon="17.6416856">
        <ele>25.6123</ele>
        <time>2013-03-10T10:45:31Z</time>
      </trkpt>
      <trkpt lat="59.9230194" lon="17.6416829">
        <ele>25.6123</ele>
        <time>2013-03-10T10:45:32Z</time>
      </trkpt>
      <trkpt lat="59.9230082" lon="17.641683">
        <ele>25.6123</ele>
        <time>2013-03-10T10:45:33Z</time>
      </trkpt>
      <trkpt lat="59.9229968" lon="17.6416849">
        <ele>25.6123</ele>
        <time>2013-03-10T10:45:34Z</time>
      </trkpt>
      <trkpt lat="59.9229859" lon="17.6416886">
        <ele>25.6123</ele>
        <time>2013-03-10T10:45:35Z</time>
      </trkpt>
      <trkpt lat="59.9229742" lon="17.6416921">
        <ele>25.6123</ele>
        <time>2013-03-10T10:45:36Z</time>
      </trkpt>
      <trkpt lat="59.9229631" lon="17.6416954">
        <ele>25.6123</ele>
        <time>2013-03-10T10:45:37Z</time>
      </trkpt>
      <trkpt lat="59.9229519" lon="17.6416966">
        <ele>25.6123</ele>
        <time>2013-03-10T10:45:38Z</time>
      </trkpt>
      <trkpt lat="59.9229401" lon="17.6416952">
        <ele>25.6123</ele>
        <time>2013-03-10T10:45:39Z</time>
      </trkpt>
      <trkpt lat="59.9229278" lon="17.6416929">
        <ele>25.6123</ele>
        <time>2013-03-10T10:45:40Z</time>
      </trkpt>
      <trkpt lat="59.9229154" lon="17.6416927">
        <ele>25.6123</ele>
        <time>2013-03-10T10:45:41Z</time>
      </trkpt>
      <trkpt lat="59.9229025" lon="17.6416939">
        <ele>25.6123</ele>
        <time>2013-03-10T10:45:42Z</time>
      </trkpt>
      <trkpt lat="59.9228891" lon="17.6416943">
        <ele>25.6123</ele>
        <time>2013-03-10T10:45:43Z</time>
      </trkpt>
      <trkpt lat="59.9228766" lon="17.6416923">
        <ele>26.0929</ele>
        <time>2013-03-10T10:45:44Z</time>
      </trkpt>
      <trkpt lat="59.9228649" lon="17.6416939">
        <ele>26.0929</ele>
        <time>2013-03-10T10:45:45Z</time>
      </trkpt>
      <trkpt lat="59.922853" lon="17.6416942">
        <ele>26.0929</ele>
        <time>2013-03-10T10:45:46Z</time>
      </trkpt>
      <trkpt lat="59.9228403" lon="17.6416942">
        <ele>26.0929</ele>
        <time>2013-03-10T10:45:47Z</time>
      </trkpt>
      <trkpt lat="59.9228279" lon="17.6416968">
        <ele>26.0929</ele>
        <time>2013-03-10T10:45:48Z</time>
      </trkpt>
      <trkpt lat="59.9228162" lon="17.6416976">
        <ele>26.0929</ele>
        <time>2013-03-10T10:45:49Z</time>
      </trkpt>
      <trkpt lat="59.9228051" lon="17.6416975">
        <ele>26.0929</ele>
        <time>2013-03-10T10:45:50Z</time>
      </trkpt>
      <trkpt lat="59.9227939" lon="17.6417002">
        <ele>26.0929</ele>
        <time>2013-03-10T10:45:51Z</time>
      </trkpt>
      <trkpt lat="59.9227815" lon="17.6417027">
        <ele>26.0929</ele>
        <time>2013-03-10T10:45:52Z</time>
      </trkpt>
      <trkpt lat="59.9227697" lon="17.6417048">
        <ele>26.0929</ele>
        <time>2013-03-10T10:45:53Z</time>
      </trkpt>
      <trkpt lat="59.9227573" lon="17.6417051">
        <ele>25.6123</ele>
        <time>2013-03-10T10:45:54Z</time>
      </trkpt>
      <trkpt lat="59.9227442" lon="17.6417048">
        <ele>25.6123</ele>
        <time>2013-03-10T10:45:55Z</time>
      </trkpt>
      <trkpt lat="59.9227319" lon="17.6417071">
        <ele>25.6123</ele>
        <time>2013-03-10T10:45:56Z</time>
      </trkpt>
      <trkpt lat="59.9227193" lon="17.6417094">
        <ele>25.6123</ele>
        <time>2013-03-10T10:45:57Z</time>
      </trkpt>
      <trkpt lat="59.9227045" lon="17.6417101">
        <ele>25.1317</ele>
        <time>2013-03-10T10:45:58Z</time>
      </trkpt>
      <trkpt lat="59.9226895" lon="17.6417151">
        <ele>25.1317</ele>
        <time>2013-03-10T10:45:59Z</time>
      </trkpt>
      <trkpt lat="59.9226746" lon="17.6417225">
        <ele>25.1317</ele>
        <time>2013-03-10T10:46:00Z</time>
      </trkpt>
      <trkpt lat="59.9226593" lon="17.6417258">
        <ele>25.1317</ele>
        <time>2013-03-10T10:46:01Z</time>
      </trkpt>
      <trkpt lat="59.9226427" lon="17.6417258">
        <ele>25.1317</ele>
        <time>2013-03-10T10:46:02Z</time>
      </trkpt>
      <trkpt lat="59.9226279" lon="17.6417258">
        <ele>25.1317</ele>
        <time>2013-03-10T10:46:03Z</time>
      </trkpt>
      <trkpt lat="59.9226144" lon="17.6417265">
        <ele>25.1317</ele>
        <time>2013-03-10T10:46:04Z</time>
      </trkpt>
      <trkpt lat="59.9226009" lon="17.6417282">
        <ele>25.1317</ele>
        <time>2013-03-10T10:46:05Z</time>
      </trkpt>
      <trkpt lat="59.9225874" lon="17.6417312">
        <ele>24.651</ele>
        <time>2013-03-10T10:46:06Z</time>
      </trkpt>
      <trkpt lat="59.9225734" lon="17.6417346">
        <ele>24.651</ele>
        <time>2013-03-10T10:46:07Z</time>
      </trkpt>
      <trkpt lat="59.9225599" lon="17.6417353">
        <ele>24.651</ele>
        <time>2013-03-10T10:46:08Z</time>
      </trkpt>
      <trkpt lat="59.9225455" lon="17.6417353">
        <ele>24.651</ele>
        <time>2013-03-10T10:46:09Z</time>
      </trkpt>
      <trkpt lat="59.922531" lon="17.6417358">
        <ele>24.651</ele>
        <time>2013-03-10T10:46:10Z</time>
      </trkpt>
      <trkpt lat="59.9225169" lon="17.6417375">
        <ele>24.651</ele>
        <time>2013-03-10T10:46:11Z</time>
      </trkpt>
      <trkpt lat="59.9225023" lon="17.6417413">
        <ele>24.651</ele>
        <time>2013-03-10T10:46:12Z</time>
      </trkpt>
      <trkpt lat="59.922488" lon="17.6417431">
        <ele>24.651</ele>
        <time>2013-03-10T10:46:13Z</time>
      </trkpt>
      <trkpt lat="59.9224743" lon="17.6417479">
        <ele>24.651</ele>
        <time>2013-03-10T10:46:14Z</time>
      </trkpt>
      <trkpt lat="59.9224605" lon="17.6417523">
        <ele>24.651</ele>
        <time>2013-03-10T10:46:15Z</time>
      </trkpt>
      <trkpt lat="59.9224456" lon="17.6417525">
        <ele>24.651</ele>
        <time>2013-03-10T10:46:16Z</time>
      </trkpt>
      <trkpt lat="59.9224306" lon="17.6417524">
        <ele>24.651</ele>
        <time>2013-03-10T10:46:17Z</time>
      </trkpt>
      <trkpt lat="59.9224151" lon="17.6417517">
        <ele>24.651</ele>
        <time>2013-03-10T10:46:18Z</time>
      </trkpt>
      <trkpt lat="59.9224009" lon="17.6417522">
        <ele>24.651</ele>
        <time>2013-03-10T10:46:19Z</time>
      </trkpt>
      <trkpt lat="59.9223856" lon="17.6417517">
        <ele>24.651</ele>
        <time>2013-03-10T10:46:20Z</time>
      </trkpt>
      <trkpt lat="59.9223709" lon="17.641751">
        <ele>24.651</ele>
        <time>2013-03-10T10:46:21Z</time>
      </trkpt>
      <trkpt lat="59.9223553" lon="17.6417523">
        <ele>25.1317</ele>
        <time>2013-03-10T10:46:22Z</time>
      </trkpt>
      <trkpt lat="59.9223409" lon="17.6417556">
        <ele>25.1317</ele>
        <time>2013-03-10T10:46:23Z</time>
      </trkpt>
      <trkpt lat="59.9223263" lon="17.6417566">
        <ele>25.1317</ele>
        <time>2013-03-10T10:46:24Z</time>
      </trkpt>
      <trkpt lat="59.9223113" lon="17.6417559">
        <ele>25.1317</ele>
        <time>2013-03-10T10:46:25Z</time>
      </trkpt>
      <trkpt lat="59.9222964" lon="17.6417558">
        <ele>25.6123</ele>
        <time>2013-03-10T10:46:26Z</time>
      </trkpt>
      <trkpt lat="59.9222823" lon="17.6417561">
        <ele>25.6123</ele>
        <time>2013-03-10T10:46:27Z</time>
      </trkpt>
      <trkpt lat="59.9222677" lon="17.6417581">
        <ele>25.6123</ele>
        <time>2013-03-10T10:46:28Z</time>
      </trkpt>
      <trkpt lat="59.9222528" lon="17.641761">
        <ele>25.6123</ele>
        <time>2013-03-10T10:46:29Z</time>
      </trkpt>
      <trkpt lat="59.9222379" lon="17.6417632">
        <ele>25.6123</ele>
        <time>2013-03-10T10:46:30Z</time>
      </trkpt>
      <trkpt lat="59.9222228" lon="17.641766">
        <ele>25.6123</ele>
        <time>2013-03-10T10:46:31Z</time>
      </trkpt>
      <trkpt lat="59.9222078" lon="17.641768">
        <ele>26.0929</ele>
        <time>2013-03-10T10:46:32Z</time>
      </trkpt>
      <trkpt lat="59.9221929" lon="17.6417709">
        <ele>26.0929</ele>
        <time>2013-03-10T10:46:33Z</time>
      </trkpt>
      <trkpt lat="59.9221789" lon="17.6417731">
        <ele>26.0929</ele>
        <time>2013-03-10T10:46:34Z</time>
      </trkpt>
      <trkpt lat="59.9221638" lon="17.6417737">
        <ele>26.0929</ele>
        <time>2013-03-10T10:46:35Z</time>
      </trkpt>
      <trkpt lat="59.9221495" lon="17.6417747">
        <ele>26.0929</ele>
        <time>2013-03-10T10:46:36Z</time>
      </trkpt>
      <trkpt lat="59.922135" lon="17.6417764">
        <ele>26.0929</ele>
        <time>2013-03-10T10:46:37Z</time>
      </trkpt>
      <trkpt lat="59.9221198" lon="17.6417778">
        <ele>26.0929</ele>
        <time>2013-03-10T10:46:38Z</time>
      </trkpt>
      <trkpt lat="59.9221052" lon="17.6417795">
        <ele>26.0929</ele>
        <time>2013-03-10T10:46:39Z</time>
      </trkpt>
      <trkpt lat="59.9220907" lon="17.6417814">
        <ele>26.0929</ele>
        <time>2013-03-10T10:46:40Z</time>
      </trkpt>
      <trkpt lat="59.9220757" lon="17.6417831">
        <ele>26.0929</ele>
        <time>2013-03-10T10:46:41Z</time>
      </trkpt>
      <trkpt lat="59.9220605" lon="17.641785">
        <ele>26.0929</ele>
        <time>2013-03-10T10:46:42Z</time>
      </trkpt>
      <trkpt lat="59.922046" lon="17.6417871">
        <ele>26.0929</ele>
        <time>2013-03-10T10:46:43Z</time>
      </trkpt>
      <trkpt lat="59.9220319" lon="17.6417902">
        <ele>26.5736</ele>
        <time>2013-03-10T10:46:44Z</time>
      </trkpt>
      <trkpt lat="59.9220175" lon="17.6417929">
        <ele>26.5736</ele>
        <time>2013-03-10T10:46:45Z</time>
      </trkpt>
      <trkpt lat="59.9220029" lon="17.6417954">
        <ele>26.5736</ele>
        <time>2013-03-10T10:46:46Z</time>
      </trkpt>
      <trkpt lat="59.9219881" lon="17.6417981">
        <ele>26.5736</ele>
        <time>2013-03-10T10:46:47Z</time>
      </trkpt>
      <trkpt lat="59.9219745" lon="17.6418">
        <ele>26.5736</ele>
        <time>2013-03-10T10:46:48Z</time>
      </trkpt>
      <trkpt lat="59.9219596" lon="17.6418011">
        <ele>26.5736</ele>
        <time>2013-03-10T10:46:49Z</time>
      </trkpt>
      <trkpt lat="59.9219441" lon="17.6418031">
        <ele>26.5736</ele>
        <time>2013-03-10T10:46:50Z</time>
      </trkpt>
      <trkpt lat="59.9219297" lon="17.6418047">
        <ele>26.5736</ele>
        <time>2013-03-10T10:46:51Z</time>
      </trkpt>
      <trkpt lat="59.9219168" lon="17.6418067">
        <ele>26.5736</ele>
        <time>2013-03-10T10:46:52Z</time>
      </trkpt>
      <trkpt lat="59.9219042" lon="17.6418098">
        <ele>26.5736</ele>
        <time>2013-03-10T10:46:53Z</time>
      </trkpt>
      <trkpt lat="59.9218907" lon="17.6418109">
        <ele>26.5736</ele>
        <time>2013-03-10T10:46:54Z</time>
      </trkpt>
      <trkpt lat="59.9218793" lon="17.6418136">
        <ele>26.5736</ele>
        <time>2013-03-10T10:46:55Z</time>
      </trkpt>
      <trkpt lat="59.9218696" lon="17.6418193">
        <ele>26.0929</ele>
        <time>2013-03-10T10:46:56Z</time>
      </trkpt>
      <trkpt lat="59.921856" lon="17.6418232">
        <ele>26.0929</ele>
        <time>2013-03-10T10:46:57Z</time>
      </trkpt>
      <trkpt lat="59.9218411" lon="17.6418248">
        <ele>26.5736</ele>
        <time>2013-03-10T10:46:58Z</time>
      </trkpt>
      <trkpt lat="59.9218271" lon="17.6418255">
        <ele>26.0929</ele>
        <time>2013-03-10T10:46:59Z</time>
      </trkpt>
      <trkpt lat="59.921813" lon="17.6418265">
        <ele>26.0929</ele>
        <time>2013-03-10T10:47:00Z</time>
      </trkpt>
      <trkpt lat="59.9217986" lon="17.641826">
        <ele>25.6123</ele>
        <time>2013-03-10T10:47:01Z</time>
      </trkpt>
      <trkpt lat="59.921786" lon="17.6418263">
        <ele>25.6123</ele>
        <time>2013-03-10T10:47:02Z</time>
      </trkpt>
      <trkpt lat="59.9217732" lon="17.64183">
        <ele>25.6123</ele>
        <time>2013-03-10T10:47:03Z</time>
      </trkpt>
      <trkpt lat="59.9217612" lon="17.6418337">
        <ele>25.1317</ele>
        <time>2013-03-10T10:47:04Z</time>
      </trkpt>
      <trkpt lat="59.9217496" lon="17.6418363">
        <ele>25.1317</ele>
        <time>2013-03-10T10:47:05Z</time>
      </trkpt>
      <trkpt lat="59.9217384" lon="17.6418379">
        <ele>25.1317</ele>
        <time>2013-03-10T10:47:06Z</time>
      </trkpt>
      <trkpt lat="59.9217272" lon="17.6418385">
        <ele>25.1317</ele>
        <time>2013-03-10T10:47:07Z</time>
      </trkpt>
      <trkpt lat="59.9217162" lon="17.6418389">
        <ele>25.1317</ele>
        <time>2013-03-10T10:47:08Z</time>
      </trkpt>
      <trkpt lat="59.9217051" lon="17.6418383">
        <ele>25.1317</ele>
        <time>2013-03-10T10:47:09Z</time>
      </trkpt>
      <trkpt lat="59.9216939" lon="17.6418379">
        <ele>25.1317</ele>
        <time>2013-03-10T10:47:10Z</time>
      </trkpt>
      <trkpt lat="59.9216825" lon="17.6418393">
        <ele>25.1317</ele>
        <time>2013-03-10T10:47:11Z</time>
      </trkpt>
      <trkpt lat="59.9216716" lon="17.6418418">
        <ele>25.1317</ele>
        <time>2013-03-10T10:47:12Z</time>
      </trkpt>
      <trkpt lat="59.92166" lon="17.6418435">
        <ele>25.1317</ele>
        <time>2013-03-10T10:47:13Z</time>
      </trkpt>
      <trkpt lat="59.9216488" lon="17.6418441">
        <ele>25.1317</ele>
        <time>2013-03-10T10:47:14Z</time>
      </trkpt>
      <trkpt lat="59.9216412" lon="17.641842">
        <ele>25.1317</ele>
        <time>2013-03-10T10:47:15Z</time>
      </trkpt>
      <trkpt lat="59.9216385" lon="17.6418389">
        <ele>25.1317</ele>
        <time>2013-03-10T10:47:16Z</time>
      </trkpt>
      <trkpt lat="59.9216385" lon="17.6418374">
        <ele>25.1317</ele>
        <time>2013-03-10T10:47:17Z</time>
      </trkpt>
      <trkpt lat="59.9216388" lon="17.6418377">
        <ele>25.1317</ele>
        <time>2013-03-10T10:47:18Z</time>
      </trkpt>
      <trkpt lat="59.9216389" lon="17.6418388">
        <ele>25.1317</ele>
        <time>2013-03-10T10:47:19Z</time>
      </trkpt>
      <trkpt lat="59.921637" lon="17.6418405">
        <ele>25.1317</ele>
        <time>2013-03-10T10:47:20Z</time>
      </trkpt>
      <trkpt lat="59.9216306" lon="17.6418422">
        <ele>25.6123</ele>
        <time>2013-03-10T10:47:21Z</time>
      </trkpt>
      <trkpt lat="59.9216201" lon="17.6418429">
        <ele>25.1317</ele>
        <time>2013-03-10T10:47:22Z</time>
      </trkpt>
      <trkpt lat="59.9216085" lon="17.6418432">
        <ele>25.1317</ele>
        <time>2013-03-10T10:47:23Z</time>
      </trkpt>
      <trkpt lat="59.9215971" lon="17.641844">
        <ele>25.1317</ele>
        <time>2013-03-10T10:47:24Z</time>
      </trkpt>
      <trkpt lat="59.9215859" lon="17.6418441">
        <ele>25.1317</ele>
        <time>2013-03-10T10:47:25Z</time>
      </trkpt>
      <trkpt lat="59.9215757" lon="17.6418437">
        <ele>25.1317</ele>
        <time>2013-03-10T10:47:26Z</time>
      </trkpt>
      <trkpt lat="59.9215661" lon="17.6418431">
        <ele>25.1317</ele>
        <time>2013-03-10T10:47:27Z</time>
      </trkpt>
      <trkpt lat="59.9215573" lon="17.6418436">
        <ele>25.1317</ele>
        <time>2013-03-10T10:47:28Z</time>
      </trkpt>
      <trkpt lat="59.9215483" lon="17.6418465">
        <ele>25.6123</ele>
        <time>2013-03-10T10:47:29Z</time>
      </trkpt>
      <trkpt lat="59.9215395" lon="17.6418484">
        <ele>25.6123</ele>
        <time>2013-03-10T10:47:30Z</time>
      </trkpt>
      <trkpt lat="59.9215303" lon="17.6418497">
        <ele>26.0929</ele>
        <time>2013-03-10T10:47:31Z</time>
      </trkpt>
      <trkpt lat="59.9215207" lon="17.6418508">
        <ele>26.0929</ele>
        <time>2013-03-10T10:47:32Z</time>
      </trkpt>
      <trkpt lat="59.9215104" lon="17.6418534">
        <ele>26.0929</ele>
        <time>2013-03-10T10:47:33Z</time>
      </trkpt>
      <trkpt lat="59.9215002" lon="17.6418574">
        <ele>26.0929</ele>
        <time>2013-03-10T10:47:34Z</time>
      </trkpt>
      <trkpt lat="59.9214907" lon="17.6418612">
        <ele>26.5736</ele>
        <time>2013-03-10T10:47:35Z</time>
      </trkpt>
      <trkpt lat="59.9214805" lon="17.6418633">
        <ele>26.5736</ele>
        <time>2013-03-10T10:47:36Z</time>
      </trkpt>
      <trkpt lat="59.9214701" lon="17.6418659">
        <ele>26.5736</ele>
        <time>2013-03-10T10:47:37Z</time>
      </trkpt>
      <trkpt lat="59.9214597" lon="17.6418683">
        <ele>26.5736</ele>
        <time>2013-03-10T10:47:38Z</time>
      </trkpt>
      <trkpt lat="59.9214493" lon="17.6418719">
        <ele>26.5736</ele>
        <time>2013-03-10T10:47:39Z</time>
      </trkpt>
      <trkpt lat="59.921439" lon="17.6418747">
        <ele>26.5736</ele>
        <time>2013-03-10T10:47:40Z</time>
      </trkpt>
      <trkpt lat="59.9214295" lon="17.6418789">
        <ele>26.5736</ele>
        <time>2013-03-10T10:47:41Z</time>
      </trkpt>
      <trkpt lat="59.9214199" lon="17.6418849">
        <ele>26.5736</ele>
        <time>2013-03-10T10:47:42Z</time>
      </trkpt>
      <trkpt lat="59.9214093" lon="17.6418877">
        <ele>26.5736</ele>
        <time>2013-03-10T10:47:43Z</time>
      </trkpt>
      <trkpt lat="59.9213981" lon="17.6418871">
        <ele>26.5736</ele>
        <time>2013-03-10T10:47:44Z</time>
      </trkpt>
      <trkpt lat="59.9213856" lon="17.6418871">
        <ele>26.5736</ele>
        <time>2013-03-10T10:47:45Z</time>
      </trkpt>
      <trkpt lat="59.9213723" lon="17.6418876">
        <ele>26.5736</ele>
        <time>2013-03-10T10:47:46Z</time>
      </trkpt>
      <trkpt lat="59.9213598" lon="17.6418882">
        <ele>26.5736</ele>
        <time>2013-03-10T10:47:47Z</time>
      </trkpt>
      <trkpt lat="59.9213477" lon="17.6418895">
        <ele>26.5736</ele>
        <time>2013-03-10T10:47:48Z</time>
      </trkpt>
      <trkpt lat="59.9213355" lon="17.6418918">
        <ele>26.5736</ele>
        <time>2013-03-10T10:47:49Z</time>
      </trkpt>
      <trkpt lat="59.9213235" lon="17.6418949">
        <ele>26.0929</ele>
        <time>2013-03-10T10:47:50Z</time>
      </trkpt>
      <trkpt lat="59.9213112" lon="17.6418974">
        <ele>26.0929</ele>
        <time>2013-03-10T10:47:51Z</time>
      </trkpt>
      <trkpt lat="59.9212985" lon="17.6419002">
        <ele>26.0929</ele>
        <time>2013-03-10T10:47:52Z</time>
      </trkpt>
      <trkpt lat="59.9212848" lon="17.6419048">
        <ele>26.0929</ele>
        <time>2013-03-10T10:47:53Z</time>
      </trkpt>
      <trkpt lat="59.9212716" lon="17.6419059">
        <ele>26.0929</ele>
        <time>2013-03-10T10:47:54Z</time>
      </trkpt>
      <trkpt lat="59.9212582" lon="17.6419064">
        <ele>26.0929</ele>
        <time>2013-03-10T10:47:55Z</time>
      </trkpt>
      <trkpt lat="59.9212443" lon="17.6419077">
        <ele>26.0929</ele>
        <time>2013-03-10T10:47:56Z</time>
      </trkpt>
      <trkpt lat="59.9212309" lon="17.6419085">
        <ele>26.0929</ele>
        <time>2013-03-10T10:47:57Z</time>
      </trkpt>
      <trkpt lat="59.9212176" lon="17.6419089">
        <ele>25.6123</ele>
        <time>2013-03-10T10:47:58Z</time>
      </trkpt>
      <trkpt lat="59.9212044" lon="17.6419093">
        <ele>25.6123</ele>
        <time>2013-03-10T10:47:59Z</time>
      </trkpt>
      <trkpt lat="59.9211917" lon="17.6419107">
        <ele>25.6123</ele>
        <time>2013-03-10T10:48:00Z</time>
      </trkpt>
      <trkpt lat="59.921178" lon="17.641913">
        <ele>25.6123</ele>
        <time>2013-03-10T10:48:01Z</time>
      </trkpt>
      <trkpt lat="59.9211634" lon="17.6419169">
        <ele>25.6123</ele>
        <time>2013-03-10T10:48:02Z</time>
      </trkpt>
      <trkpt lat="59.9211474" lon="17.641916">
        <ele>25.6123</ele>
        <time>2013-03-10T10:48:03Z</time>
      </trkpt>
      <trkpt lat="59.9211332" lon="17.6419182">
        <ele>25.6123</ele>
        <time>2013-03-10T10:48:04Z</time>
      </trkpt>
      <trkpt lat="59.9211205" lon="17.6419247">
        <ele>25.6123</ele>
        <time>2013-03-10T10:48:05Z</time>
      </trkpt>
      <trkpt lat="59.9211061" lon="17.6419275">
        <ele>26.0929</ele>
        <time>2013-03-10T10:48:06Z</time>
      </trkpt>
      <trkpt lat="59.9210923" lon="17.6419311">
        <ele>26.0929</ele>
        <time>2013-03-10T10:48:07Z</time>
      </trkpt>
      <trkpt lat="59.9210783" lon="17.6419332">
        <ele>26.0929</ele>
        <time>2013-03-10T10:48:08Z</time>
      </trkpt>
      <trkpt lat="59.9210638" lon="17.6419367">
        <ele>26.5736</ele>
        <time>2013-03-10T10:48:09Z</time>
      </trkpt>
      <trkpt lat="59.9210484" lon="17.64194">
        <ele>26.5736</ele>
        <time>2013-03-10T10:48:10Z</time>
      </trkpt>
      <trkpt lat="59.9210333" lon="17.6419409">
        <ele>26.5736</ele>
        <time>2013-03-10T10:48:11Z</time>
      </trkpt>
      <trkpt lat="59.9210187" lon="17.6419418">
        <ele>26.5736</ele>
        <time>2013-03-10T10:48:12Z</time>
      </trkpt>
      <trkpt lat="59.9210045" lon="17.6419441">
        <ele>26.5736</ele>
        <time>2013-03-10T10:48:13Z</time>
      </trkpt>
      <trkpt lat="59.9209907" lon="17.6419485">
        <ele>27.0543</ele>
        <time>2013-03-10T10:48:14Z</time>
      </trkpt>
      <trkpt lat="59.920976" lon="17.6419519">
        <ele>27.0543</ele>
        <time>2013-03-10T10:48:15Z</time>
      </trkpt>
      <trkpt lat="59.9209619" lon="17.6419543">
        <ele>27.0543</ele>
        <time>2013-03-10T10:48:16Z</time>
      </trkpt>
      <trkpt lat="59.9209472" lon="17.6419563">
        <ele>26.5736</ele>
        <time>2013-03-10T10:48:17Z</time>
      </trkpt>
      <trkpt lat="59.9209323" lon="17.6419601">
        <ele>26.5736</ele>
        <time>2013-03-10T10:48:18Z</time>
      </trkpt>
      <trkpt lat="59.9209169" lon="17.6419657">
        <ele>27.0543</ele>
        <time>2013-03-10T10:48:19Z</time>
      </trkpt>
      <trkpt lat="59.9209018" lon="17.6419669">
        <ele>26.5736</ele>
        <time>2013-03-10T10:48:20Z</time>
      </trkpt>
      <trkpt lat="59.9208879" lon="17.641967">
        <ele>26.5736</ele>
        <time>2013-03-10T10:48:21Z</time>
      </trkpt>
      <trkpt lat="59.9208743" lon="17.6419664">
        <ele>27.0543</ele>
        <time>2013-03-10T10:48:22Z</time>
      </trkpt>
      <trkpt lat="59.9208604" lon="17.6419653">
        <ele>27.0543</ele>
        <time>2013-03-10T10:48:23Z</time>
      </trkpt>
      <trkpt lat="59.9208468" lon="17.6419651">
        <ele>27.0543</ele>
        <time>2013-03-10T10:48:24Z</time>
      </trkpt>
      <trkpt lat="59.9208331" lon="17.6419643">
        <ele>27.0543</ele>
        <time>2013-03-10T10:48:25Z</time>
      </trkpt>
      <trkpt lat="59.9208189" lon="17.6419644">
        <ele>27.0543</ele>
        <time>2013-03-10T10:48:26Z</time>
      </trkpt>
      <trkpt lat="59.9208037" lon="17.6419642">
        <ele>27.0543</ele>
        <time>2013-03-10T10:48:27Z</time>
      </trkpt>
      <trkpt lat="59.9207874" lon="17.6419667">
        <ele>27.0543</ele>
        <time>2013-03-10T10:48:28Z</time>
      </trkpt>
      <trkpt lat="59.9207709" lon="17.6419696">
        <ele>27.0543</ele>
        <time>2013-03-10T10:48:29Z</time>
      </trkpt>
      <trkpt lat="59.9207553" lon="17.6419703">
        <ele>27.0543</ele>
        <time>2013-03-10T10:48:30Z</time>
      </trkpt>
      <trkpt lat="59.9207397" lon="17.6419695">
        <ele>27.0543</ele>
        <time>2013-03-10T10:48:31Z</time>
      </trkpt>
      <trkpt lat="59.9207241" lon="17.6419664">
        <ele>26.5736</ele>
        <time>2013-03-10T10:48:32Z</time>
      </trkpt>
      <trkpt lat="59.9207086" lon="17.6419643">
        <ele>26.5736</ele>
        <time>2013-03-10T10:48:33Z</time>
      </trkpt>
      <trkpt lat="59.9206932" lon="17.6419636">
        <ele>26.5736</ele>
        <time>2013-03-10T10:48:34Z</time>
      </trkpt>
      <trkpt lat="59.920678" lon="17.6419641">
        <ele>26.5736</ele>
        <time>2013-03-10T10:48:35Z</time>
      </trkpt>
      <trkpt lat="59.9206631" lon="17.6419644">
        <ele>26.5736</ele>
        <time>2013-03-10T10:48:36Z</time>
      </trkpt>
      <trkpt lat="59.9206483" lon="17.6419636">
        <ele>26.5736</ele>
        <time>2013-03-10T10:48:37Z</time>
      </trkpt>
      <trkpt lat="59.9206336" lon="17.6419627">
        <ele>26.5736</ele>
        <time>2013-03-10T10:48:38Z</time>
      </trkpt>
      <trkpt lat="59.920619" lon="17.6419626">
        <ele>26.5736</ele>
        <time>2013-03-10T10:48:39Z</time>
      </trkpt>
      <trkpt lat="59.9206043" lon="17.6419634">
        <ele>26.5736</ele>
        <time>2013-03-10T10:48:40Z</time>
      </trkpt>
      <trkpt lat="59.9205895" lon="17.6419653">
        <ele>26.5736</ele>
        <time>2013-03-10T10:48:41Z</time>
      </trkpt>
      <trkpt lat="59.9205749" lon="17.6419673">
        <ele>26.5736</ele>
        <time>2013-03-10T10:48:42Z</time>
      </trkpt>
      <trkpt lat="59.9205604" lon="17.641966">
        <ele>26.5736</ele>
        <time>2013-03-10T10:48:43Z</time>
      </trkpt>
      <trkpt lat="59.9205456" lon="17.6419652">
        <ele>26.5736</ele>
        <time>2013-03-10T10:48:44Z</time>
      </trkpt>
      <trkpt lat="59.9205309" lon="17.6419664">
        <ele>26.5736</ele>
        <time>2013-03-10T10:48:45Z</time>
      </trkpt>
      <trkpt lat="59.920516" lon="17.6419673">
        <ele>26.5736</ele>
        <time>2013-03-10T10:48:46Z</time>
      </trkpt>
      <trkpt lat="59.9205017" lon="17.6419683">
        <ele>26.5736</ele>
        <time>2013-03-10T10:48:47Z</time>
      </trkpt>
      <trkpt lat="59.9204874" lon="17.641969">
        <ele>26.5736</ele>
        <time>2013-03-10T10:48:48Z</time>
      </trkpt>
      <trkpt lat="59.920473" lon="17.6419704">
        <ele>26.5736</ele>
        <time>2013-03-10T10:48:49Z</time>
      </trkpt>
      <trkpt lat="59.9204589" lon="17.6419729">
        <ele>26.5736</ele>
        <time>2013-03-10T10:48:50Z</time>
      </trkpt>
      <trkpt lat="59.9204449" lon="17.6419741">
        <ele>27.0543</ele>
        <time>2013-03-10T10:48:51Z</time>
      </trkpt>
      <trkpt lat="59.9204306" lon="17.6419747">
        <ele>27.0543</ele>
        <time>2013-03-10T10:48:52Z</time>
      </trkpt>
      <trkpt lat="59.920416" lon="17.6419753">
        <ele>27.0543</ele>
        <time>2013-03-10T10:48:53Z</time>
      </trkpt>
      <trkpt lat="59.9204015" lon="17.6419762">
        <ele>27.0543</ele>
        <time>2013-03-10T10:48:54Z</time>
      </trkpt>
      <trkpt lat="59.9203868" lon="17.6419787">
        <ele>27.0543</ele>
        <time>2013-03-10T10:48:55Z</time>
      </trkpt>
      <trkpt lat="59.9203725" lon="17.6419813">
        <ele>27.0543</ele>
        <time>2013-03-10T10:48:56Z</time>
      </trkpt>
      <trkpt lat="59.9203586" lon="17.6419804">
        <ele>27.0543</ele>
        <time>2013-03-10T10:48:57Z</time>
      </trkpt>
      <trkpt lat="59.920345" lon="17.6419799">
        <ele>27.5349</ele>
        <time>2013-03-10T10:48:58Z</time>
      </trkpt>
      <trkpt lat="59.9203325" lon="17.6419809">
        <ele>27.5349</ele>
        <time>2013-03-10T10:48:59Z</time>
      </trkpt>
      <trkpt lat="59.92032" lon="17.6419814">
        <ele>27.5349</ele>
        <time>2013-03-10T10:49:00Z</time>
      </trkpt>
      <trkpt lat="59.9203067" lon="17.6419815">
        <ele>27.5349</ele>
        <time>2013-03-10T10:49:01Z</time>
      </trkpt>
      <trkpt lat="59.9202927" lon="17.6419822">
        <ele>27.5349</ele>
        <time>2013-03-10T10:49:02Z</time>
      </trkpt>
      <trkpt lat="59.9202787" lon="17.6419823">
        <ele>27.5349</ele>
        <time>2013-03-10T10:49:03Z</time>
      </trkpt>
      <trkpt lat="59.9202655" lon="17.6419814">
        <ele>28.0155</ele>
        <time>2013-03-10T10:49:04Z</time>
      </trkpt>
      <trkpt lat="59.9202523" lon="17.641981">
        <ele>28.0155</ele>
        <time>2013-03-10T10:49:05Z</time>
      </trkpt>
      <trkpt lat="59.9202386" lon="17.6419829">
        <ele>28.0155</ele>
        <time>2013-03-10T10:49:06Z</time>
      </trkpt>
      <trkpt lat="59.9202238" lon="17.6419848">
        <ele>28.0155</ele>
        <time>2013-03-10T10:49:07Z</time>
      </trkpt>
      <trkpt lat="59.9202086" lon="17.6419858">
        <ele>28.0155</ele>
        <time>2013-03-10T10:49:08Z</time>
      </trkpt>
      <trkpt lat="59.9201938" lon="17.6419869">
        <ele>28.0155</ele>
        <time>2013-03-10T10:49:09Z</time>
      </trkpt>
      <trkpt lat="59.9201793" lon="17.6419886">
        <ele>28.0155</ele>
        <time>2013-03-10T10:49:10Z</time>
      </trkpt>
      <trkpt lat="59.9201645" lon="17.6419892">
        <ele>27.5349</ele>
        <time>2013-03-10T10:49:11Z</time>
      </trkpt>
      <trkpt lat="59.9201492" lon="17.6419892">
        <ele>27.5349</ele>
        <time>2013-03-10T10:49:12Z</time>
      </trkpt>
      <trkpt lat="59.9201347" lon="17.6419886">
        <ele>27.5349</ele>
        <time>2013-03-10T10:49:13Z</time>
      </trkpt>
      <trkpt lat="59.9201197" lon="17.64199">
        <ele>27.5349</ele>
        <time>2013-03-10T10:49:14Z</time>
      </trkpt>
      <trkpt lat="59.9201044" lon="17.6419953">
        <ele>27.5349</ele>
        <time>2013-03-10T10:49:15Z</time>
      </trkpt>
      <trkpt lat="59.9200902" lon="17.6420019">
        <ele>27.5349</ele>
        <time>2013-03-10T10:49:16Z</time>
      </trkpt>
      <trkpt lat="59.9200759" lon="17.6420047">
        <ele>28.0155</ele>
        <time>2013-03-10T10:49:17Z</time>
      </trkpt>
      <trkpt lat="59.9200626" lon="17.6420022">
        <ele>27.5349</ele>
        <time>2013-03-10T10:49:18Z</time>
      </trkpt>
      <trkpt lat="59.9200497" lon="17.6419986">
        <ele>27.5349</ele>
        <time>2013-03-10T10:49:19Z</time>
      </trkpt>
      <trkpt lat="59.9200345" lon="17.6419928">
        <ele>27.5349</ele>
        <time>2013-03-10T10:49:20Z</time>
      </trkpt>
      <trkpt lat="59.9200192" lon="17.6419856">
        <ele>27.5349</ele>
        <time>2013-03-10T10:49:21Z</time>
      </trkpt>
      <trkpt lat="59.9200047" lon="17.6419788">
        <ele>27.0543</ele>
        <time>2013-03-10T10:49:22Z</time>
      </trkpt>
      <trkpt lat="59.9199907" lon="17.6419757">
        <ele>27.0543</ele>
        <time>2013-03-10T10:49:23Z</time>
      </trkpt>
      <trkpt lat="59.9199777" lon="17.6419791">
        <ele>27.0543</ele>
        <time>2013-03-10T10:49:24Z</time>
      </trkpt>
      <trkpt lat="59.9199638" lon="17.6419874">
        <ele>27.0543</ele>
        <time>2013-03-10T10:49:25Z</time>
      </trkpt>
      <trkpt lat="59.9199497" lon="17.641996">
        <ele>27.0543</ele>
        <time>2013-03-10T10:49:26Z</time>
      </trkpt>
      <trkpt lat="59.9199353" lon="17.6420026">
        <ele>27.5349</ele>
        <time>2013-03-10T10:49:27Z</time>
      </trkpt>
      <trkpt lat="59.9199208" lon="17.6420073">
        <ele>27.5349</ele>
        <time>2013-03-10T10:49:28Z</time>
      </trkpt>
      <trkpt lat="59.9199069" lon="17.6420126">
        <ele>27.5349</ele>
        <time>2013-03-10T10:49:29Z</time>
      </trkpt>
      <trkpt lat="59.9198933" lon="17.6420205">
        <ele>27.5349</ele>
        <time>2013-03-10T10:49:30Z</time>
      </trkpt>
      <trkpt lat="59.9198784" lon="17.642031">
        <ele>27.5349</ele>
        <time>2013-03-10T10:49:31Z</time>
      </trkpt>
      <trkpt lat="59.9198636" lon="17.6420415">
        <ele>27.5349</ele>
        <time>2013-03-10T10:49:32Z</time>
      </trkpt>
      <trkpt lat="59.919848" lon="17.6420492">
        <ele>27.5349</ele>
        <time>2013-03-10T10:49:33Z</time>
      </trkpt>
      <trkpt lat="59.9198314" lon="17.6420529">
        <ele>27.5349</ele>
        <time>2013-03-10T10:49:34Z</time>
      </trkpt>
      <trkpt lat="59.9198154" lon="17.6420555">
        <ele>27.5349</ele>
        <time>2013-03-10T10:49:35Z</time>
      </trkpt>
      <trkpt lat="59.9198011" lon="17.6420589">
        <ele>27.5349</ele>
        <time>2013-03-10T10:49:36Z</time>
      </trkpt>
      <trkpt lat="59.9197864" lon="17.6420641">
        <ele>27.5349</ele>
        <time>2013-03-10T10:49:37Z</time>
      </trkpt>
      <trkpt lat="59.9197688" lon="17.6420677">
        <ele>27.5349</ele>
        <time>2013-03-10T10:49:38Z</time>
      </trkpt>
      <trkpt lat="59.9197512" lon="17.642072">
        <ele>27.5349</ele>
        <time>2013-03-10T10:49:39Z</time>
      </trkpt>
      <trkpt lat="59.9197367" lon="17.6420753">
        <ele>27.5349</ele>
        <time>2013-03-10T10:49:40Z</time>
      </trkpt>
      <trkpt lat="59.9197224" lon="17.6420776">
        <ele>27.5349</ele>
        <time>2013-03-10T10:49:41Z</time>
      </trkpt>
      <trkpt lat="59.9197084" lon="17.6420808">
        <ele>27.5349</ele>
        <time>2013-03-10T10:49:42Z</time>
      </trkpt>
      <trkpt lat="59.9196949" lon="17.642082">
        <ele>27.5349</ele>
        <time>2013-03-10T10:49:43Z</time>
      </trkpt>
      <trkpt lat="59.9196804" lon="17.6420827">
        <ele>27.5349</ele>
        <time>2013-03-10T10:49:44Z</time>
      </trkpt>
      <trkpt lat="59.9196659" lon="17.6420835">
        <ele>27.5349</ele>
        <time>2013-03-10T10:49:45Z</time>
      </trkpt>
      <trkpt lat="59.9196522" lon="17.6420838">
        <ele>27.5349</ele>
        <time>2013-03-10T10:49:46Z</time>
      </trkpt>
      <trkpt lat="59.919638" lon="17.6420865">
        <ele>27.5349</ele>
        <time>2013-03-10T10:49:47Z</time>
      </trkpt>
      <trkpt lat="59.9196229" lon="17.64209">
        <ele>27.5349</ele>
        <time>2013-03-10T10:49:48Z</time>
      </trkpt>
      <trkpt lat="59.9196082" lon="17.6420926">
        <ele>27.5349</ele>
        <time>2013-03-10T10:49:49Z</time>
      </trkpt>
      <trkpt lat="59.9195942" lon="17.6420943">
        <ele>27.5349</ele>
        <time>2013-03-10T10:49:50Z</time>
      </trkpt>
      <trkpt lat="59.9195798" lon="17.6420962">
        <ele>27.5349</ele>
        <time>2013-03-10T10:49:51Z</time>
      </trkpt>
      <trkpt lat="59.9195658" lon="17.6420983">
        <ele>27.5349</ele>
        <time>2013-03-10T10:49:52Z</time>
      </trkpt>
      <trkpt lat="59.9195517" lon="17.6420996">
        <ele>27.0543</ele>
        <time>2013-03-10T10:49:53Z</time>
      </trkpt>
      <trkpt lat="59.9195378" lon="17.6421022">
        <ele>27.0543</ele>
        <time>2013-03-10T10:49:54Z</time>
      </trkpt>
      <trkpt lat="59.9195235" lon="17.6421053">
        <ele>27.0543</ele>
        <time>2013-03-10T10:49:55Z</time>
      </trkpt>
      <trkpt lat="59.9195096" lon="17.6421077">
        <ele>27.0543</ele>
        <time>2013-03-10T10:49:56Z</time>
      </trkpt>
      <trkpt lat="59.9194955" lon="17.6421083">
        <ele>26.5736</ele>
        <time>2013-03-10T10:49:57Z</time>
      </trkpt>
      <trkpt lat="59.9194813" lon="17.6421102">
        <ele>26.5736</ele>
        <time>2013-03-10T10:49:58Z</time>
      </trkpt>
      <trkpt lat="59.9194676" lon="17.6421129">
        <ele>27.0543</ele>
        <time>2013-03-10T10:49:59Z</time>
      </trkpt>
      <trkpt lat="59.9194535" lon="17.6421153">
        <ele>27.0543</ele>
        <time>2013-03-10T10:50:00Z</time>
      </trkpt>
      <trkpt lat="59.919439" lon="17.642119">
        <ele>27.0543</ele>
        <time>2013-03-10T10:50:01Z</time>
      </trkpt>
      <trkpt lat="59.9194245" lon="17.6421228">
        <ele>27.0543</ele>
        <time>2013-03-10T10:50:02Z</time>
      </trkpt>
      <trkpt lat="59.91941" lon="17.6421279">
        <ele>27.0543</ele>
        <time>2013-03-10T10:50:03Z</time>
      </trkpt>
      <trkpt lat="59.9193955" lon="17.642133">
        <ele>27.0543</ele>
        <time>2013-03-10T10:50:04Z</time>
      </trkpt>
      <trkpt lat="59.9193819" lon="17.6421361">
        <ele>27.0543</ele>
        <time>2013-03-10T10:50:05Z</time>
      </trkpt>
      <trkpt lat="59.9193687" lon="17.6421397">
        <ele>27.0543</ele>
        <time>2013-03-10T10:50:06Z</time>
      </trkpt>
      <trkpt lat="59.9193547" lon="17.6421415">
        <ele>27.0543</ele>
        <time>2013-03-10T10:50:07Z</time>
      </trkpt>
      <trkpt lat="59.91934" lon="17.6421439">
        <ele>27.0543</ele>
        <time>2013-03-10T10:50:08Z</time>
      </trkpt>
      <trkpt lat="59.9193264" lon="17.6421487">
        <ele>27.0543</ele>
        <time>2013-03-10T10:50:09Z</time>
      </trkpt>
      <trkpt lat="59.9193122" lon="17.6421522">
        <ele>27.5349</ele>
        <time>2013-03-10T10:50:10Z</time>
      </trkpt>
      <trkpt lat="59.9192982" lon="17.6421534">
        <ele>27.5349</ele>
        <time>2013-03-10T10:50:11Z</time>
      </trkpt>
      <trkpt lat="59.9192844" lon="17.6421542">
        <ele>27.5349</ele>
        <time>2013-03-10T10:50:12Z</time>
      </trkpt>
      <trkpt lat="59.9192701" lon="17.6421592">
        <ele>27.5349</ele>
        <time>2013-03-10T10:50:13Z</time>
      </trkpt>
      <trkpt lat="59.9192557" lon="17.6421652">
        <ele>27.5349</ele>
        <time>2013-03-10T10:50:14Z</time>
      </trkpt>
      <trkpt lat="59.9192422" lon="17.6421666">
        <ele>27.5349</ele>
        <time>2013-03-10T10:50:15Z</time>
      </trkpt>
      <trkpt lat="59.9192285" lon="17.6421671">
        <ele>27.5349</ele>
        <time>2013-03-10T10:50:16Z</time>
      </trkpt>
      <trkpt lat="59.9192142" lon="17.6421699">
        <ele>27.5349</ele>
        <time>2013-03-10T10:50:17Z</time>
      </trkpt>
      <trkpt lat="59.9192011" lon="17.6421725">
        <ele>28.0155</ele>
        <time>2013-03-10T10:50:18Z</time>
      </trkpt>
      <trkpt lat="59.9191884" lon="17.6421752">
        <ele>28.0155</ele>
        <time>2013-03-10T10:50:19Z</time>
      </trkpt>
      <trkpt lat="59.9191756" lon="17.6421767">
        <ele>28.0155</ele>
        <time>2013-03-10T10:50:20Z</time>
      </trkpt>
      <trkpt lat="59.9191623" lon="17.6421757">
        <ele>28.4962</ele>
        <time>2013-03-10T10:50:21Z</time>
      </trkpt>
      <trkpt lat="59.9191497" lon="17.6421755">
        <ele>28.4962</ele>
        <time>2013-03-10T10:50:22Z</time>
      </trkpt>
      <trkpt lat="59.919137" lon="17.6421767">
        <ele>28.4962</ele>
        <time>2013-03-10T10:50:23Z</time>
      </trkpt>
      <trkpt lat="59.9191225" lon="17.6421782">
        <ele>28.4962</ele>
        <time>2013-03-10T10:50:24Z</time>
      </trkpt>
      <trkpt lat="59.9191076" lon="17.6421798">
        <ele>28.4962</ele>
        <time>2013-03-10T10:50:25Z</time>
      </trkpt>
      <trkpt lat="59.919094" lon="17.6421819">
        <ele>28.4962</ele>
        <time>2013-03-10T10:50:26Z</time>
      </trkpt>
      <trkpt lat="59.9190804" lon="17.6421839">
        <ele>28.0155</ele>
        <time>2013-03-10T10:50:27Z</time>
      </trkpt>
      <trkpt lat="59.9190671" lon="17.6421866">
        <ele>28.0155</ele>
        <time>2013-03-10T10:50:28Z</time>
      </trkpt>
      <trkpt lat="59.9190539" lon="17.6421886">
        <ele>28.0155</ele>
        <time>2013-03-10T10:50:29Z</time>
      </trkpt>
      <trkpt lat="59.9190402" lon="17.6421896">
        <ele>28.0155</ele>
        <time>2013-03-10T10:50:30Z</time>
      </trkpt>
      <trkpt lat="59.9190266" lon="17.6421916">
        <ele>28.0155</ele>
        <time>2013-03-10T10:50:31Z</time>
      </trkpt>
      <trkpt lat="59.9190135" lon="17.6421933">
        <ele>28.0155</ele>
        <time>2013-03-10T10:50:32Z</time>
      </trkpt>
      <trkpt lat="59.9190006" lon="17.6421933">
        <ele>28.0155</ele>
        <time>2013-03-10T10:50:33Z</time>
      </trkpt>
      <trkpt lat="59.9189873" lon="17.6421968">
        <ele>28.0155</ele>
        <time>2013-03-10T10:50:34Z</time>
      </trkpt>
      <trkpt lat="59.9189736" lon="17.6422008">
        <ele>28.4962</ele>
        <time>2013-03-10T10:50:35Z</time>
      </trkpt>
      <trkpt lat="59.9189594" lon="17.6422018">
        <ele>28.0155</ele>
        <time>2013-03-10T10:50:36Z</time>
      </trkpt>
      <trkpt lat="59.9189431" lon="17.6422036">
        <ele>28.0155</ele>
        <time>2013-03-10T10:50:37Z</time>
      </trkpt>
      <trkpt lat="59.918927" lon="17.6422052">
        <ele>28.0155</ele>
        <time>2013-03-10T10:50:38Z</time>
      </trkpt>
      <trkpt lat="59.9189137" lon="17.6422046">
        <ele>28.0155</ele>
        <time>2013-03-10T10:50:39Z</time>
      </trkpt>
      <trkpt lat="59.9188998" lon="17.6422061">
        <ele>28.0155</ele>
        <time>2013-03-10T10:50:40Z</time>
      </trkpt>
      <trkpt lat="59.9188858" lon="17.6422078">
        <ele>28.0155</ele>
        <time>2013-03-10T10:50:41Z</time>
      </trkpt>
      <trkpt lat="59.9188718" lon="17.6422078">
        <ele>28.0155</ele>
        <time>2013-03-10T10:50:42Z</time>
      </trkpt>
      <trkpt lat="59.9188579" lon="17.6422071">
        <ele>28.0155</ele>
        <time>2013-03-10T10:50:43Z</time>
      </trkpt>
      <trkpt lat="59.9188443" lon="17.6422103">
        <ele>27.5349</ele>
        <time>2013-03-10T10:50:44Z</time>
      </trkpt>
      <trkpt lat="59.9188309" lon="17.6422148">
        <ele>27.5349</ele>
        <time>2013-03-10T10:50:45Z</time>
      </trkpt>
      <trkpt lat="59.9188185" lon="17.6422176">
        <ele>28.0155</ele>
        <time>2013-03-10T10:50:46Z</time>
      </trkpt>
      <trkpt lat="59.9188068" lon="17.6422213">
        <ele>28.0155</ele>
        <time>2013-03-10T10:50:47Z</time>
      </trkpt>
      <trkpt lat="59.9187945" lon="17.642225">
        <ele>28.0155</ele>
        <time>2013-03-10T10:50:48Z</time>
      </trkpt>
      <trkpt lat="59.9187816" lon="17.6422275">
        <ele>28.0155</ele>
        <time>2013-03-10T10:50:49Z</time>
      </trkpt>
      <trkpt lat="59.9187682" lon="17.6422305">
        <ele>27.5349</ele>
        <time>2013-03-10T10:50:50Z</time>
      </trkpt>
      <trkpt lat="59.9187553" lon="17.6422312">
        <ele>27.5349</ele>
        <time>2013-03-10T10:50:51Z</time>
      </trkpt>
      <trkpt lat="59.9187428" lon="17.6422314">
        <ele>27.5349</ele>
        <time>2013-03-10T10:50:52Z</time>
      </trkpt>
      <trkpt lat="59.9187284" lon="17.6422326">
        <ele>27.5349</ele>
        <time>2013-03-10T10:50:53Z</time>
      </trkpt>
      <trkpt lat="59.9187133" lon="17.6422353">
        <ele>27.0543</ele>
        <time>2013-03-10T10:50:54Z</time>
      </trkpt>
      <trkpt lat="59.9186998" lon="17.6422377">
        <ele>27.0543</ele>
        <time>2013-03-10T10:50:55Z</time>
      </trkpt>
      <trkpt lat="59.9186864" lon="17.6422409">
        <ele>27.0543</ele>
        <time>2013-03-10T10:50:56Z</time>
      </trkpt>
      <trkpt lat="59.9186728" lon="17.6422436">
        <ele>27.0543</ele>
        <time>2013-03-10T10:50:57Z</time>
      </trkpt>
      <trkpt lat="59.918659" lon="17.6422461">
        <ele>27.0543</ele>
        <time>2013-03-10T10:50:58Z</time>
      </trkpt>
      <trkpt lat="59.9186452" lon="17.6422492">
        <ele>27.0543</ele>
        <time>2013-03-10T10:50:59Z</time>
      </trkpt>
      <trkpt lat="59.9186309" lon="17.6422496">
        <ele>27.0543</ele>
        <time>2013-03-10T10:51:00Z</time>
      </trkpt>
      <trkpt lat="59.918617" lon="17.6422493">
        <ele>27.5349</ele>
        <time>2013-03-10T10:51:01Z</time>
      </trkpt>
      <trkpt lat="59.9186032" lon="17.6422509">
        <ele>27.0543</ele>
        <time>2013-03-10T10:51:02Z</time>
      </trkpt>
      <trkpt lat="59.9185884" lon="17.6422557">
        <ele>27.0543</ele>
        <time>2013-03-10T10:51:03Z</time>
      </trkpt>
      <trkpt lat="59.9185743" lon="17.64226">
        <ele>27.5349</ele>
        <time>2013-03-10T10:51:04Z</time>
      </trkpt>
      <trkpt lat="59.9185602" lon="17.6422628">
        <ele>27.5349</ele>
        <time>2013-03-10T10:51:05Z</time>
      </trkpt>
      <trkpt lat="59.9185463" lon="17.6422658">
        <ele>27.0543</ele>
        <time>2013-03-10T10:51:06Z</time>
      </trkpt>
      <trkpt lat="59.9185325" lon="17.6422667">
        <ele>27.0543</ele>
        <time>2013-03-10T10:51:07Z</time>
      </trkpt>
      <trkpt lat="59.9185181" lon="17.6422658">
        <ele>27.0543</ele>
        <time>2013-03-10T10:51:08Z</time>
      </trkpt>
      <trkpt lat="59.918504" lon="17.6422667">
        <ele>27.0543</ele>
        <time>2013-03-10T10:51:09Z</time>
      </trkpt>
      <trkpt lat="59.9184898" lon="17.64227">
        <ele>27.5349</ele>
        <time>2013-03-10T10:51:10Z</time>
      </trkpt>
      <trkpt lat="59.9184756" lon="17.6422731">
        <ele>27.5349</ele>
        <time>2013-03-10T10:51:11Z</time>
      </trkpt>
      <trkpt lat="59.9184636" lon="17.642274">
        <ele>27.5349</ele>
        <time>2013-03-10T10:51:12Z</time>
      </trkpt>
      <trkpt lat="59.918452" lon="17.6422725">
        <ele>27.5349</ele>
        <time>2013-03-10T10:51:13Z</time>
      </trkpt>
      <trkpt lat="59.918438" lon="17.6422744">
        <ele>27.5349</ele>
        <time>2013-03-10T10:51:14Z</time>
      </trkpt>
      <trkpt lat="59.9184259" lon="17.6422782">
        <ele>27.5349</ele>
        <time>2013-03-10T10:51:15Z</time>
      </trkpt>
      <trkpt lat="59.9184157" lon="17.6422808">
        <ele>27.5349</ele>
        <time>2013-03-10T10:51:16Z</time>
      </trkpt>
      <trkpt lat="59.9184031" lon="17.6422838">
        <ele>27.5349</ele>
        <time>2013-03-10T10:51:17Z</time>
      </trkpt>
      <trkpt lat="59.9183899" lon="17.6422864">
        <ele>27.5349</ele>
        <time>2013-03-10T10:51:18Z</time>
      </trkpt>
      <trkpt lat="59.9183776" lon="17.6422896">
        <ele>27.5349</ele>
        <time>2013-03-10T10:51:19Z</time>
      </trkpt>
      <trkpt lat="59.9183665" lon="17.6422932">
        <ele>27.5349</ele>
        <time>2013-03-10T10:51:20Z</time>
      </trkpt>
      <trkpt lat="59.91835" lon="17.6422968">
        <ele>27.5349</ele>
        <time>2013-03-10T10:51:21Z</time>
      </trkpt>
      <trkpt lat="59.9183336" lon="17.6422999">
        <ele>27.0543</ele>
        <time>2013-03-10T10:51:22Z</time>
      </trkpt>
      <trkpt lat="59.9183194" lon="17.6423014">
        <ele>27.0543</ele>
        <time>2013-03-10T10:51:23Z</time>
      </trkpt>
      <trkpt lat="59.9183044" lon="17.6423029">
        <ele>27.0543</ele>
        <time>2013-03-10T10:51:24Z</time>
      </trkpt>
      <trkpt lat="59.9182916" lon="17.6423027">
        <ele>26.5736</ele>
        <time>2013-03-10T10:51:25Z</time>
      </trkpt>
      <trkpt lat="59.9182784" lon="17.642302">
        <ele>26.5736</ele>
        <time>2013-03-10T10:51:26Z</time>
      </trkpt>
      <trkpt lat="59.9182636" lon="17.642301">
        <ele>26.5736</ele>
        <time>2013-03-10T10:51:27Z</time>
      </trkpt>
      <trkpt lat="59.9182496" lon="17.6423005">
        <ele>26.0929</ele>
        <time>2013-03-10T10:51:28Z</time>
      </trkpt>
      <trkpt lat="59.9182357" lon="17.6423019">
        <ele>26.0929</ele>
        <time>2013-03-10T10:51:29Z</time>
      </trkpt>
      <trkpt lat="59.9182215" lon="17.6423049">
        <ele>26.0929</ele>
        <time>2013-03-10T10:51:30Z</time>
      </trkpt>
      <trkpt lat="59.9182072" lon="17.6423062">
        <ele>26.0929</ele>
        <time>2013-03-10T10:51:31Z</time>
      </trkpt>
      <trkpt lat="59.9181927" lon="17.6423072">
        <ele>25.6123</ele>
        <time>2013-03-10T10:51:32Z</time>
      </trkpt>
      <trkpt lat="59.9181787" lon="17.6423073">
        <ele>25.6123</ele>
        <time>2013-03-10T10:51:33Z</time>
      </trkpt>
      <trkpt lat="59.918165" lon="17.6423073">
        <ele>25.6123</ele>
        <time>2013-03-10T10:51:34Z</time>
      </trkpt>
      <trkpt lat="59.9181508" lon="17.6423084">
        <ele>25.6123</ele>
        <time>2013-03-10T10:51:35Z</time>
      </trkpt>
      <trkpt lat="59.9181372" lon="17.6423112">
        <ele>25.6123</ele>
        <time>2013-03-10T10:51:36Z</time>
      </trkpt>
      <trkpt lat="59.9181243" lon="17.6423134">
        <ele>25.1317</ele>
        <time>2013-03-10T10:51:37Z</time>
      </trkpt>
      <trkpt lat="59.9181112" lon="17.6423149">
        <ele>25.1317</ele>
        <time>2013-03-10T10:51:38Z</time>
      </trkpt>
      <trkpt lat="59.9180983" lon="17.6423164">
        <ele>25.1317</ele>
        <time>2013-03-10T10:51:39Z</time>
      </trkpt>
      <trkpt lat="59.9180849" lon="17.6423165">
        <ele>25.1317</ele>
        <time>2013-03-10T10:51:40Z</time>
      </trkpt>
      <trkpt lat="59.9180713" lon="17.6423176">
        <ele>24.651</ele>
        <time>2013-03-10T10:51:41Z</time>
      </trkpt>
      <trkpt lat="59.9180581" lon="17.6423207">
        <ele>24.651</ele>
        <time>2013-03-10T10:51:42Z</time>
      </trkpt>
      <trkpt lat="59.9180453" lon="17.6423253">
        <ele>24.651</ele>
        <time>2013-03-10T10:51:43Z</time>
      </trkpt>
      <trkpt lat="59.918032" lon="17.6423285">
        <ele>24.651</ele>
        <time>2013-03-10T10:51:44Z</time>
      </trkpt>
      <trkpt lat="59.9180185" lon="17.6423298">
        <ele>24.651</ele>
        <time>2013-03-10T10:51:45Z</time>
      </trkpt>
      <trkpt lat="59.918005" lon="17.6423315">
        <ele>24.651</ele>
        <time>2013-03-10T10:51:46Z</time>
      </trkpt>
      <trkpt lat="59.917991" lon="17.642336">
        <ele>24.651</ele>
        <time>2013-03-10T10:51:47Z</time>
      </trkpt>
      <trkpt lat="59.9179772" lon="17.6423423">
        <ele>24.651</ele>
        <time>2013-03-10T10:51:48Z</time>
      </trkpt>
      <trkpt lat="59.9179635" lon="17.6423476">
        <ele>24.651</ele>
        <time>2013-03-10T10:51:49Z</time>
      </trkpt>
      <trkpt lat="59.9179501" lon="17.6423507">
        <ele>24.651</ele>
        <time>2013-03-10T10:51:50Z</time>
      </trkpt>
      <trkpt lat="59.9179371" lon="17.6423524">
        <ele>24.1703</ele>
        <time>2013-03-10T10:51:51Z</time>
      </trkpt>
      <trkpt lat="59.9179238" lon="17.6423547">
        <ele>24.1703</ele>
        <time>2013-03-10T10:51:52Z</time>
      </trkpt>
      <trkpt lat="59.9179104" lon="17.6423559">
        <ele>24.1703</ele>
        <time>2013-03-10T10:51:53Z</time>
      </trkpt>
      <trkpt lat="59.917897" lon="17.6423567">
        <ele>24.1703</ele>
        <time>2013-03-10T10:51:54Z</time>
      </trkpt>
      <trkpt lat="59.9178843" lon="17.6423575">
        <ele>24.1703</ele>
        <time>2013-03-10T10:51:55Z</time>
      </trkpt>
      <trkpt lat="59.9178716" lon="17.642358">
        <ele>24.651</ele>
        <time>2013-03-10T10:51:56Z</time>
      </trkpt>
      <trkpt lat="59.917859" lon="17.6423589">
        <ele>24.651</ele>
        <time>2013-03-10T10:51:57Z</time>
      </trkpt>
      <trkpt lat="59.9178457" lon="17.6423594">
        <ele>24.651</ele>
        <time>2013-03-10T10:51:58Z</time>
      </trkpt>
      <trkpt lat="59.9178327" lon="17.6423609">
        <ele>25.1317</ele>
        <time>2013-03-10T10:51:59Z</time>
      </trkpt>
      <trkpt lat="59.9178187" lon="17.6423616">
        <ele>25.1317</ele>
        <time>2013-03-10T10:52:00Z</time>
      </trkpt>
      <trkpt lat="59.9178045" lon="17.6423638">
        <ele>25.1317</ele>
        <time>2013-03-10T10:52:01Z</time>
      </trkpt>
      <trkpt lat="59.9177912" lon="17.6423683">
        <ele>25.1317</ele>
        <time>2013-03-10T10:52:02Z</time>
      </trkpt>
      <trkpt lat="59.9177772" lon="17.642371">
        <ele>25.1317</ele>
        <time>2013-03-10T10:52:03Z</time>
      </trkpt>
      <trkpt lat="59.9177625" lon="17.6423714">
        <ele>25.1317</ele>
        <time>2013-03-10T10:52:04Z</time>
      </trkpt>
      <trkpt lat="59.9177485" lon="17.642373">
        <ele>25.1317</ele>
        <time>2013-03-10T10:52:05Z</time>
      </trkpt>
      <trkpt lat="59.9177347" lon="17.642375">
        <ele>25.1317</ele>
        <time>2013-03-10T10:52:06Z</time>
      </trkpt>
      <trkpt lat="59.91772" lon="17.6423749">
        <ele>25.1317</ele>
        <time>2013-03-10T10:52:07Z</time>
      </trkpt>
      <trkpt lat="59.9177048" lon="17.6423724">
        <ele>25.1317</ele>
        <time>2013-03-10T10:52:08Z</time>
      </trkpt>
      <trkpt lat="59.9176898" lon="17.6423689">
        <ele>25.1317</ele>
        <time>2013-03-10T10:52:09Z</time>
      </trkpt>
      <trkpt lat="59.9176753" lon="17.6423679">
        <ele>25.1317</ele>
        <time>2013-03-10T10:52:10Z</time>
      </trkpt>
      <trkpt lat="59.9176616" lon="17.6423688">
        <ele>25.1317</ele>
        <time>2013-03-10T10:52:11Z</time>
      </trkpt>
      <trkpt lat="59.917648" lon="17.642369">
        <ele>25.6123</ele>
        <time>2013-03-10T10:52:12Z</time>
      </trkpt>
      <trkpt lat="59.9176343" lon="17.6423686">
        <ele>25.6123</ele>
        <time>2013-03-10T10:52:13Z</time>
      </trkpt>
      <trkpt lat="59.9176208" lon="17.6423681">
        <ele>25.6123</ele>
        <time>2013-03-10T10:52:14Z</time>
      </trkpt>
      <trkpt lat="59.9176072" lon="17.6423678">
        <ele>25.6123</ele>
        <time>2013-03-10T10:52:15Z</time>
      </trkpt>
      <trkpt lat="59.9175938" lon="17.6423666">
        <ele>25.6123</ele>
        <time>2013-03-10T10:52:16Z</time>
      </trkpt>
      <trkpt lat="59.9175791" lon="17.6423653">
        <ele>26.0929</ele>
        <time>2013-03-10T10:52:17Z</time>
      </trkpt>
      <trkpt lat="59.9175636" lon="17.6423625">
        <ele>26.0929</ele>
        <time>2013-03-10T10:52:18Z</time>
      </trkpt>
      <trkpt lat="59.917552" lon="17.6423622">
        <ele>26.0929</ele>
        <time>2013-03-10T10:52:19Z</time>
      </trkpt>
      <trkpt lat="59.9175398" lon="17.6423621">
        <ele>26.0929</ele>
        <time>2013-03-10T10:52:20Z</time>
      </trkpt>
      <trkpt lat="59.917526" lon="17.6423611">
        <ele>26.0929</ele>
        <time>2013-03-10T10:52:21Z</time>
      </trkpt>
      <trkpt lat="59.917514" lon="17.64236">
        <ele>26.0929</ele>
        <time>2013-03-10T10:52:22Z</time>
      </trkpt>
      <trkpt lat="59.9175022" lon="17.6423606">
        <ele>26.0929</ele>
        <time>2013-03-10T10:52:23Z</time>
      </trkpt>
      <trkpt lat="59.917489" lon="17.6423621">
        <ele>25.6123</ele>
        <time>2013-03-10T10:52:24Z</time>
      </trkpt>
      <trkpt lat="59.9174747" lon="17.6423614">
        <ele>25.6123</ele>
        <time>2013-03-10T10:52:25Z</time>
      </trkpt>
      <trkpt lat="59.9174613" lon="17.6423585">
        <ele>25.6123</ele>
        <time>2013-03-10T10:52:26Z</time>
      </trkpt>
      <trkpt lat="59.9174483" lon="17.6423559">
        <ele>25.6123</ele>
        <time>2013-03-10T10:52:27Z</time>
      </trkpt>
      <trkpt lat="59.9174353" lon="17.6423528">
        <ele>25.1317</ele>
        <time>2013-03-10T10:52:28Z</time>
      </trkpt>
      <trkpt lat="59.917423" lon="17.6423536">
        <ele>25.1317</ele>
        <time>2013-03-10T10:52:29Z</time>
      </trkpt>
      <trkpt lat="59.9174087" lon="17.6423544">
        <ele>25.1317</ele>
        <time>2013-03-10T10:52:30Z</time>
      </trkpt>
      <trkpt lat="59.9173938" lon="17.6423501">
        <ele>25.1317</ele>
        <time>2013-03-10T10:52:31Z</time>
      </trkpt>
      <trkpt lat="59.9173795" lon="17.6423469">
        <ele>25.1317</ele>
        <time>2013-03-10T10:52:32Z</time>
      </trkpt>
      <trkpt lat="59.9173653" lon="17.6423445">
        <ele>25.1317</ele>
        <time>2013-03-10T10:52:33Z</time>
      </trkpt>
      <trkpt lat="59.9173505" lon="17.6423436">
        <ele>25.1317</ele>
        <time>2013-03-10T10:52:34Z</time>
      </trkpt>
      <trkpt lat="59.9173359" lon="17.642344">
        <ele>25.1317</ele>
        <time>2013-03-10T10:52:35Z</time>
      </trkpt>
      <trkpt lat="59.9173215" lon="17.6423436">
        <ele>25.1317</ele>
        <time>2013-03-10T10:52:36Z</time>
      </trkpt>
      <trkpt lat="59.917307" lon="17.6423424">
        <ele>25.1317</ele>
        <time>2013-03-10T10:52:37Z</time>
      </trkpt>
      <trkpt lat="59.9172928" lon="17.6423404">
        <ele>25.1317</ele>
        <time>2013-03-10T10:52:38Z</time>
      </trkpt>
      <trkpt lat="59.9172787" lon="17.6423386">
        <ele>25.6123</ele>
        <time>2013-03-10T10:52:39Z</time>
      </trkpt>
      <trkpt lat="59.917264" lon="17.6423355">
        <ele>25.6123</ele>
        <time>2013-03-10T10:52:40Z</time>
      </trkpt>
      <trkpt lat="59.9172495" lon="17.6423327">
        <ele>25.1317</ele>
        <time>2013-03-10T10:52:41Z</time>
      </trkpt>
      <trkpt lat="59.917235" lon="17.6423324">
        <ele>25.1317</ele>
        <time>2013-03-10T10:52:42Z</time>
      </trkpt>
      <trkpt lat="59.9172209" lon="17.642331">
        <ele>25.6123</ele>
        <time>2013-03-10T10:52:43Z</time>
      </trkpt>
      <trkpt lat="59.9172063" lon="17.6423305">
        <ele>25.6123</ele>
        <time>2013-03-10T10:52:44Z</time>
      </trkpt>
      <trkpt lat="59.9171912" lon="17.6423299">
        <ele>25.6123</ele>
        <time>2013-03-10T10:52:45Z</time>
      </trkpt>
      <trkpt lat="59.9171769" lon="17.6423293">
        <ele>25.6123</ele>
        <time>2013-03-10T10:52:46Z</time>
      </trkpt>
      <trkpt lat="59.9171627" lon="17.642331">
        <ele>25.6123</ele>
        <time>2013-03-10T10:52:47Z</time>
      </trkpt>
      <trkpt lat="59.9171483" lon="17.6423347">
        <ele>25.6123</ele>
        <time>2013-03-10T10:52:48Z</time>
      </trkpt>
      <trkpt lat="59.917135" lon="17.6423393">
        <ele>26.0929</ele>
        <time>2013-03-10T10:52:49Z</time>
      </trkpt>
      <trkpt lat="59.9171213" lon="17.6423451">
        <ele>26.0929</ele>
        <time>2013-03-10T10:52:50Z</time>
      </trkpt>
      <trkpt lat="59.9171074" lon="17.6423503">
        <ele>26.0929</ele>
        <time>2013-03-10T10:52:51Z</time>
      </trkpt>
      <trkpt lat="59.9170948" lon="17.6423554">
        <ele>26.0929</ele>
        <time>2013-03-10T10:52:52Z</time>
      </trkpt>
      <trkpt lat="59.9170826" lon="17.6423619">
        <ele>26.5736</ele>
        <time>2013-03-10T10:52:53Z</time>
      </trkpt>
      <trkpt lat="59.9170692" lon="17.6423683">
        <ele>27.0543</ele>
        <time>2013-03-10T10:52:54Z</time>
      </trkpt>
      <trkpt lat="59.9170556" lon="17.6423739">
        <ele>27.0543</ele>
        <time>2013-03-10T10:52:55Z</time>
      </trkpt>
      <trkpt lat="59.9170421" lon="17.6423787">
        <ele>27.0543</ele>
        <time>2013-03-10T10:52:56Z</time>
      </trkpt>
      <trkpt lat="59.917029" lon="17.6423839">
        <ele>27.5349</ele>
        <time>2013-03-10T10:52:57Z</time>
      </trkpt>
      <trkpt lat="59.9170166" lon="17.6423894">
        <ele>27.5349</ele>
        <time>2013-03-10T10:52:58Z</time>
      </trkpt>
      <trkpt lat="59.9170041" lon="17.6423956">
        <ele>28.0155</ele>
        <time>2013-03-10T10:52:59Z</time>
      </trkpt>
      <trkpt lat="59.916991" lon="17.6424011">
        <ele>28.0155</ele>
        <time>2013-03-10T10:53:00Z</time>
      </trkpt>
      <trkpt lat="59.9169782" lon="17.6424056">
        <ele>28.0155</ele>
        <time>2013-03-10T10:53:01Z</time>
      </trkpt>
      <trkpt lat="59.9169655" lon="17.6424082">
        <ele>28.0155</ele>
        <time>2013-03-10T10:53:02Z</time>
      </trkpt>
      <trkpt lat="59.9169529" lon="17.6424099">
        <ele>28.0155</ele>
        <time>2013-03-10T10:53:03Z</time>
      </trkpt>
      <trkpt lat="59.9169404" lon="17.6424116">
        <ele>28.0155</ele>
        <time>2013-03-10T10:53:04Z</time>
      </trkpt>
      <trkpt lat="59.9169275" lon="17.6424133">
        <ele>28.0155</ele>
        <time>2013-03-10T10:53:05Z</time>
      </trkpt>
      <trkpt lat="59.9169145" lon="17.642415">
        <ele>28.4962</ele>
        <time>2013-03-10T10:53:06Z</time>
      </trkpt>
      <trkpt lat="59.9169013" lon="17.6424164">
        <ele>28.4962</ele>
        <time>2013-03-10T10:53:07Z</time>
      </trkpt>
      <trkpt lat="59.9168884" lon="17.6424176">
        <ele>28.4962</ele>
        <time>2013-03-10T10:53:08Z</time>
      </trkpt>
      <trkpt lat="59.9168757" lon="17.6424191">
        <ele>28.4962</ele>
        <time>2013-03-10T10:53:09Z</time>
      </trkpt>
      <trkpt lat="59.9168628" lon="17.6424212">
        <ele>28.4962</ele>
        <time>2013-03-10T10:53:10Z</time>
      </trkpt>
      <trkpt lat="59.9168496" lon="17.6424227">
        <ele>28.4962</ele>
        <time>2013-03-10T10:53:11Z</time>
      </trkpt>
      <trkpt lat="59.9168364" lon="17.6424236">
        <ele>28.4962</ele>
        <time>2013-03-10T10:53:12Z</time>
      </trkpt>
      <trkpt lat="59.9168231" lon="17.6424251">
        <ele>28.4962</ele>
        <time>2013-03-10T10:53:13Z</time>
      </trkpt>
      <trkpt lat="59.9168101" lon="17.6424265">
        <ele>28.4962</ele>
        <time>2013-03-10T10:53:14Z</time>
      </trkpt>
      <trkpt lat="59.9167969" lon="17.6424264">
        <ele>28.4962</ele>
        <time>2013-03-10T10:53:15Z</time>
      </trkpt>
      <trkpt lat="59.9167841" lon="17.6424257">
        <ele>28.4962</ele>
        <time>2013-03-10T10:53:16Z</time>
      </trkpt>
      <trkpt lat="59.9167711" lon="17.6424256">
        <ele>28.4962</ele>
        <time>2013-03-10T10:53:17Z</time>
      </trkpt>
      <trkpt lat="59.9167573" lon="17.6424272">
        <ele>28.4962</ele>
        <time>2013-03-10T10:53:18Z</time>
      </trkpt>
      <trkpt lat="59.9167437" lon="17.6424299">
        <ele>28.4962</ele>
        <time>2013-03-10T10:53:19Z</time>
      </trkpt>
      <trkpt lat="59.9167298" lon="17.6424316">
        <ele>28.4962</ele>
        <time>2013-03-10T10:53:20Z</time>
      </trkpt>
      <trkpt lat="59.9167163" lon="17.642433">
        <ele>28.4962</ele>
        <time>2013-03-10T10:53:21Z</time>
      </trkpt>
      <trkpt lat="59.9167033" lon="17.6424352">
        <ele>28.4962</ele>
        <time>2013-03-10T10:53:22Z</time>
      </trkpt>
      <trkpt lat="59.9166904" lon="17.6424377">
        <ele>28.4962</ele>
        <time>2013-03-10T10:53:23Z</time>
      </trkpt>
      <trkpt lat="59.9166768" lon="17.6424389">
        <ele>28.4962</ele>
        <time>2013-03-10T10:53:24Z</time>
      </trkpt>
      <trkpt lat="59.9166634" lon="17.6424401">
        <ele>28.0155</ele>
        <time>2013-03-10T10:53:25Z</time>
      </trkpt>
      <trkpt lat="59.9166506" lon="17.6424409">
        <ele>28.0155</ele>
        <time>2013-03-10T10:53:26Z</time>
      </trkpt>
      <trkpt lat="59.916638" lon="17.642442">
        <ele>28.0155</ele>
        <time>2013-03-10T10:53:27Z</time>
      </trkpt>
      <trkpt lat="59.9166256" lon="17.6424435">
        <ele>28.0155</ele>
        <time>2013-03-10T10:53:28Z</time>
      </trkpt>
      <trkpt lat="59.9166126" lon="17.642445">
        <ele>28.0155</ele>
        <time>2013-03-10T10:53:29Z</time>
      </trkpt>
      <trkpt lat="59.9165993" lon="17.6424471">
        <ele>28.0155</ele>
        <time>2013-03-10T10:53:30Z</time>
      </trkpt>
      <trkpt lat="59.9165863" lon="17.6424495">
        <ele>28.0155</ele>
        <time>2013-03-10T10:53:31Z</time>
      </trkpt>
      <trkpt lat="59.9165737" lon="17.6424515">
        <ele>28.0155</ele>
        <time>2013-03-10T10:53:32Z</time>
      </trkpt>
      <trkpt lat="59.9165605" lon="17.6424533">
        <ele>28.0155</ele>
        <time>2013-03-10T10:53:33Z</time>
      </trkpt>
      <trkpt lat="59.9165475" lon="17.6424543">
        <ele>28.0155</ele>
        <time>2013-03-10T10:53:34Z</time>
      </trkpt>
      <trkpt lat="59.9165348" lon="17.6424553">
        <ele>28.0155</ele>
        <time>2013-03-10T10:53:35Z</time>
      </trkpt>
      <trkpt lat="59.9165217" lon="17.6424557">
        <ele>28.0155</ele>
        <time>2013-03-10T10:53:36Z</time>
      </trkpt>
      <trkpt lat="59.9165081" lon="17.6424548">
        <ele>28.0155</ele>
        <time>2013-03-10T10:53:37Z</time>
      </trkpt>
      <trkpt lat="59.9164945" lon="17.6424559">
        <ele>28.0155</ele>
        <time>2013-03-10T10:53:38Z</time>
      </trkpt>
      <trkpt lat="59.9164822" lon="17.6424609">
        <ele>28.0155</ele>
        <time>2013-03-10T10:53:39Z</time>
      </trkpt>
      <trkpt lat="59.9164688" lon="17.642464">
        <ele>27.5349</ele>
        <time>2013-03-10T10:53:40Z</time>
      </trkpt>
      <trkpt lat="59.9164552" lon="17.6424642">
        <ele>28.0155</ele>
        <time>2013-03-10T10:53:41Z</time>
      </trkpt>
      <trkpt lat="59.9164422" lon="17.6424658">
        <ele>28.0155</ele>
        <time>2013-03-10T10:53:42Z</time>
      </trkpt>
      <trkpt lat="59.9164286" lon="17.6424684">
        <ele>28.0155</ele>
        <time>2013-03-10T10:53:43Z</time>
      </trkpt>
      <trkpt lat="59.9164152" lon="17.6424718">
        <ele>27.5349</ele>
        <time>2013-03-10T10:53:44Z</time>
      </trkpt>
      <trkpt lat="59.916402" lon="17.6424759">
        <ele>28.0155</ele>
        <time>2013-03-10T10:53:45Z</time>
      </trkpt>
      <trkpt lat="59.9163887" lon="17.6424787">
        <ele>28.0155</ele>
        <time>2013-03-10T10:53:46Z</time>
      </trkpt>
      <trkpt lat="59.9163758" lon="17.6424802">
        <ele>28.0155</ele>
        <time>2013-03-10T10:53:47Z</time>
      </trkpt>
      <trkpt lat="59.9163629" lon="17.6424822">
        <ele>28.0155</ele>
        <time>2013-03-10T10:53:48Z</time>
      </trkpt>
      <trkpt lat="59.9163501" lon="17.6424849">
        <ele>28.0155</ele>
        <time>2013-03-10T10:53:49Z</time>
      </trkpt>
      <trkpt lat="59.9163371" lon="17.6424878">
        <ele>28.0155</ele>
        <time>2013-03-10T10:53:50Z</time>
      </trkpt>
      <trkpt lat="59.9163243" lon="17.6424915">
        <ele>28.0155</ele>
        <time>2013-03-10T10:53:51Z</time>
      </trkpt>
      <trkpt lat="59.9163116" lon="17.6424943">
        <ele>28.0155</ele>
        <time>2013-03-10T10:53:52Z</time>
      </trkpt>
      <trkpt lat="59.9162987" lon="17.6424962">
        <ele>28.0155</ele>
        <time>2013-03-10T10:53:53Z</time>
      </trkpt>
      <trkpt lat="59.9162862" lon="17.6424967">
        <ele>28.0155</ele>
        <time>2013-03-10T10:53:54Z</time>
      </trkpt>
      <trkpt lat="59.916274" lon="17.6424976">
        <ele>28.0155</ele>
        <time>2013-03-10T10:53:55Z</time>
      </trkpt>
      <trkpt lat="59.9162616" lon="17.642499">
        <ele>28.0155</ele>
        <time>2013-03-10T10:53:56Z</time>
      </trkpt>
      <trkpt lat="59.9162495" lon="17.6425004">
        <ele>28.4962</ele>
        <time>2013-03-10T10:53:57Z</time>
      </trkpt>
      <trkpt lat="59.9162365" lon="17.6425005">
        <ele>28.0155</ele>
        <time>2013-03-10T10:53:58Z</time>
      </trkpt>
      <trkpt lat="59.9162238" lon="17.642501">
        <ele>28.0155</ele>
        <time>2013-03-10T10:53:59Z</time>
      </trkpt>
      <trkpt lat="59.9162108" lon="17.6425009">
        <ele>28.0155</ele>
        <time>2013-03-10T10:54:00Z</time>
      </trkpt>
      <trkpt lat="59.9161973" lon="17.6425014">
        <ele>28.0155</ele>
        <time>2013-03-10T10:54:01Z</time>
      </trkpt>
      <trkpt lat="59.9161836" lon="17.6425023">
        <ele>28.0155</ele>
        <time>2013-03-10T10:54:02Z</time>
      </trkpt>
      <trkpt lat="59.9161687" lon="17.642502">
        <ele>28.0155</ele>
        <time>2013-03-10T10:54:03Z</time>
      </trkpt>
      <trkpt lat="59.9161546" lon="17.642498">
        <ele>28.0155</ele>
        <time>2013-03-10T10:54:04Z</time>
      </trkpt>
      <trkpt lat="59.9161406" lon="17.6424968">
        <ele>28.0155</ele>
        <time>2013-03-10T10:54:05Z</time>
      </trkpt>
      <trkpt lat="59.9161258" lon="17.6424946">
        <ele>28.0155</ele>
        <time>2013-03-10T10:54:06Z</time>
      </trkpt>
      <trkpt lat="59.9161103" lon="17.6424936">
        <ele>28.0155</ele>
        <time>2013-03-10T10:54:07Z</time>
      </trkpt>
      <trkpt lat="59.9160942" lon="17.6424945">
        <ele>28.0155</ele>
        <time>2013-03-10T10:54:08Z</time>
      </trkpt>
      <trkpt lat="59.9160783" lon="17.6424947">
        <ele>28.0155</ele>
        <time>2013-03-10T10:54:09Z</time>
      </trkpt>
      <trkpt lat="59.9160636" lon="17.6424946">
        <ele>28.0155</ele>
        <time>2013-03-10T10:54:10Z</time>
      </trkpt>
      <trkpt lat="59.9160493" lon="17.6424952">
        <ele>28.0155</ele>
        <time>2013-03-10T10:54:11Z</time>
      </trkpt>
      <trkpt lat="59.9160346" lon="17.6424963">
        <ele>28.0155</ele>
        <time>2013-03-10T10:54:12Z</time>
      </trkpt>
      <trkpt lat="59.9160201" lon="17.6424974">
        <ele>28.0155</ele>
        <time>2013-03-10T10:54:13Z</time>
      </trkpt>
      <trkpt lat="59.9160057" lon="17.6424984">
        <ele>28.0155</ele>
        <time>2013-03-10T10:54:14Z</time>
      </trkpt>
      <trkpt lat="59.9159915" lon="17.6424993">
        <ele>28.0155</ele>
        <time>2013-03-10T10:54:15Z</time>
      </trkpt>
      <trkpt lat="59.9159774" lon="17.6425005">
        <ele>28.0155</ele>
        <time>2013-03-10T10:54:16Z</time>
      </trkpt>
      <trkpt lat="59.9159632" lon="17.6425023">
        <ele>28.0155</ele>
        <time>2013-03-10T10:54:17Z</time>
      </trkpt>
      <trkpt lat="59.9159492" lon="17.6425042">
        <ele>27.5349</ele>
        <time>2013-03-10T10:54:18Z</time>
      </trkpt>
      <trkpt lat="59.9159343" lon="17.642505">
        <ele>27.5349</ele>
        <time>2013-03-10T10:54:19Z</time>
      </trkpt>
      <trkpt lat="59.9159196" lon="17.6425061">
        <ele>27.5349</ele>
        <time>2013-03-10T10:54:20Z</time>
      </trkpt>
      <trkpt lat="59.9159056" lon="17.6425077">
        <ele>27.5349</ele>
        <time>2013-03-10T10:54:21Z</time>
      </trkpt>
      <trkpt lat="59.9158927" lon="17.642509">
        <ele>27.5349</ele>
        <time>2013-03-10T10:54:22Z</time>
      </trkpt>
      <trkpt lat="59.9158782" lon="17.6425092">
        <ele>27.0543</ele>
        <time>2013-03-10T10:54:23Z</time>
      </trkpt>
      <trkpt lat="59.9158627" lon="17.6425092">
        <ele>27.0543</ele>
        <time>2013-03-10T10:54:24Z</time>
      </trkpt>
      <trkpt lat="59.9158477" lon="17.6425099">
        <ele>27.0543</ele>
        <time>2013-03-10T10:54:25Z</time>
      </trkpt>
      <trkpt lat="59.9158331" lon="17.6425092">
        <ele>27.0543</ele>
        <time>2013-03-10T10:54:26Z</time>
      </trkpt>
      <trkpt lat="59.915819" lon="17.6425078">
        <ele>27.0543</ele>
        <time>2013-03-10T10:54:27Z</time>
      </trkpt>
      <trkpt lat="59.9158048" lon="17.6425057">
        <ele>27.0543</ele>
        <time>2013-03-10T10:54:28Z</time>
      </trkpt>
      <trkpt lat="59.9157901" lon="17.6425042">
        <ele>27.0543</ele>
        <time>2013-03-10T10:54:29Z</time>
      </trkpt>
      <trkpt lat="59.9157766" lon="17.6425031">
        <ele>26.5736</ele>
        <time>2013-03-10T10:54:30Z</time>
      </trkpt>
      <trkpt lat="59.9157626" lon="17.6425023">
        <ele>26.5736</ele>
        <time>2013-03-10T10:54:31Z</time>
      </trkpt>
      <trkpt lat="59.9157477" lon="17.6425015">
        <ele>26.5736</ele>
        <time>2013-03-10T10:54:32Z</time>
      </trkpt>
      <trkpt lat="59.9157327" lon="17.6425015">
        <ele>26.0929</ele>
        <time>2013-03-10T10:54:33Z</time>
      </trkpt>
      <trkpt lat="59.9157181" lon="17.6425016">
        <ele>26.0929</ele>
        <time>2013-03-10T10:54:34Z</time>
      </trkpt>
      <trkpt lat="59.9157035" lon="17.6425024">
        <ele>26.0929</ele>
        <time>2013-03-10T10:54:35Z</time>
      </trkpt>
      <trkpt lat="59.9156895" lon="17.6425039">
        <ele>26.0929</ele>
        <time>2013-03-10T10:54:36Z</time>
      </trkpt>
      <trkpt lat="59.9156757" lon="17.6425061">
        <ele>26.0929</ele>
        <time>2013-03-10T10:54:37Z</time>
      </trkpt>
      <trkpt lat="59.9156616" lon="17.6425088">
        <ele>26.0929</ele>
        <time>2013-03-10T10:54:38Z</time>
      </trkpt>
      <trkpt lat="59.915648" lon="17.6425104">
        <ele>26.0929</ele>
        <time>2013-03-10T10:54:39Z</time>
      </trkpt>
      <trkpt lat="59.9156341" lon="17.6425109">
        <ele>26.0929</ele>
        <time>2013-03-10T10:54:40Z</time>
      </trkpt>
      <trkpt lat="59.9156202" lon="17.6425118">
        <ele>26.0929</ele>
        <time>2013-03-10T10:54:41Z</time>
      </trkpt>
      <trkpt lat="59.9156068" lon="17.6425139">
        <ele>26.0929</ele>
        <time>2013-03-10T10:54:42Z</time>
      </trkpt>
      <trkpt lat="59.9155933" lon="17.6425163">
        <ele>26.0929</ele>
        <time>2013-03-10T10:54:43Z</time>
      </trkpt>
      <trkpt lat="59.9155786" lon="17.6425186">
        <ele>26.0929</ele>
        <time>2013-03-10T10:54:44Z</time>
      </trkpt>
      <trkpt lat="59.9155643" lon="17.6425204">
        <ele>26.0929</ele>
        <time>2013-03-10T10:54:45Z</time>
      </trkpt>
      <trkpt lat="59.9155497" lon="17.6425201">
        <ele>26.0929</ele>
        <time>2013-03-10T10:54:46Z</time>
      </trkpt>
      <trkpt lat="59.9155358" lon="17.6425202">
        <ele>26.0929</ele>
        <time>2013-03-10T10:54:47Z</time>
      </trkpt>
      <trkpt lat="59.9155229" lon="17.6425215">
        <ele>26.0929</ele>
        <time>2013-03-10T10:54:48Z</time>
      </trkpt>
      <trkpt lat="59.9155095" lon="17.6425232">
        <ele>25.6123</ele>
        <time>2013-03-10T10:54:49Z</time>
      </trkpt>
      <trkpt lat="59.9154947" lon="17.6425243">
        <ele>25.6123</ele>
        <time>2013-03-10T10:54:50Z</time>
      </trkpt>
      <trkpt lat="59.9154804" lon="17.6425258">
        <ele>25.6123</ele>
        <time>2013-03-10T10:54:51Z</time>
      </trkpt>
      <trkpt lat="59.9154667" lon="17.6425278">
        <ele>25.6123</ele>
        <time>2013-03-10T10:54:52Z</time>
      </trkpt>
      <trkpt lat="59.9154529" lon="17.6425305">
        <ele>25.1317</ele>
        <time>2013-03-10T10:54:53Z</time>
      </trkpt>
      <trkpt lat="59.9154394" lon="17.642533">
        <ele>25.1317</ele>
        <time>2013-03-10T10:54:54Z</time>
      </trkpt>
      <trkpt lat="59.9154251" lon="17.6425354">
        <ele>25.1317</ele>
        <time>2013-03-10T10:54:55Z</time>
      </trkpt>
      <trkpt lat="59.91541" lon="17.6425391">
        <ele>24.651</ele>
        <time>2013-03-10T10:54:56Z</time>
      </trkpt>
      <trkpt lat="59.9153962" lon="17.6425435">
        <ele>24.651</ele>
        <time>2013-03-10T10:54:57Z</time>
      </trkpt>
      <trkpt lat="59.9153835" lon="17.6425486">
        <ele>24.651</ele>
        <time>2013-03-10T10:54:58Z</time>
      </trkpt>
      <trkpt lat="59.9153699" lon="17.6425543">
        <ele>24.651</ele>
        <time>2013-03-10T10:54:59Z</time>
      </trkpt>
      <trkpt lat="59.9153566" lon="17.6425586">
        <ele>24.651</ele>
        <time>2013-03-10T10:55:00Z</time>
      </trkpt>
      <trkpt lat="59.915345" lon="17.6425634">
        <ele>24.651</ele>
        <time>2013-03-10T10:55:01Z</time>
      </trkpt>
      <trkpt lat="59.9153337" lon="17.6425693">
        <ele>24.651</ele>
        <time>2013-03-10T10:55:02Z</time>
      </trkpt>
      <trkpt lat="59.9153212" lon="17.6425771">
        <ele>25.1317</ele>
        <time>2013-03-10T10:55:03Z</time>
      </trkpt>
      <trkpt lat="59.9153087" lon="17.6425833">
        <ele>25.1317</ele>
        <time>2013-03-10T10:55:04Z</time>
      </trkpt>
      <trkpt lat="59.9152961" lon="17.6425922">
        <ele>24.651</ele>
        <time>2013-03-10T10:55:05Z</time>
      </trkpt>
      <trkpt lat="59.9152851" lon="17.6426064">
        <ele>24.651</ele>
        <time>2013-03-10T10:55:06Z</time>
      </trkpt>
      <trkpt lat="59.9152748" lon="17.6426158">
        <ele>24.651</ele>
        <time>2013-03-10T10:55:07Z</time>
      </trkpt>
      <trkpt lat="59.9152637" lon="17.6426191">
        <ele>24.651</ele>
        <time>2013-03-10T10:55:08Z</time>
      </trkpt>
      <trkpt lat="59.915255" lon="17.642623">
        <ele>24.651</ele>
        <time>2013-03-10T10:55:09Z</time>
      </trkpt>
      <trkpt lat="59.9152452" lon="17.6426285">
        <ele>24.651</ele>
        <time>2013-03-10T10:55:10Z</time>
      </trkpt>
      <trkpt lat="59.9152347" lon="17.6426368">
        <ele>24.651</ele>
        <time>2013-03-10T10:55:11Z</time>
      </trkpt>
      <trkpt lat="59.9152245" lon="17.642645">
        <ele>24.651</ele>
        <time>2013-03-10T10:55:12Z</time>
      </trkpt>
      <trkpt lat="59.9152158" lon="17.6426521">
        <ele>24.651</ele>
        <time>2013-03-10T10:55:13Z</time>
      </trkpt>
      <trkpt lat="59.91521" lon="17.6426627">
        <ele>25.1317</ele>
        <time>2013-03-10T10:55:14Z</time>
      </trkpt>
      <trkpt lat="59.9152066" lon="17.6426802">
        <ele>25.6123</ele>
        <time>2013-03-10T10:55:15Z</time>
      </trkpt>
      <trkpt lat="59.9152038" lon="17.6426903">
        <ele>25.6123</ele>
        <time>2013-03-10T10:55:16Z</time>
      </trkpt>
      <trkpt lat="59.9152023" lon="17.6426925">
        <ele>25.6123</ele>
        <time>2013-03-10T10:55:17Z</time>
      </trkpt>
      <trkpt lat="59.9152" lon="17.6426935">
        <ele>25.6123</ele>
        <time>2013-03-10T10:55:18Z</time>
      </trkpt>
      <trkpt lat="59.9151938" lon="17.6426961">
        <ele>25.6123</ele>
        <time>2013-03-10T10:55:19Z</time>
      </trkpt>
      <trkpt lat="59.9151867" lon="17.6427029">
        <ele>25.6123</ele>
        <time>2013-03-10T10:55:20Z</time>
      </trkpt>
      <trkpt lat="59.9151782" lon="17.6427109">
        <ele>25.6123</ele>
        <time>2013-03-10T10:55:21Z</time>
      </trkpt>
      <trkpt lat="59.9151654" lon="17.6427145">
        <ele>25.6123</ele>
        <time>2013-03-10T10:55:22Z</time>
      </trkpt>
      <trkpt lat="59.9151535" lon="17.6427181">
        <ele>25.6123</ele>
        <time>2013-03-10T10:55:23Z</time>
      </trkpt>
      <trkpt lat="59.9151406" lon="17.6427247">
        <ele>25.6123</ele>
        <time>2013-03-10T10:55:24Z</time>
      </trkpt>
      <trkpt lat="59.9151255" lon="17.64273">
        <ele>25.6123</ele>
        <time>2013-03-10T10:55:25Z</time>
      </trkpt>
      <trkpt lat="59.9151104" lon="17.6427338">
        <ele>25.6123</ele>
        <time>2013-03-10T10:55:26Z</time>
      </trkpt>
      <trkpt lat="59.9150961" lon="17.6427377">
        <ele>25.6123</ele>
        <time>2013-03-10T10:55:27Z</time>
      </trkpt>
      <trkpt lat="59.9150826" lon="17.6427417">
        <ele>25.6123</ele>
        <time>2013-03-10T10:55:28Z</time>
      </trkpt>
      <trkpt lat="59.9150681" lon="17.6427439">
        <ele>25.6123</ele>
        <time>2013-03-10T10:55:29Z</time>
      </trkpt>
      <trkpt lat="59.9150539" lon="17.6427469">
        <ele>25.6123</ele>
        <time>2013-03-10T10:55:30Z</time>
      </trkpt>
      <trkpt lat="59.9150395" lon="17.64275">
        <ele>26.0929</ele>
        <time>2013-03-10T10:55:31Z</time>
      </trkpt>
      <trkpt lat="59.915024" lon="17.6427527">
        <ele>26.0929</ele>
        <time>2013-03-10T10:55:32Z</time>
      </trkpt>
      <trkpt lat="59.9150089" lon="17.6427558">
        <ele>26.0929</ele>
        <time>2013-03-10T10:55:33Z</time>
      </trkpt>
      <trkpt lat="59.9149949" lon="17.6427582">
        <ele>26.0929</ele>
        <time>2013-03-10T10:55:34Z</time>
      </trkpt>
      <trkpt lat="59.9149805" lon="17.6427593">
        <ele>26.0929</ele>
        <time>2013-03-10T10:55:35Z</time>
      </trkpt>
      <trkpt lat="59.9149655" lon="17.6427592">
        <ele>26.5736</ele>
        <time>2013-03-10T10:55:36Z</time>
      </trkpt>
      <trkpt lat="59.9149523" lon="17.642759">
        <ele>26.5736</ele>
        <time>2013-03-10T10:55:37Z</time>
      </trkpt>
      <trkpt lat="59.9149389" lon="17.6427587">
        <ele>26.5736</ele>
        <time>2013-03-10T10:55:38Z</time>
      </trkpt>
      <trkpt lat="59.9149249" lon="17.6427568">
        <ele>26.5736</ele>
        <time>2013-03-10T10:55:39Z</time>
      </trkpt>
      <trkpt lat="59.914911" lon="17.6427537">
        <ele>26.5736</ele>
        <time>2013-03-10T10:55:40Z</time>
      </trkpt>
      <trkpt lat="59.9148965" lon="17.6427506">
        <ele>26.5736</ele>
        <time>2013-03-10T10:55:41Z</time>
      </trkpt>
      <trkpt lat="59.9148836" lon="17.6427476">
        <ele>27.0543</ele>
        <time>2013-03-10T10:55:42Z</time>
      </trkpt>
      <trkpt lat="59.9148703" lon="17.6427432">
        <ele>27.0543</ele>
        <time>2013-03-10T10:55:43Z</time>
      </trkpt>
      <trkpt lat="59.9148577" lon="17.6427409">
        <ele>27.0543</ele>
        <time>2013-03-10T10:55:44Z</time>
      </trkpt>
      <trkpt lat="59.9148453" lon="17.6427424">
        <ele>27.0543</ele>
        <time>2013-03-10T10:55:45Z</time>
      </trkpt>
      <trkpt lat="59.9148323" lon="17.6427444">
        <ele>27.0543</ele>
        <time>2013-03-10T10:55:46Z</time>
      </trkpt>
      <trkpt lat="59.9148188" lon="17.6427464">
        <ele>27.0543</ele>
        <time>2013-03-10T10:55:47Z</time>
      </trkpt>
      <trkpt lat="59.9148049" lon="17.6427481">
        <ele>27.0543</ele>
        <time>2013-03-10T10:55:48Z</time>
      </trkpt>
      <trkpt lat="59.914792" lon="17.6427507">
        <ele>27.5349</ele>
        <time>2013-03-10T10:55:49Z</time>
      </trkpt>
      <trkpt lat="59.9147795" lon="17.6427536">
        <ele>27.5349</ele>
        <time>2013-03-10T10:55:50Z</time>
      </trkpt>
      <trkpt lat="59.914767" lon="17.642757">
        <ele>27.5349</ele>
        <time>2013-03-10T10:55:51Z</time>
      </trkpt>
      <trkpt lat="59.9147545" lon="17.6427604">
        <ele>28.0155</ele>
        <time>2013-03-10T10:55:52Z</time>
      </trkpt>
      <trkpt lat="59.9147405" lon="17.6427629">
        <ele>27.5349</ele>
        <time>2013-03-10T10:55:53Z</time>
      </trkpt>
      <trkpt lat="59.9147272" lon="17.6427649">
        <ele>27.5349</ele>
        <time>2013-03-10T10:55:54Z</time>
      </trkpt>
      <trkpt lat="59.9147157" lon="17.6427677">
        <ele>27.5349</ele>
        <time>2013-03-10T10:55:55Z</time>
      </trkpt>
      <trkpt lat="59.9147057" lon="17.6427739">
        <ele>28.0155</ele>
        <time>2013-03-10T10:55:56Z</time>
      </trkpt>
      <trkpt lat="59.9146939" lon="17.6427807">
        <ele>27.5349</ele>
        <time>2013-03-10T10:55:57Z</time>
      </trkpt>
      <trkpt lat="59.9146812" lon="17.642788">
        <ele>28.0155</ele>
        <time>2013-03-10T10:55:58Z</time>
      </trkpt>
      <trkpt lat="59.9146696" lon="17.6427951">
        <ele>28.0155</ele>
        <time>2013-03-10T10:55:59Z</time>
      </trkpt>
      <trkpt lat="59.9146572" lon="17.6427999">
        <ele>28.0155</ele>
        <time>2013-03-10T10:56:00Z</time>
      </trkpt>
      <trkpt lat="59.9146447" lon="17.6428055">
        <ele>28.0155</ele>
        <time>2013-03-10T10:56:01Z</time>
      </trkpt>
      <trkpt lat="59.9146314" lon="17.64281">
        <ele>28.0155</ele>
        <time>2013-03-10T10:56:02Z</time>
      </trkpt>
      <trkpt lat="59.9146179" lon="17.6428122">
        <ele>28.0155</ele>
        <time>2013-03-10T10:56:03Z</time>
      </trkpt>
      <trkpt lat="59.9146045" lon="17.6428138">
        <ele>28.0155</ele>
        <time>2013-03-10T10:56:04Z</time>
      </trkpt>
      <trkpt lat="59.9145909" lon="17.6428165">
        <ele>28.0155</ele>
        <time>2013-03-10T10:56:05Z</time>
      </trkpt>
      <trkpt lat="59.914577" lon="17.6428205">
        <ele>28.0155</ele>
        <time>2013-03-10T10:56:06Z</time>
      </trkpt>
      <trkpt lat="59.914563" lon="17.6428241">
        <ele>28.0155</ele>
        <time>2013-03-10T10:56:07Z</time>
      </trkpt>
      <trkpt lat="59.9145485" lon="17.6428274">
        <ele>28.0155</ele>
        <time>2013-03-10T10:56:08Z</time>
      </trkpt>
      <trkpt lat="59.914534" lon="17.6428313">
        <ele>28.0155</ele>
        <time>2013-03-10T10:56:09Z</time>
      </trkpt>
      <trkpt lat="59.9145211" lon="17.6428366">
        <ele>28.0155</ele>
        <time>2013-03-10T10:56:10Z</time>
      </trkpt>
      <trkpt lat="59.9145081" lon="17.6428423">
        <ele>28.0155</ele>
        <time>2013-03-10T10:56:11Z</time>
      </trkpt>
      <trkpt lat="59.9144931" lon="17.6428459">
        <ele>28.0155</ele>
        <time>2013-03-10T10:56:12Z</time>
      </trkpt>
      <trkpt lat="59.9144786" lon="17.6428476">
        <ele>28.0155</ele>
        <time>2013-03-10T10:56:13Z</time>
      </trkpt>
      <trkpt lat="59.9144647" lon="17.6428488">
        <ele>28.0155</ele>
        <time>2013-03-10T10:56:14Z</time>
      </trkpt>
      <trkpt lat="59.9144514" lon="17.6428496">
        <ele>28.0155</ele>
        <time>2013-03-10T10:56:15Z</time>
      </trkpt>
      <trkpt lat="59.9144381" lon="17.6428512">
        <ele>28.0155</ele>
        <time>2013-03-10T10:56:16Z</time>
      </trkpt>
      <trkpt lat="59.9144241" lon="17.6428537">
        <ele>28.0155</ele>
        <time>2013-03-10T10:56:17Z</time>
      </trkpt>
      <trkpt lat="59.914411" lon="17.6428554">
        <ele>28.0155</ele>
        <time>2013-03-10T10:56:18Z</time>
      </trkpt>
      <trkpt lat="59.9143989" lon="17.6428575">
        <ele>28.0155</ele>
        <time>2013-03-10T10:56:19Z</time>
      </trkpt>
      <trkpt lat="59.9143864" lon="17.6428611">
        <ele>28.4962</ele>
        <time>2013-03-10T10:56:20Z</time>
      </trkpt>
      <trkpt lat="59.9143735" lon="17.6428633">
        <ele>28.4962</ele>
        <time>2013-03-10T10:56:21Z</time>
      </trkpt>
      <trkpt lat="59.9143608" lon="17.6428647">
        <ele>28.0155</ele>
        <time>2013-03-10T10:56:22Z</time>
      </trkpt>
      <trkpt lat="59.914349" lon="17.6428666">
        <ele>28.0155</ele>
        <time>2013-03-10T10:56:23Z</time>
      </trkpt>
      <trkpt lat="59.9143371" lon="17.642868">
        <ele>28.0155</ele>
        <time>2013-03-10T10:56:24Z</time>
      </trkpt>
      <trkpt lat="59.914325" lon="17.6428709">
        <ele>28.0155</ele>
        <time>2013-03-10T10:56:25Z</time>
      </trkpt>
      <trkpt lat="59.9143117" lon="17.6428734">
        <ele>28.0155</ele>
        <time>2013-03-10T10:56:26Z</time>
      </trkpt>
      <trkpt lat="59.9142979" lon="17.6428756">
        <ele>28.0155</ele>
        <time>2013-03-10T10:56:27Z</time>
      </trkpt>
      <trkpt lat="59.9142836" lon="17.6428775">
        <ele>28.0155</ele>
        <time>2013-03-10T10:56:28Z</time>
      </trkpt>
      <trkpt lat="59.9142685" lon="17.6428784">
        <ele>28.0155</ele>
        <time>2013-03-10T10:56:29Z</time>
      </trkpt>
      <trkpt lat="59.9142548" lon="17.642879">
        <ele>28.0155</ele>
        <time>2013-03-10T10:56:30Z</time>
      </trkpt>
      <trkpt lat="59.9142411" lon="17.6428787">
        <ele>28.0155</ele>
        <time>2013-03-10T10:56:31Z</time>
      </trkpt>
      <trkpt lat="59.9142289" lon="17.642878">
        <ele>28.0155</ele>
        <time>2013-03-10T10:56:32Z</time>
      </trkpt>
      <trkpt lat="59.914215" lon="17.6428786">
        <ele>28.0155</ele>
        <time>2013-03-10T10:56:33Z</time>
      </trkpt>
      <trkpt lat="59.9142008" lon="17.6428796">
        <ele>27.5349</ele>
        <time>2013-03-10T10:56:34Z</time>
      </trkpt>
      <trkpt lat="59.9141868" lon="17.6428785">
        <ele>27.5349</ele>
        <time>2013-03-10T10:56:35Z</time>
      </trkpt>
      <trkpt lat="59.9141729" lon="17.6428755">
        <ele>27.5349</ele>
        <time>2013-03-10T10:56:36Z</time>
      </trkpt>
      <trkpt lat="59.9141605" lon="17.642875">
        <ele>27.5349</ele>
        <time>2013-03-10T10:56:37Z</time>
      </trkpt>
      <trkpt lat="59.9141506" lon="17.642879">
        <ele>27.5349</ele>
        <time>2013-03-10T10:56:38Z</time>
      </trkpt>
      <trkpt lat="59.9141427" lon="17.6428827">
        <ele>27.5349</ele>
        <time>2013-03-10T10:56:39Z</time>
      </trkpt>
      <trkpt lat="59.9141344" lon="17.6428838">
        <ele>28.0155</ele>
        <time>2013-03-10T10:56:40Z</time>
      </trkpt>
      <trkpt lat="59.9141247" lon="17.6428839">
        <ele>28.0155</ele>
        <time>2013-03-10T10:56:41Z</time>
      </trkpt>
      <trkpt lat="59.9141152" lon="17.6428834">
        <ele>28.0155</ele>
        <time>2013-03-10T10:56:42Z</time>
      </trkpt>
      <trkpt lat="59.914106" lon="17.6428838">
        <ele>28.0155</ele>
        <time>2013-03-10T10:56:43Z</time>
      </trkpt>
      <trkpt lat="59.9140956" lon="17.6428853">
        <ele>28.0155</ele>
        <time>2013-03-10T10:56:44Z</time>
      </trkpt>
      <trkpt lat="59.9140859" lon="17.6428874">
        <ele>28.4962</ele>
        <time>2013-03-10T10:56:45Z</time>
      </trkpt>
      <trkpt lat="59.9140776" lon="17.642889">
        <ele>28.4962</ele>
        <time>2013-03-10T10:56:46Z</time>
      </trkpt>
      <trkpt lat="59.9140693" lon="17.6428921">
        <ele>28.4962</ele>
        <time>2013-03-10T10:56:47Z</time>
      </trkpt>
      <trkpt lat="59.9140604" lon="17.6428935">
        <ele>28.4962</ele>
        <time>2013-03-10T10:56:48Z</time>
      </trkpt>
      <trkpt lat="59.9140507" lon="17.6428953">
        <ele>28.4962</ele>
        <time>2013-03-10T10:56:49Z</time>
      </trkpt>
      <trkpt lat="59.9140408" lon="17.6428967">
        <ele>28.4962</ele>
        <time>2013-03-10T10:56:50Z</time>
      </trkpt>
      <trkpt lat="59.9140325" lon="17.6429014">
        <ele>28.4962</ele>
        <time>2013-03-10T10:56:51Z</time>
      </trkpt>
      <trkpt lat="59.9140237" lon="17.642905">
        <ele>28.4962</ele>
        <time>2013-03-10T10:56:52Z</time>
      </trkpt>
      <trkpt lat="59.9140139" lon="17.6429069">
        <ele>28.4962</ele>
        <time>2013-03-10T10:56:53Z</time>
      </trkpt>
      <trkpt lat="59.914004" lon="17.6429081">
        <ele>28.4962</ele>
        <time>2013-03-10T10:56:54Z</time>
      </trkpt>
      <trkpt lat="59.9139932" lon="17.6429069">
        <ele>28.4962</ele>
        <time>2013-03-10T10:56:55Z</time>
      </trkpt>
      <trkpt lat="59.9139822" lon="17.6429082">
        <ele>28.4962</ele>
        <time>2013-03-10T10:56:56Z</time>
      </trkpt>
      <trkpt lat="59.9139704" lon="17.6429102">
        <ele>28.4962</ele>
        <time>2013-03-10T10:56:57Z</time>
      </trkpt>
      <trkpt lat="59.9139584" lon="17.6429129">
        <ele>28.4962</ele>
        <time>2013-03-10T10:56:58Z</time>
      </trkpt>
      <trkpt lat="59.9139451" lon="17.6429163">
        <ele>28.4962</ele>
        <time>2013-03-10T10:56:59Z</time>
      </trkpt>
      <trkpt lat="59.9139319" lon="17.6429191">
        <ele>28.4962</ele>
        <time>2013-03-10T10:57:00Z</time>
      </trkpt>
      <trkpt lat="59.9139184" lon="17.6429211">
        <ele>28.4962</ele>
        <time>2013-03-10T10:57:01Z</time>
      </trkpt>
      <trkpt lat="59.9139044" lon="17.6429229">
        <ele>28.4962</ele>
        <time>2013-03-10T10:57:02Z</time>
      </trkpt>
      <trkpt lat="59.9138902" lon="17.6429253">
        <ele>28.4962</ele>
        <time>2013-03-10T10:57:03Z</time>
      </trkpt>
      <trkpt lat="59.9138762" lon="17.6429283">
        <ele>28.4962</ele>
        <time>2013-03-10T10:57:04Z</time>
      </trkpt>
      <trkpt lat="59.9138621" lon="17.6429298">
        <ele>28.4962</ele>
        <time>2013-03-10T10:57:05Z</time>
      </trkpt>
      <trkpt lat="59.9138491" lon="17.6429298">
        <ele>28.4962</ele>
        <time>2013-03-10T10:57:06Z</time>
      </trkpt>
      <trkpt lat="59.9138372" lon="17.6429299">
        <ele>28.4962</ele>
        <time>2013-03-10T10:57:07Z</time>
      </trkpt>
      <trkpt lat="59.9138268" lon="17.6429334">
        <ele>28.4962</ele>
        <time>2013-03-10T10:57:08Z</time>
      </trkpt>
      <trkpt lat="59.9138155" lon="17.6429366">
        <ele>28.4962</ele>
        <time>2013-03-10T10:57:09Z</time>
      </trkpt>
      <trkpt lat="59.9138031" lon="17.6429387">
        <ele>28.4962</ele>
        <time>2013-03-10T10:57:10Z</time>
      </trkpt>
      <trkpt lat="59.9137897" lon="17.6429417">
        <ele>28.9769</ele>
        <time>2013-03-10T10:57:11Z</time>
      </trkpt>
      <trkpt lat="59.9137761" lon="17.6429438">
        <ele>28.4962</ele>
        <time>2013-03-10T10:57:12Z</time>
      </trkpt>
      <trkpt lat="59.9137642" lon="17.6429459">
        <ele>28.9769</ele>
        <time>2013-03-10T10:57:13Z</time>
      </trkpt>
      <trkpt lat="59.9137531" lon="17.6429495">
        <ele>28.9769</ele>
        <time>2013-03-10T10:57:14Z</time>
      </trkpt>
      <trkpt lat="59.9137414" lon="17.6429541">
        <ele>28.9769</ele>
        <time>2013-03-10T10:57:15Z</time>
      </trkpt>
      <trkpt lat="59.9137285" lon="17.6429572">
        <ele>28.9769</ele>
        <time>2013-03-10T10:57:16Z</time>
      </trkpt>
      <trkpt lat="59.9137153" lon="17.6429603">
        <ele>28.9769</ele>
        <time>2013-03-10T10:57:17Z</time>
      </trkpt>
      <trkpt lat="59.913702" lon="17.6429635">
        <ele>28.9769</ele>
        <time>2013-03-10T10:57:18Z</time>
      </trkpt>
      <trkpt lat="59.9136881" lon="17.642966">
        <ele>28.9769</ele>
        <time>2013-03-10T10:57:19Z</time>
      </trkpt>
      <trkpt lat="59.9136742" lon="17.6429675">
        <ele>28.9769</ele>
        <time>2013-03-10T10:57:20Z</time>
      </trkpt>
      <trkpt lat="59.91366" lon="17.6429695">
        <ele>28.9769</ele>
        <time>2013-03-10T10:57:21Z</time>
      </trkpt>
      <trkpt lat="59.9136465" lon="17.642973">
        <ele>28.9769</ele>
        <time>2013-03-10T10:57:22Z</time>
      </trkpt>
      <trkpt lat="59.9136347" lon="17.6429774">
        <ele>28.9769</ele>
        <time>2013-03-10T10:57:23Z</time>
      </trkpt>
      <trkpt lat="59.9136227" lon="17.6429805">
        <ele>28.9769</ele>
        <time>2013-03-10T10:57:24Z</time>
      </trkpt>
      <trkpt lat="59.9136098" lon="17.6429832">
        <ele>28.9769</ele>
        <time>2013-03-10T10:57:25Z</time>
      </trkpt>
      <trkpt lat="59.9135951" lon="17.6429868">
        <ele>28.9769</ele>
        <time>2013-03-10T10:57:26Z</time>
      </trkpt>
      <trkpt lat="59.9135813" lon="17.642992">
        <ele>28.9769</ele>
        <time>2013-03-10T10:57:27Z</time>
      </trkpt>
      <trkpt lat="59.9135679" lon="17.6429958">
        <ele>28.9769</ele>
        <time>2013-03-10T10:57:28Z</time>
      </trkpt>
      <trkpt lat="59.9135538" lon="17.6429982">
        <ele>28.9769</ele>
        <time>2013-03-10T10:57:29Z</time>
      </trkpt>
      <trkpt lat="59.9135399" lon="17.6430002">
        <ele>28.9769</ele>
        <time>2013-03-10T10:57:30Z</time>
      </trkpt>
      <trkpt lat="59.9135259" lon="17.6430024">
        <ele>28.9769</ele>
        <time>2013-03-10T10:57:31Z</time>
      </trkpt>
      <trkpt lat="59.9135118" lon="17.6430046">
        <ele>28.9769</ele>
        <time>2013-03-10T10:57:32Z</time>
      </trkpt>
      <trkpt lat="59.9134975" lon="17.6430061">
        <ele>28.9769</ele>
        <time>2013-03-10T10:57:33Z</time>
      </trkpt>
      <trkpt lat="59.9134835" lon="17.6430081">
        <ele>28.4962</ele>
        <time>2013-03-10T10:57:34Z</time>
      </trkpt>
      <trkpt lat="59.9134693" lon="17.6430105">
        <ele>28.4962</ele>
        <time>2013-03-10T10:57:35Z</time>
      </trkpt>
      <trkpt lat="59.9134549" lon="17.6430127">
        <ele>28.4962</ele>
        <time>2013-03-10T10:57:36Z</time>
      </trkpt>
      <trkpt lat="59.913441" lon="17.6430168">
        <ele>28.4962</ele>
        <time>2013-03-10T10:57:37Z</time>
      </trkpt>
      <trkpt lat="59.913427" lon="17.643021">
        <ele>28.4962</ele>
        <time>2013-03-10T10:57:38Z</time>
      </trkpt>
      <trkpt lat="59.913413" lon="17.6430252">
        <ele>28.0155</ele>
        <time>2013-03-10T10:57:39Z</time>
      </trkpt>
      <trkpt lat="59.9133995" lon="17.6430301">
        <ele>28.0155</ele>
        <time>2013-03-10T10:57:40Z</time>
      </trkpt>
      <trkpt lat="59.9133855" lon="17.6430376">
        <ele>28.0155</ele>
        <time>2013-03-10T10:57:41Z</time>
      </trkpt>
      <trkpt lat="59.9133715" lon="17.6430458">
        <ele>28.0155</ele>
        <time>2013-03-10T10:57:42Z</time>
      </trkpt>
      <trkpt lat="59.913357" lon="17.6430531">
        <ele>28.0155</ele>
        <time>2013-03-10T10:57:43Z</time>
      </trkpt>
      <trkpt lat="59.9133441" lon="17.6430599">
        <ele>28.0155</ele>
        <time>2013-03-10T10:57:44Z</time>
      </trkpt>
      <trkpt lat="59.9133327" lon="17.6430661">
        <ele>28.0155</ele>
        <time>2013-03-10T10:57:45Z</time>
      </trkpt>
      <trkpt lat="59.9133219" lon="17.6430765">
        <ele>28.0155</ele>
        <time>2013-03-10T10:57:46Z</time>
      </trkpt>
      <trkpt lat="59.913309" lon="17.6430866">
        <ele>28.0155</ele>
        <time>2013-03-10T10:57:47Z</time>
      </trkpt>
      <trkpt lat="59.9132942" lon="17.6430906">
        <ele>28.4962</ele>
        <time>2013-03-10T10:57:48Z</time>
      </trkpt>
      <trkpt lat="59.9132798" lon="17.6430921">
        <ele>28.4962</ele>
        <time>2013-03-10T10:57:49Z</time>
      </trkpt>
      <trkpt lat="59.9132681" lon="17.643096">
        <ele>28.4962</ele>
        <time>2013-03-10T10:57:50Z</time>
      </trkpt>
      <trkpt lat="59.9132567" lon="17.6431013">
        <ele>28.4962</ele>
        <time>2013-03-10T10:57:51Z</time>
      </trkpt>
      <trkpt lat="59.9132439" lon="17.6431034">
        <ele>28.4962</ele>
        <time>2013-03-10T10:57:52Z</time>
      </trkpt>
      <trkpt lat="59.9132317" lon="17.6431029">
        <ele>28.4962</ele>
        <time>2013-03-10T10:57:53Z</time>
      </trkpt>
      <trkpt lat="59.9132206" lon="17.6431027">
        <ele>28.4962</ele>
        <time>2013-03-10T10:57:54Z</time>
      </trkpt>
      <trkpt lat="59.9132073" lon="17.6431018">
        <ele>28.4962</ele>
        <time>2013-03-10T10:57:55Z</time>
      </trkpt>
      <trkpt lat="59.9131934" lon="17.6431008">
        <ele>28.4962</ele>
        <time>2013-03-10T10:57:56Z</time>
      </trkpt>
      <trkpt lat="59.9131803" lon="17.6431008">
        <ele>28.9769</ele>
        <time>2013-03-10T10:57:57Z</time>
      </trkpt>
      <trkpt lat="59.9131674" lon="17.643104">
        <ele>28.9769</ele>
        <time>2013-03-10T10:57:58Z</time>
      </trkpt>
      <trkpt lat="59.9131534" lon="17.6431095">
        <ele>28.4962</ele>
        <time>2013-03-10T10:57:59Z</time>
      </trkpt>
      <trkpt lat="59.9131404" lon="17.643112">
        <ele>28.9769</ele>
        <time>2013-03-10T10:58:00Z</time>
      </trkpt>
      <trkpt lat="59.9131251" lon="17.643113">
        <ele>28.4962</ele>
        <time>2013-03-10T10:58:01Z</time>
      </trkpt>
      <trkpt lat="59.9131114" lon="17.6431123">
        <ele>28.4962</ele>
        <time>2013-03-10T10:58:02Z</time>
      </trkpt>
      <trkpt lat="59.9130978" lon="17.6431133">
        <ele>28.4962</ele>
        <time>2013-03-10T10:58:03Z</time>
      </trkpt>
      <trkpt lat="59.9130856" lon="17.6431169">
        <ele>28.4962</ele>
        <time>2013-03-10T10:58:04Z</time>
      </trkpt>
      <trkpt lat="59.9130726" lon="17.6431188">
        <ele>28.9769</ele>
        <time>2013-03-10T10:58:05Z</time>
      </trkpt>
      <trkpt lat="59.9130586" lon="17.6431177">
        <ele>28.9769</ele>
        <time>2013-03-10T10:58:06Z</time>
      </trkpt>
      <trkpt lat="59.9130446" lon="17.6431169">
        <ele>28.9769</ele>
        <time>2013-03-10T10:58:07Z</time>
      </trkpt>
      <trkpt lat="59.9130306" lon="17.6431177">
        <ele>29.4575</ele>
        <time>2013-03-10T10:58:08Z</time>
      </trkpt>
      <trkpt lat="59.9130155" lon="17.6431188">
        <ele>29.4575</ele>
        <time>2013-03-10T10:58:09Z</time>
      </trkpt>
      <trkpt lat="59.9129999" lon="17.6431214">
        <ele>29.4575</ele>
        <time>2013-03-10T10:58:10Z</time>
      </trkpt>
      <trkpt lat="59.9129861" lon="17.6431249">
        <ele>29.4575</ele>
        <time>2013-03-10T10:58:11Z</time>
      </trkpt>
      <trkpt lat="59.9129726" lon="17.6431297">
        <ele>29.9381</ele>
        <time>2013-03-10T10:58:12Z</time>
      </trkpt>
      <trkpt lat="59.9129593" lon="17.6431355">
        <ele>30.4188</ele>
        <time>2013-03-10T10:58:13Z</time>
      </trkpt>
      <trkpt lat="59.9129459" lon="17.64314">
        <ele>30.4188</ele>
        <time>2013-03-10T10:58:14Z</time>
      </trkpt>
      <trkpt lat="59.9129316" lon="17.6431426">
        <ele>29.9381</ele>
        <time>2013-03-10T10:58:15Z</time>
      </trkpt>
      <trkpt lat="59.9129183" lon="17.6431436">
        <ele>29.9381</ele>
        <time>2013-03-10T10:58:16Z</time>
      </trkpt>
      <trkpt lat="59.9129063" lon="17.6431457">
        <ele>30.4188</ele>
        <time>2013-03-10T10:58:17Z</time>
      </trkpt>
      <trkpt lat="59.9128933" lon="17.6431498">
        <ele>30.8995</ele>
        <time>2013-03-10T10:58:18Z</time>
      </trkpt>
      <trkpt lat="59.9128813" lon="17.6431516">
        <ele>30.8995</ele>
        <time>2013-03-10T10:58:19Z</time>
      </trkpt>
      <trkpt lat="59.9128679" lon="17.6431536">
        <ele>31.3801</ele>
        <time>2013-03-10T10:58:20Z</time>
      </trkpt>
      <trkpt lat="59.9128511" lon="17.6431571">
        <ele>30.8995</ele>
        <time>2013-03-10T10:58:21Z</time>
      </trkpt>
      <trkpt lat="59.9128359" lon="17.6431598">
        <ele>30.8995</ele>
        <time>2013-03-10T10:58:22Z</time>
      </trkpt>
      <trkpt lat="59.9128212" lon="17.6431599">
        <ele>30.8995</ele>
        <time>2013-03-10T10:58:23Z</time>
      </trkpt>
      <trkpt lat="59.9128089" lon="17.6431583">
        <ele>30.8995</ele>
        <time>2013-03-10T10:58:24Z</time>
      </trkpt>
      <trkpt lat="59.9127929" lon="17.6431553">
        <ele>31.3801</ele>
        <time>2013-03-10T10:58:25Z</time>
      </trkpt>
      <trkpt lat="59.9127783" lon="17.6431527">
        <ele>31.3801</ele>
        <time>2013-03-10T10:58:26Z</time>
      </trkpt>
      <trkpt lat="59.9127658" lon="17.6431514">
        <ele>31.3801</ele>
        <time>2013-03-10T10:58:27Z</time>
      </trkpt>
      <trkpt lat="59.9127546" lon="17.6431486">
        <ele>31.3801</ele>
        <time>2013-03-10T10:58:28Z</time>
      </trkpt>
      <trkpt lat="59.9127448" lon="17.6431442">
        <ele>31.3801</ele>
        <time>2013-03-10T10:58:29Z</time>
      </trkpt>
      <trkpt lat="59.912736" lon="17.6431401">
        <ele>31.3801</ele>
        <time>2013-03-10T10:58:30Z</time>
      </trkpt>
      <trkpt lat="59.912726" lon="17.6431363">
        <ele>31.3801</ele>
        <time>2013-03-10T10:58:31Z</time>
      </trkpt>
      <trkpt lat="59.9127121" lon="17.6431303">
        <ele>31.3801</ele>
        <time>2013-03-10T10:58:32Z</time>
      </trkpt>
      <trkpt lat="59.9126992" lon="17.6431249">
        <ele>31.3801</ele>
        <time>2013-03-10T10:58:33Z</time>
      </trkpt>
      <trkpt lat="59.9126836" lon="17.6431179">
        <ele>31.3801</ele>
        <time>2013-03-10T10:58:34Z</time>
      </trkpt>
      <trkpt lat="59.912671" lon="17.6431108">
        <ele>31.3801</ele>
        <time>2013-03-10T10:58:35Z</time>
      </trkpt>
      <trkpt lat="59.912657" lon="17.6431029">
        <ele>31.3801</ele>
        <time>2013-03-10T10:58:36Z</time>
      </trkpt>
      <trkpt lat="59.9126447" lon="17.643094">
        <ele>31.3801</ele>
        <time>2013-03-10T10:58:37Z</time>
      </trkpt>
      <trkpt lat="59.9126318" lon="17.6430864">
        <ele>31.3801</ele>
        <time>2013-03-10T10:58:38Z</time>
      </trkpt>
      <trkpt lat="59.9126198" lon="17.6430827">
        <ele>31.3801</ele>
        <time>2013-03-10T10:58:39Z</time>
      </trkpt>
      <trkpt lat="59.9126049" lon="17.6430821">
        <ele>31.3801</ele>
        <time>2013-03-10T10:58:40Z</time>
      </trkpt>
      <trkpt lat="59.91259" lon="17.643082">
        <ele>31.8607</ele>
        <time>2013-03-10T10:58:41Z</time>
      </trkpt>
      <trkpt lat="59.9125758" lon="17.6430801">
        <ele>31.8607</ele>
        <time>2013-03-10T10:58:42Z</time>
      </trkpt>
      <trkpt lat="59.9125607" lon="17.6430792">
        <ele>31.8607</ele>
        <time>2013-03-10T10:58:43Z</time>
      </trkpt>
      <trkpt lat="59.9125465" lon="17.6430791">
        <ele>31.8607</ele>
        <time>2013-03-10T10:58:44Z</time>
      </trkpt>
      <trkpt lat="59.9125324" lon="17.6430794">
        <ele>31.8607</ele>
        <time>2013-03-10T10:58:45Z</time>
      </trkpt>
      <trkpt lat="59.9125208" lon="17.6430785">
        <ele>31.8607</ele>
        <time>2013-03-10T10:58:46Z</time>
      </trkpt>
      <trkpt lat="59.9125087" lon="17.6430775">
        <ele>31.8607</ele>
        <time>2013-03-10T10:58:47Z</time>
      </trkpt>
      <trkpt lat="59.9124959" lon="17.643078">
        <ele>31.8607</ele>
        <time>2013-03-10T10:58:48Z</time>
      </trkpt>
      <trkpt lat="59.9124843" lon="17.6430804">
        <ele>31.8607</ele>
        <time>2013-03-10T10:58:49Z</time>
      </trkpt>
      <trkpt lat="59.9124711" lon="17.6430822">
        <ele>31.8607</ele>
        <time>2013-03-10T10:58:50Z</time>
      </trkpt>
      <trkpt lat="59.9124571" lon="17.6430842">
        <ele>31.8607</ele>
        <time>2013-03-10T10:58:51Z</time>
      </trkpt>
      <trkpt lat="59.9124437" lon="17.6430872">
        <ele>32.3416</ele>
        <time>2013-03-10T10:58:52Z</time>
      </trkpt>
      <trkpt lat="59.9124302" lon="17.6430903">
        <ele>32.3416</ele>
        <time>2013-03-10T10:58:53Z</time>
      </trkpt>
      <trkpt lat="59.912417" lon="17.6430933">
        <ele>32.3416</ele>
        <time>2013-03-10T10:58:54Z</time>
      </trkpt>
      <trkpt lat="59.9124053" lon="17.6430971">
        <ele>32.8223</ele>
        <time>2013-03-10T10:58:55Z</time>
      </trkpt>
      <trkpt lat="59.9123926" lon="17.6431018">
        <ele>32.8223</ele>
        <time>2013-03-10T10:58:56Z</time>
      </trkpt>
      <trkpt lat="59.9123792" lon="17.6431059">
        <ele>32.8223</ele>
        <time>2013-03-10T10:58:57Z</time>
      </trkpt>
      <trkpt lat="59.9123648" lon="17.6431082">
        <ele>32.8223</ele>
        <time>2013-03-10T10:58:58Z</time>
      </trkpt>
      <trkpt lat="59.912351" lon="17.6431121">
        <ele>32.8223</ele>
        <time>2013-03-10T10:58:59Z</time>
      </trkpt>
      <trkpt lat="59.9123369" lon="17.6431156">
        <ele>32.8223</ele>
        <time>2013-03-10T10:59:00Z</time>
      </trkpt>
      <trkpt lat="59.9123222" lon="17.6431187">
        <ele>32.8223</ele>
        <time>2013-03-10T10:59:01Z</time>
      </trkpt>
      <trkpt lat="59.9123081" lon="17.6431222">
        <ele>33.3029</ele>
        <time>2013-03-10T10:59:02Z</time>
      </trkpt>
      <trkpt lat="59.9122941" lon="17.6431257">
        <ele>33.3029</ele>
        <time>2013-03-10T10:59:03Z</time>
      </trkpt>
      <trkpt lat="59.9122804" lon="17.6431284">
        <ele>33.3029</ele>
        <time>2013-03-10T10:59:04Z</time>
      </trkpt>
      <trkpt lat="59.9122662" lon="17.6431309">
        <ele>33.3029</ele>
        <time>2013-03-10T10:59:05Z</time>
      </trkpt>
      <trkpt lat="59.9122522" lon="17.6431338">
        <ele>32.8223</ele>
        <time>2013-03-10T10:59:06Z</time>
      </trkpt>
      <trkpt lat="59.9122382" lon="17.6431376">
        <ele>32.8223</ele>
        <time>2013-03-10T10:59:07Z</time>
      </trkpt>
      <trkpt lat="59.912224" lon="17.6431415">
        <ele>33.3029</ele>
        <time>2013-03-10T10:59:08Z</time>
      </trkpt>
      <trkpt lat="59.9122102" lon="17.6431453">
        <ele>33.3029</ele>
        <time>2013-03-10T10:59:09Z</time>
      </trkpt>
      <trkpt lat="59.9121962" lon="17.6431498">
        <ele>33.3029</ele>
        <time>2013-03-10T10:59:10Z</time>
      </trkpt>
      <trkpt lat="59.9121822" lon="17.6431538">
        <ele>33.7834</ele>
        <time>2013-03-10T10:59:11Z</time>
      </trkpt>
      <trkpt lat="59.9121708" lon="17.6431604">
        <ele>33.7834</ele>
        <time>2013-03-10T10:59:12Z</time>
      </trkpt>
      <trkpt lat="59.9121604" lon="17.6431683">
        <ele>33.7834</ele>
        <time>2013-03-10T10:59:13Z</time>
      </trkpt>
      <trkpt lat="59.9121484" lon="17.6431716">
        <ele>33.7834</ele>
        <time>2013-03-10T10:59:14Z</time>
      </trkpt>
      <trkpt lat="59.9121362" lon="17.6431733">
        <ele>34.2642</ele>
        <time>2013-03-10T10:59:15Z</time>
      </trkpt>
      <trkpt lat="59.9121242" lon="17.6431747">
        <ele>34.2642</ele>
        <time>2013-03-10T10:59:16Z</time>
      </trkpt>
      <trkpt lat="59.9121128" lon="17.6431781">
        <ele>34.2642</ele>
        <time>2013-03-10T10:59:17Z</time>
      </trkpt>
      <trkpt lat="59.9121014" lon="17.6431817">
        <ele>34.2642</ele>
        <time>2013-03-10T10:59:18Z</time>
      </trkpt>
      <trkpt lat="59.9120905" lon="17.6431853">
        <ele>34.2642</ele>
        <time>2013-03-10T10:59:19Z</time>
      </trkpt>
      <trkpt lat="59.9120789" lon="17.6431895">
        <ele>34.2642</ele>
        <time>2013-03-10T10:59:20Z</time>
      </trkpt>
      <trkpt lat="59.9120682" lon="17.643193">
        <ele>33.7834</ele>
        <time>2013-03-10T10:59:21Z</time>
      </trkpt>
      <trkpt lat="59.9120579" lon="17.6431998">
        <ele>33.7834</ele>
        <time>2013-03-10T10:59:22Z</time>
      </trkpt>
      <trkpt lat="59.9120469" lon="17.643206">
        <ele>33.7834</ele>
        <time>2013-03-10T10:59:23Z</time>
      </trkpt>
      <trkpt lat="59.9120341" lon="17.6432099">
        <ele>33.7834</ele>
        <time>2013-03-10T10:59:24Z</time>
      </trkpt>
      <trkpt lat="59.9120201" lon="17.6432132">
        <ele>33.3029</ele>
        <time>2013-03-10T10:59:25Z</time>
      </trkpt>
      <trkpt lat="59.912005" lon="17.6432138">
        <ele>33.7834</ele>
        <time>2013-03-10T10:59:26Z</time>
      </trkpt>
      <trkpt lat="59.9119896" lon="17.643214">
        <ele>33.3029</ele>
        <time>2013-03-10T10:59:27Z</time>
      </trkpt>
      <trkpt lat="59.9119734" lon="17.6432162">
        <ele>33.3029</ele>
        <time>2013-03-10T10:59:28Z</time>
      </trkpt>
      <trkpt lat="59.9119589" lon="17.6432173">
        <ele>33.3029</ele>
        <time>2013-03-10T10:59:29Z</time>
      </trkpt>
      <trkpt lat="59.9119459" lon="17.6432225">
        <ele>33.3029</ele>
        <time>2013-03-10T10:59:30Z</time>
      </trkpt>
      <trkpt lat="59.9119346" lon="17.6432285">
        <ele>33.3029</ele>
        <time>2013-03-10T10:59:31Z</time>
      </trkpt>
      <trkpt lat="59.9119214" lon="17.6432332">
        <ele>33.7834</ele>
        <time>2013-03-10T10:59:32Z</time>
      </trkpt>
      <trkpt lat="59.9119065" lon="17.6432345">
        <ele>33.3029</ele>
        <time>2013-03-10T10:59:33Z</time>
      </trkpt>
      <trkpt lat="59.911892" lon="17.6432371">
        <ele>33.3029</ele>
        <time>2013-03-10T10:59:34Z</time>
      </trkpt>
      <trkpt lat="59.9118775" lon="17.6432399">
        <ele>33.3029</ele>
        <time>2013-03-10T10:59:35Z</time>
      </trkpt>
      <trkpt lat="59.9118622" lon="17.6432412">
        <ele>33.3029</ele>
        <time>2013-03-10T10:59:36Z</time>
      </trkpt>
      <trkpt lat="59.9118491" lon="17.6432434">
        <ele>32.8223</ele>
        <time>2013-03-10T10:59:37Z</time>
      </trkpt>
      <trkpt lat="59.9118365" lon="17.6432443">
        <ele>32.8223</ele>
        <time>2013-03-10T10:59:38Z</time>
      </trkpt>
      <trkpt lat="59.9118244" lon="17.6432453">
        <ele>32.8223</ele>
        <time>2013-03-10T10:59:39Z</time>
      </trkpt>
      <trkpt lat="59.9118109" lon="17.6432469">
        <ele>32.8223</ele>
        <time>2013-03-10T10:59:40Z</time>
      </trkpt>
      <trkpt lat="59.9117964" lon="17.6432499">
        <ele>32.8223</ele>
        <time>2013-03-10T10:59:41Z</time>
      </trkpt>
      <trkpt lat="59.9117831" lon="17.6432547">
        <ele>32.8223</ele>
        <time>2013-03-10T10:59:42Z</time>
      </trkpt>
      <trkpt lat="59.9117688" lon="17.6432583">
        <ele>33.3029</ele>
        <time>2013-03-10T10:59:43Z</time>
      </trkpt>
      <trkpt lat="59.9117579" lon="17.6432609">
        <ele>33.3029</ele>
        <time>2013-03-10T10:59:44Z</time>
      </trkpt>
      <trkpt lat="59.9117465" lon="17.643264">
        <ele>33.3029</ele>
        <time>2013-03-10T10:59:45Z</time>
      </trkpt>
      <trkpt lat="59.9117346" lon="17.6432697">
        <ele>33.3029</ele>
        <time>2013-03-10T10:59:46Z</time>
      </trkpt>
      <trkpt lat="59.9117221" lon="17.6432733">
        <ele>33.7834</ele>
        <time>2013-03-10T10:59:47Z</time>
      </trkpt>
      <trkpt lat="59.9117071" lon="17.6432774">
        <ele>33.7834</ele>
        <time>2013-03-10T10:59:48Z</time>
      </trkpt>
      <trkpt lat="59.9116926" lon="17.6432794">
        <ele>33.7834</ele>
        <time>2013-03-10T10:59:49Z</time>
      </trkpt>
      <trkpt lat="59.9116749" lon="17.6432805">
        <ele>33.7834</ele>
        <time>2013-03-10T10:59:50Z</time>
      </trkpt>
      <trkpt lat="59.9116554" lon="17.6432801">
        <ele>34.2642</ele>
        <time>2013-03-10T10:59:51Z</time>
      </trkpt>
      <trkpt lat="59.9116399" lon="17.6432811">
        <ele>34.2642</ele>
        <time>2013-03-10T10:59:52Z</time>
      </trkpt>
      <trkpt lat="59.9116259" lon="17.6432845">
        <ele>34.2642</ele>
        <time>2013-03-10T10:59:53Z</time>
      </trkpt>
      <trkpt lat="59.9116158" lon="17.6432945">
        <ele>34.2642</ele>
        <time>2013-03-10T10:59:54Z</time>
      </trkpt>
      <trkpt lat="59.911603" lon="17.6433011">
        <ele>33.7834</ele>
        <time>2013-03-10T10:59:55Z</time>
      </trkpt>
      <trkpt lat="59.9115891" lon="17.6433052">
        <ele>33.7834</ele>
        <time>2013-03-10T10:59:56Z</time>
      </trkpt>
      <trkpt lat="59.9115762" lon="17.6433089">
        <ele>33.7834</ele>
        <time>2013-03-10T10:59:57Z</time>
      </trkpt>
      <trkpt lat="59.9115621" lon="17.6433126">
        <ele>33.7834</ele>
        <time>2013-03-10T10:59:58Z</time>
      </trkpt>
      <trkpt lat="59.9115471" lon="17.6433168">
        <ele>33.7834</ele>
        <time>2013-03-10T10:59:59Z</time>
      </trkpt>
      <trkpt lat="59.9115352" lon="17.643322">
        <ele>33.7834</ele>
        <time>2013-03-10T11:00:00Z</time>
      </trkpt>
      <trkpt lat="59.9115208" lon="17.6433206">
        <ele>34.2642</ele>
        <time>2013-03-10T11:00:01Z</time>
      </trkpt>
      <trkpt lat="59.9115057" lon="17.6433216">
        <ele>33.7834</ele>
        <time>2013-03-10T11:00:02Z</time>
      </trkpt>
      <trkpt lat="59.9114922" lon="17.6433256">
        <ele>33.7834</ele>
        <time>2013-03-10T11:00:03Z</time>
      </trkpt>
      <trkpt lat="59.9114791" lon="17.6433272">
        <ele>33.3029</ele>
        <time>2013-03-10T11:00:04Z</time>
      </trkpt>
      <trkpt lat="59.9114642" lon="17.6433282">
        <ele>33.3029</ele>
        <time>2013-03-10T11:00:05Z</time>
      </trkpt>
      <trkpt lat="59.9114497" lon="17.6433301">
        <ele>33.3029</ele>
        <time>2013-03-10T11:00:06Z</time>
      </trkpt>
      <trkpt lat="59.9114369" lon="17.6433328">
        <ele>33.3029</ele>
        <time>2013-03-10T11:00:07Z</time>
      </trkpt>
      <trkpt lat="59.9114231" lon="17.6433351">
        <ele>33.3029</ele>
        <time>2013-03-10T11:00:08Z</time>
      </trkpt>
      <trkpt lat="59.9114073" lon="17.6433381">
        <ele>33.3029</ele>
        <time>2013-03-10T11:00:09Z</time>
      </trkpt>
      <trkpt lat="59.9113912" lon="17.6433415">
        <ele>32.8223</ele>
        <time>2013-03-10T11:00:10Z</time>
      </trkpt>
      <trkpt lat="59.911374" lon="17.6433443">
        <ele>32.8223</ele>
        <time>2013-03-10T11:00:11Z</time>
      </trkpt>
      <trkpt lat="59.9113606" lon="17.6433477">
        <ele>32.8223</ele>
        <time>2013-03-10T11:00:12Z</time>
      </trkpt>
      <trkpt lat="59.9113492" lon="17.6433521">
        <ele>32.8223</ele>
        <time>2013-03-10T11:00:13Z</time>
      </trkpt>
      <trkpt lat="59.9113364" lon="17.6433556">
        <ele>32.8223</ele>
        <time>2013-03-10T11:00:14Z</time>
      </trkpt>
      <trkpt lat="59.9113228" lon="17.643358">
        <ele>32.3416</ele>
        <time>2013-03-10T11:00:15Z</time>
      </trkpt>
      <trkpt lat="59.9113099" lon="17.6433612">
        <ele>32.3416</ele>
        <time>2013-03-10T11:00:16Z</time>
      </trkpt>
      <trkpt lat="59.9112965" lon="17.6433648">
        <ele>32.3416</ele>
        <time>2013-03-10T11:00:17Z</time>
      </trkpt>
      <trkpt lat="59.9112853" lon="17.6433682">
        <ele>32.8223</ele>
        <time>2013-03-10T11:00:18Z</time>
      </trkpt>
      <trkpt lat="59.9112736" lon="17.6433712">
        <ele>32.8223</ele>
        <time>2013-03-10T11:00:19Z</time>
      </trkpt>
      <trkpt lat="59.9112605" lon="17.6433729">
        <ele>32.3416</ele>
        <time>2013-03-10T11:00:20Z</time>
      </trkpt>
      <trkpt lat="59.9112466" lon="17.6433752">
        <ele>32.3416</ele>
        <time>2013-03-10T11:00:21Z</time>
      </trkpt>
      <trkpt lat="59.9112337" lon="17.643379">
        <ele>32.8223</ele>
        <time>2013-03-10T11:00:22Z</time>
      </trkpt>
      <trkpt lat="59.9112228" lon="17.6433826">
        <ele>32.8223</ele>
        <time>2013-03-10T11:00:23Z</time>
      </trkpt>
      <trkpt lat="59.9112107" lon="17.6433852">
        <ele>32.8223</ele>
        <time>2013-03-10T11:00:24Z</time>
      </trkpt>
      <trkpt lat="59.9111975" lon="17.6433891">
        <ele>32.8223</ele>
        <time>2013-03-10T11:00:25Z</time>
      </trkpt>
      <trkpt lat="59.9111844" lon="17.6433943">
        <ele>32.8223</ele>
        <time>2013-03-10T11:00:26Z</time>
      </trkpt>
      <trkpt lat="59.9111731" lon="17.6434006">
        <ele>32.8223</ele>
        <time>2013-03-10T11:00:27Z</time>
      </trkpt>
      <trkpt lat="59.9111596" lon="17.643405">
        <ele>32.8223</ele>
        <time>2013-03-10T11:00:28Z</time>
      </trkpt>
      <trkpt lat="59.9111478" lon="17.6434083">
        <ele>32.8223</ele>
        <time>2013-03-10T11:00:29Z</time>
      </trkpt>
      <trkpt lat="59.9111339" lon="17.6434111">
        <ele>32.8223</ele>
        <time>2013-03-10T11:00:30Z</time>
      </trkpt>
      <trkpt lat="59.9111213" lon="17.6434141">
        <ele>32.8223</ele>
        <time>2013-03-10T11:00:31Z</time>
      </trkpt>
      <trkpt lat="59.9111089" lon="17.6434159">
        <ele>32.8223</ele>
        <time>2013-03-10T11:00:32Z</time>
      </trkpt>
      <trkpt lat="59.911094" lon="17.6434174">
        <ele>32.8223</ele>
        <time>2013-03-10T11:00:33Z</time>
      </trkpt>
      <trkpt lat="59.9110798" lon="17.6434193">
        <ele>32.8223</ele>
        <time>2013-03-10T11:00:34Z</time>
      </trkpt>
      <trkpt lat="59.9110664" lon="17.6434215">
        <ele>32.8223</ele>
        <time>2013-03-10T11:00:35Z</time>
      </trkpt>
      <trkpt lat="59.9110498" lon="17.6434231">
        <ele>32.8223</ele>
        <time>2013-03-10T11:00:36Z</time>
      </trkpt>
      <trkpt lat="59.9110374" lon="17.6434262">
        <ele>32.8223</ele>
        <time>2013-03-10T11:00:37Z</time>
      </trkpt>
      <trkpt lat="59.9110218" lon="17.6434292">
        <ele>32.8223</ele>
        <time>2013-03-10T11:00:38Z</time>
      </trkpt>
      <trkpt lat="59.9110068" lon="17.6434319">
        <ele>32.8223</ele>
        <time>2013-03-10T11:00:39Z</time>
      </trkpt>
      <trkpt lat="59.9109912" lon="17.6434345">
        <ele>32.8223</ele>
        <time>2013-03-10T11:00:40Z</time>
      </trkpt>
      <trkpt lat="59.9109762" lon="17.6434365">
        <ele>32.8223</ele>
        <time>2013-03-10T11:00:41Z</time>
      </trkpt>
      <trkpt lat="59.9109648" lon="17.6434391">
        <ele>32.8223</ele>
        <time>2013-03-10T11:00:42Z</time>
      </trkpt>
      <trkpt lat="59.9109524" lon="17.6434411">
        <ele>32.8223</ele>
        <time>2013-03-10T11:00:43Z</time>
      </trkpt>
      <trkpt lat="59.9109404" lon="17.6434417">
        <ele>32.8223</ele>
        <time>2013-03-10T11:00:44Z</time>
      </trkpt>
      <trkpt lat="59.9109308" lon="17.6434409">
        <ele>32.8223</ele>
        <time>2013-03-10T11:00:45Z</time>
      </trkpt>
      <trkpt lat="59.910918" lon="17.6434401">
        <ele>32.3416</ele>
        <time>2013-03-10T11:00:46Z</time>
      </trkpt>
      <trkpt lat="59.9109051" lon="17.6434425">
        <ele>32.3416</ele>
        <time>2013-03-10T11:00:47Z</time>
      </trkpt>
      <trkpt lat="59.9108913" lon="17.6434453">
        <ele>32.3416</ele>
        <time>2013-03-10T11:00:48Z</time>
      </trkpt>
      <trkpt lat="59.9108773" lon="17.6434474">
        <ele>32.3416</ele>
        <time>2013-03-10T11:00:49Z</time>
      </trkpt>
      <trkpt lat="59.9108618" lon="17.6434494">
        <ele>32.3416</ele>
        <time>2013-03-10T11:00:50Z</time>
      </trkpt>
      <trkpt lat="59.9108463" lon="17.643453">
        <ele>32.3416</ele>
        <time>2013-03-10T11:00:51Z</time>
      </trkpt>
      <trkpt lat="59.9108302" lon="17.6434562">
        <ele>32.3416</ele>
        <time>2013-03-10T11:00:52Z</time>
      </trkpt>
      <trkpt lat="59.9108162" lon="17.6434575">
        <ele>32.3416</ele>
        <time>2013-03-10T11:00:53Z</time>
      </trkpt>
      <trkpt lat="59.9108025" lon="17.6434598">
        <ele>32.3416</ele>
        <time>2013-03-10T11:00:54Z</time>
      </trkpt>
      <trkpt lat="59.9107913" lon="17.6434644">
        <ele>32.3416</ele>
        <time>2013-03-10T11:00:55Z</time>
      </trkpt>
      <trkpt lat="59.9107783" lon="17.6434697">
        <ele>32.3416</ele>
        <time>2013-03-10T11:00:56Z</time>
      </trkpt>
      <trkpt lat="59.9107664" lon="17.6434754">
        <ele>32.8223</ele>
        <time>2013-03-10T11:00:57Z</time>
      </trkpt>
      <trkpt lat="59.9107545" lon="17.6434809">
        <ele>32.8223</ele>
        <time>2013-03-10T11:00:58Z</time>
      </trkpt>
      <trkpt lat="59.9107432" lon="17.6434862">
        <ele>32.8223</ele>
        <time>2013-03-10T11:00:59Z</time>
      </trkpt>
      <trkpt lat="59.9107305" lon="17.6434915">
        <ele>32.8223</ele>
        <time>2013-03-10T11:01:00Z</time>
      </trkpt>
      <trkpt lat="59.9107197" lon="17.6434961">
        <ele>33.3029</ele>
        <time>2013-03-10T11:01:01Z</time>
      </trkpt>
      <trkpt lat="59.9107081" lon="17.6435">
        <ele>33.3029</ele>
        <time>2013-03-10T11:01:02Z</time>
      </trkpt>
      <trkpt lat="59.9106953" lon="17.6435028">
        <ele>33.7834</ele>
        <time>2013-03-10T11:01:03Z</time>
      </trkpt>
      <trkpt lat="59.9106831" lon="17.6435063">
        <ele>33.7834</ele>
        <time>2013-03-10T11:01:04Z</time>
      </trkpt>
      <trkpt lat="59.9106701" lon="17.6435106">
        <ele>33.7834</ele>
        <time>2013-03-10T11:01:05Z</time>
      </trkpt>
      <trkpt lat="59.9106575" lon="17.6435157">
        <ele>33.7834</ele>
        <time>2013-03-10T11:01:06Z</time>
      </trkpt>
      <trkpt lat="59.9106443" lon="17.6435213">
        <ele>34.2642</ele>
        <time>2013-03-10T11:01:07Z</time>
      </trkpt>
      <trkpt lat="59.9106323" lon="17.6435274">
        <ele>34.2642</ele>
        <time>2013-03-10T11:01:08Z</time>
      </trkpt>
      <trkpt lat="59.9106198" lon="17.6435327">
        <ele>34.2642</ele>
        <time>2013-03-10T11:01:09Z</time>
      </trkpt>
      <trkpt lat="59.9106095" lon="17.643537">
        <ele>34.2642</ele>
        <time>2013-03-10T11:01:10Z</time>
      </trkpt>
      <trkpt lat="59.910596" lon="17.643541">
        <ele>34.2642</ele>
        <time>2013-03-10T11:01:11Z</time>
      </trkpt>
      <trkpt lat="59.9105801" lon="17.6435435">
        <ele>34.2642</ele>
        <time>2013-03-10T11:01:12Z</time>
      </trkpt>
      <trkpt lat="59.9105655" lon="17.6435487">
        <ele>34.2642</ele>
        <time>2013-03-10T11:01:13Z</time>
      </trkpt>
      <trkpt lat="59.9105529" lon="17.6435582">
        <ele>34.2642</ele>
        <time>2013-03-10T11:01:14Z</time>
      </trkpt>
      <trkpt lat="59.9105401" lon="17.6435684">
        <ele>33.7834</ele>
        <time>2013-03-10T11:01:15Z</time>
      </trkpt>
      <trkpt lat="59.9105261" lon="17.6435768">
        <ele>33.7834</ele>
        <time>2013-03-10T11:01:16Z</time>
      </trkpt>
      <trkpt lat="59.9105135" lon="17.6435845">
        <ele>33.7834</ele>
        <time>2013-03-10T11:01:17Z</time>
      </trkpt>
      <trkpt lat="59.9105002" lon="17.6435929">
        <ele>33.7834</ele>
        <time>2013-03-10T11:01:18Z</time>
      </trkpt>
      <trkpt lat="59.9104868" lon="17.6436001">
        <ele>33.7834</ele>
        <time>2013-03-10T11:01:19Z</time>
      </trkpt>
      <trkpt lat="59.9104759" lon="17.6436086">
        <ele>34.2642</ele>
        <time>2013-03-10T11:01:20Z</time>
      </trkpt>
      <trkpt lat="59.9104649" lon="17.6436173">
        <ele>34.2642</ele>
        <time>2013-03-10T11:01:21Z</time>
      </trkpt>
      <trkpt lat="59.9104532" lon="17.6436226">
        <ele>33.7834</ele>
        <time>2013-03-10T11:01:22Z</time>
      </trkpt>
      <trkpt lat="59.9104375" lon="17.643624">
        <ele>33.7834</ele>
        <time>2013-03-10T11:01:23Z</time>
      </trkpt>
      <trkpt lat="59.9104216" lon="17.6436262">
        <ele>33.3029</ele>
        <time>2013-03-10T11:01:24Z</time>
      </trkpt>
      <trkpt lat="59.910407" lon="17.6436261">
        <ele>33.3029</ele>
        <time>2013-03-10T11:01:25Z</time>
      </trkpt>
      <trkpt lat="59.9103944" lon="17.6436279">
        <ele>33.3029</ele>
        <time>2013-03-10T11:01:26Z</time>
      </trkpt>
      <trkpt lat="59.9103801" lon="17.6436301">
        <ele>33.3029</ele>
        <time>2013-03-10T11:01:27Z</time>
      </trkpt>
      <trkpt lat="59.9103669" lon="17.6436338">
        <ele>33.3029</ele>
        <time>2013-03-10T11:01:28Z</time>
      </trkpt>
      <trkpt lat="59.9103526" lon="17.643636">
        <ele>33.3029</ele>
        <time>2013-03-10T11:01:29Z</time>
      </trkpt>
      <trkpt lat="59.910339" lon="17.6436364">
        <ele>33.3029</ele>
        <time>2013-03-10T11:01:30Z</time>
      </trkpt>
      <trkpt lat="59.9103235" lon="17.6436333">
        <ele>33.3029</ele>
        <time>2013-03-10T11:01:31Z</time>
      </trkpt>
      <trkpt lat="59.9103068" lon="17.6436255">
        <ele>32.8223</ele>
        <time>2013-03-10T11:01:32Z</time>
      </trkpt>
      <trkpt lat="59.9102931" lon="17.6436193">
        <ele>32.8223</ele>
        <time>2013-03-10T11:01:33Z</time>
      </trkpt>
      <trkpt lat="59.9102795" lon="17.6436172">
        <ele>32.8223</ele>
        <time>2013-03-10T11:01:34Z</time>
      </trkpt>
      <trkpt lat="59.9102646" lon="17.6436176">
        <ele>32.8223</ele>
        <time>2013-03-10T11:01:35Z</time>
      </trkpt>
      <trkpt lat="59.910249" lon="17.6436172">
        <ele>32.8223</ele>
        <time>2013-03-10T11:01:36Z</time>
      </trkpt>
      <trkpt lat="59.9102361" lon="17.6436214">
        <ele>32.3416</ele>
        <time>2013-03-10T11:01:37Z</time>
      </trkpt>
      <trkpt lat="59.9102262" lon="17.6436292">
        <ele>32.3416</ele>
        <time>2013-03-10T11:01:38Z</time>
      </trkpt>
      <trkpt lat="59.9102126" lon="17.6436327">
        <ele>32.3416</ele>
        <time>2013-03-10T11:01:39Z</time>
      </trkpt>
      <trkpt lat="59.910198" lon="17.6436364">
        <ele>32.3416</ele>
        <time>2013-03-10T11:01:40Z</time>
      </trkpt>
      <trkpt lat="59.9101836" lon="17.6436422">
        <ele>31.8607</ele>
        <time>2013-03-10T11:01:41Z</time>
      </trkpt>
      <trkpt lat="59.9101702" lon="17.6436477">
        <ele>32.3416</ele>
        <time>2013-03-10T11:01:42Z</time>
      </trkpt>
      <trkpt lat="59.9101571" lon="17.6436487">
        <ele>31.8607</ele>
        <time>2013-03-10T11:01:43Z</time>
      </trkpt>
      <trkpt lat="59.9101432" lon="17.6436479">
        <ele>31.8607</ele>
        <time>2013-03-10T11:01:44Z</time>
      </trkpt>
      <trkpt lat="59.9101303" lon="17.6436488">
        <ele>31.8607</ele>
        <time>2013-03-10T11:01:45Z</time>
      </trkpt>
      <trkpt lat="59.9101138" lon="17.6436469">
        <ele>31.8607</ele>
        <time>2013-03-10T11:01:46Z</time>
      </trkpt>
      <trkpt lat="59.9100993" lon="17.6436455">
        <ele>31.8607</ele>
        <time>2013-03-10T11:01:47Z</time>
      </trkpt>
      <trkpt lat="59.9100853" lon="17.6436432">
        <ele>31.8607</ele>
        <time>2013-03-10T11:01:48Z</time>
      </trkpt>
      <trkpt lat="59.9100682" lon="17.6436409">
        <ele>31.3801</ele>
        <time>2013-03-10T11:01:49Z</time>
      </trkpt>
      <trkpt lat="59.9100542" lon="17.6436411">
        <ele>31.8607</ele>
        <time>2013-03-10T11:01:50Z</time>
      </trkpt>
      <trkpt lat="59.9100423" lon="17.6436362">
        <ele>31.3801</ele>
        <time>2013-03-10T11:01:51Z</time>
      </trkpt>
      <trkpt lat="59.9100287" lon="17.6436295">
        <ele>31.3801</ele>
        <time>2013-03-10T11:01:52Z</time>
      </trkpt>
      <trkpt lat="59.910018" lon="17.6436281">
        <ele>31.3801</ele>
        <time>2013-03-10T11:01:53Z</time>
      </trkpt>
      <trkpt lat="59.9100045" lon="17.6436261">
        <ele>31.3801</ele>
        <time>2013-03-10T11:01:54Z</time>
      </trkpt>
      <trkpt lat="59.909991" lon="17.6436231">
        <ele>31.3801</ele>
        <time>2013-03-10T11:01:55Z</time>
      </trkpt>
      <trkpt lat="59.9099776" lon="17.6436208">
        <ele>31.3801</ele>
        <time>2013-03-10T11:01:56Z</time>
      </trkpt>
      <trkpt lat="59.9099625" lon="17.6436165">
        <ele>30.8995</ele>
        <time>2013-03-10T11:01:57Z</time>
      </trkpt>
      <trkpt lat="59.9099475" lon="17.6436112">
        <ele>30.4188</ele>
        <time>2013-03-10T11:01:58Z</time>
      </trkpt>
      <trkpt lat="59.9099318" lon="17.6436049">
        <ele>30.4188</ele>
        <time>2013-03-10T11:01:59Z</time>
      </trkpt>
      <trkpt lat="59.9099165" lon="17.643598">
        <ele>30.4188</ele>
        <time>2013-03-10T11:02:00Z</time>
      </trkpt>
      <trkpt lat="59.9099024" lon="17.6435898">
        <ele>30.4188</ele>
        <time>2013-03-10T11:02:01Z</time>
      </trkpt>
      <trkpt lat="59.9098893" lon="17.6435841">
        <ele>30.4188</ele>
        <time>2013-03-10T11:02:02Z</time>
      </trkpt>
      <trkpt lat="59.9098755" lon="17.6435801">
        <ele>30.4188</ele>
        <time>2013-03-10T11:02:03Z</time>
      </trkpt>
      <trkpt lat="59.9098639" lon="17.6435784">
        <ele>30.4188</ele>
        <time>2013-03-10T11:02:04Z</time>
      </trkpt>
      <trkpt lat="59.9098485" lon="17.6435784">
        <ele>30.8995</ele>
        <time>2013-03-10T11:02:05Z</time>
      </trkpt>
      <trkpt lat="59.9098346" lon="17.6435774">
        <ele>30.8995</ele>
        <time>2013-03-10T11:02:06Z</time>
      </trkpt>
      <trkpt lat="59.9098209" lon="17.6435738">
        <ele>30.8995</ele>
        <time>2013-03-10T11:02:07Z</time>
      </trkpt>
      <trkpt lat="59.9098056" lon="17.6435733">
        <ele>30.8995</ele>
        <time>2013-03-10T11:02:08Z</time>
      </trkpt>
      <trkpt lat="59.9097898" lon="17.6435747">
        <ele>30.8995</ele>
        <time>2013-03-10T11:02:09Z</time>
      </trkpt>
      <trkpt lat="59.9097746" lon="17.6435772">
        <ele>31.3801</ele>
        <time>2013-03-10T11:02:10Z</time>
      </trkpt>
      <trkpt lat="59.9097577" lon="17.6435805">
        <ele>31.3801</ele>
        <time>2013-03-10T11:02:11Z</time>
      </trkpt>
      <trkpt lat="59.9097424" lon="17.6435841">
        <ele>31.8607</ele>
        <time>2013-03-10T11:02:12Z</time>
      </trkpt>
      <trkpt lat="59.909729" lon="17.6435881">
        <ele>31.8607</ele>
        <time>2013-03-10T11:02:13Z</time>
      </trkpt>
      <trkpt lat="59.9097171" lon="17.6435935">
        <ele>32.3416</ele>
        <time>2013-03-10T11:02:14Z</time>
      </trkpt>
      <trkpt lat="59.9097033" lon="17.6435996">
        <ele>32.8223</ele>
        <time>2013-03-10T11:02:15Z</time>
      </trkpt>
      <trkpt lat="59.909692" lon="17.6436047">
        <ele>32.8223</ele>
        <time>2013-03-10T11:02:16Z</time>
      </trkpt>
      <trkpt lat="59.9096805" lon="17.643609">
        <ele>33.3029</ele>
        <time>2013-03-10T11:02:17Z</time>
      </trkpt>
      <trkpt lat="59.9096658" lon="17.643611">
        <ele>33.3029</ele>
        <time>2013-03-10T11:02:18Z</time>
      </trkpt>
      <trkpt lat="59.9096502" lon="17.6436122">
        <ele>33.3029</ele>
        <time>2013-03-10T11:02:19Z</time>
      </trkpt>
      <trkpt lat="59.9096356" lon="17.6436143">
        <ele>33.3029</ele>
        <time>2013-03-10T11:02:20Z</time>
      </trkpt>
      <trkpt lat="59.909623" lon="17.6436192">
        <ele>33.7834</ele>
        <time>2013-03-10T11:02:21Z</time>
      </trkpt>
      <trkpt lat="59.9096082" lon="17.6436266">
        <ele>33.7834</ele>
        <time>2013-03-10T11:02:22Z</time>
      </trkpt>
      <trkpt lat="59.9095947" lon="17.6436334">
        <ele>34.2642</ele>
        <time>2013-03-10T11:02:23Z</time>
      </trkpt>
      <trkpt lat="59.9095826" lon="17.6436381">
        <ele>34.2642</ele>
        <time>2013-03-10T11:02:24Z</time>
      </trkpt>
      <trkpt lat="59.9095714" lon="17.6436421">
        <ele>34.2642</ele>
        <time>2013-03-10T11:02:25Z</time>
      </trkpt>
      <trkpt lat="59.9095599" lon="17.6436467">
        <ele>34.2642</ele>
        <time>2013-03-10T11:02:26Z</time>
      </trkpt>
      <trkpt lat="59.9095469" lon="17.643652">
        <ele>34.2642</ele>
        <time>2013-03-10T11:02:27Z</time>
      </trkpt>
      <trkpt lat="59.9095341" lon="17.6436551">
        <ele>34.2642</ele>
        <time>2013-03-10T11:02:28Z</time>
      </trkpt>
      <trkpt lat="59.9095201" lon="17.6436597">
        <ele>34.2642</ele>
        <time>2013-03-10T11:02:29Z</time>
      </trkpt>
      <trkpt lat="59.9095075" lon="17.6436628">
        <ele>34.2642</ele>
        <time>2013-03-10T11:02:30Z</time>
      </trkpt>
      <trkpt lat="59.9094957" lon="17.6436659">
        <ele>34.7449</ele>
        <time>2013-03-10T11:02:31Z</time>
      </trkpt>
      <trkpt lat="59.909486" lon="17.6436691">
        <ele>34.7449</ele>
        <time>2013-03-10T11:02:32Z</time>
      </trkpt>
      <trkpt lat="59.9094729" lon="17.6436722">
        <ele>34.7449</ele>
        <time>2013-03-10T11:02:33Z</time>
      </trkpt>
      <trkpt lat="59.9094583" lon="17.6436748">
        <ele>34.7449</ele>
        <time>2013-03-10T11:02:34Z</time>
      </trkpt>
      <trkpt lat="59.909447" lon="17.6436784">
        <ele>34.7449</ele>
        <time>2013-03-10T11:02:35Z</time>
      </trkpt>
      <trkpt lat="59.9094335" lon="17.6436825">
        <ele>35.2255</ele>
        <time>2013-03-10T11:02:36Z</time>
      </trkpt>
      <trkpt lat="59.90942" lon="17.6436872">
        <ele>35.2255</ele>
        <time>2013-03-10T11:02:37Z</time>
      </trkpt>
      <trkpt lat="59.909408" lon="17.6436924">
        <ele>35.7061</ele>
        <time>2013-03-10T11:02:38Z</time>
      </trkpt>
      <trkpt lat="59.9093931" lon="17.643696">
        <ele>35.7061</ele>
        <time>2013-03-10T11:02:39Z</time>
      </trkpt>
      <trkpt lat="59.9093801" lon="17.6436986">
        <ele>35.7061</ele>
        <time>2013-03-10T11:02:40Z</time>
      </trkpt>
      <trkpt lat="59.909369" lon="17.6437013">
        <ele>35.7061</ele>
        <time>2013-03-10T11:02:41Z</time>
      </trkpt>
      <trkpt lat="59.9093574" lon="17.6437041">
        <ele>35.7061</ele>
        <time>2013-03-10T11:02:42Z</time>
      </trkpt>
      <trkpt lat="59.9093404" lon="17.6437059">
        <ele>35.7061</ele>
        <time>2013-03-10T11:02:43Z</time>
      </trkpt>
      <trkpt lat="59.9093232" lon="17.6437073">
        <ele>35.7061</ele>
        <time>2013-03-10T11:02:44Z</time>
      </trkpt>
      <trkpt lat="59.9093114" lon="17.6437098">
        <ele>35.7061</ele>
        <time>2013-03-10T11:02:45Z</time>
      </trkpt>
      <trkpt lat="59.9092973" lon="17.6437124">
        <ele>35.7061</ele>
        <time>2013-03-10T11:02:46Z</time>
      </trkpt>
      <trkpt lat="59.9092839" lon="17.6437142">
        <ele>35.7061</ele>
        <time>2013-03-10T11:02:47Z</time>
      </trkpt>
      <trkpt lat="59.9092714" lon="17.6437163">
        <ele>35.7061</ele>
        <time>2013-03-10T11:02:48Z</time>
      </trkpt>
      <trkpt lat="59.9092578" lon="17.6437175">
        <ele>35.7061</ele>
        <time>2013-03-10T11:02:49Z</time>
      </trkpt>
      <trkpt lat="59.909243" lon="17.6437186">
        <ele>35.7061</ele>
        <time>2013-03-10T11:02:50Z</time>
      </trkpt>
      <trkpt lat="59.9092284" lon="17.6437203">
        <ele>35.7061</ele>
        <time>2013-03-10T11:02:51Z</time>
      </trkpt>
      <trkpt lat="59.9092145" lon="17.6437208">
        <ele>35.7061</ele>
        <time>2013-03-10T11:02:52Z</time>
      </trkpt>
      <trkpt lat="59.9091991" lon="17.6437219">
        <ele>35.7061</ele>
        <time>2013-03-10T11:02:53Z</time>
      </trkpt>
      <trkpt lat="59.909182" lon="17.6437223">
        <ele>35.2255</ele>
        <time>2013-03-10T11:02:54Z</time>
      </trkpt>
      <trkpt lat="59.909168" lon="17.6437244">
        <ele>35.2255</ele>
        <time>2013-03-10T11:02:55Z</time>
      </trkpt>
      <trkpt lat="59.9091548" lon="17.6437262">
        <ele>35.7061</ele>
        <time>2013-03-10T11:02:56Z</time>
      </trkpt>
      <trkpt lat="59.9091399" lon="17.643726">
        <ele>35.2255</ele>
        <time>2013-03-10T11:02:57Z</time>
      </trkpt>
      <trkpt lat="59.9091247" lon="17.6437256">
        <ele>34.7449</ele>
        <time>2013-03-10T11:02:58Z</time>
      </trkpt>
      <trkpt lat="59.9091107" lon="17.6437274">
        <ele>34.7449</ele>
        <time>2013-03-10T11:02:59Z</time>
      </trkpt>
      <trkpt lat="59.9090964" lon="17.6437293">
        <ele>34.7449</ele>
        <time>2013-03-10T11:03:00Z</time>
      </trkpt>
      <trkpt lat="59.9090819" lon="17.6437289">
        <ele>34.7449</ele>
        <time>2013-03-10T11:03:01Z</time>
      </trkpt>
      <trkpt lat="59.9090693" lon="17.6437272">
        <ele>34.7449</ele>
        <time>2013-03-10T11:03:02Z</time>
      </trkpt>
      <trkpt lat="59.9090568" lon="17.6437248">
        <ele>34.7449</ele>
        <time>2013-03-10T11:03:03Z</time>
      </trkpt>
      <trkpt lat="59.9090439" lon="17.6437235">
        <ele>34.2642</ele>
        <time>2013-03-10T11:03:04Z</time>
      </trkpt>
      <trkpt lat="59.9090279" lon="17.6437307">
        <ele>33.7834</ele>
        <time>2013-03-10T11:03:05Z</time>
      </trkpt>
      <trkpt lat="59.9090126" lon="17.6437343">
        <ele>33.3029</ele>
        <time>2013-03-10T11:03:06Z</time>
      </trkpt>
      <trkpt lat="59.9089981" lon="17.6437343">
        <ele>33.3029</ele>
        <time>2013-03-10T11:03:07Z</time>
      </trkpt>
      <trkpt lat="59.9089835" lon="17.643735">
        <ele>33.3029</ele>
        <time>2013-03-10T11:03:08Z</time>
      </trkpt>
      <trkpt lat="59.9089705" lon="17.6437362">
        <ele>33.7834</ele>
        <time>2013-03-10T11:03:09Z</time>
      </trkpt>
      <trkpt lat="59.9089566" lon="17.6437363">
        <ele>33.7834</ele>
        <time>2013-03-10T11:03:10Z</time>
      </trkpt>
      <trkpt lat="59.9089429" lon="17.643739">
        <ele>33.7834</ele>
        <time>2013-03-10T11:03:11Z</time>
      </trkpt>
      <trkpt lat="59.9089302" lon="17.643742">
        <ele>34.2642</ele>
        <time>2013-03-10T11:03:12Z</time>
      </trkpt>
      <trkpt lat="59.9089191" lon="17.6437425">
        <ele>34.2642</ele>
        <time>2013-03-10T11:03:13Z</time>
      </trkpt>
      <trkpt lat="59.9089063" lon="17.6437419">
        <ele>34.7449</ele>
        <time>2013-03-10T11:03:14Z</time>
      </trkpt>
      <trkpt lat="59.9088935" lon="17.6437429">
        <ele>34.7449</ele>
        <time>2013-03-10T11:03:15Z</time>
      </trkpt>
      <trkpt lat="59.9088803" lon="17.6437429">
        <ele>35.2255</ele>
        <time>2013-03-10T11:03:16Z</time>
      </trkpt>
      <trkpt lat="59.908865" lon="17.6437447">
        <ele>35.2255</ele>
        <time>2013-03-10T11:03:17Z</time>
      </trkpt>
      <trkpt lat="59.9088479" lon="17.6437494">
        <ele>35.7061</ele>
        <time>2013-03-10T11:03:18Z</time>
      </trkpt>
      <trkpt lat="59.9088343" lon="17.6437555">
        <ele>35.7061</ele>
        <time>2013-03-10T11:03:19Z</time>
      </trkpt>
      <trkpt lat="59.9088193" lon="17.6437601">
        <ele>35.7061</ele>
        <time>2013-03-10T11:03:20Z</time>
      </trkpt>
      <trkpt lat="59.9088032" lon="17.6437627">
        <ele>36.1868</ele>
        <time>2013-03-10T11:03:21Z</time>
      </trkpt>
      <trkpt lat="59.9087888" lon="17.6437636">
        <ele>35.7061</ele>
        <time>2013-03-10T11:03:22Z</time>
      </trkpt>
      <trkpt lat="59.9087756" lon="17.6437648">
        <ele>35.7061</ele>
        <time>2013-03-10T11:03:23Z</time>
      </trkpt>
      <trkpt lat="59.9087628" lon="17.6437666">
        <ele>35.2255</ele>
        <time>2013-03-10T11:03:24Z</time>
      </trkpt>
      <trkpt lat="59.90875" lon="17.6437675">
        <ele>35.2255</ele>
        <time>2013-03-10T11:03:25Z</time>
      </trkpt>
      <trkpt lat="59.9087377" lon="17.6437675">
        <ele>35.2255</ele>
        <time>2013-03-10T11:03:26Z</time>
      </trkpt>
      <trkpt lat="59.9087259" lon="17.6437666">
        <ele>34.7449</ele>
        <time>2013-03-10T11:03:27Z</time>
      </trkpt>
      <trkpt lat="59.9087136" lon="17.6437643">
        <ele>34.7449</ele>
        <time>2013-03-10T11:03:28Z</time>
      </trkpt>
      <trkpt lat="59.9087011" lon="17.6437619">
        <ele>34.7449</ele>
        <time>2013-03-10T11:03:29Z</time>
      </trkpt>
      <trkpt lat="59.9086878" lon="17.6437603">
        <ele>34.7449</ele>
        <time>2013-03-10T11:03:30Z</time>
      </trkpt>
      <trkpt lat="59.9086732" lon="17.6437603">
        <ele>34.7449</ele>
        <time>2013-03-10T11:03:31Z</time>
      </trkpt>
      <trkpt lat="59.9086572" lon="17.6437618">
        <ele>34.7449</ele>
        <time>2013-03-10T11:03:32Z</time>
      </trkpt>
      <trkpt lat="59.9086412" lon="17.6437631">
        <ele>34.2642</ele>
        <time>2013-03-10T11:03:33Z</time>
      </trkpt>
      <trkpt lat="59.9086269" lon="17.6437655">
        <ele>34.2642</ele>
        <time>2013-03-10T11:03:34Z</time>
      </trkpt>
      <trkpt lat="59.9086126" lon="17.6437681">
        <ele>34.2642</ele>
        <time>2013-03-10T11:03:35Z</time>
      </trkpt>
      <trkpt lat="59.908599" lon="17.6437702">
        <ele>34.7449</ele>
        <time>2013-03-10T11:03:36Z</time>
      </trkpt>
      <trkpt lat="59.9085849" lon="17.6437715">
        <ele>34.7449</ele>
        <time>2013-03-10T11:03:37Z</time>
      </trkpt>
      <trkpt lat="59.9085712" lon="17.6437736">
        <ele>34.7449</ele>
        <time>2013-03-10T11:03:38Z</time>
      </trkpt>
      <trkpt lat="59.9085561" lon="17.6437763">
        <ele>34.7449</ele>
        <time>2013-03-10T11:03:39Z</time>
      </trkpt>
      <trkpt lat="59.9085406" lon="17.6437773">
        <ele>34.7449</ele>
        <time>2013-03-10T11:03:40Z</time>
      </trkpt>
      <trkpt lat="59.9085265" lon="17.6437774">
        <ele>34.7449</ele>
        <time>2013-03-10T11:03:41Z</time>
      </trkpt>
      <trkpt lat="59.9085125" lon="17.6437788">
        <ele>35.2255</ele>
        <time>2013-03-10T11:03:42Z</time>
      </trkpt>
      <trkpt lat="59.9084977" lon="17.6437788">
        <ele>35.2255</ele>
        <time>2013-03-10T11:03:43Z</time>
      </trkpt>
      <trkpt lat="59.9084841" lon="17.6437773">
        <ele>35.2255</ele>
        <time>2013-03-10T11:03:44Z</time>
      </trkpt>
      <trkpt lat="59.9084675" lon="17.6437751">
        <ele>35.2255</ele>
        <time>2013-03-10T11:03:45Z</time>
      </trkpt>
      <trkpt lat="59.908453" lon="17.643773">
        <ele>35.2255</ele>
        <time>2013-03-10T11:03:46Z</time>
      </trkpt>
      <trkpt lat="59.908437" lon="17.6437684">
        <ele>34.7449</ele>
        <time>2013-03-10T11:03:47Z</time>
      </trkpt>
      <trkpt lat="59.9084231" lon="17.6437648">
        <ele>34.7449</ele>
        <time>2013-03-10T11:03:48Z</time>
      </trkpt>
      <trkpt lat="59.9084099" lon="17.6437618">
        <ele>34.7449</ele>
        <time>2013-03-10T11:03:49Z</time>
      </trkpt>
      <trkpt lat="59.9083961" lon="17.6437598">
        <ele>34.7449</ele>
        <time>2013-03-10T11:03:50Z</time>
      </trkpt>
      <trkpt lat="59.9083835" lon="17.6437581">
        <ele>34.2642</ele>
        <time>2013-03-10T11:03:51Z</time>
      </trkpt>
      <trkpt lat="59.9083692" lon="17.6437561">
        <ele>34.2642</ele>
        <time>2013-03-10T11:03:52Z</time>
      </trkpt>
      <trkpt lat="59.908355" lon="17.6437552">
        <ele>34.2642</ele>
        <time>2013-03-10T11:03:53Z</time>
      </trkpt>
      <trkpt lat="59.908342" lon="17.6437559">
        <ele>34.2642</ele>
        <time>2013-03-10T11:03:54Z</time>
      </trkpt>
      <trkpt lat="59.908329" lon="17.6437571">
        <ele>34.2642</ele>
        <time>2013-03-10T11:03:55Z</time>
      </trkpt>
      <trkpt lat="59.9083159" lon="17.6437583">
        <ele>34.2642</ele>
        <time>2013-03-10T11:03:56Z</time>
      </trkpt>
      <trkpt lat="59.9083034" lon="17.6437591">
        <ele>34.2642</ele>
        <time>2013-03-10T11:03:57Z</time>
      </trkpt>
      <trkpt lat="59.9082915" lon="17.6437597">
        <ele>34.7449</ele>
        <time>2013-03-10T11:03:58Z</time>
      </trkpt>
      <trkpt lat="59.9082789" lon="17.6437591">
        <ele>34.7449</ele>
        <time>2013-03-10T11:03:59Z</time>
      </trkpt>
      <trkpt lat="59.9082619" lon="17.6437572">
        <ele>35.2255</ele>
        <time>2013-03-10T11:04:00Z</time>
      </trkpt>
      <trkpt lat="59.9082458" lon="17.6437552">
        <ele>35.2255</ele>
        <time>2013-03-10T11:04:01Z</time>
      </trkpt>
      <trkpt lat="59.9082332" lon="17.6437546">
        <ele>35.7061</ele>
        <time>2013-03-10T11:04:02Z</time>
      </trkpt>
      <trkpt lat="59.9082226" lon="17.6437549">
        <ele>35.7061</ele>
        <time>2013-03-10T11:04:03Z</time>
      </trkpt>
      <trkpt lat="59.9082102" lon="17.6437533">
        <ele>36.1868</ele>
        <time>2013-03-10T11:04:04Z</time>
      </trkpt>
      <trkpt lat="59.908198" lon="17.643752">
        <ele>36.6675</ele>
        <time>2013-03-10T11:04:05Z</time>
      </trkpt>
      <trkpt lat="59.9081846" lon="17.6437504">
        <ele>36.6675</ele>
        <time>2013-03-10T11:04:06Z</time>
      </trkpt>
      <trkpt lat="59.90817" lon="17.6437481">
        <ele>36.6675</ele>
        <time>2013-03-10T11:04:07Z</time>
      </trkpt>
      <trkpt lat="59.9081557" lon="17.6437437">
        <ele>36.1868</ele>
        <time>2013-03-10T11:04:08Z</time>
      </trkpt>
      <trkpt lat="59.9081408" lon="17.6437406">
        <ele>36.1868</ele>
        <time>2013-03-10T11:04:09Z</time>
      </trkpt>
      <trkpt lat="59.9081292" lon="17.6437381">
        <ele>36.1868</ele>
        <time>2013-03-10T11:04:10Z</time>
      </trkpt>
      <trkpt lat="59.908118" lon="17.6437328">
        <ele>35.7061</ele>
        <time>2013-03-10T11:04:11Z</time>
      </trkpt>
      <trkpt lat="59.908109" lon="17.643728">
        <ele>35.7061</ele>
        <time>2013-03-10T11:04:12Z</time>
      </trkpt>
      <trkpt lat="59.9080977" lon="17.643726">
        <ele>35.7061</ele>
        <time>2013-03-10T11:04:13Z</time>
      </trkpt>
      <trkpt lat="59.9080842" lon="17.6437259">
        <ele>35.2255</ele>
        <time>2013-03-10T11:04:14Z</time>
      </trkpt>
      <trkpt lat="59.9080708" lon="17.643727">
        <ele>35.2255</ele>
        <time>2013-03-10T11:04:15Z</time>
      </trkpt>
      <trkpt lat="59.9080588" lon="17.6437285">
        <ele>35.2255</ele>
        <time>2013-03-10T11:04:16Z</time>
      </trkpt>
      <trkpt lat="59.908046" lon="17.6437287">
        <ele>35.2255</ele>
        <time>2013-03-10T11:04:17Z</time>
      </trkpt>
      <trkpt lat="59.908033" lon="17.6437277">
        <ele>35.2255</ele>
        <time>2013-03-10T11:04:18Z</time>
      </trkpt>
      <trkpt lat="59.90802" lon="17.6437269">
        <ele>35.2255</ele>
        <time>2013-03-10T11:04:19Z</time>
      </trkpt>
      <trkpt lat="59.9080063" lon="17.6437265">
        <ele>34.7449</ele>
        <time>2013-03-10T11:04:20Z</time>
      </trkpt>
      <trkpt lat="59.9079919" lon="17.643725">
        <ele>34.7449</ele>
        <time>2013-03-10T11:04:21Z</time>
      </trkpt>
      <trkpt lat="59.907977" lon="17.6437239">
        <ele>34.7449</ele>
        <time>2013-03-10T11:04:22Z</time>
      </trkpt>
      <trkpt lat="59.9079628" lon="17.6437224">
        <ele>34.7449</ele>
        <time>2013-03-10T11:04:23Z</time>
      </trkpt>
      <trkpt lat="59.907948" lon="17.6437203">
        <ele>34.7449</ele>
        <time>2013-03-10T11:04:24Z</time>
      </trkpt>
      <trkpt lat="59.9079348" lon="17.6437176">
        <ele>34.7449</ele>
        <time>2013-03-10T11:04:25Z</time>
      </trkpt>
      <trkpt lat="59.9079208" lon="17.6437141">
        <ele>34.7449</ele>
        <time>2013-03-10T11:04:26Z</time>
      </trkpt>
      <trkpt lat="59.9079054" lon="17.6437096">
        <ele>34.7449</ele>
        <time>2013-03-10T11:04:27Z</time>
      </trkpt>
      <trkpt lat="59.907888" lon="17.6437058">
        <ele>34.7449</ele>
        <time>2013-03-10T11:04:28Z</time>
      </trkpt>
      <trkpt lat="59.907873" lon="17.6437039">
        <ele>34.7449</ele>
        <time>2013-03-10T11:04:29Z</time>
      </trkpt>
      <trkpt lat="59.9078582" lon="17.6437023">
        <ele>34.7449</ele>
        <time>2013-03-10T11:04:30Z</time>
      </trkpt>
      <trkpt lat="59.9078454" lon="17.6436997">
        <ele>34.7449</ele>
        <time>2013-03-10T11:04:31Z</time>
      </trkpt>
      <trkpt lat="59.9078335" lon="17.643697">
        <ele>34.7449</ele>
        <time>2013-03-10T11:04:32Z</time>
      </trkpt>
      <trkpt lat="59.9078221" lon="17.6436942">
        <ele>35.2255</ele>
        <time>2013-03-10T11:04:33Z</time>
      </trkpt>
      <trkpt lat="59.9078123" lon="17.6436934">
        <ele>35.2255</ele>
        <time>2013-03-10T11:04:34Z</time>
      </trkpt>
      <trkpt lat="59.9078002" lon="17.643695">
        <ele>35.2255</ele>
        <time>2013-03-10T11:04:35Z</time>
      </trkpt>
      <trkpt lat="59.9077863" lon="17.6436961">
        <ele>35.2255</ele>
        <time>2013-03-10T11:04:36Z</time>
      </trkpt>
      <trkpt lat="59.9077708" lon="17.6436959">
        <ele>35.2255</ele>
        <time>2013-03-10T11:04:37Z</time>
      </trkpt>
      <trkpt lat="59.9077562" lon="17.6436935">
        <ele>35.2255</ele>
        <time>2013-03-10T11:04:38Z</time>
      </trkpt>
      <trkpt lat="59.9077435" lon="17.6436912">
        <ele>35.2255</ele>
        <time>2013-03-10T11:04:39Z</time>
      </trkpt>
      <trkpt lat="59.9077303" lon="17.6436903">
        <ele>34.7449</ele>
        <time>2013-03-10T11:04:40Z</time>
      </trkpt>
      <trkpt lat="59.9077168" lon="17.6436903">
        <ele>34.7449</ele>
        <time>2013-03-10T11:04:41Z</time>
      </trkpt>
      <trkpt lat="59.9077033" lon="17.6436893">
        <ele>34.7449</ele>
        <time>2013-03-10T11:04:42Z</time>
      </trkpt>
      <trkpt lat="59.9076914" lon="17.6436861">
        <ele>34.7449</ele>
        <time>2013-03-10T11:04:43Z</time>
      </trkpt>
      <trkpt lat="59.9076786" lon="17.643683">
        <ele>34.7449</ele>
        <time>2013-03-10T11:04:44Z</time>
      </trkpt>
      <trkpt lat="59.9076657" lon="17.6436804">
        <ele>34.7449</ele>
        <time>2013-03-10T11:04:45Z</time>
      </trkpt>
      <trkpt lat="59.9076518" lon="17.6436769">
        <ele>34.7449</ele>
        <time>2013-03-10T11:04:46Z</time>
      </trkpt>
      <trkpt lat="59.9076381" lon="17.6436744">
        <ele>34.7449</ele>
        <time>2013-03-10T11:04:47Z</time>
      </trkpt>
      <trkpt lat="59.9076247" lon="17.6436732">
        <ele>34.7449</ele>
        <time>2013-03-10T11:04:48Z</time>
      </trkpt>
      <trkpt lat="59.9076092" lon="17.6436712">
        <ele>34.7449</ele>
        <time>2013-03-10T11:04:49Z</time>
      </trkpt>
      <trkpt lat="59.9075956" lon="17.6436696">
        <ele>34.7449</ele>
        <time>2013-03-10T11:04:50Z</time>
      </trkpt>
      <trkpt lat="59.907581" lon="17.643669">
        <ele>34.7449</ele>
        <time>2013-03-10T11:04:51Z</time>
      </trkpt>
      <trkpt lat="59.9075641" lon="17.643668">
        <ele>34.7449</ele>
        <time>2013-03-10T11:04:52Z</time>
      </trkpt>
      <trkpt lat="59.9075482" lon="17.6436649">
        <ele>34.7449</ele>
        <time>2013-03-10T11:04:53Z</time>
      </trkpt>
      <trkpt lat="59.9075321" lon="17.6436608">
        <ele>35.2255</ele>
        <time>2013-03-10T11:04:54Z</time>
      </trkpt>
      <trkpt lat="59.9075178" lon="17.6436567">
        <ele>35.2255</ele>
        <time>2013-03-10T11:04:55Z</time>
      </trkpt>
      <trkpt lat="59.9075061" lon="17.6436536">
        <ele>35.2255</ele>
        <time>2013-03-10T11:04:56Z</time>
      </trkpt>
      <trkpt lat="59.9074946" lon="17.6436504">
        <ele>34.7449</ele>
        <time>2013-03-10T11:04:57Z</time>
      </trkpt>
      <trkpt lat="59.9074808" lon="17.6436458">
        <ele>34.7449</ele>
        <time>2013-03-10T11:04:58Z</time>
      </trkpt>
      <trkpt lat="59.9074668" lon="17.6436426">
        <ele>34.7449</ele>
        <time>2013-03-10T11:04:59Z</time>
      </trkpt>
      <trkpt lat="59.9074533" lon="17.643642">
        <ele>34.7449</ele>
        <time>2013-03-10T11:05:00Z</time>
      </trkpt>
      <trkpt lat="59.9074393" lon="17.6436411">
        <ele>34.7449</ele>
        <time>2013-03-10T11:05:01Z</time>
      </trkpt>
      <trkpt lat="59.9074247" lon="17.6436394">
        <ele>34.2642</ele>
        <time>2013-03-10T11:05:02Z</time>
      </trkpt>
      <trkpt lat="59.9074124" lon="17.6436367">
        <ele>34.2642</ele>
        <time>2013-03-10T11:05:03Z</time>
      </trkpt>
      <trkpt lat="59.9073998" lon="17.6436342">
        <ele>34.2642</ele>
        <time>2013-03-10T11:05:04Z</time>
      </trkpt>
      <trkpt lat="59.9073881" lon="17.6436319">
        <ele>34.2642</ele>
        <time>2013-03-10T11:05:05Z</time>
      </trkpt>
      <trkpt lat="59.907376" lon="17.6436301">
        <ele>34.2642</ele>
        <time>2013-03-10T11:05:06Z</time>
      </trkpt>
      <trkpt lat="59.9073637" lon="17.6436292">
        <ele>34.2642</ele>
        <time>2013-03-10T11:05:07Z</time>
      </trkpt>
      <trkpt lat="59.9073488" lon="17.6436276">
        <ele>34.2642</ele>
        <time>2013-03-10T11:05:08Z</time>
      </trkpt>
      <trkpt lat="59.9073355" lon="17.6436265">
        <ele>34.2642</ele>
        <time>2013-03-10T11:05:09Z</time>
      </trkpt>
      <trkpt lat="59.907322" lon="17.6436253">
        <ele>34.2642</ele>
        <time>2013-03-10T11:05:10Z</time>
      </trkpt>
      <trkpt lat="59.9073094" lon="17.6436243">
        <ele>34.2642</ele>
        <time>2013-03-10T11:05:11Z</time>
      </trkpt>
      <trkpt lat="59.9072964" lon="17.6436238">
        <ele>34.7449</ele>
        <time>2013-03-10T11:05:12Z</time>
      </trkpt>
      <trkpt lat="59.9072835" lon="17.643622">
        <ele>34.2642</ele>
        <time>2013-03-10T11:05:13Z</time>
      </trkpt>
      <trkpt lat="59.9072685" lon="17.6436196">
        <ele>34.2642</ele>
        <time>2013-03-10T11:05:14Z</time>
      </trkpt>
      <trkpt lat="59.9072552" lon="17.6436173">
        <ele>34.2642</ele>
        <time>2013-03-10T11:05:15Z</time>
      </trkpt>
      <trkpt lat="59.907243" lon="17.6436143">
        <ele>34.2642</ele>
        <time>2013-03-10T11:05:16Z</time>
      </trkpt>
      <trkpt lat="59.9072315" lon="17.643611">
        <ele>34.2642</ele>
        <time>2013-03-10T11:05:17Z</time>
      </trkpt>
      <trkpt lat="59.9072193" lon="17.643607">
        <ele>34.2642</ele>
        <time>2013-03-10T11:05:18Z</time>
      </trkpt>
      <trkpt lat="59.9072066" lon="17.6436034">
        <ele>34.2642</ele>
        <time>2013-03-10T11:05:19Z</time>
      </trkpt>
      <trkpt lat="59.9071932" lon="17.6435989">
        <ele>34.2642</ele>
        <time>2013-03-10T11:05:20Z</time>
      </trkpt>
      <trkpt lat="59.9071788" lon="17.6435953">
        <ele>34.2642</ele>
        <time>2013-03-10T11:05:21Z</time>
      </trkpt>
      <trkpt lat="59.9071656" lon="17.6435943">
        <ele>34.2642</ele>
        <time>2013-03-10T11:05:22Z</time>
      </trkpt>
      <trkpt lat="59.9071514" lon="17.6435934">
        <ele>34.2642</ele>
        <time>2013-03-10T11:05:23Z</time>
      </trkpt>
      <trkpt lat="59.9071382" lon="17.6435915">
        <ele>34.2642</ele>
        <time>2013-03-10T11:05:24Z</time>
      </trkpt>
      <trkpt lat="59.9071253" lon="17.6435882">
        <ele>33.7834</ele>
        <time>2013-03-10T11:05:25Z</time>
      </trkpt>
      <trkpt lat="59.907112" lon="17.6435846">
        <ele>34.2642</ele>
        <time>2013-03-10T11:05:26Z</time>
      </trkpt>
      <trkpt lat="59.9070979" lon="17.643581">
        <ele>34.2642</ele>
        <time>2013-03-10T11:05:27Z</time>
      </trkpt>
      <trkpt lat="59.9070829" lon="17.6435764">
        <ele>34.2642</ele>
        <time>2013-03-10T11:05:28Z</time>
      </trkpt>
      <trkpt lat="59.9070689" lon="17.6435732">
        <ele>34.2642</ele>
        <time>2013-03-10T11:05:29Z</time>
      </trkpt>
      <trkpt lat="59.907056" lon="17.6435713">
        <ele>34.2642</ele>
        <time>2013-03-10T11:05:30Z</time>
      </trkpt>
      <trkpt lat="59.9070441" lon="17.6435699">
        <ele>34.2642</ele>
        <time>2013-03-10T11:05:31Z</time>
      </trkpt>
      <trkpt lat="59.9070311" lon="17.6435681">
        <ele>34.2642</ele>
        <time>2013-03-10T11:05:32Z</time>
      </trkpt>
      <trkpt lat="59.9070156" lon="17.6435653">
        <ele>34.2642</ele>
        <time>2013-03-10T11:05:33Z</time>
      </trkpt>
      <trkpt lat="59.9070021" lon="17.6435634">
        <ele>34.2642</ele>
        <time>2013-03-10T11:05:34Z</time>
      </trkpt>
      <trkpt lat="59.9069885" lon="17.6435624">
        <ele>34.2642</ele>
        <time>2013-03-10T11:05:35Z</time>
      </trkpt>
      <trkpt lat="59.9069729" lon="17.6435602">
        <ele>34.2642</ele>
        <time>2013-03-10T11:05:36Z</time>
      </trkpt>
      <trkpt lat="59.9069605" lon="17.6435586">
        <ele>34.2642</ele>
        <time>2013-03-10T11:05:37Z</time>
      </trkpt>
      <trkpt lat="59.9069477" lon="17.643558">
        <ele>34.7449</ele>
        <time>2013-03-10T11:05:38Z</time>
      </trkpt>
      <trkpt lat="59.9069327" lon="17.6435571">
        <ele>34.7449</ele>
        <time>2013-03-10T11:05:39Z</time>
      </trkpt>
      <trkpt lat="59.9069191" lon="17.6435561">
        <ele>35.2255</ele>
        <time>2013-03-10T11:05:40Z</time>
      </trkpt>
      <trkpt lat="59.906905" lon="17.6435552">
        <ele>35.2255</ele>
        <time>2013-03-10T11:05:41Z</time>
      </trkpt>
      <trkpt lat="59.9068918" lon="17.6435535">
        <ele>35.7061</ele>
        <time>2013-03-10T11:05:42Z</time>
      </trkpt>
      <trkpt lat="59.9068791" lon="17.6435513">
        <ele>35.7061</ele>
        <time>2013-03-10T11:05:43Z</time>
      </trkpt>
      <trkpt lat="59.9068658" lon="17.6435483">
        <ele>36.1868</ele>
        <time>2013-03-10T11:05:44Z</time>
      </trkpt>
      <trkpt lat="59.9068514" lon="17.6435448">
        <ele>36.1868</ele>
        <time>2013-03-10T11:05:45Z</time>
      </trkpt>
      <trkpt lat="59.9068372" lon="17.6435406">
        <ele>35.7061</ele>
        <time>2013-03-10T11:05:46Z</time>
      </trkpt>
      <trkpt lat="59.9068232" lon="17.643537">
        <ele>35.7061</ele>
        <time>2013-03-10T11:05:47Z</time>
      </trkpt>
      <trkpt lat="59.9068082" lon="17.6435331">
        <ele>35.7061</ele>
        <time>2013-03-10T11:05:48Z</time>
      </trkpt>
      <trkpt lat="59.9067949" lon="17.6435292">
        <ele>35.7061</ele>
        <time>2013-03-10T11:05:49Z</time>
      </trkpt>
      <trkpt lat="59.9067825" lon="17.6435238">
        <ele>35.7061</ele>
        <time>2013-03-10T11:05:50Z</time>
      </trkpt>
      <trkpt lat="59.9067688" lon="17.6435174">
        <ele>35.2255</ele>
        <time>2013-03-10T11:05:51Z</time>
      </trkpt>
      <trkpt lat="59.9067549" lon="17.6435119">
        <ele>35.2255</ele>
        <time>2013-03-10T11:05:52Z</time>
      </trkpt>
      <trkpt lat="59.9067415" lon="17.6435075">
        <ele>35.2255</ele>
        <time>2013-03-10T11:05:53Z</time>
      </trkpt>
      <trkpt lat="59.9067297" lon="17.6435029">
        <ele>35.2255</ele>
        <time>2013-03-10T11:05:54Z</time>
      </trkpt>
      <trkpt lat="59.9067156" lon="17.6434987">
        <ele>34.7449</ele>
        <time>2013-03-10T11:05:55Z</time>
      </trkpt>
      <trkpt lat="59.9067006" lon="17.643495">
        <ele>34.7449</ele>
        <time>2013-03-10T11:05:56Z</time>
      </trkpt>
      <trkpt lat="59.906688" lon="17.6434923">
        <ele>34.7449</ele>
        <time>2013-03-10T11:05:57Z</time>
      </trkpt>
      <trkpt lat="59.9066763" lon="17.6434897">
        <ele>34.7449</ele>
        <time>2013-03-10T11:05:58Z</time>
      </trkpt>
      <trkpt lat="59.9066649" lon="17.6434873">
        <ele>34.7449</ele>
        <time>2013-03-10T11:05:59Z</time>
      </trkpt>
      <trkpt lat="59.9066512" lon="17.6434852">
        <ele>34.7449</ele>
        <time>2013-03-10T11:06:00Z</time>
      </trkpt>
      <trkpt lat="59.9066365" lon="17.6434814">
        <ele>34.7449</ele>
        <time>2013-03-10T11:06:01Z</time>
      </trkpt>
      <trkpt lat="59.906623" lon="17.6434758">
        <ele>34.7449</ele>
        <time>2013-03-10T11:06:02Z</time>
      </trkpt>
      <trkpt lat="59.9066094" lon="17.643471">
        <ele>34.7449</ele>
        <time>2013-03-10T11:06:03Z</time>
      </trkpt>
      <trkpt lat="59.9065943" lon="17.6434671">
        <ele>35.2255</ele>
        <time>2013-03-10T11:06:04Z</time>
      </trkpt>
      <trkpt lat="59.9065794" lon="17.6434628">
        <ele>35.2255</ele>
        <time>2013-03-10T11:06:05Z</time>
      </trkpt>
      <trkpt lat="59.9065649" lon="17.6434582">
        <ele>35.2255</ele>
        <time>2013-03-10T11:06:06Z</time>
      </trkpt>
      <trkpt lat="59.9065499" lon="17.6434536">
        <ele>35.2255</ele>
        <time>2013-03-10T11:06:07Z</time>
      </trkpt>
      <trkpt lat="59.9065354" lon="17.6434479">
        <ele>35.2255</ele>
        <time>2013-03-10T11:06:08Z</time>
      </trkpt>
      <trkpt lat="59.9065197" lon="17.6434431">
        <ele>34.7449</ele>
        <time>2013-03-10T11:06:09Z</time>
      </trkpt>
      <trkpt lat="59.9065053" lon="17.6434381">
        <ele>34.7449</ele>
        <time>2013-03-10T11:06:10Z</time>
      </trkpt>
      <trkpt lat="59.9064924" lon="17.6434297">
        <ele>34.7449</ele>
        <time>2013-03-10T11:06:11Z</time>
      </trkpt>
      <trkpt lat="59.9064793" lon="17.64342">
        <ele>34.7449</ele>
        <time>2013-03-10T11:06:12Z</time>
      </trkpt>
      <trkpt lat="59.9064669" lon="17.6434125">
        <ele>34.2642</ele>
        <time>2013-03-10T11:06:13Z</time>
      </trkpt>
      <trkpt lat="59.906454" lon="17.6434067">
        <ele>34.2642</ele>
        <time>2013-03-10T11:06:14Z</time>
      </trkpt>
      <trkpt lat="59.9064417" lon="17.6434024">
        <ele>34.2642</ele>
        <time>2013-03-10T11:06:15Z</time>
      </trkpt>
      <trkpt lat="59.9064316" lon="17.6433971">
        <ele>34.2642</ele>
        <time>2013-03-10T11:06:16Z</time>
      </trkpt>
      <trkpt lat="59.9064204" lon="17.6433913">
        <ele>34.2642</ele>
        <time>2013-03-10T11:06:17Z</time>
      </trkpt>
      <trkpt lat="59.9064079" lon="17.6433841">
        <ele>34.2642</ele>
        <time>2013-03-10T11:06:18Z</time>
      </trkpt>
      <trkpt lat="59.9063953" lon="17.6433785">
        <ele>34.7449</ele>
        <time>2013-03-10T11:06:19Z</time>
      </trkpt>
      <trkpt lat="59.9063829" lon="17.6433733">
        <ele>34.7449</ele>
        <time>2013-03-10T11:06:20Z</time>
      </trkpt>
      <trkpt lat="59.9063699" lon="17.6433685">
        <ele>34.7449</ele>
        <time>2013-03-10T11:06:21Z</time>
      </trkpt>
      <trkpt lat="59.9063568" lon="17.6433643">
        <ele>34.7449</ele>
        <time>2013-03-10T11:06:22Z</time>
      </trkpt>
      <trkpt lat="59.9063422" lon="17.6433598">
        <ele>34.7449</ele>
        <time>2013-03-10T11:06:23Z</time>
      </trkpt>
      <trkpt lat="59.9063252" lon="17.6433555">
        <ele>34.7449</ele>
        <time>2013-03-10T11:06:24Z</time>
      </trkpt>
      <trkpt lat="59.9063116" lon="17.6433508">
        <ele>34.7449</ele>
        <time>2013-03-10T11:06:25Z</time>
      </trkpt>
      <trkpt lat="59.9063011" lon="17.6433449">
        <ele>34.7449</ele>
        <time>2013-03-10T11:06:26Z</time>
      </trkpt>
      <trkpt lat="59.9062903" lon="17.6433371">
        <ele>34.7449</ele>
        <time>2013-03-10T11:06:27Z</time>
      </trkpt>
      <trkpt lat="59.9062752" lon="17.6433294">
        <ele>34.7449</ele>
        <time>2013-03-10T11:06:28Z</time>
      </trkpt>
      <trkpt lat="59.9062613" lon="17.6433231">
        <ele>34.7449</ele>
        <time>2013-03-10T11:06:29Z</time>
      </trkpt>
      <trkpt lat="59.9062493" lon="17.6433178">
        <ele>34.7449</ele>
        <time>2013-03-10T11:06:30Z</time>
      </trkpt>
      <trkpt lat="59.9062363" lon="17.6433131">
        <ele>34.7449</ele>
        <time>2013-03-10T11:06:31Z</time>
      </trkpt>
      <trkpt lat="59.9062208" lon="17.6433083">
        <ele>35.2255</ele>
        <time>2013-03-10T11:06:32Z</time>
      </trkpt>
      <trkpt lat="59.9062039" lon="17.6433006">
        <ele>34.7449</ele>
        <time>2013-03-10T11:06:33Z</time>
      </trkpt>
      <trkpt lat="59.9061878" lon="17.643292">
        <ele>34.7449</ele>
        <time>2013-03-10T11:06:34Z</time>
      </trkpt>
      <trkpt lat="59.9061736" lon="17.6432851">
        <ele>34.7449</ele>
        <time>2013-03-10T11:06:35Z</time>
      </trkpt>
      <trkpt lat="59.9061601" lon="17.6432791">
        <ele>34.7449</ele>
        <time>2013-03-10T11:06:36Z</time>
      </trkpt>
      <trkpt lat="59.9061474" lon="17.6432728">
        <ele>34.7449</ele>
        <time>2013-03-10T11:06:37Z</time>
      </trkpt>
      <trkpt lat="59.9061348" lon="17.6432662">
        <ele>34.7449</ele>
        <time>2013-03-10T11:06:38Z</time>
      </trkpt>
      <trkpt lat="59.9061215" lon="17.6432602">
        <ele>34.7449</ele>
        <time>2013-03-10T11:06:39Z</time>
      </trkpt>
      <trkpt lat="59.9061084" lon="17.6432535">
        <ele>34.7449</ele>
        <time>2013-03-10T11:06:40Z</time>
      </trkpt>
      <trkpt lat="59.906095" lon="17.6432456">
        <ele>34.2642</ele>
        <time>2013-03-10T11:06:41Z</time>
      </trkpt>
      <trkpt lat="59.906081" lon="17.6432379">
        <ele>34.2642</ele>
        <time>2013-03-10T11:06:42Z</time>
      </trkpt>
      <trkpt lat="59.9060717" lon="17.6432345">
        <ele>34.2642</ele>
        <time>2013-03-10T11:06:43Z</time>
      </trkpt>
      <trkpt lat="59.9060599" lon="17.6432339">
        <ele>34.2642</ele>
        <time>2013-03-10T11:06:44Z</time>
      </trkpt>
      <trkpt lat="59.9060434" lon="17.6432275">
        <ele>34.2642</ele>
        <time>2013-03-10T11:06:45Z</time>
      </trkpt>
      <trkpt lat="59.9060285" lon="17.6432174">
        <ele>33.7834</ele>
        <time>2013-03-10T11:06:46Z</time>
      </trkpt>
      <trkpt lat="59.9060135" lon="17.6432078">
        <ele>33.7834</ele>
        <time>2013-03-10T11:06:47Z</time>
      </trkpt>
      <trkpt lat="59.9059995" lon="17.6432003">
        <ele>33.3029</ele>
        <time>2013-03-10T11:06:48Z</time>
      </trkpt>
      <trkpt lat="59.9059876" lon="17.6431923">
        <ele>33.3029</ele>
        <time>2013-03-10T11:06:49Z</time>
      </trkpt>
      <trkpt lat="59.9059757" lon="17.6431869">
        <ele>32.8223</ele>
        <time>2013-03-10T11:06:50Z</time>
      </trkpt>
      <trkpt lat="59.9059624" lon="17.6431821">
        <ele>32.8223</ele>
        <time>2013-03-10T11:06:51Z</time>
      </trkpt>
      <trkpt lat="59.9059479" lon="17.6431776">
        <ele>32.3416</ele>
        <time>2013-03-10T11:06:52Z</time>
      </trkpt>
      <trkpt lat="59.9059338" lon="17.6431732">
        <ele>32.3416</ele>
        <time>2013-03-10T11:06:53Z</time>
      </trkpt>
      <trkpt lat="59.905921" lon="17.6431653">
        <ele>32.3416</ele>
        <time>2013-03-10T11:06:54Z</time>
      </trkpt>
      <trkpt lat="59.9059071" lon="17.6431558">
        <ele>31.8607</ele>
        <time>2013-03-10T11:06:55Z</time>
      </trkpt>
      <trkpt lat="59.9058966" lon="17.6431455">
        <ele>31.8607</ele>
        <time>2013-03-10T11:06:56Z</time>
      </trkpt>
      <trkpt lat="59.9058854" lon="17.6431364">
        <ele>31.8607</ele>
        <time>2013-03-10T11:06:57Z</time>
      </trkpt>
      <trkpt lat="59.9058727" lon="17.6431272">
        <ele>31.3801</ele>
        <time>2013-03-10T11:06:58Z</time>
      </trkpt>
      <trkpt lat="59.90586" lon="17.6431179">
        <ele>31.3801</ele>
        <time>2013-03-10T11:06:59Z</time>
      </trkpt>
      <trkpt lat="59.9058469" lon="17.6431108">
        <ele>31.3801</ele>
        <time>2013-03-10T11:07:00Z</time>
      </trkpt>
      <trkpt lat="59.905833" lon="17.6431025">
        <ele>30.8995</ele>
        <time>2013-03-10T11:07:01Z</time>
      </trkpt>
      <trkpt lat="59.9058198" lon="17.6430918">
        <ele>30.8995</ele>
        <time>2013-03-10T11:07:02Z</time>
      </trkpt>
      <trkpt lat="59.9058056" lon="17.6430814">
        <ele>30.4188</ele>
        <time>2013-03-10T11:07:03Z</time>
      </trkpt>
      <trkpt lat="59.9057944" lon="17.6430704">
        <ele>30.4188</ele>
        <time>2013-03-10T11:07:04Z</time>
      </trkpt>
      <trkpt lat="59.9057817" lon="17.6430612">
        <ele>30.4188</ele>
        <time>2013-03-10T11:07:05Z</time>
      </trkpt>
      <trkpt lat="59.9057677" lon="17.6430521">
        <ele>29.9381</ele>
        <time>2013-03-10T11:07:06Z</time>
      </trkpt>
      <trkpt lat="59.9057533" lon="17.6430434">
        <ele>29.9381</ele>
        <time>2013-03-10T11:07:07Z</time>
      </trkpt>
      <trkpt lat="59.9057398" lon="17.6430355">
        <ele>29.9381</ele>
        <time>2013-03-10T11:07:08Z</time>
      </trkpt>
      <trkpt lat="59.9057278" lon="17.6430279">
        <ele>29.9381</ele>
        <time>2013-03-10T11:07:09Z</time>
      </trkpt>
      <trkpt lat="59.9057159" lon="17.6430232">
        <ele>29.9381</ele>
        <time>2013-03-10T11:07:10Z</time>
      </trkpt>
      <trkpt lat="59.9057045" lon="17.6430201">
        <ele>29.9381</ele>
        <time>2013-03-10T11:07:11Z</time>
      </trkpt>
      <trkpt lat="59.9056929" lon="17.6430195">
        <ele>29.4575</ele>
        <time>2013-03-10T11:07:12Z</time>
      </trkpt>
      <trkpt lat="59.9056822" lon="17.6430178">
        <ele>29.9381</ele>
        <time>2013-03-10T11:07:13Z</time>
      </trkpt>
      <trkpt lat="59.9056716" lon="17.6430149">
        <ele>29.9381</ele>
        <time>2013-03-10T11:07:14Z</time>
      </trkpt>
      <trkpt lat="59.9056631" lon="17.6430106">
        <ele>29.9381</ele>
        <time>2013-03-10T11:07:15Z</time>
      </trkpt>
      <trkpt lat="59.9056538" lon="17.6430084">
        <ele>29.9381</ele>
        <time>2013-03-10T11:07:16Z</time>
      </trkpt>
      <trkpt lat="59.9056443" lon="17.643005">
        <ele>29.9381</ele>
        <time>2013-03-10T11:07:17Z</time>
      </trkpt>
      <trkpt lat="59.905631" lon="17.6430006">
        <ele>29.9381</ele>
        <time>2013-03-10T11:07:18Z</time>
      </trkpt>
      <trkpt lat="59.905619" lon="17.6429972">
        <ele>29.9381</ele>
        <time>2013-03-10T11:07:19Z</time>
      </trkpt>
      <trkpt lat="59.9056084" lon="17.6429941">
        <ele>29.9381</ele>
        <time>2013-03-10T11:07:20Z</time>
      </trkpt>
      <trkpt lat="59.9055955" lon="17.6429906">
        <ele>29.9381</ele>
        <time>2013-03-10T11:07:21Z</time>
      </trkpt>
      <trkpt lat="59.9055847" lon="17.6429854">
        <ele>29.9381</ele>
        <time>2013-03-10T11:07:22Z</time>
      </trkpt>
      <trkpt lat="59.9055741" lon="17.6429787">
        <ele>29.9381</ele>
        <time>2013-03-10T11:07:23Z</time>
      </trkpt>
      <trkpt lat="59.9055645" lon="17.6429734">
        <ele>29.9381</ele>
        <time>2013-03-10T11:07:24Z</time>
      </trkpt>
      <trkpt lat="59.9055542" lon="17.6429696">
        <ele>29.9381</ele>
        <time>2013-03-10T11:07:25Z</time>
      </trkpt>
      <trkpt lat="59.905543" lon="17.6429682">
        <ele>29.9381</ele>
        <time>2013-03-10T11:07:26Z</time>
      </trkpt>
      <trkpt lat="59.9055308" lon="17.6429671">
        <ele>29.9381</ele>
        <time>2013-03-10T11:07:27Z</time>
      </trkpt>
      <trkpt lat="59.905515" lon="17.6429639">
        <ele>29.4575</ele>
        <time>2013-03-10T11:07:28Z</time>
      </trkpt>
      <trkpt lat="59.9055" lon="17.6429619">
        <ele>29.4575</ele>
        <time>2013-03-10T11:07:29Z</time>
      </trkpt>
      <trkpt lat="59.9054886" lon="17.6429626">
        <ele>28.9769</ele>
        <time>2013-03-10T11:07:30Z</time>
      </trkpt>
      <trkpt lat="59.9054771" lon="17.6429651">
        <ele>28.9769</ele>
        <time>2013-03-10T11:07:31Z</time>
      </trkpt>
      <trkpt lat="59.9054658" lon="17.6429688">
        <ele>28.9769</ele>
        <time>2013-03-10T11:07:32Z</time>
      </trkpt>
      <trkpt lat="59.9054559" lon="17.6429739">
        <ele>28.9769</ele>
        <time>2013-03-10T11:07:33Z</time>
      </trkpt>
      <trkpt lat="59.9054449" lon="17.6429759">
        <ele>28.9769</ele>
        <time>2013-03-10T11:07:34Z</time>
      </trkpt>
      <trkpt lat="59.9054335" lon="17.6429739">
        <ele>28.4962</ele>
        <time>2013-03-10T11:07:35Z</time>
      </trkpt>
      <trkpt lat="59.9054226" lon="17.6429701">
        <ele>28.4962</ele>
        <time>2013-03-10T11:07:36Z</time>
      </trkpt>
      <trkpt lat="59.9054085" lon="17.6429678">
        <ele>28.4962</ele>
        <time>2013-03-10T11:07:37Z</time>
      </trkpt>
      <trkpt lat="59.9053968" lon="17.6429626">
        <ele>28.0155</ele>
        <time>2013-03-10T11:07:38Z</time>
      </trkpt>
      <trkpt lat="59.9053883" lon="17.6429621">
        <ele>28.4962</ele>
        <time>2013-03-10T11:07:39Z</time>
      </trkpt>
      <trkpt lat="59.9053811" lon="17.642961">
        <ele>28.4962</ele>
        <time>2013-03-10T11:07:40Z</time>
      </trkpt>
      <trkpt lat="59.9053708" lon="17.6429583">
        <ele>28.4962</ele>
        <time>2013-03-10T11:07:41Z</time>
      </trkpt>
      <trkpt lat="59.9053563" lon="17.6429517">
        <ele>28.4962</ele>
        <time>2013-03-10T11:07:42Z</time>
      </trkpt>
      <trkpt lat="59.9053449" lon="17.6429464">
        <ele>28.9769</ele>
        <time>2013-03-10T11:07:43Z</time>
      </trkpt>
      <trkpt lat="59.9053315" lon="17.6429424">
        <ele>28.9769</ele>
        <time>2013-03-10T11:07:44Z</time>
      </trkpt>
      <trkpt lat="59.9053181" lon="17.6429348">
        <ele>28.9769</ele>
        <time>2013-03-10T11:07:45Z</time>
      </trkpt>
      <trkpt lat="59.905305" lon="17.6429288">
        <ele>29.4575</ele>
        <time>2013-03-10T11:07:46Z</time>
      </trkpt>
      <trkpt lat="59.9052919" lon="17.6429186">
        <ele>28.9769</ele>
        <time>2013-03-10T11:07:47Z</time>
      </trkpt>
      <trkpt lat="59.905279" lon="17.6429107">
        <ele>28.9769</ele>
        <time>2013-03-10T11:07:48Z</time>
      </trkpt>
      <trkpt lat="59.9052662" lon="17.642905">
        <ele>28.9769</ele>
        <time>2013-03-10T11:07:49Z</time>
      </trkpt>
      <trkpt lat="59.9052523" lon="17.6429012">
        <ele>28.9769</ele>
        <time>2013-03-10T11:07:50Z</time>
      </trkpt>
      <trkpt lat="59.9052372" lon="17.6428972">
        <ele>28.9769</ele>
        <time>2013-03-10T11:07:51Z</time>
      </trkpt>
      <trkpt lat="59.9052222" lon="17.6428932">
        <ele>28.9769</ele>
        <time>2013-03-10T11:07:52Z</time>
      </trkpt>
      <trkpt lat="59.9052072" lon="17.6428861">
        <ele>28.9769</ele>
        <time>2013-03-10T11:07:53Z</time>
      </trkpt>
      <trkpt lat="59.905192" lon="17.6428768">
        <ele>28.9769</ele>
        <time>2013-03-10T11:07:54Z</time>
      </trkpt>
      <trkpt lat="59.9051765" lon="17.6428687">
        <ele>28.9769</ele>
        <time>2013-03-10T11:07:55Z</time>
      </trkpt>
      <trkpt lat="59.905161" lon="17.64286">
        <ele>28.9769</ele>
        <time>2013-03-10T11:07:56Z</time>
      </trkpt>
      <trkpt lat="59.9051461" lon="17.6428579">
        <ele>28.9769</ele>
        <time>2013-03-10T11:07:57Z</time>
      </trkpt>
      <trkpt lat="59.9051335" lon="17.6428585">
        <ele>29.4575</ele>
        <time>2013-03-10T11:07:58Z</time>
      </trkpt>
      <trkpt lat="59.9051187" lon="17.6428574">
        <ele>29.4575</ele>
        <time>2013-03-10T11:07:59Z</time>
      </trkpt>
      <trkpt lat="59.905105" lon="17.6428496">
        <ele>29.4575</ele>
        <time>2013-03-10T11:08:00Z</time>
      </trkpt>
      <trkpt lat="59.9050891" lon="17.6428395">
        <ele>29.4575</ele>
        <time>2013-03-10T11:08:01Z</time>
      </trkpt>
      <trkpt lat="59.905076" lon="17.6428294">
        <ele>29.4575</ele>
        <time>2013-03-10T11:08:02Z</time>
      </trkpt>
      <trkpt lat="59.9050642" lon="17.6428206">
        <ele>28.9769</ele>
        <time>2013-03-10T11:08:03Z</time>
      </trkpt>
      <trkpt lat="59.9050496" lon="17.6428124">
        <ele>28.9769</ele>
        <time>2013-03-10T11:08:04Z</time>
      </trkpt>
      <trkpt lat="59.9050324" lon="17.6428029">
        <ele>28.9769</ele>
        <time>2013-03-10T11:08:05Z</time>
      </trkpt>
      <trkpt lat="59.9050167" lon="17.6427952">
        <ele>28.9769</ele>
        <time>2013-03-10T11:08:06Z</time>
      </trkpt>
      <trkpt lat="59.9050039" lon="17.6427896">
        <ele>28.9769</ele>
        <time>2013-03-10T11:08:07Z</time>
      </trkpt>
      <trkpt lat="59.9049905" lon="17.642787">
        <ele>29.4575</ele>
        <time>2013-03-10T11:08:08Z</time>
      </trkpt>
      <trkpt lat="59.9049796" lon="17.6427832">
        <ele>28.9769</ele>
        <time>2013-03-10T11:08:09Z</time>
      </trkpt>
      <trkpt lat="59.9049669" lon="17.6427756">
        <ele>29.4575</ele>
        <time>2013-03-10T11:08:10Z</time>
      </trkpt>
      <trkpt lat="59.9049508" lon="17.6427661">
        <ele>29.4575</ele>
        <time>2013-03-10T11:08:11Z</time>
      </trkpt>
      <trkpt lat="59.9049372" lon="17.6427606">
        <ele>28.9769</ele>
        <time>2013-03-10T11:08:12Z</time>
      </trkpt>
      <trkpt lat="59.9049243" lon="17.6427585">
        <ele>29.4575</ele>
        <time>2013-03-10T11:08:13Z</time>
      </trkpt>
      <trkpt lat="59.9049104" lon="17.6427553">
        <ele>29.4575</ele>
        <time>2013-03-10T11:08:14Z</time>
      </trkpt>
      <trkpt lat="59.9048988" lon="17.6427502">
        <ele>29.4575</ele>
        <time>2013-03-10T11:08:15Z</time>
      </trkpt>
      <trkpt lat="59.904886" lon="17.6427435">
        <ele>28.9769</ele>
        <time>2013-03-10T11:08:16Z</time>
      </trkpt>
      <trkpt lat="59.9048726" lon="17.6427351">
        <ele>28.9769</ele>
        <time>2013-03-10T11:08:17Z</time>
      </trkpt>
      <trkpt lat="59.904859" lon="17.6427254">
        <ele>28.4962</ele>
        <time>2013-03-10T11:08:18Z</time>
      </trkpt>
      <trkpt lat="59.9048472" lon="17.6427164">
        <ele>28.4962</ele>
        <time>2013-03-10T11:08:19Z</time>
      </trkpt>
      <trkpt lat="59.9048345" lon="17.6427066">
        <ele>28.4962</ele>
        <time>2013-03-10T11:08:20Z</time>
      </trkpt>
      <trkpt lat="59.9048228" lon="17.6426962">
        <ele>28.4962</ele>
        <time>2013-03-10T11:08:21Z</time>
      </trkpt>
      <trkpt lat="59.9048098" lon="17.6426864">
        <ele>28.4962</ele>
        <time>2013-03-10T11:08:22Z</time>
      </trkpt>
      <trkpt lat="59.9047964" lon="17.6426758">
        <ele>28.4962</ele>
        <time>2013-03-10T11:08:23Z</time>
      </trkpt>
      <trkpt lat="59.9047843" lon="17.6426631">
        <ele>28.4962</ele>
        <time>2013-03-10T11:08:24Z</time>
      </trkpt>
      <trkpt lat="59.9047719" lon="17.6426496">
        <ele>28.4962</ele>
        <time>2013-03-10T11:08:25Z</time>
      </trkpt>
      <trkpt lat="59.9047596" lon="17.6426391">
        <ele>28.4962</ele>
        <time>2013-03-10T11:08:26Z</time>
      </trkpt>
      <trkpt lat="59.904748" lon="17.6426303">
        <ele>28.4962</ele>
        <time>2013-03-10T11:08:27Z</time>
      </trkpt>
      <trkpt lat="59.9047349" lon="17.6426212">
        <ele>28.4962</ele>
        <time>2013-03-10T11:08:28Z</time>
      </trkpt>
      <trkpt lat="59.9047214" lon="17.6426126">
        <ele>28.0155</ele>
        <time>2013-03-10T11:08:29Z</time>
      </trkpt>
      <trkpt lat="59.90471" lon="17.6426034">
        <ele>28.0155</ele>
        <time>2013-03-10T11:08:30Z</time>
      </trkpt>
      <trkpt lat="59.904699" lon="17.6425941">
        <ele>28.0155</ele>
        <time>2013-03-10T11:08:31Z</time>
      </trkpt>
      <trkpt lat="59.9046865" lon="17.6425819">
        <ele>28.0155</ele>
        <time>2013-03-10T11:08:32Z</time>
      </trkpt>
      <trkpt lat="59.9046716" lon="17.6425696">
        <ele>28.0155</ele>
        <time>2013-03-10T11:08:33Z</time>
      </trkpt>
      <trkpt lat="59.904656" lon="17.6425583">
        <ele>28.0155</ele>
        <time>2013-03-10T11:08:34Z</time>
      </trkpt>
      <trkpt lat="59.9046422" lon="17.6425485">
        <ele>28.0155</ele>
        <time>2013-03-10T11:08:35Z</time>
      </trkpt>
      <trkpt lat="59.9046322" lon="17.6425422">
        <ele>28.0155</ele>
        <time>2013-03-10T11:08:36Z</time>
      </trkpt>
      <trkpt lat="59.9046173" lon="17.6425311">
        <ele>27.5349</ele>
        <time>2013-03-10T11:08:37Z</time>
      </trkpt>
      <trkpt lat="59.9045995" lon="17.642517">
        <ele>27.5349</ele>
        <time>2013-03-10T11:08:38Z</time>
      </trkpt>
      <trkpt lat="59.9045839" lon="17.6425096">
        <ele>27.5349</ele>
        <time>2013-03-10T11:08:39Z</time>
      </trkpt>
      <trkpt lat="59.9045685" lon="17.642502">
        <ele>27.5349</ele>
        <time>2013-03-10T11:08:40Z</time>
      </trkpt>
      <trkpt lat="59.9045515" lon="17.6424928">
        <ele>27.5349</ele>
        <time>2013-03-10T11:08:41Z</time>
      </trkpt>
      <trkpt lat="59.9045404" lon="17.6424902">
        <ele>27.5349</ele>
        <time>2013-03-10T11:08:42Z</time>
      </trkpt>
      <trkpt lat="59.9045292" lon="17.6424879">
        <ele>27.5349</ele>
        <time>2013-03-10T11:08:43Z</time>
      </trkpt>
      <trkpt lat="59.9045145" lon="17.6424782">
        <ele>27.5349</ele>
        <time>2013-03-10T11:08:44Z</time>
      </trkpt>
      <trkpt lat="59.9045002" lon="17.6424672">
        <ele>27.5349</ele>
        <time>2013-03-10T11:08:45Z</time>
      </trkpt>
      <trkpt lat="59.9044872" lon="17.6424591">
        <ele>27.5349</ele>
        <time>2013-03-10T11:08:46Z</time>
      </trkpt>
      <trkpt lat="59.9044746" lon="17.64245">
        <ele>27.5349</ele>
        <time>2013-03-10T11:08:47Z</time>
      </trkpt>
      <trkpt lat="59.9044626" lon="17.6424425">
        <ele>27.5349</ele>
        <time>2013-03-10T11:08:48Z</time>
      </trkpt>
      <trkpt lat="59.9044504" lon="17.6424336">
        <ele>27.0543</ele>
        <time>2013-03-10T11:08:49Z</time>
      </trkpt>
      <trkpt lat="59.90444" lon="17.6424237">
        <ele>27.0543</ele>
        <time>2013-03-10T11:08:50Z</time>
      </trkpt>
      <trkpt lat="59.9044276" lon="17.642415">
        <ele>27.0543</ele>
        <time>2013-03-10T11:08:51Z</time>
      </trkpt>
      <trkpt lat="59.9044162" lon="17.6424077">
        <ele>26.5736</ele>
        <time>2013-03-10T11:08:52Z</time>
      </trkpt>
      <trkpt lat="59.9044051" lon="17.6424013">
        <ele>26.5736</ele>
        <time>2013-03-10T11:08:53Z</time>
      </trkpt>
      <trkpt lat="59.904392" lon="17.6423922">
        <ele>26.5736</ele>
        <time>2013-03-10T11:08:54Z</time>
      </trkpt>
      <trkpt lat="59.9043794" lon="17.642383">
        <ele>26.5736</ele>
        <time>2013-03-10T11:08:55Z</time>
      </trkpt>
      <trkpt lat="59.9043661" lon="17.6423754">
        <ele>26.5736</ele>
        <time>2013-03-10T11:08:56Z</time>
      </trkpt>
      <trkpt lat="59.9043514" lon="17.6423684">
        <ele>26.5736</ele>
        <time>2013-03-10T11:08:57Z</time>
      </trkpt>
      <trkpt lat="59.9043383" lon="17.6423612">
        <ele>26.5736</ele>
        <time>2013-03-10T11:08:58Z</time>
      </trkpt>
      <trkpt lat="59.9043251" lon="17.6423549">
        <ele>26.5736</ele>
        <time>2013-03-10T11:08:59Z</time>
      </trkpt>
      <trkpt lat="59.9043131" lon="17.642348">
        <ele>26.5736</ele>
        <time>2013-03-10T11:09:00Z</time>
      </trkpt>
      <trkpt lat="59.9043008" lon="17.6423398">
        <ele>26.0929</ele>
        <time>2013-03-10T11:09:01Z</time>
      </trkpt>
      <trkpt lat="59.9042871" lon="17.6423312">
        <ele>26.0929</ele>
        <time>2013-03-10T11:09:02Z</time>
      </trkpt>
      <trkpt lat="59.9042732" lon="17.6423234">
        <ele>26.0929</ele>
        <time>2013-03-10T11:09:03Z</time>
      </trkpt>
      <trkpt lat="59.9042603" lon="17.6423159">
        <ele>26.5736</ele>
        <time>2013-03-10T11:09:04Z</time>
      </trkpt>
      <trkpt lat="59.9042471" lon="17.6423088">
        <ele>26.5736</ele>
        <time>2013-03-10T11:09:05Z</time>
      </trkpt>
      <trkpt lat="59.9042323" lon="17.6423015">
        <ele>26.5736</ele>
        <time>2013-03-10T11:09:06Z</time>
      </trkpt>
      <trkpt lat="59.9042173" lon="17.6422935">
        <ele>26.5736</ele>
        <time>2013-03-10T11:09:07Z</time>
      </trkpt>
      <trkpt lat="59.9042034" lon="17.642285">
        <ele>26.5736</ele>
        <time>2013-03-10T11:09:08Z</time>
      </trkpt>
      <trkpt lat="59.9041898" lon="17.6422767">
        <ele>26.5736</ele>
        <time>2013-03-10T11:09:09Z</time>
      </trkpt>
      <trkpt lat="59.9041764" lon="17.6422688">
        <ele>26.5736</ele>
        <time>2013-03-10T11:09:10Z</time>
      </trkpt>
      <trkpt lat="59.9041639" lon="17.6422615">
        <ele>26.0929</ele>
        <time>2013-03-10T11:09:11Z</time>
      </trkpt>
      <trkpt lat="59.9041504" lon="17.6422544">
        <ele>26.0929</ele>
        <time>2013-03-10T11:09:12Z</time>
      </trkpt>
      <trkpt lat="59.904136" lon="17.6422466">
        <ele>26.0929</ele>
        <time>2013-03-10T11:09:13Z</time>
      </trkpt>
      <trkpt lat="59.9041226" lon="17.6422376">
        <ele>26.0929</ele>
        <time>2013-03-10T11:09:14Z</time>
      </trkpt>
      <trkpt lat="59.9041095" lon="17.6422291">
        <ele>26.0929</ele>
        <time>2013-03-10T11:09:15Z</time>
      </trkpt>
      <trkpt lat="59.9040957" lon="17.6422212">
        <ele>26.0929</ele>
        <time>2013-03-10T11:09:16Z</time>
      </trkpt>
      <trkpt lat="59.9040816" lon="17.6422124">
        <ele>26.0929</ele>
        <time>2013-03-10T11:09:17Z</time>
      </trkpt>
      <trkpt lat="59.9040663" lon="17.642204">
        <ele>26.0929</ele>
        <time>2013-03-10T11:09:18Z</time>
      </trkpt>
      <trkpt lat="59.9040532" lon="17.6421941">
        <ele>26.0929</ele>
        <time>2013-03-10T11:09:19Z</time>
      </trkpt>
      <trkpt lat="59.9040409" lon="17.6421855">
        <ele>26.0929</ele>
        <time>2013-03-10T11:09:20Z</time>
      </trkpt>
      <trkpt lat="59.9040282" lon="17.6421788">
        <ele>26.0929</ele>
        <time>2013-03-10T11:09:21Z</time>
      </trkpt>
      <trkpt lat="59.904015" lon="17.642172">
        <ele>26.0929</ele>
        <time>2013-03-10T11:09:22Z</time>
      </trkpt>
      <trkpt lat="59.9039997" lon="17.6421631">
        <ele>26.0929</ele>
        <time>2013-03-10T11:09:23Z</time>
      </trkpt>
      <trkpt lat="59.9039831" lon="17.6421544">
        <ele>26.0929</ele>
        <time>2013-03-10T11:09:24Z</time>
      </trkpt>
      <trkpt lat="59.903969" lon="17.6421461">
        <ele>26.0929</ele>
        <time>2013-03-10T11:09:25Z</time>
      </trkpt>
      <trkpt lat="59.9039557" lon="17.6421376">
        <ele>26.0929</ele>
        <time>2013-03-10T11:09:26Z</time>
      </trkpt>
      <trkpt lat="59.9039422" lon="17.6421285">
        <ele>26.0929</ele>
        <time>2013-03-10T11:09:27Z</time>
      </trkpt>
      <trkpt lat="59.9039282" lon="17.6421205">
        <ele>26.0929</ele>
        <time>2013-03-10T11:09:28Z</time>
      </trkpt>
      <trkpt lat="59.903914" lon="17.6421131">
        <ele>26.0929</ele>
        <time>2013-03-10T11:09:29Z</time>
      </trkpt>
      <trkpt lat="59.9039002" lon="17.6421053">
        <ele>26.0929</ele>
        <time>2013-03-10T11:09:30Z</time>
      </trkpt>
      <trkpt lat="59.9038858" lon="17.6420979">
        <ele>26.0929</ele>
        <time>2013-03-10T11:09:31Z</time>
      </trkpt>
      <trkpt lat="59.9038727" lon="17.6420912">
        <ele>26.0929</ele>
        <time>2013-03-10T11:09:32Z</time>
      </trkpt>
      <trkpt lat="59.9038586" lon="17.6420858">
        <ele>26.0929</ele>
        <time>2013-03-10T11:09:33Z</time>
      </trkpt>
      <trkpt lat="59.9038448" lon="17.6420798">
        <ele>26.0929</ele>
        <time>2013-03-10T11:09:34Z</time>
      </trkpt>
      <trkpt lat="59.9038314" lon="17.6420737">
        <ele>25.6123</ele>
        <time>2013-03-10T11:09:35Z</time>
      </trkpt>
      <trkpt lat="59.9038179" lon="17.6420682">
        <ele>25.6123</ele>
        <time>2013-03-10T11:09:36Z</time>
      </trkpt>
      <trkpt lat="59.9038034" lon="17.6420631">
        <ele>25.6123</ele>
        <time>2013-03-10T11:09:37Z</time>
      </trkpt>
      <trkpt lat="59.9037915" lon="17.642057">
        <ele>25.6123</ele>
        <time>2013-03-10T11:09:38Z</time>
      </trkpt>
      <trkpt lat="59.9037804" lon="17.6420523">
        <ele>25.6123</ele>
        <time>2013-03-10T11:09:39Z</time>
      </trkpt>
      <trkpt lat="59.9037654" lon="17.6420488">
        <ele>25.6123</ele>
        <time>2013-03-10T11:09:40Z</time>
      </trkpt>
      <trkpt lat="59.9037507" lon="17.6420428">
        <ele>25.6123</ele>
        <time>2013-03-10T11:09:41Z</time>
      </trkpt>
      <trkpt lat="59.9037366" lon="17.6420368">
        <ele>25.6123</ele>
        <time>2013-03-10T11:09:42Z</time>
      </trkpt>
      <trkpt lat="59.9037235" lon="17.6420333">
        <ele>25.6123</ele>
        <time>2013-03-10T11:09:43Z</time>
      </trkpt>
      <trkpt lat="59.9037107" lon="17.6420311">
        <ele>25.6123</ele>
        <time>2013-03-10T11:09:44Z</time>
      </trkpt>
      <trkpt lat="59.9036996" lon="17.6420249">
        <ele>25.6123</ele>
        <time>2013-03-10T11:09:45Z</time>
      </trkpt>
      <trkpt lat="59.9036858" lon="17.6420201">
        <ele>25.6123</ele>
        <time>2013-03-10T11:09:46Z</time>
      </trkpt>
      <trkpt lat="59.903673" lon="17.6420143">
        <ele>25.6123</ele>
        <time>2013-03-10T11:09:47Z</time>
      </trkpt>
      <trkpt lat="59.9036625" lon="17.6420063">
        <ele>25.6123</ele>
        <time>2013-03-10T11:09:48Z</time>
      </trkpt>
      <trkpt lat="59.903649" lon="17.641999">
        <ele>25.6123</ele>
        <time>2013-03-10T11:09:49Z</time>
      </trkpt>
      <trkpt lat="59.903635" lon="17.6419941">
        <ele>25.6123</ele>
        <time>2013-03-10T11:09:50Z</time>
      </trkpt>
      <trkpt lat="59.9036226" lon="17.6419959">
        <ele>25.1317</ele>
        <time>2013-03-10T11:09:51Z</time>
      </trkpt>
      <trkpt lat="59.9036091" lon="17.6420012">
        <ele>25.1317</ele>
        <time>2013-03-10T11:09:52Z</time>
      </trkpt>
      <trkpt lat="59.903595" lon="17.6420078">
        <ele>25.1317</ele>
        <time>2013-03-10T11:09:53Z</time>
      </trkpt>
      <trkpt lat="59.9035833" lon="17.6420166">
        <ele>25.1317</ele>
        <time>2013-03-10T11:09:54Z</time>
      </trkpt>
      <trkpt lat="59.9035704" lon="17.6420212">
        <ele>25.1317</ele>
        <time>2013-03-10T11:09:55Z</time>
      </trkpt>
      <trkpt lat="59.9035571" lon="17.6420169">
        <ele>25.1317</ele>
        <time>2013-03-10T11:09:56Z</time>
      </trkpt>
      <trkpt lat="59.9035447" lon="17.6420102">
        <ele>25.1317</ele>
        <time>2013-03-10T11:09:57Z</time>
      </trkpt>
      <trkpt lat="59.9035325" lon="17.6420042">
        <ele>25.1317</ele>
        <time>2013-03-10T11:09:58Z</time>
      </trkpt>
      <trkpt lat="59.9035201" lon="17.6419967">
        <ele>25.1317</ele>
        <time>2013-03-10T11:09:59Z</time>
      </trkpt>
      <trkpt lat="59.9035138" lon="17.6419921">
        <ele>25.1317</ele>
        <time>2013-03-10T11:10:00Z</time>
      </trkpt>
      <trkpt lat="59.9035074" lon="17.641988">
        <ele>25.1317</ele>
        <time>2013-03-10T11:10:01Z</time>
      </trkpt>
      <trkpt lat="59.9034946" lon="17.6419797">
        <ele>25.6123</ele>
        <time>2013-03-10T11:10:02Z</time>
      </trkpt>
      <trkpt lat="59.9034785" lon="17.6419734">
        <ele>26.0929</ele>
        <time>2013-03-10T11:10:03Z</time>
      </trkpt>
      <trkpt lat="59.9034614" lon="17.6419672">
        <ele>26.0929</ele>
        <time>2013-03-10T11:10:04Z</time>
      </trkpt>
      <trkpt lat="59.9034469" lon="17.6419612">
        <ele>26.5736</ele>
        <time>2013-03-10T11:10:05Z</time>
      </trkpt>
      <trkpt lat="59.903436" lon="17.6419621">
        <ele>26.5736</ele>
        <time>2013-03-10T11:10:06Z</time>
      </trkpt>
      <trkpt lat="59.9034247" lon="17.6419586">
        <ele>26.5736</ele>
        <time>2013-03-10T11:10:07Z</time>
      </trkpt>
      <trkpt lat="59.9034112" lon="17.6419523">
        <ele>26.5736</ele>
        <time>2013-03-10T11:10:08Z</time>
      </trkpt>
      <trkpt lat="59.9033996" lon="17.6419461">
        <ele>26.5736</ele>
        <time>2013-03-10T11:10:09Z</time>
      </trkpt>
      <trkpt lat="59.9033874" lon="17.6419405">
        <ele>27.0543</ele>
        <time>2013-03-10T11:10:10Z</time>
      </trkpt>
      <trkpt lat="59.9033737" lon="17.6419333">
        <ele>27.0543</ele>
        <time>2013-03-10T11:10:11Z</time>
      </trkpt>
      <trkpt lat="59.9033618" lon="17.641926">
        <ele>27.5349</ele>
        <time>2013-03-10T11:10:12Z</time>
      </trkpt>
      <trkpt lat="59.9033504" lon="17.6419197">
        <ele>27.5349</ele>
        <time>2013-03-10T11:10:13Z</time>
      </trkpt>
      <trkpt lat="59.9033378" lon="17.6419146">
        <ele>28.0155</ele>
        <time>2013-03-10T11:10:14Z</time>
      </trkpt>
      <trkpt lat="59.9033247" lon="17.6419119">
        <ele>28.0155</ele>
        <time>2013-03-10T11:10:15Z</time>
      </trkpt>
      <trkpt lat="59.9033108" lon="17.6419059">
        <ele>28.4962</ele>
        <time>2013-03-10T11:10:16Z</time>
      </trkpt>
      <trkpt lat="59.9032952" lon="17.6418971">
        <ele>28.4962</ele>
        <time>2013-03-10T11:10:17Z</time>
      </trkpt>
      <trkpt lat="59.9032805" lon="17.6418895">
        <ele>28.4962</ele>
        <time>2013-03-10T11:10:18Z</time>
      </trkpt>
      <trkpt lat="59.9032681" lon="17.641883">
        <ele>28.4962</ele>
        <time>2013-03-10T11:10:19Z</time>
      </trkpt>
      <trkpt lat="59.9032538" lon="17.6418773">
        <ele>28.9769</ele>
        <time>2013-03-10T11:10:20Z</time>
      </trkpt>
      <trkpt lat="59.9032383" lon="17.6418693">
        <ele>28.9769</ele>
        <time>2013-03-10T11:10:21Z</time>
      </trkpt>
      <trkpt lat="59.9032249" lon="17.641861">
        <ele>28.9769</ele>
        <time>2013-03-10T11:10:22Z</time>
      </trkpt>
      <trkpt lat="59.9032123" lon="17.6418548">
        <ele>28.9769</ele>
        <time>2013-03-10T11:10:23Z</time>
      </trkpt>
      <trkpt lat="59.9031989" lon="17.6418488">
        <ele>28.9769</ele>
        <time>2013-03-10T11:10:24Z</time>
      </trkpt>
      <trkpt lat="59.9031844" lon="17.6418415">
        <ele>28.9769</ele>
        <time>2013-03-10T11:10:25Z</time>
      </trkpt>
      <trkpt lat="59.9031699" lon="17.6418358">
        <ele>28.9769</ele>
        <time>2013-03-10T11:10:26Z</time>
      </trkpt>
      <trkpt lat="59.9031573" lon="17.6418296">
        <ele>29.4575</ele>
        <time>2013-03-10T11:10:27Z</time>
      </trkpt>
      <trkpt lat="59.9031451" lon="17.6418211">
        <ele>28.9769</ele>
        <time>2013-03-10T11:10:28Z</time>
      </trkpt>
      <trkpt lat="59.9031318" lon="17.6418115">
        <ele>28.9769</ele>
        <time>2013-03-10T11:10:29Z</time>
      </trkpt>
      <trkpt lat="59.9031179" lon="17.6418046">
        <ele>28.9769</ele>
        <time>2013-03-10T11:10:30Z</time>
      </trkpt>
      <trkpt lat="59.9031041" lon="17.641799">
        <ele>28.9769</ele>
        <time>2013-03-10T11:10:31Z</time>
      </trkpt>
      <trkpt lat="59.9030914" lon="17.6417935">
        <ele>28.9769</ele>
        <time>2013-03-10T11:10:32Z</time>
      </trkpt>
      <trkpt lat="59.9030769" lon="17.6417857">
        <ele>28.9769</ele>
        <time>2013-03-10T11:10:33Z</time>
      </trkpt>
      <trkpt lat="59.9030621" lon="17.6417776">
        <ele>29.4575</ele>
        <time>2013-03-10T11:10:34Z</time>
      </trkpt>
      <trkpt lat="59.9030491" lon="17.641772">
        <ele>29.4575</ele>
        <time>2013-03-10T11:10:35Z</time>
      </trkpt>
      <trkpt lat="59.9030368" lon="17.6417701">
        <ele>29.4575</ele>
        <time>2013-03-10T11:10:36Z</time>
      </trkpt>
      <trkpt lat="59.9030242" lon="17.6417685">
        <ele>29.4575</ele>
        <time>2013-03-10T11:10:37Z</time>
      </trkpt>
      <trkpt lat="59.9030133" lon="17.6417657">
        <ele>29.4575</ele>
        <time>2013-03-10T11:10:38Z</time>
      </trkpt>
      <trkpt lat="59.9030044" lon="17.6417627">
        <ele>29.4575</ele>
        <time>2013-03-10T11:10:39Z</time>
      </trkpt>
      <trkpt lat="59.9029915" lon="17.6417539">
        <ele>29.4575</ele>
        <time>2013-03-10T11:10:40Z</time>
      </trkpt>
      <trkpt lat="59.9029786" lon="17.6417424">
        <ele>29.4575</ele>
        <time>2013-03-10T11:10:41Z</time>
      </trkpt>
      <trkpt lat="59.9029673" lon="17.6417338">
        <ele>29.4575</ele>
        <time>2013-03-10T11:10:42Z</time>
      </trkpt>
      <trkpt lat="59.9029564" lon="17.641723">
        <ele>28.9769</ele>
        <time>2013-03-10T11:10:43Z</time>
      </trkpt>
      <trkpt lat="59.9029435" lon="17.6417116">
        <ele>28.9769</ele>
        <time>2013-03-10T11:10:44Z</time>
      </trkpt>
      <trkpt lat="59.902931" lon="17.6417032">
        <ele>28.9769</ele>
        <time>2013-03-10T11:10:45Z</time>
      </trkpt>
      <trkpt lat="59.90292" lon="17.6416944">
        <ele>28.9769</ele>
        <time>2013-03-10T11:10:46Z</time>
      </trkpt>
      <trkpt lat="59.9029089" lon="17.6416852">
        <ele>28.9769</ele>
        <time>2013-03-10T11:10:47Z</time>
      </trkpt>
      <trkpt lat="59.9028975" lon="17.6416777">
        <ele>28.9769</ele>
        <time>2013-03-10T11:10:48Z</time>
      </trkpt>
      <trkpt lat="59.9028823" lon="17.6416691">
        <ele>28.9769</ele>
        <time>2013-03-10T11:10:49Z</time>
      </trkpt>
      <trkpt lat="59.9028647" lon="17.6416619">
        <ele>28.9769</ele>
        <time>2013-03-10T11:10:50Z</time>
      </trkpt>
      <trkpt lat="59.9028512" lon="17.6416522">
        <ele>28.9769</ele>
        <time>2013-03-10T11:10:51Z</time>
      </trkpt>
      <trkpt lat="59.9028387" lon="17.6416404">
        <ele>28.4962</ele>
        <time>2013-03-10T11:10:52Z</time>
      </trkpt>
      <trkpt lat="59.9028253" lon="17.6416294">
        <ele>28.4962</ele>
        <time>2013-03-10T11:10:53Z</time>
      </trkpt>
      <trkpt lat="59.9028128" lon="17.6416214">
        <ele>28.4962</ele>
        <time>2013-03-10T11:10:54Z</time>
      </trkpt>
      <trkpt lat="59.9028013" lon="17.6416122">
        <ele>28.9769</ele>
        <time>2013-03-10T11:10:55Z</time>
      </trkpt>
      <trkpt lat="59.9027892" lon="17.6416031">
        <ele>28.9769</ele>
        <time>2013-03-10T11:10:56Z</time>
      </trkpt>
      <trkpt lat="59.9027772" lon="17.6415948">
        <ele>28.9769</ele>
        <time>2013-03-10T11:10:57Z</time>
      </trkpt>
      <trkpt lat="59.9027648" lon="17.6415877">
        <ele>28.9769</ele>
        <time>2013-03-10T11:10:58Z</time>
      </trkpt>
      <trkpt lat="59.9027495" lon="17.6415839">
        <ele>28.9769</ele>
        <time>2013-03-10T11:10:59Z</time>
      </trkpt>
      <trkpt lat="59.9027351" lon="17.6415811">
        <ele>28.9769</ele>
        <time>2013-03-10T11:11:00Z</time>
      </trkpt>
      <trkpt lat="59.9027206" lon="17.6415766">
        <ele>28.9769</ele>
        <time>2013-03-10T11:11:01Z</time>
      </trkpt>
      <trkpt lat="59.9027068" lon="17.6415717">
        <ele>29.4575</ele>
        <time>2013-03-10T11:11:02Z</time>
      </trkpt>
      <trkpt lat="59.9026938" lon="17.6415655">
        <ele>28.9769</ele>
        <time>2013-03-10T11:11:03Z</time>
      </trkpt>
      <trkpt lat="59.9026813" lon="17.6415595">
        <ele>29.4575</ele>
        <time>2013-03-10T11:11:04Z</time>
      </trkpt>
      <trkpt lat="59.902669" lon="17.6415525">
        <ele>29.4575</ele>
        <time>2013-03-10T11:11:05Z</time>
      </trkpt>
      <trkpt lat="59.9026565" lon="17.6415461">
        <ele>29.4575</ele>
        <time>2013-03-10T11:11:06Z</time>
      </trkpt>
      <trkpt lat="59.9026432" lon="17.6415378">
        <ele>29.4575</ele>
        <time>2013-03-10T11:11:07Z</time>
      </trkpt>
      <trkpt lat="59.9026301" lon="17.6415284">
        <ele>29.4575</ele>
        <time>2013-03-10T11:11:08Z</time>
      </trkpt>
      <trkpt lat="59.9026173" lon="17.641522">
        <ele>29.4575</ele>
        <time>2013-03-10T11:11:09Z</time>
      </trkpt>
      <trkpt lat="59.9026046" lon="17.6415171">
        <ele>29.4575</ele>
        <time>2013-03-10T11:11:10Z</time>
      </trkpt>
      <trkpt lat="59.9025913" lon="17.641511">
        <ele>29.4575</ele>
        <time>2013-03-10T11:11:11Z</time>
      </trkpt>
      <trkpt lat="59.9025786" lon="17.641502">
        <ele>29.4575</ele>
        <time>2013-03-10T11:11:12Z</time>
      </trkpt>
      <trkpt lat="59.9025663" lon="17.6414919">
        <ele>29.4575</ele>
        <time>2013-03-10T11:11:13Z</time>
      </trkpt>
      <trkpt lat="59.9025533" lon="17.6414836">
        <ele>29.4575</ele>
        <time>2013-03-10T11:11:14Z</time>
      </trkpt>
      <trkpt lat="59.9025398" lon="17.6414759">
        <ele>29.9381</ele>
        <time>2013-03-10T11:11:15Z</time>
      </trkpt>
      <trkpt lat="59.902527" lon="17.6414663">
        <ele>29.9381</ele>
        <time>2013-03-10T11:11:16Z</time>
      </trkpt>
      <trkpt lat="59.9025147" lon="17.6414565">
        <ele>29.9381</ele>
        <time>2013-03-10T11:11:17Z</time>
      </trkpt>
      <trkpt lat="59.9025026" lon="17.6414462">
        <ele>29.9381</ele>
        <time>2013-03-10T11:11:18Z</time>
      </trkpt>
      <trkpt lat="59.9024903" lon="17.6414364">
        <ele>29.4575</ele>
        <time>2013-03-10T11:11:19Z</time>
      </trkpt>
      <trkpt lat="59.9024779" lon="17.641428">
        <ele>29.9381</ele>
        <time>2013-03-10T11:11:20Z</time>
      </trkpt>
      <trkpt lat="59.9024653" lon="17.6414204">
        <ele>29.4575</ele>
        <time>2013-03-10T11:11:21Z</time>
      </trkpt>
      <trkpt lat="59.9024532" lon="17.6414136">
        <ele>29.4575</ele>
        <time>2013-03-10T11:11:22Z</time>
      </trkpt>
      <trkpt lat="59.9024408" lon="17.6414075">
        <ele>29.4575</ele>
        <time>2013-03-10T11:11:23Z</time>
      </trkpt>
      <trkpt lat="59.9024286" lon="17.6414027">
        <ele>29.4575</ele>
        <time>2013-03-10T11:11:24Z</time>
      </trkpt>
      <trkpt lat="59.9024156" lon="17.641399">
        <ele>29.9381</ele>
        <time>2013-03-10T11:11:25Z</time>
      </trkpt>
      <trkpt lat="59.9024028" lon="17.6413928">
        <ele>29.9381</ele>
        <time>2013-03-10T11:11:26Z</time>
      </trkpt>
      <trkpt lat="59.9023902" lon="17.6413849">
        <ele>29.9381</ele>
        <time>2013-03-10T11:11:27Z</time>
      </trkpt>
      <trkpt lat="59.9023773" lon="17.6413753">
        <ele>29.9381</ele>
        <time>2013-03-10T11:11:28Z</time>
      </trkpt>
      <trkpt lat="59.9023642" lon="17.6413649">
        <ele>29.9381</ele>
        <time>2013-03-10T11:11:29Z</time>
      </trkpt>
      <trkpt lat="59.9023503" lon="17.6413549">
        <ele>29.9381</ele>
        <time>2013-03-10T11:11:30Z</time>
      </trkpt>
      <trkpt lat="59.902336" lon="17.6413453">
        <ele>29.9381</ele>
        <time>2013-03-10T11:11:31Z</time>
      </trkpt>
      <trkpt lat="59.9023214" lon="17.6413342">
        <ele>29.9381</ele>
        <time>2013-03-10T11:11:32Z</time>
      </trkpt>
      <trkpt lat="59.9023079" lon="17.641322">
        <ele>29.9381</ele>
        <time>2013-03-10T11:11:33Z</time>
      </trkpt>
      <trkpt lat="59.902295" lon="17.6413102">
        <ele>29.4575</ele>
        <time>2013-03-10T11:11:34Z</time>
      </trkpt>
      <trkpt lat="59.9022824" lon="17.641298">
        <ele>29.4575</ele>
        <time>2013-03-10T11:11:35Z</time>
      </trkpt>
      <trkpt lat="59.9022711" lon="17.6412889">
        <ele>29.4575</ele>
        <time>2013-03-10T11:11:36Z</time>
      </trkpt>
      <trkpt lat="59.9022616" lon="17.6412829">
        <ele>29.4575</ele>
        <time>2013-03-10T11:11:37Z</time>
      </trkpt>
      <trkpt lat="59.9022518" lon="17.6412784">
        <ele>29.4575</ele>
        <time>2013-03-10T11:11:38Z</time>
      </trkpt>
      <trkpt lat="59.9022401" lon="17.6412728">
        <ele>29.4575</ele>
        <time>2013-03-10T11:11:39Z</time>
      </trkpt>
      <trkpt lat="59.902228" lon="17.6412675">
        <ele>29.9381</ele>
        <time>2013-03-10T11:11:40Z</time>
      </trkpt>
      <trkpt lat="59.9022145" lon="17.6412573">
        <ele>29.4575</ele>
        <time>2013-03-10T11:11:41Z</time>
      </trkpt>
      <trkpt lat="59.9022" lon="17.6412427">
        <ele>29.4575</ele>
        <time>2013-03-10T11:11:42Z</time>
      </trkpt>
      <trkpt lat="59.9021878" lon="17.6412334">
        <ele>28.9769</ele>
        <time>2013-03-10T11:11:43Z</time>
      </trkpt>
      <trkpt lat="59.9021778" lon="17.6412262">
        <ele>28.9769</ele>
        <time>2013-03-10T11:11:44Z</time>
      </trkpt>
      <trkpt lat="59.9021658" lon="17.6412173">
        <ele>28.9769</ele>
        <time>2013-03-10T11:11:45Z</time>
      </trkpt>
      <trkpt lat="59.9021516" lon="17.641207">
        <ele>28.9769</ele>
        <time>2013-03-10T11:11:46Z</time>
      </trkpt>
      <trkpt lat="59.902138" lon="17.6411962">
        <ele>28.9769</ele>
        <time>2013-03-10T11:11:47Z</time>
      </trkpt>
      <trkpt lat="59.9021236" lon="17.6411873">
        <ele>29.4575</ele>
        <time>2013-03-10T11:11:48Z</time>
      </trkpt>
      <trkpt lat="59.9021085" lon="17.6411798">
        <ele>29.4575</ele>
        <time>2013-03-10T11:11:49Z</time>
      </trkpt>
      <trkpt lat="59.9020945" lon="17.6411702">
        <ele>29.4575</ele>
        <time>2013-03-10T11:11:50Z</time>
      </trkpt>
      <trkpt lat="59.9020818" lon="17.6411592">
        <ele>29.4575</ele>
        <time>2013-03-10T11:11:51Z</time>
      </trkpt>
      <trkpt lat="59.9020694" lon="17.641147">
        <ele>29.4575</ele>
        <time>2013-03-10T11:11:52Z</time>
      </trkpt>
      <trkpt lat="59.9020567" lon="17.6411363">
        <ele>29.4575</ele>
        <time>2013-03-10T11:11:53Z</time>
      </trkpt>
      <trkpt lat="59.9020442" lon="17.6411251">
        <ele>29.4575</ele>
        <time>2013-03-10T11:11:54Z</time>
      </trkpt>
      <trkpt lat="59.9020318" lon="17.6411136">
        <ele>29.4575</ele>
        <time>2013-03-10T11:11:55Z</time>
      </trkpt>
      <trkpt lat="59.9020183" lon="17.6411021">
        <ele>29.4575</ele>
        <time>2013-03-10T11:11:56Z</time>
      </trkpt>
      <trkpt lat="59.9020052" lon="17.6410899">
        <ele>29.4575</ele>
        <time>2013-03-10T11:11:57Z</time>
      </trkpt>
      <trkpt lat="59.9019927" lon="17.6410789">
        <ele>29.4575</ele>
        <time>2013-03-10T11:11:58Z</time>
      </trkpt>
      <trkpt lat="59.9019791" lon="17.6410687">
        <ele>29.4575</ele>
        <time>2013-03-10T11:11:59Z</time>
      </trkpt>
      <trkpt lat="59.9019665" lon="17.6410592">
        <ele>29.4575</ele>
        <time>2013-03-10T11:12:00Z</time>
      </trkpt>
      <trkpt lat="59.9019537" lon="17.6410485">
        <ele>29.4575</ele>
        <time>2013-03-10T11:12:01Z</time>
      </trkpt>
      <trkpt lat="59.9019401" lon="17.6410377">
        <ele>29.4575</ele>
        <time>2013-03-10T11:12:02Z</time>
      </trkpt>
      <trkpt lat="59.9019267" lon="17.6410265">
        <ele>29.4575</ele>
        <time>2013-03-10T11:12:03Z</time>
      </trkpt>
      <trkpt lat="59.9019122" lon="17.6410153">
        <ele>29.4575</ele>
        <time>2013-03-10T11:12:04Z</time>
      </trkpt>
      <trkpt lat="59.9018976" lon="17.6410042">
        <ele>29.4575</ele>
        <time>2013-03-10T11:12:05Z</time>
      </trkpt>
      <trkpt lat="59.9018836" lon="17.6409928">
        <ele>29.9381</ele>
        <time>2013-03-10T11:12:06Z</time>
      </trkpt>
      <trkpt lat="59.9018697" lon="17.6409812">
        <ele>29.9381</ele>
        <time>2013-03-10T11:12:07Z</time>
      </trkpt>
      <trkpt lat="59.9018557" lon="17.6409707">
        <ele>29.9381</ele>
        <time>2013-03-10T11:12:08Z</time>
      </trkpt>
      <trkpt lat="59.9018415" lon="17.6409591">
        <ele>29.9381</ele>
        <time>2013-03-10T11:12:09Z</time>
      </trkpt>
      <trkpt lat="59.9018282" lon="17.6409459">
        <ele>29.9381</ele>
        <time>2013-03-10T11:12:10Z</time>
      </trkpt>
      <trkpt lat="59.9018137" lon="17.6409334">
        <ele>29.9381</ele>
        <time>2013-03-10T11:12:11Z</time>
      </trkpt>
      <trkpt lat="59.9018008" lon="17.6409214">
        <ele>29.9381</ele>
        <time>2013-03-10T11:12:12Z</time>
      </trkpt>
      <trkpt lat="59.9017882" lon="17.6409085">
        <ele>29.9381</ele>
        <time>2013-03-10T11:12:13Z</time>
      </trkpt>
      <trkpt lat="59.9017748" lon="17.6408972">
        <ele>29.9381</ele>
        <time>2013-03-10T11:12:14Z</time>
      </trkpt>
      <trkpt lat="59.9017622" lon="17.6408864">
        <ele>29.9381</ele>
        <time>2013-03-10T11:12:15Z</time>
      </trkpt>
      <trkpt lat="59.9017498" lon="17.6408754">
        <ele>29.9381</ele>
        <time>2013-03-10T11:12:16Z</time>
      </trkpt>
      <trkpt lat="59.9017364" lon="17.6408644">
        <ele>29.9381</ele>
        <time>2013-03-10T11:12:17Z</time>
      </trkpt>
      <trkpt lat="59.9017221" lon="17.6408531">
        <ele>29.9381</ele>
        <time>2013-03-10T11:12:18Z</time>
      </trkpt>
      <trkpt lat="59.9017086" lon="17.6408396">
        <ele>29.4575</ele>
        <time>2013-03-10T11:12:19Z</time>
      </trkpt>
      <trkpt lat="59.9016966" lon="17.6408231">
        <ele>29.4575</ele>
        <time>2013-03-10T11:12:20Z</time>
      </trkpt>
      <trkpt lat="59.9016852" lon="17.6408077">
        <ele>28.9769</ele>
        <time>2013-03-10T11:12:21Z</time>
      </trkpt>
      <trkpt lat="59.9016727" lon="17.6407945">
        <ele>28.9769</ele>
        <time>2013-03-10T11:12:22Z</time>
      </trkpt>
      <trkpt lat="59.9016595" lon="17.6407833">
        <ele>28.9769</ele>
        <time>2013-03-10T11:12:23Z</time>
      </trkpt>
      <trkpt lat="59.9016464" lon="17.6407722">
        <ele>28.9769</ele>
        <time>2013-03-10T11:12:24Z</time>
      </trkpt>
      <trkpt lat="59.9016336" lon="17.6407583">
        <ele>28.4962</ele>
        <time>2013-03-10T11:12:25Z</time>
      </trkpt>
      <trkpt lat="59.9016219" lon="17.6407433">
        <ele>28.0155</ele>
        <time>2013-03-10T11:12:26Z</time>
      </trkpt>
      <trkpt lat="59.9016097" lon="17.6407293">
        <ele>28.0155</ele>
        <time>2013-03-10T11:12:27Z</time>
      </trkpt>
      <trkpt lat="59.9015972" lon="17.6407159">
        <ele>28.0155</ele>
        <time>2013-03-10T11:12:28Z</time>
      </trkpt>
      <trkpt lat="59.9015846" lon="17.6407035">
        <ele>28.0155</ele>
        <time>2013-03-10T11:12:29Z</time>
      </trkpt>
      <trkpt lat="59.9015719" lon="17.6406905">
        <ele>28.0155</ele>
        <time>2013-03-10T11:12:30Z</time>
      </trkpt>
      <trkpt lat="59.9015588" lon="17.640676">
        <ele>27.5349</ele>
        <time>2013-03-10T11:12:31Z</time>
      </trkpt>
      <trkpt lat="59.9015447" lon="17.640663">
        <ele>27.5349</ele>
        <time>2013-03-10T11:12:32Z</time>
      </trkpt>
      <trkpt lat="59.9015302" lon="17.6406511">
        <ele>27.5349</ele>
        <time>2013-03-10T11:12:33Z</time>
      </trkpt>
      <trkpt lat="59.9015164" lon="17.6406387">
        <ele>27.5349</ele>
        <time>2013-03-10T11:12:34Z</time>
      </trkpt>
      <trkpt lat="59.9015037" lon="17.6406246">
        <ele>27.5349</ele>
        <time>2013-03-10T11:12:35Z</time>
      </trkpt>
      <trkpt lat="59.9014908" lon="17.6406098">
        <ele>27.5349</ele>
        <time>2013-03-10T11:12:36Z</time>
      </trkpt>
      <trkpt lat="59.9014775" lon="17.6405978">
        <ele>27.5349</ele>
        <time>2013-03-10T11:12:37Z</time>
      </trkpt>
      <trkpt lat="59.9014639" lon="17.6405848">
        <ele>27.5349</ele>
        <time>2013-03-10T11:12:38Z</time>
      </trkpt>
      <trkpt lat="59.901451" lon="17.6405723">
        <ele>27.5349</ele>
        <time>2013-03-10T11:12:39Z</time>
      </trkpt>
      <trkpt lat="59.9014387" lon="17.64056">
        <ele>27.5349</ele>
        <time>2013-03-10T11:12:40Z</time>
      </trkpt>
      <trkpt lat="59.9014258" lon="17.6405487">
        <ele>28.0155</ele>
        <time>2013-03-10T11:12:41Z</time>
      </trkpt>
      <trkpt lat="59.9014127" lon="17.6405381">
        <ele>28.0155</ele>
        <time>2013-03-10T11:12:42Z</time>
      </trkpt>
      <trkpt lat="59.9014003" lon="17.6405279">
        <ele>28.0155</ele>
        <time>2013-03-10T11:12:43Z</time>
      </trkpt>
      <trkpt lat="59.901388" lon="17.6405176">
        <ele>28.0155</ele>
        <time>2013-03-10T11:12:44Z</time>
      </trkpt>
      <trkpt lat="59.9013751" lon="17.640507">
        <ele>28.0155</ele>
        <time>2013-03-10T11:12:45Z</time>
      </trkpt>
      <trkpt lat="59.9013636" lon="17.6404957">
        <ele>28.0155</ele>
        <time>2013-03-10T11:12:46Z</time>
      </trkpt>
      <trkpt lat="59.9013527" lon="17.6404836">
        <ele>28.0155</ele>
        <time>2013-03-10T11:12:47Z</time>
      </trkpt>
      <trkpt lat="59.9013408" lon="17.6404694">
        <ele>27.5349</ele>
        <time>2013-03-10T11:12:48Z</time>
      </trkpt>
      <trkpt lat="59.9013283" lon="17.6404538">
        <ele>27.5349</ele>
        <time>2013-03-10T11:12:49Z</time>
      </trkpt>
      <trkpt lat="59.9013163" lon="17.6404417">
        <ele>27.5349</ele>
        <time>2013-03-10T11:12:50Z</time>
      </trkpt>
      <trkpt lat="59.9013029" lon="17.6404305">
        <ele>27.5349</ele>
        <time>2013-03-10T11:12:51Z</time>
      </trkpt>
      <trkpt lat="59.9012895" lon="17.6404191">
        <ele>27.5349</ele>
        <time>2013-03-10T11:12:52Z</time>
      </trkpt>
      <trkpt lat="59.9012765" lon="17.6404061">
        <ele>27.5349</ele>
        <time>2013-03-10T11:12:53Z</time>
      </trkpt>
      <trkpt lat="59.9012642" lon="17.6403916">
        <ele>27.5349</ele>
        <time>2013-03-10T11:12:54Z</time>
      </trkpt>
      <trkpt lat="59.9012526" lon="17.6403788">
        <ele>27.5349</ele>
        <time>2013-03-10T11:12:55Z</time>
      </trkpt>
      <trkpt lat="59.9012416" lon="17.6403676">
        <ele>27.5349</ele>
        <time>2013-03-10T11:12:56Z</time>
      </trkpt>
      <trkpt lat="59.9012308" lon="17.6403567">
        <ele>27.5349</ele>
        <time>2013-03-10T11:12:57Z</time>
      </trkpt>
      <trkpt lat="59.9012201" lon="17.640345">
        <ele>27.5349</ele>
        <time>2013-03-10T11:12:58Z</time>
      </trkpt>
      <trkpt lat="59.901208" lon="17.6403326">
        <ele>27.5349</ele>
        <time>2013-03-10T11:12:59Z</time>
      </trkpt>
      <trkpt lat="59.9011957" lon="17.6403207">
        <ele>27.5349</ele>
        <time>2013-03-10T11:13:00Z</time>
      </trkpt>
      <trkpt lat="59.9011831" lon="17.640309">
        <ele>27.0543</ele>
        <time>2013-03-10T11:13:01Z</time>
      </trkpt>
      <trkpt lat="59.9011703" lon="17.6402968">
        <ele>27.0543</ele>
        <time>2013-03-10T11:13:02Z</time>
      </trkpt>
      <trkpt lat="59.9011574" lon="17.6402828">
        <ele>27.0543</ele>
        <time>2013-03-10T11:13:03Z</time>
      </trkpt>
      <trkpt lat="59.9011444" lon="17.6402704">
        <ele>27.5349</ele>
        <time>2013-03-10T11:13:04Z</time>
      </trkpt>
      <trkpt lat="59.9011319" lon="17.640259">
        <ele>27.5349</ele>
        <time>2013-03-10T11:13:05Z</time>
      </trkpt>
      <trkpt lat="59.9011202" lon="17.6402488">
        <ele>27.5349</ele>
        <time>2013-03-10T11:13:06Z</time>
      </trkpt>
      <trkpt lat="59.9011085" lon="17.6402387">
        <ele>28.0155</ele>
        <time>2013-03-10T11:13:07Z</time>
      </trkpt>
      <trkpt lat="59.9010972" lon="17.6402287">
        <ele>28.0155</ele>
        <time>2013-03-10T11:13:08Z</time>
      </trkpt>
      <trkpt lat="59.901086" lon="17.6402211">
        <ele>28.4962</ele>
        <time>2013-03-10T11:13:09Z</time>
      </trkpt>
      <trkpt lat="59.9010734" lon="17.6402123">
        <ele>28.4962</ele>
        <time>2013-03-10T11:13:10Z</time>
      </trkpt>
      <trkpt lat="59.901061" lon="17.6402011">
        <ele>28.9769</ele>
        <time>2013-03-10T11:13:11Z</time>
      </trkpt>
      <trkpt lat="59.9010506" lon="17.6401899">
        <ele>28.9769</ele>
        <time>2013-03-10T11:13:12Z</time>
      </trkpt>
      <trkpt lat="59.9010393" lon="17.6401785">
        <ele>28.9769</ele>
        <time>2013-03-10T11:13:13Z</time>
      </trkpt>
      <trkpt lat="59.9010267" lon="17.6401678">
        <ele>29.4575</ele>
        <time>2013-03-10T11:13:14Z</time>
      </trkpt>
      <trkpt lat="59.9010149" lon="17.6401591">
        <ele>29.4575</ele>
        <time>2013-03-10T11:13:15Z</time>
      </trkpt>
      <trkpt lat="59.9010002" lon="17.6401466">
        <ele>29.4575</ele>
        <time>2013-03-10T11:13:16Z</time>
      </trkpt>
      <trkpt lat="59.9009853" lon="17.6401305">
        <ele>29.4575</ele>
        <time>2013-03-10T11:13:17Z</time>
      </trkpt>
      <trkpt lat="59.9009734" lon="17.640115">
        <ele>29.4575</ele>
        <time>2013-03-10T11:13:18Z</time>
      </trkpt>
      <trkpt lat="59.9009624" lon="17.6401024">
        <ele>29.4575</ele>
        <time>2013-03-10T11:13:19Z</time>
      </trkpt>
      <trkpt lat="59.9009519" lon="17.6400895">
        <ele>29.4575</ele>
        <time>2013-03-10T11:13:20Z</time>
      </trkpt>
      <trkpt lat="59.9009409" lon="17.6400751">
        <ele>29.4575</ele>
        <time>2013-03-10T11:13:21Z</time>
      </trkpt>
      <trkpt lat="59.9009329" lon="17.6400637">
        <ele>29.4575</ele>
        <time>2013-03-10T11:13:22Z</time>
      </trkpt>
      <trkpt lat="59.9009257" lon="17.6400547">
        <ele>29.4575</ele>
        <time>2013-03-10T11:13:23Z</time>
      </trkpt>
      <trkpt lat="59.9009151" lon="17.6400435">
        <ele>29.4575</ele>
        <time>2013-03-10T11:13:24Z</time>
      </trkpt>
      <trkpt lat="59.9009035" lon="17.6400314">
        <ele>29.4575</ele>
        <time>2013-03-10T11:13:25Z</time>
      </trkpt>
      <trkpt lat="59.9008911" lon="17.6400192">
        <ele>29.4575</ele>
        <time>2013-03-10T11:13:26Z</time>
      </trkpt>
      <trkpt lat="59.9008792" lon="17.6400055">
        <ele>29.9381</ele>
        <time>2013-03-10T11:13:27Z</time>
      </trkpt>
      <trkpt lat="59.9008673" lon="17.639991">
        <ele>29.9381</ele>
        <time>2013-03-10T11:13:28Z</time>
      </trkpt>
      <trkpt lat="59.9008552" lon="17.6399777">
        <ele>29.9381</ele>
        <time>2013-03-10T11:13:29Z</time>
      </trkpt>
      <trkpt lat="59.9008433" lon="17.6399641">
        <ele>29.9381</ele>
        <time>2013-03-10T11:13:30Z</time>
      </trkpt>
      <trkpt lat="59.9008316" lon="17.6399519">
        <ele>29.9381</ele>
        <time>2013-03-10T11:13:31Z</time>
      </trkpt>
      <trkpt lat="59.9008201" lon="17.6399393">
        <ele>29.9381</ele>
        <time>2013-03-10T11:13:32Z</time>
      </trkpt>
      <trkpt lat="59.9008068" lon="17.6399239">
        <ele>29.4575</ele>
        <time>2013-03-10T11:13:33Z</time>
      </trkpt>
      <trkpt lat="59.9007989" lon="17.6399141">
        <ele>29.4575</ele>
        <time>2013-03-10T11:13:34Z</time>
      </trkpt>
      <trkpt lat="59.9007896" lon="17.6399031">
        <ele>29.4575</ele>
        <time>2013-03-10T11:13:35Z</time>
      </trkpt>
      <trkpt lat="59.9007777" lon="17.6398916">
        <ele>29.4575</ele>
        <time>2013-03-10T11:13:36Z</time>
      </trkpt>
      <trkpt lat="59.9007658" lon="17.6398807">
        <ele>29.4575</ele>
        <time>2013-03-10T11:13:37Z</time>
      </trkpt>
      <trkpt lat="59.9007537" lon="17.6398701">
        <ele>29.4575</ele>
        <time>2013-03-10T11:13:38Z</time>
      </trkpt>
      <trkpt lat="59.9007465" lon="17.639867">
        <ele>29.9381</ele>
        <time>2013-03-10T11:13:39Z</time>
      </trkpt>
      <trkpt lat="59.9007395" lon="17.6398653">
        <ele>29.9381</ele>
        <time>2013-03-10T11:13:40Z</time>
      </trkpt>
      <trkpt lat="59.9007274" lon="17.6398568">
        <ele>30.4188</ele>
        <time>2013-03-10T11:13:41Z</time>
      </trkpt>
      <trkpt lat="59.9007118" lon="17.6398433">
        <ele>30.4188</ele>
        <time>2013-03-10T11:13:42Z</time>
      </trkpt>
      <trkpt lat="59.9006949" lon="17.6398305">
        <ele>30.4188</ele>
        <time>2013-03-10T11:13:43Z</time>
      </trkpt>
      <trkpt lat="59.9006809" lon="17.6398172">
        <ele>30.4188</ele>
        <time>2013-03-10T11:13:44Z</time>
      </trkpt>
      <trkpt lat="59.9006684" lon="17.6398046">
        <ele>30.4188</ele>
        <time>2013-03-10T11:13:45Z</time>
      </trkpt>
      <trkpt lat="59.9006539" lon="17.6397924">
        <ele>30.4188</ele>
        <time>2013-03-10T11:13:46Z</time>
      </trkpt>
      <trkpt lat="59.9006407" lon="17.6397794">
        <ele>30.4188</ele>
        <time>2013-03-10T11:13:47Z</time>
      </trkpt>
      <trkpt lat="59.9006268" lon="17.6397669">
        <ele>30.8995</ele>
        <time>2013-03-10T11:13:48Z</time>
      </trkpt>
      <trkpt lat="59.9006124" lon="17.6397535">
        <ele>30.8995</ele>
        <time>2013-03-10T11:13:49Z</time>
      </trkpt>
      <trkpt lat="59.900599" lon="17.6397392">
        <ele>30.8995</ele>
        <time>2013-03-10T11:13:50Z</time>
      </trkpt>
      <trkpt lat="59.9005872" lon="17.6397256">
        <ele>30.8995</ele>
        <time>2013-03-10T11:13:51Z</time>
      </trkpt>
      <trkpt lat="59.9005746" lon="17.6397105">
        <ele>30.8995</ele>
        <time>2013-03-10T11:13:52Z</time>
      </trkpt>
      <trkpt lat="59.9005612" lon="17.6396944">
        <ele>30.8995</ele>
        <time>2013-03-10T11:13:53Z</time>
      </trkpt>
      <trkpt lat="59.9005482" lon="17.6396788">
        <ele>30.8995</ele>
        <time>2013-03-10T11:13:54Z</time>
      </trkpt>
      <trkpt lat="59.9005359" lon="17.6396659">
        <ele>30.4188</ele>
        <time>2013-03-10T11:13:55Z</time>
      </trkpt>
      <trkpt lat="59.9005238" lon="17.6396532">
        <ele>30.4188</ele>
        <time>2013-03-10T11:13:56Z</time>
      </trkpt>
      <trkpt lat="59.9005123" lon="17.6396408">
        <ele>30.4188</ele>
        <time>2013-03-10T11:13:57Z</time>
      </trkpt>
      <trkpt lat="59.9005011" lon="17.6396285">
        <ele>30.4188</ele>
        <time>2013-03-10T11:13:58Z</time>
      </trkpt>
      <trkpt lat="59.9004886" lon="17.639616">
        <ele>30.4188</ele>
        <time>2013-03-10T11:13:59Z</time>
      </trkpt>
      <trkpt lat="59.900477" lon="17.6396018">
        <ele>30.4188</ele>
        <time>2013-03-10T11:14:00Z</time>
      </trkpt>
      <trkpt lat="59.9004659" lon="17.6395873">
        <ele>30.4188</ele>
        <time>2013-03-10T11:14:01Z</time>
      </trkpt>
      <trkpt lat="59.9004545" lon="17.6395741">
        <ele>30.4188</ele>
        <time>2013-03-10T11:14:02Z</time>
      </trkpt>
      <trkpt lat="59.9004418" lon="17.6395628">
        <ele>30.8995</ele>
        <time>2013-03-10T11:14:03Z</time>
      </trkpt>
      <trkpt lat="59.900428" lon="17.6395504">
        <ele>30.8995</ele>
        <time>2013-03-10T11:14:04Z</time>
      </trkpt>
      <trkpt lat="59.9004146" lon="17.6395359">
        <ele>30.8995</ele>
        <time>2013-03-10T11:14:05Z</time>
      </trkpt>
      <trkpt lat="59.9004017" lon="17.6395212">
        <ele>30.8995</ele>
        <time>2013-03-10T11:14:06Z</time>
      </trkpt>
      <trkpt lat="59.9003885" lon="17.6395072">
        <ele>30.8995</ele>
        <time>2013-03-10T11:14:07Z</time>
      </trkpt>
      <trkpt lat="59.9003758" lon="17.6394945">
        <ele>30.8995</ele>
        <time>2013-03-10T11:14:08Z</time>
      </trkpt>
      <trkpt lat="59.9003638" lon="17.6394835">
        <ele>31.3801</ele>
        <time>2013-03-10T11:14:09Z</time>
      </trkpt>
      <trkpt lat="59.9003509" lon="17.6394728">
        <ele>31.3801</ele>
        <time>2013-03-10T11:14:10Z</time>
      </trkpt>
      <trkpt lat="59.9003378" lon="17.6394595">
        <ele>31.3801</ele>
        <time>2013-03-10T11:14:11Z</time>
      </trkpt>
      <trkpt lat="59.9003239" lon="17.6394466">
        <ele>31.8607</ele>
        <time>2013-03-10T11:14:12Z</time>
      </trkpt>
      <trkpt lat="59.9003098" lon="17.6394352">
        <ele>32.3416</ele>
        <time>2013-03-10T11:14:13Z</time>
      </trkpt>
      <trkpt lat="59.9002943" lon="17.6394229">
        <ele>32.3416</ele>
        <time>2013-03-10T11:14:14Z</time>
      </trkpt>
      <trkpt lat="59.9002778" lon="17.6394085">
        <ele>32.3416</ele>
        <time>2013-03-10T11:14:15Z</time>
      </trkpt>
      <trkpt lat="59.9002619" lon="17.639395">
        <ele>32.8223</ele>
        <time>2013-03-10T11:14:16Z</time>
      </trkpt>
      <trkpt lat="59.9002466" lon="17.6393788">
        <ele>32.3416</ele>
        <time>2013-03-10T11:14:17Z</time>
      </trkpt>
      <trkpt lat="59.9002367" lon="17.6393668">
        <ele>32.3416</ele>
        <time>2013-03-10T11:14:18Z</time>
      </trkpt>
      <trkpt lat="59.9002269" lon="17.6393541">
        <ele>32.3416</ele>
        <time>2013-03-10T11:14:19Z</time>
      </trkpt>
      <trkpt lat="59.9002166" lon="17.6393402">
        <ele>32.3416</ele>
        <time>2013-03-10T11:14:20Z</time>
      </trkpt>
      <trkpt lat="59.9002043" lon="17.6393266">
        <ele>32.3416</ele>
        <time>2013-03-10T11:14:21Z</time>
      </trkpt>
      <trkpt lat="59.9001926" lon="17.6393136">
        <ele>32.3416</ele>
        <time>2013-03-10T11:14:22Z</time>
      </trkpt>
      <trkpt lat="59.9001816" lon="17.6393002">
        <ele>31.8607</ele>
        <time>2013-03-10T11:14:23Z</time>
      </trkpt>
      <trkpt lat="59.9001696" lon="17.6392883">
        <ele>32.3416</ele>
        <time>2013-03-10T11:14:24Z</time>
      </trkpt>
      <trkpt lat="59.9001566" lon="17.6392763">
        <ele>31.8607</ele>
        <time>2013-03-10T11:14:25Z</time>
      </trkpt>
      <trkpt lat="59.9001445" lon="17.6392655">
        <ele>32.3416</ele>
        <time>2013-03-10T11:14:26Z</time>
      </trkpt>
      <trkpt lat="59.9001365" lon="17.6392576">
        <ele>32.3416</ele>
        <time>2013-03-10T11:14:27Z</time>
      </trkpt>
      <trkpt lat="59.9001256" lon="17.6392472">
        <ele>31.8607</ele>
        <time>2013-03-10T11:14:28Z</time>
      </trkpt>
      <trkpt lat="59.9001094" lon="17.6392335">
        <ele>32.3416</ele>
        <time>2013-03-10T11:14:29Z</time>
      </trkpt>
      <trkpt lat="59.9000924" lon="17.6392179">
        <ele>32.3416</ele>
        <time>2013-03-10T11:14:30Z</time>
      </trkpt>
      <trkpt lat="59.9000767" lon="17.6392046">
        <ele>32.3416</ele>
        <time>2013-03-10T11:14:31Z</time>
      </trkpt>
      <trkpt lat="59.9000628" lon="17.6391923">
        <ele>32.3416</ele>
        <time>2013-03-10T11:14:32Z</time>
      </trkpt>
      <trkpt lat="59.9000463" lon="17.6391762">
        <ele>32.3416</ele>
        <time>2013-03-10T11:14:33Z</time>
      </trkpt>
      <trkpt lat="59.9000312" lon="17.6391601">
        <ele>32.3416</ele>
        <time>2013-03-10T11:14:34Z</time>
      </trkpt>
      <trkpt lat="59.9000183" lon="17.6391461">
        <ele>32.3416</ele>
        <time>2013-03-10T11:14:35Z</time>
      </trkpt>
      <trkpt lat="59.9000064" lon="17.6391338">
        <ele>31.8607</ele>
        <time>2013-03-10T11:14:36Z</time>
      </trkpt>
      <trkpt lat="59.8999965" lon="17.6391236">
        <ele>31.8607</ele>
        <time>2013-03-10T11:14:37Z</time>
      </trkpt>
      <trkpt lat="59.8999884" lon="17.6391132">
        <ele>31.8607</ele>
        <time>2013-03-10T11:14:38Z</time>
      </trkpt>
      <trkpt lat="59.8999801" lon="17.6391033">
        <ele>31.8607</ele>
        <time>2013-03-10T11:14:39Z</time>
      </trkpt>
      <trkpt lat="59.8999723" lon="17.6390946">
        <ele>31.3801</ele>
        <time>2013-03-10T11:14:40Z</time>
      </trkpt>
      <trkpt lat="59.8999639" lon="17.6390847">
        <ele>31.3801</ele>
        <time>2013-03-10T11:14:41Z</time>
      </trkpt>
      <trkpt lat="59.8999534" lon="17.6390749">
        <ele>31.3801</ele>
        <time>2013-03-10T11:14:42Z</time>
      </trkpt>
      <trkpt lat="59.8999411" lon="17.639065">
        <ele>31.3801</ele>
        <time>2013-03-10T11:14:43Z</time>
      </trkpt>
      <trkpt lat="59.8999287" lon="17.639052">
        <ele>31.3801</ele>
        <time>2013-03-10T11:14:44Z</time>
      </trkpt>
      <trkpt lat="59.8999162" lon="17.6390381">
        <ele>31.3801</ele>
        <time>2013-03-10T11:14:45Z</time>
      </trkpt>
      <trkpt lat="59.8999042" lon="17.6390229">
        <ele>31.3801</ele>
        <time>2013-03-10T11:14:46Z</time>
      </trkpt>
      <trkpt lat="59.8998922" lon="17.6390069">
        <ele>31.3801</ele>
        <time>2013-03-10T11:14:47Z</time>
      </trkpt>
      <trkpt lat="59.8998813" lon="17.638992">
        <ele>30.8995</ele>
        <time>2013-03-10T11:14:48Z</time>
      </trkpt>
      <trkpt lat="59.8998691" lon="17.6389795">
        <ele>30.8995</ele>
        <time>2013-03-10T11:14:49Z</time>
      </trkpt>
      <trkpt lat="59.8998567" lon="17.6389666">
        <ele>30.8995</ele>
        <time>2013-03-10T11:14:50Z</time>
      </trkpt>
      <trkpt lat="59.8998452" lon="17.6389515">
        <ele>30.8995</ele>
        <time>2013-03-10T11:14:51Z</time>
      </trkpt>
      <trkpt lat="59.8998331" lon="17.6389372">
        <ele>30.8995</ele>
        <time>2013-03-10T11:14:52Z</time>
      </trkpt>
      <trkpt lat="59.8998204" lon="17.6389246">
        <ele>30.8995</ele>
        <time>2013-03-10T11:14:53Z</time>
      </trkpt>
      <trkpt lat="59.8998085" lon="17.6389102">
        <ele>30.8995</ele>
        <time>2013-03-10T11:14:54Z</time>
      </trkpt>
      <trkpt lat="59.8997971" lon="17.6388956">
        <ele>30.8995</ele>
        <time>2013-03-10T11:14:55Z</time>
      </trkpt>
      <trkpt lat="59.8997857" lon="17.638881">
        <ele>30.4188</ele>
        <time>2013-03-10T11:14:56Z</time>
      </trkpt>
      <trkpt lat="59.8997732" lon="17.6388672">
        <ele>30.4188</ele>
        <time>2013-03-10T11:14:57Z</time>
      </trkpt>
      <trkpt lat="59.8997599" lon="17.6388545">
        <ele>30.8995</ele>
        <time>2013-03-10T11:14:58Z</time>
      </trkpt>
      <trkpt lat="59.8997469" lon="17.6388412">
        <ele>30.8995</ele>
        <time>2013-03-10T11:14:59Z</time>
      </trkpt>
      <trkpt lat="59.8997329" lon="17.6388271">
        <ele>30.8995</ele>
        <time>2013-03-10T11:15:00Z</time>
      </trkpt>
      <trkpt lat="59.8997188" lon="17.6388147">
        <ele>30.8995</ele>
        <time>2013-03-10T11:15:01Z</time>
      </trkpt>
      <trkpt lat="59.8997054" lon="17.6388032">
        <ele>30.8995</ele>
        <time>2013-03-10T11:15:02Z</time>
      </trkpt>
      <trkpt lat="59.899693" lon="17.6387894">
        <ele>31.3801</ele>
        <time>2013-03-10T11:15:03Z</time>
      </trkpt>
      <trkpt lat="59.8996811" lon="17.6387754">
        <ele>31.3801</ele>
        <time>2013-03-10T11:15:04Z</time>
      </trkpt>
      <trkpt lat="59.8996691" lon="17.6387626">
        <ele>31.3801</ele>
        <time>2013-03-10T11:15:05Z</time>
      </trkpt>
      <trkpt lat="59.8996572" lon="17.6387498">
        <ele>31.3801</ele>
        <time>2013-03-10T11:15:06Z</time>
      </trkpt>
      <trkpt lat="59.8996457" lon="17.6387381">
        <ele>31.3801</ele>
        <time>2013-03-10T11:15:07Z</time>
      </trkpt>
      <trkpt lat="59.8996339" lon="17.6387262">
        <ele>31.8607</ele>
        <time>2013-03-10T11:15:08Z</time>
      </trkpt>
      <trkpt lat="59.8996218" lon="17.6387143">
        <ele>31.8607</ele>
        <time>2013-03-10T11:15:09Z</time>
      </trkpt>
      <trkpt lat="59.8996107" lon="17.6387014">
        <ele>31.8607</ele>
        <time>2013-03-10T11:15:10Z</time>
      </trkpt>
      <trkpt lat="59.8996001" lon="17.6386905">
        <ele>31.8607</ele>
        <time>2013-03-10T11:15:11Z</time>
      </trkpt>
      <trkpt lat="59.8995892" lon="17.6386791">
        <ele>31.8607</ele>
        <time>2013-03-10T11:15:12Z</time>
      </trkpt>
      <trkpt lat="59.8995784" lon="17.6386693">
        <ele>31.8607</ele>
        <time>2013-03-10T11:15:13Z</time>
      </trkpt>
      <trkpt lat="59.8995679" lon="17.6386594">
        <ele>31.8607</ele>
        <time>2013-03-10T11:15:14Z</time>
      </trkpt>
      <trkpt lat="59.8995572" lon="17.6386481">
        <ele>31.8607</ele>
        <time>2013-03-10T11:15:15Z</time>
      </trkpt>
      <trkpt lat="59.8995465" lon="17.6386369">
        <ele>31.8607</ele>
        <time>2013-03-10T11:15:16Z</time>
      </trkpt>
      <trkpt lat="59.8995351" lon="17.6386246">
        <ele>31.8607</ele>
        <time>2013-03-10T11:15:17Z</time>
      </trkpt>
      <trkpt lat="59.899523" lon="17.6386141">
        <ele>31.8607</ele>
        <time>2013-03-10T11:15:18Z</time>
      </trkpt>
      <trkpt lat="59.899512" lon="17.6386028">
        <ele>31.3801</ele>
        <time>2013-03-10T11:15:19Z</time>
      </trkpt>
      <trkpt lat="59.8995019" lon="17.6385887">
        <ele>31.3801</ele>
        <time>2013-03-10T11:15:20Z</time>
      </trkpt>
      <trkpt lat="59.8994905" lon="17.6385749">
        <ele>30.8995</ele>
        <time>2013-03-10T11:15:21Z</time>
      </trkpt>
      <trkpt lat="59.8994785" lon="17.6385615">
        <ele>30.8995</ele>
        <time>2013-03-10T11:15:22Z</time>
      </trkpt>
      <trkpt lat="59.8994682" lon="17.6385504">
        <ele>30.8995</ele>
        <time>2013-03-10T11:15:23Z</time>
      </trkpt>
      <trkpt lat="59.8994557" lon="17.6385422">
        <ele>30.8995</ele>
        <time>2013-03-10T11:15:24Z</time>
      </trkpt>
      <trkpt lat="59.8994413" lon="17.6385318">
        <ele>30.4188</ele>
        <time>2013-03-10T11:15:25Z</time>
      </trkpt>
      <trkpt lat="59.8994312" lon="17.6385169">
        <ele>30.4188</ele>
        <time>2013-03-10T11:15:26Z</time>
      </trkpt>
      <trkpt lat="59.8994231" lon="17.6385071">
        <ele>30.4188</ele>
        <time>2013-03-10T11:15:27Z</time>
      </trkpt>
      <trkpt lat="59.8994123" lon="17.6384972">
        <ele>30.4188</ele>
        <time>2013-03-10T11:15:28Z</time>
      </trkpt>
      <trkpt lat="59.8994017" lon="17.6384843">
        <ele>30.4188</ele>
        <time>2013-03-10T11:15:29Z</time>
      </trkpt>
      <trkpt lat="59.8993928" lon="17.6384734">
        <ele>29.9381</ele>
        <time>2013-03-10T11:15:30Z</time>
      </trkpt>
      <trkpt lat="59.8993807" lon="17.6384631">
        <ele>29.9381</ele>
        <time>2013-03-10T11:15:31Z</time>
      </trkpt>
      <trkpt lat="59.8993659" lon="17.6384511">
        <ele>30.4188</ele>
        <time>2013-03-10T11:15:32Z</time>
      </trkpt>
      <trkpt lat="59.8993495" lon="17.6384397">
        <ele>29.9381</ele>
        <time>2013-03-10T11:15:33Z</time>
      </trkpt>
      <trkpt lat="59.8993371" lon="17.6384289">
        <ele>29.9381</ele>
        <time>2013-03-10T11:15:34Z</time>
      </trkpt>
      <trkpt lat="59.8993247" lon="17.6384174">
        <ele>29.9381</ele>
        <time>2013-03-10T11:15:35Z</time>
      </trkpt>
      <trkpt lat="59.8993125" lon="17.6384071">
        <ele>29.9381</ele>
        <time>2013-03-10T11:15:36Z</time>
      </trkpt>
      <trkpt lat="59.8992994" lon="17.6383957">
        <ele>29.9381</ele>
        <time>2013-03-10T11:15:37Z</time>
      </trkpt>
      <trkpt lat="59.8992872" lon="17.6383853">
        <ele>30.4188</ele>
        <time>2013-03-10T11:15:38Z</time>
      </trkpt>
      <trkpt lat="59.8992737" lon="17.6383765">
        <ele>30.4188</ele>
        <time>2013-03-10T11:15:39Z</time>
      </trkpt>
      <trkpt lat="59.8992594" lon="17.6383677">
        <ele>30.4188</ele>
        <time>2013-03-10T11:15:40Z</time>
      </trkpt>
      <trkpt lat="59.8992468" lon="17.6383575">
        <ele>30.8995</ele>
        <time>2013-03-10T11:15:41Z</time>
      </trkpt>
      <trkpt lat="59.8992357" lon="17.6383455">
        <ele>30.8995</ele>
        <time>2013-03-10T11:15:42Z</time>
      </trkpt>
      <trkpt lat="59.8992253" lon="17.6383337">
        <ele>30.8995</ele>
        <time>2013-03-10T11:15:43Z</time>
      </trkpt>
      <trkpt lat="59.8992143" lon="17.6383227">
        <ele>31.3801</ele>
        <time>2013-03-10T11:15:44Z</time>
      </trkpt>
      <trkpt lat="59.8992039" lon="17.6383112">
        <ele>31.3801</ele>
        <time>2013-03-10T11:15:45Z</time>
      </trkpt>
      <trkpt lat="59.8991936" lon="17.6383002">
        <ele>30.8995</ele>
        <time>2013-03-10T11:15:46Z</time>
      </trkpt>
      <trkpt lat="59.8991805" lon="17.6382896">
        <ele>31.3801</ele>
        <time>2013-03-10T11:15:47Z</time>
      </trkpt>
      <trkpt lat="59.8991615" lon="17.6382719">
        <ele>30.8995</ele>
        <time>2013-03-10T11:15:48Z</time>
      </trkpt>
      <trkpt lat="59.8991435" lon="17.6382547">
        <ele>30.8995</ele>
        <time>2013-03-10T11:15:49Z</time>
      </trkpt>
      <trkpt lat="59.8991293" lon="17.6382415">
        <ele>30.8995</ele>
        <time>2013-03-10T11:15:50Z</time>
      </trkpt>
      <trkpt lat="59.8991126" lon="17.6382269">
        <ele>30.4188</ele>
        <time>2013-03-10T11:15:51Z</time>
      </trkpt>
      <trkpt lat="59.8990963" lon="17.6382143">
        <ele>30.8995</ele>
        <time>2013-03-10T11:15:52Z</time>
      </trkpt>
      <trkpt lat="59.899082" lon="17.6382013">
        <ele>30.4188</ele>
        <time>2013-03-10T11:15:53Z</time>
      </trkpt>
      <trkpt lat="59.8990677" lon="17.6381875">
        <ele>30.4188</ele>
        <time>2013-03-10T11:15:54Z</time>
      </trkpt>
      <trkpt lat="59.8990553" lon="17.6381736">
        <ele>29.9381</ele>
        <time>2013-03-10T11:15:55Z</time>
      </trkpt>
      <trkpt lat="59.8990437" lon="17.638159">
        <ele>30.4188</ele>
        <time>2013-03-10T11:15:56Z</time>
      </trkpt>
      <trkpt lat="59.8990325" lon="17.6381475">
        <ele>30.4188</ele>
        <time>2013-03-10T11:15:57Z</time>
      </trkpt>
      <trkpt lat="59.8990204" lon="17.6381366">
        <ele>30.8995</ele>
        <time>2013-03-10T11:15:58Z</time>
      </trkpt>
      <trkpt lat="59.8990061" lon="17.6381231">
        <ele>30.8995</ele>
        <time>2013-03-10T11:15:59Z</time>
      </trkpt>
      <trkpt lat="59.8989941" lon="17.6381106">
        <ele>30.8995</ele>
        <time>2013-03-10T11:16:00Z</time>
      </trkpt>
      <trkpt lat="59.8989819" lon="17.6380989">
        <ele>31.3801</ele>
        <time>2013-03-10T11:16:01Z</time>
      </trkpt>
      <trkpt lat="59.8989693" lon="17.6380863">
        <ele>31.3801</ele>
        <time>2013-03-10T11:16:02Z</time>
      </trkpt>
      <trkpt lat="59.8989557" lon="17.6380715">
        <ele>31.3801</ele>
        <time>2013-03-10T11:16:03Z</time>
      </trkpt>
      <trkpt lat="59.8989428" lon="17.638058">
        <ele>31.8607</ele>
        <time>2013-03-10T11:16:04Z</time>
      </trkpt>
      <trkpt lat="59.8989299" lon="17.6380444">
        <ele>31.8607</ele>
        <time>2013-03-10T11:16:05Z</time>
      </trkpt>
      <trkpt lat="59.898917" lon="17.6380296">
        <ele>31.8607</ele>
        <time>2013-03-10T11:16:06Z</time>
      </trkpt>
      <trkpt lat="59.898906" lon="17.638016">
        <ele>32.3416</ele>
        <time>2013-03-10T11:16:07Z</time>
      </trkpt>
      <trkpt lat="59.8988961" lon="17.6380037">
        <ele>32.3416</ele>
        <time>2013-03-10T11:16:08Z</time>
      </trkpt>
      <trkpt lat="59.8988843" lon="17.6379917">
        <ele>32.3416</ele>
        <time>2013-03-10T11:16:09Z</time>
      </trkpt>
      <trkpt lat="59.8988724" lon="17.6379785">
        <ele>32.3416</ele>
        <time>2013-03-10T11:16:10Z</time>
      </trkpt>
      <trkpt lat="59.8988615" lon="17.6379661">
        <ele>32.8223</ele>
        <time>2013-03-10T11:16:11Z</time>
      </trkpt>
      <trkpt lat="59.8988491" lon="17.6379534">
        <ele>32.8223</ele>
        <time>2013-03-10T11:16:12Z</time>
      </trkpt>
      <trkpt lat="59.8988371" lon="17.6379414">
        <ele>32.8223</ele>
        <time>2013-03-10T11:16:13Z</time>
      </trkpt>
      <trkpt lat="59.8988258" lon="17.6379289">
        <ele>32.8223</ele>
        <time>2013-03-10T11:16:14Z</time>
      </trkpt>
      <trkpt lat="59.898815" lon="17.6379177">
        <ele>32.8223</ele>
        <time>2013-03-10T11:16:15Z</time>
      </trkpt>
      <trkpt lat="59.8988035" lon="17.6379083">
        <ele>33.3029</ele>
        <time>2013-03-10T11:16:16Z</time>
      </trkpt>
      <trkpt lat="59.8987916" lon="17.6378972">
        <ele>32.8223</ele>
        <time>2013-03-10T11:16:17Z</time>
      </trkpt>
      <trkpt lat="59.89878" lon="17.6378853">
        <ele>32.8223</ele>
        <time>2013-03-10T11:16:18Z</time>
      </trkpt>
      <trkpt lat="59.8987678" lon="17.6378735">
        <ele>33.3029</ele>
        <time>2013-03-10T11:16:19Z</time>
      </trkpt>
      <trkpt lat="59.8987555" lon="17.6378605">
        <ele>32.8223</ele>
        <time>2013-03-10T11:16:20Z</time>
      </trkpt>
      <trkpt lat="59.8987422" lon="17.6378476">
        <ele>32.8223</ele>
        <time>2013-03-10T11:16:21Z</time>
      </trkpt>
      <trkpt lat="59.8987299" lon="17.6378371">
        <ele>32.8223</ele>
        <time>2013-03-10T11:16:22Z</time>
      </trkpt>
      <trkpt lat="59.8987186" lon="17.6378241">
        <ele>32.8223</ele>
        <time>2013-03-10T11:16:23Z</time>
      </trkpt>
      <trkpt lat="59.8987073" lon="17.6378123">
        <ele>32.8223</ele>
        <time>2013-03-10T11:16:24Z</time>
      </trkpt>
      <trkpt lat="59.8986958" lon="17.6378027">
        <ele>32.8223</ele>
        <time>2013-03-10T11:16:25Z</time>
      </trkpt>
      <trkpt lat="59.8986816" lon="17.6377912">
        <ele>32.8223</ele>
        <time>2013-03-10T11:16:26Z</time>
      </trkpt>
      <trkpt lat="59.8986681" lon="17.6377794">
        <ele>32.8223</ele>
        <time>2013-03-10T11:16:27Z</time>
      </trkpt>
      <trkpt lat="59.8986549" lon="17.6377663">
        <ele>32.8223</ele>
        <time>2013-03-10T11:16:28Z</time>
      </trkpt>
      <trkpt lat="59.898642" lon="17.6377528">
        <ele>32.8223</ele>
        <time>2013-03-10T11:16:29Z</time>
      </trkpt>
      <trkpt lat="59.8986303" lon="17.6377378">
        <ele>32.8223</ele>
        <time>2013-03-10T11:16:30Z</time>
      </trkpt>
      <trkpt lat="59.898618" lon="17.6377233">
        <ele>32.8223</ele>
        <time>2013-03-10T11:16:31Z</time>
      </trkpt>
      <trkpt lat="59.8986067" lon="17.6377119">
        <ele>32.8223</ele>
        <time>2013-03-10T11:16:32Z</time>
      </trkpt>
      <trkpt lat="59.8985949" lon="17.6377033">
        <ele>32.8223</ele>
        <time>2013-03-10T11:16:33Z</time>
      </trkpt>
      <trkpt lat="59.898583" lon="17.6376955">
        <ele>32.8223</ele>
        <time>2013-03-10T11:16:34Z</time>
      </trkpt>
      <trkpt lat="59.8985692" lon="17.637689">
        <ele>32.8223</ele>
        <time>2013-03-10T11:16:35Z</time>
      </trkpt>
      <trkpt lat="59.8985578" lon="17.6376819">
        <ele>32.8223</ele>
        <time>2013-03-10T11:16:36Z</time>
      </trkpt>
      <trkpt lat="59.898545" lon="17.637673">
        <ele>32.8223</ele>
        <time>2013-03-10T11:16:37Z</time>
      </trkpt>
      <trkpt lat="59.8985314" lon="17.6376658">
        <ele>32.8223</ele>
        <time>2013-03-10T11:16:38Z</time>
      </trkpt>
      <trkpt lat="59.8985206" lon="17.6376574">
        <ele>32.8223</ele>
        <time>2013-03-10T11:16:39Z</time>
      </trkpt>
      <trkpt lat="59.8985091" lon="17.6376494">
        <ele>32.8223</ele>
        <time>2013-03-10T11:16:40Z</time>
      </trkpt>
      <trkpt lat="59.8984959" lon="17.6376435">
        <ele>32.8223</ele>
        <time>2013-03-10T11:16:41Z</time>
      </trkpt>
      <trkpt lat="59.8984828" lon="17.6376363">
        <ele>33.3029</ele>
        <time>2013-03-10T11:16:42Z</time>
      </trkpt>
      <trkpt lat="59.8984703" lon="17.637629">
        <ele>33.3029</ele>
        <time>2013-03-10T11:16:43Z</time>
      </trkpt>
      <trkpt lat="59.8984574" lon="17.6376204">
        <ele>33.3029</ele>
        <time>2013-03-10T11:16:44Z</time>
      </trkpt>
      <trkpt lat="59.8984441" lon="17.6376115">
        <ele>32.8223</ele>
        <time>2013-03-10T11:16:45Z</time>
      </trkpt>
      <trkpt lat="59.8984295" lon="17.6376017">
        <ele>32.8223</ele>
        <time>2013-03-10T11:16:46Z</time>
      </trkpt>
      <trkpt lat="59.8984156" lon="17.6375912">
        <ele>32.8223</ele>
        <time>2013-03-10T11:16:47Z</time>
      </trkpt>
      <trkpt lat="59.8984029" lon="17.6375804">
        <ele>32.8223</ele>
        <time>2013-03-10T11:16:48Z</time>
      </trkpt>
      <trkpt lat="59.89839" lon="17.6375674">
        <ele>32.8223</ele>
        <time>2013-03-10T11:16:49Z</time>
      </trkpt>
      <trkpt lat="59.898377" lon="17.6375549">
        <ele>32.8223</ele>
        <time>2013-03-10T11:16:50Z</time>
      </trkpt>
      <trkpt lat="59.8983652" lon="17.6375408">
        <ele>32.8223</ele>
        <time>2013-03-10T11:16:51Z</time>
      </trkpt>
      <trkpt lat="59.8983539" lon="17.637526">
        <ele>32.3416</ele>
        <time>2013-03-10T11:16:52Z</time>
      </trkpt>
      <trkpt lat="59.8983434" lon="17.6375128">
        <ele>32.3416</ele>
        <time>2013-03-10T11:16:53Z</time>
      </trkpt>
      <trkpt lat="59.8983326" lon="17.6375011">
        <ele>31.8607</ele>
        <time>2013-03-10T11:16:54Z</time>
      </trkpt>
      <trkpt lat="59.8983202" lon="17.6374906">
        <ele>31.8607</ele>
        <time>2013-03-10T11:16:55Z</time>
      </trkpt>
      <trkpt lat="59.8983076" lon="17.637479">
        <ele>31.8607</ele>
        <time>2013-03-10T11:16:56Z</time>
      </trkpt>
      <trkpt lat="59.8982954" lon="17.6374684">
        <ele>31.8607</ele>
        <time>2013-03-10T11:16:57Z</time>
      </trkpt>
      <trkpt lat="59.8982845" lon="17.637456">
        <ele>31.8607</ele>
        <time>2013-03-10T11:16:58Z</time>
      </trkpt>
      <trkpt lat="59.8982709" lon="17.6374406">
        <ele>31.8607</ele>
        <time>2013-03-10T11:16:59Z</time>
      </trkpt>
      <trkpt lat="59.8982595" lon="17.637427">
        <ele>31.8607</ele>
        <time>2013-03-10T11:17:00Z</time>
      </trkpt>
      <trkpt lat="59.8982476" lon="17.6374156">
        <ele>31.8607</ele>
        <time>2013-03-10T11:17:01Z</time>
      </trkpt>
      <trkpt lat="59.8982349" lon="17.6374053">
        <ele>31.3801</ele>
        <time>2013-03-10T11:17:02Z</time>
      </trkpt>
      <trkpt lat="59.8982224" lon="17.6373959">
        <ele>31.3801</ele>
        <time>2013-03-10T11:17:03Z</time>
      </trkpt>
      <trkpt lat="59.89821" lon="17.6373869">
        <ele>31.3801</ele>
        <time>2013-03-10T11:17:04Z</time>
      </trkpt>
      <trkpt lat="59.8981983" lon="17.6373779">
        <ele>31.3801</ele>
        <time>2013-03-10T11:17:05Z</time>
      </trkpt>
      <trkpt lat="59.8981871" lon="17.6373691">
        <ele>31.3801</ele>
        <time>2013-03-10T11:17:06Z</time>
      </trkpt>
      <trkpt lat="59.8981761" lon="17.6373597">
        <ele>31.3801</ele>
        <time>2013-03-10T11:17:07Z</time>
      </trkpt>
      <trkpt lat="59.898165" lon="17.6373522">
        <ele>31.3801</ele>
        <time>2013-03-10T11:17:08Z</time>
      </trkpt>
      <trkpt lat="59.8981541" lon="17.6373458">
        <ele>31.3801</ele>
        <time>2013-03-10T11:17:09Z</time>
      </trkpt>
      <trkpt lat="59.8981436" lon="17.6373401">
        <ele>31.3801</ele>
        <time>2013-03-10T11:17:10Z</time>
      </trkpt>
      <trkpt lat="59.8981328" lon="17.6373328">
        <ele>31.3801</ele>
        <time>2013-03-10T11:17:11Z</time>
      </trkpt>
      <trkpt lat="59.8981208" lon="17.6373246">
        <ele>31.3801</ele>
        <time>2013-03-10T11:17:12Z</time>
      </trkpt>
      <trkpt lat="59.8981074" lon="17.637316">
        <ele>31.3801</ele>
        <time>2013-03-10T11:17:13Z</time>
      </trkpt>
      <trkpt lat="59.8980949" lon="17.6373074">
        <ele>31.3801</ele>
        <time>2013-03-10T11:17:14Z</time>
      </trkpt>
      <trkpt lat="59.8980825" lon="17.6372992">
        <ele>31.3801</ele>
        <time>2013-03-10T11:17:15Z</time>
      </trkpt>
      <trkpt lat="59.8980711" lon="17.6372881">
        <ele>31.3801</ele>
        <time>2013-03-10T11:17:16Z</time>
      </trkpt>
      <trkpt lat="59.8980611" lon="17.6372772">
        <ele>31.3801</ele>
        <time>2013-03-10T11:17:17Z</time>
      </trkpt>
      <trkpt lat="59.8980514" lon="17.6372669">
        <ele>31.3801</ele>
        <time>2013-03-10T11:17:18Z</time>
      </trkpt>
      <trkpt lat="59.8980399" lon="17.6372566">
        <ele>31.3801</ele>
        <time>2013-03-10T11:17:19Z</time>
      </trkpt>
      <trkpt lat="59.8980279" lon="17.6372484">
        <ele>31.3801</ele>
        <time>2013-03-10T11:17:20Z</time>
      </trkpt>
      <trkpt lat="59.8980149" lon="17.63724">
        <ele>31.3801</ele>
        <time>2013-03-10T11:17:21Z</time>
      </trkpt>
      <trkpt lat="59.8980023" lon="17.6372292">
        <ele>31.3801</ele>
        <time>2013-03-10T11:17:22Z</time>
      </trkpt>
      <trkpt lat="59.8979896" lon="17.6372178">
        <ele>31.3801</ele>
        <time>2013-03-10T11:17:23Z</time>
      </trkpt>
      <trkpt lat="59.8979751" lon="17.637206">
        <ele>31.3801</ele>
        <time>2013-03-10T11:17:24Z</time>
      </trkpt>
      <trkpt lat="59.8979603" lon="17.6371948">
        <ele>31.3801</ele>
        <time>2013-03-10T11:17:25Z</time>
      </trkpt>
      <trkpt lat="59.8979464" lon="17.6371834">
        <ele>31.3801</ele>
        <time>2013-03-10T11:17:26Z</time>
      </trkpt>
      <trkpt lat="59.8979333" lon="17.6371723">
        <ele>31.3801</ele>
        <time>2013-03-10T11:17:27Z</time>
      </trkpt>
      <trkpt lat="59.8979213" lon="17.6371613">
        <ele>31.3801</ele>
        <time>2013-03-10T11:17:28Z</time>
      </trkpt>
      <trkpt lat="59.8979098" lon="17.6371488">
        <ele>31.3801</ele>
        <time>2013-03-10T11:17:29Z</time>
      </trkpt>
      <trkpt lat="59.8978981" lon="17.6371359">
        <ele>31.3801</ele>
        <time>2013-03-10T11:17:30Z</time>
      </trkpt>
      <trkpt lat="59.8978865" lon="17.6371261">
        <ele>31.8607</ele>
        <time>2013-03-10T11:17:31Z</time>
      </trkpt>
      <trkpt lat="59.8978752" lon="17.6371145">
        <ele>31.8607</ele>
        <time>2013-03-10T11:17:32Z</time>
      </trkpt>
      <trkpt lat="59.8978639" lon="17.6371034">
        <ele>31.8607</ele>
        <time>2013-03-10T11:17:33Z</time>
      </trkpt>
      <trkpt lat="59.897853" lon="17.6370908">
        <ele>31.8607</ele>
        <time>2013-03-10T11:17:34Z</time>
      </trkpt>
      <trkpt lat="59.8978417" lon="17.6370765">
        <ele>31.8607</ele>
        <time>2013-03-10T11:17:35Z</time>
      </trkpt>
      <trkpt lat="59.8978303" lon="17.6370581">
        <ele>31.3801</ele>
        <time>2013-03-10T11:17:36Z</time>
      </trkpt>
      <trkpt lat="59.8978176" lon="17.6370411">
        <ele>31.8607</ele>
        <time>2013-03-10T11:17:37Z</time>
      </trkpt>
      <trkpt lat="59.8978053" lon="17.6370266">
        <ele>31.8607</ele>
        <time>2013-03-10T11:17:38Z</time>
      </trkpt>
      <trkpt lat="59.8977945" lon="17.6370137">
        <ele>32.3416</ele>
        <time>2013-03-10T11:17:39Z</time>
      </trkpt>
      <trkpt lat="59.8977846" lon="17.6370013">
        <ele>32.8223</ele>
        <time>2013-03-10T11:17:40Z</time>
      </trkpt>
      <trkpt lat="59.8977751" lon="17.6369892">
        <ele>32.8223</ele>
        <time>2013-03-10T11:17:41Z</time>
      </trkpt>
      <trkpt lat="59.8977649" lon="17.6369732">
        <ele>32.8223</ele>
        <time>2013-03-10T11:17:42Z</time>
      </trkpt>
      <trkpt lat="59.8977539" lon="17.6369586">
        <ele>33.3029</ele>
        <time>2013-03-10T11:17:43Z</time>
      </trkpt>
      <trkpt lat="59.8977423" lon="17.6369425">
        <ele>33.3029</ele>
        <time>2013-03-10T11:17:44Z</time>
      </trkpt>
      <trkpt lat="59.8977311" lon="17.6369241">
        <ele>33.3029</ele>
        <time>2013-03-10T11:17:45Z</time>
      </trkpt>
      <trkpt lat="59.8977193" lon="17.6369049">
        <ele>33.3029</ele>
        <time>2013-03-10T11:17:46Z</time>
      </trkpt>
      <trkpt lat="59.8977074" lon="17.6368884">
        <ele>33.3029</ele>
        <time>2013-03-10T11:17:47Z</time>
      </trkpt>
      <trkpt lat="59.8976954" lon="17.6368724">
        <ele>33.3029</ele>
        <time>2013-03-10T11:17:48Z</time>
      </trkpt>
      <trkpt lat="59.8976837" lon="17.6368609">
        <ele>33.7834</ele>
        <time>2013-03-10T11:17:49Z</time>
      </trkpt>
      <trkpt lat="59.8976716" lon="17.6368522">
        <ele>33.7834</ele>
        <time>2013-03-10T11:17:50Z</time>
      </trkpt>
      <trkpt lat="59.8976592" lon="17.6368451">
        <ele>34.2642</ele>
        <time>2013-03-10T11:17:51Z</time>
      </trkpt>
      <trkpt lat="59.8976471" lon="17.636836">
        <ele>33.7834</ele>
        <time>2013-03-10T11:17:52Z</time>
      </trkpt>
      <trkpt lat="59.8976354" lon="17.6368299">
        <ele>33.7834</ele>
        <time>2013-03-10T11:17:53Z</time>
      </trkpt>
      <trkpt lat="59.897626" lon="17.6368259">
        <ele>33.7834</ele>
        <time>2013-03-10T11:17:54Z</time>
      </trkpt>
      <trkpt lat="59.8976156" lon="17.6368209">
        <ele>33.7834</ele>
        <time>2013-03-10T11:17:55Z</time>
      </trkpt>
      <trkpt lat="59.8976017" lon="17.6368138">
        <ele>34.2642</ele>
        <time>2013-03-10T11:17:56Z</time>
      </trkpt>
      <trkpt lat="59.8975899" lon="17.6368078">
        <ele>34.2642</ele>
        <time>2013-03-10T11:17:57Z</time>
      </trkpt>
      <trkpt lat="59.8975788" lon="17.6367996">
        <ele>34.2642</ele>
        <time>2013-03-10T11:17:58Z</time>
      </trkpt>
      <trkpt lat="59.8975656" lon="17.6367889">
        <ele>34.7449</ele>
        <time>2013-03-10T11:17:59Z</time>
      </trkpt>
      <trkpt lat="59.8975531" lon="17.636778">
        <ele>34.7449</ele>
        <time>2013-03-10T11:18:00Z</time>
      </trkpt>
      <trkpt lat="59.8975406" lon="17.6367671">
        <ele>34.7449</ele>
        <time>2013-03-10T11:18:01Z</time>
      </trkpt>
      <trkpt lat="59.8975276" lon="17.6367567">
        <ele>34.7449</ele>
        <time>2013-03-10T11:18:02Z</time>
      </trkpt>
      <trkpt lat="59.8975154" lon="17.6367453">
        <ele>34.7449</ele>
        <time>2013-03-10T11:18:03Z</time>
      </trkpt>
      <trkpt lat="59.897504" lon="17.6367313">
        <ele>34.7449</ele>
        <time>2013-03-10T11:18:04Z</time>
      </trkpt>
      <trkpt lat="59.8974917" lon="17.6367199">
        <ele>34.7449</ele>
        <time>2013-03-10T11:18:05Z</time>
      </trkpt>
      <trkpt lat="59.897479" lon="17.6367089">
        <ele>34.7449</ele>
        <time>2013-03-10T11:18:06Z</time>
      </trkpt>
      <trkpt lat="59.8974662" lon="17.6367013">
        <ele>34.7449</ele>
        <time>2013-03-10T11:18:07Z</time>
      </trkpt>
      <trkpt lat="59.8974515" lon="17.6366992">
        <ele>34.7449</ele>
        <time>2013-03-10T11:18:08Z</time>
      </trkpt>
      <trkpt lat="59.8974386" lon="17.6367024">
        <ele>35.2255</ele>
        <time>2013-03-10T11:18:09Z</time>
      </trkpt>
      <trkpt lat="59.8974254" lon="17.6367028">
        <ele>35.2255</ele>
        <time>2013-03-10T11:18:10Z</time>
      </trkpt>
      <trkpt lat="59.8974111" lon="17.6366986">
        <ele>35.2255</ele>
        <time>2013-03-10T11:18:11Z</time>
      </trkpt>
      <trkpt lat="59.8973966" lon="17.6366904">
        <ele>35.2255</ele>
        <time>2013-03-10T11:18:12Z</time>
      </trkpt>
      <trkpt lat="59.8973826" lon="17.6366847">
        <ele>35.2255</ele>
        <time>2013-03-10T11:18:13Z</time>
      </trkpt>
      <trkpt lat="59.8973687" lon="17.6366825">
        <ele>34.7449</ele>
        <time>2013-03-10T11:18:14Z</time>
      </trkpt>
      <trkpt lat="59.8973547" lon="17.6366827">
        <ele>34.7449</ele>
        <time>2013-03-10T11:18:15Z</time>
      </trkpt>
      <trkpt lat="59.8973397" lon="17.6366837">
        <ele>34.7449</ele>
        <time>2013-03-10T11:18:16Z</time>
      </trkpt>
      <trkpt lat="59.8973258" lon="17.6366885">
        <ele>34.7449</ele>
        <time>2013-03-10T11:18:17Z</time>
      </trkpt>
      <trkpt lat="59.8973117" lon="17.6366955">
        <ele>34.7449</ele>
        <time>2013-03-10T11:18:18Z</time>
      </trkpt>
      <trkpt lat="59.8973028" lon="17.6367055">
        <ele>34.7449</ele>
        <time>2013-03-10T11:18:19Z</time>
      </trkpt>
      <trkpt lat="59.8972913" lon="17.6367194">
        <ele>34.7449</ele>
        <time>2013-03-10T11:18:20Z</time>
      </trkpt>
      <trkpt lat="59.8972792" lon="17.6367345">
        <ele>34.7449</ele>
        <time>2013-03-10T11:18:21Z</time>
      </trkpt>
      <trkpt lat="59.8972681" lon="17.6367484">
        <ele>34.2642</ele>
        <time>2013-03-10T11:18:22Z</time>
      </trkpt>
      <trkpt lat="59.8972568" lon="17.636763">
        <ele>34.2642</ele>
        <time>2013-03-10T11:18:23Z</time>
      </trkpt>
      <trkpt lat="59.897246" lon="17.636778">
        <ele>34.2642</ele>
        <time>2013-03-10T11:18:24Z</time>
      </trkpt>
      <trkpt lat="59.8972339" lon="17.6367887">
        <ele>33.7834</ele>
        <time>2013-03-10T11:18:25Z</time>
      </trkpt>
      <trkpt lat="59.8972204" lon="17.636799">
        <ele>33.7834</ele>
        <time>2013-03-10T11:18:26Z</time>
      </trkpt>
      <trkpt lat="59.897206" lon="17.6368049">
        <ele>33.7834</ele>
        <time>2013-03-10T11:18:27Z</time>
      </trkpt>
      <trkpt lat="59.8971915" lon="17.6368088">
        <ele>33.7834</ele>
        <time>2013-03-10T11:18:28Z</time>
      </trkpt>
      <trkpt lat="59.8971774" lon="17.6368143">
        <ele>33.7834</ele>
        <time>2013-03-10T11:18:29Z</time>
      </trkpt>
      <trkpt lat="59.8971626" lon="17.6368148">
        <ele>33.3029</ele>
        <time>2013-03-10T11:18:30Z</time>
      </trkpt>
      <trkpt lat="59.8971467" lon="17.6368107">
        <ele>33.3029</ele>
        <time>2013-03-10T11:18:31Z</time>
      </trkpt>
      <trkpt lat="59.8971318" lon="17.6368058">
        <ele>33.3029</ele>
        <time>2013-03-10T11:18:32Z</time>
      </trkpt>
      <trkpt lat="59.8971194" lon="17.6368055">
        <ele>33.3029</ele>
        <time>2013-03-10T11:18:33Z</time>
      </trkpt>
      <trkpt lat="59.8971081" lon="17.6368044">
        <ele>33.3029</ele>
        <time>2013-03-10T11:18:34Z</time>
      </trkpt>
      <trkpt lat="59.8970956" lon="17.6367956">
        <ele>32.8223</ele>
        <time>2013-03-10T11:18:35Z</time>
      </trkpt>
      <trkpt lat="59.8970812" lon="17.6367878">
        <ele>32.8223</ele>
        <time>2013-03-10T11:18:36Z</time>
      </trkpt>
      <trkpt lat="59.8970675" lon="17.636782">
        <ele>32.8223</ele>
        <time>2013-03-10T11:18:37Z</time>
      </trkpt>
      <trkpt lat="59.8970538" lon="17.6367816">
        <ele>32.8223</ele>
        <time>2013-03-10T11:18:38Z</time>
      </trkpt>
      <trkpt lat="59.8970443" lon="17.6367807">
        <ele>32.8223</ele>
        <time>2013-03-10T11:18:39Z</time>
      </trkpt>
      <trkpt lat="59.8970343" lon="17.6367852">
        <ele>32.8223</ele>
        <time>2013-03-10T11:18:40Z</time>
      </trkpt>
      <trkpt lat="59.8970226" lon="17.6367946">
        <ele>32.8223</ele>
        <time>2013-03-10T11:18:41Z</time>
      </trkpt>
      <trkpt lat="59.8970112" lon="17.6368063">
        <ele>32.8223</ele>
        <time>2013-03-10T11:18:42Z</time>
      </trkpt>
      <trkpt lat="59.8969989" lon="17.6368205">
        <ele>32.8223</ele>
        <time>2013-03-10T11:18:43Z</time>
      </trkpt>
      <trkpt lat="59.8969863" lon="17.6368324">
        <ele>32.8223</ele>
        <time>2013-03-10T11:18:44Z</time>
      </trkpt>
      <trkpt lat="59.896973" lon="17.636841">
        <ele>32.3416</ele>
        <time>2013-03-10T11:18:45Z</time>
      </trkpt>
      <trkpt lat="59.8969589" lon="17.6368504">
        <ele>32.3416</ele>
        <time>2013-03-10T11:18:46Z</time>
      </trkpt>
      <trkpt lat="59.8969448" lon="17.6368614">
        <ele>32.3416</ele>
        <time>2013-03-10T11:18:47Z</time>
      </trkpt>
      <trkpt lat="59.8969324" lon="17.6368701">
        <ele>32.8223</ele>
        <time>2013-03-10T11:18:48Z</time>
      </trkpt>
      <trkpt lat="59.8969186" lon="17.6368789">
        <ele>32.8223</ele>
        <time>2013-03-10T11:18:49Z</time>
      </trkpt>
      <trkpt lat="59.8969035" lon="17.6368908">
        <ele>33.7834</ele>
        <time>2013-03-10T11:18:50Z</time>
      </trkpt>
      <trkpt lat="59.8968885" lon="17.6368982">
        <ele>34.7449</ele>
        <time>2013-03-10T11:18:51Z</time>
      </trkpt>
      <trkpt lat="59.8968732" lon="17.6369036">
        <ele>35.2255</ele>
        <time>2013-03-10T11:18:52Z</time>
      </trkpt>
      <trkpt lat="59.89686" lon="17.6369023">
        <ele>34.7449</ele>
        <time>2013-03-10T11:18:53Z</time>
      </trkpt>
      <trkpt lat="59.8968474" lon="17.6369009">
        <ele>35.2255</ele>
        <time>2013-03-10T11:18:54Z</time>
      </trkpt>
      <trkpt lat="59.8968342" lon="17.6368961">
        <ele>35.2255</ele>
        <time>2013-03-10T11:18:55Z</time>
      </trkpt>
      <trkpt lat="59.8968211" lon="17.6368922">
        <ele>35.2255</ele>
        <time>2013-03-10T11:18:56Z</time>
      </trkpt>
      <trkpt lat="59.8968078" lon="17.636892">
        <ele>35.7061</ele>
        <time>2013-03-10T11:18:57Z</time>
      </trkpt>
      <trkpt lat="59.8967937" lon="17.6368872">
        <ele>36.1868</ele>
        <time>2013-03-10T11:18:58Z</time>
      </trkpt>
      <trkpt lat="59.8967822" lon="17.6368821">
        <ele>36.1868</ele>
        <time>2013-03-10T11:18:59Z</time>
      </trkpt>
      <trkpt lat="59.8967714" lon="17.63688">
        <ele>36.1868</ele>
        <time>2013-03-10T11:19:00Z</time>
      </trkpt>
      <trkpt lat="59.8967595" lon="17.6368757">
        <ele>36.1868</ele>
        <time>2013-03-10T11:19:01Z</time>
      </trkpt>
      <trkpt lat="59.8967475" lon="17.6368711">
        <ele>36.1868</ele>
        <time>2013-03-10T11:19:02Z</time>
      </trkpt>
      <trkpt lat="59.8967344" lon="17.636864">
        <ele>36.1868</ele>
        <time>2013-03-10T11:19:03Z</time>
      </trkpt>
      <trkpt lat="59.8967207" lon="17.6368561">
        <ele>36.1868</ele>
        <time>2013-03-10T11:19:04Z</time>
      </trkpt>
      <trkpt lat="59.8967076" lon="17.636851">
        <ele>36.1868</ele>
        <time>2013-03-10T11:19:05Z</time>
      </trkpt>
      <trkpt lat="59.8966953" lon="17.6368464">
        <ele>36.1868</ele>
        <time>2013-03-10T11:19:06Z</time>
      </trkpt>
      <trkpt lat="59.8966843" lon="17.6368407">
        <ele>36.1868</ele>
        <time>2013-03-10T11:19:07Z</time>
      </trkpt>
      <trkpt lat="59.8966731" lon="17.6368324">
        <ele>36.1868</ele>
        <time>2013-03-10T11:19:08Z</time>
      </trkpt>
      <trkpt lat="59.8966611" lon="17.6368257">
        <ele>36.1868</ele>
        <time>2013-03-10T11:19:09Z</time>
      </trkpt>
      <trkpt lat="59.8966451" lon="17.6368168">
        <ele>36.1868</ele>
        <time>2013-03-10T11:19:10Z</time>
      </trkpt>
      <trkpt lat="59.8966315" lon="17.6368096">
        <ele>36.1868</ele>
        <time>2013-03-10T11:19:11Z</time>
      </trkpt>
      <trkpt lat="59.8966196" lon="17.6368059">
        <ele>36.1868</ele>
        <time>2013-03-10T11:19:12Z</time>
      </trkpt>
      <trkpt lat="59.8966071" lon="17.6368011">
        <ele>36.1868</ele>
        <time>2013-03-10T11:19:13Z</time>
      </trkpt>
      <trkpt lat="59.8965954" lon="17.6367928">
        <ele>36.1868</ele>
        <time>2013-03-10T11:19:14Z</time>
      </trkpt>
      <trkpt lat="59.8965839" lon="17.6367838">
        <ele>36.1868</ele>
        <time>2013-03-10T11:19:15Z</time>
      </trkpt>
      <trkpt lat="59.8965715" lon="17.6367772">
        <ele>36.1868</ele>
        <time>2013-03-10T11:19:16Z</time>
      </trkpt>
      <trkpt lat="59.8965576" lon="17.6367737">
        <ele>36.1868</ele>
        <time>2013-03-10T11:19:17Z</time>
      </trkpt>
      <trkpt lat="59.8965446" lon="17.636768">
        <ele>36.1868</ele>
        <time>2013-03-10T11:19:18Z</time>
      </trkpt>
      <trkpt lat="59.8965317" lon="17.6367604">
        <ele>36.1868</ele>
        <time>2013-03-10T11:19:19Z</time>
      </trkpt>
      <trkpt lat="59.8965176" lon="17.6367526">
        <ele>36.1868</ele>
        <time>2013-03-10T11:19:20Z</time>
      </trkpt>
      <trkpt lat="59.8965018" lon="17.6367444">
        <ele>36.1868</ele>
        <time>2013-03-10T11:19:21Z</time>
      </trkpt>
      <trkpt lat="59.8964871" lon="17.6367372">
        <ele>36.1868</ele>
        <time>2013-03-10T11:19:22Z</time>
      </trkpt>
      <trkpt lat="59.896472" lon="17.6367302">
        <ele>36.1868</ele>
        <time>2013-03-10T11:19:23Z</time>
      </trkpt>
      <trkpt lat="59.8964555" lon="17.6367221">
        <ele>36.1868</ele>
        <time>2013-03-10T11:19:24Z</time>
      </trkpt>
      <trkpt lat="59.8964405" lon="17.6367151">
        <ele>36.1868</ele>
        <time>2013-03-10T11:19:25Z</time>
      </trkpt>
      <trkpt lat="59.8964257" lon="17.636711">
        <ele>36.1868</ele>
        <time>2013-03-10T11:19:26Z</time>
      </trkpt>
      <trkpt lat="59.8964117" lon="17.6367081">
        <ele>36.6675</ele>
        <time>2013-03-10T11:19:27Z</time>
      </trkpt>
      <trkpt lat="59.8963988" lon="17.6367038">
        <ele>36.6675</ele>
        <time>2013-03-10T11:19:28Z</time>
      </trkpt>
      <trkpt lat="59.896387" lon="17.6366993">
        <ele>36.6675</ele>
        <time>2013-03-10T11:19:29Z</time>
      </trkpt>
      <trkpt lat="59.8963756" lon="17.6366918">
        <ele>36.1868</ele>
        <time>2013-03-10T11:19:30Z</time>
      </trkpt>
      <trkpt lat="59.8963641" lon="17.6366837">
        <ele>36.1868</ele>
        <time>2013-03-10T11:19:31Z</time>
      </trkpt>
      <trkpt lat="59.8963481" lon="17.6366743">
        <ele>36.1868</ele>
        <time>2013-03-10T11:19:32Z</time>
      </trkpt>
      <trkpt lat="59.8963347" lon="17.6366711">
        <ele>36.1868</ele>
        <time>2013-03-10T11:19:33Z</time>
      </trkpt>
      <trkpt lat="59.8963238" lon="17.6366737">
        <ele>36.6675</ele>
        <time>2013-03-10T11:19:34Z</time>
      </trkpt>
      <trkpt lat="59.8963117" lon="17.6366717">
        <ele>36.6675</ele>
        <time>2013-03-10T11:19:35Z</time>
      </trkpt>
      <trkpt lat="59.8963004" lon="17.6366682">
        <ele>36.6675</ele>
        <time>2013-03-10T11:19:36Z</time>
      </trkpt>
      <trkpt lat="59.8962871" lon="17.6366623">
        <ele>36.6675</ele>
        <time>2013-03-10T11:19:37Z</time>
      </trkpt>
      <trkpt lat="59.8962716" lon="17.6366573">
        <ele>36.1868</ele>
        <time>2013-03-10T11:19:38Z</time>
      </trkpt>
      <trkpt lat="59.8962581" lon="17.636652">
        <ele>36.6675</ele>
        <time>2013-03-10T11:19:39Z</time>
      </trkpt>
      <trkpt lat="59.8962442" lon="17.6366484">
        <ele>36.6675</ele>
        <time>2013-03-10T11:19:40Z</time>
      </trkpt>
      <trkpt lat="59.8962305" lon="17.6366447">
        <ele>36.6675</ele>
        <time>2013-03-10T11:19:41Z</time>
      </trkpt>
      <trkpt lat="59.8962193" lon="17.6366402">
        <ele>36.1868</ele>
        <time>2013-03-10T11:19:42Z</time>
      </trkpt>
      <trkpt lat="59.8962073" lon="17.6366367">
        <ele>36.1868</ele>
        <time>2013-03-10T11:19:43Z</time>
      </trkpt>
      <trkpt lat="59.8961954" lon="17.6366328">
        <ele>36.1868</ele>
        <time>2013-03-10T11:19:44Z</time>
      </trkpt>
      <trkpt lat="59.8961834" lon="17.6366288">
        <ele>36.1868</ele>
        <time>2013-03-10T11:19:45Z</time>
      </trkpt>
      <trkpt lat="59.8961717" lon="17.6366245">
        <ele>36.1868</ele>
        <time>2013-03-10T11:19:46Z</time>
      </trkpt>
      <trkpt lat="59.8961595" lon="17.6366201">
        <ele>36.1868</ele>
        <time>2013-03-10T11:19:47Z</time>
      </trkpt>
      <trkpt lat="59.8961467" lon="17.6366162">
        <ele>36.1868</ele>
        <time>2013-03-10T11:19:48Z</time>
      </trkpt>
      <trkpt lat="59.8961353" lon="17.6366136">
        <ele>36.1868</ele>
        <time>2013-03-10T11:19:49Z</time>
      </trkpt>
      <trkpt lat="59.8961243" lon="17.6366069">
        <ele>35.7061</ele>
        <time>2013-03-10T11:19:50Z</time>
      </trkpt>
      <trkpt lat="59.8961124" lon="17.6366002">
        <ele>35.7061</ele>
        <time>2013-03-10T11:19:51Z</time>
      </trkpt>
      <trkpt lat="59.8961025" lon="17.6365978">
        <ele>35.7061</ele>
        <time>2013-03-10T11:19:52Z</time>
      </trkpt>
      <trkpt lat="59.8960902" lon="17.6365949">
        <ele>35.7061</ele>
        <time>2013-03-10T11:19:53Z</time>
      </trkpt>
      <trkpt lat="59.8960776" lon="17.6365959">
        <ele>35.7061</ele>
        <time>2013-03-10T11:19:54Z</time>
      </trkpt>
      <trkpt lat="59.8960646" lon="17.6366009">
        <ele>36.1868</ele>
        <time>2013-03-10T11:19:55Z</time>
      </trkpt>
      <trkpt lat="59.8960498" lon="17.6366002">
        <ele>36.1868</ele>
        <time>2013-03-10T11:19:56Z</time>
      </trkpt>
      <trkpt lat="59.8960349" lon="17.6365966">
        <ele>36.6675</ele>
        <time>2013-03-10T11:19:57Z</time>
      </trkpt>
      <trkpt lat="59.896022" lon="17.636593">
        <ele>36.6675</ele>
        <time>2013-03-10T11:19:58Z</time>
      </trkpt>
      <trkpt lat="59.8960103" lon="17.6365858">
        <ele>36.6675</ele>
        <time>2013-03-10T11:19:59Z</time>
      </trkpt>
      <trkpt lat="59.896003" lon="17.6365832">
        <ele>36.6675</ele>
        <time>2013-03-10T11:20:00Z</time>
      </trkpt>
      <trkpt lat="59.8959963" lon="17.6365857">
        <ele>36.6675</ele>
        <time>2013-03-10T11:20:01Z</time>
      </trkpt>
      <trkpt lat="59.8959882" lon="17.6365897">
        <ele>36.6675</ele>
        <time>2013-03-10T11:20:02Z</time>
      </trkpt>
      <trkpt lat="59.8959798" lon="17.6365968">
        <ele>37.1481</ele>
        <time>2013-03-10T11:20:03Z</time>
      </trkpt>
      <trkpt lat="59.8959711" lon="17.6366001">
        <ele>37.1481</ele>
        <time>2013-03-10T11:20:04Z</time>
      </trkpt>
      <trkpt lat="59.8959554" lon="17.6365982">
        <ele>37.1481</ele>
        <time>2013-03-10T11:20:05Z</time>
      </trkpt>
      <trkpt lat="59.8959408" lon="17.6365972">
        <ele>36.6675</ele>
        <time>2013-03-10T11:20:06Z</time>
      </trkpt>
      <trkpt lat="59.895926" lon="17.6365987">
        <ele>36.6675</ele>
        <time>2013-03-10T11:20:07Z</time>
      </trkpt>
      <trkpt lat="59.8959121" lon="17.6365992">
        <ele>36.6675</ele>
        <time>2013-03-10T11:20:08Z</time>
      </trkpt>
      <trkpt lat="59.8959" lon="17.6365977">
        <ele>36.6675</ele>
        <time>2013-03-10T11:20:09Z</time>
      </trkpt>
      <trkpt lat="59.8958887" lon="17.6365956">
        <ele>36.1868</ele>
        <time>2013-03-10T11:20:10Z</time>
      </trkpt>
      <trkpt lat="59.8958758" lon="17.6365911">
        <ele>35.7061</ele>
        <time>2013-03-10T11:20:11Z</time>
      </trkpt>
      <trkpt lat="59.8958624" lon="17.6365892">
        <ele>35.7061</ele>
        <time>2013-03-10T11:20:12Z</time>
      </trkpt>
      <trkpt lat="59.8958497" lon="17.6365897">
        <ele>35.2255</ele>
        <time>2013-03-10T11:20:13Z</time>
      </trkpt>
      <trkpt lat="59.8958368" lon="17.63659">
        <ele>35.2255</ele>
        <time>2013-03-10T11:20:14Z</time>
      </trkpt>
      <trkpt lat="59.8958245" lon="17.6365966">
        <ele>35.2255</ele>
        <time>2013-03-10T11:20:15Z</time>
      </trkpt>
      <trkpt lat="59.8958172" lon="17.6365971">
        <ele>34.7449</ele>
        <time>2013-03-10T11:20:16Z</time>
      </trkpt>
      <trkpt lat="59.8958088" lon="17.6365987">
        <ele>34.7449</ele>
        <time>2013-03-10T11:20:17Z</time>
      </trkpt>
      <trkpt lat="59.8957954" lon="17.6366055">
        <ele>34.2642</ele>
        <time>2013-03-10T11:20:18Z</time>
      </trkpt>
      <trkpt lat="59.8957802" lon="17.6366094">
        <ele>34.2642</ele>
        <time>2013-03-10T11:20:19Z</time>
      </trkpt>
      <trkpt lat="59.8957649" lon="17.6366168">
        <ele>34.7449</ele>
        <time>2013-03-10T11:20:20Z</time>
      </trkpt>
      <trkpt lat="59.8957517" lon="17.6366231">
        <ele>35.2255</ele>
        <time>2013-03-10T11:20:21Z</time>
      </trkpt>
      <trkpt lat="59.8957301" lon="17.6366236">
        <ele>35.2255</ele>
        <time>2013-03-10T11:20:22Z</time>
      </trkpt>
      <trkpt lat="59.89571" lon="17.6366297">
        <ele>35.2255</ele>
        <time>2013-03-10T11:20:23Z</time>
      </trkpt>
      <trkpt lat="59.8956981" lon="17.6366402">
        <ele>34.7449</ele>
        <time>2013-03-10T11:20:24Z</time>
      </trkpt>
      <trkpt lat="59.8956865" lon="17.6366479">
        <ele>35.2255</ele>
        <time>2013-03-10T11:20:25Z</time>
      </trkpt>
      <trkpt lat="59.8956727" lon="17.6366531">
        <ele>35.2255</ele>
        <time>2013-03-10T11:20:26Z</time>
      </trkpt>
      <trkpt lat="59.8956581" lon="17.6366617">
        <ele>35.7061</ele>
        <time>2013-03-10T11:20:27Z</time>
      </trkpt>
      <trkpt lat="59.8956435" lon="17.6366718">
        <ele>35.7061</ele>
        <time>2013-03-10T11:20:28Z</time>
      </trkpt>
      <trkpt lat="59.8956298" lon="17.6366807">
        <ele>35.7061</ele>
        <time>2013-03-10T11:20:29Z</time>
      </trkpt>
      <trkpt lat="59.8956155" lon="17.6366862">
        <ele>35.7061</ele>
        <time>2013-03-10T11:20:30Z</time>
      </trkpt>
      <trkpt lat="59.8955996" lon="17.6366904">
        <ele>35.7061</ele>
        <time>2013-03-10T11:20:31Z</time>
      </trkpt>
      <trkpt lat="59.8955862" lon="17.6366955">
        <ele>35.7061</ele>
        <time>2013-03-10T11:20:32Z</time>
      </trkpt>
      <trkpt lat="59.8955643" lon="17.6366982">
        <ele>35.2255</ele>
        <time>2013-03-10T11:20:33Z</time>
      </trkpt>
      <trkpt lat="59.8955445" lon="17.6367029">
        <ele>35.2255</ele>
        <time>2013-03-10T11:20:34Z</time>
      </trkpt>
      <trkpt lat="59.8955255" lon="17.6367121">
        <ele>35.2255</ele>
        <time>2013-03-10T11:20:35Z</time>
      </trkpt>
      <trkpt lat="59.8955079" lon="17.6367226">
        <ele>34.7449</ele>
        <time>2013-03-10T11:20:36Z</time>
      </trkpt>
      <trkpt lat="59.8954886" lon="17.6367313">
        <ele>34.7449</ele>
        <time>2013-03-10T11:20:37Z</time>
      </trkpt>
      <trkpt lat="59.8954712" lon="17.6367366">
        <ele>34.2642</ele>
        <time>2013-03-10T11:20:38Z</time>
      </trkpt>
      <trkpt lat="59.8954542" lon="17.636742">
        <ele>34.7449</ele>
        <time>2013-03-10T11:20:39Z</time>
      </trkpt>
      <trkpt lat="59.8954435" lon="17.6367467">
        <ele>34.7449</ele>
        <time>2013-03-10T11:20:40Z</time>
      </trkpt>
      <trkpt lat="59.8954308" lon="17.6367505">
        <ele>34.2642</ele>
        <time>2013-03-10T11:20:41Z</time>
      </trkpt>
      <trkpt lat="59.8954183" lon="17.6367573">
        <ele>33.7834</ele>
        <time>2013-03-10T11:20:42Z</time>
      </trkpt>
      <trkpt lat="59.8954059" lon="17.636765">
        <ele>33.7834</ele>
        <time>2013-03-10T11:20:43Z</time>
      </trkpt>
      <trkpt lat="59.8953894" lon="17.6367707">
        <ele>33.3029</ele>
        <time>2013-03-10T11:20:44Z</time>
      </trkpt>
      <trkpt lat="59.8953764" lon="17.6367754">
        <ele>33.3029</ele>
        <time>2013-03-10T11:20:45Z</time>
      </trkpt>
      <trkpt lat="59.895365" lon="17.6367807">
        <ele>33.3029</ele>
        <time>2013-03-10T11:20:46Z</time>
      </trkpt>
      <trkpt lat="59.8953539" lon="17.6367931">
        <ele>33.3029</ele>
        <time>2013-03-10T11:20:47Z</time>
      </trkpt>
      <trkpt lat="59.8953416" lon="17.6368084">
        <ele>33.7834</ele>
        <time>2013-03-10T11:20:48Z</time>
      </trkpt>
      <trkpt lat="59.8953301" lon="17.6368215">
        <ele>33.7834</ele>
        <time>2013-03-10T11:20:49Z</time>
      </trkpt>
      <trkpt lat="59.8953194" lon="17.6368368">
        <ele>33.7834</ele>
        <time>2013-03-10T11:20:50Z</time>
      </trkpt>
      <trkpt lat="59.8953083" lon="17.6368485">
        <ele>33.7834</ele>
        <time>2013-03-10T11:20:51Z</time>
      </trkpt>
      <trkpt lat="59.895296" lon="17.6368593">
        <ele>33.7834</ele>
        <time>2013-03-10T11:20:52Z</time>
      </trkpt>
      <trkpt lat="59.8952838" lon="17.6368663">
        <ele>33.7834</ele>
        <time>2013-03-10T11:20:53Z</time>
      </trkpt>
      <trkpt lat="59.8952685" lon="17.6368785">
        <ele>33.3029</ele>
        <time>2013-03-10T11:20:54Z</time>
      </trkpt>
      <trkpt lat="59.8952541" lon="17.6368895">
        <ele>33.7834</ele>
        <time>2013-03-10T11:20:55Z</time>
      </trkpt>
      <trkpt lat="59.8952428" lon="17.6369">
        <ele>33.7834</ele>
        <time>2013-03-10T11:20:56Z</time>
      </trkpt>
      <trkpt lat="59.8952308" lon="17.6369106">
        <ele>33.3029</ele>
        <time>2013-03-10T11:20:57Z</time>
      </trkpt>
      <trkpt lat="59.8952182" lon="17.636923">
        <ele>33.7834</ele>
        <time>2013-03-10T11:20:58Z</time>
      </trkpt>
      <trkpt lat="59.8952055" lon="17.6369337">
        <ele>33.7834</ele>
        <time>2013-03-10T11:20:59Z</time>
      </trkpt>
      <trkpt lat="59.8951939" lon="17.6369431">
        <ele>33.3029</ele>
        <time>2013-03-10T11:21:00Z</time>
      </trkpt>
      <trkpt lat="59.8951802" lon="17.6369525">
        <ele>33.3029</ele>
        <time>2013-03-10T11:21:01Z</time>
      </trkpt>
      <trkpt lat="59.8951676" lon="17.6369606">
        <ele>33.3029</ele>
        <time>2013-03-10T11:21:02Z</time>
      </trkpt>
      <trkpt lat="59.8951561" lon="17.6369692">
        <ele>33.3029</ele>
        <time>2013-03-10T11:21:03Z</time>
      </trkpt>
      <trkpt lat="59.8951439" lon="17.6369769">
        <ele>33.3029</ele>
        <time>2013-03-10T11:21:04Z</time>
      </trkpt>
      <trkpt lat="59.8951322" lon="17.6369862">
        <ele>33.3029</ele>
        <time>2013-03-10T11:21:05Z</time>
      </trkpt>
      <trkpt lat="59.895122" lon="17.6369908">
        <ele>32.8223</ele>
        <time>2013-03-10T11:21:06Z</time>
      </trkpt>
      <trkpt lat="59.8951081" lon="17.6369992">
        <ele>33.3029</ele>
        <time>2013-03-10T11:21:07Z</time>
      </trkpt>
      <trkpt lat="59.895095" lon="17.6370017">
        <ele>33.3029</ele>
        <time>2013-03-10T11:21:08Z</time>
      </trkpt>
      <trkpt lat="59.8950836" lon="17.637007">
        <ele>33.3029</ele>
        <time>2013-03-10T11:21:09Z</time>
      </trkpt>
      <trkpt lat="59.8950682" lon="17.6370101">
        <ele>33.3029</ele>
        <time>2013-03-10T11:21:10Z</time>
      </trkpt>
      <trkpt lat="59.8950515" lon="17.6370145">
        <ele>33.3029</ele>
        <time>2013-03-10T11:21:11Z</time>
      </trkpt>
      <trkpt lat="59.8950353" lon="17.6370157">
        <ele>33.3029</ele>
        <time>2013-03-10T11:21:12Z</time>
      </trkpt>
      <trkpt lat="59.8950199" lon="17.6370169">
        <ele>32.8223</ele>
        <time>2013-03-10T11:21:13Z</time>
      </trkpt>
      <trkpt lat="59.8950063" lon="17.6370252">
        <ele>32.8223</ele>
        <time>2013-03-10T11:21:14Z</time>
      </trkpt>
      <trkpt lat="59.89499" lon="17.637025">
        <ele>32.3416</ele>
        <time>2013-03-10T11:21:15Z</time>
      </trkpt>
      <trkpt lat="59.894978" lon="17.6370318">
        <ele>32.3416</ele>
        <time>2013-03-10T11:21:16Z</time>
      </trkpt>
      <trkpt lat="59.8949668" lon="17.6370402">
        <ele>32.3416</ele>
        <time>2013-03-10T11:21:17Z</time>
      </trkpt>
      <trkpt lat="59.8949578" lon="17.6370452">
        <ele>32.3416</ele>
        <time>2013-03-10T11:21:18Z</time>
      </trkpt>
      <trkpt lat="59.8949443" lon="17.6370561">
        <ele>32.3416</ele>
        <time>2013-03-10T11:21:19Z</time>
      </trkpt>
      <trkpt lat="59.8949274" lon="17.6370645">
        <ele>32.3416</ele>
        <time>2013-03-10T11:21:20Z</time>
      </trkpt>
      <trkpt lat="59.8949133" lon="17.6370733">
        <ele>32.3416</ele>
        <time>2013-03-10T11:21:21Z</time>
      </trkpt>
      <trkpt lat="59.8948997" lon="17.6370829">
        <ele>31.8607</ele>
        <time>2013-03-10T11:21:22Z</time>
      </trkpt>
      <trkpt lat="59.8948896" lon="17.6370974">
        <ele>32.3416</ele>
        <time>2013-03-10T11:21:23Z</time>
      </trkpt>
      <trkpt lat="59.8948785" lon="17.6371111">
        <ele>32.3416</ele>
        <time>2013-03-10T11:21:24Z</time>
      </trkpt>
      <trkpt lat="59.8948649" lon="17.637125">
        <ele>32.8223</ele>
        <time>2013-03-10T11:21:25Z</time>
      </trkpt>
      <trkpt lat="59.8948356" lon="17.6371564">
        <ele>34.2642</ele>
        <time>2013-03-10T11:21:27Z</time>
      </trkpt>
      <trkpt lat="59.8948205" lon="17.6371701">
        <ele>34.7449</ele>
        <time>2013-03-10T11:21:28Z</time>
      </trkpt>
      <trkpt lat="59.8948064" lon="17.6371856">
        <ele>35.7061</ele>
        <time>2013-03-10T11:21:29Z</time>
      </trkpt>
      <trkpt lat="59.8947925" lon="17.6371982">
        <ele>36.1868</ele>
        <time>2013-03-10T11:21:30Z</time>
      </trkpt>
      <trkpt lat="59.8947789" lon="17.6372116">
        <ele>36.1868</ele>
        <time>2013-03-10T11:21:31Z</time>
      </trkpt>
      <trkpt lat="59.894764" lon="17.6372255">
        <ele>36.6675</ele>
        <time>2013-03-10T11:21:32Z</time>
      </trkpt>
      <trkpt lat="59.8947512" lon="17.6372323">
        <ele>36.6675</ele>
        <time>2013-03-10T11:21:33Z</time>
      </trkpt>
      <trkpt lat="59.8947361" lon="17.637239">
        <ele>36.6675</ele>
        <time>2013-03-10T11:21:34Z</time>
      </trkpt>
      <trkpt lat="59.8947225" lon="17.6372426">
        <ele>37.1481</ele>
        <time>2013-03-10T11:21:35Z</time>
      </trkpt>
      <trkpt lat="59.8947117" lon="17.6372473">
        <ele>37.1481</ele>
        <time>2013-03-10T11:21:36Z</time>
      </trkpt>
      <trkpt lat="59.8947056" lon="17.6372535">
        <ele>36.6675</ele>
        <time>2013-03-10T11:21:37Z</time>
      </trkpt>
      <trkpt lat="59.8946984" lon="17.6372618">
        <ele>36.6675</ele>
        <time>2013-03-10T11:21:38Z</time>
      </trkpt>
      <trkpt lat="59.8946891" lon="17.6372627">
        <ele>36.6675</ele>
        <time>2013-03-10T11:21:39Z</time>
      </trkpt>
      <trkpt lat="59.8946823" lon="17.6372678">
        <ele>36.1868</ele>
        <time>2013-03-10T11:21:40Z</time>
      </trkpt>
      <trkpt lat="59.8946712" lon="17.6372748">
        <ele>36.1868</ele>
        <time>2013-03-10T11:21:41Z</time>
      </trkpt>
      <trkpt lat="59.8946569" lon="17.6372782">
        <ele>35.7061</ele>
        <time>2013-03-10T11:21:42Z</time>
      </trkpt>
      <trkpt lat="59.8946414" lon="17.637281">
        <ele>35.2255</ele>
        <time>2013-03-10T11:21:43Z</time>
      </trkpt>
      <trkpt lat="59.894631" lon="17.6372861">
        <ele>35.2255</ele>
        <time>2013-03-10T11:21:44Z</time>
      </trkpt>
      <trkpt lat="59.8946197" lon="17.6372978">
        <ele>35.2255</ele>
        <time>2013-03-10T11:21:45Z</time>
      </trkpt>
      <trkpt lat="59.8946028" lon="17.637298">
        <ele>34.7449</ele>
        <time>2013-03-10T11:21:46Z</time>
      </trkpt>
      <trkpt lat="59.894587" lon="17.637298">
        <ele>33.7834</ele>
        <time>2013-03-10T11:21:47Z</time>
      </trkpt>
      <trkpt lat="59.8945764" lon="17.6373017">
        <ele>33.7834</ele>
        <time>2013-03-10T11:21:48Z</time>
      </trkpt>
      <trkpt lat="59.8945636" lon="17.6373025">
        <ele>33.7834</ele>
        <time>2013-03-10T11:21:49Z</time>
      </trkpt>
      <trkpt lat="59.8945517" lon="17.6373121">
        <ele>33.7834</ele>
        <time>2013-03-10T11:21:50Z</time>
      </trkpt>
      <trkpt lat="59.8945398" lon="17.6373136">
        <ele>34.2642</ele>
        <time>2013-03-10T11:21:51Z</time>
      </trkpt>
      <trkpt lat="59.8945332" lon="17.6373115">
        <ele>34.7449</ele>
        <time>2013-03-10T11:21:52Z</time>
      </trkpt>
      <trkpt lat="59.8945217" lon="17.6373125">
        <ele>34.7449</ele>
        <time>2013-03-10T11:21:53Z</time>
      </trkpt>
      <trkpt lat="59.8945086" lon="17.6373157">
        <ele>34.2642</ele>
        <time>2013-03-10T11:21:54Z</time>
      </trkpt>
      <trkpt lat="59.8944974" lon="17.6373162">
        <ele>33.3029</ele>
        <time>2013-03-10T11:21:55Z</time>
      </trkpt>
      <trkpt lat="59.8944822" lon="17.6373196">
        <ele>32.8223</ele>
        <time>2013-03-10T11:21:56Z</time>
      </trkpt>
      <trkpt lat="59.8944633" lon="17.6373281">
        <ele>32.8223</ele>
        <time>2013-03-10T11:21:57Z</time>
      </trkpt>
      <trkpt lat="59.8944469" lon="17.6373364">
        <ele>32.3416</ele>
        <time>2013-03-10T11:21:58Z</time>
      </trkpt>
      <trkpt lat="59.8944321" lon="17.6373429">
        <ele>32.3416</ele>
        <time>2013-03-10T11:21:59Z</time>
      </trkpt>
      <trkpt lat="59.8944168" lon="17.6373442">
        <ele>31.3801</ele>
        <time>2013-03-10T11:22:00Z</time>
      </trkpt>
      <trkpt lat="59.8944066" lon="17.6373726">
        <ele>33.7834</ele>
        <time>2013-03-10T11:22:01Z</time>
      </trkpt>
      <trkpt lat="59.8943968" lon="17.6373882">
        <ele>34.2642</ele>
        <time>2013-03-10T11:22:02Z</time>
      </trkpt>
      <trkpt lat="59.8943844" lon="17.6374101">
        <ele>35.7061</ele>
        <time>2013-03-10T11:22:03Z</time>
      </trkpt>
      <trkpt lat="59.8943725" lon="17.6374277">
        <ele>36.6675</ele>
        <time>2013-03-10T11:22:04Z</time>
      </trkpt>
      <trkpt lat="59.8943601" lon="17.637436">
        <ele>36.1868</ele>
        <time>2013-03-10T11:22:05Z</time>
      </trkpt>
      <trkpt lat="59.8943461" lon="17.6374504">
        <ele>36.6675</ele>
        <time>2013-03-10T11:22:06Z</time>
      </trkpt>
      <trkpt lat="59.8943311" lon="17.6374572">
        <ele>36.6675</ele>
        <time>2013-03-10T11:22:07Z</time>
      </trkpt>
      <trkpt lat="59.8943203" lon="17.6374633">
        <ele>36.1868</ele>
        <time>2013-03-10T11:22:08Z</time>
      </trkpt>
      <trkpt lat="59.8943032" lon="17.6374652">
        <ele>36.1868</ele>
        <time>2013-03-10T11:22:09Z</time>
      </trkpt>
      <trkpt lat="59.8942892" lon="17.6374735">
        <ele>36.1868</ele>
        <time>2013-03-10T11:22:10Z</time>
      </trkpt>
      <trkpt lat="59.894279" lon="17.6374814">
        <ele>36.1868</ele>
        <time>2013-03-10T11:22:11Z</time>
      </trkpt>
      <trkpt lat="59.8942689" lon="17.6374908">
        <ele>36.1868</ele>
        <time>2013-03-10T11:22:12Z</time>
      </trkpt>
      <trkpt lat="59.894257" lon="17.6374954">
        <ele>35.7061</ele>
        <time>2013-03-10T11:22:13Z</time>
      </trkpt>
      <trkpt lat="59.8942444" lon="17.637504">
        <ele>35.7061</ele>
        <time>2013-03-10T11:22:14Z</time>
      </trkpt>
      <trkpt lat="59.8942322" lon="17.6375175">
        <ele>36.1868</ele>
        <time>2013-03-10T11:22:15Z</time>
      </trkpt>
      <trkpt lat="59.8942201" lon="17.6375287">
        <ele>35.7061</ele>
        <time>2013-03-10T11:22:16Z</time>
      </trkpt>
      <trkpt lat="59.8942073" lon="17.6375431">
        <ele>36.1868</ele>
        <time>2013-03-10T11:22:17Z</time>
      </trkpt>
      <trkpt lat="59.8941895" lon="17.637552">
        <ele>36.1868</ele>
        <time>2013-03-10T11:22:18Z</time>
      </trkpt>
      <trkpt lat="59.8941762" lon="17.6375611">
        <ele>35.7061</ele>
        <time>2013-03-10T11:22:19Z</time>
      </trkpt>
      <trkpt lat="59.8941657" lon="17.6375729">
        <ele>35.7061</ele>
        <time>2013-03-10T11:22:20Z</time>
      </trkpt>
      <trkpt lat="59.8941523" lon="17.6375825">
        <ele>35.7061</ele>
        <time>2013-03-10T11:22:21Z</time>
      </trkpt>
      <trkpt lat="59.8941394" lon="17.6375902">
        <ele>35.2255</ele>
        <time>2013-03-10T11:22:22Z</time>
      </trkpt>
      <trkpt lat="59.8941288" lon="17.6376011">
        <ele>35.2255</ele>
        <time>2013-03-10T11:22:23Z</time>
      </trkpt>
      <trkpt lat="59.8941171" lon="17.6376094">
        <ele>35.2255</ele>
        <time>2013-03-10T11:22:24Z</time>
      </trkpt>
      <trkpt lat="59.8941043" lon="17.6376149">
        <ele>35.2255</ele>
        <time>2013-03-10T11:22:25Z</time>
      </trkpt>
      <trkpt lat="59.8940907" lon="17.6376247">
        <ele>35.2255</ele>
        <time>2013-03-10T11:22:26Z</time>
      </trkpt>
      <trkpt lat="59.8940789" lon="17.6376358">
        <ele>35.2255</ele>
        <time>2013-03-10T11:22:27Z</time>
      </trkpt>
      <trkpt lat="59.8940661" lon="17.6376436">
        <ele>34.7449</ele>
        <time>2013-03-10T11:22:28Z</time>
      </trkpt>
      <trkpt lat="59.8940523" lon="17.6376506">
        <ele>34.7449</ele>
        <time>2013-03-10T11:22:29Z</time>
      </trkpt>
      <trkpt lat="59.8940384" lon="17.6376548">
        <ele>34.7449</ele>
        <time>2013-03-10T11:22:30Z</time>
      </trkpt>
      <trkpt lat="59.8940243" lon="17.6376599">
        <ele>34.2642</ele>
        <time>2013-03-10T11:22:31Z</time>
      </trkpt>
      <trkpt lat="59.894011" lon="17.6376658">
        <ele>34.2642</ele>
        <time>2013-03-10T11:22:32Z</time>
      </trkpt>
      <trkpt lat="59.8939976" lon="17.6376704">
        <ele>33.7834</ele>
        <time>2013-03-10T11:22:33Z</time>
      </trkpt>
      <trkpt lat="59.8939829" lon="17.6376748">
        <ele>33.7834</ele>
        <time>2013-03-10T11:22:34Z</time>
      </trkpt>
      <trkpt lat="59.8939705" lon="17.6376804">
        <ele>33.3029</ele>
        <time>2013-03-10T11:22:35Z</time>
      </trkpt>
      <trkpt lat="59.8939596" lon="17.6376869">
        <ele>32.8223</ele>
        <time>2013-03-10T11:22:36Z</time>
      </trkpt>
      <trkpt lat="59.8939454" lon="17.6376917">
        <ele>32.3416</ele>
        <time>2013-03-10T11:22:37Z</time>
      </trkpt>
      <trkpt lat="59.8939332" lon="17.6376993">
        <ele>32.3416</ele>
        <time>2013-03-10T11:22:38Z</time>
      </trkpt>
      <trkpt lat="59.8939202" lon="17.6377032">
        <ele>31.8607</ele>
        <time>2013-03-10T11:22:39Z</time>
      </trkpt>
      <trkpt lat="59.8939046" lon="17.6377057">
        <ele>31.8607</ele>
        <time>2013-03-10T11:22:40Z</time>
      </trkpt>
      <trkpt lat="59.8938885" lon="17.6377077">
        <ele>31.3801</ele>
        <time>2013-03-10T11:22:41Z</time>
      </trkpt>
      <trkpt lat="59.8938716" lon="17.6377098">
        <ele>30.8995</ele>
        <time>2013-03-10T11:22:42Z</time>
      </trkpt>
      <trkpt lat="59.893858" lon="17.637717">
        <ele>30.8995</ele>
        <time>2013-03-10T11:22:43Z</time>
      </trkpt>
      <trkpt lat="59.8938447" lon="17.6377257">
        <ele>30.4188</ele>
        <time>2013-03-10T11:22:44Z</time>
      </trkpt>
      <trkpt lat="59.8938312" lon="17.6377316">
        <ele>30.4188</ele>
        <time>2013-03-10T11:22:45Z</time>
      </trkpt>
      <trkpt lat="59.8938182" lon="17.6377373">
        <ele>29.9381</ele>
        <time>2013-03-10T11:22:46Z</time>
      </trkpt>
      <trkpt lat="59.8938061" lon="17.6377456">
        <ele>29.4575</ele>
        <time>2013-03-10T11:22:47Z</time>
      </trkpt>
      <trkpt lat="59.8937937" lon="17.6377494">
        <ele>29.4575</ele>
        <time>2013-03-10T11:22:48Z</time>
      </trkpt>
      <trkpt lat="59.8937825" lon="17.6377579">
        <ele>28.9769</ele>
        <time>2013-03-10T11:22:49Z</time>
      </trkpt>
      <trkpt lat="59.8937705" lon="17.6377641">
        <ele>28.4962</ele>
        <time>2013-03-10T11:22:50Z</time>
      </trkpt>
      <trkpt lat="59.8937582" lon="17.6377677">
        <ele>28.0155</ele>
        <time>2013-03-10T11:22:51Z</time>
      </trkpt>
      <trkpt lat="59.8937482" lon="17.637772">
        <ele>27.5349</ele>
        <time>2013-03-10T11:22:52Z</time>
      </trkpt>
      <trkpt lat="59.893739" lon="17.6377788">
        <ele>27.5349</ele>
        <time>2013-03-10T11:22:53Z</time>
      </trkpt>
      <trkpt lat="59.89373" lon="17.6377876">
        <ele>27.5349</ele>
        <time>2013-03-10T11:22:54Z</time>
      </trkpt>
      <trkpt lat="59.8937184" lon="17.6377968">
        <ele>27.5349</ele>
        <time>2013-03-10T11:22:55Z</time>
      </trkpt>
      <trkpt lat="59.8937079" lon="17.637805">
        <ele>27.5349</ele>
        <time>2013-03-10T11:22:56Z</time>
      </trkpt>
      <trkpt lat="59.8936949" lon="17.6378252">
        <ele>28.9769</ele>
        <time>2013-03-10T11:22:57Z</time>
      </trkpt>
      <trkpt lat="59.8936813" lon="17.6378414">
        <ele>28.9769</ele>
        <time>2013-03-10T11:22:58Z</time>
      </trkpt>
      <trkpt lat="59.8936669" lon="17.6378549">
        <ele>29.4575</ele>
        <time>2013-03-10T11:22:59Z</time>
      </trkpt>
      <trkpt lat="59.8936544" lon="17.6378715">
        <ele>29.9381</ele>
        <time>2013-03-10T11:23:00Z</time>
      </trkpt>
      <trkpt lat="59.8936406" lon="17.6378876">
        <ele>29.9381</ele>
        <time>2013-03-10T11:23:01Z</time>
      </trkpt>
      <trkpt lat="59.893626" lon="17.6378977">
        <ele>29.9381</ele>
        <time>2013-03-10T11:23:02Z</time>
      </trkpt>
      <trkpt lat="59.8936122" lon="17.6379083">
        <ele>29.9381</ele>
        <time>2013-03-10T11:23:03Z</time>
      </trkpt>
      <trkpt lat="59.8936007" lon="17.637917">
        <ele>29.9381</ele>
        <time>2013-03-10T11:23:04Z</time>
      </trkpt>
      <trkpt lat="59.8935903" lon="17.6379309">
        <ele>30.4188</ele>
        <time>2013-03-10T11:23:05Z</time>
      </trkpt>
      <trkpt lat="59.8935815" lon="17.6379436">
        <ele>30.8995</ele>
        <time>2013-03-10T11:23:06Z</time>
      </trkpt>
      <trkpt lat="59.8935654" lon="17.6379807">
        <ele>32.3416</ele>
        <time>2013-03-10T11:23:07Z</time>
      </trkpt>
      <trkpt lat="59.8935542" lon="17.6380001">
        <ele>32.8223</ele>
        <time>2013-03-10T11:23:08Z</time>
      </trkpt>
      <trkpt lat="59.8935437" lon="17.6380275">
        <ele>33.7834</ele>
        <time>2013-03-10T11:23:09Z</time>
      </trkpt>
      <trkpt lat="59.8935354" lon="17.6380429">
        <ele>33.7834</ele>
        <time>2013-03-10T11:23:10Z</time>
      </trkpt>
      <trkpt lat="59.8935231" lon="17.63806">
        <ele>34.2642</ele>
        <time>2013-03-10T11:23:11Z</time>
      </trkpt>
      <trkpt lat="59.893508" lon="17.6380699">
        <ele>34.2642</ele>
        <time>2013-03-10T11:23:12Z</time>
      </trkpt>
      <trkpt lat="59.8934917" lon="17.6380807">
        <ele>34.2642</ele>
        <time>2013-03-10T11:23:13Z</time>
      </trkpt>
      <trkpt lat="59.893473" lon="17.6380853">
        <ele>34.7449</ele>
        <time>2013-03-10T11:23:14Z</time>
      </trkpt>
      <trkpt lat="59.8934609" lon="17.6380909">
        <ele>34.2642</ele>
        <time>2013-03-10T11:23:15Z</time>
      </trkpt>
      <trkpt lat="59.893448" lon="17.638102">
        <ele>34.2642</ele>
        <time>2013-03-10T11:23:16Z</time>
      </trkpt>
      <trkpt lat="59.8934358" lon="17.6381134">
        <ele>34.7449</ele>
        <time>2013-03-10T11:23:17Z</time>
      </trkpt>
      <trkpt lat="59.8934245" lon="17.6381287">
        <ele>34.7449</ele>
        <time>2013-03-10T11:23:18Z</time>
      </trkpt>
      <trkpt lat="59.8934135" lon="17.6381438">
        <ele>35.2255</ele>
        <time>2013-03-10T11:23:19Z</time>
      </trkpt>
      <trkpt lat="59.8934038" lon="17.6381523">
        <ele>34.7449</ele>
        <time>2013-03-10T11:23:20Z</time>
      </trkpt>
      <trkpt lat="59.8933958" lon="17.6381523">
        <ele>33.7834</ele>
        <time>2013-03-10T11:23:21Z</time>
      </trkpt>
      <trkpt lat="59.8933861" lon="17.6381615">
        <ele>33.3029</ele>
        <time>2013-03-10T11:23:22Z</time>
      </trkpt>
      <trkpt lat="59.89338" lon="17.6381669">
        <ele>33.3029</ele>
        <time>2013-03-10T11:23:23Z</time>
      </trkpt>
      <trkpt lat="59.893372" lon="17.6381731">
        <ele>32.8223</ele>
        <time>2013-03-10T11:23:24Z</time>
      </trkpt>
      <trkpt lat="59.8933601" lon="17.6381772">
        <ele>32.8223</ele>
        <time>2013-03-10T11:23:25Z</time>
      </trkpt>
      <trkpt lat="59.8933473" lon="17.6381864">
        <ele>32.3416</ele>
        <time>2013-03-10T11:23:26Z</time>
      </trkpt>
      <trkpt lat="59.893337" lon="17.6381909">
        <ele>32.3416</ele>
        <time>2013-03-10T11:23:27Z</time>
      </trkpt>
      <trkpt lat="59.893323" lon="17.6382055">
        <ele>32.3416</ele>
        <time>2013-03-10T11:23:28Z</time>
      </trkpt>
      <trkpt lat="59.8933153" lon="17.6382114">
        <ele>32.3416</ele>
        <time>2013-03-10T11:23:29Z</time>
      </trkpt>
      <trkpt lat="59.8933058" lon="17.6382209">
        <ele>32.3416</ele>
        <time>2013-03-10T11:23:30Z</time>
      </trkpt>
      <trkpt lat="59.8932949" lon="17.6382272">
        <ele>32.8223</ele>
        <time>2013-03-10T11:23:31Z</time>
      </trkpt>
      <trkpt lat="59.8932857" lon="17.6382274">
        <ele>32.3416</ele>
        <time>2013-03-10T11:23:32Z</time>
      </trkpt>
      <trkpt lat="59.8932775" lon="17.6382339">
        <ele>32.8223</ele>
        <time>2013-03-10T11:23:33Z</time>
      </trkpt>
      <trkpt lat="59.8932627" lon="17.6382392">
        <ele>32.8223</ele>
        <time>2013-03-10T11:23:34Z</time>
      </trkpt>
      <trkpt lat="59.8932442" lon="17.6382551">
        <ele>33.3029</ele>
        <time>2013-03-10T11:23:35Z</time>
      </trkpt>
      <trkpt lat="59.8932325" lon="17.6382603">
        <ele>32.8223</ele>
        <time>2013-03-10T11:23:36Z</time>
      </trkpt>
      <trkpt lat="59.8932221" lon="17.6382668">
        <ele>32.3416</ele>
        <time>2013-03-10T11:23:37Z</time>
      </trkpt>
      <trkpt lat="59.8932091" lon="17.6382743">
        <ele>32.3416</ele>
        <time>2013-03-10T11:23:38Z</time>
      </trkpt>
      <trkpt lat="59.8931926" lon="17.6382802">
        <ele>32.3416</ele>
        <time>2013-03-10T11:23:39Z</time>
      </trkpt>
      <trkpt lat="59.8931795" lon="17.6382847">
        <ele>32.3416</ele>
        <time>2013-03-10T11:23:40Z</time>
      </trkpt>
      <trkpt lat="59.893163" lon="17.6382972">
        <ele>32.8223</ele>
        <time>2013-03-10T11:23:41Z</time>
      </trkpt>
      <trkpt lat="59.8931474" lon="17.6383067">
        <ele>32.8223</ele>
        <time>2013-03-10T11:23:42Z</time>
      </trkpt>
      <trkpt lat="59.8931339" lon="17.6383138">
        <ele>32.8223</ele>
        <time>2013-03-10T11:23:43Z</time>
      </trkpt>
      <trkpt lat="59.8931194" lon="17.6383195">
        <ele>32.8223</ele>
        <time>2013-03-10T11:23:44Z</time>
      </trkpt>
      <trkpt lat="59.8930995" lon="17.6383221">
        <ele>33.3029</ele>
        <time>2013-03-10T11:23:45Z</time>
      </trkpt>
      <trkpt lat="59.8930831" lon="17.6383248">
        <ele>33.7834</ele>
        <time>2013-03-10T11:23:46Z</time>
      </trkpt>
      <trkpt lat="59.8930683" lon="17.6383273">
        <ele>33.7834</ele>
        <time>2013-03-10T11:23:47Z</time>
      </trkpt>
      <trkpt lat="59.8930532" lon="17.6383306">
        <ele>33.7834</ele>
        <time>2013-03-10T11:23:48Z</time>
      </trkpt>
      <trkpt lat="59.8930397" lon="17.6383365">
        <ele>33.7834</ele>
        <time>2013-03-10T11:23:49Z</time>
      </trkpt>
      <trkpt lat="59.8930251" lon="17.638342">
        <ele>33.7834</ele>
        <time>2013-03-10T11:23:50Z</time>
      </trkpt>
      <trkpt lat="59.8930117" lon="17.6383496">
        <ele>33.3029</ele>
        <time>2013-03-10T11:23:51Z</time>
      </trkpt>
      <trkpt lat="59.8929977" lon="17.6383562">
        <ele>33.3029</ele>
        <time>2013-03-10T11:23:52Z</time>
      </trkpt>
      <trkpt lat="59.8929849" lon="17.6383641">
        <ele>33.3029</ele>
        <time>2013-03-10T11:23:53Z</time>
      </trkpt>
      <trkpt lat="59.8929729" lon="17.6383691">
        <ele>33.3029</ele>
        <time>2013-03-10T11:23:54Z</time>
      </trkpt>
      <trkpt lat="59.8929625" lon="17.6383738">
        <ele>33.3029</ele>
        <time>2013-03-10T11:23:55Z</time>
      </trkpt>
      <trkpt lat="59.8929522" lon="17.6383753">
        <ele>32.8223</ele>
        <time>2013-03-10T11:23:56Z</time>
      </trkpt>
      <trkpt lat="59.8929421" lon="17.6383772">
        <ele>32.8223</ele>
        <time>2013-03-10T11:23:57Z</time>
      </trkpt>
      <trkpt lat="59.892932" lon="17.6383828">
        <ele>32.8223</ele>
        <time>2013-03-10T11:23:58Z</time>
      </trkpt>
      <trkpt lat="59.8929211" lon="17.6383895">
        <ele>32.3416</ele>
        <time>2013-03-10T11:23:59Z</time>
      </trkpt>
      <trkpt lat="59.892909" lon="17.6383952">
        <ele>32.3416</ele>
        <time>2013-03-10T11:24:00Z</time>
      </trkpt>
      <trkpt lat="59.8928967" lon="17.6384008">
        <ele>31.8607</ele>
        <time>2013-03-10T11:24:01Z</time>
      </trkpt>
      <trkpt lat="59.8928849" lon="17.6384077">
        <ele>31.8607</ele>
        <time>2013-03-10T11:24:02Z</time>
      </trkpt>
      <trkpt lat="59.8928724" lon="17.6384139">
        <ele>31.8607</ele>
        <time>2013-03-10T11:24:03Z</time>
      </trkpt>
      <trkpt lat="59.8928615" lon="17.6384217">
        <ele>31.3801</ele>
        <time>2013-03-10T11:24:04Z</time>
      </trkpt>
      <trkpt lat="59.8928502" lon="17.638432">
        <ele>31.8607</ele>
        <time>2013-03-10T11:24:05Z</time>
      </trkpt>
      <trkpt lat="59.8928387" lon="17.6384413">
        <ele>31.8607</ele>
        <time>2013-03-10T11:24:06Z</time>
      </trkpt>
      <trkpt lat="59.8928277" lon="17.6384495">
        <ele>31.3801</ele>
        <time>2013-03-10T11:24:07Z</time>
      </trkpt>
      <trkpt lat="59.8928165" lon="17.6384626">
        <ele>31.3801</ele>
        <time>2013-03-10T11:24:08Z</time>
      </trkpt>
      <trkpt lat="59.8928067" lon="17.6384779">
        <ele>31.3801</ele>
        <time>2013-03-10T11:24:09Z</time>
      </trkpt>
      <trkpt lat="59.8927993" lon="17.6384978">
        <ele>30.8995</ele>
        <time>2013-03-10T11:24:10Z</time>
      </trkpt>
      <trkpt lat="59.8927947" lon="17.6385201">
        <ele>30.8995</ele>
        <time>2013-03-10T11:24:11Z</time>
      </trkpt>
      <trkpt lat="59.8927925" lon="17.6385459">
        <ele>30.8995</ele>
        <time>2013-03-10T11:24:12Z</time>
      </trkpt>
      <trkpt lat="59.8927908" lon="17.6385712">
        <ele>30.8995</ele>
        <time>2013-03-10T11:24:13Z</time>
      </trkpt>
      <trkpt lat="59.8927884" lon="17.6385961">
        <ele>30.8995</ele>
        <time>2013-03-10T11:24:14Z</time>
      </trkpt>
      <trkpt lat="59.8927892" lon="17.6386184">
        <ele>30.8995</ele>
        <time>2013-03-10T11:24:15Z</time>
      </trkpt>
      <trkpt lat="59.8927872" lon="17.6386395">
        <ele>30.8995</ele>
        <time>2013-03-10T11:24:16Z</time>
      </trkpt>
      <trkpt lat="59.8927846" lon="17.6386635">
        <ele>30.4188</ele>
        <time>2013-03-10T11:24:17Z</time>
      </trkpt>
      <trkpt lat="59.8927832" lon="17.6386874">
        <ele>29.9381</ele>
        <time>2013-03-10T11:24:18Z</time>
      </trkpt>
      <trkpt lat="59.8927815" lon="17.6387121">
        <ele>29.9381</ele>
        <time>2013-03-10T11:24:19Z</time>
      </trkpt>
      <trkpt lat="59.8927822" lon="17.6387403">
        <ele>29.9381</ele>
        <time>2013-03-10T11:24:20Z</time>
      </trkpt>
      <trkpt lat="59.8927801" lon="17.638764">
        <ele>29.4575</ele>
        <time>2013-03-10T11:24:21Z</time>
      </trkpt>
      <trkpt lat="59.8927775" lon="17.6387884">
        <ele>29.4575</ele>
        <time>2013-03-10T11:24:22Z</time>
      </trkpt>
      <trkpt lat="59.8927755" lon="17.6388152">
        <ele>28.9769</ele>
        <time>2013-03-10T11:24:23Z</time>
      </trkpt>
      <trkpt lat="59.8927747" lon="17.6388396">
        <ele>28.9769</ele>
        <time>2013-03-10T11:24:24Z</time>
      </trkpt>
      <trkpt lat="59.8927727" lon="17.638863">
        <ele>28.0155</ele>
        <time>2013-03-10T11:24:25Z</time>
      </trkpt>
      <trkpt lat="59.8927725" lon="17.6388867">
        <ele>28.0155</ele>
        <time>2013-03-10T11:24:26Z</time>
      </trkpt>
      <trkpt lat="59.8927744" lon="17.6389158">
        <ele>28.0155</ele>
        <time>2013-03-10T11:24:27Z</time>
      </trkpt>
      <trkpt lat="59.8927751" lon="17.6389428">
        <ele>27.5349</ele>
        <time>2013-03-10T11:24:28Z</time>
      </trkpt>
      <trkpt lat="59.8927755" lon="17.6389664">
        <ele>27.5349</ele>
        <time>2013-03-10T11:24:29Z</time>
      </trkpt>
      <trkpt lat="59.8927769" lon="17.6389902">
        <ele>27.5349</ele>
        <time>2013-03-10T11:24:30Z</time>
      </trkpt>
      <trkpt lat="59.892778" lon="17.639018">
        <ele>27.5349</ele>
        <time>2013-03-10T11:24:31Z</time>
      </trkpt>
      <trkpt lat="59.892777" lon="17.6390444">
        <ele>27.0543</ele>
        <time>2013-03-10T11:24:32Z</time>
      </trkpt>
      <trkpt lat="59.8927743" lon="17.6390681">
        <ele>27.0543</ele>
        <time>2013-03-10T11:24:33Z</time>
      </trkpt>
      <trkpt lat="59.8927714" lon="17.6391081">
        <ele>27.5349</ele>
        <time>2013-03-10T11:24:34Z</time>
      </trkpt>
      <trkpt lat="59.8927698" lon="17.6391342">
        <ele>27.5349</ele>
        <time>2013-03-10T11:24:35Z</time>
      </trkpt>
      <trkpt lat="59.8927701" lon="17.6391571">
        <ele>27.5349</ele>
        <time>2013-03-10T11:24:36Z</time>
      </trkpt>
      <trkpt lat="59.8927713" lon="17.6391782">
        <ele>27.0543</ele>
        <time>2013-03-10T11:24:37Z</time>
      </trkpt>
      <trkpt lat="59.8927729" lon="17.6391971">
        <ele>27.0543</ele>
        <time>2013-03-10T11:24:38Z</time>
      </trkpt>
      <trkpt lat="59.8927729" lon="17.6392131">
        <ele>26.5736</ele>
        <time>2013-03-10T11:24:39Z</time>
      </trkpt>
      <trkpt lat="59.8927737" lon="17.6392468">
        <ele>27.0543</ele>
        <time>2013-03-10T11:24:40Z</time>
      </trkpt>
      <trkpt lat="59.8927751" lon="17.6392789">
        <ele>27.0543</ele>
        <time>2013-03-10T11:24:41Z</time>
      </trkpt>
      <trkpt lat="59.892777" lon="17.63931">
        <ele>26.5736</ele>
        <time>2013-03-10T11:24:42Z</time>
      </trkpt>
      <trkpt lat="59.8927782" lon="17.6393394">
        <ele>26.5736</ele>
        <time>2013-03-10T11:24:43Z</time>
      </trkpt>
      <trkpt lat="59.8927781" lon="17.6393699">
        <ele>27.0543</ele>
        <time>2013-03-10T11:24:44Z</time>
      </trkpt>
      <trkpt lat="59.8927766" lon="17.6393868">
        <ele>26.5736</ele>
        <time>2013-03-10T11:24:45Z</time>
      </trkpt>
      <trkpt lat="59.8927753" lon="17.6394083">
        <ele>26.5736</ele>
        <time>2013-03-10T11:24:46Z</time>
      </trkpt>
      <trkpt lat="59.8927748" lon="17.6394327">
        <ele>26.5736</ele>
        <time>2013-03-10T11:24:47Z</time>
      </trkpt>
      <trkpt lat="59.892773" lon="17.6394608">
        <ele>26.5736</ele>
        <time>2013-03-10T11:24:48Z</time>
      </trkpt>
      <trkpt lat="59.8927716" lon="17.6394952">
        <ele>27.0543</ele>
        <time>2013-03-10T11:24:49Z</time>
      </trkpt>
      <trkpt lat="59.8927711" lon="17.6395203">
        <ele>26.5736</ele>
        <time>2013-03-10T11:24:50Z</time>
      </trkpt>
      <trkpt lat="59.8927707" lon="17.6395457">
        <ele>27.0543</ele>
        <time>2013-03-10T11:24:51Z</time>
      </trkpt>
      <trkpt lat="59.8927708" lon="17.6395717">
        <ele>27.0543</ele>
        <time>2013-03-10T11:24:52Z</time>
      </trkpt>
      <trkpt lat="59.8927724" lon="17.6395933">
        <ele>26.5736</ele>
        <time>2013-03-10T11:24:53Z</time>
      </trkpt>
      <trkpt lat="59.8927734" lon="17.6396203">
        <ele>26.5736</ele>
        <time>2013-03-10T11:24:54Z</time>
      </trkpt>
      <trkpt lat="59.8927734" lon="17.6396546">
        <ele>26.5736</ele>
        <time>2013-03-10T11:24:55Z</time>
      </trkpt>
      <trkpt lat="59.8927743" lon="17.6396819">
        <ele>26.5736</ele>
        <time>2013-03-10T11:24:56Z</time>
      </trkpt>
      <trkpt lat="59.892775" lon="17.639709">
        <ele>26.5736</ele>
        <time>2013-03-10T11:24:57Z</time>
      </trkpt>
      <trkpt lat="59.8927748" lon="17.6397389">
        <ele>26.5736</ele>
        <time>2013-03-10T11:24:58Z</time>
      </trkpt>
      <trkpt lat="59.8927734" lon="17.6397649">
        <ele>26.5736</ele>
        <time>2013-03-10T11:24:59Z</time>
      </trkpt>
      <trkpt lat="59.8927717" lon="17.6397926">
        <ele>27.0543</ele>
        <time>2013-03-10T11:25:00Z</time>
      </trkpt>
      <trkpt lat="59.8927713" lon="17.6398207">
        <ele>27.0543</ele>
        <time>2013-03-10T11:25:01Z</time>
      </trkpt>
      <trkpt lat="59.8927696" lon="17.6398498">
        <ele>27.0543</ele>
        <time>2013-03-10T11:25:02Z</time>
      </trkpt>
      <trkpt lat="59.8927685" lon="17.639884">
        <ele>27.0543</ele>
        <time>2013-03-10T11:25:03Z</time>
      </trkpt>
      <trkpt lat="59.8927691" lon="17.6399135">
        <ele>27.0543</ele>
        <time>2013-03-10T11:25:04Z</time>
      </trkpt>
      <trkpt lat="59.8927686" lon="17.6399415">
        <ele>26.5736</ele>
        <time>2013-03-10T11:25:05Z</time>
      </trkpt>
      <trkpt lat="59.8927681" lon="17.6399687">
        <ele>26.0929</ele>
        <time>2013-03-10T11:25:06Z</time>
      </trkpt>
      <trkpt lat="59.8927688" lon="17.6400021">
        <ele>26.0929</ele>
        <time>2013-03-10T11:25:07Z</time>
      </trkpt>
      <trkpt lat="59.8927681" lon="17.6400269">
        <ele>26.0929</ele>
        <time>2013-03-10T11:25:08Z</time>
      </trkpt>
      <trkpt lat="59.8927656" lon="17.6400516">
        <ele>25.6123</ele>
        <time>2013-03-10T11:25:09Z</time>
      </trkpt>
      <trkpt lat="59.8927651" lon="17.6400793">
        <ele>25.6123</ele>
        <time>2013-03-10T11:25:10Z</time>
      </trkpt>
      <trkpt lat="59.8927676" lon="17.6400967">
        <ele>25.6123</ele>
        <time>2013-03-10T11:25:11Z</time>
      </trkpt>
      <trkpt lat="59.8927703" lon="17.6401174">
        <ele>25.1317</ele>
        <time>2013-03-10T11:25:12Z</time>
      </trkpt>
      <trkpt lat="59.8927704" lon="17.6401497">
        <ele>25.6123</ele>
        <time>2013-03-10T11:25:13Z</time>
      </trkpt>
      <trkpt lat="59.8927687" lon="17.640187">
        <ele>26.0929</ele>
        <time>2013-03-10T11:25:14Z</time>
      </trkpt>
      <trkpt lat="59.8927641" lon="17.6402151">
        <ele>26.0929</ele>
        <time>2013-03-10T11:25:15Z</time>
      </trkpt>
      <trkpt lat="59.8927589" lon="17.6402399">
        <ele>25.6123</ele>
        <time>2013-03-10T11:25:16Z</time>
      </trkpt>
      <trkpt lat="59.8927574" lon="17.6402668">
        <ele>25.6123</ele>
        <time>2013-03-10T11:25:17Z</time>
      </trkpt>
      <trkpt lat="59.8927585" lon="17.6402943">
        <ele>26.0929</ele>
        <time>2013-03-10T11:25:18Z</time>
      </trkpt>
      <trkpt lat="59.8927615" lon="17.6403235">
        <ele>26.5736</ele>
        <time>2013-03-10T11:25:19Z</time>
      </trkpt>
      <trkpt lat="59.8927615" lon="17.6403591">
        <ele>27.5349</ele>
        <time>2013-03-10T11:25:20Z</time>
      </trkpt>
      <trkpt lat="59.8927584" lon="17.6403911">
        <ele>27.5349</ele>
        <time>2013-03-10T11:25:21Z</time>
      </trkpt>
      <trkpt lat="59.8927542" lon="17.6404253">
        <ele>28.0155</ele>
        <time>2013-03-10T11:25:22Z</time>
      </trkpt>
      <trkpt lat="59.8927502" lon="17.6404546">
        <ele>28.0155</ele>
        <time>2013-03-10T11:25:23Z</time>
      </trkpt>
      <trkpt lat="59.8927476" lon="17.6404793">
        <ele>28.0155</ele>
        <time>2013-03-10T11:25:24Z</time>
      </trkpt>
      <trkpt lat="59.8927459" lon="17.6405033">
        <ele>28.0155</ele>
        <time>2013-03-10T11:25:25Z</time>
      </trkpt>
      <trkpt lat="59.8927439" lon="17.640532">
        <ele>28.4962</ele>
        <time>2013-03-10T11:25:26Z</time>
      </trkpt>
      <trkpt lat="59.8927427" lon="17.6405599">
        <ele>28.4962</ele>
        <time>2013-03-10T11:25:27Z</time>
      </trkpt>
      <trkpt lat="59.8927414" lon="17.6405854">
        <ele>28.4962</ele>
        <time>2013-03-10T11:25:28Z</time>
      </trkpt>
      <trkpt lat="59.8927404" lon="17.6406076">
        <ele>28.4962</ele>
        <time>2013-03-10T11:25:29Z</time>
      </trkpt>
      <trkpt lat="59.8927377" lon="17.6406305">
        <ele>28.4962</ele>
        <time>2013-03-10T11:25:30Z</time>
      </trkpt>
      <trkpt lat="59.8927366" lon="17.6406579">
        <ele>28.4962</ele>
        <time>2013-03-10T11:25:31Z</time>
      </trkpt>
      <trkpt lat="59.892734" lon="17.6406808">
        <ele>28.4962</ele>
        <time>2013-03-10T11:25:32Z</time>
      </trkpt>
      <trkpt lat="59.892733" lon="17.640704">
        <ele>28.4962</ele>
        <time>2013-03-10T11:25:33Z</time>
      </trkpt>
      <trkpt lat="59.8927328" lon="17.6407255">
        <ele>28.0155</ele>
        <time>2013-03-10T11:25:34Z</time>
      </trkpt>
      <trkpt lat="59.8927329" lon="17.6407478">
        <ele>28.4962</ele>
        <time>2013-03-10T11:25:35Z</time>
      </trkpt>
      <trkpt lat="59.8927314" lon="17.6407703">
        <ele>28.0155</ele>
        <time>2013-03-10T11:25:36Z</time>
      </trkpt>
      <trkpt lat="59.8927299" lon="17.6407953">
        <ele>28.4962</ele>
        <time>2013-03-10T11:25:37Z</time>
      </trkpt>
      <trkpt lat="59.8927293" lon="17.6408191">
        <ele>28.0155</ele>
        <time>2013-03-10T11:25:38Z</time>
      </trkpt>
      <trkpt lat="59.8927286" lon="17.6408439">
        <ele>28.0155</ele>
        <time>2013-03-10T11:25:39Z</time>
      </trkpt>
      <trkpt lat="59.8927281" lon="17.6408713">
        <ele>28.0155</ele>
        <time>2013-03-10T11:25:40Z</time>
      </trkpt>
      <trkpt lat="59.8927261" lon="17.640907">
        <ele>28.4962</ele>
        <time>2013-03-10T11:25:41Z</time>
      </trkpt>
      <trkpt lat="59.8927245" lon="17.6409389">
        <ele>28.9769</ele>
        <time>2013-03-10T11:25:42Z</time>
      </trkpt>
      <trkpt lat="59.8927232" lon="17.6409672">
        <ele>28.9769</ele>
        <time>2013-03-10T11:25:43Z</time>
      </trkpt>
      <trkpt lat="59.8927227" lon="17.6409902">
        <ele>28.9769</ele>
        <time>2013-03-10T11:25:44Z</time>
      </trkpt>
      <trkpt lat="59.8927214" lon="17.6410169">
        <ele>28.9769</ele>
        <time>2013-03-10T11:25:45Z</time>
      </trkpt>
      <trkpt lat="59.89272" lon="17.6410437">
        <ele>29.4575</ele>
        <time>2013-03-10T11:25:46Z</time>
      </trkpt>
      <trkpt lat="59.8927191" lon="17.6410677">
        <ele>29.4575</ele>
        <time>2013-03-10T11:25:47Z</time>
      </trkpt>
      <trkpt lat="59.8927178" lon="17.641098">
        <ele>29.9381</ele>
        <time>2013-03-10T11:25:48Z</time>
      </trkpt>
      <trkpt lat="59.8927158" lon="17.6411316">
        <ele>30.4188</ele>
        <time>2013-03-10T11:25:49Z</time>
      </trkpt>
      <trkpt lat="59.8927138" lon="17.6411558">
        <ele>30.4188</ele>
        <time>2013-03-10T11:25:50Z</time>
      </trkpt>
      <trkpt lat="59.8927123" lon="17.6411775">
        <ele>30.4188</ele>
        <time>2013-03-10T11:25:51Z</time>
      </trkpt>
      <trkpt lat="59.8927112" lon="17.6412007">
        <ele>30.4188</ele>
        <time>2013-03-10T11:25:52Z</time>
      </trkpt>
      <trkpt lat="59.8927107" lon="17.641221">
        <ele>29.9381</ele>
        <time>2013-03-10T11:25:53Z</time>
      </trkpt>
      <trkpt lat="59.8927097" lon="17.6412468">
        <ele>29.9381</ele>
        <time>2013-03-10T11:25:54Z</time>
      </trkpt>
      <trkpt lat="59.8927082" lon="17.6412773">
        <ele>30.4188</ele>
        <time>2013-03-10T11:25:55Z</time>
      </trkpt>
      <trkpt lat="59.892707" lon="17.6413049">
        <ele>30.4188</ele>
        <time>2013-03-10T11:25:56Z</time>
      </trkpt>
      <trkpt lat="59.8927061" lon="17.6413287">
        <ele>30.4188</ele>
        <time>2013-03-10T11:25:57Z</time>
      </trkpt>
      <trkpt lat="59.892707" lon="17.641357">
        <ele>30.4188</ele>
        <time>2013-03-10T11:25:58Z</time>
      </trkpt>
      <trkpt lat="59.8927079" lon="17.6413844">
        <ele>30.8995</ele>
        <time>2013-03-10T11:25:59Z</time>
      </trkpt>
      <trkpt lat="59.8927084" lon="17.64141">
        <ele>30.8995</ele>
        <time>2013-03-10T11:26:00Z</time>
      </trkpt>
      <trkpt lat="59.8927084" lon="17.6414337">
        <ele>31.3801</ele>
        <time>2013-03-10T11:26:01Z</time>
      </trkpt>
      <trkpt lat="59.8927086" lon="17.641459">
        <ele>31.3801</ele>
        <time>2013-03-10T11:26:02Z</time>
      </trkpt>
      <trkpt lat="59.8927087" lon="17.6414837">
        <ele>31.3801</ele>
        <time>2013-03-10T11:26:03Z</time>
      </trkpt>
      <trkpt lat="59.8927081" lon="17.6415084">
        <ele>31.3801</ele>
        <time>2013-03-10T11:26:04Z</time>
      </trkpt>
      <trkpt lat="59.8927067" lon="17.6415301">
        <ele>31.3801</ele>
        <time>2013-03-10T11:26:05Z</time>
      </trkpt>
      <trkpt lat="59.8927055" lon="17.6415539">
        <ele>31.3801</ele>
        <time>2013-03-10T11:26:06Z</time>
      </trkpt>
      <trkpt lat="59.8927055" lon="17.6415794">
        <ele>31.8607</ele>
        <time>2013-03-10T11:26:07Z</time>
      </trkpt>
      <trkpt lat="59.892705" lon="17.6416051">
        <ele>31.8607</ele>
        <time>2013-03-10T11:26:08Z</time>
      </trkpt>
      <trkpt lat="59.8927048" lon="17.6416302">
        <ele>31.8607</ele>
        <time>2013-03-10T11:26:09Z</time>
      </trkpt>
      <trkpt lat="59.8927043" lon="17.6416602">
        <ele>31.8607</ele>
        <time>2013-03-10T11:26:10Z</time>
      </trkpt>
      <trkpt lat="59.8927028" lon="17.641689">
        <ele>31.8607</ele>
        <time>2013-03-10T11:26:11Z</time>
      </trkpt>
      <trkpt lat="59.8927015" lon="17.6417157">
        <ele>32.3416</ele>
        <time>2013-03-10T11:26:12Z</time>
      </trkpt>
      <trkpt lat="59.8926998" lon="17.6417436">
        <ele>31.8607</ele>
        <time>2013-03-10T11:26:13Z</time>
      </trkpt>
      <trkpt lat="59.8926967" lon="17.6417672">
        <ele>31.8607</ele>
        <time>2013-03-10T11:26:14Z</time>
      </trkpt>
      <trkpt lat="59.8926952" lon="17.6417906">
        <ele>31.8607</ele>
        <time>2013-03-10T11:26:15Z</time>
      </trkpt>
      <trkpt lat="59.8926936" lon="17.6418125">
        <ele>31.3801</ele>
        <time>2013-03-10T11:26:16Z</time>
      </trkpt>
      <trkpt lat="59.8926916" lon="17.6418379">
        <ele>30.8995</ele>
        <time>2013-03-10T11:26:17Z</time>
      </trkpt>
      <trkpt lat="59.892689" lon="17.641862">
        <ele>30.8995</ele>
        <time>2013-03-10T11:26:18Z</time>
      </trkpt>
      <trkpt lat="59.8926862" lon="17.6418799">
        <ele>30.4188</ele>
        <time>2013-03-10T11:26:19Z</time>
      </trkpt>
      <trkpt lat="59.8926851" lon="17.6419031">
        <ele>30.4188</ele>
        <time>2013-03-10T11:26:20Z</time>
      </trkpt>
      <trkpt lat="59.8926846" lon="17.641932">
        <ele>30.4188</ele>
        <time>2013-03-10T11:26:21Z</time>
      </trkpt>
      <trkpt lat="59.8926844" lon="17.6419517">
        <ele>29.9381</ele>
        <time>2013-03-10T11:26:22Z</time>
      </trkpt>
      <trkpt lat="59.8926843" lon="17.6419756">
        <ele>29.4575</ele>
        <time>2013-03-10T11:26:23Z</time>
      </trkpt>
      <trkpt lat="59.8926847" lon="17.6419999">
        <ele>28.9769</ele>
        <time>2013-03-10T11:26:24Z</time>
      </trkpt>
      <trkpt lat="59.8926839" lon="17.6420212">
        <ele>28.9769</ele>
        <time>2013-03-10T11:26:25Z</time>
      </trkpt>
      <trkpt lat="59.8926816" lon="17.6420626">
        <ele>30.4188</ele>
        <time>2013-03-10T11:26:26Z</time>
      </trkpt>
      <trkpt lat="59.8926799" lon="17.6420931">
        <ele>30.4188</ele>
        <time>2013-03-10T11:26:27Z</time>
      </trkpt>
      <trkpt lat="59.892679" lon="17.6421166">
        <ele>30.4188</ele>
        <time>2013-03-10T11:26:28Z</time>
      </trkpt>
      <trkpt lat="59.8926786" lon="17.6421404">
        <ele>29.9381</ele>
        <time>2013-03-10T11:26:29Z</time>
      </trkpt>
      <trkpt lat="59.8926795" lon="17.6421653">
        <ele>29.9381</ele>
        <time>2013-03-10T11:26:30Z</time>
      </trkpt>
      <trkpt lat="59.8926781" lon="17.6421881">
        <ele>29.4575</ele>
        <time>2013-03-10T11:26:31Z</time>
      </trkpt>
      <trkpt lat="59.8926784" lon="17.642214">
        <ele>29.4575</ele>
        <time>2013-03-10T11:26:32Z</time>
      </trkpt>
      <trkpt lat="59.8926777" lon="17.6422412">
        <ele>29.4575</ele>
        <time>2013-03-10T11:26:33Z</time>
      </trkpt>
      <trkpt lat="59.8926754" lon="17.6422667">
        <ele>29.9381</ele>
        <time>2013-03-10T11:26:34Z</time>
      </trkpt>
      <trkpt lat="59.8926737" lon="17.6422905">
        <ele>29.9381</ele>
        <time>2013-03-10T11:26:35Z</time>
      </trkpt>
      <trkpt lat="59.892672" lon="17.6423124">
        <ele>29.9381</ele>
        <time>2013-03-10T11:26:36Z</time>
      </trkpt>
      <trkpt lat="59.8926686" lon="17.6423356">
        <ele>29.9381</ele>
        <time>2013-03-10T11:26:37Z</time>
      </trkpt>
      <trkpt lat="59.8926662" lon="17.6423609">
        <ele>29.9381</ele>
        <time>2013-03-10T11:26:38Z</time>
      </trkpt>
      <trkpt lat="59.8926647" lon="17.6423864">
        <ele>29.9381</ele>
        <time>2013-03-10T11:26:39Z</time>
      </trkpt>
      <trkpt lat="59.8926619" lon="17.6424159">
        <ele>29.9381</ele>
        <time>2013-03-10T11:26:40Z</time>
      </trkpt>
      <trkpt lat="59.8926589" lon="17.6424424">
        <ele>29.9381</ele>
        <time>2013-03-10T11:26:41Z</time>
      </trkpt>
      <trkpt lat="59.8926558" lon="17.6424681">
        <ele>29.9381</ele>
        <time>2013-03-10T11:26:42Z</time>
      </trkpt>
      <trkpt lat="59.8926527" lon="17.6424909">
        <ele>29.9381</ele>
        <time>2013-03-10T11:26:43Z</time>
      </trkpt>
      <trkpt lat="59.8926522" lon="17.642518">
        <ele>29.9381</ele>
        <time>2013-03-10T11:26:44Z</time>
      </trkpt>
      <trkpt lat="59.8926527" lon="17.642547">
        <ele>29.4575</ele>
        <time>2013-03-10T11:26:45Z</time>
      </trkpt>
      <trkpt lat="59.8926517" lon="17.6425704">
        <ele>29.4575</ele>
        <time>2013-03-10T11:26:46Z</time>
      </trkpt>
      <trkpt lat="59.892651" lon="17.6425955">
        <ele>29.4575</ele>
        <time>2013-03-10T11:26:47Z</time>
      </trkpt>
      <trkpt lat="59.8926487" lon="17.642617">
        <ele>28.9769</ele>
        <time>2013-03-10T11:26:48Z</time>
      </trkpt>
      <trkpt lat="59.8926478" lon="17.6426422">
        <ele>29.4575</ele>
        <time>2013-03-10T11:26:49Z</time>
      </trkpt>
      <trkpt lat="59.892647" lon="17.6426655">
        <ele>29.4575</ele>
        <time>2013-03-10T11:26:50Z</time>
      </trkpt>
      <trkpt lat="59.8926486" lon="17.6426998">
        <ele>29.9381</ele>
        <time>2013-03-10T11:26:51Z</time>
      </trkpt>
      <trkpt lat="59.8926489" lon="17.6427284">
        <ele>29.9381</ele>
        <time>2013-03-10T11:26:52Z</time>
      </trkpt>
      <trkpt lat="59.8926482" lon="17.6427564">
        <ele>30.4188</ele>
        <time>2013-03-10T11:26:53Z</time>
      </trkpt>
      <trkpt lat="59.8926469" lon="17.642787">
        <ele>30.4188</ele>
        <time>2013-03-10T11:26:54Z</time>
      </trkpt>
      <trkpt lat="59.8926458" lon="17.6428181">
        <ele>30.8995</ele>
        <time>2013-03-10T11:26:55Z</time>
      </trkpt>
      <trkpt lat="59.8926438" lon="17.6428496">
        <ele>31.3801</ele>
        <time>2013-03-10T11:26:56Z</time>
      </trkpt>
      <trkpt lat="59.8926413" lon="17.6428781">
        <ele>31.3801</ele>
        <time>2013-03-10T11:26:57Z</time>
      </trkpt>
      <trkpt lat="59.8926381" lon="17.6429055">
        <ele>31.3801</ele>
        <time>2013-03-10T11:26:58Z</time>
      </trkpt>
      <trkpt lat="59.8926346" lon="17.6429354">
        <ele>31.8607</ele>
        <time>2013-03-10T11:26:59Z</time>
      </trkpt>
      <trkpt lat="59.8926316" lon="17.6429614">
        <ele>32.3416</ele>
        <time>2013-03-10T11:27:00Z</time>
      </trkpt>
      <trkpt lat="59.8926311" lon="17.6429848">
        <ele>32.3416</ele>
        <time>2013-03-10T11:27:01Z</time>
      </trkpt>
      <trkpt lat="59.8926303" lon="17.6430112">
        <ele>32.3416</ele>
        <time>2013-03-10T11:27:02Z</time>
      </trkpt>
      <trkpt lat="59.8926269" lon="17.6430358">
        <ele>32.3416</ele>
        <time>2013-03-10T11:27:03Z</time>
      </trkpt>
      <trkpt lat="59.8926233" lon="17.6430584">
        <ele>32.3416</ele>
        <time>2013-03-10T11:27:04Z</time>
      </trkpt>
      <trkpt lat="59.8926195" lon="17.6430811">
        <ele>32.3416</ele>
        <time>2013-03-10T11:27:05Z</time>
      </trkpt>
      <trkpt lat="59.8926154" lon="17.6431035">
        <ele>32.3416</ele>
        <time>2013-03-10T11:27:06Z</time>
      </trkpt>
      <trkpt lat="59.8926113" lon="17.6431265">
        <ele>32.3416</ele>
        <time>2013-03-10T11:27:07Z</time>
      </trkpt>
      <trkpt lat="59.8926076" lon="17.643148">
        <ele>32.3416</ele>
        <time>2013-03-10T11:27:08Z</time>
      </trkpt>
      <trkpt lat="59.8926038" lon="17.6431687">
        <ele>32.3416</ele>
        <time>2013-03-10T11:27:09Z</time>
      </trkpt>
      <trkpt lat="59.8926003" lon="17.6431914">
        <ele>32.3416</ele>
        <time>2013-03-10T11:27:10Z</time>
      </trkpt>
      <trkpt lat="59.8925965" lon="17.6432151">
        <ele>32.3416</ele>
        <time>2013-03-10T11:27:11Z</time>
      </trkpt>
      <trkpt lat="59.8925916" lon="17.6432391">
        <ele>32.3416</ele>
        <time>2013-03-10T11:27:12Z</time>
      </trkpt>
      <trkpt lat="59.8925874" lon="17.6432656">
        <ele>32.8223</ele>
        <time>2013-03-10T11:27:13Z</time>
      </trkpt>
      <trkpt lat="59.8925824" lon="17.6432902">
        <ele>32.8223</ele>
        <time>2013-03-10T11:27:14Z</time>
      </trkpt>
      <trkpt lat="59.8925781" lon="17.643314">
        <ele>32.8223</ele>
        <time>2013-03-10T11:27:15Z</time>
      </trkpt>
      <trkpt lat="59.892574" lon="17.6433353">
        <ele>32.3416</ele>
        <time>2013-03-10T11:27:16Z</time>
      </trkpt>
      <trkpt lat="59.8925696" lon="17.6433588">
        <ele>32.3416</ele>
        <time>2013-03-10T11:27:17Z</time>
      </trkpt>
      <trkpt lat="59.8925646" lon="17.6433821">
        <ele>32.3416</ele>
        <time>2013-03-10T11:27:18Z</time>
      </trkpt>
      <trkpt lat="59.8925618" lon="17.6434059">
        <ele>32.3416</ele>
        <time>2013-03-10T11:27:19Z</time>
      </trkpt>
      <trkpt lat="59.89256" lon="17.6434292">
        <ele>32.3416</ele>
        <time>2013-03-10T11:27:20Z</time>
      </trkpt>
      <trkpt lat="59.8925579" lon="17.6434525">
        <ele>32.3416</ele>
        <time>2013-03-10T11:27:21Z</time>
      </trkpt>
      <trkpt lat="59.8925556" lon="17.6434734">
        <ele>31.8607</ele>
        <time>2013-03-10T11:27:22Z</time>
      </trkpt>
      <trkpt lat="59.8925517" lon="17.6434951">
        <ele>31.8607</ele>
        <time>2013-03-10T11:27:23Z</time>
      </trkpt>
      <trkpt lat="59.8925482" lon="17.6435151">
        <ele>31.8607</ele>
        <time>2013-03-10T11:27:24Z</time>
      </trkpt>
      <trkpt lat="59.8925453" lon="17.6435349">
        <ele>31.3801</ele>
        <time>2013-03-10T11:27:25Z</time>
      </trkpt>
      <trkpt lat="59.8925428" lon="17.6435568">
        <ele>31.3801</ele>
        <time>2013-03-10T11:27:26Z</time>
      </trkpt>
      <trkpt lat="59.8925393" lon="17.6435831">
        <ele>31.3801</ele>
        <time>2013-03-10T11:27:27Z</time>
      </trkpt>
      <trkpt lat="59.892535" lon="17.6436099">
        <ele>31.3801</ele>
        <time>2013-03-10T11:27:28Z</time>
      </trkpt>
      <trkpt lat="59.8925311" lon="17.6436359">
        <ele>31.3801</ele>
        <time>2013-03-10T11:27:29Z</time>
      </trkpt>
      <trkpt lat="59.8925278" lon="17.6436609">
        <ele>30.8995</ele>
        <time>2013-03-10T11:27:30Z</time>
      </trkpt>
      <trkpt lat="59.8925236" lon="17.6436857">
        <ele>30.8995</ele>
        <time>2013-03-10T11:27:31Z</time>
      </trkpt>
      <trkpt lat="59.8925199" lon="17.643714">
        <ele>30.8995</ele>
        <time>2013-03-10T11:27:32Z</time>
      </trkpt>
      <trkpt lat="59.8925166" lon="17.6437344">
        <ele>30.4188</ele>
        <time>2013-03-10T11:27:33Z</time>
      </trkpt>
      <trkpt lat="59.8925143" lon="17.6437576">
        <ele>30.4188</ele>
        <time>2013-03-10T11:27:34Z</time>
      </trkpt>
      <trkpt lat="59.8925132" lon="17.643786">
        <ele>30.4188</ele>
        <time>2013-03-10T11:27:35Z</time>
      </trkpt>
      <trkpt lat="59.8925123" lon="17.6438114">
        <ele>30.4188</ele>
        <time>2013-03-10T11:27:36Z</time>
      </trkpt>
      <trkpt lat="59.8925107" lon="17.6438403">
        <ele>30.8995</ele>
        <time>2013-03-10T11:27:37Z</time>
      </trkpt>
      <trkpt lat="59.8925093" lon="17.6438717">
        <ele>31.3801</ele>
        <time>2013-03-10T11:27:38Z</time>
      </trkpt>
      <trkpt lat="59.8925082" lon="17.6439017">
        <ele>31.3801</ele>
        <time>2013-03-10T11:27:39Z</time>
      </trkpt>
      <trkpt lat="59.8925045" lon="17.6439316">
        <ele>31.8607</ele>
        <time>2013-03-10T11:27:40Z</time>
      </trkpt>
      <trkpt lat="59.8925005" lon="17.643959">
        <ele>32.3416</ele>
        <time>2013-03-10T11:27:41Z</time>
      </trkpt>
      <trkpt lat="59.8924953" lon="17.6439892">
        <ele>32.8223</ele>
        <time>2013-03-10T11:27:42Z</time>
      </trkpt>
      <trkpt lat="59.8924907" lon="17.6440202">
        <ele>33.3029</ele>
        <time>2013-03-10T11:27:43Z</time>
      </trkpt>
      <trkpt lat="59.8924872" lon="17.6440404">
        <ele>33.3029</ele>
        <time>2013-03-10T11:27:44Z</time>
      </trkpt>
      <trkpt lat="59.892485" lon="17.6440633">
        <ele>32.8223</ele>
        <time>2013-03-10T11:27:45Z</time>
      </trkpt>
      <trkpt lat="59.8924828" lon="17.6440814">
        <ele>32.8223</ele>
        <time>2013-03-10T11:27:46Z</time>
      </trkpt>
      <trkpt lat="59.8924807" lon="17.6441093">
        <ele>32.8223</ele>
        <time>2013-03-10T11:27:47Z</time>
      </trkpt>
      <trkpt lat="59.8924781" lon="17.6441348">
        <ele>32.3416</ele>
        <time>2013-03-10T11:27:48Z</time>
      </trkpt>
      <trkpt lat="59.8924755" lon="17.6441581">
        <ele>32.3416</ele>
        <time>2013-03-10T11:27:49Z</time>
      </trkpt>
      <trkpt lat="59.8924733" lon="17.6441836">
        <ele>32.3416</ele>
        <time>2013-03-10T11:27:50Z</time>
      </trkpt>
      <trkpt lat="59.8924712" lon="17.6442109">
        <ele>32.3416</ele>
        <time>2013-03-10T11:27:51Z</time>
      </trkpt>
      <trkpt lat="59.8924689" lon="17.6442385">
        <ele>31.8607</ele>
        <time>2013-03-10T11:27:52Z</time>
      </trkpt>
      <trkpt lat="59.8924668" lon="17.6442668">
        <ele>31.8607</ele>
        <time>2013-03-10T11:27:53Z</time>
      </trkpt>
      <trkpt lat="59.8924645" lon="17.6442936">
        <ele>31.8607</ele>
        <time>2013-03-10T11:27:54Z</time>
      </trkpt>
      <trkpt lat="59.8924613" lon="17.6443192">
        <ele>31.8607</ele>
        <time>2013-03-10T11:27:55Z</time>
      </trkpt>
      <trkpt lat="59.892458" lon="17.6443436">
        <ele>31.8607</ele>
        <time>2013-03-10T11:27:56Z</time>
      </trkpt>
      <trkpt lat="59.8924541" lon="17.6443674">
        <ele>31.8607</ele>
        <time>2013-03-10T11:27:57Z</time>
      </trkpt>
      <trkpt lat="59.8924516" lon="17.644393">
        <ele>31.8607</ele>
        <time>2013-03-10T11:27:58Z</time>
      </trkpt>
      <trkpt lat="59.8924507" lon="17.6444145">
        <ele>31.3801</ele>
        <time>2013-03-10T11:27:59Z</time>
      </trkpt>
      <trkpt lat="59.8924485" lon="17.6444412">
        <ele>31.8607</ele>
        <time>2013-03-10T11:28:00Z</time>
      </trkpt>
      <trkpt lat="59.892447" lon="17.6444679">
        <ele>31.8607</ele>
        <time>2013-03-10T11:28:01Z</time>
      </trkpt>
      <trkpt lat="59.8924455" lon="17.6444931">
        <ele>31.3801</ele>
        <time>2013-03-10T11:28:02Z</time>
      </trkpt>
      <trkpt lat="59.8924409" lon="17.6445159">
        <ele>31.3801</ele>
        <time>2013-03-10T11:28:03Z</time>
      </trkpt>
      <trkpt lat="59.8924368" lon="17.644536">
        <ele>31.3801</ele>
        <time>2013-03-10T11:28:04Z</time>
      </trkpt>
      <trkpt lat="59.8924331" lon="17.6445559">
        <ele>31.3801</ele>
        <time>2013-03-10T11:28:05Z</time>
      </trkpt>
      <trkpt lat="59.8924293" lon="17.6445783">
        <ele>31.3801</ele>
        <time>2013-03-10T11:28:06Z</time>
      </trkpt>
      <trkpt lat="59.8924267" lon="17.6446056">
        <ele>31.3801</ele>
        <time>2013-03-10T11:28:07Z</time>
      </trkpt>
      <trkpt lat="59.8924228" lon="17.6446237">
        <ele>30.8995</ele>
        <time>2013-03-10T11:28:08Z</time>
      </trkpt>
      <trkpt lat="59.8924212" lon="17.6446481">
        <ele>30.8995</ele>
        <time>2013-03-10T11:28:09Z</time>
      </trkpt>
      <trkpt lat="59.8924195" lon="17.6446756">
        <ele>30.8995</ele>
        <time>2013-03-10T11:28:10Z</time>
      </trkpt>
      <trkpt lat="59.8924161" lon="17.6447007">
        <ele>30.4188</ele>
        <time>2013-03-10T11:28:11Z</time>
      </trkpt>
      <trkpt lat="59.8924142" lon="17.6447287">
        <ele>30.4188</ele>
        <time>2013-03-10T11:28:12Z</time>
      </trkpt>
      <trkpt lat="59.8924107" lon="17.6447475">
        <ele>29.9381</ele>
        <time>2013-03-10T11:28:13Z</time>
      </trkpt>
      <trkpt lat="59.8924066" lon="17.6447713">
        <ele>29.9381</ele>
        <time>2013-03-10T11:28:14Z</time>
      </trkpt>
      <trkpt lat="59.8924049" lon="17.6447977">
        <ele>29.9381</ele>
        <time>2013-03-10T11:28:15Z</time>
      </trkpt>
      <trkpt lat="59.8924034" lon="17.6448287">
        <ele>29.9381</ele>
        <time>2013-03-10T11:28:16Z</time>
      </trkpt>
      <trkpt lat="59.8924005" lon="17.6448527">
        <ele>29.9381</ele>
        <time>2013-03-10T11:28:17Z</time>
      </trkpt>
      <trkpt lat="59.892398" lon="17.644876">
        <ele>29.9381</ele>
        <time>2013-03-10T11:28:18Z</time>
      </trkpt>
      <trkpt lat="59.8923962" lon="17.6449009">
        <ele>29.9381</ele>
        <time>2013-03-10T11:28:19Z</time>
      </trkpt>
      <trkpt lat="59.8923933" lon="17.6449217">
        <ele>29.4575</ele>
        <time>2013-03-10T11:28:20Z</time>
      </trkpt>
      <trkpt lat="59.8923902" lon="17.6449468">
        <ele>29.4575</ele>
        <time>2013-03-10T11:28:21Z</time>
      </trkpt>
      <trkpt lat="59.8923883" lon="17.6449727">
        <ele>29.4575</ele>
        <time>2013-03-10T11:28:22Z</time>
      </trkpt>
      <trkpt lat="59.8923871" lon="17.6449984">
        <ele>29.4575</ele>
        <time>2013-03-10T11:28:23Z</time>
      </trkpt>
      <trkpt lat="59.892386" lon="17.6450229">
        <ele>29.4575</ele>
        <time>2013-03-10T11:28:24Z</time>
      </trkpt>
      <trkpt lat="59.8923839" lon="17.6450462">
        <ele>28.9769</ele>
        <time>2013-03-10T11:28:25Z</time>
      </trkpt>
      <trkpt lat="59.8923816" lon="17.6450701">
        <ele>28.9769</ele>
        <time>2013-03-10T11:28:26Z</time>
      </trkpt>
      <trkpt lat="59.8923788" lon="17.6450934">
        <ele>28.9769</ele>
        <time>2013-03-10T11:28:27Z</time>
      </trkpt>
      <trkpt lat="59.8923762" lon="17.6451167">
        <ele>28.9769</ele>
        <time>2013-03-10T11:28:28Z</time>
      </trkpt>
      <trkpt lat="59.8923744" lon="17.6451413">
        <ele>28.9769</ele>
        <time>2013-03-10T11:28:29Z</time>
      </trkpt>
      <trkpt lat="59.8923719" lon="17.6451666">
        <ele>28.9769</ele>
        <time>2013-03-10T11:28:30Z</time>
      </trkpt>
      <trkpt lat="59.8923688" lon="17.6451913">
        <ele>28.9769</ele>
        <time>2013-03-10T11:28:31Z</time>
      </trkpt>
      <trkpt lat="59.8923658" lon="17.6452165">
        <ele>28.9769</ele>
        <time>2013-03-10T11:28:32Z</time>
      </trkpt>
      <trkpt lat="59.8923627" lon="17.6452418">
        <ele>28.4962</ele>
        <time>2013-03-10T11:28:33Z</time>
      </trkpt>
      <trkpt lat="59.8923605" lon="17.6452675">
        <ele>28.4962</ele>
        <time>2013-03-10T11:28:34Z</time>
      </trkpt>
      <trkpt lat="59.8923589" lon="17.6452937">
        <ele>28.9769</ele>
        <time>2013-03-10T11:28:35Z</time>
      </trkpt>
      <trkpt lat="59.892358" lon="17.6453172">
        <ele>28.9769</ele>
        <time>2013-03-10T11:28:36Z</time>
      </trkpt>
      <trkpt lat="59.8923563" lon="17.6453566">
        <ele>29.9381</ele>
        <time>2013-03-10T11:28:37Z</time>
      </trkpt>
      <trkpt lat="59.8923546" lon="17.645389">
        <ele>30.4188</ele>
        <time>2013-03-10T11:28:38Z</time>
      </trkpt>
      <trkpt lat="59.8923533" lon="17.6454179">
        <ele>30.8995</ele>
        <time>2013-03-10T11:28:39Z</time>
      </trkpt>
      <trkpt lat="59.8923512" lon="17.6454468">
        <ele>31.3801</ele>
        <time>2013-03-10T11:28:40Z</time>
      </trkpt>
      <trkpt lat="59.892349" lon="17.6454746">
        <ele>31.3801</ele>
        <time>2013-03-10T11:28:41Z</time>
      </trkpt>
      <trkpt lat="59.8923474" lon="17.6455049">
        <ele>31.8607</ele>
        <time>2013-03-10T11:28:42Z</time>
      </trkpt>
      <trkpt lat="59.8923461" lon="17.6455205">
        <ele>30.8995</ele>
        <time>2013-03-10T11:28:43Z</time>
      </trkpt>
      <trkpt lat="59.8923429" lon="17.6455452">
        <ele>30.8995</ele>
        <time>2013-03-10T11:28:44Z</time>
      </trkpt>
      <trkpt lat="59.8923383" lon="17.6455848">
        <ele>31.8607</ele>
        <time>2013-03-10T11:28:45Z</time>
      </trkpt>
      <trkpt lat="59.8923353" lon="17.6456098">
        <ele>31.8607</ele>
        <time>2013-03-10T11:28:46Z</time>
      </trkpt>
      <trkpt lat="59.8923311" lon="17.6456344">
        <ele>31.8607</ele>
        <time>2013-03-10T11:28:47Z</time>
      </trkpt>
      <trkpt lat="59.8923272" lon="17.6456591">
        <ele>31.8607</ele>
        <time>2013-03-10T11:28:48Z</time>
      </trkpt>
      <trkpt lat="59.8923239" lon="17.6456865">
        <ele>31.8607</ele>
        <time>2013-03-10T11:28:49Z</time>
      </trkpt>
      <trkpt lat="59.8923211" lon="17.6457132">
        <ele>31.8607</ele>
        <time>2013-03-10T11:28:50Z</time>
      </trkpt>
      <trkpt lat="59.8923194" lon="17.64574">
        <ele>31.8607</ele>
        <time>2013-03-10T11:28:51Z</time>
      </trkpt>
      <trkpt lat="59.8923176" lon="17.645766">
        <ele>31.8607</ele>
        <time>2013-03-10T11:28:52Z</time>
      </trkpt>
      <trkpt lat="59.8923135" lon="17.6457904">
        <ele>31.3801</ele>
        <time>2013-03-10T11:28:53Z</time>
      </trkpt>
      <trkpt lat="59.8923118" lon="17.6458152">
        <ele>31.3801</ele>
        <time>2013-03-10T11:28:54Z</time>
      </trkpt>
      <trkpt lat="59.8923117" lon="17.6458427">
        <ele>31.3801</ele>
        <time>2013-03-10T11:28:55Z</time>
      </trkpt>
      <trkpt lat="59.8923106" lon="17.6458668">
        <ele>31.3801</ele>
        <time>2013-03-10T11:28:56Z</time>
      </trkpt>
      <trkpt lat="59.8923088" lon="17.645892">
        <ele>31.3801</ele>
        <time>2013-03-10T11:28:57Z</time>
      </trkpt>
      <trkpt lat="59.8923059" lon="17.6459147">
        <ele>31.3801</ele>
        <time>2013-03-10T11:28:58Z</time>
      </trkpt>
      <trkpt lat="59.8923025" lon="17.645939">
        <ele>31.3801</ele>
        <time>2013-03-10T11:28:59Z</time>
      </trkpt>
      <trkpt lat="59.8922995" lon="17.645966">
        <ele>31.8607</ele>
        <time>2013-03-10T11:29:00Z</time>
      </trkpt>
      <trkpt lat="59.8922972" lon="17.6459913">
        <ele>31.8607</ele>
        <time>2013-03-10T11:29:01Z</time>
      </trkpt>
      <trkpt lat="59.8922948" lon="17.6460168">
        <ele>31.8607</ele>
        <time>2013-03-10T11:29:02Z</time>
      </trkpt>
      <trkpt lat="59.8922925" lon="17.646039">
        <ele>31.3801</ele>
        <time>2013-03-10T11:29:03Z</time>
      </trkpt>
      <trkpt lat="59.8922904" lon="17.6460606">
        <ele>30.8995</ele>
        <time>2013-03-10T11:29:04Z</time>
      </trkpt>
      <trkpt lat="59.892288" lon="17.6460846">
        <ele>30.8995</ele>
        <time>2013-03-10T11:29:05Z</time>
      </trkpt>
      <trkpt lat="59.8922848" lon="17.6461098">
        <ele>30.8995</ele>
        <time>2013-03-10T11:29:06Z</time>
      </trkpt>
      <trkpt lat="59.8922813" lon="17.6461367">
        <ele>30.8995</ele>
        <time>2013-03-10T11:29:07Z</time>
      </trkpt>
      <trkpt lat="59.8922773" lon="17.6461627">
        <ele>30.4188</ele>
        <time>2013-03-10T11:29:08Z</time>
      </trkpt>
      <trkpt lat="59.8922733" lon="17.6461867">
        <ele>30.4188</ele>
        <time>2013-03-10T11:29:09Z</time>
      </trkpt>
      <trkpt lat="59.8922683" lon="17.6462128">
        <ele>30.4188</ele>
        <time>2013-03-10T11:29:10Z</time>
      </trkpt>
      <trkpt lat="59.8922647" lon="17.6462406">
        <ele>30.4188</ele>
        <time>2013-03-10T11:29:11Z</time>
      </trkpt>
      <trkpt lat="59.8922609" lon="17.6462653">
        <ele>30.4188</ele>
        <time>2013-03-10T11:29:12Z</time>
      </trkpt>
      <trkpt lat="59.8922576" lon="17.6462907">
        <ele>29.9381</ele>
        <time>2013-03-10T11:29:13Z</time>
      </trkpt>
      <trkpt lat="59.8922543" lon="17.6463161">
        <ele>30.4188</ele>
        <time>2013-03-10T11:29:14Z</time>
      </trkpt>
      <trkpt lat="59.8922513" lon="17.6463418">
        <ele>30.4188</ele>
        <time>2013-03-10T11:29:15Z</time>
      </trkpt>
      <trkpt lat="59.8922487" lon="17.6463679">
        <ele>30.4188</ele>
        <time>2013-03-10T11:29:16Z</time>
      </trkpt>
      <trkpt lat="59.8922465" lon="17.6463923">
        <ele>29.9381</ele>
        <time>2013-03-10T11:29:17Z</time>
      </trkpt>
      <trkpt lat="59.8922436" lon="17.646416">
        <ele>29.9381</ele>
        <time>2013-03-10T11:29:18Z</time>
      </trkpt>
      <trkpt lat="59.8922393" lon="17.6464395">
        <ele>29.9381</ele>
        <time>2013-03-10T11:29:19Z</time>
      </trkpt>
      <trkpt lat="59.8922369" lon="17.6464623">
        <ele>29.4575</ele>
        <time>2013-03-10T11:29:20Z</time>
      </trkpt>
      <trkpt lat="59.8922353" lon="17.6464886">
        <ele>29.4575</ele>
        <time>2013-03-10T11:29:21Z</time>
      </trkpt>
      <trkpt lat="59.8922322" lon="17.6465149">
        <ele>29.4575</ele>
        <time>2013-03-10T11:29:22Z</time>
      </trkpt>
      <trkpt lat="59.8922295" lon="17.6465412">
        <ele>29.4575</ele>
        <time>2013-03-10T11:29:23Z</time>
      </trkpt>
      <trkpt lat="59.892227" lon="17.646564">
        <ele>28.9769</ele>
        <time>2013-03-10T11:29:24Z</time>
      </trkpt>
      <trkpt lat="59.8922238" lon="17.6465918">
        <ele>28.9769</ele>
        <time>2013-03-10T11:29:25Z</time>
      </trkpt>
      <trkpt lat="59.8922192" lon="17.646615">
        <ele>28.9769</ele>
        <time>2013-03-10T11:29:26Z</time>
      </trkpt>
      <trkpt lat="59.8922143" lon="17.6466391">
        <ele>28.4962</ele>
        <time>2013-03-10T11:29:27Z</time>
      </trkpt>
      <trkpt lat="59.8922089" lon="17.6466636">
        <ele>28.4962</ele>
        <time>2013-03-10T11:29:28Z</time>
      </trkpt>
      <trkpt lat="59.8922046" lon="17.6466885">
        <ele>28.4962</ele>
        <time>2013-03-10T11:29:29Z</time>
      </trkpt>
      <trkpt lat="59.8922011" lon="17.6467144">
        <ele>28.4962</ele>
        <time>2013-03-10T11:29:30Z</time>
      </trkpt>
      <trkpt lat="59.8921994" lon="17.6467413">
        <ele>28.4962</ele>
        <time>2013-03-10T11:29:31Z</time>
      </trkpt>
      <trkpt lat="59.8921979" lon="17.646766">
        <ele>28.4962</ele>
        <time>2013-03-10T11:29:32Z</time>
      </trkpt>
      <trkpt lat="59.8921963" lon="17.6467932">
        <ele>28.4962</ele>
        <time>2013-03-10T11:29:33Z</time>
      </trkpt>
      <trkpt lat="59.8921944" lon="17.6468228">
        <ele>28.4962</ele>
        <time>2013-03-10T11:29:34Z</time>
      </trkpt>
      <trkpt lat="59.8921932" lon="17.6468518">
        <ele>28.9769</ele>
        <time>2013-03-10T11:29:35Z</time>
      </trkpt>
      <trkpt lat="59.8921917" lon="17.6468772">
        <ele>28.9769</ele>
        <time>2013-03-10T11:29:36Z</time>
      </trkpt>
      <trkpt lat="59.8921894" lon="17.6469013">
        <ele>28.9769</ele>
        <time>2013-03-10T11:29:37Z</time>
      </trkpt>
      <trkpt lat="59.8921864" lon="17.6469248">
        <ele>28.9769</ele>
        <time>2013-03-10T11:29:38Z</time>
      </trkpt>
      <trkpt lat="59.8921829" lon="17.6469494">
        <ele>28.9769</ele>
        <time>2013-03-10T11:29:39Z</time>
      </trkpt>
      <trkpt lat="59.8921792" lon="17.6469785">
        <ele>28.9769</ele>
        <time>2013-03-10T11:29:40Z</time>
      </trkpt>
      <trkpt lat="59.8921747" lon="17.6470055">
        <ele>28.9769</ele>
        <time>2013-03-10T11:29:41Z</time>
      </trkpt>
      <trkpt lat="59.8921711" lon="17.6470303">
        <ele>28.9769</ele>
        <time>2013-03-10T11:29:42Z</time>
      </trkpt>
      <trkpt lat="59.8921683" lon="17.6470558">
        <ele>28.9769</ele>
        <time>2013-03-10T11:29:43Z</time>
      </trkpt>
      <trkpt lat="59.8921658" lon="17.6470807">
        <ele>28.9769</ele>
        <time>2013-03-10T11:29:44Z</time>
      </trkpt>
      <trkpt lat="59.8921623" lon="17.6471007">
        <ele>28.9769</ele>
        <time>2013-03-10T11:29:45Z</time>
      </trkpt>
      <trkpt lat="59.8921588" lon="17.647123">
        <ele>28.4962</ele>
        <time>2013-03-10T11:29:46Z</time>
      </trkpt>
      <trkpt lat="59.8921553" lon="17.647145">
        <ele>28.4962</ele>
        <time>2013-03-10T11:29:47Z</time>
      </trkpt>
      <trkpt lat="59.8921527" lon="17.6471623">
        <ele>28.0155</ele>
        <time>2013-03-10T11:29:48Z</time>
      </trkpt>
      <trkpt lat="59.8921502" lon="17.6471863">
        <ele>28.0155</ele>
        <time>2013-03-10T11:29:49Z</time>
      </trkpt>
      <trkpt lat="59.8921477" lon="17.6472107">
        <ele>28.0155</ele>
        <time>2013-03-10T11:29:50Z</time>
      </trkpt>
      <trkpt lat="59.8921461" lon="17.6472334">
        <ele>27.5349</ele>
        <time>2013-03-10T11:29:51Z</time>
      </trkpt>
      <trkpt lat="59.8921457" lon="17.6472598">
        <ele>27.5349</ele>
        <time>2013-03-10T11:29:52Z</time>
      </trkpt>
      <trkpt lat="59.8921434" lon="17.6472848">
        <ele>27.5349</ele>
        <time>2013-03-10T11:29:53Z</time>
      </trkpt>
      <trkpt lat="59.8921426" lon="17.6473096">
        <ele>28.0155</ele>
        <time>2013-03-10T11:29:54Z</time>
      </trkpt>
      <trkpt lat="59.8921405" lon="17.647334">
        <ele>28.0155</ele>
        <time>2013-03-10T11:29:55Z</time>
      </trkpt>
      <trkpt lat="59.8921366" lon="17.6473796">
        <ele>29.4575</ele>
        <time>2013-03-10T11:29:56Z</time>
      </trkpt>
      <trkpt lat="59.8921352" lon="17.6474048">
        <ele>29.4575</ele>
        <time>2013-03-10T11:29:57Z</time>
      </trkpt>
      <trkpt lat="59.8921326" lon="17.6474271">
        <ele>29.4575</ele>
        <time>2013-03-10T11:29:58Z</time>
      </trkpt>
      <trkpt lat="59.8921305" lon="17.6474552">
        <ele>29.4575</ele>
        <time>2013-03-10T11:29:59Z</time>
      </trkpt>
      <trkpt lat="59.8921274" lon="17.6474832">
        <ele>29.9381</ele>
        <time>2013-03-10T11:30:00Z</time>
      </trkpt>
      <trkpt lat="59.8921236" lon="17.6475095">
        <ele>29.9381</ele>
        <time>2013-03-10T11:30:01Z</time>
      </trkpt>
      <trkpt lat="59.8921186" lon="17.6475348">
        <ele>29.9381</ele>
        <time>2013-03-10T11:30:02Z</time>
      </trkpt>
      <trkpt lat="59.892114" lon="17.6475592">
        <ele>29.9381</ele>
        <time>2013-03-10T11:30:03Z</time>
      </trkpt>
      <trkpt lat="59.8921097" lon="17.6475831">
        <ele>29.9381</ele>
        <time>2013-03-10T11:30:04Z</time>
      </trkpt>
      <trkpt lat="59.8921047" lon="17.6476078">
        <ele>29.9381</ele>
        <time>2013-03-10T11:30:05Z</time>
      </trkpt>
      <trkpt lat="59.8921005" lon="17.6476375">
        <ele>29.9381</ele>
        <time>2013-03-10T11:30:06Z</time>
      </trkpt>
      <trkpt lat="59.8920964" lon="17.6476613">
        <ele>29.4575</ele>
        <time>2013-03-10T11:30:07Z</time>
      </trkpt>
      <trkpt lat="59.892091" lon="17.6476846">
        <ele>29.4575</ele>
        <time>2013-03-10T11:30:08Z</time>
      </trkpt>
      <trkpt lat="59.8920865" lon="17.6477088">
        <ele>29.4575</ele>
        <time>2013-03-10T11:30:09Z</time>
      </trkpt>
      <trkpt lat="59.8920833" lon="17.6477309">
        <ele>29.4575</ele>
        <time>2013-03-10T11:30:10Z</time>
      </trkpt>
      <trkpt lat="59.8920801" lon="17.6477551">
        <ele>29.4575</ele>
        <time>2013-03-10T11:30:11Z</time>
      </trkpt>
      <trkpt lat="59.8920767" lon="17.647779">
        <ele>29.9381</ele>
        <time>2013-03-10T11:30:12Z</time>
      </trkpt>
      <trkpt lat="59.8920736" lon="17.6478028">
        <ele>29.9381</ele>
        <time>2013-03-10T11:30:13Z</time>
      </trkpt>
      <trkpt lat="59.8920699" lon="17.6478251">
        <ele>29.9381</ele>
        <time>2013-03-10T11:30:14Z</time>
      </trkpt>
      <trkpt lat="59.8920662" lon="17.6478484">
        <ele>29.9381</ele>
        <time>2013-03-10T11:30:15Z</time>
      </trkpt>
      <trkpt lat="59.8920628" lon="17.6478743">
        <ele>29.9381</ele>
        <time>2013-03-10T11:30:16Z</time>
      </trkpt>
      <trkpt lat="59.8920597" lon="17.6479015">
        <ele>29.9381</ele>
        <time>2013-03-10T11:30:17Z</time>
      </trkpt>
      <trkpt lat="59.8920565" lon="17.6479287">
        <ele>30.4188</ele>
        <time>2013-03-10T11:30:18Z</time>
      </trkpt>
      <trkpt lat="59.8920529" lon="17.6479587">
        <ele>30.8995</ele>
        <time>2013-03-10T11:30:19Z</time>
      </trkpt>
      <trkpt lat="59.8920481" lon="17.6479825">
        <ele>30.8995</ele>
        <time>2013-03-10T11:30:20Z</time>
      </trkpt>
      <trkpt lat="59.8920442" lon="17.6480051">
        <ele>31.3801</ele>
        <time>2013-03-10T11:30:21Z</time>
      </trkpt>
      <trkpt lat="59.8920425" lon="17.648031">
        <ele>30.8995</ele>
        <time>2013-03-10T11:30:22Z</time>
      </trkpt>
      <trkpt lat="59.8920408" lon="17.6480621">
        <ele>30.8995</ele>
        <time>2013-03-10T11:30:23Z</time>
      </trkpt>
      <trkpt lat="59.8920362" lon="17.6480902">
        <ele>30.8995</ele>
        <time>2013-03-10T11:30:24Z</time>
      </trkpt>
      <trkpt lat="59.892032" lon="17.6481172">
        <ele>31.3801</ele>
        <time>2013-03-10T11:30:25Z</time>
      </trkpt>
      <trkpt lat="59.8920293" lon="17.6481452">
        <ele>31.8607</ele>
        <time>2013-03-10T11:30:26Z</time>
      </trkpt>
      <trkpt lat="59.8920259" lon="17.6481772">
        <ele>31.8607</ele>
        <time>2013-03-10T11:30:27Z</time>
      </trkpt>
      <trkpt lat="59.8920212" lon="17.6482068">
        <ele>31.8607</ele>
        <time>2013-03-10T11:30:28Z</time>
      </trkpt>
      <trkpt lat="59.8920166" lon="17.6482369">
        <ele>32.3416</ele>
        <time>2013-03-10T11:30:29Z</time>
      </trkpt>
      <trkpt lat="59.8920104" lon="17.6482688">
        <ele>32.3416</ele>
        <time>2013-03-10T11:30:30Z</time>
      </trkpt>
      <trkpt lat="59.8920037" lon="17.6483026">
        <ele>32.3416</ele>
        <time>2013-03-10T11:30:31Z</time>
      </trkpt>
      <trkpt lat="59.8919975" lon="17.6483315">
        <ele>32.8223</ele>
        <time>2013-03-10T11:30:32Z</time>
      </trkpt>
      <trkpt lat="59.8919924" lon="17.648357">
        <ele>32.8223</ele>
        <time>2013-03-10T11:30:33Z</time>
      </trkpt>
      <trkpt lat="59.891989" lon="17.6483833">
        <ele>32.8223</ele>
        <time>2013-03-10T11:30:34Z</time>
      </trkpt>
      <trkpt lat="59.8919845" lon="17.6484074">
        <ele>32.8223</ele>
        <time>2013-03-10T11:30:35Z</time>
      </trkpt>
      <trkpt lat="59.8919812" lon="17.6484341">
        <ele>33.3029</ele>
        <time>2013-03-10T11:30:36Z</time>
      </trkpt>
      <trkpt lat="59.8919773" lon="17.6484604">
        <ele>32.8223</ele>
        <time>2013-03-10T11:30:37Z</time>
      </trkpt>
      <trkpt lat="59.8919746" lon="17.6484879">
        <ele>32.8223</ele>
        <time>2013-03-10T11:30:38Z</time>
      </trkpt>
      <trkpt lat="59.8919742" lon="17.6485133">
        <ele>32.8223</ele>
        <time>2013-03-10T11:30:39Z</time>
      </trkpt>
      <trkpt lat="59.8919736" lon="17.6485397">
        <ele>33.3029</ele>
        <time>2013-03-10T11:30:40Z</time>
      </trkpt>
      <trkpt lat="59.8919715" lon="17.6485649">
        <ele>33.3029</ele>
        <time>2013-03-10T11:30:41Z</time>
      </trkpt>
      <trkpt lat="59.8919689" lon="17.6485899">
        <ele>33.3029</ele>
        <time>2013-03-10T11:30:42Z</time>
      </trkpt>
      <trkpt lat="59.8919662" lon="17.648615">
        <ele>33.7834</ele>
        <time>2013-03-10T11:30:43Z</time>
      </trkpt>
      <trkpt lat="59.8919623" lon="17.648642">
        <ele>33.7834</ele>
        <time>2013-03-10T11:30:44Z</time>
      </trkpt>
      <trkpt lat="59.8919581" lon="17.6486703">
        <ele>33.7834</ele>
        <time>2013-03-10T11:30:45Z</time>
      </trkpt>
      <trkpt lat="59.8919537" lon="17.6487">
        <ele>33.7834</ele>
        <time>2013-03-10T11:30:46Z</time>
      </trkpt>
      <trkpt lat="59.8919494" lon="17.6487278">
        <ele>34.2642</ele>
        <time>2013-03-10T11:30:47Z</time>
      </trkpt>
      <trkpt lat="59.891946" lon="17.648757">
        <ele>34.7449</ele>
        <time>2013-03-10T11:30:48Z</time>
      </trkpt>
      <trkpt lat="59.8919425" lon="17.648787">
        <ele>34.7449</ele>
        <time>2013-03-10T11:30:49Z</time>
      </trkpt>
      <trkpt lat="59.8919379" lon="17.648816">
        <ele>34.7449</ele>
        <time>2013-03-10T11:30:50Z</time>
      </trkpt>
      <trkpt lat="59.8919326" lon="17.6488443">
        <ele>34.7449</ele>
        <time>2013-03-10T11:30:51Z</time>
      </trkpt>
      <trkpt lat="59.8919274" lon="17.648874">
        <ele>34.7449</ele>
        <time>2013-03-10T11:30:52Z</time>
      </trkpt>
      <trkpt lat="59.8919219" lon="17.648903">
        <ele>34.7449</ele>
        <time>2013-03-10T11:30:53Z</time>
      </trkpt>
      <trkpt lat="59.8919164" lon="17.6489303">
        <ele>34.7449</ele>
        <time>2013-03-10T11:30:54Z</time>
      </trkpt>
      <trkpt lat="59.8919108" lon="17.6489585">
        <ele>35.2255</ele>
        <time>2013-03-10T11:30:55Z</time>
      </trkpt>
      <trkpt lat="59.8919063" lon="17.6489885">
        <ele>35.2255</ele>
        <time>2013-03-10T11:30:56Z</time>
      </trkpt>
      <trkpt lat="59.8919021" lon="17.6490163">
        <ele>35.2255</ele>
        <time>2013-03-10T11:30:57Z</time>
      </trkpt>
      <trkpt lat="59.8918974" lon="17.6490434">
        <ele>35.7061</ele>
        <time>2013-03-10T11:30:58Z</time>
      </trkpt>
      <trkpt lat="59.8918928" lon="17.6490709">
        <ele>35.7061</ele>
        <time>2013-03-10T11:30:59Z</time>
      </trkpt>
      <trkpt lat="59.8918881" lon="17.6490989">
        <ele>36.1868</ele>
        <time>2013-03-10T11:31:00Z</time>
      </trkpt>
      <trkpt lat="59.8918836" lon="17.6491261">
        <ele>36.1868</ele>
        <time>2013-03-10T11:31:01Z</time>
      </trkpt>
      <trkpt lat="59.8918793" lon="17.6491527">
        <ele>36.1868</ele>
        <time>2013-03-10T11:31:02Z</time>
      </trkpt>
      <trkpt lat="59.8918752" lon="17.6491807">
        <ele>36.1868</ele>
        <time>2013-03-10T11:31:03Z</time>
      </trkpt>
      <trkpt lat="59.891871" lon="17.6492079">
        <ele>36.1868</ele>
        <time>2013-03-10T11:31:04Z</time>
      </trkpt>
      <trkpt lat="59.8918665" lon="17.6492335">
        <ele>36.1868</ele>
        <time>2013-03-10T11:31:05Z</time>
      </trkpt>
      <trkpt lat="59.8918622" lon="17.6492584">
        <ele>36.1868</ele>
        <time>2013-03-10T11:31:06Z</time>
      </trkpt>
      <trkpt lat="59.8918577" lon="17.6492822">
        <ele>36.1868</ele>
        <time>2013-03-10T11:31:07Z</time>
      </trkpt>
      <trkpt lat="59.8918528" lon="17.6493045">
        <ele>36.1868</ele>
        <time>2013-03-10T11:31:08Z</time>
      </trkpt>
      <trkpt lat="59.891848" lon="17.6493268">
        <ele>36.1868</ele>
        <time>2013-03-10T11:31:09Z</time>
      </trkpt>
      <trkpt lat="59.8918429" lon="17.6493511">
        <ele>36.1868</ele>
        <time>2013-03-10T11:31:10Z</time>
      </trkpt>
      <trkpt lat="59.8918374" lon="17.6493781">
        <ele>36.1868</ele>
        <time>2013-03-10T11:31:11Z</time>
      </trkpt>
      <trkpt lat="59.8918325" lon="17.6494065">
        <ele>36.1868</ele>
        <time>2013-03-10T11:31:12Z</time>
      </trkpt>
      <trkpt lat="59.8918278" lon="17.6494344">
        <ele>36.6675</ele>
        <time>2013-03-10T11:31:13Z</time>
      </trkpt>
      <trkpt lat="59.8918229" lon="17.6494613">
        <ele>36.6675</ele>
        <time>2013-03-10T11:31:14Z</time>
      </trkpt>
      <trkpt lat="59.8918172" lon="17.6494878">
        <ele>36.6675</ele>
        <time>2013-03-10T11:31:15Z</time>
      </trkpt>
      <trkpt lat="59.8918118" lon="17.6495143">
        <ele>36.6675</ele>
        <time>2013-03-10T11:31:16Z</time>
      </trkpt>
      <trkpt lat="59.8918063" lon="17.6495405">
        <ele>36.6675</ele>
        <time>2013-03-10T11:31:17Z</time>
      </trkpt>
      <trkpt lat="59.8918011" lon="17.6495687">
        <ele>37.1481</ele>
        <time>2013-03-10T11:31:18Z</time>
      </trkpt>
      <trkpt lat="59.8917953" lon="17.6495947">
        <ele>37.1481</ele>
        <time>2013-03-10T11:31:19Z</time>
      </trkpt>
      <trkpt lat="59.8917897" lon="17.649617">
        <ele>37.6287</ele>
        <time>2013-03-10T11:31:20Z</time>
      </trkpt>
      <trkpt lat="59.8917853" lon="17.6496405">
        <ele>37.6287</ele>
        <time>2013-03-10T11:31:21Z</time>
      </trkpt>
      <trkpt lat="59.8917809" lon="17.6496657">
        <ele>38.1094</ele>
        <time>2013-03-10T11:31:22Z</time>
      </trkpt>
      <trkpt lat="59.891776" lon="17.6496913">
        <ele>38.1094</ele>
        <time>2013-03-10T11:31:23Z</time>
      </trkpt>
      <trkpt lat="59.8917712" lon="17.6497175">
        <ele>38.1094</ele>
        <time>2013-03-10T11:31:24Z</time>
      </trkpt>
      <trkpt lat="59.8917664" lon="17.6497421">
        <ele>38.1094</ele>
        <time>2013-03-10T11:31:25Z</time>
      </trkpt>
      <trkpt lat="59.8917615" lon="17.6497663">
        <ele>38.1094</ele>
        <time>2013-03-10T11:31:26Z</time>
      </trkpt>
      <trkpt lat="59.891757" lon="17.6497898">
        <ele>38.1094</ele>
        <time>2013-03-10T11:31:27Z</time>
      </trkpt>
      <trkpt lat="59.8917522" lon="17.6498158">
        <ele>38.1094</ele>
        <time>2013-03-10T11:31:28Z</time>
      </trkpt>
      <trkpt lat="59.8917475" lon="17.6498415">
        <ele>38.5901</ele>
        <time>2013-03-10T11:31:29Z</time>
      </trkpt>
      <trkpt lat="59.8917431" lon="17.6498651">
        <ele>38.5901</ele>
        <time>2013-03-10T11:31:30Z</time>
      </trkpt>
      <trkpt lat="59.891739" lon="17.6498877">
        <ele>38.5901</ele>
        <time>2013-03-10T11:31:31Z</time>
      </trkpt>
      <trkpt lat="59.8917343" lon="17.6499095">
        <ele>38.5901</ele>
        <time>2013-03-10T11:31:32Z</time>
      </trkpt>
      <trkpt lat="59.8917287" lon="17.6499354">
        <ele>39.0707</ele>
        <time>2013-03-10T11:31:33Z</time>
      </trkpt>
      <trkpt lat="59.8917229" lon="17.6499603">
        <ele>39.0707</ele>
        <time>2013-03-10T11:31:34Z</time>
      </trkpt>
      <trkpt lat="59.8917171" lon="17.6499845">
        <ele>39.0707</ele>
        <time>2013-03-10T11:31:35Z</time>
      </trkpt>
      <trkpt lat="59.891711" lon="17.6500096">
        <ele>39.0707</ele>
        <time>2013-03-10T11:31:36Z</time>
      </trkpt>
      <trkpt lat="59.8917052" lon="17.650035">
        <ele>39.0707</ele>
        <time>2013-03-10T11:31:37Z</time>
      </trkpt>
      <trkpt lat="59.8916986" lon="17.6500586">
        <ele>39.0707</ele>
        <time>2013-03-10T11:31:38Z</time>
      </trkpt>
      <trkpt lat="59.8916922" lon="17.650083">
        <ele>39.0707</ele>
        <time>2013-03-10T11:31:39Z</time>
      </trkpt>
      <trkpt lat="59.8916857" lon="17.6501082">
        <ele>39.0707</ele>
        <time>2013-03-10T11:31:40Z</time>
      </trkpt>
      <trkpt lat="59.8916788" lon="17.6501334">
        <ele>39.5513</ele>
        <time>2013-03-10T11:31:41Z</time>
      </trkpt>
      <trkpt lat="59.8916721" lon="17.6501575">
        <ele>39.5513</ele>
        <time>2013-03-10T11:31:42Z</time>
      </trkpt>
      <trkpt lat="59.891666" lon="17.650182">
        <ele>39.5513</ele>
        <time>2013-03-10T11:31:43Z</time>
      </trkpt>
      <trkpt lat="59.8916602" lon="17.6502051">
        <ele>39.5513</ele>
        <time>2013-03-10T11:31:44Z</time>
      </trkpt>
      <trkpt lat="59.8916545" lon="17.650227">
        <ele>39.5513</ele>
        <time>2013-03-10T11:31:45Z</time>
      </trkpt>
      <trkpt lat="59.8916484" lon="17.6502498">
        <ele>39.5513</ele>
        <time>2013-03-10T11:31:46Z</time>
      </trkpt>
      <trkpt lat="59.8916424" lon="17.6502725">
        <ele>39.5513</ele>
        <time>2013-03-10T11:31:47Z</time>
      </trkpt>
      <trkpt lat="59.8916359" lon="17.6502949">
        <ele>39.5513</ele>
        <time>2013-03-10T11:31:48Z</time>
      </trkpt>
      <trkpt lat="59.8916291" lon="17.650317">
        <ele>39.5513</ele>
        <time>2013-03-10T11:31:49Z</time>
      </trkpt>
      <trkpt lat="59.8916225" lon="17.6503415">
        <ele>39.5513</ele>
        <time>2013-03-10T11:31:50Z</time>
      </trkpt>
      <trkpt lat="59.8916162" lon="17.650365">
        <ele>39.5513</ele>
        <time>2013-03-10T11:31:51Z</time>
      </trkpt>
      <trkpt lat="59.8916097" lon="17.6503885">
        <ele>39.5513</ele>
        <time>2013-03-10T11:31:52Z</time>
      </trkpt>
      <trkpt lat="59.891603" lon="17.6504131">
        <ele>39.5513</ele>
        <time>2013-03-10T11:31:53Z</time>
      </trkpt>
      <trkpt lat="59.8915955" lon="17.6504373">
        <ele>39.5513</ele>
        <time>2013-03-10T11:31:54Z</time>
      </trkpt>
      <trkpt lat="59.8915881" lon="17.6504607">
        <ele>39.5513</ele>
        <time>2013-03-10T11:31:55Z</time>
      </trkpt>
      <trkpt lat="59.8915811" lon="17.6504853">
        <ele>39.5513</ele>
        <time>2013-03-10T11:31:56Z</time>
      </trkpt>
      <trkpt lat="59.891574" lon="17.6505097">
        <ele>39.5513</ele>
        <time>2013-03-10T11:31:57Z</time>
      </trkpt>
      <trkpt lat="59.8915659" lon="17.6505348">
        <ele>40.0321</ele>
        <time>2013-03-10T11:31:58Z</time>
      </trkpt>
      <trkpt lat="59.8915581" lon="17.6505594">
        <ele>40.0321</ele>
        <time>2013-03-10T11:31:59Z</time>
      </trkpt>
      <trkpt lat="59.8915499" lon="17.6505829">
        <ele>40.0321</ele>
        <time>2013-03-10T11:32:00Z</time>
      </trkpt>
      <trkpt lat="59.8915421" lon="17.6506092">
        <ele>40.5128</ele>
        <time>2013-03-10T11:32:01Z</time>
      </trkpt>
      <trkpt lat="59.8915352" lon="17.6506352">
        <ele>40.5128</ele>
        <time>2013-03-10T11:32:02Z</time>
      </trkpt>
      <trkpt lat="59.8915276" lon="17.6506617">
        <ele>40.5128</ele>
        <time>2013-03-10T11:32:03Z</time>
      </trkpt>
      <trkpt lat="59.8915197" lon="17.6506876">
        <ele>40.9934</ele>
        <time>2013-03-10T11:32:04Z</time>
      </trkpt>
      <trkpt lat="59.8915119" lon="17.65071">
        <ele>40.9934</ele>
        <time>2013-03-10T11:32:05Z</time>
      </trkpt>
      <trkpt lat="59.8915049" lon="17.6507346">
        <ele>40.9934</ele>
        <time>2013-03-10T11:32:06Z</time>
      </trkpt>
      <trkpt lat="59.8914979" lon="17.6507602">
        <ele>40.9934</ele>
        <time>2013-03-10T11:32:07Z</time>
      </trkpt>
      <trkpt lat="59.8914903" lon="17.6507839">
        <ele>40.9934</ele>
        <time>2013-03-10T11:32:08Z</time>
      </trkpt>
      <trkpt lat="59.8914846" lon="17.6508047">
        <ele>40.9934</ele>
        <time>2013-03-10T11:32:09Z</time>
      </trkpt>
      <trkpt lat="59.8914803" lon="17.650826">
        <ele>40.9934</ele>
        <time>2013-03-10T11:32:10Z</time>
      </trkpt>
      <trkpt lat="59.8914737" lon="17.6508495">
        <ele>41.474</ele>
        <time>2013-03-10T11:32:11Z</time>
      </trkpt>
      <trkpt lat="59.8914652" lon="17.6508741">
        <ele>41.474</ele>
        <time>2013-03-10T11:32:12Z</time>
      </trkpt>
      <trkpt lat="59.891458" lon="17.650897">
        <ele>41.474</ele>
        <time>2013-03-10T11:32:13Z</time>
      </trkpt>
      <trkpt lat="59.8914515" lon="17.6509206">
        <ele>41.9547</ele>
        <time>2013-03-10T11:32:14Z</time>
      </trkpt>
      <trkpt lat="59.8914458" lon="17.6509424">
        <ele>41.9547</ele>
        <time>2013-03-10T11:32:15Z</time>
      </trkpt>
      <trkpt lat="59.8914399" lon="17.6509633">
        <ele>41.9547</ele>
        <time>2013-03-10T11:32:16Z</time>
      </trkpt>
      <trkpt lat="59.8914333" lon="17.650988">
        <ele>41.9547</ele>
        <time>2013-03-10T11:32:17Z</time>
      </trkpt>
      <trkpt lat="59.8914264" lon="17.6510116">
        <ele>41.9547</ele>
        <time>2013-03-10T11:32:18Z</time>
      </trkpt>
      <trkpt lat="59.8914198" lon="17.6510357">
        <ele>41.9547</ele>
        <time>2013-03-10T11:32:19Z</time>
      </trkpt>
      <trkpt lat="59.8914134" lon="17.6510588">
        <ele>41.9547</ele>
        <time>2013-03-10T11:32:20Z</time>
      </trkpt>
      <trkpt lat="59.8914068" lon="17.6510814">
        <ele>41.9547</ele>
        <time>2013-03-10T11:32:21Z</time>
      </trkpt>
      <trkpt lat="59.8914001" lon="17.6511047">
        <ele>41.9547</ele>
        <time>2013-03-10T11:32:22Z</time>
      </trkpt>
      <trkpt lat="59.8913934" lon="17.6511273">
        <ele>41.9547</ele>
        <time>2013-03-10T11:32:23Z</time>
      </trkpt>
      <trkpt lat="59.8913872" lon="17.6511481">
        <ele>41.9547</ele>
        <time>2013-03-10T11:32:24Z</time>
      </trkpt>
      <trkpt lat="59.8913825" lon="17.6511703">
        <ele>42.4354</ele>
        <time>2013-03-10T11:32:25Z</time>
      </trkpt>
      <trkpt lat="59.8913784" lon="17.6511926">
        <ele>42.4354</ele>
        <time>2013-03-10T11:32:26Z</time>
      </trkpt>
      <trkpt lat="59.8913744" lon="17.651213">
        <ele>41.9547</ele>
        <time>2013-03-10T11:32:27Z</time>
      </trkpt>
      <trkpt lat="59.8913705" lon="17.6512325">
        <ele>41.9547</ele>
        <time>2013-03-10T11:32:28Z</time>
      </trkpt>
      <trkpt lat="59.8913661" lon="17.651253">
        <ele>41.9547</ele>
        <time>2013-03-10T11:32:29Z</time>
      </trkpt>
      <trkpt lat="59.8913619" lon="17.6512745">
        <ele>41.474</ele>
        <time>2013-03-10T11:32:30Z</time>
      </trkpt>
      <trkpt lat="59.8913582" lon="17.6512976">
        <ele>41.474</ele>
        <time>2013-03-10T11:32:31Z</time>
      </trkpt>
      <trkpt lat="59.8913542" lon="17.6513175">
        <ele>41.474</ele>
        <time>2013-03-10T11:32:32Z</time>
      </trkpt>
      <trkpt lat="59.8913511" lon="17.6513408">
        <ele>40.9934</ele>
        <time>2013-03-10T11:32:33Z</time>
      </trkpt>
      <trkpt lat="59.8913473" lon="17.6513636">
        <ele>40.9934</ele>
        <time>2013-03-10T11:32:34Z</time>
      </trkpt>
      <trkpt lat="59.891343" lon="17.6513847">
        <ele>40.9934</ele>
        <time>2013-03-10T11:32:35Z</time>
      </trkpt>
      <trkpt lat="59.891339" lon="17.6514044">
        <ele>40.5128</ele>
        <time>2013-03-10T11:32:36Z</time>
      </trkpt>
      <trkpt lat="59.8913344" lon="17.6514271">
        <ele>40.5128</ele>
        <time>2013-03-10T11:32:37Z</time>
      </trkpt>
      <trkpt lat="59.891329" lon="17.65145">
        <ele>40.5128</ele>
        <time>2013-03-10T11:32:38Z</time>
      </trkpt>
      <trkpt lat="59.8913229" lon="17.6514713">
        <ele>40.5128</ele>
        <time>2013-03-10T11:32:39Z</time>
      </trkpt>
      <trkpt lat="59.8913162" lon="17.6514947">
        <ele>40.5128</ele>
        <time>2013-03-10T11:32:40Z</time>
      </trkpt>
      <trkpt lat="59.8913095" lon="17.6515179">
        <ele>40.5128</ele>
        <time>2013-03-10T11:32:41Z</time>
      </trkpt>
      <trkpt lat="59.8913026" lon="17.6515406">
        <ele>40.5128</ele>
        <time>2013-03-10T11:32:42Z</time>
      </trkpt>
      <trkpt lat="59.891295" lon="17.6515652">
        <ele>40.5128</ele>
        <time>2013-03-10T11:32:43Z</time>
      </trkpt>
      <trkpt lat="59.8912871" lon="17.6515874">
        <ele>40.5128</ele>
        <time>2013-03-10T11:32:44Z</time>
      </trkpt>
      <trkpt lat="59.89128" lon="17.6516089">
        <ele>40.0321</ele>
        <time>2013-03-10T11:32:45Z</time>
      </trkpt>
      <trkpt lat="59.8912734" lon="17.6516309">
        <ele>40.0321</ele>
        <time>2013-03-10T11:32:46Z</time>
      </trkpt>
      <trkpt lat="59.8912675" lon="17.6516526">
        <ele>40.0321</ele>
        <time>2013-03-10T11:32:47Z</time>
      </trkpt>
      <trkpt lat="59.8912611" lon="17.6516726">
        <ele>39.5513</ele>
        <time>2013-03-10T11:32:48Z</time>
      </trkpt>
      <trkpt lat="59.8912541" lon="17.651695">
        <ele>39.5513</ele>
        <time>2013-03-10T11:32:49Z</time>
      </trkpt>
      <trkpt lat="59.8912474" lon="17.6517152">
        <ele>39.0707</ele>
        <time>2013-03-10T11:32:50Z</time>
      </trkpt>
      <trkpt lat="59.8912422" lon="17.6517381">
        <ele>39.5513</ele>
        <time>2013-03-10T11:32:51Z</time>
      </trkpt>
      <trkpt lat="59.8912369" lon="17.6517608">
        <ele>39.5513</ele>
        <time>2013-03-10T11:32:52Z</time>
      </trkpt>
      <trkpt lat="59.8912309" lon="17.651785">
        <ele>39.5513</ele>
        <time>2013-03-10T11:32:53Z</time>
      </trkpt>
      <trkpt lat="59.8912246" lon="17.6518086">
        <ele>39.5513</ele>
        <time>2013-03-10T11:32:54Z</time>
      </trkpt>
      <trkpt lat="59.8912169" lon="17.6518303">
        <ele>39.5513</ele>
        <time>2013-03-10T11:32:55Z</time>
      </trkpt>
      <trkpt lat="59.8912095" lon="17.6518536">
        <ele>39.0707</ele>
        <time>2013-03-10T11:32:56Z</time>
      </trkpt>
      <trkpt lat="59.8912021" lon="17.6518769">
        <ele>39.0707</ele>
        <time>2013-03-10T11:32:57Z</time>
      </trkpt>
      <trkpt lat="59.891193" lon="17.6518954">
        <ele>39.0707</ele>
        <time>2013-03-10T11:32:58Z</time>
      </trkpt>
      <trkpt lat="59.8911841" lon="17.6519137">
        <ele>38.5901</ele>
        <time>2013-03-10T11:32:59Z</time>
      </trkpt>
      <trkpt lat="59.8911764" lon="17.6519338">
        <ele>38.5901</ele>
        <time>2013-03-10T11:33:00Z</time>
      </trkpt>
      <trkpt lat="59.8911686" lon="17.6519546">
        <ele>38.1094</ele>
        <time>2013-03-10T11:33:01Z</time>
      </trkpt>
      <trkpt lat="59.8911608" lon="17.6519779">
        <ele>38.1094</ele>
        <time>2013-03-10T11:33:02Z</time>
      </trkpt>
      <trkpt lat="59.891153" lon="17.6519987">
        <ele>38.1094</ele>
        <time>2013-03-10T11:33:03Z</time>
      </trkpt>
      <trkpt lat="59.8911448" lon="17.6520194">
        <ele>38.1094</ele>
        <time>2013-03-10T11:33:04Z</time>
      </trkpt>
      <trkpt lat="59.8911384" lon="17.6520421">
        <ele>38.1094</ele>
        <time>2013-03-10T11:33:05Z</time>
      </trkpt>
      <trkpt lat="59.8911333" lon="17.6520661">
        <ele>38.1094</ele>
        <time>2013-03-10T11:33:06Z</time>
      </trkpt>
      <trkpt lat="59.8911268" lon="17.6520908">
        <ele>38.5901</ele>
        <time>2013-03-10T11:33:07Z</time>
      </trkpt>
      <trkpt lat="59.8911202" lon="17.6521145">
        <ele>38.5901</ele>
        <time>2013-03-10T11:33:08Z</time>
      </trkpt>
      <trkpt lat="59.8911141" lon="17.6521374">
        <ele>38.5901</ele>
        <time>2013-03-10T11:33:09Z</time>
      </trkpt>
      <trkpt lat="59.8911068" lon="17.6521583">
        <ele>38.5901</ele>
        <time>2013-03-10T11:33:10Z</time>
      </trkpt>
      <trkpt lat="59.8910998" lon="17.6521787">
        <ele>38.5901</ele>
        <time>2013-03-10T11:33:11Z</time>
      </trkpt>
      <trkpt lat="59.8910934" lon="17.652196">
        <ele>38.1094</ele>
        <time>2013-03-10T11:33:12Z</time>
      </trkpt>
      <trkpt lat="59.8910869" lon="17.6522126">
        <ele>38.1094</ele>
        <time>2013-03-10T11:33:13Z</time>
      </trkpt>
      <trkpt lat="59.8910803" lon="17.6522282">
        <ele>37.6287</ele>
        <time>2013-03-10T11:33:14Z</time>
      </trkpt>
      <trkpt lat="59.8910733" lon="17.6522471">
        <ele>37.6287</ele>
        <time>2013-03-10T11:33:15Z</time>
      </trkpt>
      <trkpt lat="59.8910666" lon="17.6522687">
        <ele>37.6287</ele>
        <time>2013-03-10T11:33:16Z</time>
      </trkpt>
      <trkpt lat="59.8910591" lon="17.6522894">
        <ele>37.6287</ele>
        <time>2013-03-10T11:33:17Z</time>
      </trkpt>
      <trkpt lat="59.8910515" lon="17.6523091">
        <ele>37.6287</ele>
        <time>2013-03-10T11:33:18Z</time>
      </trkpt>
      <trkpt lat="59.8910453" lon="17.6523307">
        <ele>37.6287</ele>
        <time>2013-03-10T11:33:19Z</time>
      </trkpt>
      <trkpt lat="59.8910387" lon="17.6523529">
        <ele>38.1094</ele>
        <time>2013-03-10T11:33:20Z</time>
      </trkpt>
      <trkpt lat="59.8910319" lon="17.6523742">
        <ele>38.1094</ele>
        <time>2013-03-10T11:33:21Z</time>
      </trkpt>
      <trkpt lat="59.8910251" lon="17.6523965">
        <ele>38.1094</ele>
        <time>2013-03-10T11:33:22Z</time>
      </trkpt>
      <trkpt lat="59.8910187" lon="17.6524197">
        <ele>38.5901</ele>
        <time>2013-03-10T11:33:23Z</time>
      </trkpt>
      <trkpt lat="59.8910111" lon="17.6524405">
        <ele>38.1094</ele>
        <time>2013-03-10T11:33:24Z</time>
      </trkpt>
      <trkpt lat="59.8910044" lon="17.652461">
        <ele>38.1094</ele>
        <time>2013-03-10T11:33:25Z</time>
      </trkpt>
      <trkpt lat="59.8909977" lon="17.6524799">
        <ele>38.1094</ele>
        <time>2013-03-10T11:33:26Z</time>
      </trkpt>
      <trkpt lat="59.8909913" lon="17.6525">
        <ele>38.1094</ele>
        <time>2013-03-10T11:33:27Z</time>
      </trkpt>
      <trkpt lat="59.8909852" lon="17.6525204">
        <ele>38.1094</ele>
        <time>2013-03-10T11:33:28Z</time>
      </trkpt>
      <trkpt lat="59.8909793" lon="17.6525429">
        <ele>38.1094</ele>
        <time>2013-03-10T11:33:29Z</time>
      </trkpt>
      <trkpt lat="59.8909743" lon="17.6525628">
        <ele>38.1094</ele>
        <time>2013-03-10T11:33:30Z</time>
      </trkpt>
      <trkpt lat="59.8909688" lon="17.6525817">
        <ele>38.1094</ele>
        <time>2013-03-10T11:33:31Z</time>
      </trkpt>
      <trkpt lat="59.8909618" lon="17.6526011">
        <ele>38.1094</ele>
        <time>2013-03-10T11:33:32Z</time>
      </trkpt>
      <trkpt lat="59.8909541" lon="17.6526206">
        <ele>38.1094</ele>
        <time>2013-03-10T11:33:33Z</time>
      </trkpt>
      <trkpt lat="59.8909458" lon="17.6526389">
        <ele>38.1094</ele>
        <time>2013-03-10T11:33:34Z</time>
      </trkpt>
      <trkpt lat="59.8909381" lon="17.6526602">
        <ele>38.1094</ele>
        <time>2013-03-10T11:33:35Z</time>
      </trkpt>
      <trkpt lat="59.8909314" lon="17.6526835">
        <ele>38.1094</ele>
        <time>2013-03-10T11:33:36Z</time>
      </trkpt>
      <trkpt lat="59.890925" lon="17.6527035">
        <ele>37.6287</ele>
        <time>2013-03-10T11:33:37Z</time>
      </trkpt>
      <trkpt lat="59.8909182" lon="17.6527213">
        <ele>37.6287</ele>
        <time>2013-03-10T11:33:38Z</time>
      </trkpt>
      <trkpt lat="59.8909111" lon="17.6527403">
        <ele>37.6287</ele>
        <time>2013-03-10T11:33:39Z</time>
      </trkpt>
      <trkpt lat="59.8909037" lon="17.6527597">
        <ele>37.1481</ele>
        <time>2013-03-10T11:33:40Z</time>
      </trkpt>
      <trkpt lat="59.8908968" lon="17.6527788">
        <ele>37.1481</ele>
        <time>2013-03-10T11:33:41Z</time>
      </trkpt>
      <trkpt lat="59.8908904" lon="17.6527948">
        <ele>37.1481</ele>
        <time>2013-03-10T11:33:42Z</time>
      </trkpt>
      <trkpt lat="59.8908837" lon="17.6528093">
        <ele>36.6675</ele>
        <time>2013-03-10T11:33:43Z</time>
      </trkpt>
      <trkpt lat="59.8908753" lon="17.6528276">
        <ele>36.6675</ele>
        <time>2013-03-10T11:33:44Z</time>
      </trkpt>
      <trkpt lat="59.8908656" lon="17.6528451">
        <ele>36.6675</ele>
        <time>2013-03-10T11:33:45Z</time>
      </trkpt>
      <trkpt lat="59.8908547" lon="17.652862">
        <ele>36.1868</ele>
        <time>2013-03-10T11:33:46Z</time>
      </trkpt>
      <trkpt lat="59.8908443" lon="17.6528811">
        <ele>36.1868</ele>
        <time>2013-03-10T11:33:47Z</time>
      </trkpt>
      <trkpt lat="59.8908346" lon="17.6529011">
        <ele>36.1868</ele>
        <time>2013-03-10T11:33:48Z</time>
      </trkpt>
      <trkpt lat="59.8908252" lon="17.6529233">
        <ele>36.1868</ele>
        <time>2013-03-10T11:33:49Z</time>
      </trkpt>
      <trkpt lat="59.8908143" lon="17.652944">
        <ele>36.1868</ele>
        <time>2013-03-10T11:33:50Z</time>
      </trkpt>
      <trkpt lat="59.8908023" lon="17.6529618">
        <ele>35.7061</ele>
        <time>2013-03-10T11:33:51Z</time>
      </trkpt>
      <trkpt lat="59.8907903" lon="17.6529725">
        <ele>35.2255</ele>
        <time>2013-03-10T11:33:52Z</time>
      </trkpt>
      <trkpt lat="59.8907799" lon="17.6529887">
        <ele>35.2255</ele>
        <time>2013-03-10T11:33:53Z</time>
      </trkpt>
      <trkpt lat="59.8907707" lon="17.6530058">
        <ele>35.2255</ele>
        <time>2013-03-10T11:33:54Z</time>
      </trkpt>
      <trkpt lat="59.8907608" lon="17.6530228">
        <ele>35.2255</ele>
        <time>2013-03-10T11:33:55Z</time>
      </trkpt>
      <trkpt lat="59.8907509" lon="17.6530388">
        <ele>34.7449</ele>
        <time>2013-03-10T11:33:56Z</time>
      </trkpt>
      <trkpt lat="59.8907413" lon="17.6530538">
        <ele>34.7449</ele>
        <time>2013-03-10T11:33:57Z</time>
      </trkpt>
      <trkpt lat="59.8907323" lon="17.6530718">
        <ele>34.2642</ele>
        <time>2013-03-10T11:33:58Z</time>
      </trkpt>
      <trkpt lat="59.8907239" lon="17.6530913">
        <ele>34.2642</ele>
        <time>2013-03-10T11:33:59Z</time>
      </trkpt>
      <trkpt lat="59.8907154" lon="17.6531089">
        <ele>34.2642</ele>
        <time>2013-03-10T11:34:00Z</time>
      </trkpt>
      <trkpt lat="59.890707" lon="17.6531264">
        <ele>34.2642</ele>
        <time>2013-03-10T11:34:01Z</time>
      </trkpt>
      <trkpt lat="59.8906971" lon="17.6531435">
        <ele>34.2642</ele>
        <time>2013-03-10T11:34:02Z</time>
      </trkpt>
      <trkpt lat="59.8906874" lon="17.6531599">
        <ele>34.2642</ele>
        <time>2013-03-10T11:34:03Z</time>
      </trkpt>
      <trkpt lat="59.8906771" lon="17.6531751">
        <ele>34.2642</ele>
        <time>2013-03-10T11:34:04Z</time>
      </trkpt>
      <trkpt lat="59.8906666" lon="17.6531885">
        <ele>33.7834</ele>
        <time>2013-03-10T11:34:05Z</time>
      </trkpt>
      <trkpt lat="59.8906552" lon="17.6532028">
        <ele>33.7834</ele>
        <time>2013-03-10T11:34:06Z</time>
      </trkpt>
      <trkpt lat="59.8906433" lon="17.6532179">
        <ele>34.2642</ele>
        <time>2013-03-10T11:34:07Z</time>
      </trkpt>
      <trkpt lat="59.8906329" lon="17.6532336">
        <ele>34.2642</ele>
        <time>2013-03-10T11:34:08Z</time>
      </trkpt>
      <trkpt lat="59.8906224" lon="17.6532487">
        <ele>34.2642</ele>
        <time>2013-03-10T11:34:09Z</time>
      </trkpt>
      <trkpt lat="59.8906107" lon="17.6532641">
        <ele>34.2642</ele>
        <time>2013-03-10T11:34:10Z</time>
      </trkpt>
      <trkpt lat="59.8905979" lon="17.6532795">
        <ele>34.7449</ele>
        <time>2013-03-10T11:34:11Z</time>
      </trkpt>
      <trkpt lat="59.8905844" lon="17.6532917">
        <ele>34.7449</ele>
        <time>2013-03-10T11:34:12Z</time>
      </trkpt>
      <trkpt lat="59.8905718" lon="17.653307">
        <ele>34.7449</ele>
        <time>2013-03-10T11:34:13Z</time>
      </trkpt>
      <trkpt lat="59.8905608" lon="17.6533237">
        <ele>35.2255</ele>
        <time>2013-03-10T11:34:14Z</time>
      </trkpt>
      <trkpt lat="59.8905499" lon="17.6533387">
        <ele>35.2255</ele>
        <time>2013-03-10T11:34:15Z</time>
      </trkpt>
      <trkpt lat="59.8905396" lon="17.6533507">
        <ele>35.2255</ele>
        <time>2013-03-10T11:34:16Z</time>
      </trkpt>
      <trkpt lat="59.8905303" lon="17.6533636">
        <ele>35.2255</ele>
        <time>2013-03-10T11:34:17Z</time>
      </trkpt>
      <trkpt lat="59.8905222" lon="17.6533786">
        <ele>35.2255</ele>
        <time>2013-03-10T11:34:18Z</time>
      </trkpt>
      <trkpt lat="59.8905139" lon="17.6533957">
        <ele>35.2255</ele>
        <time>2013-03-10T11:34:19Z</time>
      </trkpt>
      <trkpt lat="59.8905057" lon="17.6534148">
        <ele>35.7061</ele>
        <time>2013-03-10T11:34:20Z</time>
      </trkpt>
      <trkpt lat="59.8904974" lon="17.6534367">
        <ele>35.7061</ele>
        <time>2013-03-10T11:34:21Z</time>
      </trkpt>
      <trkpt lat="59.8904889" lon="17.6534605">
        <ele>36.1868</ele>
        <time>2013-03-10T11:34:22Z</time>
      </trkpt>
      <trkpt lat="59.8904807" lon="17.6534848">
        <ele>36.1868</ele>
        <time>2013-03-10T11:34:23Z</time>
      </trkpt>
      <trkpt lat="59.8904734" lon="17.65351">
        <ele>36.1868</ele>
        <time>2013-03-10T11:34:24Z</time>
      </trkpt>
      <trkpt lat="59.8904656" lon="17.6535328">
        <ele>36.1868</ele>
        <time>2013-03-10T11:34:25Z</time>
      </trkpt>
      <trkpt lat="59.8904574" lon="17.653553">
        <ele>36.1868</ele>
        <time>2013-03-10T11:34:26Z</time>
      </trkpt>
      <trkpt lat="59.8904494" lon="17.6535734">
        <ele>36.1868</ele>
        <time>2013-03-10T11:34:27Z</time>
      </trkpt>
      <trkpt lat="59.8904414" lon="17.6535948">
        <ele>36.1868</ele>
        <time>2013-03-10T11:34:28Z</time>
      </trkpt>
      <trkpt lat="59.8904326" lon="17.6536162">
        <ele>36.1868</ele>
        <time>2013-03-10T11:34:29Z</time>
      </trkpt>
      <trkpt lat="59.8904233" lon="17.6536354">
        <ele>35.7061</ele>
        <time>2013-03-10T11:34:30Z</time>
      </trkpt>
      <trkpt lat="59.8904145" lon="17.6536538">
        <ele>35.7061</ele>
        <time>2013-03-10T11:34:31Z</time>
      </trkpt>
      <trkpt lat="59.8904061" lon="17.6536717">
        <ele>35.7061</ele>
        <time>2013-03-10T11:34:32Z</time>
      </trkpt>
      <trkpt lat="59.8903974" lon="17.6536929">
        <ele>35.7061</ele>
        <time>2013-03-10T11:34:33Z</time>
      </trkpt>
      <trkpt lat="59.8903891" lon="17.6537152">
        <ele>35.7061</ele>
        <time>2013-03-10T11:34:34Z</time>
      </trkpt>
      <trkpt lat="59.8903823" lon="17.6537367">
        <ele>35.7061</ele>
        <time>2013-03-10T11:34:35Z</time>
      </trkpt>
      <trkpt lat="59.8903745" lon="17.6537564">
        <ele>35.2255</ele>
        <time>2013-03-10T11:34:36Z</time>
      </trkpt>
      <trkpt lat="59.8903656" lon="17.6537754">
        <ele>35.2255</ele>
        <time>2013-03-10T11:34:37Z</time>
      </trkpt>
      <trkpt lat="59.8903565" lon="17.6537936">
        <ele>35.2255</ele>
        <time>2013-03-10T11:34:38Z</time>
      </trkpt>
      <trkpt lat="59.8903481" lon="17.6538108">
        <ele>35.2255</ele>
        <time>2013-03-10T11:34:39Z</time>
      </trkpt>
      <trkpt lat="59.8903417" lon="17.6538297">
        <ele>34.7449</ele>
        <time>2013-03-10T11:34:40Z</time>
      </trkpt>
      <trkpt lat="59.8903351" lon="17.6538488">
        <ele>34.7449</ele>
        <time>2013-03-10T11:34:41Z</time>
      </trkpt>
      <trkpt lat="59.890328" lon="17.6538675">
        <ele>34.7449</ele>
        <time>2013-03-10T11:34:42Z</time>
      </trkpt>
      <trkpt lat="59.8903209" lon="17.6538847">
        <ele>34.7449</ele>
        <time>2013-03-10T11:34:43Z</time>
      </trkpt>
      <trkpt lat="59.8903135" lon="17.6539021">
        <ele>34.7449</ele>
        <time>2013-03-10T11:34:44Z</time>
      </trkpt>
      <trkpt lat="59.8903061" lon="17.653919">
        <ele>34.7449</ele>
        <time>2013-03-10T11:34:45Z</time>
      </trkpt>
      <trkpt lat="59.8902984" lon="17.6539379">
        <ele>34.7449</ele>
        <time>2013-03-10T11:34:46Z</time>
      </trkpt>
      <trkpt lat="59.8902906" lon="17.6539586">
        <ele>34.2642</ele>
        <time>2013-03-10T11:34:47Z</time>
      </trkpt>
      <trkpt lat="59.8902823" lon="17.6539793">
        <ele>34.2642</ele>
        <time>2013-03-10T11:34:48Z</time>
      </trkpt>
      <trkpt lat="59.890274" lon="17.6539992">
        <ele>34.2642</ele>
        <time>2013-03-10T11:34:49Z</time>
      </trkpt>
      <trkpt lat="59.8902681" lon="17.6540211">
        <ele>34.2642</ele>
        <time>2013-03-10T11:34:50Z</time>
      </trkpt>
      <trkpt lat="59.890263" lon="17.6540468">
        <ele>34.2642</ele>
        <time>2013-03-10T11:34:51Z</time>
      </trkpt>
      <trkpt lat="59.890256" lon="17.6540723">
        <ele>34.2642</ele>
        <time>2013-03-10T11:34:52Z</time>
      </trkpt>
      <trkpt lat="59.8902487" lon="17.6540962">
        <ele>33.7834</ele>
        <time>2013-03-10T11:34:53Z</time>
      </trkpt>
      <trkpt lat="59.8902407" lon="17.6541184">
        <ele>33.7834</ele>
        <time>2013-03-10T11:34:54Z</time>
      </trkpt>
      <trkpt lat="59.8902314" lon="17.6541401">
        <ele>33.3029</ele>
        <time>2013-03-10T11:34:55Z</time>
      </trkpt>
      <trkpt lat="59.8902244" lon="17.6541609">
        <ele>33.3029</ele>
        <time>2013-03-10T11:34:56Z</time>
      </trkpt>
      <trkpt lat="59.8902174" lon="17.6541795">
        <ele>32.8223</ele>
        <time>2013-03-10T11:34:57Z</time>
      </trkpt>
      <trkpt lat="59.8902093" lon="17.6541987">
        <ele>32.8223</ele>
        <time>2013-03-10T11:34:58Z</time>
      </trkpt>
      <trkpt lat="59.8901995" lon="17.6542174">
        <ele>32.3416</ele>
        <time>2013-03-10T11:34:59Z</time>
      </trkpt>
      <trkpt lat="59.8901907" lon="17.6542353">
        <ele>32.3416</ele>
        <time>2013-03-10T11:35:00Z</time>
      </trkpt>
      <trkpt lat="59.8901843" lon="17.6542555">
        <ele>32.3416</ele>
        <time>2013-03-10T11:35:01Z</time>
      </trkpt>
      <trkpt lat="59.8901783" lon="17.6542783">
        <ele>32.3416</ele>
        <time>2013-03-10T11:35:02Z</time>
      </trkpt>
      <trkpt lat="59.8901704" lon="17.6543028">
        <ele>32.3416</ele>
        <time>2013-03-10T11:35:03Z</time>
      </trkpt>
      <trkpt lat="59.890163" lon="17.6543261">
        <ele>32.3416</ele>
        <time>2013-03-10T11:35:04Z</time>
      </trkpt>
      <trkpt lat="59.8901547" lon="17.6543474">
        <ele>32.3416</ele>
        <time>2013-03-10T11:35:05Z</time>
      </trkpt>
      <trkpt lat="59.8901466" lon="17.6543683">
        <ele>32.3416</ele>
        <time>2013-03-10T11:35:06Z</time>
      </trkpt>
      <trkpt lat="59.8901389" lon="17.6543892">
        <ele>32.3416</ele>
        <time>2013-03-10T11:35:07Z</time>
      </trkpt>
      <trkpt lat="59.8901313" lon="17.65441">
        <ele>32.3416</ele>
        <time>2013-03-10T11:35:08Z</time>
      </trkpt>
      <trkpt lat="59.8901244" lon="17.6544342">
        <ele>32.3416</ele>
        <time>2013-03-10T11:35:09Z</time>
      </trkpt>
      <trkpt lat="59.8901181" lon="17.6544598">
        <ele>32.8223</ele>
        <time>2013-03-10T11:35:10Z</time>
      </trkpt>
      <trkpt lat="59.8901107" lon="17.6544851">
        <ele>32.8223</ele>
        <time>2013-03-10T11:35:11Z</time>
      </trkpt>
      <trkpt lat="59.8901036" lon="17.654508">
        <ele>32.8223</ele>
        <time>2013-03-10T11:35:12Z</time>
      </trkpt>
      <trkpt lat="59.8900953" lon="17.65453">
        <ele>32.8223</ele>
        <time>2013-03-10T11:35:13Z</time>
      </trkpt>
      <trkpt lat="59.8900869" lon="17.6545519">
        <ele>32.8223</ele>
        <time>2013-03-10T11:35:14Z</time>
      </trkpt>
      <trkpt lat="59.8900785" lon="17.6545738">
        <ele>33.3029</ele>
        <time>2013-03-10T11:35:15Z</time>
      </trkpt>
      <trkpt lat="59.8900685" lon="17.6545956">
        <ele>33.3029</ele>
        <time>2013-03-10T11:35:16Z</time>
      </trkpt>
      <trkpt lat="59.8900597" lon="17.6546181">
        <ele>33.3029</ele>
        <time>2013-03-10T11:35:17Z</time>
      </trkpt>
      <trkpt lat="59.8900549" lon="17.6546405">
        <ele>33.3029</ele>
        <time>2013-03-10T11:35:18Z</time>
      </trkpt>
      <trkpt lat="59.8900498" lon="17.6546665">
        <ele>33.3029</ele>
        <time>2013-03-10T11:35:19Z</time>
      </trkpt>
      <trkpt lat="59.8900424" lon="17.6546918">
        <ele>33.3029</ele>
        <time>2013-03-10T11:35:20Z</time>
      </trkpt>
      <trkpt lat="59.8900338" lon="17.6547173">
        <ele>33.7834</ele>
        <time>2013-03-10T11:35:21Z</time>
      </trkpt>
      <trkpt lat="59.8900246" lon="17.6547395">
        <ele>33.7834</ele>
        <time>2013-03-10T11:35:22Z</time>
      </trkpt>
      <trkpt lat="59.8900155" lon="17.6547591">
        <ele>33.7834</ele>
        <time>2013-03-10T11:35:23Z</time>
      </trkpt>
      <trkpt lat="59.8900073" lon="17.6547809">
        <ele>33.7834</ele>
        <time>2013-03-10T11:35:24Z</time>
      </trkpt>
      <trkpt lat="59.8899992" lon="17.6548028">
        <ele>33.7834</ele>
        <time>2013-03-10T11:35:25Z</time>
      </trkpt>
      <trkpt lat="59.8899907" lon="17.654824">
        <ele>33.7834</ele>
        <time>2013-03-10T11:35:26Z</time>
      </trkpt>
      <trkpt lat="59.8899827" lon="17.6548452">
        <ele>33.7834</ele>
        <time>2013-03-10T11:35:27Z</time>
      </trkpt>
      <trkpt lat="59.8899744" lon="17.6548648">
        <ele>33.3029</ele>
        <time>2013-03-10T11:35:28Z</time>
      </trkpt>
      <trkpt lat="59.8899658" lon="17.6548839">
        <ele>33.3029</ele>
        <time>2013-03-10T11:35:29Z</time>
      </trkpt>
      <trkpt lat="59.8899575" lon="17.6549021">
        <ele>32.8223</ele>
        <time>2013-03-10T11:35:30Z</time>
      </trkpt>
      <trkpt lat="59.8899482" lon="17.6549202">
        <ele>32.8223</ele>
        <time>2013-03-10T11:35:31Z</time>
      </trkpt>
      <trkpt lat="59.8899388" lon="17.6549389">
        <ele>32.8223</ele>
        <time>2013-03-10T11:35:32Z</time>
      </trkpt>
      <trkpt lat="59.889931" lon="17.6549586">
        <ele>32.8223</ele>
        <time>2013-03-10T11:35:33Z</time>
      </trkpt>
      <trkpt lat="59.8899244" lon="17.6549782">
        <ele>32.8223</ele>
        <time>2013-03-10T11:35:34Z</time>
      </trkpt>
      <trkpt lat="59.8899179" lon="17.6549979">
        <ele>32.8223</ele>
        <time>2013-03-10T11:35:35Z</time>
      </trkpt>
      <trkpt lat="59.8899077" lon="17.6550197">
        <ele>32.8223</ele>
        <time>2013-03-10T11:35:36Z</time>
      </trkpt>
      <trkpt lat="59.8898994" lon="17.655042">
        <ele>32.8223</ele>
        <time>2013-03-10T11:35:37Z</time>
      </trkpt>
      <trkpt lat="59.8898927" lon="17.6550642">
        <ele>32.3416</ele>
        <time>2013-03-10T11:35:38Z</time>
      </trkpt>
      <trkpt lat="59.8898848" lon="17.6550829">
        <ele>32.3416</ele>
        <time>2013-03-10T11:35:39Z</time>
      </trkpt>
      <trkpt lat="59.8898773" lon="17.6551019">
        <ele>32.3416</ele>
        <time>2013-03-10T11:35:40Z</time>
      </trkpt>
      <trkpt lat="59.8898688" lon="17.6551217">
        <ele>32.3416</ele>
        <time>2013-03-10T11:35:41Z</time>
      </trkpt>
      <trkpt lat="59.8898601" lon="17.6551417">
        <ele>31.8607</ele>
        <time>2013-03-10T11:35:42Z</time>
      </trkpt>
      <trkpt lat="59.8898518" lon="17.6551597">
        <ele>31.8607</ele>
        <time>2013-03-10T11:35:43Z</time>
      </trkpt>
      <trkpt lat="59.8898433" lon="17.6551783">
        <ele>31.3801</ele>
        <time>2013-03-10T11:35:44Z</time>
      </trkpt>
      <trkpt lat="59.889835" lon="17.6551979">
        <ele>31.3801</ele>
        <time>2013-03-10T11:35:45Z</time>
      </trkpt>
      <trkpt lat="59.8898266" lon="17.6552186">
        <ele>31.3801</ele>
        <time>2013-03-10T11:35:46Z</time>
      </trkpt>
      <trkpt lat="59.8898187" lon="17.6552419">
        <ele>31.3801</ele>
        <time>2013-03-10T11:35:47Z</time>
      </trkpt>
      <trkpt lat="59.8898108" lon="17.6552635">
        <ele>31.3801</ele>
        <time>2013-03-10T11:35:48Z</time>
      </trkpt>
      <trkpt lat="59.889802" lon="17.6552812">
        <ele>31.3801</ele>
        <time>2013-03-10T11:35:49Z</time>
      </trkpt>
      <trkpt lat="59.8897926" lon="17.6552999">
        <ele>30.8995</ele>
        <time>2013-03-10T11:35:50Z</time>
      </trkpt>
      <trkpt lat="59.8897843" lon="17.65532">
        <ele>30.8995</ele>
        <time>2013-03-10T11:35:51Z</time>
      </trkpt>
      <trkpt lat="59.8897766" lon="17.6553391">
        <ele>30.8995</ele>
        <time>2013-03-10T11:35:52Z</time>
      </trkpt>
      <trkpt lat="59.8897693" lon="17.6553605">
        <ele>30.8995</ele>
        <time>2013-03-10T11:35:53Z</time>
      </trkpt>
      <trkpt lat="59.8897617" lon="17.6553833">
        <ele>31.3801</ele>
        <time>2013-03-10T11:35:54Z</time>
      </trkpt>
      <trkpt lat="59.8897555" lon="17.6554029">
        <ele>31.3801</ele>
        <time>2013-03-10T11:35:55Z</time>
      </trkpt>
      <trkpt lat="59.8897493" lon="17.6554222">
        <ele>30.8995</ele>
        <time>2013-03-10T11:35:56Z</time>
      </trkpt>
      <trkpt lat="59.889742" lon="17.655443">
        <ele>30.8995</ele>
        <time>2013-03-10T11:35:57Z</time>
      </trkpt>
      <trkpt lat="59.8897349" lon="17.6554635">
        <ele>30.8995</ele>
        <time>2013-03-10T11:35:58Z</time>
      </trkpt>
      <trkpt lat="59.8897278" lon="17.6554824">
        <ele>30.8995</ele>
        <time>2013-03-10T11:35:59Z</time>
      </trkpt>
      <trkpt lat="59.8897197" lon="17.6554983">
        <ele>30.8995</ele>
        <time>2013-03-10T11:36:00Z</time>
      </trkpt>
      <trkpt lat="59.8897121" lon="17.6555133">
        <ele>30.4188</ele>
        <time>2013-03-10T11:36:01Z</time>
      </trkpt>
      <trkpt lat="59.8897047" lon="17.6555273">
        <ele>30.4188</ele>
        <time>2013-03-10T11:36:02Z</time>
      </trkpt>
      <trkpt lat="59.8896983" lon="17.6555465">
        <ele>30.4188</ele>
        <time>2013-03-10T11:36:03Z</time>
      </trkpt>
      <trkpt lat="59.8896924" lon="17.6555672">
        <ele>30.4188</ele>
        <time>2013-03-10T11:36:04Z</time>
      </trkpt>
      <trkpt lat="59.8896845" lon="17.6555893">
        <ele>30.4188</ele>
        <time>2013-03-10T11:36:05Z</time>
      </trkpt>
      <trkpt lat="59.8896774" lon="17.6556081">
        <ele>29.9381</ele>
        <time>2013-03-10T11:36:06Z</time>
      </trkpt>
      <trkpt lat="59.8896709" lon="17.6556289">
        <ele>29.9381</ele>
        <time>2013-03-10T11:36:07Z</time>
      </trkpt>
      <trkpt lat="59.8896629" lon="17.6556496">
        <ele>29.9381</ele>
        <time>2013-03-10T11:36:08Z</time>
      </trkpt>
      <trkpt lat="59.8896549" lon="17.6556689">
        <ele>29.9381</ele>
        <time>2013-03-10T11:36:09Z</time>
      </trkpt>
      <trkpt lat="59.8896462" lon="17.655689">
        <ele>29.9381</ele>
        <time>2013-03-10T11:36:10Z</time>
      </trkpt>
      <trkpt lat="59.889638" lon="17.6557092">
        <ele>29.9381</ele>
        <time>2013-03-10T11:36:11Z</time>
      </trkpt>
      <trkpt lat="59.8896312" lon="17.6557294">
        <ele>29.9381</ele>
        <time>2013-03-10T11:36:12Z</time>
      </trkpt>
      <trkpt lat="59.8896245" lon="17.6557504">
        <ele>29.9381</ele>
        <time>2013-03-10T11:36:13Z</time>
      </trkpt>
      <trkpt lat="59.8896181" lon="17.6557708">
        <ele>29.4575</ele>
        <time>2013-03-10T11:36:14Z</time>
      </trkpt>
      <trkpt lat="59.8896119" lon="17.6557918">
        <ele>29.4575</ele>
        <time>2013-03-10T11:36:15Z</time>
      </trkpt>
      <trkpt lat="59.8896056" lon="17.655812">
        <ele>29.4575</ele>
        <time>2013-03-10T11:36:16Z</time>
      </trkpt>
      <trkpt lat="59.889599" lon="17.6558333">
        <ele>29.4575</ele>
        <time>2013-03-10T11:36:17Z</time>
      </trkpt>
      <trkpt lat="59.8895909" lon="17.6558557">
        <ele>29.4575</ele>
        <time>2013-03-10T11:36:18Z</time>
      </trkpt>
      <trkpt lat="59.8895819" lon="17.6558748">
        <ele>29.4575</ele>
        <time>2013-03-10T11:36:19Z</time>
      </trkpt>
      <trkpt lat="59.8895737" lon="17.6558972">
        <ele>29.4575</ele>
        <time>2013-03-10T11:36:20Z</time>
      </trkpt>
      <trkpt lat="59.8895657" lon="17.6559172">
        <ele>29.4575</ele>
        <time>2013-03-10T11:36:21Z</time>
      </trkpt>
      <trkpt lat="59.8895595" lon="17.6559406">
        <ele>29.4575</ele>
        <time>2013-03-10T11:36:22Z</time>
      </trkpt>
      <trkpt lat="59.889554" lon="17.6559677">
        <ele>29.4575</ele>
        <time>2013-03-10T11:36:23Z</time>
      </trkpt>
      <trkpt lat="59.8895461" lon="17.6559885">
        <ele>29.4575</ele>
        <time>2013-03-10T11:36:24Z</time>
      </trkpt>
      <trkpt lat="59.8895374" lon="17.6560082">
        <ele>28.9769</ele>
        <time>2013-03-10T11:36:25Z</time>
      </trkpt>
      <trkpt lat="59.8895285" lon="17.6560315">
        <ele>28.9769</ele>
        <time>2013-03-10T11:36:26Z</time>
      </trkpt>
      <trkpt lat="59.8895198" lon="17.6560567">
        <ele>28.9769</ele>
        <time>2013-03-10T11:36:27Z</time>
      </trkpt>
      <trkpt lat="59.8895102" lon="17.6560827">
        <ele>29.4575</ele>
        <time>2013-03-10T11:36:28Z</time>
      </trkpt>
      <trkpt lat="59.8895" lon="17.6561011">
        <ele>28.9769</ele>
        <time>2013-03-10T11:36:29Z</time>
      </trkpt>
      <trkpt lat="59.8894913" lon="17.6561166">
        <ele>28.9769</ele>
        <time>2013-03-10T11:36:30Z</time>
      </trkpt>
      <trkpt lat="59.889483" lon="17.6561345">
        <ele>28.4962</ele>
        <time>2013-03-10T11:36:31Z</time>
      </trkpt>
      <trkpt lat="59.8894748" lon="17.656154">
        <ele>28.4962</ele>
        <time>2013-03-10T11:36:32Z</time>
      </trkpt>
      <trkpt lat="59.8894669" lon="17.6561708">
        <ele>28.4962</ele>
        <time>2013-03-10T11:36:33Z</time>
      </trkpt>
      <trkpt lat="59.8894596" lon="17.6561894">
        <ele>28.0155</ele>
        <time>2013-03-10T11:36:34Z</time>
      </trkpt>
      <trkpt lat="59.8894534" lon="17.6562106">
        <ele>28.0155</ele>
        <time>2013-03-10T11:36:35Z</time>
      </trkpt>
      <trkpt lat="59.8894467" lon="17.6562329">
        <ele>28.0155</ele>
        <time>2013-03-10T11:36:36Z</time>
      </trkpt>
      <trkpt lat="59.8894384" lon="17.656252">
        <ele>27.5349</ele>
        <time>2013-03-10T11:36:37Z</time>
      </trkpt>
      <trkpt lat="59.88943" lon="17.6562749">
        <ele>27.5349</ele>
        <time>2013-03-10T11:36:38Z</time>
      </trkpt>
      <trkpt lat="59.8894214" lon="17.6562987">
        <ele>28.0155</ele>
        <time>2013-03-10T11:36:39Z</time>
      </trkpt>
      <trkpt lat="59.8894134" lon="17.6563209">
        <ele>28.0155</ele>
        <time>2013-03-10T11:36:40Z</time>
      </trkpt>
      <trkpt lat="59.8894054" lon="17.6563443">
        <ele>28.0155</ele>
        <time>2013-03-10T11:36:41Z</time>
      </trkpt>
      <trkpt lat="59.8893986" lon="17.656366">
        <ele>28.0155</ele>
        <time>2013-03-10T11:36:42Z</time>
      </trkpt>
      <trkpt lat="59.8893918" lon="17.6563883">
        <ele>28.0155</ele>
        <time>2013-03-10T11:36:43Z</time>
      </trkpt>
      <trkpt lat="59.8893844" lon="17.6564096">
        <ele>28.0155</ele>
        <time>2013-03-10T11:36:44Z</time>
      </trkpt>
      <trkpt lat="59.8893766" lon="17.6564322">
        <ele>28.0155</ele>
        <time>2013-03-10T11:36:45Z</time>
      </trkpt>
      <trkpt lat="59.8893681" lon="17.6564541">
        <ele>28.0155</ele>
        <time>2013-03-10T11:36:46Z</time>
      </trkpt>
      <trkpt lat="59.8893605" lon="17.6564759">
        <ele>28.0155</ele>
        <time>2013-03-10T11:36:47Z</time>
      </trkpt>
      <trkpt lat="59.8893526" lon="17.6564989">
        <ele>28.4962</ele>
        <time>2013-03-10T11:36:48Z</time>
      </trkpt>
      <trkpt lat="59.8893451" lon="17.6565199">
        <ele>28.0155</ele>
        <time>2013-03-10T11:36:49Z</time>
      </trkpt>
      <trkpt lat="59.8893388" lon="17.6565416">
        <ele>28.0155</ele>
        <time>2013-03-10T11:36:50Z</time>
      </trkpt>
      <trkpt lat="59.8893317" lon="17.6565637">
        <ele>28.0155</ele>
        <time>2013-03-10T11:36:51Z</time>
      </trkpt>
      <trkpt lat="59.8893249" lon="17.6565863">
        <ele>28.4962</ele>
        <time>2013-03-10T11:36:52Z</time>
      </trkpt>
      <trkpt lat="59.8893172" lon="17.65661">
        <ele>28.4962</ele>
        <time>2013-03-10T11:36:53Z</time>
      </trkpt>
      <trkpt lat="59.8893085" lon="17.6566311">
        <ele>28.0155</ele>
        <time>2013-03-10T11:36:54Z</time>
      </trkpt>
      <trkpt lat="59.8893003" lon="17.6566518">
        <ele>28.0155</ele>
        <time>2013-03-10T11:36:55Z</time>
      </trkpt>
      <trkpt lat="59.8892918" lon="17.6566767">
        <ele>28.0155</ele>
        <time>2013-03-10T11:36:56Z</time>
      </trkpt>
      <trkpt lat="59.8892839" lon="17.6567032">
        <ele>28.0155</ele>
        <time>2013-03-10T11:36:57Z</time>
      </trkpt>
      <trkpt lat="59.8892757" lon="17.6567245">
        <ele>28.0155</ele>
        <time>2013-03-10T11:36:58Z</time>
      </trkpt>
      <trkpt lat="59.8892678" lon="17.656746">
        <ele>28.0155</ele>
        <time>2013-03-10T11:36:59Z</time>
      </trkpt>
      <trkpt lat="59.8892629" lon="17.6567664">
        <ele>28.0155</ele>
        <time>2013-03-10T11:37:00Z</time>
      </trkpt>
      <trkpt lat="59.8892575" lon="17.6567876">
        <ele>28.4962</ele>
        <time>2013-03-10T11:37:01Z</time>
      </trkpt>
      <trkpt lat="59.8892504" lon="17.6568113">
        <ele>28.4962</ele>
        <time>2013-03-10T11:37:02Z</time>
      </trkpt>
      <trkpt lat="59.8892426" lon="17.6568331">
        <ele>28.4962</ele>
        <time>2013-03-10T11:37:03Z</time>
      </trkpt>
      <trkpt lat="59.8892321" lon="17.6568512">
        <ele>28.4962</ele>
        <time>2013-03-10T11:37:04Z</time>
      </trkpt>
      <trkpt lat="59.8892209" lon="17.6568706">
        <ele>28.4962</ele>
        <time>2013-03-10T11:37:05Z</time>
      </trkpt>
      <trkpt lat="59.889214" lon="17.6568958">
        <ele>28.4962</ele>
        <time>2013-03-10T11:37:06Z</time>
      </trkpt>
      <trkpt lat="59.8892067" lon="17.6569159">
        <ele>28.0155</ele>
        <time>2013-03-10T11:37:07Z</time>
      </trkpt>
      <trkpt lat="59.8891981" lon="17.6569369">
        <ele>28.0155</ele>
        <time>2013-03-10T11:37:08Z</time>
      </trkpt>
      <trkpt lat="59.8891898" lon="17.6569612">
        <ele>28.0155</ele>
        <time>2013-03-10T11:37:09Z</time>
      </trkpt>
      <trkpt lat="59.8891819" lon="17.6569808">
        <ele>27.5349</ele>
        <time>2013-03-10T11:37:10Z</time>
      </trkpt>
      <trkpt lat="59.8891754" lon="17.657001">
        <ele>27.5349</ele>
        <time>2013-03-10T11:37:11Z</time>
      </trkpt>
      <trkpt lat="59.8891681" lon="17.6570217">
        <ele>27.0543</ele>
        <time>2013-03-10T11:37:12Z</time>
      </trkpt>
      <trkpt lat="59.8891603" lon="17.6570428">
        <ele>27.0543</ele>
        <time>2013-03-10T11:37:13Z</time>
      </trkpt>
      <trkpt lat="59.8891518" lon="17.6570658">
        <ele>27.0543</ele>
        <time>2013-03-10T11:37:14Z</time>
      </trkpt>
      <trkpt lat="59.8891423" lon="17.6570881">
        <ele>26.5736</ele>
        <time>2013-03-10T11:37:15Z</time>
      </trkpt>
      <trkpt lat="59.889134" lon="17.6571112">
        <ele>26.5736</ele>
        <time>2013-03-10T11:37:16Z</time>
      </trkpt>
      <trkpt lat="59.8891256" lon="17.6571316">
        <ele>26.5736</ele>
        <time>2013-03-10T11:37:17Z</time>
      </trkpt>
      <trkpt lat="59.8891171" lon="17.6571538">
        <ele>26.5736</ele>
        <time>2013-03-10T11:37:18Z</time>
      </trkpt>
      <trkpt lat="59.889108" lon="17.6571761">
        <ele>26.5736</ele>
        <time>2013-03-10T11:37:19Z</time>
      </trkpt>
      <trkpt lat="59.8890984" lon="17.6571984">
        <ele>26.5736</ele>
        <time>2013-03-10T11:37:20Z</time>
      </trkpt>
      <trkpt lat="59.8890891" lon="17.6572193">
        <ele>26.5736</ele>
        <time>2013-03-10T11:37:21Z</time>
      </trkpt>
      <trkpt lat="59.8890795" lon="17.6572404">
        <ele>26.5736</ele>
        <time>2013-03-10T11:37:22Z</time>
      </trkpt>
      <trkpt lat="59.8890699" lon="17.6572617">
        <ele>26.0929</ele>
        <time>2013-03-10T11:37:23Z</time>
      </trkpt>
      <trkpt lat="59.8890606" lon="17.6572837">
        <ele>26.0929</ele>
        <time>2013-03-10T11:37:24Z</time>
      </trkpt>
      <trkpt lat="59.8890519" lon="17.6573061">
        <ele>26.0929</ele>
        <time>2013-03-10T11:37:25Z</time>
      </trkpt>
      <trkpt lat="59.8890423" lon="17.6573291">
        <ele>26.0929</ele>
        <time>2013-03-10T11:37:26Z</time>
      </trkpt>
      <trkpt lat="59.8890329" lon="17.6573502">
        <ele>26.0929</ele>
        <time>2013-03-10T11:37:27Z</time>
      </trkpt>
      <trkpt lat="59.8890238" lon="17.6573726">
        <ele>26.0929</ele>
        <time>2013-03-10T11:37:28Z</time>
      </trkpt>
      <trkpt lat="59.8890158" lon="17.6573932">
        <ele>26.0929</ele>
        <time>2013-03-10T11:37:29Z</time>
      </trkpt>
      <trkpt lat="59.8890074" lon="17.6574134">
        <ele>26.0929</ele>
        <time>2013-03-10T11:37:30Z</time>
      </trkpt>
      <trkpt lat="59.8889986" lon="17.6574317">
        <ele>25.6123</ele>
        <time>2013-03-10T11:37:31Z</time>
      </trkpt>
      <trkpt lat="59.8889902" lon="17.6574516">
        <ele>25.6123</ele>
        <time>2013-03-10T11:37:32Z</time>
      </trkpt>
      <trkpt lat="59.8889821" lon="17.657471">
        <ele>25.6123</ele>
        <time>2013-03-10T11:37:33Z</time>
      </trkpt>
      <trkpt lat="59.8889741" lon="17.6574874">
        <ele>25.1317</ele>
        <time>2013-03-10T11:37:34Z</time>
      </trkpt>
      <trkpt lat="59.888966" lon="17.6575081">
        <ele>25.1317</ele>
        <time>2013-03-10T11:37:35Z</time>
      </trkpt>
      <trkpt lat="59.8889577" lon="17.6575309">
        <ele>25.1317</ele>
        <time>2013-03-10T11:37:36Z</time>
      </trkpt>
      <trkpt lat="59.8889499" lon="17.6575537">
        <ele>25.1317</ele>
        <time>2013-03-10T11:37:37Z</time>
      </trkpt>
      <trkpt lat="59.8889427" lon="17.6575741">
        <ele>24.651</ele>
        <time>2013-03-10T11:37:38Z</time>
      </trkpt>
      <trkpt lat="59.8889345" lon="17.6575935">
        <ele>24.651</ele>
        <time>2013-03-10T11:37:39Z</time>
      </trkpt>
      <trkpt lat="59.8889267" lon="17.6576073">
        <ele>24.651</ele>
        <time>2013-03-10T11:37:40Z</time>
      </trkpt>
      <trkpt lat="59.88892" lon="17.6576254">
        <ele>24.1703</ele>
        <time>2013-03-10T11:37:41Z</time>
      </trkpt>
      <trkpt lat="59.8889137" lon="17.6576463">
        <ele>24.1703</ele>
        <time>2013-03-10T11:37:42Z</time>
      </trkpt>
      <trkpt lat="59.888906" lon="17.6576657">
        <ele>24.1703</ele>
        <time>2013-03-10T11:37:43Z</time>
      </trkpt>
      <trkpt lat="59.8888987" lon="17.6576838">
        <ele>24.1703</ele>
        <time>2013-03-10T11:37:44Z</time>
      </trkpt>
      <trkpt lat="59.888892" lon="17.6577007">
        <ele>23.6896</ele>
        <time>2013-03-10T11:37:45Z</time>
      </trkpt>
      <trkpt lat="59.8888855" lon="17.6577225">
        <ele>23.6896</ele>
        <time>2013-03-10T11:37:46Z</time>
      </trkpt>
      <trkpt lat="59.8888785" lon="17.6577453">
        <ele>23.6896</ele>
        <time>2013-03-10T11:37:47Z</time>
      </trkpt>
      <trkpt lat="59.8888698" lon="17.6577663">
        <ele>23.6896</ele>
        <time>2013-03-10T11:37:48Z</time>
      </trkpt>
      <trkpt lat="59.8888614" lon="17.6577878">
        <ele>23.6896</ele>
        <time>2013-03-10T11:37:49Z</time>
      </trkpt>
      <trkpt lat="59.8888537" lon="17.6578093">
        <ele>23.6896</ele>
        <time>2013-03-10T11:37:50Z</time>
      </trkpt>
      <trkpt lat="59.8888463" lon="17.6578316">
        <ele>23.6896</ele>
        <time>2013-03-10T11:37:51Z</time>
      </trkpt>
      <trkpt lat="59.8888382" lon="17.6578527">
        <ele>23.209</ele>
        <time>2013-03-10T11:37:52Z</time>
      </trkpt>
      <trkpt lat="59.8888299" lon="17.6578704">
        <ele>23.209</ele>
        <time>2013-03-10T11:37:53Z</time>
      </trkpt>
      <trkpt lat="59.8888221" lon="17.6578901">
        <ele>23.209</ele>
        <time>2013-03-10T11:37:54Z</time>
      </trkpt>
      <trkpt lat="59.8888141" lon="17.6579144">
        <ele>23.209</ele>
        <time>2013-03-10T11:37:55Z</time>
      </trkpt>
      <trkpt lat="59.8888058" lon="17.657935">
        <ele>23.209</ele>
        <time>2013-03-10T11:37:56Z</time>
      </trkpt>
      <trkpt lat="59.888798" lon="17.6579563">
        <ele>23.209</ele>
        <time>2013-03-10T11:37:57Z</time>
      </trkpt>
      <trkpt lat="59.8887897" lon="17.6579763">
        <ele>23.209</ele>
        <time>2013-03-10T11:37:58Z</time>
      </trkpt>
      <trkpt lat="59.8887806" lon="17.657998">
        <ele>23.209</ele>
        <time>2013-03-10T11:37:59Z</time>
      </trkpt>
      <trkpt lat="59.8887719" lon="17.6580214">
        <ele>23.209</ele>
        <time>2013-03-10T11:38:00Z</time>
      </trkpt>
      <trkpt lat="59.8887636" lon="17.6580471">
        <ele>23.6896</ele>
        <time>2013-03-10T11:38:01Z</time>
      </trkpt>
      <trkpt lat="59.8887552" lon="17.6580707">
        <ele>23.6896</ele>
        <time>2013-03-10T11:38:02Z</time>
      </trkpt>
      <trkpt lat="59.8887451" lon="17.6580946">
        <ele>24.1703</ele>
        <time>2013-03-10T11:38:03Z</time>
      </trkpt>
      <trkpt lat="59.8887365" lon="17.658117">
        <ele>24.1703</ele>
        <time>2013-03-10T11:38:04Z</time>
      </trkpt>
      <trkpt lat="59.8887287" lon="17.6581516">
        <ele>24.651</ele>
        <time>2013-03-10T11:38:05Z</time>
      </trkpt>
      <trkpt lat="59.8887194" lon="17.6581934">
        <ele>25.6123</ele>
        <time>2013-03-10T11:38:06Z</time>
      </trkpt>
      <trkpt lat="59.8887104" lon="17.6582184">
        <ele>25.6123</ele>
        <time>2013-03-10T11:38:07Z</time>
      </trkpt>
      <trkpt lat="59.8887008" lon="17.6582389">
        <ele>25.6123</ele>
        <time>2013-03-10T11:38:08Z</time>
      </trkpt>
      <trkpt lat="59.888692" lon="17.6582588">
        <ele>25.6123</ele>
        <time>2013-03-10T11:38:09Z</time>
      </trkpt>
      <trkpt lat="59.8886847" lon="17.6582788">
        <ele>25.6123</ele>
        <time>2013-03-10T11:38:10Z</time>
      </trkpt>
      <trkpt lat="59.8886765" lon="17.6582978">
        <ele>25.6123</ele>
        <time>2013-03-10T11:38:11Z</time>
      </trkpt>
      <trkpt lat="59.8886686" lon="17.658319">
        <ele>25.6123</ele>
        <time>2013-03-10T11:38:12Z</time>
      </trkpt>
      <trkpt lat="59.8886608" lon="17.6583402">
        <ele>25.6123</ele>
        <time>2013-03-10T11:38:13Z</time>
      </trkpt>
      <trkpt lat="59.8886521" lon="17.6583619">
        <ele>25.6123</ele>
        <time>2013-03-10T11:38:14Z</time>
      </trkpt>
      <trkpt lat="59.8886429" lon="17.6583846">
        <ele>25.6123</ele>
        <time>2013-03-10T11:38:15Z</time>
      </trkpt>
      <trkpt lat="59.8886346" lon="17.6584068">
        <ele>25.6123</ele>
        <time>2013-03-10T11:38:16Z</time>
      </trkpt>
      <trkpt lat="59.8886267" lon="17.6584277">
        <ele>25.6123</ele>
        <time>2013-03-10T11:38:17Z</time>
      </trkpt>
      <trkpt lat="59.8886188" lon="17.6584505">
        <ele>25.6123</ele>
        <time>2013-03-10T11:38:18Z</time>
      </trkpt>
      <trkpt lat="59.8886102" lon="17.658472">
        <ele>25.6123</ele>
        <time>2013-03-10T11:38:19Z</time>
      </trkpt>
      <trkpt lat="59.8886006" lon="17.6584935">
        <ele>25.6123</ele>
        <time>2013-03-10T11:38:20Z</time>
      </trkpt>
      <trkpt lat="59.8885915" lon="17.6585164">
        <ele>25.6123</ele>
        <time>2013-03-10T11:38:21Z</time>
      </trkpt>
      <trkpt lat="59.8885827" lon="17.6585415">
        <ele>25.6123</ele>
        <time>2013-03-10T11:38:22Z</time>
      </trkpt>
      <trkpt lat="59.8885744" lon="17.6585686">
        <ele>25.6123</ele>
        <time>2013-03-10T11:38:23Z</time>
      </trkpt>
      <trkpt lat="59.8885659" lon="17.6585914">
        <ele>25.6123</ele>
        <time>2013-03-10T11:38:24Z</time>
      </trkpt>
      <trkpt lat="59.8885567" lon="17.6586124">
        <ele>25.6123</ele>
        <time>2013-03-10T11:38:25Z</time>
      </trkpt>
      <trkpt lat="59.8885474" lon="17.6586337">
        <ele>25.6123</ele>
        <time>2013-03-10T11:38:26Z</time>
      </trkpt>
      <trkpt lat="59.8885382" lon="17.6586557">
        <ele>25.6123</ele>
        <time>2013-03-10T11:38:27Z</time>
      </trkpt>
      <trkpt lat="59.8885288" lon="17.6586787">
        <ele>25.6123</ele>
        <time>2013-03-10T11:38:28Z</time>
      </trkpt>
      <trkpt lat="59.88852" lon="17.6587003">
        <ele>25.6123</ele>
        <time>2013-03-10T11:38:29Z</time>
      </trkpt>
      <trkpt lat="59.8885113" lon="17.6587184">
        <ele>25.1317</ele>
        <time>2013-03-10T11:38:30Z</time>
      </trkpt>
      <trkpt lat="59.8885022" lon="17.6587367">
        <ele>25.1317</ele>
        <time>2013-03-10T11:38:31Z</time>
      </trkpt>
      <trkpt lat="59.8884937" lon="17.658759">
        <ele>25.1317</ele>
        <time>2013-03-10T11:38:32Z</time>
      </trkpt>
      <trkpt lat="59.8884858" lon="17.6587794">
        <ele>24.651</ele>
        <time>2013-03-10T11:38:33Z</time>
      </trkpt>
      <trkpt lat="59.8884765" lon="17.6588005">
        <ele>24.651</ele>
        <time>2013-03-10T11:38:34Z</time>
      </trkpt>
      <trkpt lat="59.8884668" lon="17.6588238">
        <ele>24.651</ele>
        <time>2013-03-10T11:38:35Z</time>
      </trkpt>
      <trkpt lat="59.888458" lon="17.6588448">
        <ele>24.651</ele>
        <time>2013-03-10T11:38:36Z</time>
      </trkpt>
      <trkpt lat="59.8884491" lon="17.6588684">
        <ele>24.651</ele>
        <time>2013-03-10T11:38:37Z</time>
      </trkpt>
      <trkpt lat="59.8884397" lon="17.6588928">
        <ele>24.651</ele>
        <time>2013-03-10T11:38:38Z</time>
      </trkpt>
      <trkpt lat="59.8884314" lon="17.6589167">
        <ele>24.651</ele>
        <time>2013-03-10T11:38:39Z</time>
      </trkpt>
      <trkpt lat="59.8884231" lon="17.6589416">
        <ele>24.651</ele>
        <time>2013-03-10T11:38:40Z</time>
      </trkpt>
      <trkpt lat="59.8884145" lon="17.6589642">
        <ele>25.1317</ele>
        <time>2013-03-10T11:38:41Z</time>
      </trkpt>
      <trkpt lat="59.8884055" lon="17.6589851">
        <ele>25.1317</ele>
        <time>2013-03-10T11:38:42Z</time>
      </trkpt>
      <trkpt lat="59.8883976" lon="17.6590104">
        <ele>25.1317</ele>
        <time>2013-03-10T11:38:43Z</time>
      </trkpt>
      <trkpt lat="59.8883896" lon="17.6590374">
        <ele>25.1317</ele>
        <time>2013-03-10T11:38:44Z</time>
      </trkpt>
      <trkpt lat="59.8883817" lon="17.6590633">
        <ele>25.6123</ele>
        <time>2013-03-10T11:38:45Z</time>
      </trkpt>
      <trkpt lat="59.888373" lon="17.6590865">
        <ele>25.6123</ele>
        <time>2013-03-10T11:38:46Z</time>
      </trkpt>
      <trkpt lat="59.8883644" lon="17.6591107">
        <ele>25.6123</ele>
        <time>2013-03-10T11:38:47Z</time>
      </trkpt>
      <trkpt lat="59.8883574" lon="17.6591326">
        <ele>25.6123</ele>
        <time>2013-03-10T11:38:48Z</time>
      </trkpt>
      <trkpt lat="59.888351" lon="17.6591574">
        <ele>25.6123</ele>
        <time>2013-03-10T11:38:49Z</time>
      </trkpt>
      <trkpt lat="59.888344" lon="17.6591824">
        <ele>25.6123</ele>
        <time>2013-03-10T11:38:50Z</time>
      </trkpt>
      <trkpt lat="59.8883356" lon="17.6592026">
        <ele>25.6123</ele>
        <time>2013-03-10T11:38:51Z</time>
      </trkpt>
      <trkpt lat="59.8883268" lon="17.6592226">
        <ele>25.6123</ele>
        <time>2013-03-10T11:38:52Z</time>
      </trkpt>
      <trkpt lat="59.8883185" lon="17.6592441">
        <ele>25.6123</ele>
        <time>2013-03-10T11:38:53Z</time>
      </trkpt>
      <trkpt lat="59.8883102" lon="17.6592667">
        <ele>26.0929</ele>
        <time>2013-03-10T11:38:54Z</time>
      </trkpt>
      <trkpt lat="59.8883014" lon="17.6592902">
        <ele>26.0929</ele>
        <time>2013-03-10T11:38:55Z</time>
      </trkpt>
      <trkpt lat="59.8882925" lon="17.6593135">
        <ele>26.0929</ele>
        <time>2013-03-10T11:38:56Z</time>
      </trkpt>
      <trkpt lat="59.8882831" lon="17.6593363">
        <ele>26.0929</ele>
        <time>2013-03-10T11:38:57Z</time>
      </trkpt>
      <trkpt lat="59.8882735" lon="17.659357">
        <ele>26.0929</ele>
        <time>2013-03-10T11:38:58Z</time>
      </trkpt>
      <trkpt lat="59.8882641" lon="17.6593767">
        <ele>26.0929</ele>
        <time>2013-03-10T11:38:59Z</time>
      </trkpt>
      <trkpt lat="59.8882557" lon="17.659397">
        <ele>26.0929</ele>
        <time>2013-03-10T11:39:00Z</time>
      </trkpt>
      <trkpt lat="59.8882481" lon="17.6594207">
        <ele>26.0929</ele>
        <time>2013-03-10T11:39:01Z</time>
      </trkpt>
      <trkpt lat="59.8882417" lon="17.6594481">
        <ele>26.0929</ele>
        <time>2013-03-10T11:39:02Z</time>
      </trkpt>
      <trkpt lat="59.8882345" lon="17.6594749">
        <ele>26.0929</ele>
        <time>2013-03-10T11:39:03Z</time>
      </trkpt>
      <trkpt lat="59.8882252" lon="17.6594999">
        <ele>26.0929</ele>
        <time>2013-03-10T11:39:04Z</time>
      </trkpt>
      <trkpt lat="59.8882158" lon="17.6595248">
        <ele>26.0929</ele>
        <time>2013-03-10T11:39:05Z</time>
      </trkpt>
      <trkpt lat="59.8882064" lon="17.6595492">
        <ele>26.0929</ele>
        <time>2013-03-10T11:39:06Z</time>
      </trkpt>
      <trkpt lat="59.8881956" lon="17.6595707">
        <ele>26.5736</ele>
        <time>2013-03-10T11:39:07Z</time>
      </trkpt>
      <trkpt lat="59.8881857" lon="17.6595917">
        <ele>26.5736</ele>
        <time>2013-03-10T11:39:08Z</time>
      </trkpt>
      <trkpt lat="59.8881766" lon="17.659612">
        <ele>26.5736</ele>
        <time>2013-03-10T11:39:09Z</time>
      </trkpt>
      <trkpt lat="59.8881676" lon="17.6596334">
        <ele>26.5736</ele>
        <time>2013-03-10T11:39:10Z</time>
      </trkpt>
      <trkpt lat="59.888159" lon="17.6596553">
        <ele>27.0543</ele>
        <time>2013-03-10T11:39:11Z</time>
      </trkpt>
      <trkpt lat="59.8881513" lon="17.6596786">
        <ele>27.0543</ele>
        <time>2013-03-10T11:39:12Z</time>
      </trkpt>
      <trkpt lat="59.8881444" lon="17.6597014">
        <ele>27.0543</ele>
        <time>2013-03-10T11:39:13Z</time>
      </trkpt>
      <trkpt lat="59.8881373" lon="17.6597254">
        <ele>27.0543</ele>
        <time>2013-03-10T11:39:14Z</time>
      </trkpt>
      <trkpt lat="59.8881306" lon="17.6597469">
        <ele>27.0543</ele>
        <time>2013-03-10T11:39:15Z</time>
      </trkpt>
      <trkpt lat="59.8881237" lon="17.6597698">
        <ele>27.0543</ele>
        <time>2013-03-10T11:39:16Z</time>
      </trkpt>
      <trkpt lat="59.8881164" lon="17.6597942">
        <ele>27.0543</ele>
        <time>2013-03-10T11:39:17Z</time>
      </trkpt>
      <trkpt lat="59.8881083" lon="17.6598164">
        <ele>27.5349</ele>
        <time>2013-03-10T11:39:18Z</time>
      </trkpt>
      <trkpt lat="59.8880999" lon="17.6598424">
        <ele>27.5349</ele>
        <time>2013-03-10T11:39:19Z</time>
      </trkpt>
      <trkpt lat="59.8880912" lon="17.6598671">
        <ele>27.5349</ele>
        <time>2013-03-10T11:39:20Z</time>
      </trkpt>
      <trkpt lat="59.8880828" lon="17.65989">
        <ele>27.5349</ele>
        <time>2013-03-10T11:39:21Z</time>
      </trkpt>
      <trkpt lat="59.8880743" lon="17.6599121">
        <ele>27.5349</ele>
        <time>2013-03-10T11:39:22Z</time>
      </trkpt>
      <trkpt lat="59.8880662" lon="17.6599356">
        <ele>27.5349</ele>
        <time>2013-03-10T11:39:23Z</time>
      </trkpt>
      <trkpt lat="59.8880584" lon="17.6599599">
        <ele>27.5349</ele>
        <time>2013-03-10T11:39:24Z</time>
      </trkpt>
      <trkpt lat="59.8880501" lon="17.6599829">
        <ele>27.5349</ele>
        <time>2013-03-10T11:39:25Z</time>
      </trkpt>
      <trkpt lat="59.8880418" lon="17.6600061">
        <ele>28.0155</ele>
        <time>2013-03-10T11:39:26Z</time>
      </trkpt>
      <trkpt lat="59.8880334" lon="17.6600278">
        <ele>28.0155</ele>
        <time>2013-03-10T11:39:27Z</time>
      </trkpt>
      <trkpt lat="59.8880248" lon="17.6600504">
        <ele>28.0155</ele>
        <time>2013-03-10T11:39:28Z</time>
      </trkpt>
      <trkpt lat="59.888015" lon="17.6600734">
        <ele>28.4962</ele>
        <time>2013-03-10T11:39:29Z</time>
      </trkpt>
      <trkpt lat="59.8880041" lon="17.660093">
        <ele>28.0155</ele>
        <time>2013-03-10T11:39:30Z</time>
      </trkpt>
      <trkpt lat="59.8879956" lon="17.6601184">
        <ele>28.0155</ele>
        <time>2013-03-10T11:39:31Z</time>
      </trkpt>
      <trkpt lat="59.8879881" lon="17.6601433">
        <ele>28.0155</ele>
        <time>2013-03-10T11:39:32Z</time>
      </trkpt>
      <trkpt lat="59.8879808" lon="17.6601687">
        <ele>28.0155</ele>
        <time>2013-03-10T11:39:33Z</time>
      </trkpt>
      <trkpt lat="59.8879738" lon="17.6601952">
        <ele>28.0155</ele>
        <time>2013-03-10T11:39:34Z</time>
      </trkpt>
      <trkpt lat="59.8879668" lon="17.6602226">
        <ele>28.4962</ele>
        <time>2013-03-10T11:39:35Z</time>
      </trkpt>
      <trkpt lat="59.8879596" lon="17.6602507">
        <ele>28.4962</ele>
        <time>2013-03-10T11:39:36Z</time>
      </trkpt>
      <trkpt lat="59.8879521" lon="17.6602759">
        <ele>28.4962</ele>
        <time>2013-03-10T11:39:37Z</time>
      </trkpt>
      <trkpt lat="59.8879443" lon="17.6603008">
        <ele>28.4962</ele>
        <time>2013-03-10T11:39:38Z</time>
      </trkpt>
      <trkpt lat="59.8879367" lon="17.6603286">
        <ele>28.4962</ele>
        <time>2013-03-10T11:39:39Z</time>
      </trkpt>
      <trkpt lat="59.887928" lon="17.660354">
        <ele>28.4962</ele>
        <time>2013-03-10T11:39:40Z</time>
      </trkpt>
      <trkpt lat="59.8879181" lon="17.6603778">
        <ele>28.4962</ele>
        <time>2013-03-10T11:39:41Z</time>
      </trkpt>
      <trkpt lat="59.8879083" lon="17.6604016">
        <ele>28.9769</ele>
        <time>2013-03-10T11:39:42Z</time>
      </trkpt>
      <trkpt lat="59.8878988" lon="17.6604251">
        <ele>28.9769</ele>
        <time>2013-03-10T11:39:43Z</time>
      </trkpt>
      <trkpt lat="59.887888" lon="17.660447">
        <ele>28.9769</ele>
        <time>2013-03-10T11:39:44Z</time>
      </trkpt>
      <trkpt lat="59.887877" lon="17.6604671">
        <ele>28.9769</ele>
        <time>2013-03-10T11:39:45Z</time>
      </trkpt>
      <trkpt lat="59.8878668" lon="17.6604852">
        <ele>28.9769</ele>
        <time>2013-03-10T11:39:46Z</time>
      </trkpt>
      <trkpt lat="59.8878573" lon="17.6605054">
        <ele>28.4962</ele>
        <time>2013-03-10T11:39:47Z</time>
      </trkpt>
      <trkpt lat="59.8878492" lon="17.6605311">
        <ele>28.9769</ele>
        <time>2013-03-10T11:39:48Z</time>
      </trkpt>
      <trkpt lat="59.887841" lon="17.6605553">
        <ele>28.9769</ele>
        <time>2013-03-10T11:39:49Z</time>
      </trkpt>
      <trkpt lat="59.8878331" lon="17.6605805">
        <ele>28.9769</ele>
        <time>2013-03-10T11:39:50Z</time>
      </trkpt>
      <trkpt lat="59.8878243" lon="17.6606043">
        <ele>28.9769</ele>
        <time>2013-03-10T11:39:51Z</time>
      </trkpt>
      <trkpt lat="59.8878153" lon="17.6606266">
        <ele>28.9769</ele>
        <time>2013-03-10T11:39:52Z</time>
      </trkpt>
      <trkpt lat="59.8878062" lon="17.660648">
        <ele>28.9769</ele>
        <time>2013-03-10T11:39:53Z</time>
      </trkpt>
      <trkpt lat="59.8877972" lon="17.6606694">
        <ele>28.9769</ele>
        <time>2013-03-10T11:39:54Z</time>
      </trkpt>
      <trkpt lat="59.8877874" lon="17.6606893">
        <ele>28.9769</ele>
        <time>2013-03-10T11:39:55Z</time>
      </trkpt>
      <trkpt lat="59.8877773" lon="17.6607088">
        <ele>28.9769</ele>
        <time>2013-03-10T11:39:56Z</time>
      </trkpt>
      <trkpt lat="59.8877675" lon="17.6607278">
        <ele>28.9769</ele>
        <time>2013-03-10T11:39:57Z</time>
      </trkpt>
      <trkpt lat="59.8877575" lon="17.6607468">
        <ele>28.9769</ele>
        <time>2013-03-10T11:39:58Z</time>
      </trkpt>
      <trkpt lat="59.8877471" lon="17.6607655">
        <ele>28.9769</ele>
        <time>2013-03-10T11:39:59Z</time>
      </trkpt>
      <trkpt lat="59.8877368" lon="17.6607845">
        <ele>28.9769</ele>
        <time>2013-03-10T11:40:00Z</time>
      </trkpt>
      <trkpt lat="59.8877265" lon="17.6608033">
        <ele>28.9769</ele>
        <time>2013-03-10T11:40:01Z</time>
      </trkpt>
      <trkpt lat="59.8877157" lon="17.6608215">
        <ele>28.9769</ele>
        <time>2013-03-10T11:40:02Z</time>
      </trkpt>
      <trkpt lat="59.8877048" lon="17.6608396">
        <ele>28.9769</ele>
        <time>2013-03-10T11:40:03Z</time>
      </trkpt>
      <trkpt lat="59.8876938" lon="17.6608542">
        <ele>28.9769</ele>
        <time>2013-03-10T11:40:04Z</time>
      </trkpt>
      <trkpt lat="59.8876827" lon="17.6608668">
        <ele>28.9769</ele>
        <time>2013-03-10T11:40:05Z</time>
      </trkpt>
      <trkpt lat="59.8876714" lon="17.6608809">
        <ele>28.9769</ele>
        <time>2013-03-10T11:40:06Z</time>
      </trkpt>
      <trkpt lat="59.8876608" lon="17.6608954">
        <ele>28.9769</ele>
        <time>2013-03-10T11:40:07Z</time>
      </trkpt>
      <trkpt lat="59.8876497" lon="17.6609067">
        <ele>28.9769</ele>
        <time>2013-03-10T11:40:08Z</time>
      </trkpt>
      <trkpt lat="59.8876373" lon="17.6609152">
        <ele>28.4962</ele>
        <time>2013-03-10T11:40:09Z</time>
      </trkpt>
      <trkpt lat="59.8876244" lon="17.6609258">
        <ele>28.9769</ele>
        <time>2013-03-10T11:40:10Z</time>
      </trkpt>
      <trkpt lat="59.8876118" lon="17.6609369">
        <ele>28.9769</ele>
        <time>2013-03-10T11:40:11Z</time>
      </trkpt>
      <trkpt lat="59.8875995" lon="17.6609447">
        <ele>28.4962</ele>
        <time>2013-03-10T11:40:12Z</time>
      </trkpt>
      <trkpt lat="59.8875864" lon="17.6609529">
        <ele>28.4962</ele>
        <time>2013-03-10T11:40:13Z</time>
      </trkpt>
      <trkpt lat="59.887574" lon="17.6609608">
        <ele>28.4962</ele>
        <time>2013-03-10T11:40:14Z</time>
      </trkpt>
      <trkpt lat="59.887561" lon="17.660969">
        <ele>28.4962</ele>
        <time>2013-03-10T11:40:15Z</time>
      </trkpt>
      <trkpt lat="59.8875477" lon="17.6609802">
        <ele>28.4962</ele>
        <time>2013-03-10T11:40:16Z</time>
      </trkpt>
      <trkpt lat="59.8875352" lon="17.6609918">
        <ele>28.4962</ele>
        <time>2013-03-10T11:40:17Z</time>
      </trkpt>
      <trkpt lat="59.8875224" lon="17.6610005">
        <ele>28.4962</ele>
        <time>2013-03-10T11:40:18Z</time>
      </trkpt>
      <trkpt lat="59.8875104" lon="17.6610103">
        <ele>28.4962</ele>
        <time>2013-03-10T11:40:19Z</time>
      </trkpt>
      <trkpt lat="59.8874995" lon="17.661025">
        <ele>28.9769</ele>
        <time>2013-03-10T11:40:20Z</time>
      </trkpt>
      <trkpt lat="59.8874902" lon="17.6610405">
        <ele>28.9769</ele>
        <time>2013-03-10T11:40:21Z</time>
      </trkpt>
      <trkpt lat="59.8874809" lon="17.661053">
        <ele>28.9769</ele>
        <time>2013-03-10T11:40:22Z</time>
      </trkpt>
      <trkpt lat="59.88747" lon="17.6610648">
        <ele>28.9769</ele>
        <time>2013-03-10T11:40:23Z</time>
      </trkpt>
      <trkpt lat="59.8874586" lon="17.6610767">
        <ele>29.4575</ele>
        <time>2013-03-10T11:40:24Z</time>
      </trkpt>
      <trkpt lat="59.8874472" lon="17.6610856">
        <ele>28.9769</ele>
        <time>2013-03-10T11:40:25Z</time>
      </trkpt>
      <trkpt lat="59.8874358" lon="17.6610942">
        <ele>28.9769</ele>
        <time>2013-03-10T11:40:26Z</time>
      </trkpt>
      <trkpt lat="59.8874206" lon="17.661102">
        <ele>29.4575</ele>
        <time>2013-03-10T11:40:27Z</time>
      </trkpt>
      <trkpt lat="59.8874054" lon="17.6611114">
        <ele>29.4575</ele>
        <time>2013-03-10T11:40:28Z</time>
      </trkpt>
      <trkpt lat="59.8873948" lon="17.6611244">
        <ele>29.4575</ele>
        <time>2013-03-10T11:40:29Z</time>
      </trkpt>
      <trkpt lat="59.8873834" lon="17.661137">
        <ele>29.4575</ele>
        <time>2013-03-10T11:40:30Z</time>
      </trkpt>
      <trkpt lat="59.8873706" lon="17.6611472">
        <ele>29.4575</ele>
        <time>2013-03-10T11:40:31Z</time>
      </trkpt>
      <trkpt lat="59.8873576" lon="17.6611607">
        <ele>29.9381</ele>
        <time>2013-03-10T11:40:32Z</time>
      </trkpt>
      <trkpt lat="59.8873447" lon="17.6611752">
        <ele>29.9381</ele>
        <time>2013-03-10T11:40:33Z</time>
      </trkpt>
      <trkpt lat="59.8873307" lon="17.6611896">
        <ele>30.4188</ele>
        <time>2013-03-10T11:40:34Z</time>
      </trkpt>
      <trkpt lat="59.8873188" lon="17.6612052">
        <ele>30.4188</ele>
        <time>2013-03-10T11:40:35Z</time>
      </trkpt>
      <trkpt lat="59.8873094" lon="17.6612201">
        <ele>30.8995</ele>
        <time>2013-03-10T11:40:36Z</time>
      </trkpt>
      <trkpt lat="59.8872987" lon="17.6612374">
        <ele>30.8995</ele>
        <time>2013-03-10T11:40:37Z</time>
      </trkpt>
      <trkpt lat="59.8872878" lon="17.661256">
        <ele>31.3801</ele>
        <time>2013-03-10T11:40:38Z</time>
      </trkpt>
      <trkpt lat="59.8872793" lon="17.6612731">
        <ele>31.3801</ele>
        <time>2013-03-10T11:40:39Z</time>
      </trkpt>
      <trkpt lat="59.8872706" lon="17.6612916">
        <ele>31.3801</ele>
        <time>2013-03-10T11:40:40Z</time>
      </trkpt>
      <trkpt lat="59.8872602" lon="17.6613087">
        <ele>31.8607</ele>
        <time>2013-03-10T11:40:41Z</time>
      </trkpt>
      <trkpt lat="59.8872509" lon="17.6613242">
        <ele>31.8607</ele>
        <time>2013-03-10T11:40:42Z</time>
      </trkpt>
      <trkpt lat="59.8872419" lon="17.6613423">
        <ele>31.8607</ele>
        <time>2013-03-10T11:40:43Z</time>
      </trkpt>
      <trkpt lat="59.8872266" lon="17.6613602">
        <ele>32.3416</ele>
        <time>2013-03-10T11:40:44Z</time>
      </trkpt>
      <trkpt lat="59.887214" lon="17.6613752">
        <ele>32.8223</ele>
        <time>2013-03-10T11:40:45Z</time>
      </trkpt>
      <trkpt lat="59.8872053" lon="17.6613928">
        <ele>32.8223</ele>
        <time>2013-03-10T11:40:46Z</time>
      </trkpt>
      <trkpt lat="59.8871975" lon="17.661412">
        <ele>32.8223</ele>
        <time>2013-03-10T11:40:47Z</time>
      </trkpt>
      <trkpt lat="59.8871907" lon="17.6614311">
        <ele>32.8223</ele>
        <time>2013-03-10T11:40:48Z</time>
      </trkpt>
      <trkpt lat="59.8871852" lon="17.6614555">
        <ele>33.3029</ele>
        <time>2013-03-10T11:40:49Z</time>
      </trkpt>
      <trkpt lat="59.8871794" lon="17.6614844">
        <ele>33.3029</ele>
        <time>2013-03-10T11:40:50Z</time>
      </trkpt>
      <trkpt lat="59.8871745" lon="17.6615083">
        <ele>32.8223</ele>
        <time>2013-03-10T11:40:51Z</time>
      </trkpt>
      <trkpt lat="59.8871712" lon="17.6615241">
        <ele>33.3029</ele>
        <time>2013-03-10T11:40:52Z</time>
      </trkpt>
      <trkpt lat="59.8871665" lon="17.6615393">
        <ele>32.8223</ele>
        <time>2013-03-10T11:40:53Z</time>
      </trkpt>
      <trkpt lat="59.8871559" lon="17.661562">
        <ele>32.3416</ele>
        <time>2013-03-10T11:40:54Z</time>
      </trkpt>
      <trkpt lat="59.8871424" lon="17.6615669">
        <ele>31.8607</ele>
        <time>2013-03-10T11:40:55Z</time>
      </trkpt>
      <trkpt lat="59.8871306" lon="17.6615461">
        <ele>31.3801</ele>
        <time>2013-03-10T11:40:56Z</time>
      </trkpt>
      <trkpt lat="59.8871218" lon="17.6615169">
        <ele>30.8995</ele>
        <time>2013-03-10T11:40:57Z</time>
      </trkpt>
      <trkpt lat="59.8871146" lon="17.6614916">
        <ele>30.4188</ele>
        <time>2013-03-10T11:40:58Z</time>
      </trkpt>
      <trkpt lat="59.8871038" lon="17.6614741">
        <ele>29.9381</ele>
        <time>2013-03-10T11:40:59Z</time>
      </trkpt>
      <trkpt lat="59.8870914" lon="17.6614646">
        <ele>29.4575</ele>
        <time>2013-03-10T11:41:00Z</time>
      </trkpt>
      <trkpt lat="59.8870772" lon="17.6614644">
        <ele>29.4575</ele>
        <time>2013-03-10T11:41:01Z</time>
      </trkpt>
      <trkpt lat="59.8870608" lon="17.6614637">
        <ele>28.9769</ele>
        <time>2013-03-10T11:41:02Z</time>
      </trkpt>
      <trkpt lat="59.8870438" lon="17.6614609">
        <ele>28.9769</ele>
        <time>2013-03-10T11:41:03Z</time>
      </trkpt>
      <trkpt lat="59.8870279" lon="17.6614525">
        <ele>28.9769</ele>
        <time>2013-03-10T11:41:04Z</time>
      </trkpt>
      <trkpt lat="59.887011" lon="17.6614428">
        <ele>28.4962</ele>
        <time>2013-03-10T11:41:05Z</time>
      </trkpt>
      <trkpt lat="59.8869967" lon="17.6614265">
        <ele>28.4962</ele>
        <time>2013-03-10T11:41:06Z</time>
      </trkpt>
      <trkpt lat="59.8869873" lon="17.6614026">
        <ele>28.0155</ele>
        <time>2013-03-10T11:41:07Z</time>
      </trkpt>
      <trkpt lat="59.8869794" lon="17.6613772">
        <ele>28.0155</ele>
        <time>2013-03-10T11:41:08Z</time>
      </trkpt>
      <trkpt lat="59.8869715" lon="17.6613508">
        <ele>27.5349</ele>
        <time>2013-03-10T11:41:09Z</time>
      </trkpt>
      <trkpt lat="59.8869617" lon="17.6613295">
        <ele>27.0543</ele>
        <time>2013-03-10T11:41:10Z</time>
      </trkpt>
      <trkpt lat="59.8869484" lon="17.6613128">
        <ele>27.5349</ele>
        <time>2013-03-10T11:41:11Z</time>
      </trkpt>
      <trkpt lat="59.8869338" lon="17.6613015">
        <ele>27.5349</ele>
        <time>2013-03-10T11:41:12Z</time>
      </trkpt>
      <trkpt lat="59.8869184" lon="17.6612933">
        <ele>28.0155</ele>
        <time>2013-03-10T11:41:13Z</time>
      </trkpt>
      <trkpt lat="59.8869019" lon="17.6612867">
        <ele>28.0155</ele>
        <time>2013-03-10T11:41:14Z</time>
      </trkpt>
      <trkpt lat="59.8868847" lon="17.6612819">
        <ele>28.0155</ele>
        <time>2013-03-10T11:41:15Z</time>
      </trkpt>
      <trkpt lat="59.886869" lon="17.6612756">
        <ele>28.4962</ele>
        <time>2013-03-10T11:41:16Z</time>
      </trkpt>
      <trkpt lat="59.8868535" lon="17.6612693">
        <ele>28.4962</ele>
        <time>2013-03-10T11:41:17Z</time>
      </trkpt>
      <trkpt lat="59.886837" lon="17.6612643">
        <ele>28.9769</ele>
        <time>2013-03-10T11:41:18Z</time>
      </trkpt>
      <trkpt lat="59.8868194" lon="17.6612595">
        <ele>28.9769</ele>
        <time>2013-03-10T11:41:19Z</time>
      </trkpt>
      <trkpt lat="59.8868043" lon="17.6612579">
        <ele>29.4575</ele>
        <time>2013-03-10T11:41:20Z</time>
      </trkpt>
      <trkpt lat="59.8867909" lon="17.6612581">
        <ele>29.4575</ele>
        <time>2013-03-10T11:41:21Z</time>
      </trkpt>
      <trkpt lat="59.8867768" lon="17.6612591">
        <ele>29.4575</ele>
        <time>2013-03-10T11:41:22Z</time>
      </trkpt>
      <trkpt lat="59.8867638" lon="17.6612587">
        <ele>29.4575</ele>
        <time>2013-03-10T11:41:23Z</time>
      </trkpt>
      <trkpt lat="59.8867515" lon="17.6612613">
        <ele>29.4575</ele>
        <time>2013-03-10T11:41:24Z</time>
      </trkpt>
      <trkpt lat="59.8867399" lon="17.6612659">
        <ele>28.9769</ele>
        <time>2013-03-10T11:41:25Z</time>
      </trkpt>
      <trkpt lat="59.8867273" lon="17.6612715">
        <ele>28.9769</ele>
        <time>2013-03-10T11:41:26Z</time>
      </trkpt>
      <trkpt lat="59.8867151" lon="17.6612796">
        <ele>28.9769</ele>
        <time>2013-03-10T11:41:27Z</time>
      </trkpt>
      <trkpt lat="59.8867033" lon="17.6612881">
        <ele>28.4962</ele>
        <time>2013-03-10T11:41:28Z</time>
      </trkpt>
      <trkpt lat="59.8866909" lon="17.6612985">
        <ele>28.4962</ele>
        <time>2013-03-10T11:41:29Z</time>
      </trkpt>
      <trkpt lat="59.8866794" lon="17.6613104">
        <ele>28.4962</ele>
        <time>2013-03-10T11:41:30Z</time>
      </trkpt>
      <trkpt lat="59.8866686" lon="17.6613218">
        <ele>28.4962</ele>
        <time>2013-03-10T11:41:31Z</time>
      </trkpt>
      <trkpt lat="59.8866578" lon="17.6613332">
        <ele>28.4962</ele>
        <time>2013-03-10T11:41:32Z</time>
      </trkpt>
      <trkpt lat="59.8866454" lon="17.6613436">
        <ele>28.4962</ele>
        <time>2013-03-10T11:41:33Z</time>
      </trkpt>
      <trkpt lat="59.8866338" lon="17.6613544">
        <ele>28.4962</ele>
        <time>2013-03-10T11:41:34Z</time>
      </trkpt>
      <trkpt lat="59.886621" lon="17.661368">
        <ele>28.4962</ele>
        <time>2013-03-10T11:41:35Z</time>
      </trkpt>
      <trkpt lat="59.8866089" lon="17.6613858">
        <ele>28.9769</ele>
        <time>2013-03-10T11:41:36Z</time>
      </trkpt>
      <trkpt lat="59.8865972" lon="17.661404">
        <ele>28.9769</ele>
        <time>2013-03-10T11:41:37Z</time>
      </trkpt>
      <trkpt lat="59.8865848" lon="17.6614237">
        <ele>29.4575</ele>
        <time>2013-03-10T11:41:38Z</time>
      </trkpt>
      <trkpt lat="59.8865733" lon="17.6614394">
        <ele>29.9381</ele>
        <time>2013-03-10T11:41:39Z</time>
      </trkpt>
      <trkpt lat="59.8865604" lon="17.6614513">
        <ele>29.9381</ele>
        <time>2013-03-10T11:41:40Z</time>
      </trkpt>
      <trkpt lat="59.8865478" lon="17.6614621">
        <ele>29.9381</ele>
        <time>2013-03-10T11:41:41Z</time>
      </trkpt>
      <trkpt lat="59.8865353" lon="17.661474">
        <ele>29.9381</ele>
        <time>2013-03-10T11:41:42Z</time>
      </trkpt>
      <trkpt lat="59.8865235" lon="17.6614872">
        <ele>29.9381</ele>
        <time>2013-03-10T11:41:43Z</time>
      </trkpt>
      <trkpt lat="59.8865116" lon="17.6614984">
        <ele>29.4575</ele>
        <time>2013-03-10T11:41:44Z</time>
      </trkpt>
      <trkpt lat="59.8864997" lon="17.6615088">
        <ele>29.4575</ele>
        <time>2013-03-10T11:41:45Z</time>
      </trkpt>
      <trkpt lat="59.8864871" lon="17.6615207">
        <ele>29.4575</ele>
        <time>2013-03-10T11:41:46Z</time>
      </trkpt>
      <trkpt lat="59.8864745" lon="17.6615311">
        <ele>29.4575</ele>
        <time>2013-03-10T11:41:47Z</time>
      </trkpt>
      <trkpt lat="59.886463" lon="17.6615405">
        <ele>29.4575</ele>
        <time>2013-03-10T11:41:48Z</time>
      </trkpt>
      <trkpt lat="59.8864515" lon="17.6615497">
        <ele>29.4575</ele>
        <time>2013-03-10T11:41:49Z</time>
      </trkpt>
      <trkpt lat="59.8864397" lon="17.6615584">
        <ele>29.4575</ele>
        <time>2013-03-10T11:41:50Z</time>
      </trkpt>
      <trkpt lat="59.8864278" lon="17.6615677">
        <ele>29.4575</ele>
        <time>2013-03-10T11:41:51Z</time>
      </trkpt>
      <trkpt lat="59.8864157" lon="17.6615767">
        <ele>29.4575</ele>
        <time>2013-03-10T11:41:52Z</time>
      </trkpt>
      <trkpt lat="59.8864024" lon="17.6615863">
        <ele>29.4575</ele>
        <time>2013-03-10T11:41:53Z</time>
      </trkpt>
      <trkpt lat="59.8863882" lon="17.6615952">
        <ele>29.4575</ele>
        <time>2013-03-10T11:41:54Z</time>
      </trkpt>
      <trkpt lat="59.8863743" lon="17.6615978">
        <ele>29.4575</ele>
        <time>2013-03-10T11:41:55Z</time>
      </trkpt>
      <trkpt lat="59.8863605" lon="17.6615946">
        <ele>29.4575</ele>
        <time>2013-03-10T11:41:56Z</time>
      </trkpt>
      <trkpt lat="59.8863466" lon="17.6615917">
        <ele>28.9769</ele>
        <time>2013-03-10T11:41:57Z</time>
      </trkpt>
      <trkpt lat="59.8863331" lon="17.6615884">
        <ele>28.9769</ele>
        <time>2013-03-10T11:41:58Z</time>
      </trkpt>
      <trkpt lat="59.8863201" lon="17.6615829">
        <ele>28.4962</ele>
        <time>2013-03-10T11:41:59Z</time>
      </trkpt>
      <trkpt lat="59.8863066" lon="17.6615828">
        <ele>28.4962</ele>
        <time>2013-03-10T11:42:00Z</time>
      </trkpt>
      <trkpt lat="59.8862929" lon="17.6615803">
        <ele>28.4962</ele>
        <time>2013-03-10T11:42:01Z</time>
      </trkpt>
      <trkpt lat="59.8862786" lon="17.6615756">
        <ele>28.4962</ele>
        <time>2013-03-10T11:42:02Z</time>
      </trkpt>
      <trkpt lat="59.8862632" lon="17.6615689">
        <ele>28.4962</ele>
        <time>2013-03-10T11:42:03Z</time>
      </trkpt>
      <trkpt lat="59.886249" lon="17.6615592">
        <ele>28.4962</ele>
        <time>2013-03-10T11:42:04Z</time>
      </trkpt>
      <trkpt lat="59.8862361" lon="17.661544">
        <ele>28.4962</ele>
        <time>2013-03-10T11:42:05Z</time>
      </trkpt>
      <trkpt lat="59.8862237" lon="17.6615274">
        <ele>28.4962</ele>
        <time>2013-03-10T11:42:06Z</time>
      </trkpt>
      <trkpt lat="59.8862103" lon="17.6615127">
        <ele>28.4962</ele>
        <time>2013-03-10T11:42:07Z</time>
      </trkpt>
      <trkpt lat="59.8861973" lon="17.6615031">
        <ele>28.0155</ele>
        <time>2013-03-10T11:42:08Z</time>
      </trkpt>
      <trkpt lat="59.8861833" lon="17.6614942">
        <ele>28.0155</ele>
        <time>2013-03-10T11:42:09Z</time>
      </trkpt>
      <trkpt lat="59.8861709" lon="17.661485">
        <ele>28.0155</ele>
        <time>2013-03-10T11:42:10Z</time>
      </trkpt>
      <trkpt lat="59.8861564" lon="17.6614833">
        <ele>28.0155</ele>
        <time>2013-03-10T11:42:11Z</time>
      </trkpt>
      <trkpt lat="59.8861424" lon="17.6614845">
        <ele>28.4962</ele>
        <time>2013-03-10T11:42:12Z</time>
      </trkpt>
      <trkpt lat="59.8861283" lon="17.6614902">
        <ele>28.4962</ele>
        <time>2013-03-10T11:42:13Z</time>
      </trkpt>
      <trkpt lat="59.8861128" lon="17.6614944">
        <ele>29.4575</ele>
        <time>2013-03-10T11:42:14Z</time>
      </trkpt>
      <trkpt lat="59.8860971" lon="17.6614999">
        <ele>29.9381</ele>
        <time>2013-03-10T11:42:15Z</time>
      </trkpt>
      <trkpt lat="59.8860819" lon="17.6615017">
        <ele>29.9381</ele>
        <time>2013-03-10T11:42:16Z</time>
      </trkpt>
      <trkpt lat="59.8860657" lon="17.6615037">
        <ele>30.4188</ele>
        <time>2013-03-10T11:42:17Z</time>
      </trkpt>
      <trkpt lat="59.8860533" lon="17.6615055">
        <ele>30.4188</ele>
        <time>2013-03-10T11:42:18Z</time>
      </trkpt>
      <trkpt lat="59.8860391" lon="17.6615102">
        <ele>30.4188</ele>
        <time>2013-03-10T11:42:19Z</time>
      </trkpt>
      <trkpt lat="59.8860269" lon="17.661514">
        <ele>30.4188</ele>
        <time>2013-03-10T11:42:20Z</time>
      </trkpt>
      <trkpt lat="59.886016" lon="17.6615162">
        <ele>29.9381</ele>
        <time>2013-03-10T11:42:21Z</time>
      </trkpt>
      <trkpt lat="59.8860044" lon="17.6615202">
        <ele>29.9381</ele>
        <time>2013-03-10T11:42:22Z</time>
      </trkpt>
      <trkpt lat="59.8859922" lon="17.6615272">
        <ele>29.9381</ele>
        <time>2013-03-10T11:42:23Z</time>
      </trkpt>
      <trkpt lat="59.8859781" lon="17.6615293">
        <ele>30.4188</ele>
        <time>2013-03-10T11:42:24Z</time>
      </trkpt>
      <trkpt lat="59.8859634" lon="17.6615281">
        <ele>30.4188</ele>
        <time>2013-03-10T11:42:25Z</time>
      </trkpt>
      <trkpt lat="59.885952" lon="17.6615237">
        <ele>30.8995</ele>
        <time>2013-03-10T11:42:26Z</time>
      </trkpt>
      <trkpt lat="59.8859402" lon="17.6615213">
        <ele>30.8995</ele>
        <time>2013-03-10T11:42:27Z</time>
      </trkpt>
      <trkpt lat="59.8859269" lon="17.6615249">
        <ele>30.8995</ele>
        <time>2013-03-10T11:42:28Z</time>
      </trkpt>
      <trkpt lat="59.8859133" lon="17.6615262">
        <ele>30.8995</ele>
        <time>2013-03-10T11:42:29Z</time>
      </trkpt>
      <trkpt lat="59.885901" lon="17.6615267">
        <ele>30.4188</ele>
        <time>2013-03-10T11:42:30Z</time>
      </trkpt>
      <trkpt lat="59.8858886" lon="17.6615269">
        <ele>30.4188</ele>
        <time>2013-03-10T11:42:31Z</time>
      </trkpt>
      <trkpt lat="59.8858744" lon="17.6615285">
        <ele>30.4188</ele>
        <time>2013-03-10T11:42:32Z</time>
      </trkpt>
      <trkpt lat="59.8858626" lon="17.6615302">
        <ele>30.4188</ele>
        <time>2013-03-10T11:42:33Z</time>
      </trkpt>
      <trkpt lat="59.8858505" lon="17.6615338">
        <ele>29.9381</ele>
        <time>2013-03-10T11:42:34Z</time>
      </trkpt>
      <trkpt lat="59.8858377" lon="17.6615373">
        <ele>29.9381</ele>
        <time>2013-03-10T11:42:35Z</time>
      </trkpt>
      <trkpt lat="59.8858244" lon="17.6615418">
        <ele>29.9381</ele>
        <time>2013-03-10T11:42:36Z</time>
      </trkpt>
      <trkpt lat="59.8858114" lon="17.6615477">
        <ele>29.9381</ele>
        <time>2013-03-10T11:42:37Z</time>
      </trkpt>
      <trkpt lat="59.8857979" lon="17.661554">
        <ele>29.4575</ele>
        <time>2013-03-10T11:42:38Z</time>
      </trkpt>
      <trkpt lat="59.8857834" lon="17.6615575">
        <ele>29.4575</ele>
        <time>2013-03-10T11:42:39Z</time>
      </trkpt>
      <trkpt lat="59.8857672" lon="17.6615495">
        <ele>29.4575</ele>
        <time>2013-03-10T11:42:40Z</time>
      </trkpt>
      <trkpt lat="59.8857502" lon="17.6615324">
        <ele>29.9381</ele>
        <time>2013-03-10T11:42:41Z</time>
      </trkpt>
      <trkpt lat="59.8857387" lon="17.6615135">
        <ele>29.9381</ele>
        <time>2013-03-10T11:42:42Z</time>
      </trkpt>
      <trkpt lat="59.8857329" lon="17.6615017">
        <ele>29.9381</ele>
        <time>2013-03-10T11:42:43Z</time>
      </trkpt>
      <trkpt lat="59.8857248" lon="17.6614896">
        <ele>29.4575</ele>
        <time>2013-03-10T11:42:44Z</time>
      </trkpt>
      <trkpt lat="59.8857123" lon="17.6614798">
        <ele>29.4575</ele>
        <time>2013-03-10T11:42:45Z</time>
      </trkpt>
      <trkpt lat="59.8856969" lon="17.6614762">
        <ele>29.9381</ele>
        <time>2013-03-10T11:42:46Z</time>
      </trkpt>
      <trkpt lat="59.8856824" lon="17.661472">
        <ele>29.9381</ele>
        <time>2013-03-10T11:42:47Z</time>
      </trkpt>
      <trkpt lat="59.8856683" lon="17.661462">
        <ele>29.9381</ele>
        <time>2013-03-10T11:42:48Z</time>
      </trkpt>
      <trkpt lat="59.8856547" lon="17.6614457">
        <ele>29.9381</ele>
        <time>2013-03-10T11:42:49Z</time>
      </trkpt>
      <trkpt lat="59.8856438" lon="17.6614253">
        <ele>29.4575</ele>
        <time>2013-03-10T11:42:50Z</time>
      </trkpt>
      <trkpt lat="59.8856355" lon="17.6614025">
        <ele>29.4575</ele>
        <time>2013-03-10T11:42:51Z</time>
      </trkpt>
      <trkpt lat="59.8856284" lon="17.6613758">
        <ele>29.4575</ele>
        <time>2013-03-10T11:42:52Z</time>
      </trkpt>
      <trkpt lat="59.8856221" lon="17.6613481">
        <ele>29.4575</ele>
        <time>2013-03-10T11:42:53Z</time>
      </trkpt>
      <trkpt lat="59.8856161" lon="17.6613223">
        <ele>29.4575</ele>
        <time>2013-03-10T11:42:54Z</time>
      </trkpt>
      <trkpt lat="59.8856098" lon="17.6612965">
        <ele>29.9381</ele>
        <time>2013-03-10T11:42:55Z</time>
      </trkpt>
      <trkpt lat="59.8856029" lon="17.661269">
        <ele>29.9381</ele>
        <time>2013-03-10T11:42:56Z</time>
      </trkpt>
      <trkpt lat="59.8855973" lon="17.661245">
        <ele>29.9381</ele>
        <time>2013-03-10T11:42:57Z</time>
      </trkpt>
      <trkpt lat="59.8855907" lon="17.6612194">
        <ele>29.9381</ele>
        <time>2013-03-10T11:42:58Z</time>
      </trkpt>
      <trkpt lat="59.8855839" lon="17.6611914">
        <ele>29.9381</ele>
        <time>2013-03-10T11:42:59Z</time>
      </trkpt>
      <trkpt lat="59.8855773" lon="17.661159">
        <ele>29.9381</ele>
        <time>2013-03-10T11:43:00Z</time>
      </trkpt>
      <trkpt lat="59.8855731" lon="17.661127">
        <ele>29.9381</ele>
        <time>2013-03-10T11:43:01Z</time>
      </trkpt>
      <trkpt lat="59.8855715" lon="17.6610974">
        <ele>29.4575</ele>
        <time>2013-03-10T11:43:02Z</time>
      </trkpt>
      <trkpt lat="59.8855705" lon="17.6610641">
        <ele>29.4575</ele>
        <time>2013-03-10T11:43:03Z</time>
      </trkpt>
      <trkpt lat="59.8855692" lon="17.661039">
        <ele>28.9769</ele>
        <time>2013-03-10T11:43:04Z</time>
      </trkpt>
      <trkpt lat="59.8855668" lon="17.6610156">
        <ele>28.9769</ele>
        <time>2013-03-10T11:43:05Z</time>
      </trkpt>
      <trkpt lat="59.8855648" lon="17.6609903">
        <ele>28.9769</ele>
        <time>2013-03-10T11:43:06Z</time>
      </trkpt>
      <trkpt lat="59.8855622" lon="17.6609628">
        <ele>28.9769</ele>
        <time>2013-03-10T11:43:07Z</time>
      </trkpt>
      <trkpt lat="59.8855574" lon="17.6609339">
        <ele>28.9769</ele>
        <time>2013-03-10T11:43:08Z</time>
      </trkpt>
      <trkpt lat="59.8855491" lon="17.6609094">
        <ele>28.9769</ele>
        <time>2013-03-10T11:43:09Z</time>
      </trkpt>
      <trkpt lat="59.8855409" lon="17.660888">
        <ele>28.9769</ele>
        <time>2013-03-10T11:43:10Z</time>
      </trkpt>
      <trkpt lat="59.8855346" lon="17.6608629">
        <ele>28.9769</ele>
        <time>2013-03-10T11:43:11Z</time>
      </trkpt>
      <trkpt lat="59.8855271" lon="17.6608385">
        <ele>28.9769</ele>
        <time>2013-03-10T11:43:12Z</time>
      </trkpt>
      <trkpt lat="59.8855222" lon="17.6608121">
        <ele>28.9769</ele>
        <time>2013-03-10T11:43:13Z</time>
      </trkpt>
      <trkpt lat="59.8855157" lon="17.660785">
        <ele>28.9769</ele>
        <time>2013-03-10T11:43:14Z</time>
      </trkpt>
      <trkpt lat="59.8855072" lon="17.6607637">
        <ele>29.4575</ele>
        <time>2013-03-10T11:43:15Z</time>
      </trkpt>
      <trkpt lat="59.8855024" lon="17.6607427">
        <ele>29.4575</ele>
        <time>2013-03-10T11:43:16Z</time>
      </trkpt>
      <trkpt lat="59.8854993" lon="17.6607208">
        <ele>29.4575</ele>
        <time>2013-03-10T11:43:17Z</time>
      </trkpt>
      <trkpt lat="59.8854932" lon="17.6606923">
        <ele>29.4575</ele>
        <time>2013-03-10T11:43:18Z</time>
      </trkpt>
      <trkpt lat="59.8854849" lon="17.6606646">
        <ele>29.9381</ele>
        <time>2013-03-10T11:43:19Z</time>
      </trkpt>
      <trkpt lat="59.8854817" lon="17.6606391">
        <ele>29.9381</ele>
        <time>2013-03-10T11:43:20Z</time>
      </trkpt>
      <trkpt lat="59.8854783" lon="17.6606136">
        <ele>29.4575</ele>
        <time>2013-03-10T11:43:21Z</time>
      </trkpt>
      <trkpt lat="59.8854741" lon="17.6605868">
        <ele>29.4575</ele>
        <time>2013-03-10T11:43:22Z</time>
      </trkpt>
      <trkpt lat="59.8854719" lon="17.6605561">
        <ele>29.4575</ele>
        <time>2013-03-10T11:43:23Z</time>
      </trkpt>
      <trkpt lat="59.8854714" lon="17.6605208">
        <ele>28.9769</ele>
        <time>2013-03-10T11:43:24Z</time>
      </trkpt>
      <trkpt lat="59.885467" lon="17.6604907">
        <ele>28.9769</ele>
        <time>2013-03-10T11:43:25Z</time>
      </trkpt>
      <trkpt lat="59.8854634" lon="17.6604655">
        <ele>28.9769</ele>
        <time>2013-03-10T11:43:26Z</time>
      </trkpt>
      <trkpt lat="59.8854597" lon="17.6604389">
        <ele>28.9769</ele>
        <time>2013-03-10T11:43:27Z</time>
      </trkpt>
      <trkpt lat="59.8854564" lon="17.6604127">
        <ele>28.9769</ele>
        <time>2013-03-10T11:43:28Z</time>
      </trkpt>
      <trkpt lat="59.8854532" lon="17.6603858">
        <ele>28.4962</ele>
        <time>2013-03-10T11:43:29Z</time>
      </trkpt>
      <trkpt lat="59.8854511" lon="17.6603562">
        <ele>28.4962</ele>
        <time>2013-03-10T11:43:30Z</time>
      </trkpt>
      <trkpt lat="59.8854503" lon="17.6603293">
        <ele>28.4962</ele>
        <time>2013-03-10T11:43:31Z</time>
      </trkpt>
      <trkpt lat="59.8854506" lon="17.660304">
        <ele>28.0155</ele>
        <time>2013-03-10T11:43:32Z</time>
      </trkpt>
      <trkpt lat="59.8854508" lon="17.66028">
        <ele>28.0155</ele>
        <time>2013-03-10T11:43:33Z</time>
      </trkpt>
      <trkpt lat="59.8854516" lon="17.6602546">
        <ele>28.0155</ele>
        <time>2013-03-10T11:43:34Z</time>
      </trkpt>
      <trkpt lat="59.8854493" lon="17.6602268">
        <ele>28.0155</ele>
        <time>2013-03-10T11:43:35Z</time>
      </trkpt>
      <trkpt lat="59.8854444" lon="17.6601998">
        <ele>27.5349</ele>
        <time>2013-03-10T11:43:36Z</time>
      </trkpt>
      <trkpt lat="59.8854398" lon="17.6601712">
        <ele>27.5349</ele>
        <time>2013-03-10T11:43:37Z</time>
      </trkpt>
      <trkpt lat="59.8854399" lon="17.6601407">
        <ele>27.5349</ele>
        <time>2013-03-10T11:43:38Z</time>
      </trkpt>
      <trkpt lat="59.885441" lon="17.6601061">
        <ele>28.0155</ele>
        <time>2013-03-10T11:43:39Z</time>
      </trkpt>
      <trkpt lat="59.8854425" lon="17.660076">
        <ele>28.0155</ele>
        <time>2013-03-10T11:43:40Z</time>
      </trkpt>
      <trkpt lat="59.885443" lon="17.660051">
        <ele>28.0155</ele>
        <time>2013-03-10T11:43:41Z</time>
      </trkpt>
      <trkpt lat="59.8854446" lon="17.6600279">
        <ele>27.5349</ele>
        <time>2013-03-10T11:43:42Z</time>
      </trkpt>
      <trkpt lat="59.8854466" lon="17.6600066">
        <ele>27.5349</ele>
        <time>2013-03-10T11:43:43Z</time>
      </trkpt>
      <trkpt lat="59.8854468" lon="17.659988">
        <ele>27.0543</ele>
        <time>2013-03-10T11:43:44Z</time>
      </trkpt>
      <trkpt lat="59.8854449" lon="17.6599684">
        <ele>26.0929</ele>
        <time>2013-03-10T11:43:45Z</time>
      </trkpt>
      <trkpt lat="59.8854409" lon="17.6599432">
        <ele>25.6123</ele>
        <time>2013-03-10T11:43:46Z</time>
      </trkpt>
      <trkpt lat="59.8854382" lon="17.659918">
        <ele>25.6123</ele>
        <time>2013-03-10T11:43:47Z</time>
      </trkpt>
      <trkpt lat="59.8854393" lon="17.6598931">
        <ele>25.1317</ele>
        <time>2013-03-10T11:43:48Z</time>
      </trkpt>
      <trkpt lat="59.8854403" lon="17.6598666">
        <ele>24.651</ele>
        <time>2013-03-10T11:43:49Z</time>
      </trkpt>
      <trkpt lat="59.8854397" lon="17.6598401">
        <ele>24.651</ele>
        <time>2013-03-10T11:43:50Z</time>
      </trkpt>
      <trkpt lat="59.8854398" lon="17.6598144">
        <ele>24.1703</ele>
        <time>2013-03-10T11:43:51Z</time>
      </trkpt>
      <trkpt lat="59.8854393" lon="17.6597889">
        <ele>24.1703</ele>
        <time>2013-03-10T11:43:52Z</time>
      </trkpt>
      <trkpt lat="59.8854369" lon="17.6597688">
        <ele>24.1703</ele>
        <time>2013-03-10T11:43:53Z</time>
      </trkpt>
      <trkpt lat="59.8854332" lon="17.6597531">
        <ele>24.1703</ele>
        <time>2013-03-10T11:43:54Z</time>
      </trkpt>
      <trkpt lat="59.8854289" lon="17.6597443">
        <ele>24.651</ele>
        <time>2013-03-10T11:43:55Z</time>
      </trkpt>
      <trkpt lat="59.8854234" lon="17.6597408">
        <ele>24.1703</ele>
        <time>2013-03-10T11:43:56Z</time>
      </trkpt>
      <trkpt lat="59.8854131" lon="17.6597365">
        <ele>23.6896</ele>
        <time>2013-03-10T11:43:57Z</time>
      </trkpt>
      <trkpt lat="59.885404" lon="17.6597342">
        <ele>23.209</ele>
        <time>2013-03-10T11:43:58Z</time>
      </trkpt>
      <trkpt lat="59.8853905" lon="17.6597238">
        <ele>22.7283</ele>
        <time>2013-03-10T11:43:59Z</time>
      </trkpt>
      <trkpt lat="59.8853736" lon="17.6597148">
        <ele>22.2476</ele>
        <time>2013-03-10T11:44:00Z</time>
      </trkpt>
      <trkpt lat="59.8853674" lon="17.6597279">
        <ele>22.2476</ele>
        <time>2013-03-10T11:44:01Z</time>
      </trkpt>
      <trkpt lat="59.8853662" lon="17.6597487">
        <ele>21.767</ele>
        <time>2013-03-10T11:44:02Z</time>
      </trkpt>
      <trkpt lat="59.885369" lon="17.6597757">
        <ele>21.2864</ele>
        <time>2013-03-10T11:44:03Z</time>
      </trkpt>
      <trkpt lat="59.8853705" lon="17.659808">
        <ele>20.8057</ele>
        <time>2013-03-10T11:44:04Z</time>
      </trkpt>
      <trkpt lat="59.885371" lon="17.6598345">
        <ele>20.8057</ele>
        <time>2013-03-10T11:44:05Z</time>
      </trkpt>
      <trkpt lat="59.8853737" lon="17.6598569">
        <ele>20.325</ele>
        <time>2013-03-10T11:44:06Z</time>
      </trkpt>
      <trkpt lat="59.8853726" lon="17.6598812">
        <ele>20.325</ele>
        <time>2013-03-10T11:44:07Z</time>
      </trkpt>
      <trkpt lat="59.8853701" lon="17.6599091">
        <ele>20.325</ele>
        <time>2013-03-10T11:44:08Z</time>
      </trkpt>
      <trkpt lat="59.8853684" lon="17.6599372">
        <ele>20.325</ele>
        <time>2013-03-10T11:44:09Z</time>
      </trkpt>
      <trkpt lat="59.8853657" lon="17.6599642">
        <ele>20.325</ele>
        <time>2013-03-10T11:44:10Z</time>
      </trkpt>
      <trkpt lat="59.8853615" lon="17.6599925">
        <ele>20.325</ele>
        <time>2013-03-10T11:44:11Z</time>
      </trkpt>
      <trkpt lat="59.8853549" lon="17.6600212">
        <ele>20.325</ele>
        <time>2013-03-10T11:44:12Z</time>
      </trkpt>
      <trkpt lat="59.8853441" lon="17.6600541">
        <ele>19.8444</ele>
        <time>2013-03-10T11:44:13Z</time>
      </trkpt>
      <trkpt lat="59.8853344" lon="17.6600842">
        <ele>19.8444</ele>
        <time>2013-03-10T11:44:14Z</time>
      </trkpt>
      <trkpt lat="59.885326" lon="17.6601043">
        <ele>19.3638</ele>
        <time>2013-03-10T11:44:15Z</time>
      </trkpt>
      <trkpt lat="59.8853178" lon="17.6601232">
        <ele>18.8831</ele>
        <time>2013-03-10T11:44:16Z</time>
      </trkpt>
      <trkpt lat="59.8853104" lon="17.6601497">
        <ele>18.8831</ele>
        <time>2013-03-10T11:44:17Z</time>
      </trkpt>
      <trkpt lat="59.885302" lon="17.6601722">
        <ele>18.8831</ele>
        <time>2013-03-10T11:44:18Z</time>
      </trkpt>
      <trkpt lat="59.8852907" lon="17.6601939">
        <ele>18.8831</ele>
        <time>2013-03-10T11:44:19Z</time>
      </trkpt>
      <trkpt lat="59.8852803" lon="17.6602133">
        <ele>18.8831</ele>
        <time>2013-03-10T11:44:20Z</time>
      </trkpt>
      <trkpt lat="59.8852711" lon="17.6602323">
        <ele>18.8831</ele>
        <time>2013-03-10T11:44:21Z</time>
      </trkpt>
      <trkpt lat="59.8852623" lon="17.6602514">
        <ele>18.8831</ele>
        <time>2013-03-10T11:44:22Z</time>
      </trkpt>
      <trkpt lat="59.8852543" lon="17.6602703">
        <ele>18.4023</ele>
        <time>2013-03-10T11:44:23Z</time>
      </trkpt>
      <trkpt lat="59.8852456" lon="17.6602905">
        <ele>18.4023</ele>
        <time>2013-03-10T11:44:24Z</time>
      </trkpt>
      <trkpt lat="59.8852353" lon="17.6603086">
        <ele>18.4023</ele>
        <time>2013-03-10T11:44:25Z</time>
      </trkpt>
      <trkpt lat="59.8852251" lon="17.6603234">
        <ele>18.4023</ele>
        <time>2013-03-10T11:44:26Z</time>
      </trkpt>
      <trkpt lat="59.8852145" lon="17.6603376">
        <ele>18.4023</ele>
        <time>2013-03-10T11:44:27Z</time>
      </trkpt>
      <trkpt lat="59.8852036" lon="17.6603515">
        <ele>17.9218</ele>
        <time>2013-03-10T11:44:28Z</time>
      </trkpt>
      <trkpt lat="59.8851916" lon="17.6603641">
        <ele>17.9218</ele>
        <time>2013-03-10T11:44:29Z</time>
      </trkpt>
      <trkpt lat="59.8851788" lon="17.6603744">
        <ele>17.9218</ele>
        <time>2013-03-10T11:44:30Z</time>
      </trkpt>
      <trkpt lat="59.8851662" lon="17.6603833">
        <ele>17.9218</ele>
        <time>2013-03-10T11:44:31Z</time>
      </trkpt>
      <trkpt lat="59.8851539" lon="17.6603924">
        <ele>17.4412</ele>
        <time>2013-03-10T11:44:32Z</time>
      </trkpt>
      <trkpt lat="59.8851419" lon="17.6604012">
        <ele>17.4412</ele>
        <time>2013-03-10T11:44:33Z</time>
      </trkpt>
      <trkpt lat="59.8851296" lon="17.6604106">
        <ele>17.4412</ele>
        <time>2013-03-10T11:44:34Z</time>
      </trkpt>
      <trkpt lat="59.8851172" lon="17.6604199">
        <ele>17.4412</ele>
        <time>2013-03-10T11:44:35Z</time>
      </trkpt>
      <trkpt lat="59.8851043" lon="17.6604302">
        <ele>16.9604</ele>
        <time>2013-03-10T11:44:36Z</time>
      </trkpt>
      <trkpt lat="59.8850913" lon="17.6604405">
        <ele>16.9604</ele>
        <time>2013-03-10T11:44:37Z</time>
      </trkpt>
      <trkpt lat="59.8850798" lon="17.6604443">
        <ele>16.9604</ele>
        <time>2013-03-10T11:44:38Z</time>
      </trkpt>
      <trkpt lat="59.8850728" lon="17.6604521">
        <ele>17.4412</ele>
        <time>2013-03-10T11:44:39Z</time>
      </trkpt>
      <trkpt lat="59.8850725" lon="17.6604618">
        <ele>17.9218</ele>
        <time>2013-03-10T11:44:40Z</time>
      </trkpt>
      <trkpt lat="59.8850685" lon="17.6604684">
        <ele>17.9218</ele>
        <time>2013-03-10T11:44:41Z</time>
      </trkpt>
      <trkpt lat="59.8850662" lon="17.660478">
        <ele>18.4023</ele>
        <time>2013-03-10T11:44:42Z</time>
      </trkpt>
      <trkpt lat="59.8850618" lon="17.660493">
        <ele>18.4023</ele>
        <time>2013-03-10T11:44:43Z</time>
      </trkpt>
      <trkpt lat="59.885056" lon="17.6605048">
        <ele>18.4023</ele>
        <time>2013-03-10T11:44:44Z</time>
      </trkpt>
      <trkpt lat="59.885044" lon="17.6605229">
        <ele>17.9218</ele>
        <time>2013-03-10T11:44:45Z</time>
      </trkpt>
      <trkpt lat="59.8850323" lon="17.6605381">
        <ele>17.4412</ele>
        <time>2013-03-10T11:44:46Z</time>
      </trkpt>
      <trkpt lat="59.8850106" lon="17.6605581">
        <ele>16.9604</ele>
        <time>2013-03-10T11:44:47Z</time>
      </trkpt>
      <trkpt lat="59.8849782" lon="17.6605665">
        <ele>16.9604</ele>
        <time>2013-03-10T11:44:48Z</time>
      </trkpt>
      <trkpt lat="59.8849428" lon="17.6605795">
        <ele>16.9604</ele>
        <time>2013-03-10T11:44:49Z</time>
      </trkpt>
      <trkpt lat="59.8849013" lon="17.6605954">
        <ele>17.4412</ele>
        <time>2013-03-10T11:44:50Z</time>
      </trkpt>
      <trkpt lat="59.8848689" lon="17.6606153">
        <ele>16.4797</ele>
        <time>2013-03-10T11:44:51Z</time>
      </trkpt>
      <trkpt lat="59.8848369" lon="17.6606386">
        <ele>15.999</ele>
        <time>2013-03-10T11:44:52Z</time>
      </trkpt>
      <trkpt lat="59.8848101" lon="17.660651">
        <ele>14.557</ele>
        <time>2013-03-10T11:44:53Z</time>
      </trkpt>
      <trkpt lat="59.8847909" lon="17.6606644">
        <ele>13.5958</ele>
        <time>2013-03-10T11:44:54Z</time>
      </trkpt>
      <trkpt lat="59.8847692" lon="17.6606901">
        <ele>13.1151</ele>
        <time>2013-03-10T11:44:55Z</time>
      </trkpt>
      <trkpt lat="59.8847886" lon="17.6606821">
        <ele>15.0377</ele>
        <time>2013-03-10T11:44:56Z</time>
      </trkpt>
      <trkpt lat="59.8847955" lon="17.6606733">
        <ele>16.4797</ele>
        <time>2013-03-10T11:44:57Z</time>
      </trkpt>
      <trkpt lat="59.8847924" lon="17.6606753">
        <ele>16.9604</ele>
        <time>2013-03-10T11:44:58Z</time>
      </trkpt>
      <trkpt lat="59.8847779" lon="17.660695">
        <ele>18.8831</ele>
        <time>2013-03-10T11:44:59Z</time>
      </trkpt>
      <trkpt lat="59.884772" lon="17.6607067">
        <ele>19.3638</ele>
        <time>2013-03-10T11:45:00Z</time>
      </trkpt>
      <trkpt lat="59.8847682" lon="17.6607168">
        <ele>18.8831</ele>
        <time>2013-03-10T11:45:01Z</time>
      </trkpt>
      <trkpt lat="59.8847593" lon="17.6607274">
        <ele>18.8831</ele>
        <time>2013-03-10T11:45:02Z</time>
      </trkpt>
      <trkpt lat="59.8847526" lon="17.6607321">
        <ele>18.4023</ele>
        <time>2013-03-10T11:45:03Z</time>
      </trkpt>
      <trkpt lat="59.8847432" lon="17.6607373">
        <ele>18.4023</ele>
        <time>2013-03-10T11:45:04Z</time>
      </trkpt>
      <trkpt lat="59.8847313" lon="17.6607467">
        <ele>18.4023</ele>
        <time>2013-03-10T11:45:05Z</time>
      </trkpt>
      <trkpt lat="59.88472" lon="17.6607627">
        <ele>18.8831</ele>
        <time>2013-03-10T11:45:06Z</time>
      </trkpt>
      <trkpt lat="59.8847109" lon="17.6607772">
        <ele>18.8831</ele>
        <time>2013-03-10T11:45:07Z</time>
      </trkpt>
      <trkpt lat="59.8847013" lon="17.6607875">
        <ele>18.8831</ele>
        <time>2013-03-10T11:45:08Z</time>
      </trkpt>
      <trkpt lat="59.8846909" lon="17.6607969">
        <ele>18.4023</ele>
        <time>2013-03-10T11:45:09Z</time>
      </trkpt>
      <trkpt lat="59.8846796" lon="17.6608073">
        <ele>18.8831</ele>
        <time>2013-03-10T11:45:10Z</time>
      </trkpt>
      <trkpt lat="59.8846687" lon="17.6608173">
        <ele>18.8831</ele>
        <time>2013-03-10T11:45:11Z</time>
      </trkpt>
      <trkpt lat="59.8846567" lon="17.660827">
        <ele>18.8831</ele>
        <time>2013-03-10T11:45:12Z</time>
      </trkpt>
      <trkpt lat="59.8846443" lon="17.6608367">
        <ele>19.3638</ele>
        <time>2013-03-10T11:45:13Z</time>
      </trkpt>
      <trkpt lat="59.8846324" lon="17.6608468">
        <ele>19.3638</ele>
        <time>2013-03-10T11:45:14Z</time>
      </trkpt>
      <trkpt lat="59.8846202" lon="17.660856">
        <ele>19.3638</ele>
        <time>2013-03-10T11:45:15Z</time>
      </trkpt>
      <trkpt lat="59.8846069" lon="17.6608655">
        <ele>19.8444</ele>
        <time>2013-03-10T11:45:16Z</time>
      </trkpt>
      <trkpt lat="59.884594" lon="17.6608768">
        <ele>20.325</ele>
        <time>2013-03-10T11:45:17Z</time>
      </trkpt>
      <trkpt lat="59.8845804" lon="17.6608888">
        <ele>20.325</ele>
        <time>2013-03-10T11:45:18Z</time>
      </trkpt>
      <trkpt lat="59.8845672" lon="17.6609008">
        <ele>20.8057</ele>
        <time>2013-03-10T11:45:19Z</time>
      </trkpt>
      <trkpt lat="59.8845552" lon="17.660913">
        <ele>21.2864</ele>
        <time>2013-03-10T11:45:20Z</time>
      </trkpt>
      <trkpt lat="59.8845443" lon="17.660925">
        <ele>21.767</ele>
        <time>2013-03-10T11:45:21Z</time>
      </trkpt>
      <trkpt lat="59.8845333" lon="17.66094">
        <ele>21.767</ele>
        <time>2013-03-10T11:45:22Z</time>
      </trkpt>
      <trkpt lat="59.8845224" lon="17.6609543">
        <ele>22.2476</ele>
        <time>2013-03-10T11:45:23Z</time>
      </trkpt>
      <trkpt lat="59.8845116" lon="17.6609676">
        <ele>22.2476</ele>
        <time>2013-03-10T11:45:24Z</time>
      </trkpt>
      <trkpt lat="59.8845001" lon="17.6609802">
        <ele>22.7283</ele>
        <time>2013-03-10T11:45:25Z</time>
      </trkpt>
      <trkpt lat="59.8844883" lon="17.6609906">
        <ele>22.7283</ele>
        <time>2013-03-10T11:45:26Z</time>
      </trkpt>
      <trkpt lat="59.8844763" lon="17.6609992">
        <ele>22.7283</ele>
        <time>2013-03-10T11:45:27Z</time>
      </trkpt>
      <trkpt lat="59.8844645" lon="17.6610089">
        <ele>22.7283</ele>
        <time>2013-03-10T11:45:28Z</time>
      </trkpt>
      <trkpt lat="59.8844525" lon="17.6610177">
        <ele>22.7283</ele>
        <time>2013-03-10T11:45:29Z</time>
      </trkpt>
      <trkpt lat="59.88444" lon="17.6610259">
        <ele>22.7283</ele>
        <time>2013-03-10T11:45:30Z</time>
      </trkpt>
      <trkpt lat="59.8844275" lon="17.6610352">
        <ele>22.7283</ele>
        <time>2013-03-10T11:45:31Z</time>
      </trkpt>
      <trkpt lat="59.8844153" lon="17.6610436">
        <ele>22.7283</ele>
        <time>2013-03-10T11:45:32Z</time>
      </trkpt>
      <trkpt lat="59.884403" lon="17.6610507">
        <ele>22.7283</ele>
        <time>2013-03-10T11:45:33Z</time>
      </trkpt>
      <trkpt lat="59.8843908" lon="17.6610575">
        <ele>22.7283</ele>
        <time>2013-03-10T11:45:34Z</time>
      </trkpt>
      <trkpt lat="59.8843784" lon="17.6610657">
        <ele>22.7283</ele>
        <time>2013-03-10T11:45:35Z</time>
      </trkpt>
      <trkpt lat="59.884366" lon="17.6610761">
        <ele>23.209</ele>
        <time>2013-03-10T11:45:36Z</time>
      </trkpt>
      <trkpt lat="59.8843536" lon="17.6610882">
        <ele>23.209</ele>
        <time>2013-03-10T11:45:37Z</time>
      </trkpt>
      <trkpt lat="59.8843413" lon="17.6611001">
        <ele>23.209</ele>
        <time>2013-03-10T11:45:38Z</time>
      </trkpt>
      <trkpt lat="59.8843291" lon="17.661112">
        <ele>23.6896</ele>
        <time>2013-03-10T11:45:39Z</time>
      </trkpt>
      <trkpt lat="59.8843169" lon="17.6611235">
        <ele>23.6896</ele>
        <time>2013-03-10T11:45:40Z</time>
      </trkpt>
      <trkpt lat="59.8843045" lon="17.661137">
        <ele>23.6896</ele>
        <time>2013-03-10T11:45:41Z</time>
      </trkpt>
      <trkpt lat="59.8842929" lon="17.6611517">
        <ele>24.1703</ele>
        <time>2013-03-10T11:45:42Z</time>
      </trkpt>
      <trkpt lat="59.8842813" lon="17.6611652">
        <ele>24.1703</ele>
        <time>2013-03-10T11:45:43Z</time>
      </trkpt>
      <trkpt lat="59.8842716" lon="17.6611746">
        <ele>24.1703</ele>
        <time>2013-03-10T11:45:44Z</time>
      </trkpt>
      <trkpt lat="59.8842609" lon="17.6611857">
        <ele>24.1703</ele>
        <time>2013-03-10T11:45:45Z</time>
      </trkpt>
      <trkpt lat="59.8842491" lon="17.6611981">
        <ele>24.1703</ele>
        <time>2013-03-10T11:45:46Z</time>
      </trkpt>
      <trkpt lat="59.8842388" lon="17.661212">
        <ele>24.1703</ele>
        <time>2013-03-10T11:45:47Z</time>
      </trkpt>
      <trkpt lat="59.8842295" lon="17.6612265">
        <ele>24.1703</ele>
        <time>2013-03-10T11:45:48Z</time>
      </trkpt>
      <trkpt lat="59.8842185" lon="17.6612405">
        <ele>24.1703</ele>
        <time>2013-03-10T11:45:49Z</time>
      </trkpt>
      <trkpt lat="59.8842063" lon="17.6612545">
        <ele>24.1703</ele>
        <time>2013-03-10T11:45:50Z</time>
      </trkpt>
      <trkpt lat="59.8841949" lon="17.6612677">
        <ele>24.651</ele>
        <time>2013-03-10T11:45:51Z</time>
      </trkpt>
      <trkpt lat="59.8841843" lon="17.6612815">
        <ele>24.651</ele>
        <time>2013-03-10T11:45:52Z</time>
      </trkpt>
      <trkpt lat="59.8841744" lon="17.6612955">
        <ele>24.651</ele>
        <time>2013-03-10T11:45:53Z</time>
      </trkpt>
      <trkpt lat="59.8841642" lon="17.6613109">
        <ele>24.651</ele>
        <time>2013-03-10T11:45:54Z</time>
      </trkpt>
      <trkpt lat="59.8841532" lon="17.6613259">
        <ele>24.651</ele>
        <time>2013-03-10T11:45:55Z</time>
      </trkpt>
      <trkpt lat="59.8841418" lon="17.6613403">
        <ele>24.651</ele>
        <time>2013-03-10T11:45:56Z</time>
      </trkpt>
      <trkpt lat="59.8841309" lon="17.6613565">
        <ele>24.651</ele>
        <time>2013-03-10T11:45:57Z</time>
      </trkpt>
      <trkpt lat="59.8841206" lon="17.6613724">
        <ele>24.651</ele>
        <time>2013-03-10T11:45:58Z</time>
      </trkpt>
      <trkpt lat="59.8841102" lon="17.6613886">
        <ele>24.651</ele>
        <time>2013-03-10T11:45:59Z</time>
      </trkpt>
      <trkpt lat="59.8841014" lon="17.6614042">
        <ele>24.651</ele>
        <time>2013-03-10T11:46:00Z</time>
      </trkpt>
      <trkpt lat="59.8840921" lon="17.6614213">
        <ele>24.651</ele>
        <time>2013-03-10T11:46:01Z</time>
      </trkpt>
      <trkpt lat="59.8840825" lon="17.6614353">
        <ele>24.651</ele>
        <time>2013-03-10T11:46:02Z</time>
      </trkpt>
      <trkpt lat="59.8840729" lon="17.6614534">
        <ele>24.651</ele>
        <time>2013-03-10T11:46:03Z</time>
      </trkpt>
      <trkpt lat="59.8840636" lon="17.6614724">
        <ele>25.1317</ele>
        <time>2013-03-10T11:46:04Z</time>
      </trkpt>
      <trkpt lat="59.8840549" lon="17.6614892">
        <ele>25.1317</ele>
        <time>2013-03-10T11:46:05Z</time>
      </trkpt>
      <trkpt lat="59.8840475" lon="17.661506">
        <ele>25.1317</ele>
        <time>2013-03-10T11:46:06Z</time>
      </trkpt>
      <trkpt lat="59.8840404" lon="17.6615228">
        <ele>25.1317</ele>
        <time>2013-03-10T11:46:07Z</time>
      </trkpt>
      <trkpt lat="59.8840252" lon="17.6615596">
        <ele>25.1317</ele>
        <time>2013-03-10T11:46:09Z</time>
      </trkpt>
      <trkpt lat="59.8840179" lon="17.6615792">
        <ele>25.1317</ele>
        <time>2013-03-10T11:46:10Z</time>
      </trkpt>
      <trkpt lat="59.8840113" lon="17.661601">
        <ele>25.1317</ele>
        <time>2013-03-10T11:46:11Z</time>
      </trkpt>
      <trkpt lat="59.884004" lon="17.6616238">
        <ele>25.1317</ele>
        <time>2013-03-10T11:46:12Z</time>
      </trkpt>
      <trkpt lat="59.8839962" lon="17.6616445">
        <ele>25.6123</ele>
        <time>2013-03-10T11:46:13Z</time>
      </trkpt>
      <trkpt lat="59.8839886" lon="17.6616658">
        <ele>25.6123</ele>
        <time>2013-03-10T11:46:14Z</time>
      </trkpt>
      <trkpt lat="59.8839815" lon="17.6616865">
        <ele>25.6123</ele>
        <time>2013-03-10T11:46:15Z</time>
      </trkpt>
      <trkpt lat="59.8839738" lon="17.6617071">
        <ele>25.6123</ele>
        <time>2013-03-10T11:46:16Z</time>
      </trkpt>
      <trkpt lat="59.8839677" lon="17.6617274">
        <ele>25.6123</ele>
        <time>2013-03-10T11:46:17Z</time>
      </trkpt>
      <trkpt lat="59.8839614" lon="17.6617538">
        <ele>26.0929</ele>
        <time>2013-03-10T11:46:18Z</time>
      </trkpt>
      <trkpt lat="59.8839539" lon="17.6617808">
        <ele>26.0929</ele>
        <time>2013-03-10T11:46:19Z</time>
      </trkpt>
      <trkpt lat="59.8839489" lon="17.6618028">
        <ele>26.0929</ele>
        <time>2013-03-10T11:46:20Z</time>
      </trkpt>
      <trkpt lat="59.8839442" lon="17.6618238">
        <ele>26.0929</ele>
        <time>2013-03-10T11:46:21Z</time>
      </trkpt>
      <trkpt lat="59.8839401" lon="17.6618424">
        <ele>26.0929</ele>
        <time>2013-03-10T11:46:22Z</time>
      </trkpt>
      <trkpt lat="59.8839351" lon="17.6618648">
        <ele>26.0929</ele>
        <time>2013-03-10T11:46:23Z</time>
      </trkpt>
      <trkpt lat="59.8839284" lon="17.6618906">
        <ele>26.0929</ele>
        <time>2013-03-10T11:46:24Z</time>
      </trkpt>
      <trkpt lat="59.8839215" lon="17.6619144">
        <ele>26.5736</ele>
        <time>2013-03-10T11:46:25Z</time>
      </trkpt>
      <trkpt lat="59.8839152" lon="17.6619368">
        <ele>26.5736</ele>
        <time>2013-03-10T11:46:26Z</time>
      </trkpt>
      <trkpt lat="59.8839098" lon="17.661961">
        <ele>26.5736</ele>
        <time>2013-03-10T11:46:27Z</time>
      </trkpt>
      <trkpt lat="59.8839066" lon="17.6619863">
        <ele>26.5736</ele>
        <time>2013-03-10T11:46:28Z</time>
      </trkpt>
      <trkpt lat="59.8839047" lon="17.6620128">
        <ele>26.5736</ele>
        <time>2013-03-10T11:46:29Z</time>
      </trkpt>
      <trkpt lat="59.8839002" lon="17.6620398">
        <ele>26.5736</ele>
        <time>2013-03-10T11:46:30Z</time>
      </trkpt>
      <trkpt lat="59.8838942" lon="17.6620658">
        <ele>26.5736</ele>
        <time>2013-03-10T11:46:31Z</time>
      </trkpt>
      <trkpt lat="59.8838863" lon="17.6620921">
        <ele>26.5736</ele>
        <time>2013-03-10T11:46:32Z</time>
      </trkpt>
      <trkpt lat="59.8838787" lon="17.6621202">
        <ele>26.5736</ele>
        <time>2013-03-10T11:46:33Z</time>
      </trkpt>
      <trkpt lat="59.8838755" lon="17.6621481">
        <ele>26.5736</ele>
        <time>2013-03-10T11:46:34Z</time>
      </trkpt>
      <trkpt lat="59.8838735" lon="17.6621745">
        <ele>27.0543</ele>
        <time>2013-03-10T11:46:35Z</time>
      </trkpt>
      <trkpt lat="59.8838712" lon="17.6622005">
        <ele>27.0543</ele>
        <time>2013-03-10T11:46:36Z</time>
      </trkpt>
      <trkpt lat="59.8838694" lon="17.6622266">
        <ele>27.0543</ele>
        <time>2013-03-10T11:46:37Z</time>
      </trkpt>
      <trkpt lat="59.8838667" lon="17.6622527">
        <ele>27.0543</ele>
        <time>2013-03-10T11:46:38Z</time>
      </trkpt>
      <trkpt lat="59.8838617" lon="17.6622761">
        <ele>27.0543</ele>
        <time>2013-03-10T11:46:39Z</time>
      </trkpt>
      <trkpt lat="59.8838574" lon="17.6623032">
        <ele>27.0543</ele>
        <time>2013-03-10T11:46:40Z</time>
      </trkpt>
      <trkpt lat="59.8838549" lon="17.6623308">
        <ele>27.0543</ele>
        <time>2013-03-10T11:46:41Z</time>
      </trkpt>
      <trkpt lat="59.8838507" lon="17.6623573">
        <ele>27.0543</ele>
        <time>2013-03-10T11:46:42Z</time>
      </trkpt>
      <trkpt lat="59.8838455" lon="17.6623831">
        <ele>27.0543</ele>
        <time>2013-03-10T11:46:43Z</time>
      </trkpt>
      <trkpt lat="59.8838408" lon="17.6624081">
        <ele>27.0543</ele>
        <time>2013-03-10T11:46:44Z</time>
      </trkpt>
      <trkpt lat="59.883838" lon="17.6624329">
        <ele>27.0543</ele>
        <time>2013-03-10T11:46:45Z</time>
      </trkpt>
      <trkpt lat="59.8838367" lon="17.662456">
        <ele>27.0543</ele>
        <time>2013-03-10T11:46:46Z</time>
      </trkpt>
      <trkpt lat="59.8838366" lon="17.662478">
        <ele>26.5736</ele>
        <time>2013-03-10T11:46:47Z</time>
      </trkpt>
      <trkpt lat="59.8838356" lon="17.6625018">
        <ele>26.5736</ele>
        <time>2013-03-10T11:46:48Z</time>
      </trkpt>
      <trkpt lat="59.8838341" lon="17.6625277">
        <ele>26.5736</ele>
        <time>2013-03-10T11:46:49Z</time>
      </trkpt>
      <trkpt lat="59.8838315" lon="17.6625531">
        <ele>26.5736</ele>
        <time>2013-03-10T11:46:50Z</time>
      </trkpt>
      <trkpt lat="59.8838297" lon="17.6625767">
        <ele>26.5736</ele>
        <time>2013-03-10T11:46:51Z</time>
      </trkpt>
      <trkpt lat="59.8838274" lon="17.6626013">
        <ele>26.5736</ele>
        <time>2013-03-10T11:46:52Z</time>
      </trkpt>
      <trkpt lat="59.8838254" lon="17.662625">
        <ele>26.5736</ele>
        <time>2013-03-10T11:46:53Z</time>
      </trkpt>
      <trkpt lat="59.8838236" lon="17.6626484">
        <ele>26.5736</ele>
        <time>2013-03-10T11:46:54Z</time>
      </trkpt>
      <trkpt lat="59.8838218" lon="17.6626702">
        <ele>26.5736</ele>
        <time>2013-03-10T11:46:55Z</time>
      </trkpt>
      <trkpt lat="59.8838191" lon="17.6626918">
        <ele>26.5736</ele>
        <time>2013-03-10T11:46:56Z</time>
      </trkpt>
      <trkpt lat="59.883816" lon="17.6627138">
        <ele>26.5736</ele>
        <time>2013-03-10T11:46:57Z</time>
      </trkpt>
      <trkpt lat="59.8838133" lon="17.6627361">
        <ele>26.0929</ele>
        <time>2013-03-10T11:46:58Z</time>
      </trkpt>
      <trkpt lat="59.8838107" lon="17.6627592">
        <ele>26.0929</ele>
        <time>2013-03-10T11:46:59Z</time>
      </trkpt>
      <trkpt lat="59.8838071" lon="17.6627819">
        <ele>26.5736</ele>
        <time>2013-03-10T11:47:00Z</time>
      </trkpt>
      <trkpt lat="59.8838031" lon="17.6628034">
        <ele>26.5736</ele>
        <time>2013-03-10T11:47:01Z</time>
      </trkpt>
      <trkpt lat="59.8838004" lon="17.6628276">
        <ele>26.5736</ele>
        <time>2013-03-10T11:47:02Z</time>
      </trkpt>
      <trkpt lat="59.8837988" lon="17.6628542">
        <ele>26.5736</ele>
        <time>2013-03-10T11:47:03Z</time>
      </trkpt>
      <trkpt lat="59.8837967" lon="17.6628805">
        <ele>27.0543</ele>
        <time>2013-03-10T11:47:04Z</time>
      </trkpt>
      <trkpt lat="59.8837938" lon="17.6629054">
        <ele>27.0543</ele>
        <time>2013-03-10T11:47:05Z</time>
      </trkpt>
      <trkpt lat="59.8837909" lon="17.6629303">
        <ele>27.0543</ele>
        <time>2013-03-10T11:47:06Z</time>
      </trkpt>
      <trkpt lat="59.883788" lon="17.6629566">
        <ele>27.0543</ele>
        <time>2013-03-10T11:47:07Z</time>
      </trkpt>
      <trkpt lat="59.8837844" lon="17.662981">
        <ele>27.0543</ele>
        <time>2013-03-10T11:47:08Z</time>
      </trkpt>
      <trkpt lat="59.8837813" lon="17.6630036">
        <ele>27.0543</ele>
        <time>2013-03-10T11:47:09Z</time>
      </trkpt>
      <trkpt lat="59.8837786" lon="17.6630288">
        <ele>27.0543</ele>
        <time>2013-03-10T11:47:10Z</time>
      </trkpt>
      <trkpt lat="59.8837755" lon="17.663054">
        <ele>27.0543</ele>
        <time>2013-03-10T11:47:11Z</time>
      </trkpt>
      <trkpt lat="59.8837715" lon="17.6630768">
        <ele>27.0543</ele>
        <time>2013-03-10T11:47:12Z</time>
      </trkpt>
      <trkpt lat="59.8837677" lon="17.6630997">
        <ele>27.0543</ele>
        <time>2013-03-10T11:47:13Z</time>
      </trkpt>
      <trkpt lat="59.8837646" lon="17.6631228">
        <ele>27.0543</ele>
        <time>2013-03-10T11:47:14Z</time>
      </trkpt>
      <trkpt lat="59.8837607" lon="17.6631435">
        <ele>27.0543</ele>
        <time>2013-03-10T11:47:15Z</time>
      </trkpt>
      <trkpt lat="59.883756" lon="17.6631614">
        <ele>26.5736</ele>
        <time>2013-03-10T11:47:16Z</time>
      </trkpt>
      <trkpt lat="59.8837522" lon="17.6631799">
        <ele>26.5736</ele>
        <time>2013-03-10T11:47:17Z</time>
      </trkpt>
      <trkpt lat="59.883749" lon="17.663197">
        <ele>26.5736</ele>
        <time>2013-03-10T11:47:18Z</time>
      </trkpt>
      <trkpt lat="59.8837464" lon="17.6632163">
        <ele>26.5736</ele>
        <time>2013-03-10T11:47:19Z</time>
      </trkpt>
      <trkpt lat="59.8837438" lon="17.663239">
        <ele>26.5736</ele>
        <time>2013-03-10T11:47:20Z</time>
      </trkpt>
      <trkpt lat="59.8837418" lon="17.6632597">
        <ele>26.5736</ele>
        <time>2013-03-10T11:47:21Z</time>
      </trkpt>
      <trkpt lat="59.8837404" lon="17.6632795">
        <ele>26.5736</ele>
        <time>2013-03-10T11:47:22Z</time>
      </trkpt>
      <trkpt lat="59.8837378" lon="17.6632975">
        <ele>27.0543</ele>
        <time>2013-03-10T11:47:23Z</time>
      </trkpt>
      <trkpt lat="59.8837337" lon="17.6633145">
        <ele>27.0543</ele>
        <time>2013-03-10T11:47:24Z</time>
      </trkpt>
      <trkpt lat="59.8837295" lon="17.6633311">
        <ele>27.0543</ele>
        <time>2013-03-10T11:47:25Z</time>
      </trkpt>
      <trkpt lat="59.8837254" lon="17.6633488">
        <ele>27.0543</ele>
        <time>2013-03-10T11:47:26Z</time>
      </trkpt>
      <trkpt lat="59.8837208" lon="17.6633681">
        <ele>27.0543</ele>
        <time>2013-03-10T11:47:27Z</time>
      </trkpt>
      <trkpt lat="59.8837163" lon="17.6633891">
        <ele>27.0543</ele>
        <time>2013-03-10T11:47:28Z</time>
      </trkpt>
      <trkpt lat="59.883712" lon="17.6634078">
        <ele>27.0543</ele>
        <time>2013-03-10T11:47:29Z</time>
      </trkpt>
      <trkpt lat="59.8837067" lon="17.663426">
        <ele>26.5736</ele>
        <time>2013-03-10T11:47:30Z</time>
      </trkpt>
      <trkpt lat="59.8837018" lon="17.6634466">
        <ele>27.0543</ele>
        <time>2013-03-10T11:47:31Z</time>
      </trkpt>
      <trkpt lat="59.8836973" lon="17.6634695">
        <ele>27.0543</ele>
        <time>2013-03-10T11:47:32Z</time>
      </trkpt>
      <trkpt lat="59.883693" lon="17.6634918">
        <ele>27.0543</ele>
        <time>2013-03-10T11:47:33Z</time>
      </trkpt>
      <trkpt lat="59.8836887" lon="17.6635126">
        <ele>27.0543</ele>
        <time>2013-03-10T11:47:34Z</time>
      </trkpt>
      <trkpt lat="59.8836847" lon="17.6635326">
        <ele>27.0543</ele>
        <time>2013-03-10T11:47:35Z</time>
      </trkpt>
      <trkpt lat="59.8836816" lon="17.6635534">
        <ele>27.0543</ele>
        <time>2013-03-10T11:47:36Z</time>
      </trkpt>
      <trkpt lat="59.8836793" lon="17.6635744">
        <ele>27.0543</ele>
        <time>2013-03-10T11:47:37Z</time>
      </trkpt>
      <trkpt lat="59.8836767" lon="17.6635959">
        <ele>27.0543</ele>
        <time>2013-03-10T11:47:38Z</time>
      </trkpt>
      <trkpt lat="59.8836728" lon="17.6636175">
        <ele>27.0543</ele>
        <time>2013-03-10T11:47:39Z</time>
      </trkpt>
      <trkpt lat="59.8836673" lon="17.6636395">
        <ele>27.0543</ele>
        <time>2013-03-10T11:47:40Z</time>
      </trkpt>
      <trkpt lat="59.8836604" lon="17.6636602">
        <ele>27.0543</ele>
        <time>2013-03-10T11:47:41Z</time>
      </trkpt>
      <trkpt lat="59.8836519" lon="17.6636782">
        <ele>27.0543</ele>
        <time>2013-03-10T11:47:42Z</time>
      </trkpt>
      <trkpt lat="59.8836462" lon="17.6636965">
        <ele>26.5736</ele>
        <time>2013-03-10T11:47:43Z</time>
      </trkpt>
      <trkpt lat="59.883642" lon="17.6637222">
        <ele>26.5736</ele>
        <time>2013-03-10T11:47:44Z</time>
      </trkpt>
      <trkpt lat="59.8836365" lon="17.6637462">
        <ele>27.0543</ele>
        <time>2013-03-10T11:47:45Z</time>
      </trkpt>
      <trkpt lat="59.8836319" lon="17.6637664">
        <ele>27.0543</ele>
        <time>2013-03-10T11:47:46Z</time>
      </trkpt>
      <trkpt lat="59.88363" lon="17.663793">
        <ele>27.5349</ele>
        <time>2013-03-10T11:47:47Z</time>
      </trkpt>
      <trkpt lat="59.8836282" lon="17.6638139">
        <ele>27.5349</ele>
        <time>2013-03-10T11:47:48Z</time>
      </trkpt>
      <trkpt lat="59.8836253" lon="17.6638366">
        <ele>27.5349</ele>
        <time>2013-03-10T11:47:49Z</time>
      </trkpt>
      <trkpt lat="59.883621" lon="17.6638581">
        <ele>27.5349</ele>
        <time>2013-03-10T11:47:50Z</time>
      </trkpt>
      <trkpt lat="59.8836156" lon="17.6638809">
        <ele>27.5349</ele>
        <time>2013-03-10T11:47:51Z</time>
      </trkpt>
      <trkpt lat="59.8836098" lon="17.6639004">
        <ele>27.5349</ele>
        <time>2013-03-10T11:47:52Z</time>
      </trkpt>
      <trkpt lat="59.8836035" lon="17.6639179">
        <ele>27.5349</ele>
        <time>2013-03-10T11:47:53Z</time>
      </trkpt>
      <trkpt lat="59.8835969" lon="17.6639386">
        <ele>27.5349</ele>
        <time>2013-03-10T11:47:54Z</time>
      </trkpt>
      <trkpt lat="59.8835907" lon="17.6639605">
        <ele>27.5349</ele>
        <time>2013-03-10T11:47:55Z</time>
      </trkpt>
      <trkpt lat="59.8835844" lon="17.6639827">
        <ele>27.5349</ele>
        <time>2013-03-10T11:47:56Z</time>
      </trkpt>
      <trkpt lat="59.8835782" lon="17.6640049">
        <ele>27.5349</ele>
        <time>2013-03-10T11:47:57Z</time>
      </trkpt>
      <trkpt lat="59.8835704" lon="17.6640244">
        <ele>27.5349</ele>
        <time>2013-03-10T11:47:58Z</time>
      </trkpt>
      <trkpt lat="59.8835622" lon="17.6640409">
        <ele>27.0543</ele>
        <time>2013-03-10T11:47:59Z</time>
      </trkpt>
      <trkpt lat="59.8835559" lon="17.6640624">
        <ele>27.0543</ele>
        <time>2013-03-10T11:48:00Z</time>
      </trkpt>
      <trkpt lat="59.8835496" lon="17.6640834">
        <ele>27.0543</ele>
        <time>2013-03-10T11:48:01Z</time>
      </trkpt>
      <trkpt lat="59.8835435" lon="17.6641035">
        <ele>27.0543</ele>
        <time>2013-03-10T11:48:02Z</time>
      </trkpt>
      <trkpt lat="59.8835381" lon="17.6641215">
        <ele>27.0543</ele>
        <time>2013-03-10T11:48:03Z</time>
      </trkpt>
      <trkpt lat="59.8835332" lon="17.6641401">
        <ele>27.0543</ele>
        <time>2013-03-10T11:48:04Z</time>
      </trkpt>
      <trkpt lat="59.8835274" lon="17.6641579">
        <ele>27.0543</ele>
        <time>2013-03-10T11:48:05Z</time>
      </trkpt>
      <trkpt lat="59.8835211" lon="17.6641766">
        <ele>27.0543</ele>
        <time>2013-03-10T11:48:06Z</time>
      </trkpt>
      <trkpt lat="59.8835145" lon="17.6641957">
        <ele>27.0543</ele>
        <time>2013-03-10T11:48:07Z</time>
      </trkpt>
      <trkpt lat="59.8835081" lon="17.6642143">
        <ele>27.0543</ele>
        <time>2013-03-10T11:48:08Z</time>
      </trkpt>
      <trkpt lat="59.883501" lon="17.6642315">
        <ele>27.0543</ele>
        <time>2013-03-10T11:48:09Z</time>
      </trkpt>
      <trkpt lat="59.8834938" lon="17.6642501">
        <ele>27.0543</ele>
        <time>2013-03-10T11:48:10Z</time>
      </trkpt>
      <trkpt lat="59.883487" lon="17.6642696">
        <ele>27.5349</ele>
        <time>2013-03-10T11:48:11Z</time>
      </trkpt>
      <trkpt lat="59.8834806" lon="17.6642886">
        <ele>27.5349</ele>
        <time>2013-03-10T11:48:12Z</time>
      </trkpt>
      <trkpt lat="59.8834742" lon="17.6643084">
        <ele>27.5349</ele>
        <time>2013-03-10T11:48:13Z</time>
      </trkpt>
      <trkpt lat="59.8834683" lon="17.6643281">
        <ele>27.5349</ele>
        <time>2013-03-10T11:48:14Z</time>
      </trkpt>
      <trkpt lat="59.8834615" lon="17.6643475">
        <ele>27.5349</ele>
        <time>2013-03-10T11:48:15Z</time>
      </trkpt>
      <trkpt lat="59.883453" lon="17.664363">
        <ele>27.5349</ele>
        <time>2013-03-10T11:48:16Z</time>
      </trkpt>
      <trkpt lat="59.883445" lon="17.6643792">
        <ele>27.0543</ele>
        <time>2013-03-10T11:48:17Z</time>
      </trkpt>
      <trkpt lat="59.8834382" lon="17.6643962">
        <ele>27.0543</ele>
        <time>2013-03-10T11:48:18Z</time>
      </trkpt>
      <trkpt lat="59.8834319" lon="17.6644154">
        <ele>27.0543</ele>
        <time>2013-03-10T11:48:19Z</time>
      </trkpt>
      <trkpt lat="59.8834239" lon="17.6644343">
        <ele>27.5349</ele>
        <time>2013-03-10T11:48:20Z</time>
      </trkpt>
      <trkpt lat="59.883416" lon="17.6644491">
        <ele>27.5349</ele>
        <time>2013-03-10T11:48:21Z</time>
      </trkpt>
      <trkpt lat="59.8834078" lon="17.664465">
        <ele>27.5349</ele>
        <time>2013-03-10T11:48:22Z</time>
      </trkpt>
      <trkpt lat="59.8833985" lon="17.664479">
        <ele>27.5349</ele>
        <time>2013-03-10T11:48:23Z</time>
      </trkpt>
      <trkpt lat="59.8833886" lon="17.6644925">
        <ele>27.5349</ele>
        <time>2013-03-10T11:48:24Z</time>
      </trkpt>
      <trkpt lat="59.8833791" lon="17.6645089">
        <ele>27.5349</ele>
        <time>2013-03-10T11:48:25Z</time>
      </trkpt>
      <trkpt lat="59.8833689" lon="17.6645225">
        <ele>27.0543</ele>
        <time>2013-03-10T11:48:26Z</time>
      </trkpt>
      <trkpt lat="59.8833584" lon="17.6645366">
        <ele>27.0543</ele>
        <time>2013-03-10T11:48:27Z</time>
      </trkpt>
      <trkpt lat="59.8833488" lon="17.6645474">
        <ele>27.0543</ele>
        <time>2013-03-10T11:48:28Z</time>
      </trkpt>
      <trkpt lat="59.8833395" lon="17.6645579">
        <ele>27.0543</ele>
        <time>2013-03-10T11:48:29Z</time>
      </trkpt>
      <trkpt lat="59.8833301" lon="17.6645687">
        <ele>27.0543</ele>
        <time>2013-03-10T11:48:30Z</time>
      </trkpt>
      <trkpt lat="59.8833202" lon="17.6645778">
        <ele>27.0543</ele>
        <time>2013-03-10T11:48:31Z</time>
      </trkpt>
      <trkpt lat="59.8833088" lon="17.6645873">
        <ele>27.0543</ele>
        <time>2013-03-10T11:48:32Z</time>
      </trkpt>
      <trkpt lat="59.8832964" lon="17.6645987">
        <ele>27.0543</ele>
        <time>2013-03-10T11:48:33Z</time>
      </trkpt>
      <trkpt lat="59.883284" lon="17.6646142">
        <ele>27.0543</ele>
        <time>2013-03-10T11:48:34Z</time>
      </trkpt>
      <trkpt lat="59.8832709" lon="17.6646301">
        <ele>27.0543</ele>
        <time>2013-03-10T11:48:35Z</time>
      </trkpt>
      <trkpt lat="59.8832566" lon="17.664642">
        <ele>27.0543</ele>
        <time>2013-03-10T11:48:36Z</time>
      </trkpt>
      <trkpt lat="59.883242" lon="17.6646505">
        <ele>27.0543</ele>
        <time>2013-03-10T11:48:37Z</time>
      </trkpt>
      <trkpt lat="59.883227" lon="17.6646602">
        <ele>27.0543</ele>
        <time>2013-03-10T11:48:38Z</time>
      </trkpt>
      <trkpt lat="59.8832119" lon="17.6646688">
        <ele>27.0543</ele>
        <time>2013-03-10T11:48:39Z</time>
      </trkpt>
      <trkpt lat="59.883196" lon="17.6646764">
        <ele>27.0543</ele>
        <time>2013-03-10T11:48:40Z</time>
      </trkpt>
      <trkpt lat="59.8831809" lon="17.6646832">
        <ele>27.0543</ele>
        <time>2013-03-10T11:48:41Z</time>
      </trkpt>
      <trkpt lat="59.8831664" lon="17.664692">
        <ele>27.5349</ele>
        <time>2013-03-10T11:48:42Z</time>
      </trkpt>
      <trkpt lat="59.8831519" lon="17.6646923">
        <ele>27.0543</ele>
        <time>2013-03-10T11:48:43Z</time>
      </trkpt>
      <trkpt lat="59.8831362" lon="17.6646928">
        <ele>27.0543</ele>
        <time>2013-03-10T11:48:44Z</time>
      </trkpt>
      <trkpt lat="59.8831192" lon="17.6646907">
        <ele>26.5736</ele>
        <time>2013-03-10T11:48:45Z</time>
      </trkpt>
      <trkpt lat="59.8831011" lon="17.6646911">
        <ele>26.5736</ele>
        <time>2013-03-10T11:48:46Z</time>
      </trkpt>
      <trkpt lat="59.8830871" lon="17.6646926">
        <ele>26.5736</ele>
        <time>2013-03-10T11:48:47Z</time>
      </trkpt>
      <trkpt lat="59.8830751" lon="17.6646959">
        <ele>26.0929</ele>
        <time>2013-03-10T11:48:48Z</time>
      </trkpt>
      <trkpt lat="59.883059" lon="17.6646961">
        <ele>25.6123</ele>
        <time>2013-03-10T11:48:49Z</time>
      </trkpt>
      <trkpt lat="59.8830424" lon="17.6646878">
        <ele>25.1317</ele>
        <time>2013-03-10T11:48:50Z</time>
      </trkpt>
      <trkpt lat="59.8830266" lon="17.6646907">
        <ele>25.1317</ele>
        <time>2013-03-10T11:48:51Z</time>
      </trkpt>
      <trkpt lat="59.8830118" lon="17.664691">
        <ele>24.651</ele>
        <time>2013-03-10T11:48:52Z</time>
      </trkpt>
      <trkpt lat="59.8829949" lon="17.6646883">
        <ele>24.651</ele>
        <time>2013-03-10T11:48:53Z</time>
      </trkpt>
      <trkpt lat="59.8829789" lon="17.6646877">
        <ele>24.651</ele>
        <time>2013-03-10T11:48:54Z</time>
      </trkpt>
      <trkpt lat="59.8829632" lon="17.6646868">
        <ele>24.651</ele>
        <time>2013-03-10T11:48:55Z</time>
      </trkpt>
      <trkpt lat="59.8829477" lon="17.6646944">
        <ele>24.651</ele>
        <time>2013-03-10T11:48:56Z</time>
      </trkpt>
      <trkpt lat="59.8829333" lon="17.6646955">
        <ele>24.651</ele>
        <time>2013-03-10T11:48:57Z</time>
      </trkpt>
      <trkpt lat="59.8829161" lon="17.6646987">
        <ele>24.651</ele>
        <time>2013-03-10T11:48:58Z</time>
      </trkpt>
      <trkpt lat="59.8829007" lon="17.6647073">
        <ele>24.651</ele>
        <time>2013-03-10T11:48:59Z</time>
      </trkpt>
      <trkpt lat="59.8828854" lon="17.6647161">
        <ele>24.651</ele>
        <time>2013-03-10T11:49:00Z</time>
      </trkpt>
      <trkpt lat="59.8828705" lon="17.6647206">
        <ele>24.651</ele>
        <time>2013-03-10T11:49:01Z</time>
      </trkpt>
      <trkpt lat="59.8828545" lon="17.6647276">
        <ele>24.651</ele>
        <time>2013-03-10T11:49:02Z</time>
      </trkpt>
      <trkpt lat="59.8828409" lon="17.6647339">
        <ele>24.651</ele>
        <time>2013-03-10T11:49:03Z</time>
      </trkpt>
      <trkpt lat="59.882828" lon="17.664739">
        <ele>24.651</ele>
        <time>2013-03-10T11:49:04Z</time>
      </trkpt>
      <trkpt lat="59.8828131" lon="17.6647436">
        <ele>24.651</ele>
        <time>2013-03-10T11:49:05Z</time>
      </trkpt>
      <trkpt lat="59.8828003" lon="17.6647484">
        <ele>24.651</ele>
        <time>2013-03-10T11:49:06Z</time>
      </trkpt>
      <trkpt lat="59.8827875" lon="17.6647529">
        <ele>24.651</ele>
        <time>2013-03-10T11:49:07Z</time>
      </trkpt>
      <trkpt lat="59.882774" lon="17.6647535">
        <ele>24.651</ele>
        <time>2013-03-10T11:49:08Z</time>
      </trkpt>
      <trkpt lat="59.8827597" lon="17.6647552">
        <ele>24.651</ele>
        <time>2013-03-10T11:49:09Z</time>
      </trkpt>
      <trkpt lat="59.8827438" lon="17.6647599">
        <ele>24.651</ele>
        <time>2013-03-10T11:49:10Z</time>
      </trkpt>
      <trkpt lat="59.8827295" lon="17.6647643">
        <ele>24.651</ele>
        <time>2013-03-10T11:49:11Z</time>
      </trkpt>
      <trkpt lat="59.8827161" lon="17.6647679">
        <ele>25.1317</ele>
        <time>2013-03-10T11:49:12Z</time>
      </trkpt>
      <trkpt lat="59.8827024" lon="17.6647692">
        <ele>24.651</ele>
        <time>2013-03-10T11:49:13Z</time>
      </trkpt>
      <trkpt lat="59.8826893" lon="17.6647688">
        <ele>24.651</ele>
        <time>2013-03-10T11:49:14Z</time>
      </trkpt>
      <trkpt lat="59.8826759" lon="17.6647707">
        <ele>24.651</ele>
        <time>2013-03-10T11:49:15Z</time>
      </trkpt>
      <trkpt lat="59.8826638" lon="17.6647717">
        <ele>24.651</ele>
        <time>2013-03-10T11:49:16Z</time>
      </trkpt>
      <trkpt lat="59.8826514" lon="17.6647733">
        <ele>24.1703</ele>
        <time>2013-03-10T11:49:17Z</time>
      </trkpt>
      <trkpt lat="59.8826376" lon="17.6647743">
        <ele>24.1703</ele>
        <time>2013-03-10T11:49:18Z</time>
      </trkpt>
      <trkpt lat="59.8826238" lon="17.664779">
        <ele>24.651</ele>
        <time>2013-03-10T11:49:19Z</time>
      </trkpt>
      <trkpt lat="59.8826094" lon="17.6647814">
        <ele>24.651</ele>
        <time>2013-03-10T11:49:20Z</time>
      </trkpt>
      <trkpt lat="59.8825951" lon="17.6647837">
        <ele>24.651</ele>
        <time>2013-03-10T11:49:21Z</time>
      </trkpt>
      <trkpt lat="59.8825808" lon="17.6647866">
        <ele>24.651</ele>
        <time>2013-03-10T11:49:22Z</time>
      </trkpt>
      <trkpt lat="59.8825669" lon="17.6647897">
        <ele>25.1317</ele>
        <time>2013-03-10T11:49:23Z</time>
      </trkpt>
      <trkpt lat="59.8825524" lon="17.664793">
        <ele>25.1317</ele>
        <time>2013-03-10T11:49:24Z</time>
      </trkpt>
      <trkpt lat="59.8825392" lon="17.6647952">
        <ele>25.1317</ele>
        <time>2013-03-10T11:49:25Z</time>
      </trkpt>
      <trkpt lat="59.8825272" lon="17.664796">
        <ele>25.1317</ele>
        <time>2013-03-10T11:49:26Z</time>
      </trkpt>
      <trkpt lat="59.8825154" lon="17.6647971">
        <ele>25.1317</ele>
        <time>2013-03-10T11:49:27Z</time>
      </trkpt>
      <trkpt lat="59.8825026" lon="17.6648009">
        <ele>25.1317</ele>
        <time>2013-03-10T11:49:28Z</time>
      </trkpt>
      <trkpt lat="59.8824895" lon="17.6648043">
        <ele>25.1317</ele>
        <time>2013-03-10T11:49:29Z</time>
      </trkpt>
      <trkpt lat="59.8824768" lon="17.6648095">
        <ele>25.1317</ele>
        <time>2013-03-10T11:49:30Z</time>
      </trkpt>
      <trkpt lat="59.8824653" lon="17.6648106">
        <ele>24.651</ele>
        <time>2013-03-10T11:49:31Z</time>
      </trkpt>
      <trkpt lat="59.882452" lon="17.6648152">
        <ele>25.1317</ele>
        <time>2013-03-10T11:49:32Z</time>
      </trkpt>
      <trkpt lat="59.8824386" lon="17.6648193">
        <ele>25.1317</ele>
        <time>2013-03-10T11:49:33Z</time>
      </trkpt>
      <trkpt lat="59.8824251" lon="17.6648252">
        <ele>25.1317</ele>
        <time>2013-03-10T11:49:34Z</time>
      </trkpt>
      <trkpt lat="59.8824145" lon="17.6648287">
        <ele>24.651</ele>
        <time>2013-03-10T11:49:35Z</time>
      </trkpt>
      <trkpt lat="59.8824039" lon="17.6648267">
        <ele>24.651</ele>
        <time>2013-03-10T11:49:36Z</time>
      </trkpt>
      <trkpt lat="59.8823925" lon="17.6648267">
        <ele>24.1703</ele>
        <time>2013-03-10T11:49:37Z</time>
      </trkpt>
      <trkpt lat="59.8823804" lon="17.6648312">
        <ele>24.1703</ele>
        <time>2013-03-10T11:49:38Z</time>
      </trkpt>
      <trkpt lat="59.8823651" lon="17.6648401">
        <ele>24.1703</ele>
        <time>2013-03-10T11:49:39Z</time>
      </trkpt>
      <trkpt lat="59.882351" lon="17.6648458">
        <ele>24.651</ele>
        <time>2013-03-10T11:49:40Z</time>
      </trkpt>
      <trkpt lat="59.8823377" lon="17.6648521">
        <ele>24.1703</ele>
        <time>2013-03-10T11:49:41Z</time>
      </trkpt>
      <trkpt lat="59.8823246" lon="17.664857">
        <ele>24.651</ele>
        <time>2013-03-10T11:49:42Z</time>
      </trkpt>
      <trkpt lat="59.8823112" lon="17.6648634">
        <ele>24.651</ele>
        <time>2013-03-10T11:49:43Z</time>
      </trkpt>
      <trkpt lat="59.8822977" lon="17.6648697">
        <ele>24.651</ele>
        <time>2013-03-10T11:49:44Z</time>
      </trkpt>
      <trkpt lat="59.8822832" lon="17.6648788">
        <ele>24.651</ele>
        <time>2013-03-10T11:49:45Z</time>
      </trkpt>
      <trkpt lat="59.8822706" lon="17.6648861">
        <ele>24.651</ele>
        <time>2013-03-10T11:49:46Z</time>
      </trkpt>
      <trkpt lat="59.8822584" lon="17.664894">
        <ele>24.1703</ele>
        <time>2013-03-10T11:49:47Z</time>
      </trkpt>
      <trkpt lat="59.8822458" lon="17.6649006">
        <ele>24.1703</ele>
        <time>2013-03-10T11:49:48Z</time>
      </trkpt>
      <trkpt lat="59.8822339" lon="17.6649083">
        <ele>24.1703</ele>
        <time>2013-03-10T11:49:49Z</time>
      </trkpt>
      <trkpt lat="59.8822221" lon="17.6649146">
        <ele>24.1703</ele>
        <time>2013-03-10T11:49:50Z</time>
      </trkpt>
      <trkpt lat="59.8822092" lon="17.6649223">
        <ele>23.6896</ele>
        <time>2013-03-10T11:49:51Z</time>
      </trkpt>
      <trkpt lat="59.882196" lon="17.6649332">
        <ele>23.6896</ele>
        <time>2013-03-10T11:49:52Z</time>
      </trkpt>
      <trkpt lat="59.8821822" lon="17.6649478">
        <ele>24.1703</ele>
        <time>2013-03-10T11:49:53Z</time>
      </trkpt>
      <trkpt lat="59.8821692" lon="17.6649609">
        <ele>24.1703</ele>
        <time>2013-03-10T11:49:54Z</time>
      </trkpt>
      <trkpt lat="59.8821571" lon="17.6649741">
        <ele>24.1703</ele>
        <time>2013-03-10T11:49:55Z</time>
      </trkpt>
      <trkpt lat="59.882145" lon="17.6649884">
        <ele>24.1703</ele>
        <time>2013-03-10T11:49:56Z</time>
      </trkpt>
      <trkpt lat="59.8821331" lon="17.6650029">
        <ele>24.1703</ele>
        <time>2013-03-10T11:49:57Z</time>
      </trkpt>
      <trkpt lat="59.8821217" lon="17.6650176">
        <ele>24.1703</ele>
        <time>2013-03-10T11:49:58Z</time>
      </trkpt>
      <trkpt lat="59.8821098" lon="17.6650328">
        <ele>24.1703</ele>
        <time>2013-03-10T11:49:59Z</time>
      </trkpt>
      <trkpt lat="59.8820973" lon="17.6650504">
        <ele>24.1703</ele>
        <time>2013-03-10T11:50:00Z</time>
      </trkpt>
      <trkpt lat="59.8820852" lon="17.6650686">
        <ele>24.1703</ele>
        <time>2013-03-10T11:50:01Z</time>
      </trkpt>
      <trkpt lat="59.8820729" lon="17.6650868">
        <ele>24.651</ele>
        <time>2013-03-10T11:50:02Z</time>
      </trkpt>
      <trkpt lat="59.8820625" lon="17.6651064">
        <ele>24.651</ele>
        <time>2013-03-10T11:50:03Z</time>
      </trkpt>
      <trkpt lat="59.8820535" lon="17.6651266">
        <ele>24.651</ele>
        <time>2013-03-10T11:50:04Z</time>
      </trkpt>
      <trkpt lat="59.8820439" lon="17.6651485">
        <ele>24.651</ele>
        <time>2013-03-10T11:50:05Z</time>
      </trkpt>
      <trkpt lat="59.8820335" lon="17.6651759">
        <ele>24.651</ele>
        <time>2013-03-10T11:50:06Z</time>
      </trkpt>
      <trkpt lat="59.8820237" lon="17.665206">
        <ele>25.1317</ele>
        <time>2013-03-10T11:50:07Z</time>
      </trkpt>
      <trkpt lat="59.8820167" lon="17.6652333">
        <ele>25.1317</ele>
        <time>2013-03-10T11:50:08Z</time>
      </trkpt>
      <trkpt lat="59.8820092" lon="17.6652576">
        <ele>25.6123</ele>
        <time>2013-03-10T11:50:09Z</time>
      </trkpt>
      <trkpt lat="59.8820027" lon="17.6652799">
        <ele>25.6123</ele>
        <time>2013-03-10T11:50:10Z</time>
      </trkpt>
      <trkpt lat="59.8819962" lon="17.6653025">
        <ele>25.6123</ele>
        <time>2013-03-10T11:50:11Z</time>
      </trkpt>
      <trkpt lat="59.881989" lon="17.665327">
        <ele>25.6123</ele>
        <time>2013-03-10T11:50:12Z</time>
      </trkpt>
      <trkpt lat="59.881981" lon="17.6653482">
        <ele>25.6123</ele>
        <time>2013-03-10T11:50:13Z</time>
      </trkpt>
      <trkpt lat="59.8819733" lon="17.6653681">
        <ele>25.1317</ele>
        <time>2013-03-10T11:50:14Z</time>
      </trkpt>
      <trkpt lat="59.8819656" lon="17.6653924">
        <ele>25.1317</ele>
        <time>2013-03-10T11:50:15Z</time>
      </trkpt>
      <trkpt lat="59.8819574" lon="17.6654131">
        <ele>25.1317</ele>
        <time>2013-03-10T11:50:16Z</time>
      </trkpt>
      <trkpt lat="59.8819487" lon="17.6654378">
        <ele>24.651</ele>
        <time>2013-03-10T11:50:17Z</time>
      </trkpt>
      <trkpt lat="59.8819434" lon="17.6654607">
        <ele>24.651</ele>
        <time>2013-03-10T11:50:18Z</time>
      </trkpt>
      <trkpt lat="59.8819388" lon="17.665483">
        <ele>24.651</ele>
        <time>2013-03-10T11:50:19Z</time>
      </trkpt>
      <trkpt lat="59.8819324" lon="17.6655058">
        <ele>24.651</ele>
        <time>2013-03-10T11:50:20Z</time>
      </trkpt>
      <trkpt lat="59.8819245" lon="17.6655312">
        <ele>24.651</ele>
        <time>2013-03-10T11:50:21Z</time>
      </trkpt>
      <trkpt lat="59.8819164" lon="17.6655543">
        <ele>24.651</ele>
        <time>2013-03-10T11:50:22Z</time>
      </trkpt>
      <trkpt lat="59.8819082" lon="17.6655773">
        <ele>24.651</ele>
        <time>2013-03-10T11:50:23Z</time>
      </trkpt>
      <trkpt lat="59.881901" lon="17.6656004">
        <ele>24.651</ele>
        <time>2013-03-10T11:50:24Z</time>
      </trkpt>
      <trkpt lat="59.8818936" lon="17.6656232">
        <ele>25.1317</ele>
        <time>2013-03-10T11:50:25Z</time>
      </trkpt>
      <trkpt lat="59.8818864" lon="17.6656442">
        <ele>25.1317</ele>
        <time>2013-03-10T11:50:26Z</time>
      </trkpt>
      <trkpt lat="59.8818791" lon="17.6656643">
        <ele>25.1317</ele>
        <time>2013-03-10T11:50:27Z</time>
      </trkpt>
      <trkpt lat="59.8818714" lon="17.6656824">
        <ele>25.1317</ele>
        <time>2013-03-10T11:50:28Z</time>
      </trkpt>
      <trkpt lat="59.8818641" lon="17.6657022">
        <ele>25.1317</ele>
        <time>2013-03-10T11:50:29Z</time>
      </trkpt>
      <trkpt lat="59.8818562" lon="17.6657254">
        <ele>24.651</ele>
        <time>2013-03-10T11:50:30Z</time>
      </trkpt>
      <trkpt lat="59.881848" lon="17.6657509">
        <ele>24.651</ele>
        <time>2013-03-10T11:50:31Z</time>
      </trkpt>
      <trkpt lat="59.8818419" lon="17.6657741">
        <ele>24.1703</ele>
        <time>2013-03-10T11:50:32Z</time>
      </trkpt>
      <trkpt lat="59.8818365" lon="17.6658003">
        <ele>24.1703</ele>
        <time>2013-03-10T11:50:33Z</time>
      </trkpt>
      <trkpt lat="59.881831" lon="17.6658276">
        <ele>23.6896</ele>
        <time>2013-03-10T11:50:34Z</time>
      </trkpt>
      <trkpt lat="59.8818256" lon="17.6658534">
        <ele>23.6896</ele>
        <time>2013-03-10T11:50:35Z</time>
      </trkpt>
      <trkpt lat="59.8818185" lon="17.6658762">
        <ele>23.6896</ele>
        <time>2013-03-10T11:50:36Z</time>
      </trkpt>
      <trkpt lat="59.8818114" lon="17.6658987">
        <ele>23.6896</ele>
        <time>2013-03-10T11:50:37Z</time>
      </trkpt>
      <trkpt lat="59.8818044" lon="17.665921">
        <ele>23.6896</ele>
        <time>2013-03-10T11:50:38Z</time>
      </trkpt>
      <trkpt lat="59.8817973" lon="17.665945">
        <ele>24.1703</ele>
        <time>2013-03-10T11:50:39Z</time>
      </trkpt>
      <trkpt lat="59.8817893" lon="17.6659685">
        <ele>24.1703</ele>
        <time>2013-03-10T11:50:40Z</time>
      </trkpt>
      <trkpt lat="59.8817812" lon="17.6659927">
        <ele>24.1703</ele>
        <time>2013-03-10T11:50:41Z</time>
      </trkpt>
      <trkpt lat="59.8817736" lon="17.6660201">
        <ele>24.1703</ele>
        <time>2013-03-10T11:50:42Z</time>
      </trkpt>
      <trkpt lat="59.8817668" lon="17.6660453">
        <ele>24.1703</ele>
        <time>2013-03-10T11:50:43Z</time>
      </trkpt>
      <trkpt lat="59.8817598" lon="17.6660686">
        <ele>24.1703</ele>
        <time>2013-03-10T11:50:44Z</time>
      </trkpt>
      <trkpt lat="59.8817522" lon="17.6660938">
        <ele>24.1703</ele>
        <time>2013-03-10T11:50:45Z</time>
      </trkpt>
      <trkpt lat="59.8817454" lon="17.6661168">
        <ele>24.1703</ele>
        <time>2013-03-10T11:50:46Z</time>
      </trkpt>
      <trkpt lat="59.8817382" lon="17.6661387">
        <ele>24.1703</ele>
        <time>2013-03-10T11:50:47Z</time>
      </trkpt>
      <trkpt lat="59.8817309" lon="17.6661596">
        <ele>24.1703</ele>
        <time>2013-03-10T11:50:48Z</time>
      </trkpt>
      <trkpt lat="59.8817228" lon="17.6661821">
        <ele>24.1703</ele>
        <time>2013-03-10T11:50:49Z</time>
      </trkpt>
      <trkpt lat="59.8817152" lon="17.6662066">
        <ele>24.1703</ele>
        <time>2013-03-10T11:50:50Z</time>
      </trkpt>
      <trkpt lat="59.8817088" lon="17.666232">
        <ele>24.651</ele>
        <time>2013-03-10T11:50:51Z</time>
      </trkpt>
      <trkpt lat="59.8817034" lon="17.6662575">
        <ele>24.651</ele>
        <time>2013-03-10T11:50:52Z</time>
      </trkpt>
      <trkpt lat="59.8816978" lon="17.6662828">
        <ele>24.651</ele>
        <time>2013-03-10T11:50:53Z</time>
      </trkpt>
      <trkpt lat="59.8816931" lon="17.6663061">
        <ele>24.651</ele>
        <time>2013-03-10T11:50:54Z</time>
      </trkpt>
      <trkpt lat="59.8816863" lon="17.666331">
        <ele>24.651</ele>
        <time>2013-03-10T11:50:55Z</time>
      </trkpt>
      <trkpt lat="59.8816767" lon="17.6663563">
        <ele>24.651</ele>
        <time>2013-03-10T11:50:56Z</time>
      </trkpt>
      <trkpt lat="59.8816692" lon="17.6663794">
        <ele>24.651</ele>
        <time>2013-03-10T11:50:57Z</time>
      </trkpt>
      <trkpt lat="59.8816631" lon="17.6664009">
        <ele>24.651</ele>
        <time>2013-03-10T11:50:58Z</time>
      </trkpt>
      <trkpt lat="59.8816573" lon="17.6664222">
        <ele>24.651</ele>
        <time>2013-03-10T11:50:59Z</time>
      </trkpt>
      <trkpt lat="59.8816512" lon="17.6664465">
        <ele>24.1703</ele>
        <time>2013-03-10T11:51:00Z</time>
      </trkpt>
      <trkpt lat="59.8816429" lon="17.6664723">
        <ele>24.1703</ele>
        <time>2013-03-10T11:51:01Z</time>
      </trkpt>
      <trkpt lat="59.8816347" lon="17.6664957">
        <ele>24.1703</ele>
        <time>2013-03-10T11:51:02Z</time>
      </trkpt>
      <trkpt lat="59.881628" lon="17.6665183">
        <ele>24.1703</ele>
        <time>2013-03-10T11:51:03Z</time>
      </trkpt>
      <trkpt lat="59.8816222" lon="17.6665398">
        <ele>24.1703</ele>
        <time>2013-03-10T11:51:04Z</time>
      </trkpt>
      <trkpt lat="59.881615" lon="17.6665654">
        <ele>24.1703</ele>
        <time>2013-03-10T11:51:05Z</time>
      </trkpt>
      <trkpt lat="59.8816067" lon="17.666591">
        <ele>24.1703</ele>
        <time>2013-03-10T11:51:06Z</time>
      </trkpt>
      <trkpt lat="59.8815988" lon="17.6666159">
        <ele>24.1703</ele>
        <time>2013-03-10T11:51:07Z</time>
      </trkpt>
      <trkpt lat="59.8815919" lon="17.6666371">
        <ele>24.1703</ele>
        <time>2013-03-10T11:51:08Z</time>
      </trkpt>
      <trkpt lat="59.8815859" lon="17.6666561">
        <ele>24.1703</ele>
        <time>2013-03-10T11:51:09Z</time>
      </trkpt>
      <trkpt lat="59.8815797" lon="17.666676">
        <ele>24.1703</ele>
        <time>2013-03-10T11:51:10Z</time>
      </trkpt>
      <trkpt lat="59.8815729" lon="17.6666955">
        <ele>24.1703</ele>
        <time>2013-03-10T11:51:11Z</time>
      </trkpt>
      <trkpt lat="59.8815658" lon="17.6667194">
        <ele>24.1703</ele>
        <time>2013-03-10T11:51:12Z</time>
      </trkpt>
      <trkpt lat="59.8815589" lon="17.6667419">
        <ele>24.1703</ele>
        <time>2013-03-10T11:51:13Z</time>
      </trkpt>
      <trkpt lat="59.8815524" lon="17.6667626">
        <ele>24.1703</ele>
        <time>2013-03-10T11:51:14Z</time>
      </trkpt>
      <trkpt lat="59.8815455" lon="17.6667848">
        <ele>24.1703</ele>
        <time>2013-03-10T11:51:15Z</time>
      </trkpt>
      <trkpt lat="59.8815381" lon="17.6668106">
        <ele>24.1703</ele>
        <time>2013-03-10T11:51:16Z</time>
      </trkpt>
      <trkpt lat="59.881531" lon="17.6668353">
        <ele>24.1703</ele>
        <time>2013-03-10T11:51:17Z</time>
      </trkpt>
      <trkpt lat="59.8815243" lon="17.6668587">
        <ele>24.1703</ele>
        <time>2013-03-10T11:51:18Z</time>
      </trkpt>
      <trkpt lat="59.881517" lon="17.66688">
        <ele>24.1703</ele>
        <time>2013-03-10T11:51:19Z</time>
      </trkpt>
      <trkpt lat="59.8815098" lon="17.6669032">
        <ele>24.1703</ele>
        <time>2013-03-10T11:51:20Z</time>
      </trkpt>
      <trkpt lat="59.8815031" lon="17.6669246">
        <ele>24.1703</ele>
        <time>2013-03-10T11:51:21Z</time>
      </trkpt>
      <trkpt lat="59.8814968" lon="17.6669458">
        <ele>24.1703</ele>
        <time>2013-03-10T11:51:22Z</time>
      </trkpt>
      <trkpt lat="59.8814896" lon="17.666969">
        <ele>24.1703</ele>
        <time>2013-03-10T11:51:23Z</time>
      </trkpt>
      <trkpt lat="59.8814818" lon="17.6669925">
        <ele>24.1703</ele>
        <time>2013-03-10T11:51:24Z</time>
      </trkpt>
      <trkpt lat="59.8814741" lon="17.6670152">
        <ele>24.1703</ele>
        <time>2013-03-10T11:51:25Z</time>
      </trkpt>
      <trkpt lat="59.8814664" lon="17.6670385">
        <ele>24.1703</ele>
        <time>2013-03-10T11:51:26Z</time>
      </trkpt>
      <trkpt lat="59.8814585" lon="17.6670627">
        <ele>23.6896</ele>
        <time>2013-03-10T11:51:27Z</time>
      </trkpt>
      <trkpt lat="59.8814513" lon="17.667086">
        <ele>23.6896</ele>
        <time>2013-03-10T11:51:28Z</time>
      </trkpt>
      <trkpt lat="59.881444" lon="17.6671095">
        <ele>23.6896</ele>
        <time>2013-03-10T11:51:29Z</time>
      </trkpt>
      <trkpt lat="59.8814362" lon="17.6671339">
        <ele>23.6896</ele>
        <time>2013-03-10T11:51:30Z</time>
      </trkpt>
      <trkpt lat="59.88143" lon="17.6671536">
        <ele>23.6896</ele>
        <time>2013-03-10T11:51:31Z</time>
      </trkpt>
      <trkpt lat="59.8814247" lon="17.6671747">
        <ele>23.6896</ele>
        <time>2013-03-10T11:51:32Z</time>
      </trkpt>
      <trkpt lat="59.881419" lon="17.6671951">
        <ele>23.6896</ele>
        <time>2013-03-10T11:51:33Z</time>
      </trkpt>
      <trkpt lat="59.8814124" lon="17.6672158">
        <ele>23.6896</ele>
        <time>2013-03-10T11:51:34Z</time>
      </trkpt>
      <trkpt lat="59.8814053" lon="17.6672374">
        <ele>23.6896</ele>
        <time>2013-03-10T11:51:35Z</time>
      </trkpt>
      <trkpt lat="59.8813988" lon="17.6672577">
        <ele>23.6896</ele>
        <time>2013-03-10T11:51:36Z</time>
      </trkpt>
      <trkpt lat="59.8813917" lon="17.667278">
        <ele>23.6896</ele>
        <time>2013-03-10T11:51:37Z</time>
      </trkpt>
      <trkpt lat="59.8813847" lon="17.6673002">
        <ele>23.6896</ele>
        <time>2013-03-10T11:51:38Z</time>
      </trkpt>
      <trkpt lat="59.8813781" lon="17.6673224">
        <ele>23.6896</ele>
        <time>2013-03-10T11:51:39Z</time>
      </trkpt>
      <trkpt lat="59.8813709" lon="17.6673432">
        <ele>23.6896</ele>
        <time>2013-03-10T11:51:40Z</time>
      </trkpt>
      <trkpt lat="59.8813625" lon="17.6673638">
        <ele>23.6896</ele>
        <time>2013-03-10T11:51:41Z</time>
      </trkpt>
      <trkpt lat="59.8813545" lon="17.6673851">
        <ele>23.6896</ele>
        <time>2013-03-10T11:51:42Z</time>
      </trkpt>
      <trkpt lat="59.8813485" lon="17.6674061">
        <ele>23.6896</ele>
        <time>2013-03-10T11:51:43Z</time>
      </trkpt>
      <trkpt lat="59.8813425" lon="17.6674284">
        <ele>23.6896</ele>
        <time>2013-03-10T11:51:44Z</time>
      </trkpt>
      <trkpt lat="59.8813348" lon="17.6674535">
        <ele>23.6896</ele>
        <time>2013-03-10T11:51:45Z</time>
      </trkpt>
      <trkpt lat="59.8813269" lon="17.6674768">
        <ele>23.6896</ele>
        <time>2013-03-10T11:51:46Z</time>
      </trkpt>
      <trkpt lat="59.8813196" lon="17.6674969">
        <ele>23.6896</ele>
        <time>2013-03-10T11:51:47Z</time>
      </trkpt>
      <trkpt lat="59.8813124" lon="17.6675196">
        <ele>23.6896</ele>
        <time>2013-03-10T11:51:48Z</time>
      </trkpt>
      <trkpt lat="59.881305" lon="17.6675443">
        <ele>23.6896</ele>
        <time>2013-03-10T11:51:49Z</time>
      </trkpt>
      <trkpt lat="59.8812979" lon="17.6675706">
        <ele>24.1703</ele>
        <time>2013-03-10T11:51:50Z</time>
      </trkpt>
      <trkpt lat="59.8812908" lon="17.6675935">
        <ele>24.1703</ele>
        <time>2013-03-10T11:51:51Z</time>
      </trkpt>
      <trkpt lat="59.8812839" lon="17.6676146">
        <ele>24.1703</ele>
        <time>2013-03-10T11:51:52Z</time>
      </trkpt>
      <trkpt lat="59.881277" lon="17.667637">
        <ele>24.1703</ele>
        <time>2013-03-10T11:51:53Z</time>
      </trkpt>
      <trkpt lat="59.8812699" lon="17.6676606">
        <ele>24.1703</ele>
        <time>2013-03-10T11:51:54Z</time>
      </trkpt>
      <trkpt lat="59.8812632" lon="17.667685">
        <ele>24.1703</ele>
        <time>2013-03-10T11:51:55Z</time>
      </trkpt>
      <trkpt lat="59.8812569" lon="17.6677074">
        <ele>24.1703</ele>
        <time>2013-03-10T11:51:56Z</time>
      </trkpt>
      <trkpt lat="59.8812508" lon="17.6677286">
        <ele>24.1703</ele>
        <time>2013-03-10T11:51:57Z</time>
      </trkpt>
      <trkpt lat="59.8812439" lon="17.6677498">
        <ele>24.1703</ele>
        <time>2013-03-10T11:51:58Z</time>
      </trkpt>
      <trkpt lat="59.8812361" lon="17.6677721">
        <ele>23.6896</ele>
        <time>2013-03-10T11:51:59Z</time>
      </trkpt>
      <trkpt lat="59.8812283" lon="17.6677949">
        <ele>23.6896</ele>
        <time>2013-03-10T11:52:00Z</time>
      </trkpt>
      <trkpt lat="59.8812208" lon="17.6678174">
        <ele>24.1703</ele>
        <time>2013-03-10T11:52:01Z</time>
      </trkpt>
      <trkpt lat="59.8812139" lon="17.6678403">
        <ele>23.6896</ele>
        <time>2013-03-10T11:52:02Z</time>
      </trkpt>
      <trkpt lat="59.8812068" lon="17.6678631">
        <ele>23.6896</ele>
        <time>2013-03-10T11:52:03Z</time>
      </trkpt>
      <trkpt lat="59.8812006" lon="17.6678846">
        <ele>23.6896</ele>
        <time>2013-03-10T11:52:04Z</time>
      </trkpt>
      <trkpt lat="59.8811953" lon="17.6679065">
        <ele>23.6896</ele>
        <time>2013-03-10T11:52:05Z</time>
      </trkpt>
      <trkpt lat="59.8811893" lon="17.6679301">
        <ele>23.6896</ele>
        <time>2013-03-10T11:52:06Z</time>
      </trkpt>
      <trkpt lat="59.8811828" lon="17.6679526">
        <ele>24.1703</ele>
        <time>2013-03-10T11:52:07Z</time>
      </trkpt>
      <trkpt lat="59.8811752" lon="17.6679751">
        <ele>24.1703</ele>
        <time>2013-03-10T11:52:08Z</time>
      </trkpt>
      <trkpt lat="59.8811659" lon="17.6679993">
        <ele>24.1703</ele>
        <time>2013-03-10T11:52:09Z</time>
      </trkpt>
      <trkpt lat="59.8811564" lon="17.6680236">
        <ele>24.1703</ele>
        <time>2013-03-10T11:52:10Z</time>
      </trkpt>
      <trkpt lat="59.8811494" lon="17.6680462">
        <ele>24.1703</ele>
        <time>2013-03-10T11:52:11Z</time>
      </trkpt>
      <trkpt lat="59.8811444" lon="17.6680676">
        <ele>24.1703</ele>
        <time>2013-03-10T11:52:12Z</time>
      </trkpt>
      <trkpt lat="59.8811384" lon="17.6680911">
        <ele>24.1703</ele>
        <time>2013-03-10T11:52:13Z</time>
      </trkpt>
      <trkpt lat="59.8811307" lon="17.6681134">
        <ele>24.1703</ele>
        <time>2013-03-10T11:52:14Z</time>
      </trkpt>
      <trkpt lat="59.8811197" lon="17.6681529">
        <ele>25.1317</ele>
        <time>2013-03-10T11:52:15Z</time>
      </trkpt>
      <trkpt lat="59.8811123" lon="17.6681901">
        <ele>25.6123</ele>
        <time>2013-03-10T11:52:16Z</time>
      </trkpt>
      <trkpt lat="59.8811064" lon="17.6682205">
        <ele>25.6123</ele>
        <time>2013-03-10T11:52:17Z</time>
      </trkpt>
      <trkpt lat="59.8811007" lon="17.6682449">
        <ele>25.6123</ele>
        <time>2013-03-10T11:52:18Z</time>
      </trkpt>
      <trkpt lat="59.8810969" lon="17.6682619">
        <ele>26.0929</ele>
        <time>2013-03-10T11:52:19Z</time>
      </trkpt>
      <trkpt lat="59.8810912" lon="17.6682787">
        <ele>26.0929</ele>
        <time>2013-03-10T11:52:20Z</time>
      </trkpt>
      <trkpt lat="59.8810861" lon="17.6682974">
        <ele>26.0929</ele>
        <time>2013-03-10T11:52:21Z</time>
      </trkpt>
      <trkpt lat="59.8810805" lon="17.6683164">
        <ele>26.0929</ele>
        <time>2013-03-10T11:52:22Z</time>
      </trkpt>
      <trkpt lat="59.8810755" lon="17.6683304">
        <ele>26.0929</ele>
        <time>2013-03-10T11:52:23Z</time>
      </trkpt>
      <trkpt lat="59.8810694" lon="17.668359">
        <ele>26.5736</ele>
        <time>2013-03-10T11:52:24Z</time>
      </trkpt>
      <trkpt lat="59.8810675" lon="17.6683811">
        <ele>27.0543</ele>
        <time>2013-03-10T11:52:25Z</time>
      </trkpt>
      <trkpt lat="59.8810627" lon="17.6683987">
        <ele>27.5349</ele>
        <time>2013-03-10T11:52:26Z</time>
      </trkpt>
      <trkpt lat="59.8810584" lon="17.6684217">
        <ele>27.5349</ele>
        <time>2013-03-10T11:52:27Z</time>
      </trkpt>
      <trkpt lat="59.8810523" lon="17.6684487">
        <ele>28.0155</ele>
        <time>2013-03-10T11:52:28Z</time>
      </trkpt>
      <trkpt lat="59.8810429" lon="17.6684771">
        <ele>28.4962</ele>
        <time>2013-03-10T11:52:29Z</time>
      </trkpt>
      <trkpt lat="59.8810328" lon="17.6685033">
        <ele>28.4962</ele>
        <time>2013-03-10T11:52:30Z</time>
      </trkpt>
      <trkpt lat="59.8810243" lon="17.6685248">
        <ele>28.4962</ele>
        <time>2013-03-10T11:52:31Z</time>
      </trkpt>
      <trkpt lat="59.8810161" lon="17.6685425">
        <ele>28.4962</ele>
        <time>2013-03-10T11:52:32Z</time>
      </trkpt>
      <trkpt lat="59.8810066" lon="17.6685656">
        <ele>28.4962</ele>
        <time>2013-03-10T11:52:33Z</time>
      </trkpt>
      <trkpt lat="59.880997" lon="17.6685837">
        <ele>28.0155</ele>
        <time>2013-03-10T11:52:34Z</time>
      </trkpt>
      <trkpt lat="59.880989" lon="17.6686008">
        <ele>28.4962</ele>
        <time>2013-03-10T11:52:35Z</time>
      </trkpt>
      <trkpt lat="59.8809809" lon="17.6686289">
        <ele>28.9769</ele>
        <time>2013-03-10T11:52:36Z</time>
      </trkpt>
      <trkpt lat="59.8809753" lon="17.6686499">
        <ele>28.9769</ele>
        <time>2013-03-10T11:52:37Z</time>
      </trkpt>
      <trkpt lat="59.8809681" lon="17.6686666">
        <ele>28.9769</ele>
        <time>2013-03-10T11:52:38Z</time>
      </trkpt>
      <trkpt lat="59.8809579" lon="17.6686852">
        <ele>28.9769</ele>
        <time>2013-03-10T11:52:39Z</time>
      </trkpt>
      <trkpt lat="59.8809484" lon="17.6687024">
        <ele>28.9769</ele>
        <time>2013-03-10T11:52:40Z</time>
      </trkpt>
      <trkpt lat="59.8809399" lon="17.6687158">
        <ele>28.9769</ele>
        <time>2013-03-10T11:52:41Z</time>
      </trkpt>
      <trkpt lat="59.8809297" lon="17.6687348">
        <ele>28.9769</ele>
        <time>2013-03-10T11:52:42Z</time>
      </trkpt>
      <trkpt lat="59.8809191" lon="17.6687521">
        <ele>28.9769</ele>
        <time>2013-03-10T11:52:43Z</time>
      </trkpt>
      <trkpt lat="59.8809068" lon="17.6687789">
        <ele>28.9769</ele>
        <time>2013-03-10T11:52:44Z</time>
      </trkpt>
      <trkpt lat="59.8808954" lon="17.6687945">
        <ele>28.9769</ele>
        <time>2013-03-10T11:52:45Z</time>
      </trkpt>
      <trkpt lat="59.8808844" lon="17.6688106">
        <ele>28.9769</ele>
        <time>2013-03-10T11:52:46Z</time>
      </trkpt>
      <trkpt lat="59.8808721" lon="17.6688248">
        <ele>28.9769</ele>
        <time>2013-03-10T11:52:47Z</time>
      </trkpt>
      <trkpt lat="59.8808608" lon="17.668834">
        <ele>28.9769</ele>
        <time>2013-03-10T11:52:48Z</time>
      </trkpt>
      <trkpt lat="59.8808499" lon="17.6688473">
        <ele>28.9769</ele>
        <time>2013-03-10T11:52:49Z</time>
      </trkpt>
      <trkpt lat="59.8808379" lon="17.6688634">
        <ele>28.4962</ele>
        <time>2013-03-10T11:52:50Z</time>
      </trkpt>
      <trkpt lat="59.880825" lon="17.6688877">
        <ele>28.9769</ele>
        <time>2013-03-10T11:52:51Z</time>
      </trkpt>
      <trkpt lat="59.8808131" lon="17.6689193">
        <ele>29.4575</ele>
        <time>2013-03-10T11:52:52Z</time>
      </trkpt>
      <trkpt lat="59.8808016" lon="17.6689439">
        <ele>29.4575</ele>
        <time>2013-03-10T11:52:53Z</time>
      </trkpt>
      <trkpt lat="59.8807902" lon="17.6689619">
        <ele>29.4575</ele>
        <time>2013-03-10T11:52:54Z</time>
      </trkpt>
      <trkpt lat="59.880778" lon="17.668977">
        <ele>29.4575</ele>
        <time>2013-03-10T11:52:55Z</time>
      </trkpt>
      <trkpt lat="59.8807669" lon="17.6689905">
        <ele>29.4575</ele>
        <time>2013-03-10T11:52:56Z</time>
      </trkpt>
      <trkpt lat="59.880755" lon="17.6690065">
        <ele>29.4575</ele>
        <time>2013-03-10T11:52:57Z</time>
      </trkpt>
      <trkpt lat="59.8807431" lon="17.6690229">
        <ele>28.9769</ele>
        <time>2013-03-10T11:52:58Z</time>
      </trkpt>
      <trkpt lat="59.8807336" lon="17.6690363">
        <ele>28.4962</ele>
        <time>2013-03-10T11:52:59Z</time>
      </trkpt>
      <trkpt lat="59.8807265" lon="17.6690478">
        <ele>28.4962</ele>
        <time>2013-03-10T11:53:00Z</time>
      </trkpt>
      <trkpt lat="59.8807171" lon="17.6690662">
        <ele>28.4962</ele>
        <time>2013-03-10T11:53:01Z</time>
      </trkpt>
      <trkpt lat="59.8807065" lon="17.6690874">
        <ele>28.4962</ele>
        <time>2013-03-10T11:53:02Z</time>
      </trkpt>
      <trkpt lat="59.8806965" lon="17.6691099">
        <ele>28.4962</ele>
        <time>2013-03-10T11:53:03Z</time>
      </trkpt>
      <trkpt lat="59.8806882" lon="17.6691339">
        <ele>28.0155</ele>
        <time>2013-03-10T11:53:04Z</time>
      </trkpt>
      <trkpt lat="59.8806806" lon="17.6691578">
        <ele>28.0155</ele>
        <time>2013-03-10T11:53:05Z</time>
      </trkpt>
      <trkpt lat="59.880672" lon="17.6691794">
        <ele>28.0155</ele>
        <time>2013-03-10T11:53:06Z</time>
      </trkpt>
      <trkpt lat="59.8806613" lon="17.6692121">
        <ele>28.4962</ele>
        <time>2013-03-10T11:53:07Z</time>
      </trkpt>
      <trkpt lat="59.8806546" lon="17.6692311">
        <ele>28.4962</ele>
        <time>2013-03-10T11:53:08Z</time>
      </trkpt>
      <trkpt lat="59.8806455" lon="17.6692547">
        <ele>28.4962</ele>
        <time>2013-03-10T11:53:09Z</time>
      </trkpt>
      <trkpt lat="59.8806359" lon="17.6692759">
        <ele>28.4962</ele>
        <time>2013-03-10T11:53:10Z</time>
      </trkpt>
      <trkpt lat="59.8806284" lon="17.6693002">
        <ele>28.4962</ele>
        <time>2013-03-10T11:53:11Z</time>
      </trkpt>
      <trkpt lat="59.8806213" lon="17.669324">
        <ele>28.4962</ele>
        <time>2013-03-10T11:53:12Z</time>
      </trkpt>
      <trkpt lat="59.8806135" lon="17.6693463">
        <ele>28.4962</ele>
        <time>2013-03-10T11:53:13Z</time>
      </trkpt>
      <trkpt lat="59.880606" lon="17.6693681">
        <ele>28.4962</ele>
        <time>2013-03-10T11:53:14Z</time>
      </trkpt>
      <trkpt lat="59.8805982" lon="17.6693883">
        <ele>28.0155</ele>
        <time>2013-03-10T11:53:15Z</time>
      </trkpt>
      <trkpt lat="59.8805898" lon="17.6694103">
        <ele>28.0155</ele>
        <time>2013-03-10T11:53:16Z</time>
      </trkpt>
      <trkpt lat="59.8805805" lon="17.6694353">
        <ele>28.0155</ele>
        <time>2013-03-10T11:53:17Z</time>
      </trkpt>
      <trkpt lat="59.8805713" lon="17.6694572">
        <ele>28.0155</ele>
        <time>2013-03-10T11:53:18Z</time>
      </trkpt>
      <trkpt lat="59.8805628" lon="17.6694808">
        <ele>28.4962</ele>
        <time>2013-03-10T11:53:19Z</time>
      </trkpt>
      <trkpt lat="59.8805536" lon="17.6695038">
        <ele>28.4962</ele>
        <time>2013-03-10T11:53:20Z</time>
      </trkpt>
      <trkpt lat="59.8805445" lon="17.6695266">
        <ele>28.4962</ele>
        <time>2013-03-10T11:53:21Z</time>
      </trkpt>
      <trkpt lat="59.8805365" lon="17.6695504">
        <ele>28.4962</ele>
        <time>2013-03-10T11:53:22Z</time>
      </trkpt>
      <trkpt lat="59.8805286" lon="17.6695732">
        <ele>28.4962</ele>
        <time>2013-03-10T11:53:23Z</time>
      </trkpt>
      <trkpt lat="59.8805204" lon="17.6695955">
        <ele>28.4962</ele>
        <time>2013-03-10T11:53:24Z</time>
      </trkpt>
      <trkpt lat="59.880512" lon="17.6696188">
        <ele>28.4962</ele>
        <time>2013-03-10T11:53:25Z</time>
      </trkpt>
      <trkpt lat="59.8805036" lon="17.6696384">
        <ele>28.4962</ele>
        <time>2013-03-10T11:53:26Z</time>
      </trkpt>
      <trkpt lat="59.8804946" lon="17.6696581">
        <ele>28.4962</ele>
        <time>2013-03-10T11:53:27Z</time>
      </trkpt>
      <trkpt lat="59.8804852" lon="17.6696783">
        <ele>28.4962</ele>
        <time>2013-03-10T11:53:28Z</time>
      </trkpt>
      <trkpt lat="59.8804758" lon="17.669696">
        <ele>28.4962</ele>
        <time>2013-03-10T11:53:29Z</time>
      </trkpt>
      <trkpt lat="59.8804665" lon="17.6697144">
        <ele>28.4962</ele>
        <time>2013-03-10T11:53:30Z</time>
      </trkpt>
      <trkpt lat="59.8804572" lon="17.6697337">
        <ele>28.0155</ele>
        <time>2013-03-10T11:53:31Z</time>
      </trkpt>
      <trkpt lat="59.8804484" lon="17.6697544">
        <ele>28.4962</ele>
        <time>2013-03-10T11:53:32Z</time>
      </trkpt>
      <trkpt lat="59.8804397" lon="17.6697742">
        <ele>28.0155</ele>
        <time>2013-03-10T11:53:33Z</time>
      </trkpt>
      <trkpt lat="59.8804308" lon="17.6697943">
        <ele>28.4962</ele>
        <time>2013-03-10T11:53:34Z</time>
      </trkpt>
      <trkpt lat="59.8804216" lon="17.6698128">
        <ele>28.4962</ele>
        <time>2013-03-10T11:53:35Z</time>
      </trkpt>
      <trkpt lat="59.8804121" lon="17.6698325">
        <ele>28.4962</ele>
        <time>2013-03-10T11:53:36Z</time>
      </trkpt>
      <trkpt lat="59.8804023" lon="17.6698514">
        <ele>28.4962</ele>
        <time>2013-03-10T11:53:37Z</time>
      </trkpt>
      <trkpt lat="59.8803919" lon="17.669869">
        <ele>28.4962</ele>
        <time>2013-03-10T11:53:38Z</time>
      </trkpt>
      <trkpt lat="59.880381" lon="17.6698835">
        <ele>28.0155</ele>
        <time>2013-03-10T11:53:39Z</time>
      </trkpt>
      <trkpt lat="59.8803696" lon="17.6698965">
        <ele>28.0155</ele>
        <time>2013-03-10T11:53:40Z</time>
      </trkpt>
      <trkpt lat="59.8803582" lon="17.6699099">
        <ele>28.0155</ele>
        <time>2013-03-10T11:53:41Z</time>
      </trkpt>
      <trkpt lat="59.8803473" lon="17.6699223">
        <ele>27.5349</ele>
        <time>2013-03-10T11:53:42Z</time>
      </trkpt>
      <trkpt lat="59.8803366" lon="17.6699405">
        <ele>28.0155</ele>
        <time>2013-03-10T11:53:43Z</time>
      </trkpt>
      <trkpt lat="59.8803267" lon="17.6699657">
        <ele>28.0155</ele>
        <time>2013-03-10T11:53:44Z</time>
      </trkpt>
      <trkpt lat="59.8803166" lon="17.6699882">
        <ele>28.4962</ele>
        <time>2013-03-10T11:53:45Z</time>
      </trkpt>
      <trkpt lat="59.8803054" lon="17.6700055">
        <ele>28.4962</ele>
        <time>2013-03-10T11:53:46Z</time>
      </trkpt>
      <trkpt lat="59.8802954" lon="17.6700188">
        <ele>28.4962</ele>
        <time>2013-03-10T11:53:47Z</time>
      </trkpt>
      <trkpt lat="59.8802852" lon="17.6700387">
        <ele>28.4962</ele>
        <time>2013-03-10T11:53:48Z</time>
      </trkpt>
      <trkpt lat="59.8802754" lon="17.6700582">
        <ele>28.4962</ele>
        <time>2013-03-10T11:53:49Z</time>
      </trkpt>
      <trkpt lat="59.880265" lon="17.6700802">
        <ele>28.9769</ele>
        <time>2013-03-10T11:53:50Z</time>
      </trkpt>
      <trkpt lat="59.8802555" lon="17.6701016">
        <ele>28.9769</ele>
        <time>2013-03-10T11:53:51Z</time>
      </trkpt>
      <trkpt lat="59.8802453" lon="17.6701159">
        <ele>28.9769</ele>
        <time>2013-03-10T11:53:52Z</time>
      </trkpt>
      <trkpt lat="59.8802339" lon="17.6701311">
        <ele>29.4575</ele>
        <time>2013-03-10T11:53:53Z</time>
      </trkpt>
      <trkpt lat="59.8802241" lon="17.670145">
        <ele>28.9769</ele>
        <time>2013-03-10T11:53:54Z</time>
      </trkpt>
      <trkpt lat="59.8802133" lon="17.6701581">
        <ele>28.9769</ele>
        <time>2013-03-10T11:53:55Z</time>
      </trkpt>
      <trkpt lat="59.8802033" lon="17.670172">
        <ele>28.9769</ele>
        <time>2013-03-10T11:53:56Z</time>
      </trkpt>
      <trkpt lat="59.880194" lon="17.6701843">
        <ele>28.9769</ele>
        <time>2013-03-10T11:53:57Z</time>
      </trkpt>
      <trkpt lat="59.8801848" lon="17.6701979">
        <ele>28.9769</ele>
        <time>2013-03-10T11:53:58Z</time>
      </trkpt>
      <trkpt lat="59.8801774" lon="17.6702119">
        <ele>28.9769</ele>
        <time>2013-03-10T11:53:59Z</time>
      </trkpt>
      <trkpt lat="59.8801686" lon="17.6702249">
        <ele>28.9769</ele>
        <time>2013-03-10T11:54:00Z</time>
      </trkpt>
      <trkpt lat="59.8801614" lon="17.6702343">
        <ele>28.9769</ele>
        <time>2013-03-10T11:54:01Z</time>
      </trkpt>
      <trkpt lat="59.8801524" lon="17.6702436">
        <ele>28.4962</ele>
        <time>2013-03-10T11:54:02Z</time>
      </trkpt>
      <trkpt lat="59.8801397" lon="17.6702548">
        <ele>28.4962</ele>
        <time>2013-03-10T11:54:03Z</time>
      </trkpt>
      <trkpt lat="59.8801287" lon="17.6702671">
        <ele>28.0155</ele>
        <time>2013-03-10T11:54:04Z</time>
      </trkpt>
      <trkpt lat="59.8801184" lon="17.6702803">
        <ele>28.0155</ele>
        <time>2013-03-10T11:54:05Z</time>
      </trkpt>
      <trkpt lat="59.8801091" lon="17.6702967">
        <ele>28.0155</ele>
        <time>2013-03-10T11:54:06Z</time>
      </trkpt>
      <trkpt lat="59.8800982" lon="17.6703175">
        <ele>28.0155</ele>
        <time>2013-03-10T11:54:07Z</time>
      </trkpt>
      <trkpt lat="59.8800889" lon="17.6703365">
        <ele>28.4962</ele>
        <time>2013-03-10T11:54:08Z</time>
      </trkpt>
      <trkpt lat="59.8800805" lon="17.670348">
        <ele>28.0155</ele>
        <time>2013-03-10T11:54:09Z</time>
      </trkpt>
      <trkpt lat="59.8800709" lon="17.670358">
        <ele>28.0155</ele>
        <time>2013-03-10T11:54:10Z</time>
      </trkpt>
      <trkpt lat="59.8800623" lon="17.6703673">
        <ele>28.0155</ele>
        <time>2013-03-10T11:54:11Z</time>
      </trkpt>
      <trkpt lat="59.8800547" lon="17.6703744">
        <ele>27.5349</ele>
        <time>2013-03-10T11:54:12Z</time>
      </trkpt>
      <trkpt lat="59.8800473" lon="17.6703849">
        <ele>27.5349</ele>
        <time>2013-03-10T11:54:13Z</time>
      </trkpt>
      <trkpt lat="59.8800391" lon="17.670398">
        <ele>27.5349</ele>
        <time>2013-03-10T11:54:14Z</time>
      </trkpt>
      <trkpt lat="59.8800322" lon="17.6704093">
        <ele>27.5349</ele>
        <time>2013-03-10T11:54:15Z</time>
      </trkpt>
      <trkpt lat="59.8800226" lon="17.6704325">
        <ele>28.0155</ele>
        <time>2013-03-10T11:54:16Z</time>
      </trkpt>
      <trkpt lat="59.8800112" lon="17.6704529">
        <ele>28.4962</ele>
        <time>2013-03-10T11:54:17Z</time>
      </trkpt>
      <trkpt lat="59.8800011" lon="17.6704655">
        <ele>28.4962</ele>
        <time>2013-03-10T11:54:18Z</time>
      </trkpt>
      <trkpt lat="59.8799915" lon="17.6704787">
        <ele>28.4962</ele>
        <time>2013-03-10T11:54:19Z</time>
      </trkpt>
      <trkpt lat="59.8799817" lon="17.670493">
        <ele>28.0155</ele>
        <time>2013-03-10T11:54:20Z</time>
      </trkpt>
      <trkpt lat="59.8799665" lon="17.6705238">
        <ele>28.9769</ele>
        <time>2013-03-10T11:54:21Z</time>
      </trkpt>
      <trkpt lat="59.8799521" lon="17.6705454">
        <ele>29.4575</ele>
        <time>2013-03-10T11:54:22Z</time>
      </trkpt>
      <trkpt lat="59.8799398" lon="17.6705579">
        <ele>29.4575</ele>
        <time>2013-03-10T11:54:23Z</time>
      </trkpt>
      <trkpt lat="59.8799305" lon="17.6705672">
        <ele>29.4575</ele>
        <time>2013-03-10T11:54:24Z</time>
      </trkpt>
      <trkpt lat="59.8799211" lon="17.6705808">
        <ele>29.4575</ele>
        <time>2013-03-10T11:54:25Z</time>
      </trkpt>
      <trkpt lat="59.8799118" lon="17.670594">
        <ele>29.4575</ele>
        <time>2013-03-10T11:54:26Z</time>
      </trkpt>
      <trkpt lat="59.8799043" lon="17.6706096">
        <ele>29.4575</ele>
        <time>2013-03-10T11:54:27Z</time>
      </trkpt>
      <trkpt lat="59.8798936" lon="17.670629">
        <ele>29.4575</ele>
        <time>2013-03-10T11:54:28Z</time>
      </trkpt>
      <trkpt lat="59.8798817" lon="17.6706403">
        <ele>28.9769</ele>
        <time>2013-03-10T11:54:29Z</time>
      </trkpt>
      <trkpt lat="59.8798693" lon="17.6706577">
        <ele>29.4575</ele>
        <time>2013-03-10T11:54:30Z</time>
      </trkpt>
      <trkpt lat="59.8798594" lon="17.6706719">
        <ele>29.4575</ele>
        <time>2013-03-10T11:54:31Z</time>
      </trkpt>
      <trkpt lat="59.8798509" lon="17.6706921">
        <ele>29.4575</ele>
        <time>2013-03-10T11:54:32Z</time>
      </trkpt>
      <trkpt lat="59.8798419" lon="17.6707049">
        <ele>29.4575</ele>
        <time>2013-03-10T11:54:33Z</time>
      </trkpt>
      <trkpt lat="59.8798355" lon="17.6707123">
        <ele>29.4575</ele>
        <time>2013-03-10T11:54:34Z</time>
      </trkpt>
      <trkpt lat="59.8798277" lon="17.670723">
        <ele>28.9769</ele>
        <time>2013-03-10T11:54:35Z</time>
      </trkpt>
      <trkpt lat="59.87982" lon="17.6707268">
        <ele>28.9769</ele>
        <time>2013-03-10T11:54:36Z</time>
      </trkpt>
      <trkpt lat="59.8798115" lon="17.670733">
        <ele>28.4962</ele>
        <time>2013-03-10T11:54:37Z</time>
      </trkpt>
      <trkpt lat="59.8798046" lon="17.6707416">
        <ele>28.0155</ele>
        <time>2013-03-10T11:54:38Z</time>
      </trkpt>
      <trkpt lat="59.8797976" lon="17.6707577">
        <ele>28.0155</ele>
        <time>2013-03-10T11:54:39Z</time>
      </trkpt>
      <trkpt lat="59.8797843" lon="17.6707962">
        <ele>29.4575</ele>
        <time>2013-03-10T11:54:40Z</time>
      </trkpt>
      <trkpt lat="59.8797764" lon="17.6708055">
        <ele>29.4575</ele>
        <time>2013-03-10T11:54:41Z</time>
      </trkpt>
      <trkpt lat="59.8797672" lon="17.6708257">
        <ele>29.9381</ele>
        <time>2013-03-10T11:54:42Z</time>
      </trkpt>
      <trkpt lat="59.879761" lon="17.670832">
        <ele>29.9381</ele>
        <time>2013-03-10T11:54:43Z</time>
      </trkpt>
      <trkpt lat="59.8797479" lon="17.6708419">
        <ele>29.4575</ele>
        <time>2013-03-10T11:54:44Z</time>
      </trkpt>
      <trkpt lat="59.8797375" lon="17.6708587">
        <ele>29.9381</ele>
        <time>2013-03-10T11:54:45Z</time>
      </trkpt>
      <trkpt lat="59.8797268" lon="17.6708827">
        <ele>29.9381</ele>
        <time>2013-03-10T11:54:46Z</time>
      </trkpt>
      <trkpt lat="59.8797167" lon="17.6709012">
        <ele>30.4188</ele>
        <time>2013-03-10T11:54:47Z</time>
      </trkpt>
      <trkpt lat="59.8797054" lon="17.6709236">
        <ele>30.4188</ele>
        <time>2013-03-10T11:54:48Z</time>
      </trkpt>
      <trkpt lat="59.8796936" lon="17.6709558">
        <ele>30.8995</ele>
        <time>2013-03-10T11:54:49Z</time>
      </trkpt>
      <trkpt lat="59.8796808" lon="17.6709822">
        <ele>31.3801</ele>
        <time>2013-03-10T11:54:50Z</time>
      </trkpt>
      <trkpt lat="59.8796688" lon="17.6709946">
        <ele>31.3801</ele>
        <time>2013-03-10T11:54:51Z</time>
      </trkpt>
      <trkpt lat="59.8796583" lon="17.6710042">
        <ele>30.8995</ele>
        <time>2013-03-10T11:54:52Z</time>
      </trkpt>
      <trkpt lat="59.8796494" lon="17.6710151">
        <ele>30.4188</ele>
        <time>2013-03-10T11:54:53Z</time>
      </trkpt>
      <trkpt lat="59.8796382" lon="17.6710389">
        <ele>30.4188</ele>
        <time>2013-03-10T11:54:54Z</time>
      </trkpt>
      <trkpt lat="59.8796279" lon="17.67105">
        <ele>30.4188</ele>
        <time>2013-03-10T11:54:55Z</time>
      </trkpt>
      <trkpt lat="59.8796107" lon="17.6710806">
        <ele>31.3801</ele>
        <time>2013-03-10T11:54:56Z</time>
      </trkpt>
      <trkpt lat="59.8795994" lon="17.6710942">
        <ele>30.8995</ele>
        <time>2013-03-10T11:54:57Z</time>
      </trkpt>
      <trkpt lat="59.8795881" lon="17.6711024">
        <ele>30.4188</ele>
        <time>2013-03-10T11:54:58Z</time>
      </trkpt>
      <trkpt lat="59.8795759" lon="17.6711101">
        <ele>30.4188</ele>
        <time>2013-03-10T11:54:59Z</time>
      </trkpt>
      <trkpt lat="59.8795624" lon="17.6711273">
        <ele>29.9381</ele>
        <time>2013-03-10T11:55:00Z</time>
      </trkpt>
      <trkpt lat="59.8795502" lon="17.671147">
        <ele>29.9381</ele>
        <time>2013-03-10T11:55:01Z</time>
      </trkpt>
      <trkpt lat="59.8795377" lon="17.6711635">
        <ele>29.9381</ele>
        <time>2013-03-10T11:55:02Z</time>
      </trkpt>
      <trkpt lat="59.8795274" lon="17.6711793">
        <ele>29.9381</ele>
        <time>2013-03-10T11:55:03Z</time>
      </trkpt>
      <trkpt lat="59.8795165" lon="17.6711951">
        <ele>29.9381</ele>
        <time>2013-03-10T11:55:04Z</time>
      </trkpt>
      <trkpt lat="59.8795051" lon="17.6712102">
        <ele>29.9381</ele>
        <time>2013-03-10T11:55:05Z</time>
      </trkpt>
      <trkpt lat="59.8794919" lon="17.6712301">
        <ele>29.9381</ele>
        <time>2013-03-10T11:55:06Z</time>
      </trkpt>
      <trkpt lat="59.8794782" lon="17.6712505">
        <ele>29.9381</ele>
        <time>2013-03-10T11:55:07Z</time>
      </trkpt>
      <trkpt lat="59.8794656" lon="17.6712632">
        <ele>30.4188</ele>
        <time>2013-03-10T11:55:08Z</time>
      </trkpt>
      <trkpt lat="59.8794569" lon="17.6712717">
        <ele>29.9381</ele>
        <time>2013-03-10T11:55:09Z</time>
      </trkpt>
      <trkpt lat="59.8794458" lon="17.6712817">
        <ele>29.9381</ele>
        <time>2013-03-10T11:55:10Z</time>
      </trkpt>
      <trkpt lat="59.8794329" lon="17.6712976">
        <ele>29.9381</ele>
        <time>2013-03-10T11:55:11Z</time>
      </trkpt>
      <trkpt lat="59.8794216" lon="17.6713145">
        <ele>29.9381</ele>
        <time>2013-03-10T11:55:12Z</time>
      </trkpt>
      <trkpt lat="59.8794056" lon="17.6713275">
        <ele>29.9381</ele>
        <time>2013-03-10T11:55:13Z</time>
      </trkpt>
      <trkpt lat="59.8793917" lon="17.6713406">
        <ele>29.9381</ele>
        <time>2013-03-10T11:55:14Z</time>
      </trkpt>
      <trkpt lat="59.8793804" lon="17.6713505">
        <ele>29.9381</ele>
        <time>2013-03-10T11:55:15Z</time>
      </trkpt>
      <trkpt lat="59.8793693" lon="17.6713629">
        <ele>29.4575</ele>
        <time>2013-03-10T11:55:16Z</time>
      </trkpt>
      <trkpt lat="59.8793564" lon="17.6713805">
        <ele>29.4575</ele>
        <time>2013-03-10T11:55:17Z</time>
      </trkpt>
      <trkpt lat="59.8793464" lon="17.6713924">
        <ele>29.4575</ele>
        <time>2013-03-10T11:55:18Z</time>
      </trkpt>
      <trkpt lat="59.8793366" lon="17.6714023">
        <ele>29.4575</ele>
        <time>2013-03-10T11:55:19Z</time>
      </trkpt>
      <trkpt lat="59.8793264" lon="17.671415">
        <ele>29.4575</ele>
        <time>2013-03-10T11:55:20Z</time>
      </trkpt>
      <trkpt lat="59.8793176" lon="17.6714235">
        <ele>28.9769</ele>
        <time>2013-03-10T11:55:21Z</time>
      </trkpt>
      <trkpt lat="59.8793065" lon="17.671433">
        <ele>29.4575</ele>
        <time>2013-03-10T11:55:22Z</time>
      </trkpt>
      <trkpt lat="59.8792954" lon="17.6714446">
        <ele>29.4575</ele>
        <time>2013-03-10T11:55:23Z</time>
      </trkpt>
      <trkpt lat="59.8792843" lon="17.6714572">
        <ele>28.9769</ele>
        <time>2013-03-10T11:55:24Z</time>
      </trkpt>
      <trkpt lat="59.8792719" lon="17.6714707">
        <ele>29.4575</ele>
        <time>2013-03-10T11:55:25Z</time>
      </trkpt>
      <trkpt lat="59.879259" lon="17.6714814">
        <ele>29.4575</ele>
        <time>2013-03-10T11:55:26Z</time>
      </trkpt>
      <trkpt lat="59.879248" lon="17.6714932">
        <ele>29.4575</ele>
        <time>2013-03-10T11:55:27Z</time>
      </trkpt>
      <trkpt lat="59.8792383" lon="17.6714976">
        <ele>29.4575</ele>
        <time>2013-03-10T11:55:28Z</time>
      </trkpt>
      <trkpt lat="59.8792284" lon="17.6714972">
        <ele>28.9769</ele>
        <time>2013-03-10T11:55:29Z</time>
      </trkpt>
      <trkpt lat="59.8792161" lon="17.6714991">
        <ele>28.9769</ele>
        <time>2013-03-10T11:55:30Z</time>
      </trkpt>
      <trkpt lat="59.8792052" lon="17.6715006">
        <ele>28.4962</ele>
        <time>2013-03-10T11:55:31Z</time>
      </trkpt>
      <trkpt lat="59.8791927" lon="17.671501">
        <ele>28.0155</ele>
        <time>2013-03-10T11:55:32Z</time>
      </trkpt>
      <trkpt lat="59.8791778" lon="17.6715042">
        <ele>28.4962</ele>
        <time>2013-03-10T11:55:33Z</time>
      </trkpt>
      <trkpt lat="59.8791631" lon="17.6715042">
        <ele>28.4962</ele>
        <time>2013-03-10T11:55:34Z</time>
      </trkpt>
      <trkpt lat="59.8791507" lon="17.6715043">
        <ele>28.0155</ele>
        <time>2013-03-10T11:55:35Z</time>
      </trkpt>
      <trkpt lat="59.8791399" lon="17.6715031">
        <ele>28.0155</ele>
        <time>2013-03-10T11:55:36Z</time>
      </trkpt>
      <trkpt lat="59.8791285" lon="17.6714951">
        <ele>27.5349</ele>
        <time>2013-03-10T11:55:37Z</time>
      </trkpt>
      <trkpt lat="59.8791172" lon="17.6714865">
        <ele>27.5349</ele>
        <time>2013-03-10T11:55:38Z</time>
      </trkpt>
      <trkpt lat="59.8791061" lon="17.6714809">
        <ele>27.5349</ele>
        <time>2013-03-10T11:55:39Z</time>
      </trkpt>
      <trkpt lat="59.8790934" lon="17.6714778">
        <ele>27.5349</ele>
        <time>2013-03-10T11:55:40Z</time>
      </trkpt>
      <trkpt lat="59.8790804" lon="17.6714691">
        <ele>27.5349</ele>
        <time>2013-03-10T11:55:41Z</time>
      </trkpt>
      <trkpt lat="59.8790673" lon="17.6714603">
        <ele>27.5349</ele>
        <time>2013-03-10T11:55:42Z</time>
      </trkpt>
      <trkpt lat="59.8790534" lon="17.6714537">
        <ele>27.5349</ele>
        <time>2013-03-10T11:55:43Z</time>
      </trkpt>
      <trkpt lat="59.8790415" lon="17.6714363">
        <ele>27.5349</ele>
        <time>2013-03-10T11:55:44Z</time>
      </trkpt>
      <trkpt lat="59.879028" lon="17.6714194">
        <ele>27.5349</ele>
        <time>2013-03-10T11:55:45Z</time>
      </trkpt>
      <trkpt lat="59.8790177" lon="17.6714037">
        <ele>27.0543</ele>
        <time>2013-03-10T11:55:46Z</time>
      </trkpt>
      <trkpt lat="59.8790076" lon="17.6713871">
        <ele>27.0543</ele>
        <time>2013-03-10T11:55:47Z</time>
      </trkpt>
      <trkpt lat="59.8789959" lon="17.6713743">
        <ele>27.0543</ele>
        <time>2013-03-10T11:55:48Z</time>
      </trkpt>
      <trkpt lat="59.8789835" lon="17.6713648">
        <ele>27.0543</ele>
        <time>2013-03-10T11:55:49Z</time>
      </trkpt>
      <trkpt lat="59.8789715" lon="17.6713529">
        <ele>26.5736</ele>
        <time>2013-03-10T11:55:50Z</time>
      </trkpt>
      <trkpt lat="59.8789565" lon="17.6713454">
        <ele>27.0543</ele>
        <time>2013-03-10T11:55:51Z</time>
      </trkpt>
      <trkpt lat="59.8789434" lon="17.6713396">
        <ele>27.0543</ele>
        <time>2013-03-10T11:55:52Z</time>
      </trkpt>
      <trkpt lat="59.8789309" lon="17.6713365">
        <ele>27.5349</ele>
        <time>2013-03-10T11:55:53Z</time>
      </trkpt>
      <trkpt lat="59.8789172" lon="17.6713384">
        <ele>27.5349</ele>
        <time>2013-03-10T11:55:54Z</time>
      </trkpt>
      <trkpt lat="59.8789032" lon="17.671339">
        <ele>28.0155</ele>
        <time>2013-03-10T11:55:55Z</time>
      </trkpt>
      <trkpt lat="59.8788908" lon="17.67134">
        <ele>28.0155</ele>
        <time>2013-03-10T11:55:56Z</time>
      </trkpt>
      <trkpt lat="59.8788746" lon="17.6713485">
        <ele>28.0155</ele>
        <time>2013-03-10T11:55:57Z</time>
      </trkpt>
      <trkpt lat="59.8788605" lon="17.6713561">
        <ele>28.4962</ele>
        <time>2013-03-10T11:55:58Z</time>
      </trkpt>
      <trkpt lat="59.8788482" lon="17.6713639">
        <ele>28.4962</ele>
        <time>2013-03-10T11:55:59Z</time>
      </trkpt>
      <trkpt lat="59.8788361" lon="17.6713738">
        <ele>28.9769</ele>
        <time>2013-03-10T11:56:00Z</time>
      </trkpt>
      <trkpt lat="59.878826" lon="17.6713857">
        <ele>28.9769</ele>
        <time>2013-03-10T11:56:01Z</time>
      </trkpt>
      <trkpt lat="59.878814" lon="17.6714088">
        <ele>28.9769</ele>
        <time>2013-03-10T11:56:02Z</time>
      </trkpt>
      <trkpt lat="59.878803" lon="17.6714345">
        <ele>29.4575</ele>
        <time>2013-03-10T11:56:03Z</time>
      </trkpt>
      <trkpt lat="59.8787902" lon="17.6714545">
        <ele>29.9381</ele>
        <time>2013-03-10T11:56:04Z</time>
      </trkpt>
      <trkpt lat="59.8787821" lon="17.671471">
        <ele>29.9381</ele>
        <time>2013-03-10T11:56:05Z</time>
      </trkpt>
      <trkpt lat="59.8787768" lon="17.6714888">
        <ele>29.4575</ele>
        <time>2013-03-10T11:56:06Z</time>
      </trkpt>
      <trkpt lat="59.8787699" lon="17.6715094">
        <ele>29.9381</ele>
        <time>2013-03-10T11:56:07Z</time>
      </trkpt>
      <trkpt lat="59.8787627" lon="17.6715338">
        <ele>30.4188</ele>
        <time>2013-03-10T11:56:08Z</time>
      </trkpt>
      <trkpt lat="59.8787601" lon="17.671559">
        <ele>30.4188</ele>
        <time>2013-03-10T11:56:09Z</time>
      </trkpt>
      <trkpt lat="59.8787576" lon="17.6715888">
        <ele>30.8995</ele>
        <time>2013-03-10T11:56:10Z</time>
      </trkpt>
      <trkpt lat="59.8787556" lon="17.6716168">
        <ele>30.8995</ele>
        <time>2013-03-10T11:56:11Z</time>
      </trkpt>
      <trkpt lat="59.8787556" lon="17.6716442">
        <ele>31.3801</ele>
        <time>2013-03-10T11:56:12Z</time>
      </trkpt>
      <trkpt lat="59.8787528" lon="17.6716748">
        <ele>31.3801</ele>
        <time>2013-03-10T11:56:13Z</time>
      </trkpt>
      <trkpt lat="59.8787465" lon="17.6717037">
        <ele>31.8607</ele>
        <time>2013-03-10T11:56:14Z</time>
      </trkpt>
      <trkpt lat="59.878739" lon="17.671726">
        <ele>31.8607</ele>
        <time>2013-03-10T11:56:15Z</time>
      </trkpt>
      <trkpt lat="59.8787291" lon="17.671752">
        <ele>32.3416</ele>
        <time>2013-03-10T11:56:16Z</time>
      </trkpt>
      <trkpt lat="59.8787198" lon="17.6717771">
        <ele>32.3416</ele>
        <time>2013-03-10T11:56:17Z</time>
      </trkpt>
      <trkpt lat="59.8787101" lon="17.6717996">
        <ele>32.3416</ele>
        <time>2013-03-10T11:56:18Z</time>
      </trkpt>
      <trkpt lat="59.8787015" lon="17.6718189">
        <ele>31.8607</ele>
        <time>2013-03-10T11:56:19Z</time>
      </trkpt>
      <trkpt lat="59.8786929" lon="17.6718374">
        <ele>31.8607</ele>
        <time>2013-03-10T11:56:20Z</time>
      </trkpt>
      <trkpt lat="59.8786844" lon="17.6718558">
        <ele>31.8607</ele>
        <time>2013-03-10T11:56:21Z</time>
      </trkpt>
      <trkpt lat="59.8786761" lon="17.6718732">
        <ele>31.3801</ele>
        <time>2013-03-10T11:56:22Z</time>
      </trkpt>
      <trkpt lat="59.8786675" lon="17.6718906">
        <ele>31.3801</ele>
        <time>2013-03-10T11:56:23Z</time>
      </trkpt>
      <trkpt lat="59.8786583" lon="17.6719064">
        <ele>31.3801</ele>
        <time>2013-03-10T11:56:24Z</time>
      </trkpt>
      <trkpt lat="59.8786489" lon="17.671925">
        <ele>31.3801</ele>
        <time>2013-03-10T11:56:25Z</time>
      </trkpt>
      <trkpt lat="59.87864" lon="17.671943">
        <ele>31.3801</ele>
        <time>2013-03-10T11:56:26Z</time>
      </trkpt>
      <trkpt lat="59.8786302" lon="17.6719581">
        <ele>31.3801</ele>
        <time>2013-03-10T11:56:27Z</time>
      </trkpt>
      <trkpt lat="59.8786188" lon="17.6719737">
        <ele>31.3801</ele>
        <time>2013-03-10T11:56:28Z</time>
      </trkpt>
      <trkpt lat="59.8786054" lon="17.671989">
        <ele>31.3801</ele>
        <time>2013-03-10T11:56:29Z</time>
      </trkpt>
      <trkpt lat="59.8785918" lon="17.6720032">
        <ele>31.3801</ele>
        <time>2013-03-10T11:56:30Z</time>
      </trkpt>
      <trkpt lat="59.8785788" lon="17.6720146">
        <ele>31.3801</ele>
        <time>2013-03-10T11:56:31Z</time>
      </trkpt>
      <trkpt lat="59.8785659" lon="17.6720263">
        <ele>31.3801</ele>
        <time>2013-03-10T11:56:32Z</time>
      </trkpt>
      <trkpt lat="59.878553" lon="17.672041">
        <ele>31.3801</ele>
        <time>2013-03-10T11:56:33Z</time>
      </trkpt>
      <trkpt lat="59.8785415" lon="17.672055">
        <ele>31.8607</ele>
        <time>2013-03-10T11:56:34Z</time>
      </trkpt>
      <trkpt lat="59.8785295" lon="17.672072">
        <ele>32.3416</ele>
        <time>2013-03-10T11:56:35Z</time>
      </trkpt>
      <trkpt lat="59.8785184" lon="17.6720861">
        <ele>32.3416</ele>
        <time>2013-03-10T11:56:36Z</time>
      </trkpt>
      <trkpt lat="59.8785074" lon="17.672097">
        <ele>32.3416</ele>
        <time>2013-03-10T11:56:37Z</time>
      </trkpt>
      <trkpt lat="59.8784949" lon="17.6721057">
        <ele>32.8223</ele>
        <time>2013-03-10T11:56:38Z</time>
      </trkpt>
      <trkpt lat="59.8784829" lon="17.6721083">
        <ele>32.3416</ele>
        <time>2013-03-10T11:56:39Z</time>
      </trkpt>
      <trkpt lat="59.8784704" lon="17.6721119">
        <ele>32.8223</ele>
        <time>2013-03-10T11:56:40Z</time>
      </trkpt>
      <trkpt lat="59.8784578" lon="17.6721083">
        <ele>32.3416</ele>
        <time>2013-03-10T11:56:41Z</time>
      </trkpt>
      <trkpt lat="59.8784453" lon="17.6721052">
        <ele>32.3416</ele>
        <time>2013-03-10T11:56:42Z</time>
      </trkpt>
      <trkpt lat="59.8784336" lon="17.6721021">
        <ele>31.8607</ele>
        <time>2013-03-10T11:56:43Z</time>
      </trkpt>
      <trkpt lat="59.8784218" lon="17.6721021">
        <ele>31.8607</ele>
        <time>2013-03-10T11:56:44Z</time>
      </trkpt>
      <trkpt lat="59.8784103" lon="17.6721045">
        <ele>31.8607</ele>
        <time>2013-03-10T11:56:45Z</time>
      </trkpt>
      <trkpt lat="59.8783976" lon="17.6721032">
        <ele>31.8607</ele>
        <time>2013-03-10T11:56:46Z</time>
      </trkpt>
      <trkpt lat="59.8783831" lon="17.6721011">
        <ele>31.8607</ele>
        <time>2013-03-10T11:56:47Z</time>
      </trkpt>
      <trkpt lat="59.8783697" lon="17.6720974">
        <ele>31.3801</ele>
        <time>2013-03-10T11:56:48Z</time>
      </trkpt>
      <trkpt lat="59.8783581" lon="17.6720916">
        <ele>31.3801</ele>
        <time>2013-03-10T11:56:49Z</time>
      </trkpt>
      <trkpt lat="59.8783466" lon="17.6720907">
        <ele>30.8995</ele>
        <time>2013-03-10T11:56:50Z</time>
      </trkpt>
      <trkpt lat="59.8783357" lon="17.6720872">
        <ele>30.8995</ele>
        <time>2013-03-10T11:56:51Z</time>
      </trkpt>
      <trkpt lat="59.8783255" lon="17.6720851">
        <ele>30.4188</ele>
        <time>2013-03-10T11:56:52Z</time>
      </trkpt>
      <trkpt lat="59.8783157" lon="17.6720839">
        <ele>30.4188</ele>
        <time>2013-03-10T11:56:53Z</time>
      </trkpt>
      <trkpt lat="59.8783038" lon="17.6720858">
        <ele>30.4188</ele>
        <time>2013-03-10T11:56:54Z</time>
      </trkpt>
      <trkpt lat="59.8782883" lon="17.6720933">
        <ele>30.4188</ele>
        <time>2013-03-10T11:56:55Z</time>
      </trkpt>
      <trkpt lat="59.8782738" lon="17.6720973">
        <ele>30.4188</ele>
        <time>2013-03-10T11:56:56Z</time>
      </trkpt>
      <trkpt lat="59.8782611" lon="17.6720975">
        <ele>30.4188</ele>
        <time>2013-03-10T11:56:57Z</time>
      </trkpt>
      <trkpt lat="59.8782482" lon="17.6720996">
        <ele>30.4188</ele>
        <time>2013-03-10T11:56:58Z</time>
      </trkpt>
      <trkpt lat="59.8782364" lon="17.6721016">
        <ele>29.9381</ele>
        <time>2013-03-10T11:56:59Z</time>
      </trkpt>
      <trkpt lat="59.8782244" lon="17.6721032">
        <ele>30.4188</ele>
        <time>2013-03-10T11:57:00Z</time>
      </trkpt>
      <trkpt lat="59.8782116" lon="17.6721041">
        <ele>29.9381</ele>
        <time>2013-03-10T11:57:01Z</time>
      </trkpt>
      <trkpt lat="59.8781946" lon="17.672112">
        <ele>30.4188</ele>
        <time>2013-03-10T11:57:02Z</time>
      </trkpt>
      <trkpt lat="59.8781827" lon="17.6721123">
        <ele>29.9381</ele>
        <time>2013-03-10T11:57:03Z</time>
      </trkpt>
      <trkpt lat="59.8781716" lon="17.6721147">
        <ele>29.9381</ele>
        <time>2013-03-10T11:57:04Z</time>
      </trkpt>
      <trkpt lat="59.8781592" lon="17.6721176">
        <ele>29.9381</ele>
        <time>2013-03-10T11:57:05Z</time>
      </trkpt>
      <trkpt lat="59.8781453" lon="17.6721203">
        <ele>29.4575</ele>
        <time>2013-03-10T11:57:06Z</time>
      </trkpt>
      <trkpt lat="59.8781327" lon="17.6721219">
        <ele>29.4575</ele>
        <time>2013-03-10T11:57:07Z</time>
      </trkpt>
      <trkpt lat="59.8781214" lon="17.6721209">
        <ele>28.9769</ele>
        <time>2013-03-10T11:57:08Z</time>
      </trkpt>
      <trkpt lat="59.878109" lon="17.6721221">
        <ele>28.9769</ele>
        <time>2013-03-10T11:57:09Z</time>
      </trkpt>
      <trkpt lat="59.8780956" lon="17.6721265">
        <ele>28.9769</ele>
        <time>2013-03-10T11:57:10Z</time>
      </trkpt>
      <trkpt lat="59.8780832" lon="17.672131">
        <ele>28.9769</ele>
        <time>2013-03-10T11:57:11Z</time>
      </trkpt>
      <trkpt lat="59.8780719" lon="17.6721327">
        <ele>28.4962</ele>
        <time>2013-03-10T11:57:12Z</time>
      </trkpt>
      <trkpt lat="59.8780588" lon="17.6721366">
        <ele>28.4962</ele>
        <time>2013-03-10T11:57:13Z</time>
      </trkpt>
      <trkpt lat="59.8780457" lon="17.6721398">
        <ele>28.0155</ele>
        <time>2013-03-10T11:57:14Z</time>
      </trkpt>
      <trkpt lat="59.8780337" lon="17.6721402">
        <ele>28.0155</ele>
        <time>2013-03-10T11:57:15Z</time>
      </trkpt>
      <trkpt lat="59.8780206" lon="17.6721436">
        <ele>27.5349</ele>
        <time>2013-03-10T11:57:16Z</time>
      </trkpt>
      <trkpt lat="59.8780085" lon="17.6721491">
        <ele>27.5349</ele>
        <time>2013-03-10T11:57:17Z</time>
      </trkpt>
      <trkpt lat="59.8779973" lon="17.6721549">
        <ele>27.5349</ele>
        <time>2013-03-10T11:57:18Z</time>
      </trkpt>
      <trkpt lat="59.8779856" lon="17.6721581">
        <ele>27.0543</ele>
        <time>2013-03-10T11:57:19Z</time>
      </trkpt>
      <trkpt lat="59.8779742" lon="17.6721587">
        <ele>27.0543</ele>
        <time>2013-03-10T11:57:20Z</time>
      </trkpt>
      <trkpt lat="59.8779639" lon="17.6721586">
        <ele>27.0543</ele>
        <time>2013-03-10T11:57:21Z</time>
      </trkpt>
      <trkpt lat="59.8779522" lon="17.6721632">
        <ele>26.5736</ele>
        <time>2013-03-10T11:57:22Z</time>
      </trkpt>
      <trkpt lat="59.877941" lon="17.6721683">
        <ele>26.5736</ele>
        <time>2013-03-10T11:57:23Z</time>
      </trkpt>
      <trkpt lat="59.8779298" lon="17.6721756">
        <ele>26.5736</ele>
        <time>2013-03-10T11:57:24Z</time>
      </trkpt>
      <trkpt lat="59.8779195" lon="17.6721825">
        <ele>26.0929</ele>
        <time>2013-03-10T11:57:25Z</time>
      </trkpt>
      <trkpt lat="59.8779075" lon="17.6721954">
        <ele>26.0929</ele>
        <time>2013-03-10T11:57:26Z</time>
      </trkpt>
      <trkpt lat="59.8778956" lon="17.6722067">
        <ele>26.0929</ele>
        <time>2013-03-10T11:57:27Z</time>
      </trkpt>
      <trkpt lat="59.8778832" lon="17.6722196">
        <ele>26.0929</ele>
        <time>2013-03-10T11:57:28Z</time>
      </trkpt>
      <trkpt lat="59.8778709" lon="17.6722295">
        <ele>26.0929</ele>
        <time>2013-03-10T11:57:29Z</time>
      </trkpt>
      <trkpt lat="59.87786" lon="17.672239">
        <ele>26.0929</ele>
        <time>2013-03-10T11:57:30Z</time>
      </trkpt>
      <trkpt lat="59.8778483" lon="17.6722529">
        <ele>26.0929</ele>
        <time>2013-03-10T11:57:31Z</time>
      </trkpt>
      <trkpt lat="59.8778323" lon="17.6722758">
        <ele>26.5736</ele>
        <time>2013-03-10T11:57:32Z</time>
      </trkpt>
      <trkpt lat="59.877819" lon="17.6722953">
        <ele>26.5736</ele>
        <time>2013-03-10T11:57:33Z</time>
      </trkpt>
      <trkpt lat="59.8778037" lon="17.6723234">
        <ele>27.0543</ele>
        <time>2013-03-10T11:57:34Z</time>
      </trkpt>
      <trkpt lat="59.8777869" lon="17.6723571">
        <ele>27.0543</ele>
        <time>2013-03-10T11:57:35Z</time>
      </trkpt>
      <trkpt lat="59.8777713" lon="17.672386">
        <ele>27.5349</ele>
        <time>2013-03-10T11:57:36Z</time>
      </trkpt>
      <trkpt lat="59.8777589" lon="17.6724023">
        <ele>28.0155</ele>
        <time>2013-03-10T11:57:37Z</time>
      </trkpt>
      <trkpt lat="59.8777447" lon="17.6724138">
        <ele>28.0155</ele>
        <time>2013-03-10T11:57:38Z</time>
      </trkpt>
      <trkpt lat="59.8777278" lon="17.6724296">
        <ele>28.4962</ele>
        <time>2013-03-10T11:57:39Z</time>
      </trkpt>
      <trkpt lat="59.8777106" lon="17.6724479">
        <ele>28.9769</ele>
        <time>2013-03-10T11:57:40Z</time>
      </trkpt>
      <trkpt lat="59.8776963" lon="17.6724619">
        <ele>28.9769</ele>
        <time>2013-03-10T11:57:41Z</time>
      </trkpt>
      <trkpt lat="59.8776796" lon="17.6724839">
        <ele>29.9381</ele>
        <time>2013-03-10T11:57:42Z</time>
      </trkpt>
      <trkpt lat="59.8776618" lon="17.6725094">
        <ele>30.8995</ele>
        <time>2013-03-10T11:57:43Z</time>
      </trkpt>
      <trkpt lat="59.8776495" lon="17.6725283">
        <ele>30.8995</ele>
        <time>2013-03-10T11:57:44Z</time>
      </trkpt>
      <trkpt lat="59.8776397" lon="17.6725378">
        <ele>31.3801</ele>
        <time>2013-03-10T11:57:45Z</time>
      </trkpt>
      <trkpt lat="59.8776294" lon="17.6725424">
        <ele>31.8607</ele>
        <time>2013-03-10T11:57:46Z</time>
      </trkpt>
      <trkpt lat="59.8776205" lon="17.6725455">
        <ele>31.8607</ele>
        <time>2013-03-10T11:57:47Z</time>
      </trkpt>
      <trkpt lat="59.877603" lon="17.6725487">
        <ele>32.8223</ele>
        <time>2013-03-10T11:57:48Z</time>
      </trkpt>
      <trkpt lat="59.8775886" lon="17.6725507">
        <ele>33.3029</ele>
        <time>2013-03-10T11:57:49Z</time>
      </trkpt>
      <trkpt lat="59.8775727" lon="17.67256">
        <ele>34.2642</ele>
        <time>2013-03-10T11:57:50Z</time>
      </trkpt>
      <trkpt lat="59.8775575" lon="17.6725662">
        <ele>34.7449</ele>
        <time>2013-03-10T11:57:51Z</time>
      </trkpt>
      <trkpt lat="59.8775392" lon="17.6725725">
        <ele>35.2255</ele>
        <time>2013-03-10T11:57:52Z</time>
      </trkpt>
      <trkpt lat="59.8775238" lon="17.6725796">
        <ele>35.7061</ele>
        <time>2013-03-10T11:57:53Z</time>
      </trkpt>
      <trkpt lat="59.8775105" lon="17.6725834">
        <ele>35.7061</ele>
        <time>2013-03-10T11:57:54Z</time>
      </trkpt>
      <trkpt lat="59.8774953" lon="17.6725848">
        <ele>36.6675</ele>
        <time>2013-03-10T11:57:55Z</time>
      </trkpt>
      <trkpt lat="59.8774802" lon="17.67259">
        <ele>37.1481</ele>
        <time>2013-03-10T11:57:56Z</time>
      </trkpt>
      <trkpt lat="59.8774667" lon="17.6725943">
        <ele>37.1481</ele>
        <time>2013-03-10T11:57:57Z</time>
      </trkpt>
      <trkpt lat="59.8774533" lon="17.672602">
        <ele>37.1481</ele>
        <time>2013-03-10T11:57:58Z</time>
      </trkpt>
      <trkpt lat="59.8774394" lon="17.6726102">
        <ele>37.1481</ele>
        <time>2013-03-10T11:57:59Z</time>
      </trkpt>
      <trkpt lat="59.8774216" lon="17.6726195">
        <ele>37.6287</ele>
        <time>2013-03-10T11:58:00Z</time>
      </trkpt>
      <trkpt lat="59.8774061" lon="17.6726237">
        <ele>38.1094</ele>
        <time>2013-03-10T11:58:01Z</time>
      </trkpt>
      <trkpt lat="59.8773885" lon="17.6726279">
        <ele>38.1094</ele>
        <time>2013-03-10T11:58:02Z</time>
      </trkpt>
      <trkpt lat="59.8773743" lon="17.6726303">
        <ele>38.1094</ele>
        <time>2013-03-10T11:58:03Z</time>
      </trkpt>
      <trkpt lat="59.8773601" lon="17.6726321">
        <ele>38.5901</ele>
        <time>2013-03-10T11:58:04Z</time>
      </trkpt>
      <trkpt lat="59.8773496" lon="17.6726304">
        <ele>38.1094</ele>
        <time>2013-03-10T11:58:05Z</time>
      </trkpt>
      <trkpt lat="59.8773389" lon="17.6726268">
        <ele>38.1094</ele>
        <time>2013-03-10T11:58:06Z</time>
      </trkpt>
      <trkpt lat="59.8773212" lon="17.6726222">
        <ele>38.5901</ele>
        <time>2013-03-10T11:58:07Z</time>
      </trkpt>
      <trkpt lat="59.8773076" lon="17.672615">
        <ele>39.0707</ele>
        <time>2013-03-10T11:58:08Z</time>
      </trkpt>
      <trkpt lat="59.8772896" lon="17.6726077">
        <ele>40.0321</ele>
        <time>2013-03-10T11:58:09Z</time>
      </trkpt>
      <trkpt lat="59.8772782" lon="17.6725988">
        <ele>40.5128</ele>
        <time>2013-03-10T11:58:10Z</time>
      </trkpt>
      <trkpt lat="59.8772627" lon="17.6725971">
        <ele>40.9934</ele>
        <time>2013-03-10T11:58:11Z</time>
      </trkpt>
      <trkpt lat="59.87725" lon="17.6725963">
        <ele>41.9547</ele>
        <time>2013-03-10T11:58:12Z</time>
      </trkpt>
      <trkpt lat="59.8772376" lon="17.6725938">
        <ele>42.4354</ele>
        <time>2013-03-10T11:58:13Z</time>
      </trkpt>
      <trkpt lat="59.8772289" lon="17.6725904">
        <ele>42.4354</ele>
        <time>2013-03-10T11:58:14Z</time>
      </trkpt>
      <trkpt lat="59.8772205" lon="17.6725961">
        <ele>42.4354</ele>
        <time>2013-03-10T11:58:15Z</time>
      </trkpt>
      <trkpt lat="59.8772122" lon="17.6725994">
        <ele>42.4354</ele>
        <time>2013-03-10T11:58:16Z</time>
      </trkpt>
      <trkpt lat="59.8771979" lon="17.6725951">
        <ele>42.916</ele>
        <time>2013-03-10T11:58:17Z</time>
      </trkpt>
      <trkpt lat="59.8771792" lon="17.6725704">
        <ele>42.916</ele>
        <time>2013-03-10T11:58:18Z</time>
      </trkpt>
      <trkpt lat="59.8771635" lon="17.6725419">
        <ele>41.9547</ele>
        <time>2013-03-10T11:58:19Z</time>
      </trkpt>
      <trkpt lat="59.8771497" lon="17.672537">
        <ele>41.9547</ele>
        <time>2013-03-10T11:58:20Z</time>
      </trkpt>
      <trkpt lat="59.8771369" lon="17.6725347">
        <ele>41.9547</ele>
        <time>2013-03-10T11:58:21Z</time>
      </trkpt>
      <trkpt lat="59.8771208" lon="17.6725327">
        <ele>42.4354</ele>
        <time>2013-03-10T11:58:22Z</time>
      </trkpt>
      <trkpt lat="59.8771039" lon="17.6725217">
        <ele>42.4354</ele>
        <time>2013-03-10T11:58:23Z</time>
      </trkpt>
      <trkpt lat="59.8770885" lon="17.6725044">
        <ele>42.916</ele>
        <time>2013-03-10T11:58:24Z</time>
      </trkpt>
      <trkpt lat="59.8770742" lon="17.672488">
        <ele>42.916</ele>
        <time>2013-03-10T11:58:25Z</time>
      </trkpt>
      <trkpt lat="59.8774906" lon="17.675379">
        <ele>9.75061</ele>
        <time>2013-03-10T12:04:03Z</time>
      </trkpt>
      <trkpt lat="59.8774909" lon="17.6753973">
        <ele>10.7118</ele>
        <time>2013-03-10T12:04:04Z</time>
      </trkpt>
      <trkpt lat="59.8774942" lon="17.675404">
        <ele>11.1925</ele>
        <time>2013-03-10T12:04:05Z</time>
      </trkpt>
      <trkpt lat="59.877489" lon="17.6754162">
        <ele>11.1925</ele>
        <time>2013-03-10T12:04:06Z</time>
      </trkpt>
      <trkpt lat="59.8774782" lon="17.6754381">
        <ele>12.1538</ele>
        <time>2013-03-10T12:04:07Z</time>
      </trkpt>
      <trkpt lat="59.8774606" lon="17.6754532">
        <ele>12.6344</ele>
        <time>2013-03-10T12:04:08Z</time>
      </trkpt>
      <trkpt lat="59.8774442" lon="17.6754696">
        <ele>13.5958</ele>
        <time>2013-03-10T12:04:09Z</time>
      </trkpt>
      <trkpt lat="59.8774282" lon="17.6754851">
        <ele>14.0764</ele>
        <time>2013-03-10T12:04:10Z</time>
      </trkpt>
      <trkpt lat="59.8774129" lon="17.6755034">
        <ele>14.557</ele>
        <time>2013-03-10T12:04:11Z</time>
      </trkpt>
      <trkpt lat="59.8774015" lon="17.6755246">
        <ele>15.5184</ele>
        <time>2013-03-10T12:04:12Z</time>
      </trkpt>
      <trkpt lat="59.8773896" lon="17.6755443">
        <ele>16.4797</ele>
        <time>2013-03-10T12:04:13Z</time>
      </trkpt>
      <trkpt lat="59.8773751" lon="17.6755576">
        <ele>16.9604</ele>
        <time>2013-03-10T12:04:14Z</time>
      </trkpt>
      <trkpt lat="59.8773605" lon="17.6755706">
        <ele>17.4412</ele>
        <time>2013-03-10T12:04:15Z</time>
      </trkpt>
      <trkpt lat="59.8773461" lon="17.6755869">
        <ele>17.9218</ele>
        <time>2013-03-10T12:04:16Z</time>
      </trkpt>
      <trkpt lat="59.8773329" lon="17.6755978">
        <ele>17.9218</ele>
        <time>2013-03-10T12:04:17Z</time>
      </trkpt>
      <trkpt lat="59.8773196" lon="17.6756097">
        <ele>17.9218</ele>
        <time>2013-03-10T12:04:18Z</time>
      </trkpt>
      <trkpt lat="59.8773065" lon="17.6756228">
        <ele>18.4023</ele>
        <time>2013-03-10T12:04:19Z</time>
      </trkpt>
      <trkpt lat="59.8772937" lon="17.6756422">
        <ele>18.4023</ele>
        <time>2013-03-10T12:04:20Z</time>
      </trkpt>
      <trkpt lat="59.8772809" lon="17.6756606">
        <ele>18.8831</ele>
        <time>2013-03-10T12:04:21Z</time>
      </trkpt>
      <trkpt lat="59.8772673" lon="17.6756757">
        <ele>19.3638</ele>
        <time>2013-03-10T12:04:22Z</time>
      </trkpt>
      <trkpt lat="59.8772553" lon="17.6756924">
        <ele>19.8444</ele>
        <time>2013-03-10T12:04:23Z</time>
      </trkpt>
      <trkpt lat="59.8772439" lon="17.6757034">
        <ele>20.325</ele>
        <time>2013-03-10T12:04:24Z</time>
      </trkpt>
      <trkpt lat="59.8772306" lon="17.6757138">
        <ele>20.325</ele>
        <time>2013-03-10T12:04:25Z</time>
      </trkpt>
      <trkpt lat="59.8772172" lon="17.6757158">
        <ele>19.8444</ele>
        <time>2013-03-10T12:04:26Z</time>
      </trkpt>
      <trkpt lat="59.8772036" lon="17.6757189">
        <ele>19.3638</ele>
        <time>2013-03-10T12:04:27Z</time>
      </trkpt>
      <trkpt lat="59.8771907" lon="17.6757221">
        <ele>19.3638</ele>
        <time>2013-03-10T12:04:28Z</time>
      </trkpt>
      <trkpt lat="59.8771781" lon="17.675725">
        <ele>18.8831</ele>
        <time>2013-03-10T12:04:29Z</time>
      </trkpt>
      <trkpt lat="59.8771646" lon="17.6757261">
        <ele>18.8831</ele>
        <time>2013-03-10T12:04:30Z</time>
      </trkpt>
      <trkpt lat="59.8771513" lon="17.6757272">
        <ele>18.8831</ele>
        <time>2013-03-10T12:04:31Z</time>
      </trkpt>
      <trkpt lat="59.8771391" lon="17.6757282">
        <ele>18.4023</ele>
        <time>2013-03-10T12:04:32Z</time>
      </trkpt>
      <trkpt lat="59.8771262" lon="17.6757302">
        <ele>18.4023</ele>
        <time>2013-03-10T12:04:33Z</time>
      </trkpt>
      <trkpt lat="59.8771129" lon="17.6757326">
        <ele>18.4023</ele>
        <time>2013-03-10T12:04:34Z</time>
      </trkpt>
      <trkpt lat="59.8770992" lon="17.6757373">
        <ele>18.4023</ele>
        <time>2013-03-10T12:04:35Z</time>
      </trkpt>
      <trkpt lat="59.877086" lon="17.6757427">
        <ele>17.9218</ele>
        <time>2013-03-10T12:04:36Z</time>
      </trkpt>
      <trkpt lat="59.8770737" lon="17.6757502">
        <ele>17.9218</ele>
        <time>2013-03-10T12:04:37Z</time>
      </trkpt>
      <trkpt lat="59.8770617" lon="17.6757629">
        <ele>17.9218</ele>
        <time>2013-03-10T12:04:38Z</time>
      </trkpt>
      <trkpt lat="59.8770501" lon="17.6757768">
        <ele>17.9218</ele>
        <time>2013-03-10T12:04:39Z</time>
      </trkpt>
      <trkpt lat="59.8770377" lon="17.6757904">
        <ele>17.9218</ele>
        <time>2013-03-10T12:04:40Z</time>
      </trkpt>
      <trkpt lat="59.877026" lon="17.6758034">
        <ele>17.9218</ele>
        <time>2013-03-10T12:04:41Z</time>
      </trkpt>
      <trkpt lat="59.877014" lon="17.6758163">
        <ele>17.4412</ele>
        <time>2013-03-10T12:04:42Z</time>
      </trkpt>
      <trkpt lat="59.8770016" lon="17.67583">
        <ele>17.4412</ele>
        <time>2013-03-10T12:04:43Z</time>
      </trkpt>
      <trkpt lat="59.8769892" lon="17.6758422">
        <ele>17.4412</ele>
        <time>2013-03-10T12:04:44Z</time>
      </trkpt>
      <trkpt lat="59.8769776" lon="17.6758531">
        <ele>17.4412</ele>
        <time>2013-03-10T12:04:45Z</time>
      </trkpt>
      <trkpt lat="59.8769661" lon="17.6758644">
        <ele>16.9604</ele>
        <time>2013-03-10T12:04:46Z</time>
      </trkpt>
      <trkpt lat="59.8769547" lon="17.6758749">
        <ele>16.4797</ele>
        <time>2013-03-10T12:04:47Z</time>
      </trkpt>
      <trkpt lat="59.8769425" lon="17.6758835">
        <ele>16.4797</ele>
        <time>2013-03-10T12:04:48Z</time>
      </trkpt>
      <trkpt lat="59.8769296" lon="17.6758898">
        <ele>15.999</ele>
        <time>2013-03-10T12:04:49Z</time>
      </trkpt>
      <trkpt lat="59.876916" lon="17.6758939">
        <ele>15.999</ele>
        <time>2013-03-10T12:04:50Z</time>
      </trkpt>
      <trkpt lat="59.8769016" lon="17.6758944">
        <ele>15.999</ele>
        <time>2013-03-10T12:04:51Z</time>
      </trkpt>
      <trkpt lat="59.8768874" lon="17.6758922">
        <ele>15.999</ele>
        <time>2013-03-10T12:04:52Z</time>
      </trkpt>
      <trkpt lat="59.8768736" lon="17.6758898">
        <ele>15.999</ele>
        <time>2013-03-10T12:04:53Z</time>
      </trkpt>
      <trkpt lat="59.8768602" lon="17.6758884">
        <ele>15.999</ele>
        <time>2013-03-10T12:04:54Z</time>
      </trkpt>
      <trkpt lat="59.8768451" lon="17.6758965">
        <ele>16.4797</ele>
        <time>2013-03-10T12:04:55Z</time>
      </trkpt>
      <trkpt lat="59.8768306" lon="17.6758987">
        <ele>16.4797</ele>
        <time>2013-03-10T12:04:56Z</time>
      </trkpt>
      <trkpt lat="59.8768162" lon="17.6759002">
        <ele>16.4797</ele>
        <time>2013-03-10T12:04:57Z</time>
      </trkpt>
      <trkpt lat="59.8768024" lon="17.6758991">
        <ele>16.9604</ele>
        <time>2013-03-10T12:04:58Z</time>
      </trkpt>
      <trkpt lat="59.8767891" lon="17.6758939">
        <ele>16.9604</ele>
        <time>2013-03-10T12:04:59Z</time>
      </trkpt>
      <trkpt lat="59.8767768" lon="17.6758849">
        <ele>16.9604</ele>
        <time>2013-03-10T12:05:00Z</time>
      </trkpt>
      <trkpt lat="59.8767664" lon="17.6758717">
        <ele>17.4412</ele>
        <time>2013-03-10T12:05:01Z</time>
      </trkpt>
      <trkpt lat="59.8767572" lon="17.6758597">
        <ele>17.9218</ele>
        <time>2013-03-10T12:05:02Z</time>
      </trkpt>
      <trkpt lat="59.8767491" lon="17.6758461">
        <ele>17.9218</ele>
        <time>2013-03-10T12:05:03Z</time>
      </trkpt>
      <trkpt lat="59.8767406" lon="17.6758339">
        <ele>18.4023</ele>
        <time>2013-03-10T12:05:04Z</time>
      </trkpt>
      <trkpt lat="59.8767313" lon="17.6758213">
        <ele>18.4023</ele>
        <time>2013-03-10T12:05:05Z</time>
      </trkpt>
      <trkpt lat="59.8767212" lon="17.6758098">
        <ele>18.4023</ele>
        <time>2013-03-10T12:05:06Z</time>
      </trkpt>
      <trkpt lat="59.8767118" lon="17.6757966">
        <ele>18.4023</ele>
        <time>2013-03-10T12:05:07Z</time>
      </trkpt>
      <trkpt lat="59.8767017" lon="17.6757853">
        <ele>18.4023</ele>
        <time>2013-03-10T12:05:08Z</time>
      </trkpt>
      <trkpt lat="59.8766907" lon="17.6757784">
        <ele>18.4023</ele>
        <time>2013-03-10T12:05:09Z</time>
      </trkpt>
      <trkpt lat="59.8766783" lon="17.6757754">
        <ele>18.4023</ele>
        <time>2013-03-10T12:05:10Z</time>
      </trkpt>
      <trkpt lat="59.8766658" lon="17.6757743">
        <ele>18.8831</ele>
        <time>2013-03-10T12:05:11Z</time>
      </trkpt>
      <trkpt lat="59.876653" lon="17.6757732">
        <ele>18.8831</ele>
        <time>2013-03-10T12:05:12Z</time>
      </trkpt>
      <trkpt lat="59.8766418" lon="17.6757697">
        <ele>19.3638</ele>
        <time>2013-03-10T12:05:13Z</time>
      </trkpt>
      <trkpt lat="59.8766313" lon="17.675766">
        <ele>19.3638</ele>
        <time>2013-03-10T12:05:14Z</time>
      </trkpt>
      <trkpt lat="59.8766229" lon="17.6757665">
        <ele>18.8831</ele>
        <time>2013-03-10T12:05:15Z</time>
      </trkpt>
      <trkpt lat="59.8766119" lon="17.6757686">
        <ele>19.3638</ele>
        <time>2013-03-10T12:05:16Z</time>
      </trkpt>
      <trkpt lat="59.8765974" lon="17.6757727">
        <ele>19.8444</ele>
        <time>2013-03-10T12:05:17Z</time>
      </trkpt>
      <trkpt lat="59.8765831" lon="17.6757769">
        <ele>20.325</ele>
        <time>2013-03-10T12:05:18Z</time>
      </trkpt>
      <trkpt lat="59.8765681" lon="17.675781">
        <ele>20.8057</ele>
        <time>2013-03-10T12:05:19Z</time>
      </trkpt>
      <trkpt lat="59.876557" lon="17.6757819">
        <ele>20.8057</ele>
        <time>2013-03-10T12:05:20Z</time>
      </trkpt>
      <trkpt lat="59.8765456" lon="17.6757821">
        <ele>20.8057</ele>
        <time>2013-03-10T12:05:21Z</time>
      </trkpt>
      <trkpt lat="59.8765351" lon="17.675781">
        <ele>21.2864</ele>
        <time>2013-03-10T12:05:22Z</time>
      </trkpt>
      <trkpt lat="59.8765251" lon="17.675786">
        <ele>21.767</ele>
        <time>2013-03-10T12:05:23Z</time>
      </trkpt>
      <trkpt lat="59.8765154" lon="17.6757872">
        <ele>21.767</ele>
        <time>2013-03-10T12:05:24Z</time>
      </trkpt>
      <trkpt lat="59.8765048" lon="17.675786">
        <ele>21.767</ele>
        <time>2013-03-10T12:05:25Z</time>
      </trkpt>
      <trkpt lat="59.8764949" lon="17.6757824">
        <ele>21.767</ele>
        <time>2013-03-10T12:05:26Z</time>
      </trkpt>
      <trkpt lat="59.8764823" lon="17.6757784">
        <ele>21.767</ele>
        <time>2013-03-10T12:05:27Z</time>
      </trkpt>
      <trkpt lat="59.8764691" lon="17.6757783">
        <ele>21.767</ele>
        <time>2013-03-10T12:05:28Z</time>
      </trkpt>
      <trkpt lat="59.8764569" lon="17.6757795">
        <ele>21.767</ele>
        <time>2013-03-10T12:05:29Z</time>
      </trkpt>
      <trkpt lat="59.8764461" lon="17.6757824">
        <ele>22.2476</ele>
        <time>2013-03-10T12:05:30Z</time>
      </trkpt>
      <trkpt lat="59.8764367" lon="17.6757871">
        <ele>22.2476</ele>
        <time>2013-03-10T12:05:31Z</time>
      </trkpt>
      <trkpt lat="59.8764266" lon="17.6757893">
        <ele>21.767</ele>
        <time>2013-03-10T12:05:32Z</time>
      </trkpt>
      <trkpt lat="59.8764155" lon="17.6757865">
        <ele>21.767</ele>
        <time>2013-03-10T12:05:33Z</time>
      </trkpt>
      <trkpt lat="59.8764041" lon="17.6757839">
        <ele>22.2476</ele>
        <time>2013-03-10T12:05:34Z</time>
      </trkpt>
      <trkpt lat="59.876393" lon="17.6757785">
        <ele>22.2476</ele>
        <time>2013-03-10T12:05:35Z</time>
      </trkpt>
      <trkpt lat="59.8763811" lon="17.6757774">
        <ele>22.2476</ele>
        <time>2013-03-10T12:05:36Z</time>
      </trkpt>
      <trkpt lat="59.8763683" lon="17.6757826">
        <ele>22.7283</ele>
        <time>2013-03-10T12:05:37Z</time>
      </trkpt>
      <trkpt lat="59.8763564" lon="17.6757878">
        <ele>23.209</ele>
        <time>2013-03-10T12:05:38Z</time>
      </trkpt>
      <trkpt lat="59.8763459" lon="17.6757846">
        <ele>22.7283</ele>
        <time>2013-03-10T12:05:39Z</time>
      </trkpt>
      <trkpt lat="59.8763354" lon="17.6757832">
        <ele>22.7283</ele>
        <time>2013-03-10T12:05:40Z</time>
      </trkpt>
      <trkpt lat="59.8763256" lon="17.6757861">
        <ele>22.7283</ele>
        <time>2013-03-10T12:05:41Z</time>
      </trkpt>
      <trkpt lat="59.8763156" lon="17.6757899">
        <ele>22.7283</ele>
        <time>2013-03-10T12:05:42Z</time>
      </trkpt>
      <trkpt lat="59.8763028" lon="17.675794">
        <ele>23.209</ele>
        <time>2013-03-10T12:05:43Z</time>
      </trkpt>
      <trkpt lat="59.8762903" lon="17.6757915">
        <ele>23.209</ele>
        <time>2013-03-10T12:05:44Z</time>
      </trkpt>
      <trkpt lat="59.876278" lon="17.6757857">
        <ele>23.6896</ele>
        <time>2013-03-10T12:05:45Z</time>
      </trkpt>
      <trkpt lat="59.8762634" lon="17.675787">
        <ele>23.6896</ele>
        <time>2013-03-10T12:05:46Z</time>
      </trkpt>
      <trkpt lat="59.876252" lon="17.6757865">
        <ele>23.209</ele>
        <time>2013-03-10T12:05:47Z</time>
      </trkpt>
      <trkpt lat="59.8762406" lon="17.6757858">
        <ele>23.209</ele>
        <time>2013-03-10T12:05:48Z</time>
      </trkpt>
      <trkpt lat="59.8762277" lon="17.6757897">
        <ele>23.209</ele>
        <time>2013-03-10T12:05:49Z</time>
      </trkpt>
      <trkpt lat="59.8762119" lon="17.6757935">
        <ele>23.209</ele>
        <time>2013-03-10T12:05:50Z</time>
      </trkpt>
      <trkpt lat="59.8761977" lon="17.6758023">
        <ele>23.209</ele>
        <time>2013-03-10T12:05:51Z</time>
      </trkpt>
      <trkpt lat="59.8761824" lon="17.6758121">
        <ele>23.209</ele>
        <time>2013-03-10T12:05:52Z</time>
      </trkpt>
      <trkpt lat="59.8761669" lon="17.6758127">
        <ele>22.7283</ele>
        <time>2013-03-10T12:05:53Z</time>
      </trkpt>
      <trkpt lat="59.876153" lon="17.6758099">
        <ele>22.7283</ele>
        <time>2013-03-10T12:05:54Z</time>
      </trkpt>
      <trkpt lat="59.8761385" lon="17.6758068">
        <ele>22.7283</ele>
        <time>2013-03-10T12:05:55Z</time>
      </trkpt>
      <trkpt lat="59.8761254" lon="17.6758036">
        <ele>22.7283</ele>
        <time>2013-03-10T12:05:56Z</time>
      </trkpt>
      <trkpt lat="59.876114" lon="17.6757987">
        <ele>22.7283</ele>
        <time>2013-03-10T12:05:57Z</time>
      </trkpt>
      <trkpt lat="59.8760995" lon="17.6757959">
        <ele>22.7283</ele>
        <time>2013-03-10T12:05:58Z</time>
      </trkpt>
      <trkpt lat="59.8760878" lon="17.6757867">
        <ele>22.7283</ele>
        <time>2013-03-10T12:05:59Z</time>
      </trkpt>
      <trkpt lat="59.8760747" lon="17.6757803">
        <ele>22.7283</ele>
        <time>2013-03-10T12:06:00Z</time>
      </trkpt>
      <trkpt lat="59.8760627" lon="17.6757682">
        <ele>22.2476</ele>
        <time>2013-03-10T12:06:01Z</time>
      </trkpt>
      <trkpt lat="59.876051" lon="17.6757589">
        <ele>21.767</ele>
        <time>2013-03-10T12:06:02Z</time>
      </trkpt>
      <trkpt lat="59.8760379" lon="17.6757535">
        <ele>21.767</ele>
        <time>2013-03-10T12:06:03Z</time>
      </trkpt>
      <trkpt lat="59.8760235" lon="17.675751">
        <ele>21.767</ele>
        <time>2013-03-10T12:06:04Z</time>
      </trkpt>
      <trkpt lat="59.8760095" lon="17.6757483">
        <ele>21.767</ele>
        <time>2013-03-10T12:06:05Z</time>
      </trkpt>
      <trkpt lat="59.8759956" lon="17.6757458">
        <ele>21.767</ele>
        <time>2013-03-10T12:06:06Z</time>
      </trkpt>
      <trkpt lat="59.8759804" lon="17.6757435">
        <ele>21.767</ele>
        <time>2013-03-10T12:06:07Z</time>
      </trkpt>
      <trkpt lat="59.8759669" lon="17.675744">
        <ele>22.2476</ele>
        <time>2013-03-10T12:06:08Z</time>
      </trkpt>
      <trkpt lat="59.8759537" lon="17.6757459">
        <ele>22.2476</ele>
        <time>2013-03-10T12:06:09Z</time>
      </trkpt>
      <trkpt lat="59.8759426" lon="17.675749">
        <ele>22.2476</ele>
        <time>2013-03-10T12:06:10Z</time>
      </trkpt>
      <trkpt lat="59.8759311" lon="17.6757552">
        <ele>21.767</ele>
        <time>2013-03-10T12:06:11Z</time>
      </trkpt>
      <trkpt lat="59.8759199" lon="17.6757582">
        <ele>21.2864</ele>
        <time>2013-03-10T12:06:12Z</time>
      </trkpt>
      <trkpt lat="59.8759096" lon="17.6757613">
        <ele>21.2864</ele>
        <time>2013-03-10T12:06:13Z</time>
      </trkpt>
      <trkpt lat="59.8758993" lon="17.6757601">
        <ele>21.2864</ele>
        <time>2013-03-10T12:06:14Z</time>
      </trkpt>
      <trkpt lat="59.8758873" lon="17.6757573">
        <ele>21.2864</ele>
        <time>2013-03-10T12:06:15Z</time>
      </trkpt>
      <trkpt lat="59.8758758" lon="17.6757479">
        <ele>21.2864</ele>
        <time>2013-03-10T12:06:16Z</time>
      </trkpt>
      <trkpt lat="59.8758671" lon="17.6757293">
        <ele>20.8057</ele>
        <time>2013-03-10T12:06:17Z</time>
      </trkpt>
      <trkpt lat="59.8758614" lon="17.6757037">
        <ele>20.8057</ele>
        <time>2013-03-10T12:06:18Z</time>
      </trkpt>
      <trkpt lat="59.8758557" lon="17.6756816">
        <ele>21.2864</ele>
        <time>2013-03-10T12:06:19Z</time>
      </trkpt>
      <trkpt lat="59.8758489" lon="17.6756615">
        <ele>21.2864</ele>
        <time>2013-03-10T12:06:20Z</time>
      </trkpt>
      <trkpt lat="59.8758324" lon="17.6756587">
        <ele>22.2476</ele>
        <time>2013-03-10T12:06:21Z</time>
      </trkpt>
      <trkpt lat="59.8758158" lon="17.6756549">
        <ele>23.209</ele>
        <time>2013-03-10T12:06:22Z</time>
      </trkpt>
      <trkpt lat="59.8758024" lon="17.6756489">
        <ele>23.209</ele>
        <time>2013-03-10T12:06:23Z</time>
      </trkpt>
      <trkpt lat="59.8757892" lon="17.6756427">
        <ele>23.209</ele>
        <time>2013-03-10T12:06:24Z</time>
      </trkpt>
      <trkpt lat="59.8757754" lon="17.675633">
        <ele>23.6896</ele>
        <time>2013-03-10T12:06:25Z</time>
      </trkpt>
      <trkpt lat="59.875763" lon="17.6756246">
        <ele>23.6896</ele>
        <time>2013-03-10T12:06:26Z</time>
      </trkpt>
      <trkpt lat="59.8757488" lon="17.6756199">
        <ele>23.6896</ele>
        <time>2013-03-10T12:06:27Z</time>
      </trkpt>
      <trkpt lat="59.8757345" lon="17.6756125">
        <ele>24.1703</ele>
        <time>2013-03-10T12:06:28Z</time>
      </trkpt>
      <trkpt lat="59.87572" lon="17.6756062">
        <ele>24.1703</ele>
        <time>2013-03-10T12:06:29Z</time>
      </trkpt>
      <trkpt lat="59.875706" lon="17.6755982">
        <ele>24.1703</ele>
        <time>2013-03-10T12:06:30Z</time>
      </trkpt>
      <trkpt lat="59.8756915" lon="17.6755894">
        <ele>24.1703</ele>
        <time>2013-03-10T12:06:31Z</time>
      </trkpt>
      <trkpt lat="59.875677" lon="17.6755809">
        <ele>24.651</ele>
        <time>2013-03-10T12:06:32Z</time>
      </trkpt>
      <trkpt lat="59.8756631" lon="17.6755711">
        <ele>24.651</ele>
        <time>2013-03-10T12:06:33Z</time>
      </trkpt>
      <trkpt lat="59.8756495" lon="17.6755582">
        <ele>24.651</ele>
        <time>2013-03-10T12:06:34Z</time>
      </trkpt>
      <trkpt lat="59.8756329" lon="17.6755485">
        <ele>25.6123</ele>
        <time>2013-03-10T12:06:35Z</time>
      </trkpt>
      <trkpt lat="59.8756181" lon="17.675537">
        <ele>26.0929</ele>
        <time>2013-03-10T12:06:36Z</time>
      </trkpt>
      <trkpt lat="59.8756069" lon="17.6755178">
        <ele>26.0929</ele>
        <time>2013-03-10T12:06:37Z</time>
      </trkpt>
      <trkpt lat="59.8755958" lon="17.6755018">
        <ele>26.0929</ele>
        <time>2013-03-10T12:06:38Z</time>
      </trkpt>
      <trkpt lat="59.8755841" lon="17.6754871">
        <ele>26.0929</ele>
        <time>2013-03-10T12:06:39Z</time>
      </trkpt>
      <trkpt lat="59.8755713" lon="17.6754723">
        <ele>26.0929</ele>
        <time>2013-03-10T12:06:40Z</time>
      </trkpt>
      <trkpt lat="59.8755589" lon="17.6754594">
        <ele>26.5736</ele>
        <time>2013-03-10T12:06:41Z</time>
      </trkpt>
      <trkpt lat="59.8755474" lon="17.6754464">
        <ele>26.5736</ele>
        <time>2013-03-10T12:06:42Z</time>
      </trkpt>
      <trkpt lat="59.8755359" lon="17.6754335">
        <ele>26.5736</ele>
        <time>2013-03-10T12:06:43Z</time>
      </trkpt>
      <trkpt lat="59.875524" lon="17.6754214">
        <ele>27.0543</ele>
        <time>2013-03-10T12:06:44Z</time>
      </trkpt>
      <trkpt lat="59.8755128" lon="17.6754106">
        <ele>27.0543</ele>
        <time>2013-03-10T12:06:45Z</time>
      </trkpt>
      <trkpt lat="59.8755017" lon="17.6754017">
        <ele>27.0543</ele>
        <time>2013-03-10T12:06:46Z</time>
      </trkpt>
      <trkpt lat="59.8754925" lon="17.6753961">
        <ele>27.0543</ele>
        <time>2013-03-10T12:06:47Z</time>
      </trkpt>
      <trkpt lat="59.8754846" lon="17.6753925">
        <ele>26.5736</ele>
        <time>2013-03-10T12:06:48Z</time>
      </trkpt>
      <trkpt lat="59.8754789" lon="17.6753941">
        <ele>26.5736</ele>
        <time>2013-03-10T12:06:49Z</time>
      </trkpt>
      <trkpt lat="59.8754775" lon="17.6753991">
        <ele>26.5736</ele>
        <time>2013-03-10T12:06:50Z</time>
      </trkpt>
      <trkpt lat="59.8754748" lon="17.6754075">
        <ele>26.0929</ele>
        <time>2013-03-10T12:06:51Z</time>
      </trkpt>
      <trkpt lat="59.8754676" lon="17.6754163">
        <ele>25.6123</ele>
        <time>2013-03-10T12:06:52Z</time>
      </trkpt>
      <trkpt lat="59.8754627" lon="17.6754266">
        <ele>25.1317</ele>
        <time>2013-03-10T12:06:53Z</time>
      </trkpt>
      <trkpt lat="59.8754578" lon="17.675435">
        <ele>25.6123</ele>
        <time>2013-03-10T12:06:54Z</time>
      </trkpt>
      <trkpt lat="59.8754536" lon="17.6754448">
        <ele>25.1317</ele>
        <time>2013-03-10T12:06:55Z</time>
      </trkpt>
      <trkpt lat="59.875443" lon="17.6754607">
        <ele>25.1317</ele>
        <time>2013-03-10T12:06:56Z</time>
      </trkpt>
      <trkpt lat="59.8754308" lon="17.6754765">
        <ele>24.651</ele>
        <time>2013-03-10T12:06:57Z</time>
      </trkpt>
      <trkpt lat="59.8754159" lon="17.6754916">
        <ele>24.651</ele>
        <time>2013-03-10T12:06:58Z</time>
      </trkpt>
      <trkpt lat="59.8754014" lon="17.6755044">
        <ele>24.651</ele>
        <time>2013-03-10T12:06:59Z</time>
      </trkpt>
      <trkpt lat="59.8753904" lon="17.6755127">
        <ele>24.1703</ele>
        <time>2013-03-10T12:07:00Z</time>
      </trkpt>
      <trkpt lat="59.875379" lon="17.6755175">
        <ele>24.1703</ele>
        <time>2013-03-10T12:07:01Z</time>
      </trkpt>
      <trkpt lat="59.8753641" lon="17.6755208">
        <ele>24.651</ele>
        <time>2013-03-10T12:07:02Z</time>
      </trkpt>
      <trkpt lat="59.8753542" lon="17.6755229">
        <ele>24.1703</ele>
        <time>2013-03-10T12:07:03Z</time>
      </trkpt>
      <trkpt lat="59.8753445" lon="17.6755353">
        <ele>24.1703</ele>
        <time>2013-03-10T12:07:04Z</time>
      </trkpt>
      <trkpt lat="59.8753346" lon="17.6755551">
        <ele>24.1703</ele>
        <time>2013-03-10T12:07:05Z</time>
      </trkpt>
      <trkpt lat="59.8753235" lon="17.6755737">
        <ele>24.1703</ele>
        <time>2013-03-10T12:07:06Z</time>
      </trkpt>
      <trkpt lat="59.8753117" lon="17.6755919">
        <ele>24.1703</ele>
        <time>2013-03-10T12:07:07Z</time>
      </trkpt>
      <trkpt lat="59.8753007" lon="17.6756008">
        <ele>24.1703</ele>
        <time>2013-03-10T12:07:08Z</time>
      </trkpt>
      <trkpt lat="59.8752942" lon="17.675606">
        <ele>24.1703</ele>
        <time>2013-03-10T12:07:09Z</time>
      </trkpt>
      <trkpt lat="59.8752894" lon="17.675618">
        <ele>23.6896</ele>
        <time>2013-03-10T12:07:10Z</time>
      </trkpt>
      <trkpt lat="59.8752863" lon="17.6756406">
        <ele>23.6896</ele>
        <time>2013-03-10T12:07:11Z</time>
      </trkpt>
      <trkpt lat="59.875288" lon="17.675665">
        <ele>24.1703</ele>
        <time>2013-03-10T12:07:12Z</time>
      </trkpt>
      <trkpt lat="59.8752905" lon="17.6756915">
        <ele>24.1703</ele>
        <time>2013-03-10T12:07:13Z</time>
      </trkpt>
      <trkpt lat="59.8752973" lon="17.6757169">
        <ele>24.1703</ele>
        <time>2013-03-10T12:07:14Z</time>
      </trkpt>
      <trkpt lat="59.8752983" lon="17.6757639">
        <ele>25.6123</ele>
        <time>2013-03-10T12:07:15Z</time>
      </trkpt>
      <trkpt lat="59.8752997" lon="17.6758078">
        <ele>26.5736</ele>
        <time>2013-03-10T12:07:16Z</time>
      </trkpt>
      <trkpt lat="59.8753033" lon="17.6758378">
        <ele>27.0543</ele>
        <time>2013-03-10T12:07:17Z</time>
      </trkpt>
      <trkpt lat="59.8753075" lon="17.6758638">
        <ele>27.0543</ele>
        <time>2013-03-10T12:07:18Z</time>
      </trkpt>
      <trkpt lat="59.8753132" lon="17.6758934">
        <ele>27.5349</ele>
        <time>2013-03-10T12:07:19Z</time>
      </trkpt>
      <trkpt lat="59.8753214" lon="17.6759198">
        <ele>28.0155</ele>
        <time>2013-03-10T12:07:20Z</time>
      </trkpt>
      <trkpt lat="59.8753313" lon="17.6759493">
        <ele>28.4962</ele>
        <time>2013-03-10T12:07:21Z</time>
      </trkpt>
      <trkpt lat="59.8753412" lon="17.6759774">
        <ele>28.4962</ele>
        <time>2013-03-10T12:07:22Z</time>
      </trkpt>
      <trkpt lat="59.8753491" lon="17.6760069">
        <ele>28.9769</ele>
        <time>2013-03-10T12:07:23Z</time>
      </trkpt>
      <trkpt lat="59.8753547" lon="17.6760362">
        <ele>28.9769</ele>
        <time>2013-03-10T12:07:24Z</time>
      </trkpt>
      <trkpt lat="59.8753611" lon="17.6760614">
        <ele>28.9769</ele>
        <time>2013-03-10T12:07:25Z</time>
      </trkpt>
      <trkpt lat="59.8753701" lon="17.6760841">
        <ele>28.9769</ele>
        <time>2013-03-10T12:07:26Z</time>
      </trkpt>
      <trkpt lat="59.8753782" lon="17.6761103">
        <ele>28.4962</ele>
        <time>2013-03-10T12:07:27Z</time>
      </trkpt>
      <trkpt lat="59.875389" lon="17.6761266">
        <ele>28.0155</ele>
        <time>2013-03-10T12:07:28Z</time>
      </trkpt>
      <trkpt lat="59.8753978" lon="17.6761517">
        <ele>28.0155</ele>
        <time>2013-03-10T12:07:29Z</time>
      </trkpt>
      <trkpt lat="59.875404" lon="17.6761808">
        <ele>27.5349</ele>
        <time>2013-03-10T12:07:30Z</time>
      </trkpt>
      <trkpt lat="59.8754101" lon="17.6762093">
        <ele>27.5349</ele>
        <time>2013-03-10T12:07:31Z</time>
      </trkpt>
      <trkpt lat="59.8754149" lon="17.6762365">
        <ele>27.0543</ele>
        <time>2013-03-10T12:07:32Z</time>
      </trkpt>
      <trkpt lat="59.8754225" lon="17.6762652">
        <ele>27.0543</ele>
        <time>2013-03-10T12:07:33Z</time>
      </trkpt>
      <trkpt lat="59.8754304" lon="17.6762891">
        <ele>27.0543</ele>
        <time>2013-03-10T12:07:34Z</time>
      </trkpt>
      <trkpt lat="59.8754367" lon="17.6763159">
        <ele>27.0543</ele>
        <time>2013-03-10T12:07:35Z</time>
      </trkpt>
      <trkpt lat="59.875444" lon="17.6763419">
        <ele>27.0543</ele>
        <time>2013-03-10T12:07:36Z</time>
      </trkpt>
      <trkpt lat="59.8754506" lon="17.6763669">
        <ele>27.5349</ele>
        <time>2013-03-10T12:07:37Z</time>
      </trkpt>
      <trkpt lat="59.8754568" lon="17.6763907">
        <ele>27.5349</ele>
        <time>2013-03-10T12:07:38Z</time>
      </trkpt>
      <trkpt lat="59.8754615" lon="17.6764107">
        <ele>27.0543</ele>
        <time>2013-03-10T12:07:39Z</time>
      </trkpt>
      <trkpt lat="59.8754672" lon="17.6764296">
        <ele>27.0543</ele>
        <time>2013-03-10T12:07:40Z</time>
      </trkpt>
      <trkpt lat="59.8754751" lon="17.6764457">
        <ele>26.5736</ele>
        <time>2013-03-10T12:07:41Z</time>
      </trkpt>
      <trkpt lat="59.8754827" lon="17.6764586">
        <ele>26.5736</ele>
        <time>2013-03-10T12:07:42Z</time>
      </trkpt>
      <trkpt lat="59.8754893" lon="17.6764683">
        <ele>25.6123</ele>
        <time>2013-03-10T12:07:43Z</time>
      </trkpt>
      <trkpt lat="59.875496" lon="17.6764788">
        <ele>25.1317</ele>
        <time>2013-03-10T12:07:44Z</time>
      </trkpt>
      <trkpt lat="59.8755038" lon="17.6764913">
        <ele>24.651</ele>
        <time>2013-03-10T12:07:45Z</time>
      </trkpt>
      <trkpt lat="59.8755133" lon="17.676504">
        <ele>24.1703</ele>
        <time>2013-03-10T12:07:46Z</time>
      </trkpt>
      <trkpt lat="59.8755243" lon="17.6765153">
        <ele>24.1703</ele>
        <time>2013-03-10T12:07:47Z</time>
      </trkpt>
      <trkpt lat="59.8755364" lon="17.6765278">
        <ele>24.1703</ele>
        <time>2013-03-10T12:07:48Z</time>
      </trkpt>
      <trkpt lat="59.875548" lon="17.6765421">
        <ele>24.651</ele>
        <time>2013-03-10T12:07:49Z</time>
      </trkpt>
      <trkpt lat="59.8755589" lon="17.6765558">
        <ele>24.651</ele>
        <time>2013-03-10T12:07:50Z</time>
      </trkpt>
      <trkpt lat="59.8755661" lon="17.6765741">
        <ele>24.651</ele>
        <time>2013-03-10T12:07:51Z</time>
      </trkpt>
      <trkpt lat="59.8755744" lon="17.6765912">
        <ele>24.651</ele>
        <time>2013-03-10T12:07:52Z</time>
      </trkpt>
      <trkpt lat="59.8755821" lon="17.6766081">
        <ele>24.1703</ele>
        <time>2013-03-10T12:07:53Z</time>
      </trkpt>
      <trkpt lat="59.8755889" lon="17.6766268">
        <ele>23.6896</ele>
        <time>2013-03-10T12:07:54Z</time>
      </trkpt>
      <trkpt lat="59.8755941" lon="17.6766475">
        <ele>23.6896</ele>
        <time>2013-03-10T12:07:55Z</time>
      </trkpt>
      <trkpt lat="59.8755986" lon="17.6766689">
        <ele>23.209</ele>
        <time>2013-03-10T12:07:56Z</time>
      </trkpt>
      <trkpt lat="59.875604" lon="17.6766894">
        <ele>23.209</ele>
        <time>2013-03-10T12:07:57Z</time>
      </trkpt>
      <trkpt lat="59.8756095" lon="17.6767103">
        <ele>22.7283</ele>
        <time>2013-03-10T12:07:58Z</time>
      </trkpt>
      <trkpt lat="59.8756151" lon="17.6767311">
        <ele>22.2476</ele>
        <time>2013-03-10T12:07:59Z</time>
      </trkpt>
      <trkpt lat="59.8756205" lon="17.6767517">
        <ele>21.767</ele>
        <time>2013-03-10T12:08:00Z</time>
      </trkpt>
      <trkpt lat="59.8756257" lon="17.6767725">
        <ele>21.2864</ele>
        <time>2013-03-10T12:08:01Z</time>
      </trkpt>
      <trkpt lat="59.8756299" lon="17.6767954">
        <ele>20.8057</ele>
        <time>2013-03-10T12:08:02Z</time>
      </trkpt>
      <trkpt lat="59.8756361" lon="17.6768186">
        <ele>20.325</ele>
        <time>2013-03-10T12:08:03Z</time>
      </trkpt>
      <trkpt lat="59.8756434" lon="17.6768401">
        <ele>20.325</ele>
        <time>2013-03-10T12:08:04Z</time>
      </trkpt>
      <trkpt lat="59.8756512" lon="17.676861">
        <ele>19.8444</ele>
        <time>2013-03-10T12:08:05Z</time>
      </trkpt>
      <trkpt lat="59.8756602" lon="17.6768813">
        <ele>19.8444</ele>
        <time>2013-03-10T12:08:06Z</time>
      </trkpt>
      <trkpt lat="59.8756691" lon="17.6769013">
        <ele>19.3638</ele>
        <time>2013-03-10T12:08:07Z</time>
      </trkpt>
      <trkpt lat="59.8756784" lon="17.6769225">
        <ele>19.3638</ele>
        <time>2013-03-10T12:08:08Z</time>
      </trkpt>
      <trkpt lat="59.8756874" lon="17.6769439">
        <ele>19.3638</ele>
        <time>2013-03-10T12:08:09Z</time>
      </trkpt>
      <trkpt lat="59.8756956" lon="17.6769656">
        <ele>19.3638</ele>
        <time>2013-03-10T12:08:10Z</time>
      </trkpt>
      <trkpt lat="59.8757042" lon="17.6769868">
        <ele>19.3638</ele>
        <time>2013-03-10T12:08:11Z</time>
      </trkpt>
      <trkpt lat="59.8757134" lon="17.677007">
        <ele>19.8444</ele>
        <time>2013-03-10T12:08:12Z</time>
      </trkpt>
      <trkpt lat="59.8757226" lon="17.6770274">
        <ele>19.8444</ele>
        <time>2013-03-10T12:08:13Z</time>
      </trkpt>
      <trkpt lat="59.8757304" lon="17.6770485">
        <ele>19.8444</ele>
        <time>2013-03-10T12:08:14Z</time>
      </trkpt>
      <trkpt lat="59.8757374" lon="17.6770693">
        <ele>19.8444</ele>
        <time>2013-03-10T12:08:15Z</time>
      </trkpt>
      <trkpt lat="59.8757441" lon="17.6770901">
        <ele>19.8444</ele>
        <time>2013-03-10T12:08:16Z</time>
      </trkpt>
      <trkpt lat="59.8757503" lon="17.6771101">
        <ele>19.3638</ele>
        <time>2013-03-10T12:08:17Z</time>
      </trkpt>
      <trkpt lat="59.8757568" lon="17.6771298">
        <ele>19.3638</ele>
        <time>2013-03-10T12:08:18Z</time>
      </trkpt>
      <trkpt lat="59.8757635" lon="17.6771506">
        <ele>19.3638</ele>
        <time>2013-03-10T12:08:19Z</time>
      </trkpt>
      <trkpt lat="59.8757703" lon="17.6771719">
        <ele>19.3638</ele>
        <time>2013-03-10T12:08:20Z</time>
      </trkpt>
      <trkpt lat="59.8757766" lon="17.6771942">
        <ele>18.8831</ele>
        <time>2013-03-10T12:08:21Z</time>
      </trkpt>
      <trkpt lat="59.8757828" lon="17.6772155">
        <ele>18.8831</ele>
        <time>2013-03-10T12:08:22Z</time>
      </trkpt>
      <trkpt lat="59.8757897" lon="17.6772341">
        <ele>18.8831</ele>
        <time>2013-03-10T12:08:23Z</time>
      </trkpt>
      <trkpt lat="59.8757976" lon="17.6772538">
        <ele>18.4023</ele>
        <time>2013-03-10T12:08:24Z</time>
      </trkpt>
      <trkpt lat="59.875806" lon="17.6772754">
        <ele>18.4023</ele>
        <time>2013-03-10T12:08:25Z</time>
      </trkpt>
      <trkpt lat="59.8758142" lon="17.6772958">
        <ele>18.8831</ele>
        <time>2013-03-10T12:08:26Z</time>
      </trkpt>
      <trkpt lat="59.8758215" lon="17.6773163">
        <ele>18.8831</ele>
        <time>2013-03-10T12:08:27Z</time>
      </trkpt>
      <trkpt lat="59.8758282" lon="17.6773359">
        <ele>18.8831</ele>
        <time>2013-03-10T12:08:28Z</time>
      </trkpt>
      <trkpt lat="59.8758358" lon="17.6773576">
        <ele>19.3638</ele>
        <time>2013-03-10T12:08:29Z</time>
      </trkpt>
      <trkpt lat="59.8758426" lon="17.6773776">
        <ele>19.3638</ele>
        <time>2013-03-10T12:08:30Z</time>
      </trkpt>
      <trkpt lat="59.8758485" lon="17.6773982">
        <ele>19.3638</ele>
        <time>2013-03-10T12:08:31Z</time>
      </trkpt>
      <trkpt lat="59.8758542" lon="17.67742">
        <ele>19.3638</ele>
        <time>2013-03-10T12:08:32Z</time>
      </trkpt>
      <trkpt lat="59.8758586" lon="17.6774422">
        <ele>18.8831</ele>
        <time>2013-03-10T12:08:33Z</time>
      </trkpt>
      <trkpt lat="59.8758619" lon="17.6774647">
        <ele>18.8831</ele>
        <time>2013-03-10T12:08:34Z</time>
      </trkpt>
      <trkpt lat="59.8758654" lon="17.6774863">
        <ele>18.4023</ele>
        <time>2013-03-10T12:08:35Z</time>
      </trkpt>
      <trkpt lat="59.8758696" lon="17.6775055">
        <ele>18.4023</ele>
        <time>2013-03-10T12:08:36Z</time>
      </trkpt>
      <trkpt lat="59.8758738" lon="17.677527">
        <ele>17.9218</ele>
        <time>2013-03-10T12:08:37Z</time>
      </trkpt>
      <trkpt lat="59.8758795" lon="17.67755">
        <ele>17.9218</ele>
        <time>2013-03-10T12:08:38Z</time>
      </trkpt>
      <trkpt lat="59.8758842" lon="17.6775733">
        <ele>17.9218</ele>
        <time>2013-03-10T12:08:39Z</time>
      </trkpt>
      <trkpt lat="59.8758887" lon="17.6775972">
        <ele>17.9218</ele>
        <time>2013-03-10T12:08:40Z</time>
      </trkpt>
      <trkpt lat="59.8758936" lon="17.6776203">
        <ele>17.9218</ele>
        <time>2013-03-10T12:08:41Z</time>
      </trkpt>
      <trkpt lat="59.8758988" lon="17.6776454">
        <ele>17.9218</ele>
        <time>2013-03-10T12:08:42Z</time>
      </trkpt>
      <trkpt lat="59.8759038" lon="17.6776696">
        <ele>17.4412</ele>
        <time>2013-03-10T12:08:43Z</time>
      </trkpt>
      <trkpt lat="59.87591" lon="17.6776929">
        <ele>17.4412</ele>
        <time>2013-03-10T12:08:44Z</time>
      </trkpt>
      <trkpt lat="59.8759156" lon="17.6777169">
        <ele>17.4412</ele>
        <time>2013-03-10T12:08:45Z</time>
      </trkpt>
      <trkpt lat="59.87592" lon="17.6777412">
        <ele>17.4412</ele>
        <time>2013-03-10T12:08:46Z</time>
      </trkpt>
      <trkpt lat="59.8759241" lon="17.6777646">
        <ele>17.4412</ele>
        <time>2013-03-10T12:08:47Z</time>
      </trkpt>
      <trkpt lat="59.8759273" lon="17.6777869">
        <ele>17.4412</ele>
        <time>2013-03-10T12:08:48Z</time>
      </trkpt>
      <trkpt lat="59.8759303" lon="17.6778094">
        <ele>17.4412</ele>
        <time>2013-03-10T12:08:49Z</time>
      </trkpt>
      <trkpt lat="59.8759346" lon="17.6778321">
        <ele>17.4412</ele>
        <time>2013-03-10T12:08:50Z</time>
      </trkpt>
      <trkpt lat="59.8759373" lon="17.6778529">
        <ele>16.9604</ele>
        <time>2013-03-10T12:08:51Z</time>
      </trkpt>
      <trkpt lat="59.8759399" lon="17.6778748">
        <ele>15.999</ele>
        <time>2013-03-10T12:08:52Z</time>
      </trkpt>
      <trkpt lat="59.8759433" lon="17.6778993">
        <ele>15.5184</ele>
        <time>2013-03-10T12:08:53Z</time>
      </trkpt>
      <trkpt lat="59.8759453" lon="17.6779241">
        <ele>15.0377</ele>
        <time>2013-03-10T12:08:54Z</time>
      </trkpt>
      <trkpt lat="59.8759496" lon="17.677953">
        <ele>15.5184</ele>
        <time>2013-03-10T12:08:55Z</time>
      </trkpt>
      <trkpt lat="59.8759624" lon="17.6779717">
        <ele>16.4797</ele>
        <time>2013-03-10T12:08:56Z</time>
      </trkpt>
      <trkpt lat="59.8759708" lon="17.6779937">
        <ele>15.999</ele>
        <time>2013-03-10T12:08:57Z</time>
      </trkpt>
      <trkpt lat="59.8759758" lon="17.6780132">
        <ele>15.999</ele>
        <time>2013-03-10T12:08:58Z</time>
      </trkpt>
      <trkpt lat="59.87599" lon="17.6780412">
        <ele>17.4412</ele>
        <time>2013-03-10T12:08:59Z</time>
      </trkpt>
      <trkpt lat="59.8760052" lon="17.6780637">
        <ele>17.4412</ele>
        <time>2013-03-10T12:09:00Z</time>
      </trkpt>
      <trkpt lat="59.8760194" lon="17.6780619">
        <ele>16.9604</ele>
        <time>2013-03-10T12:09:01Z</time>
      </trkpt>
      <trkpt lat="59.8760245" lon="17.6780813">
        <ele>16.9604</ele>
        <time>2013-03-10T12:09:02Z</time>
      </trkpt>
      <trkpt lat="59.876035" lon="17.6780971">
        <ele>17.9218</ele>
        <time>2013-03-10T12:09:03Z</time>
      </trkpt>
      <trkpt lat="59.8760228" lon="17.678154">
        <ele>18.8831</ele>
        <time>2013-03-10T12:09:04Z</time>
      </trkpt>
      <trkpt lat="59.8760324" lon="17.6781664">
        <ele>19.3638</ele>
        <time>2013-03-10T12:09:05Z</time>
      </trkpt>
      <trkpt lat="59.8760329" lon="17.6781883">
        <ele>19.3638</ele>
        <time>2013-03-10T12:09:06Z</time>
      </trkpt>
      <trkpt lat="59.8760223" lon="17.6782276">
        <ele>19.3638</ele>
        <time>2013-03-10T12:09:07Z</time>
      </trkpt>
      <trkpt lat="59.8760324" lon="17.6782492">
        <ele>17.4412</ele>
        <time>2013-03-10T12:09:08Z</time>
      </trkpt>
      <trkpt lat="59.8760427" lon="17.6782695">
        <ele>15.999</ele>
        <time>2013-03-10T12:09:09Z</time>
      </trkpt>
      <trkpt lat="59.8760485" lon="17.6782929">
        <ele>15.999</ele>
        <time>2013-03-10T12:09:10Z</time>
      </trkpt>
      <trkpt lat="59.8760533" lon="17.6783235">
        <ele>15.999</ele>
        <time>2013-03-10T12:09:11Z</time>
      </trkpt>
      <trkpt lat="59.8760741" lon="17.6783396">
        <ele>15.5184</ele>
        <time>2013-03-10T12:09:12Z</time>
      </trkpt>
      <trkpt lat="59.8760898" lon="17.6783685">
        <ele>16.4797</ele>
        <time>2013-03-10T12:09:13Z</time>
      </trkpt>
      <trkpt lat="59.8760979" lon="17.6783999">
        <ele>17.4412</ele>
        <time>2013-03-10T12:09:14Z</time>
      </trkpt>
      <trkpt lat="59.876109" lon="17.678417">
        <ele>17.9218</ele>
        <time>2013-03-10T12:09:15Z</time>
      </trkpt>
      <trkpt lat="59.8761157" lon="17.6784405">
        <ele>17.9218</ele>
        <time>2013-03-10T12:09:16Z</time>
      </trkpt>
      <trkpt lat="59.8761235" lon="17.6784534">
        <ele>17.9218</ele>
        <time>2013-03-10T12:09:17Z</time>
      </trkpt>
      <trkpt lat="59.8761297" lon="17.6784717">
        <ele>17.9218</ele>
        <time>2013-03-10T12:09:18Z</time>
      </trkpt>
      <trkpt lat="59.8761376" lon="17.6784888">
        <ele>17.4412</ele>
        <time>2013-03-10T12:09:19Z</time>
      </trkpt>
      <trkpt lat="59.8761458" lon="17.6785046">
        <ele>17.4412</ele>
        <time>2013-03-10T12:09:20Z</time>
      </trkpt>
      <trkpt lat="59.876155" lon="17.6785188">
        <ele>17.4412</ele>
        <time>2013-03-10T12:09:21Z</time>
      </trkpt>
      <trkpt lat="59.876165" lon="17.6785414">
        <ele>18.4023</ele>
        <time>2013-03-10T12:09:22Z</time>
      </trkpt>
      <trkpt lat="59.8761691" lon="17.6785533">
        <ele>18.4023</ele>
        <time>2013-03-10T12:09:23Z</time>
      </trkpt>
      <trkpt lat="59.8761743" lon="17.6785611">
        <ele>16.9604</ele>
        <time>2013-03-10T12:09:24Z</time>
      </trkpt>
      <trkpt lat="59.8761821" lon="17.678573">
        <ele>16.9604</ele>
        <time>2013-03-10T12:09:25Z</time>
      </trkpt>
      <trkpt lat="59.876191" lon="17.6785838">
        <ele>16.9604</ele>
        <time>2013-03-10T12:09:26Z</time>
      </trkpt>
      <trkpt lat="59.8761995" lon="17.6785933">
        <ele>16.4797</ele>
        <time>2013-03-10T12:09:27Z</time>
      </trkpt>
      <trkpt lat="59.8762073" lon="17.6786035">
        <ele>16.4797</ele>
        <time>2013-03-10T12:09:28Z</time>
      </trkpt>
      <trkpt lat="59.8762155" lon="17.6786149">
        <ele>15.999</ele>
        <time>2013-03-10T12:09:29Z</time>
      </trkpt>
      <trkpt lat="59.8762256" lon="17.6786268">
        <ele>15.999</ele>
        <time>2013-03-10T12:09:30Z</time>
      </trkpt>
      <trkpt lat="59.8762354" lon="17.6786331">
        <ele>15.5184</ele>
        <time>2013-03-10T12:09:31Z</time>
      </trkpt>
      <trkpt lat="59.8762458" lon="17.6786397">
        <ele>15.5184</ele>
        <time>2013-03-10T12:09:32Z</time>
      </trkpt>
      <trkpt lat="59.8762565" lon="17.6786472">
        <ele>15.5184</ele>
        <time>2013-03-10T12:09:33Z</time>
      </trkpt>
      <trkpt lat="59.8762664" lon="17.6786549">
        <ele>15.999</ele>
        <time>2013-03-10T12:09:34Z</time>
      </trkpt>
      <trkpt lat="59.8762772" lon="17.6786617">
        <ele>15.5184</ele>
        <time>2013-03-10T12:09:35Z</time>
      </trkpt>
      <trkpt lat="59.8762892" lon="17.6786682">
        <ele>15.5184</ele>
        <time>2013-03-10T12:09:36Z</time>
      </trkpt>
      <trkpt lat="59.8763015" lon="17.6786745">
        <ele>15.999</ele>
        <time>2013-03-10T12:09:37Z</time>
      </trkpt>
      <trkpt lat="59.8763122" lon="17.6786802">
        <ele>15.5184</ele>
        <time>2013-03-10T12:09:38Z</time>
      </trkpt>
      <trkpt lat="59.876323" lon="17.6786879">
        <ele>15.0377</ele>
        <time>2013-03-10T12:09:39Z</time>
      </trkpt>
      <trkpt lat="59.8763349" lon="17.6786969">
        <ele>15.5184</ele>
        <time>2013-03-10T12:09:40Z</time>
      </trkpt>
      <trkpt lat="59.8763468" lon="17.6787041">
        <ele>15.0377</ele>
        <time>2013-03-10T12:09:41Z</time>
      </trkpt>
      <trkpt lat="59.8763581" lon="17.678715">
        <ele>15.0377</ele>
        <time>2013-03-10T12:09:42Z</time>
      </trkpt>
      <trkpt lat="59.8763697" lon="17.6787247">
        <ele>14.557</ele>
        <time>2013-03-10T12:09:43Z</time>
      </trkpt>
      <trkpt lat="59.8763815" lon="17.6787311">
        <ele>15.0377</ele>
        <time>2013-03-10T12:09:44Z</time>
      </trkpt>
      <trkpt lat="59.8763929" lon="17.6787398">
        <ele>15.0377</ele>
        <time>2013-03-10T12:09:45Z</time>
      </trkpt>
      <trkpt lat="59.8764041" lon="17.6787465">
        <ele>15.5184</ele>
        <time>2013-03-10T12:09:46Z</time>
      </trkpt>
      <trkpt lat="59.8764152" lon="17.6787532">
        <ele>15.5184</ele>
        <time>2013-03-10T12:09:47Z</time>
      </trkpt>
      <trkpt lat="59.8764258" lon="17.678759">
        <ele>15.0377</ele>
        <time>2013-03-10T12:09:48Z</time>
      </trkpt>
      <trkpt lat="59.876437" lon="17.6787645">
        <ele>15.0377</ele>
        <time>2013-03-10T12:09:49Z</time>
      </trkpt>
      <trkpt lat="59.8764488" lon="17.6787746">
        <ele>14.557</ele>
        <time>2013-03-10T12:09:50Z</time>
      </trkpt>
      <trkpt lat="59.8764603" lon="17.678783">
        <ele>14.557</ele>
        <time>2013-03-10T12:09:51Z</time>
      </trkpt>
      <trkpt lat="59.8764721" lon="17.6787913">
        <ele>14.557</ele>
        <time>2013-03-10T12:09:52Z</time>
      </trkpt>
      <trkpt lat="59.8764839" lon="17.6787984">
        <ele>14.557</ele>
        <time>2013-03-10T12:09:53Z</time>
      </trkpt>
      <trkpt lat="59.8764958" lon="17.6788035">
        <ele>14.557</ele>
        <time>2013-03-10T12:09:54Z</time>
      </trkpt>
      <trkpt lat="59.876508" lon="17.6788088">
        <ele>14.557</ele>
        <time>2013-03-10T12:09:55Z</time>
      </trkpt>
      <trkpt lat="59.8765222" lon="17.6788145">
        <ele>14.557</ele>
        <time>2013-03-10T12:09:56Z</time>
      </trkpt>
      <trkpt lat="59.8765343" lon="17.6788197">
        <ele>14.557</ele>
        <time>2013-03-10T12:09:57Z</time>
      </trkpt>
      <trkpt lat="59.8765457" lon="17.678829">
        <ele>15.0377</ele>
        <time>2013-03-10T12:09:58Z</time>
      </trkpt>
      <trkpt lat="59.8765575" lon="17.6788379">
        <ele>15.0377</ele>
        <time>2013-03-10T12:09:59Z</time>
      </trkpt>
      <trkpt lat="59.8765705" lon="17.6788452">
        <ele>15.0377</ele>
        <time>2013-03-10T12:10:00Z</time>
      </trkpt>
      <trkpt lat="59.8765807" lon="17.6788497">
        <ele>15.0377</ele>
        <time>2013-03-10T12:10:01Z</time>
      </trkpt>
      <trkpt lat="59.8765912" lon="17.6788544">
        <ele>15.0377</ele>
        <time>2013-03-10T12:10:02Z</time>
      </trkpt>
      <trkpt lat="59.8766026" lon="17.6788607">
        <ele>14.557</ele>
        <time>2013-03-10T12:10:03Z</time>
      </trkpt>
      <trkpt lat="59.8766128" lon="17.6788705">
        <ele>14.557</ele>
        <time>2013-03-10T12:10:04Z</time>
      </trkpt>
      <trkpt lat="59.8766243" lon="17.6788808">
        <ele>14.557</ele>
        <time>2013-03-10T12:10:05Z</time>
      </trkpt>
      <trkpt lat="59.8766389" lon="17.67889">
        <ele>15.0377</ele>
        <time>2013-03-10T12:10:06Z</time>
      </trkpt>
      <trkpt lat="59.8766509" lon="17.6788984">
        <ele>15.5184</ele>
        <time>2013-03-10T12:10:07Z</time>
      </trkpt>
      <trkpt lat="59.8766642" lon="17.6789101">
        <ele>15.5184</ele>
        <time>2013-03-10T12:10:08Z</time>
      </trkpt>
      <trkpt lat="59.8766745" lon="17.6789256">
        <ele>15.999</ele>
        <time>2013-03-10T12:10:09Z</time>
      </trkpt>
      <trkpt lat="59.8766854" lon="17.6789393">
        <ele>15.999</ele>
        <time>2013-03-10T12:10:10Z</time>
      </trkpt>
      <trkpt lat="59.8766963" lon="17.6789533">
        <ele>15.999</ele>
        <time>2013-03-10T12:10:11Z</time>
      </trkpt>
      <trkpt lat="59.8767088" lon="17.6789714">
        <ele>16.4797</ele>
        <time>2013-03-10T12:10:12Z</time>
      </trkpt>
      <trkpt lat="59.8767227" lon="17.6789932">
        <ele>17.4412</ele>
        <time>2013-03-10T12:10:13Z</time>
      </trkpt>
      <trkpt lat="59.8767374" lon="17.6790161">
        <ele>18.4023</ele>
        <time>2013-03-10T12:10:14Z</time>
      </trkpt>
      <trkpt lat="59.8767508" lon="17.6790357">
        <ele>18.8831</ele>
        <time>2013-03-10T12:10:15Z</time>
      </trkpt>
      <trkpt lat="59.8767637" lon="17.6790554">
        <ele>19.3638</ele>
        <time>2013-03-10T12:10:16Z</time>
      </trkpt>
      <trkpt lat="59.8767735" lon="17.6790755">
        <ele>19.3638</ele>
        <time>2013-03-10T12:10:17Z</time>
      </trkpt>
      <trkpt lat="59.8767824" lon="17.6790958">
        <ele>19.3638</ele>
        <time>2013-03-10T12:10:18Z</time>
      </trkpt>
      <trkpt lat="59.8767918" lon="17.6791161">
        <ele>19.8444</ele>
        <time>2013-03-10T12:10:19Z</time>
      </trkpt>
      <trkpt lat="59.8768019" lon="17.6791342">
        <ele>19.8444</ele>
        <time>2013-03-10T12:10:20Z</time>
      </trkpt>
      <trkpt lat="59.8768115" lon="17.6791538">
        <ele>20.325</ele>
        <time>2013-03-10T12:10:21Z</time>
      </trkpt>
      <trkpt lat="59.8768204" lon="17.6791748">
        <ele>20.8057</ele>
        <time>2013-03-10T12:10:22Z</time>
      </trkpt>
      <trkpt lat="59.8768302" lon="17.6791972">
        <ele>20.8057</ele>
        <time>2013-03-10T12:10:23Z</time>
      </trkpt>
      <trkpt lat="59.8768404" lon="17.6792184">
        <ele>20.8057</ele>
        <time>2013-03-10T12:10:24Z</time>
      </trkpt>
      <trkpt lat="59.8768493" lon="17.6792398">
        <ele>21.2864</ele>
        <time>2013-03-10T12:10:25Z</time>
      </trkpt>
      <trkpt lat="59.8768579" lon="17.679261">
        <ele>20.8057</ele>
        <time>2013-03-10T12:10:26Z</time>
      </trkpt>
      <trkpt lat="59.8768685" lon="17.6792792">
        <ele>21.2864</ele>
        <time>2013-03-10T12:10:27Z</time>
      </trkpt>
      <trkpt lat="59.8768778" lon="17.6793003">
        <ele>21.2864</ele>
        <time>2013-03-10T12:10:28Z</time>
      </trkpt>
      <trkpt lat="59.8768882" lon="17.6793196">
        <ele>21.767</ele>
        <time>2013-03-10T12:10:29Z</time>
      </trkpt>
      <trkpt lat="59.8768985" lon="17.6793391">
        <ele>21.767</ele>
        <time>2013-03-10T12:10:30Z</time>
      </trkpt>
      <trkpt lat="59.8769099" lon="17.6793646">
        <ele>22.2476</ele>
        <time>2013-03-10T12:10:31Z</time>
      </trkpt>
      <trkpt lat="59.8769223" lon="17.6793953">
        <ele>22.7283</ele>
        <time>2013-03-10T12:10:32Z</time>
      </trkpt>
      <trkpt lat="59.8769348" lon="17.6794226">
        <ele>22.7283</ele>
        <time>2013-03-10T12:10:33Z</time>
      </trkpt>
      <trkpt lat="59.8769472" lon="17.6794449">
        <ele>23.209</ele>
        <time>2013-03-10T12:10:34Z</time>
      </trkpt>
      <trkpt lat="59.8769591" lon="17.6794657">
        <ele>23.6896</ele>
        <time>2013-03-10T12:10:35Z</time>
      </trkpt>
      <trkpt lat="59.8769705" lon="17.67949">
        <ele>24.1703</ele>
        <time>2013-03-10T12:10:36Z</time>
      </trkpt>
      <trkpt lat="59.8769809" lon="17.6795097">
        <ele>24.651</ele>
        <time>2013-03-10T12:10:37Z</time>
      </trkpt>
      <trkpt lat="59.8769908" lon="17.6795319">
        <ele>25.1317</ele>
        <time>2013-03-10T12:10:38Z</time>
      </trkpt>
      <trkpt lat="59.877" lon="17.679552">
        <ele>24.651</ele>
        <time>2013-03-10T12:10:39Z</time>
      </trkpt>
      <trkpt lat="59.877014" lon="17.6795698">
        <ele>25.6123</ele>
        <time>2013-03-10T12:10:40Z</time>
      </trkpt>
      <trkpt lat="59.8770254" lon="17.6795874">
        <ele>25.6123</ele>
        <time>2013-03-10T12:10:41Z</time>
      </trkpt>
      <trkpt lat="59.8770368" lon="17.679607">
        <ele>26.0929</ele>
        <time>2013-03-10T12:10:42Z</time>
      </trkpt>
      <trkpt lat="59.8770485" lon="17.6796256">
        <ele>26.5736</ele>
        <time>2013-03-10T12:10:43Z</time>
      </trkpt>
      <trkpt lat="59.8770585" lon="17.6796442">
        <ele>26.5736</ele>
        <time>2013-03-10T12:10:44Z</time>
      </trkpt>
      <trkpt lat="59.877071" lon="17.6796657">
        <ele>27.0543</ele>
        <time>2013-03-10T12:10:45Z</time>
      </trkpt>
      <trkpt lat="59.8770829" lon="17.6796879">
        <ele>27.0543</ele>
        <time>2013-03-10T12:10:46Z</time>
      </trkpt>
      <trkpt lat="59.8770939" lon="17.6797075">
        <ele>27.0543</ele>
        <time>2013-03-10T12:10:47Z</time>
      </trkpt>
      <trkpt lat="59.8771034" lon="17.6797224">
        <ele>26.5736</ele>
        <time>2013-03-10T12:10:48Z</time>
      </trkpt>
      <trkpt lat="59.8771139" lon="17.6797381">
        <ele>27.0543</ele>
        <time>2013-03-10T12:10:49Z</time>
      </trkpt>
      <trkpt lat="59.8771259" lon="17.6797574">
        <ele>27.5349</ele>
        <time>2013-03-10T12:10:50Z</time>
      </trkpt>
      <trkpt lat="59.8771487" lon="17.6797964">
        <ele>28.0155</ele>
        <time>2013-03-10T12:10:51Z</time>
      </trkpt>
      <trkpt lat="59.8771585" lon="17.6798153">
        <ele>28.0155</ele>
        <time>2013-03-10T12:10:52Z</time>
      </trkpt>
      <trkpt lat="59.8771688" lon="17.6798366">
        <ele>28.0155</ele>
        <time>2013-03-10T12:10:53Z</time>
      </trkpt>
      <trkpt lat="59.8771776" lon="17.6798566">
        <ele>28.0155</ele>
        <time>2013-03-10T12:10:54Z</time>
      </trkpt>
      <trkpt lat="59.8771856" lon="17.6798817">
        <ele>28.4962</ele>
        <time>2013-03-10T12:10:55Z</time>
      </trkpt>
      <trkpt lat="59.877189" lon="17.6799011">
        <ele>28.0155</ele>
        <time>2013-03-10T12:10:56Z</time>
      </trkpt>
      <trkpt lat="59.8771943" lon="17.679922">
        <ele>27.0543</ele>
        <time>2013-03-10T12:10:57Z</time>
      </trkpt>
      <trkpt lat="59.8772029" lon="17.6799469">
        <ele>27.5349</ele>
        <time>2013-03-10T12:10:58Z</time>
      </trkpt>
      <trkpt lat="59.877212" lon="17.6799717">
        <ele>28.0155</ele>
        <time>2013-03-10T12:10:59Z</time>
      </trkpt>
      <trkpt lat="59.8772207" lon="17.6799944">
        <ele>28.4962</ele>
        <time>2013-03-10T12:11:00Z</time>
      </trkpt>
      <trkpt lat="59.8772301" lon="17.6800163">
        <ele>28.9769</ele>
        <time>2013-03-10T12:11:01Z</time>
      </trkpt>
      <trkpt lat="59.8772373" lon="17.6800428">
        <ele>28.9769</ele>
        <time>2013-03-10T12:11:02Z</time>
      </trkpt>
      <trkpt lat="59.8772443" lon="17.6800707">
        <ele>29.4575</ele>
        <time>2013-03-10T12:11:03Z</time>
      </trkpt>
      <trkpt lat="59.8772502" lon="17.6800986">
        <ele>29.4575</ele>
        <time>2013-03-10T12:11:04Z</time>
      </trkpt>
      <trkpt lat="59.8772542" lon="17.680124">
        <ele>29.9381</ele>
        <time>2013-03-10T12:11:05Z</time>
      </trkpt>
      <trkpt lat="59.877257" lon="17.6801489">
        <ele>29.9381</ele>
        <time>2013-03-10T12:11:06Z</time>
      </trkpt>
      <trkpt lat="59.8772593" lon="17.6801769">
        <ele>30.4188</ele>
        <time>2013-03-10T12:11:07Z</time>
      </trkpt>
      <trkpt lat="59.8772593" lon="17.6802089">
        <ele>29.9381</ele>
        <time>2013-03-10T12:11:08Z</time>
      </trkpt>
      <trkpt lat="59.8772594" lon="17.6802391">
        <ele>30.4188</ele>
        <time>2013-03-10T12:11:09Z</time>
      </trkpt>
      <trkpt lat="59.8772591" lon="17.6802689">
        <ele>30.4188</ele>
        <time>2013-03-10T12:11:10Z</time>
      </trkpt>
      <trkpt lat="59.8772588" lon="17.6803012">
        <ele>30.8995</ele>
        <time>2013-03-10T12:11:11Z</time>
      </trkpt>
      <trkpt lat="59.877256" lon="17.6803312">
        <ele>30.8995</ele>
        <time>2013-03-10T12:11:12Z</time>
      </trkpt>
      <trkpt lat="59.8772544" lon="17.6803619">
        <ele>31.3801</ele>
        <time>2013-03-10T12:11:13Z</time>
      </trkpt>
      <trkpt lat="59.8772492" lon="17.6803898">
        <ele>31.3801</ele>
        <time>2013-03-10T12:11:14Z</time>
      </trkpt>
      <trkpt lat="59.8772466" lon="17.6804141">
        <ele>31.3801</ele>
        <time>2013-03-10T12:11:15Z</time>
      </trkpt>
      <trkpt lat="59.8772445" lon="17.6804383">
        <ele>30.8995</ele>
        <time>2013-03-10T12:11:16Z</time>
      </trkpt>
      <trkpt lat="59.8772422" lon="17.6804616">
        <ele>30.8995</ele>
        <time>2013-03-10T12:11:17Z</time>
      </trkpt>
      <trkpt lat="59.8772401" lon="17.6804814">
        <ele>30.8995</ele>
        <time>2013-03-10T12:11:18Z</time>
      </trkpt>
      <trkpt lat="59.877237" lon="17.680497">
        <ele>30.4188</ele>
        <time>2013-03-10T12:11:19Z</time>
      </trkpt>
      <trkpt lat="59.877233" lon="17.6805177">
        <ele>30.4188</ele>
        <time>2013-03-10T12:11:20Z</time>
      </trkpt>
      <trkpt lat="59.877228" lon="17.6805375">
        <ele>29.9381</ele>
        <time>2013-03-10T12:11:21Z</time>
      </trkpt>
      <trkpt lat="59.8772208" lon="17.6805576">
        <ele>29.9381</ele>
        <time>2013-03-10T12:11:22Z</time>
      </trkpt>
      <trkpt lat="59.877216" lon="17.6805804">
        <ele>29.9381</ele>
        <time>2013-03-10T12:11:23Z</time>
      </trkpt>
      <trkpt lat="59.8772108" lon="17.6806028">
        <ele>29.9381</ele>
        <time>2013-03-10T12:11:24Z</time>
      </trkpt>
      <trkpt lat="59.8772006" lon="17.6806218">
        <ele>29.4575</ele>
        <time>2013-03-10T12:11:25Z</time>
      </trkpt>
      <trkpt lat="59.8771906" lon="17.680641">
        <ele>29.4575</ele>
        <time>2013-03-10T12:11:26Z</time>
      </trkpt>
      <trkpt lat="59.8771821" lon="17.6806591">
        <ele>29.4575</ele>
        <time>2013-03-10T12:11:27Z</time>
      </trkpt>
      <trkpt lat="59.8771715" lon="17.6806809">
        <ele>29.4575</ele>
        <time>2013-03-10T12:11:28Z</time>
      </trkpt>
      <trkpt lat="59.8771624" lon="17.6807011">
        <ele>29.4575</ele>
        <time>2013-03-10T12:11:29Z</time>
      </trkpt>
      <trkpt lat="59.8771523" lon="17.6807162">
        <ele>29.4575</ele>
        <time>2013-03-10T12:11:30Z</time>
      </trkpt>
      <trkpt lat="59.8771408" lon="17.6807306">
        <ele>28.9769</ele>
        <time>2013-03-10T12:11:31Z</time>
      </trkpt>
      <trkpt lat="59.8771321" lon="17.6807539">
        <ele>28.9769</ele>
        <time>2013-03-10T12:11:32Z</time>
      </trkpt>
      <trkpt lat="59.8771232" lon="17.6807763">
        <ele>28.9769</ele>
        <time>2013-03-10T12:11:33Z</time>
      </trkpt>
      <trkpt lat="59.8771139" lon="17.6807959">
        <ele>28.9769</ele>
        <time>2013-03-10T12:11:34Z</time>
      </trkpt>
      <trkpt lat="59.8771041" lon="17.6808146">
        <ele>28.4962</ele>
        <time>2013-03-10T12:11:35Z</time>
      </trkpt>
      <trkpt lat="59.8770947" lon="17.6808345">
        <ele>28.4962</ele>
        <time>2013-03-10T12:11:36Z</time>
      </trkpt>
      <trkpt lat="59.8770855" lon="17.6808554">
        <ele>28.4962</ele>
        <time>2013-03-10T12:11:37Z</time>
      </trkpt>
      <trkpt lat="59.8770765" lon="17.6808756">
        <ele>28.4962</ele>
        <time>2013-03-10T12:11:38Z</time>
      </trkpt>
      <trkpt lat="59.8770667" lon="17.6808963">
        <ele>28.4962</ele>
        <time>2013-03-10T12:11:39Z</time>
      </trkpt>
      <trkpt lat="59.8770568" lon="17.6809171">
        <ele>28.4962</ele>
        <time>2013-03-10T12:11:40Z</time>
      </trkpt>
      <trkpt lat="59.8770474" lon="17.6809367">
        <ele>28.0155</ele>
        <time>2013-03-10T12:11:41Z</time>
      </trkpt>
      <trkpt lat="59.8770376" lon="17.6809565">
        <ele>28.0155</ele>
        <time>2013-03-10T12:11:42Z</time>
      </trkpt>
      <trkpt lat="59.8770275" lon="17.6809757">
        <ele>28.0155</ele>
        <time>2013-03-10T12:11:43Z</time>
      </trkpt>
      <trkpt lat="59.8770179" lon="17.6809952">
        <ele>28.0155</ele>
        <time>2013-03-10T12:11:44Z</time>
      </trkpt>
      <trkpt lat="59.8770074" lon="17.6810163">
        <ele>28.0155</ele>
        <time>2013-03-10T12:11:45Z</time>
      </trkpt>
      <trkpt lat="59.8769973" lon="17.6810362">
        <ele>28.0155</ele>
        <time>2013-03-10T12:11:46Z</time>
      </trkpt>
      <trkpt lat="59.8769869" lon="17.6810553">
        <ele>28.0155</ele>
        <time>2013-03-10T12:11:47Z</time>
      </trkpt>
      <trkpt lat="59.8769767" lon="17.6810736">
        <ele>27.5349</ele>
        <time>2013-03-10T12:11:48Z</time>
      </trkpt>
      <trkpt lat="59.8769659" lon="17.6810932">
        <ele>28.0155</ele>
        <time>2013-03-10T12:11:49Z</time>
      </trkpt>
      <trkpt lat="59.8769545" lon="17.6811112">
        <ele>28.0155</ele>
        <time>2013-03-10T12:11:50Z</time>
      </trkpt>
      <trkpt lat="59.8769441" lon="17.6811262">
        <ele>28.0155</ele>
        <time>2013-03-10T12:11:51Z</time>
      </trkpt>
      <trkpt lat="59.8769342" lon="17.6811419">
        <ele>28.0155</ele>
        <time>2013-03-10T12:11:52Z</time>
      </trkpt>
      <trkpt lat="59.8769242" lon="17.6811579">
        <ele>28.0155</ele>
        <time>2013-03-10T12:11:53Z</time>
      </trkpt>
      <trkpt lat="59.8769141" lon="17.681172">
        <ele>28.0155</ele>
        <time>2013-03-10T12:11:54Z</time>
      </trkpt>
      <trkpt lat="59.8769047" lon="17.6811866">
        <ele>28.0155</ele>
        <time>2013-03-10T12:11:55Z</time>
      </trkpt>
      <trkpt lat="59.8768955" lon="17.681202">
        <ele>28.0155</ele>
        <time>2013-03-10T12:11:56Z</time>
      </trkpt>
      <trkpt lat="59.8768866" lon="17.6812181">
        <ele>28.0155</ele>
        <time>2013-03-10T12:11:57Z</time>
      </trkpt>
      <trkpt lat="59.8768781" lon="17.6812341">
        <ele>28.0155</ele>
        <time>2013-03-10T12:11:58Z</time>
      </trkpt>
      <trkpt lat="59.8768698" lon="17.6812497">
        <ele>28.0155</ele>
        <time>2013-03-10T12:11:59Z</time>
      </trkpt>
      <trkpt lat="59.8768621" lon="17.6812657">
        <ele>28.0155</ele>
        <time>2013-03-10T12:12:00Z</time>
      </trkpt>
      <trkpt lat="59.8768537" lon="17.6812857">
        <ele>28.0155</ele>
        <time>2013-03-10T12:12:01Z</time>
      </trkpt>
      <trkpt lat="59.8768439" lon="17.6813033">
        <ele>28.4962</ele>
        <time>2013-03-10T12:12:02Z</time>
      </trkpt>
      <trkpt lat="59.8768348" lon="17.6813179">
        <ele>28.4962</ele>
        <time>2013-03-10T12:12:03Z</time>
      </trkpt>
      <trkpt lat="59.8768265" lon="17.6813346">
        <ele>28.4962</ele>
        <time>2013-03-10T12:12:04Z</time>
      </trkpt>
      <trkpt lat="59.8768177" lon="17.6813512">
        <ele>28.4962</ele>
        <time>2013-03-10T12:12:05Z</time>
      </trkpt>
      <trkpt lat="59.8768083" lon="17.6813656">
        <ele>28.4962</ele>
        <time>2013-03-10T12:12:06Z</time>
      </trkpt>
      <trkpt lat="59.876799" lon="17.681379">
        <ele>28.4962</ele>
        <time>2013-03-10T12:12:07Z</time>
      </trkpt>
      <trkpt lat="59.87679" lon="17.6813941">
        <ele>28.4962</ele>
        <time>2013-03-10T12:12:08Z</time>
      </trkpt>
      <trkpt lat="59.8767817" lon="17.6814108">
        <ele>28.4962</ele>
        <time>2013-03-10T12:12:09Z</time>
      </trkpt>
      <trkpt lat="59.8767752" lon="17.6814292">
        <ele>28.0155</ele>
        <time>2013-03-10T12:12:10Z</time>
      </trkpt>
      <trkpt lat="59.8767682" lon="17.6814475">
        <ele>28.0155</ele>
        <time>2013-03-10T12:12:11Z</time>
      </trkpt>
      <trkpt lat="59.8767596" lon="17.6814655">
        <ele>28.0155</ele>
        <time>2013-03-10T12:12:12Z</time>
      </trkpt>
      <trkpt lat="59.8767503" lon="17.6814839">
        <ele>28.0155</ele>
        <time>2013-03-10T12:12:13Z</time>
      </trkpt>
      <trkpt lat="59.8767408" lon="17.6814988">
        <ele>28.0155</ele>
        <time>2013-03-10T12:12:14Z</time>
      </trkpt>
      <trkpt lat="59.8767332" lon="17.6815124">
        <ele>28.0155</ele>
        <time>2013-03-10T12:12:15Z</time>
      </trkpt>
      <trkpt lat="59.8767278" lon="17.6815276">
        <ele>27.5349</ele>
        <time>2013-03-10T12:12:16Z</time>
      </trkpt>
      <trkpt lat="59.8767218" lon="17.6815438">
        <ele>27.5349</ele>
        <time>2013-03-10T12:12:17Z</time>
      </trkpt>
      <trkpt lat="59.8767162" lon="17.6815573">
        <ele>27.5349</ele>
        <time>2013-03-10T12:12:18Z</time>
      </trkpt>
      <trkpt lat="59.8767115" lon="17.681572">
        <ele>27.0543</ele>
        <time>2013-03-10T12:12:19Z</time>
      </trkpt>
      <trkpt lat="59.8767052" lon="17.6815882">
        <ele>27.0543</ele>
        <time>2013-03-10T12:12:20Z</time>
      </trkpt>
      <trkpt lat="59.876699" lon="17.6816048">
        <ele>26.5736</ele>
        <time>2013-03-10T12:12:21Z</time>
      </trkpt>
      <trkpt lat="59.8766928" lon="17.6816219">
        <ele>26.5736</ele>
        <time>2013-03-10T12:12:22Z</time>
      </trkpt>
      <trkpt lat="59.8766844" lon="17.6816355">
        <ele>26.5736</ele>
        <time>2013-03-10T12:12:23Z</time>
      </trkpt>
      <trkpt lat="59.8766743" lon="17.6816494">
        <ele>26.5736</ele>
        <time>2013-03-10T12:12:24Z</time>
      </trkpt>
      <trkpt lat="59.8766663" lon="17.6816657">
        <ele>26.0929</ele>
        <time>2013-03-10T12:12:25Z</time>
      </trkpt>
      <trkpt lat="59.8766574" lon="17.6816906">
        <ele>26.5736</ele>
        <time>2013-03-10T12:12:26Z</time>
      </trkpt>
      <trkpt lat="59.8766481" lon="17.6817095">
        <ele>26.5736</ele>
        <time>2013-03-10T12:12:27Z</time>
      </trkpt>
      <trkpt lat="59.8766404" lon="17.6817324">
        <ele>26.5736</ele>
        <time>2013-03-10T12:12:28Z</time>
      </trkpt>
      <trkpt lat="59.87663" lon="17.6817516">
        <ele>26.5736</ele>
        <time>2013-03-10T12:12:29Z</time>
      </trkpt>
      <trkpt lat="59.8766172" lon="17.6817708">
        <ele>26.0929</ele>
        <time>2013-03-10T12:12:30Z</time>
      </trkpt>
      <trkpt lat="59.8766064" lon="17.6817875">
        <ele>26.0929</ele>
        <time>2013-03-10T12:12:31Z</time>
      </trkpt>
      <trkpt lat="59.876597" lon="17.6818037">
        <ele>25.6123</ele>
        <time>2013-03-10T12:12:32Z</time>
      </trkpt>
      <trkpt lat="59.8765883" lon="17.6818224">
        <ele>25.1317</ele>
        <time>2013-03-10T12:12:33Z</time>
      </trkpt>
      <trkpt lat="59.8765789" lon="17.6818433">
        <ele>25.1317</ele>
        <time>2013-03-10T12:12:34Z</time>
      </trkpt>
      <trkpt lat="59.876569" lon="17.6818646">
        <ele>25.6123</ele>
        <time>2013-03-10T12:12:35Z</time>
      </trkpt>
      <trkpt lat="59.8765585" lon="17.681892">
        <ele>25.6123</ele>
        <time>2013-03-10T12:12:36Z</time>
      </trkpt>
      <trkpt lat="59.8765489" lon="17.6819156">
        <ele>25.6123</ele>
        <time>2013-03-10T12:12:37Z</time>
      </trkpt>
      <trkpt lat="59.8765401" lon="17.681938">
        <ele>25.6123</ele>
        <time>2013-03-10T12:12:38Z</time>
      </trkpt>
      <trkpt lat="59.8765307" lon="17.681961">
        <ele>25.1317</ele>
        <time>2013-03-10T12:12:39Z</time>
      </trkpt>
      <trkpt lat="59.8765201" lon="17.681983">
        <ele>25.6123</ele>
        <time>2013-03-10T12:12:40Z</time>
      </trkpt>
      <trkpt lat="59.8765092" lon="17.6820033">
        <ele>25.6123</ele>
        <time>2013-03-10T12:12:41Z</time>
      </trkpt>
      <trkpt lat="59.876499" lon="17.682024">
        <ele>25.6123</ele>
        <time>2013-03-10T12:12:42Z</time>
      </trkpt>
      <trkpt lat="59.8764898" lon="17.6820469">
        <ele>25.6123</ele>
        <time>2013-03-10T12:12:43Z</time>
      </trkpt>
      <trkpt lat="59.8764807" lon="17.6820701">
        <ele>25.6123</ele>
        <time>2013-03-10T12:12:44Z</time>
      </trkpt>
      <trkpt lat="59.8764712" lon="17.6820922">
        <ele>25.6123</ele>
        <time>2013-03-10T12:12:45Z</time>
      </trkpt>
      <trkpt lat="59.8764612" lon="17.6821142">
        <ele>26.0929</ele>
        <time>2013-03-10T12:12:46Z</time>
      </trkpt>
      <trkpt lat="59.8764518" lon="17.6821366">
        <ele>26.0929</ele>
        <time>2013-03-10T12:12:47Z</time>
      </trkpt>
      <trkpt lat="59.8764422" lon="17.6821589">
        <ele>26.0929</ele>
        <time>2013-03-10T12:12:48Z</time>
      </trkpt>
      <trkpt lat="59.8764331" lon="17.6821808">
        <ele>26.5736</ele>
        <time>2013-03-10T12:12:49Z</time>
      </trkpt>
      <trkpt lat="59.8764259" lon="17.6822029">
        <ele>26.5736</ele>
        <time>2013-03-10T12:12:50Z</time>
      </trkpt>
      <trkpt lat="59.8764191" lon="17.6822267">
        <ele>27.0543</ele>
        <time>2013-03-10T12:12:51Z</time>
      </trkpt>
      <trkpt lat="59.8764098" lon="17.6822494">
        <ele>27.0543</ele>
        <time>2013-03-10T12:12:52Z</time>
      </trkpt>
      <trkpt lat="59.8763992" lon="17.6822702">
        <ele>27.0543</ele>
        <time>2013-03-10T12:12:53Z</time>
      </trkpt>
      <trkpt lat="59.8763896" lon="17.6822904">
        <ele>27.5349</ele>
        <time>2013-03-10T12:12:54Z</time>
      </trkpt>
      <trkpt lat="59.8763809" lon="17.6823121">
        <ele>27.5349</ele>
        <time>2013-03-10T12:12:55Z</time>
      </trkpt>
      <trkpt lat="59.8763711" lon="17.6823342">
        <ele>27.5349</ele>
        <time>2013-03-10T12:12:56Z</time>
      </trkpt>
      <trkpt lat="59.8763607" lon="17.6823566">
        <ele>27.5349</ele>
        <time>2013-03-10T12:12:57Z</time>
      </trkpt>
      <trkpt lat="59.8763515" lon="17.6823784">
        <ele>27.5349</ele>
        <time>2013-03-10T12:12:58Z</time>
      </trkpt>
      <trkpt lat="59.8763424" lon="17.6823986">
        <ele>27.5349</ele>
        <time>2013-03-10T12:12:59Z</time>
      </trkpt>
      <trkpt lat="59.8763313" lon="17.6824189">
        <ele>27.5349</ele>
        <time>2013-03-10T12:13:00Z</time>
      </trkpt>
      <trkpt lat="59.8763203" lon="17.6824385">
        <ele>28.0155</ele>
        <time>2013-03-10T12:13:01Z</time>
      </trkpt>
      <trkpt lat="59.8763101" lon="17.6824576">
        <ele>28.0155</ele>
        <time>2013-03-10T12:13:02Z</time>
      </trkpt>
      <trkpt lat="59.8763022" lon="17.6824767">
        <ele>28.0155</ele>
        <time>2013-03-10T12:13:03Z</time>
      </trkpt>
      <trkpt lat="59.8762951" lon="17.6824966">
        <ele>28.0155</ele>
        <time>2013-03-10T12:13:04Z</time>
      </trkpt>
      <trkpt lat="59.8762865" lon="17.6825172">
        <ele>28.0155</ele>
        <time>2013-03-10T12:13:05Z</time>
      </trkpt>
      <trkpt lat="59.876278" lon="17.6825393">
        <ele>28.4962</ele>
        <time>2013-03-10T12:13:06Z</time>
      </trkpt>
      <trkpt lat="59.8762695" lon="17.6825607">
        <ele>28.4962</ele>
        <time>2013-03-10T12:13:07Z</time>
      </trkpt>
      <trkpt lat="59.8762603" lon="17.6825814">
        <ele>28.4962</ele>
        <time>2013-03-10T12:13:08Z</time>
      </trkpt>
      <trkpt lat="59.8762516" lon="17.6826">
        <ele>28.4962</ele>
        <time>2013-03-10T12:13:09Z</time>
      </trkpt>
      <trkpt lat="59.8762419" lon="17.6826194">
        <ele>28.4962</ele>
        <time>2013-03-10T12:13:10Z</time>
      </trkpt>
      <trkpt lat="59.8762331" lon="17.682641">
        <ele>28.4962</ele>
        <time>2013-03-10T12:13:11Z</time>
      </trkpt>
      <trkpt lat="59.8762236" lon="17.6826615">
        <ele>28.4962</ele>
        <time>2013-03-10T12:13:12Z</time>
      </trkpt>
      <trkpt lat="59.8762142" lon="17.6826818">
        <ele>28.4962</ele>
        <time>2013-03-10T12:13:13Z</time>
      </trkpt>
      <trkpt lat="59.8762043" lon="17.6827002">
        <ele>28.0155</ele>
        <time>2013-03-10T12:13:14Z</time>
      </trkpt>
      <trkpt lat="59.8761944" lon="17.6827182">
        <ele>28.0155</ele>
        <time>2013-03-10T12:13:15Z</time>
      </trkpt>
      <trkpt lat="59.8761853" lon="17.6827373">
        <ele>28.0155</ele>
        <time>2013-03-10T12:13:16Z</time>
      </trkpt>
      <trkpt lat="59.8761758" lon="17.6827572">
        <ele>28.0155</ele>
        <time>2013-03-10T12:13:17Z</time>
      </trkpt>
      <trkpt lat="59.876166" lon="17.6827769">
        <ele>28.0155</ele>
        <time>2013-03-10T12:13:18Z</time>
      </trkpt>
      <trkpt lat="59.876157" lon="17.6827958">
        <ele>28.0155</ele>
        <time>2013-03-10T12:13:19Z</time>
      </trkpt>
      <trkpt lat="59.8761483" lon="17.6828151">
        <ele>28.0155</ele>
        <time>2013-03-10T12:13:20Z</time>
      </trkpt>
      <trkpt lat="59.8761396" lon="17.6828358">
        <ele>28.0155</ele>
        <time>2013-03-10T12:13:21Z</time>
      </trkpt>
      <trkpt lat="59.8761317" lon="17.6828561">
        <ele>28.0155</ele>
        <time>2013-03-10T12:13:22Z</time>
      </trkpt>
      <trkpt lat="59.8761235" lon="17.6828757">
        <ele>28.0155</ele>
        <time>2013-03-10T12:13:23Z</time>
      </trkpt>
      <trkpt lat="59.8761146" lon="17.6828953">
        <ele>28.0155</ele>
        <time>2013-03-10T12:13:24Z</time>
      </trkpt>
      <trkpt lat="59.8761057" lon="17.6829152">
        <ele>28.0155</ele>
        <time>2013-03-10T12:13:25Z</time>
      </trkpt>
      <trkpt lat="59.8760969" lon="17.6829353">
        <ele>28.0155</ele>
        <time>2013-03-10T12:13:26Z</time>
      </trkpt>
      <trkpt lat="59.8760872" lon="17.6829554">
        <ele>28.0155</ele>
        <time>2013-03-10T12:13:27Z</time>
      </trkpt>
      <trkpt lat="59.876078" lon="17.6829761">
        <ele>28.0155</ele>
        <time>2013-03-10T12:13:28Z</time>
      </trkpt>
      <trkpt lat="59.8760695" lon="17.6829965">
        <ele>28.0155</ele>
        <time>2013-03-10T12:13:29Z</time>
      </trkpt>
      <trkpt lat="59.8760604" lon="17.6830169">
        <ele>28.0155</ele>
        <time>2013-03-10T12:13:30Z</time>
      </trkpt>
      <trkpt lat="59.8760511" lon="17.6830366">
        <ele>28.0155</ele>
        <time>2013-03-10T12:13:31Z</time>
      </trkpt>
      <trkpt lat="59.8760417" lon="17.6830557">
        <ele>28.0155</ele>
        <time>2013-03-10T12:13:32Z</time>
      </trkpt>
      <trkpt lat="59.8760329" lon="17.6830745">
        <ele>28.0155</ele>
        <time>2013-03-10T12:13:33Z</time>
      </trkpt>
      <trkpt lat="59.8760246" lon="17.6830932">
        <ele>28.0155</ele>
        <time>2013-03-10T12:13:34Z</time>
      </trkpt>
      <trkpt lat="59.8760166" lon="17.6831135">
        <ele>28.0155</ele>
        <time>2013-03-10T12:13:35Z</time>
      </trkpt>
      <trkpt lat="59.8760088" lon="17.6831342">
        <ele>28.0155</ele>
        <time>2013-03-10T12:13:36Z</time>
      </trkpt>
      <trkpt lat="59.8760009" lon="17.6831558">
        <ele>28.0155</ele>
        <time>2013-03-10T12:13:37Z</time>
      </trkpt>
      <trkpt lat="59.8759926" lon="17.683177">
        <ele>28.0155</ele>
        <time>2013-03-10T12:13:38Z</time>
      </trkpt>
      <trkpt lat="59.8759831" lon="17.6831979">
        <ele>28.4962</ele>
        <time>2013-03-10T12:13:39Z</time>
      </trkpt>
      <trkpt lat="59.8759743" lon="17.6832181">
        <ele>28.4962</ele>
        <time>2013-03-10T12:13:40Z</time>
      </trkpt>
      <trkpt lat="59.875966" lon="17.6832391">
        <ele>28.4962</ele>
        <time>2013-03-10T12:13:41Z</time>
      </trkpt>
      <trkpt lat="59.8759572" lon="17.683259">
        <ele>28.0155</ele>
        <time>2013-03-10T12:13:42Z</time>
      </trkpt>
      <trkpt lat="59.8759482" lon="17.6832801">
        <ele>28.0155</ele>
        <time>2013-03-10T12:13:43Z</time>
      </trkpt>
      <trkpt lat="59.875939" lon="17.6833018">
        <ele>28.0155</ele>
        <time>2013-03-10T12:13:44Z</time>
      </trkpt>
      <trkpt lat="59.8759303" lon="17.6833232">
        <ele>28.0155</ele>
        <time>2013-03-10T12:13:45Z</time>
      </trkpt>
      <trkpt lat="59.8759211" lon="17.6833444">
        <ele>28.0155</ele>
        <time>2013-03-10T12:13:46Z</time>
      </trkpt>
      <trkpt lat="59.8759115" lon="17.6833652">
        <ele>28.0155</ele>
        <time>2013-03-10T12:13:47Z</time>
      </trkpt>
      <trkpt lat="59.8759016" lon="17.6833864">
        <ele>28.0155</ele>
        <time>2013-03-10T12:13:48Z</time>
      </trkpt>
      <trkpt lat="59.875892" lon="17.683407">
        <ele>28.0155</ele>
        <time>2013-03-10T12:13:49Z</time>
      </trkpt>
      <trkpt lat="59.8758819" lon="17.6834275">
        <ele>27.5349</ele>
        <time>2013-03-10T12:13:50Z</time>
      </trkpt>
      <trkpt lat="59.8758724" lon="17.6834486">
        <ele>27.5349</ele>
        <time>2013-03-10T12:13:51Z</time>
      </trkpt>
      <trkpt lat="59.8758648" lon="17.6834699">
        <ele>28.0155</ele>
        <time>2013-03-10T12:13:52Z</time>
      </trkpt>
      <trkpt lat="59.8758571" lon="17.6834912">
        <ele>28.0155</ele>
        <time>2013-03-10T12:13:53Z</time>
      </trkpt>
      <trkpt lat="59.8758495" lon="17.6835144">
        <ele>28.0155</ele>
        <time>2013-03-10T12:13:54Z</time>
      </trkpt>
      <trkpt lat="59.8758418" lon="17.6835366">
        <ele>28.0155</ele>
        <time>2013-03-10T12:13:55Z</time>
      </trkpt>
      <trkpt lat="59.8758324" lon="17.6835572">
        <ele>28.0155</ele>
        <time>2013-03-10T12:13:56Z</time>
      </trkpt>
      <trkpt lat="59.8758231" lon="17.6835777">
        <ele>28.0155</ele>
        <time>2013-03-10T12:13:57Z</time>
      </trkpt>
      <trkpt lat="59.8758142" lon="17.6835987">
        <ele>28.0155</ele>
        <time>2013-03-10T12:13:58Z</time>
      </trkpt>
      <trkpt lat="59.8758047" lon="17.6836188">
        <ele>28.0155</ele>
        <time>2013-03-10T12:13:59Z</time>
      </trkpt>
      <trkpt lat="59.875795" lon="17.6836372">
        <ele>27.5349</ele>
        <time>2013-03-10T12:14:00Z</time>
      </trkpt>
      <trkpt lat="59.8757879" lon="17.6836578">
        <ele>28.0155</ele>
        <time>2013-03-10T12:14:01Z</time>
      </trkpt>
      <trkpt lat="59.8757809" lon="17.6836799">
        <ele>28.0155</ele>
        <time>2013-03-10T12:14:02Z</time>
      </trkpt>
      <trkpt lat="59.8757723" lon="17.6837005">
        <ele>28.0155</ele>
        <time>2013-03-10T12:14:03Z</time>
      </trkpt>
      <trkpt lat="59.8757638" lon="17.683722">
        <ele>28.0155</ele>
        <time>2013-03-10T12:14:04Z</time>
      </trkpt>
      <trkpt lat="59.8757567" lon="17.6837448">
        <ele>28.0155</ele>
        <time>2013-03-10T12:14:05Z</time>
      </trkpt>
      <trkpt lat="59.8757484" lon="17.6837655">
        <ele>28.0155</ele>
        <time>2013-03-10T12:14:06Z</time>
      </trkpt>
      <trkpt lat="59.8757387" lon="17.6837857">
        <ele>28.0155</ele>
        <time>2013-03-10T12:14:07Z</time>
      </trkpt>
      <trkpt lat="59.8757303" lon="17.683805">
        <ele>28.0155</ele>
        <time>2013-03-10T12:14:08Z</time>
      </trkpt>
      <trkpt lat="59.8757214" lon="17.6838247">
        <ele>28.0155</ele>
        <time>2013-03-10T12:14:09Z</time>
      </trkpt>
      <trkpt lat="59.8757136" lon="17.6838443">
        <ele>28.0155</ele>
        <time>2013-03-10T12:14:10Z</time>
      </trkpt>
      <trkpt lat="59.8757056" lon="17.6838618">
        <ele>28.0155</ele>
        <time>2013-03-10T12:14:11Z</time>
      </trkpt>
      <trkpt lat="59.8756982" lon="17.6838801">
        <ele>28.0155</ele>
        <time>2013-03-10T12:14:12Z</time>
      </trkpt>
      <trkpt lat="59.8756889" lon="17.6838988">
        <ele>28.0155</ele>
        <time>2013-03-10T12:14:13Z</time>
      </trkpt>
      <trkpt lat="59.8756786" lon="17.6839169">
        <ele>28.4962</ele>
        <time>2013-03-10T12:14:14Z</time>
      </trkpt>
      <trkpt lat="59.8756692" lon="17.6839336">
        <ele>28.4962</ele>
        <time>2013-03-10T12:14:15Z</time>
      </trkpt>
      <trkpt lat="59.8756598" lon="17.6839519">
        <ele>28.4962</ele>
        <time>2013-03-10T12:14:16Z</time>
      </trkpt>
      <trkpt lat="59.8756501" lon="17.6839708">
        <ele>28.4962</ele>
        <time>2013-03-10T12:14:17Z</time>
      </trkpt>
      <trkpt lat="59.8756411" lon="17.6839923">
        <ele>28.4962</ele>
        <time>2013-03-10T12:14:18Z</time>
      </trkpt>
      <trkpt lat="59.8756305" lon="17.6840132">
        <ele>28.4962</ele>
        <time>2013-03-10T12:14:19Z</time>
      </trkpt>
      <trkpt lat="59.8756196" lon="17.6840332">
        <ele>28.4962</ele>
        <time>2013-03-10T12:14:20Z</time>
      </trkpt>
      <trkpt lat="59.8756097" lon="17.6840536">
        <ele>28.4962</ele>
        <time>2013-03-10T12:14:21Z</time>
      </trkpt>
      <trkpt lat="59.8755996" lon="17.6840737">
        <ele>28.4962</ele>
        <time>2013-03-10T12:14:22Z</time>
      </trkpt>
      <trkpt lat="59.8755898" lon="17.6840923">
        <ele>28.4962</ele>
        <time>2013-03-10T12:14:23Z</time>
      </trkpt>
      <trkpt lat="59.875579" lon="17.684108">
        <ele>28.4962</ele>
        <time>2013-03-10T12:14:24Z</time>
      </trkpt>
      <trkpt lat="59.8755677" lon="17.6841262">
        <ele>28.4962</ele>
        <time>2013-03-10T12:14:25Z</time>
      </trkpt>
      <trkpt lat="59.8755571" lon="17.6841456">
        <ele>28.4962</ele>
        <time>2013-03-10T12:14:26Z</time>
      </trkpt>
      <trkpt lat="59.8755465" lon="17.6841654">
        <ele>28.0155</ele>
        <time>2013-03-10T12:14:27Z</time>
      </trkpt>
      <trkpt lat="59.8755372" lon="17.6841869">
        <ele>28.0155</ele>
        <time>2013-03-10T12:14:28Z</time>
      </trkpt>
      <trkpt lat="59.8755283" lon="17.6842075">
        <ele>28.4962</ele>
        <time>2013-03-10T12:14:29Z</time>
      </trkpt>
      <trkpt lat="59.8755194" lon="17.6842266">
        <ele>28.0155</ele>
        <time>2013-03-10T12:14:30Z</time>
      </trkpt>
      <trkpt lat="59.8755107" lon="17.6842449">
        <ele>28.0155</ele>
        <time>2013-03-10T12:14:31Z</time>
      </trkpt>
      <trkpt lat="59.8755038" lon="17.6842658">
        <ele>28.0155</ele>
        <time>2013-03-10T12:14:32Z</time>
      </trkpt>
      <trkpt lat="59.8754972" lon="17.6842872">
        <ele>28.0155</ele>
        <time>2013-03-10T12:14:33Z</time>
      </trkpt>
      <trkpt lat="59.8754895" lon="17.6843058">
        <ele>28.0155</ele>
        <time>2013-03-10T12:14:34Z</time>
      </trkpt>
      <trkpt lat="59.8754803" lon="17.6843239">
        <ele>28.0155</ele>
        <time>2013-03-10T12:14:35Z</time>
      </trkpt>
      <trkpt lat="59.8754699" lon="17.6843421">
        <ele>28.0155</ele>
        <time>2013-03-10T12:14:36Z</time>
      </trkpt>
      <trkpt lat="59.8754598" lon="17.6843597">
        <ele>27.5349</ele>
        <time>2013-03-10T12:14:37Z</time>
      </trkpt>
      <trkpt lat="59.8754499" lon="17.684378">
        <ele>28.0155</ele>
        <time>2013-03-10T12:14:38Z</time>
      </trkpt>
      <trkpt lat="59.8754396" lon="17.6843958">
        <ele>27.5349</ele>
        <time>2013-03-10T12:14:39Z</time>
      </trkpt>
      <trkpt lat="59.8754297" lon="17.684414">
        <ele>27.5349</ele>
        <time>2013-03-10T12:14:40Z</time>
      </trkpt>
      <trkpt lat="59.8754219" lon="17.6844337">
        <ele>27.5349</ele>
        <time>2013-03-10T12:14:41Z</time>
      </trkpt>
      <trkpt lat="59.8754129" lon="17.6844551">
        <ele>27.5349</ele>
        <time>2013-03-10T12:14:42Z</time>
      </trkpt>
      <trkpt lat="59.875403" lon="17.6844766">
        <ele>27.5349</ele>
        <time>2013-03-10T12:14:43Z</time>
      </trkpt>
      <trkpt lat="59.8753936" lon="17.6844968">
        <ele>27.5349</ele>
        <time>2013-03-10T12:14:44Z</time>
      </trkpt>
      <trkpt lat="59.8753838" lon="17.6845165">
        <ele>27.5349</ele>
        <time>2013-03-10T12:14:45Z</time>
      </trkpt>
      <trkpt lat="59.8753736" lon="17.6845354">
        <ele>27.5349</ele>
        <time>2013-03-10T12:14:46Z</time>
      </trkpt>
      <trkpt lat="59.8753631" lon="17.6845524">
        <ele>27.5349</ele>
        <time>2013-03-10T12:14:47Z</time>
      </trkpt>
      <trkpt lat="59.8753532" lon="17.6845697">
        <ele>27.5349</ele>
        <time>2013-03-10T12:14:48Z</time>
      </trkpt>
      <trkpt lat="59.8753432" lon="17.6845877">
        <ele>27.5349</ele>
        <time>2013-03-10T12:14:49Z</time>
      </trkpt>
      <trkpt lat="59.8753326" lon="17.6846067">
        <ele>27.5349</ele>
        <time>2013-03-10T12:14:50Z</time>
      </trkpt>
      <trkpt lat="59.8753216" lon="17.6846265">
        <ele>28.0155</ele>
        <time>2013-03-10T12:14:51Z</time>
      </trkpt>
      <trkpt lat="59.8753114" lon="17.6846457">
        <ele>28.0155</ele>
        <time>2013-03-10T12:14:52Z</time>
      </trkpt>
      <trkpt lat="59.8753046" lon="17.6846642">
        <ele>28.0155</ele>
        <time>2013-03-10T12:14:53Z</time>
      </trkpt>
      <trkpt lat="59.8752978" lon="17.684683">
        <ele>28.0155</ele>
        <time>2013-03-10T12:14:54Z</time>
      </trkpt>
      <trkpt lat="59.8752888" lon="17.6847037">
        <ele>28.0155</ele>
        <time>2013-03-10T12:14:55Z</time>
      </trkpt>
      <trkpt lat="59.8752788" lon="17.6847239">
        <ele>28.0155</ele>
        <time>2013-03-10T12:14:56Z</time>
      </trkpt>
      <trkpt lat="59.8752687" lon="17.6847443">
        <ele>28.0155</ele>
        <time>2013-03-10T12:14:57Z</time>
      </trkpt>
      <trkpt lat="59.875259" lon="17.6847657">
        <ele>28.0155</ele>
        <time>2013-03-10T12:14:58Z</time>
      </trkpt>
      <trkpt lat="59.8752503" lon="17.684787">
        <ele>28.0155</ele>
        <time>2013-03-10T12:14:59Z</time>
      </trkpt>
      <trkpt lat="59.8752414" lon="17.6848068">
        <ele>28.0155</ele>
        <time>2013-03-10T12:15:00Z</time>
      </trkpt>
      <trkpt lat="59.8752308" lon="17.684831">
        <ele>28.0155</ele>
        <time>2013-03-10T12:15:01Z</time>
      </trkpt>
      <trkpt lat="59.8752202" lon="17.6848555">
        <ele>28.4962</ele>
        <time>2013-03-10T12:15:02Z</time>
      </trkpt>
      <trkpt lat="59.8752109" lon="17.6848756">
        <ele>28.4962</ele>
        <time>2013-03-10T12:15:03Z</time>
      </trkpt>
      <trkpt lat="59.875202" lon="17.6848932">
        <ele>28.0155</ele>
        <time>2013-03-10T12:15:04Z</time>
      </trkpt>
      <trkpt lat="59.8751932" lon="17.684912">
        <ele>28.0155</ele>
        <time>2013-03-10T12:15:05Z</time>
      </trkpt>
      <trkpt lat="59.8751838" lon="17.6849326">
        <ele>28.0155</ele>
        <time>2013-03-10T12:15:06Z</time>
      </trkpt>
      <trkpt lat="59.8751746" lon="17.6849518">
        <ele>28.0155</ele>
        <time>2013-03-10T12:15:07Z</time>
      </trkpt>
      <trkpt lat="59.8751646" lon="17.684971">
        <ele>28.0155</ele>
        <time>2013-03-10T12:15:08Z</time>
      </trkpt>
      <trkpt lat="59.8751543" lon="17.6849895">
        <ele>28.0155</ele>
        <time>2013-03-10T12:15:09Z</time>
      </trkpt>
      <trkpt lat="59.875145" lon="17.6850083">
        <ele>28.0155</ele>
        <time>2013-03-10T12:15:10Z</time>
      </trkpt>
      <trkpt lat="59.8751361" lon="17.6850281">
        <ele>28.0155</ele>
        <time>2013-03-10T12:15:11Z</time>
      </trkpt>
      <trkpt lat="59.875127" lon="17.685048">
        <ele>28.0155</ele>
        <time>2013-03-10T12:15:12Z</time>
      </trkpt>
      <trkpt lat="59.8751182" lon="17.685068">
        <ele>28.0155</ele>
        <time>2013-03-10T12:15:13Z</time>
      </trkpt>
      <trkpt lat="59.8751092" lon="17.6850881">
        <ele>27.5349</ele>
        <time>2013-03-10T12:15:14Z</time>
      </trkpt>
      <trkpt lat="59.8751" lon="17.6851071">
        <ele>27.5349</ele>
        <time>2013-03-10T12:15:15Z</time>
      </trkpt>
      <trkpt lat="59.8750906" lon="17.6851262">
        <ele>27.5349</ele>
        <time>2013-03-10T12:15:16Z</time>
      </trkpt>
      <trkpt lat="59.8750806" lon="17.6851466">
        <ele>27.5349</ele>
        <time>2013-03-10T12:15:17Z</time>
      </trkpt>
      <trkpt lat="59.875071" lon="17.6851667">
        <ele>27.5349</ele>
        <time>2013-03-10T12:15:18Z</time>
      </trkpt>
      <trkpt lat="59.8750616" lon="17.685186">
        <ele>27.5349</ele>
        <time>2013-03-10T12:15:19Z</time>
      </trkpt>
      <trkpt lat="59.8750519" lon="17.6852041">
        <ele>27.0543</ele>
        <time>2013-03-10T12:15:20Z</time>
      </trkpt>
      <trkpt lat="59.8750417" lon="17.6852244">
        <ele>27.5349</ele>
        <time>2013-03-10T12:15:21Z</time>
      </trkpt>
      <trkpt lat="59.8750319" lon="17.6852471">
        <ele>27.5349</ele>
        <time>2013-03-10T12:15:22Z</time>
      </trkpt>
      <trkpt lat="59.8750233" lon="17.6852678">
        <ele>27.5349</ele>
        <time>2013-03-10T12:15:23Z</time>
      </trkpt>
      <trkpt lat="59.8750146" lon="17.6852875">
        <ele>27.5349</ele>
        <time>2013-03-10T12:15:24Z</time>
      </trkpt>
      <trkpt lat="59.8750055" lon="17.6853079">
        <ele>27.5349</ele>
        <time>2013-03-10T12:15:25Z</time>
      </trkpt>
      <trkpt lat="59.8749966" lon="17.6853277">
        <ele>27.5349</ele>
        <time>2013-03-10T12:15:26Z</time>
      </trkpt>
      <trkpt lat="59.874988" lon="17.6853477">
        <ele>27.5349</ele>
        <time>2013-03-10T12:15:27Z</time>
      </trkpt>
      <trkpt lat="59.8749788" lon="17.6853687">
        <ele>27.5349</ele>
        <time>2013-03-10T12:15:28Z</time>
      </trkpt>
      <trkpt lat="59.8749698" lon="17.6853881">
        <ele>27.5349</ele>
        <time>2013-03-10T12:15:29Z</time>
      </trkpt>
      <trkpt lat="59.8749609" lon="17.6854081">
        <ele>27.5349</ele>
        <time>2013-03-10T12:15:30Z</time>
      </trkpt>
      <trkpt lat="59.8749518" lon="17.6854284">
        <ele>27.5349</ele>
        <time>2013-03-10T12:15:31Z</time>
      </trkpt>
      <trkpt lat="59.874943" lon="17.6854485">
        <ele>27.5349</ele>
        <time>2013-03-10T12:15:32Z</time>
      </trkpt>
      <trkpt lat="59.8749342" lon="17.6854688">
        <ele>27.5349</ele>
        <time>2013-03-10T12:15:33Z</time>
      </trkpt>
      <trkpt lat="59.8749249" lon="17.6854897">
        <ele>27.5349</ele>
        <time>2013-03-10T12:15:34Z</time>
      </trkpt>
      <trkpt lat="59.8749155" lon="17.6855108">
        <ele>27.5349</ele>
        <time>2013-03-10T12:15:35Z</time>
      </trkpt>
      <trkpt lat="59.8749057" lon="17.6855323">
        <ele>27.5349</ele>
        <time>2013-03-10T12:15:36Z</time>
      </trkpt>
      <trkpt lat="59.8748954" lon="17.6855521">
        <ele>27.5349</ele>
        <time>2013-03-10T12:15:37Z</time>
      </trkpt>
      <trkpt lat="59.8748854" lon="17.6855693">
        <ele>27.5349</ele>
        <time>2013-03-10T12:15:38Z</time>
      </trkpt>
      <trkpt lat="59.8748756" lon="17.6855873">
        <ele>27.5349</ele>
        <time>2013-03-10T12:15:39Z</time>
      </trkpt>
      <trkpt lat="59.8748663" lon="17.6856072">
        <ele>27.0543</ele>
        <time>2013-03-10T12:15:40Z</time>
      </trkpt>
      <trkpt lat="59.8748575" lon="17.6856272">
        <ele>27.0543</ele>
        <time>2013-03-10T12:15:41Z</time>
      </trkpt>
      <trkpt lat="59.8748483" lon="17.685646">
        <ele>27.0543</ele>
        <time>2013-03-10T12:15:42Z</time>
      </trkpt>
      <trkpt lat="59.8748386" lon="17.6856632">
        <ele>27.0543</ele>
        <time>2013-03-10T12:15:43Z</time>
      </trkpt>
      <trkpt lat="59.8748285" lon="17.6856803">
        <ele>27.0543</ele>
        <time>2013-03-10T12:15:44Z</time>
      </trkpt>
      <trkpt lat="59.8748192" lon="17.6856989">
        <ele>27.0543</ele>
        <time>2013-03-10T12:15:45Z</time>
      </trkpt>
      <trkpt lat="59.8748105" lon="17.6857188">
        <ele>27.0543</ele>
        <time>2013-03-10T12:15:46Z</time>
      </trkpt>
      <trkpt lat="59.8748021" lon="17.6857381">
        <ele>27.0543</ele>
        <time>2013-03-10T12:15:47Z</time>
      </trkpt>
      <trkpt lat="59.8747933" lon="17.6857569">
        <ele>27.0543</ele>
        <time>2013-03-10T12:15:48Z</time>
      </trkpt>
      <trkpt lat="59.8747845" lon="17.6857755">
        <ele>27.0543</ele>
        <time>2013-03-10T12:15:49Z</time>
      </trkpt>
      <trkpt lat="59.8747755" lon="17.6857952">
        <ele>26.5736</ele>
        <time>2013-03-10T12:15:50Z</time>
      </trkpt>
      <trkpt lat="59.8747663" lon="17.6858153">
        <ele>26.5736</ele>
        <time>2013-03-10T12:15:51Z</time>
      </trkpt>
      <trkpt lat="59.8747574" lon="17.6858356">
        <ele>26.5736</ele>
        <time>2013-03-10T12:15:52Z</time>
      </trkpt>
      <trkpt lat="59.8747487" lon="17.6858561">
        <ele>26.5736</ele>
        <time>2013-03-10T12:15:53Z</time>
      </trkpt>
      <trkpt lat="59.8747398" lon="17.685877">
        <ele>26.5736</ele>
        <time>2013-03-10T12:15:54Z</time>
      </trkpt>
      <trkpt lat="59.8747307" lon="17.6858973">
        <ele>26.5736</ele>
        <time>2013-03-10T12:15:55Z</time>
      </trkpt>
      <trkpt lat="59.8747218" lon="17.6859165">
        <ele>26.5736</ele>
        <time>2013-03-10T12:15:56Z</time>
      </trkpt>
      <trkpt lat="59.8747138" lon="17.685935">
        <ele>26.5736</ele>
        <time>2013-03-10T12:15:57Z</time>
      </trkpt>
      <trkpt lat="59.8747052" lon="17.6859548">
        <ele>26.0929</ele>
        <time>2013-03-10T12:15:58Z</time>
      </trkpt>
      <trkpt lat="59.8746967" lon="17.6859765">
        <ele>26.0929</ele>
        <time>2013-03-10T12:15:59Z</time>
      </trkpt>
      <trkpt lat="59.8746869" lon="17.6859958">
        <ele>26.0929</ele>
        <time>2013-03-10T12:16:00Z</time>
      </trkpt>
      <trkpt lat="59.8746758" lon="17.6860152">
        <ele>26.0929</ele>
        <time>2013-03-10T12:16:01Z</time>
      </trkpt>
      <trkpt lat="59.8746652" lon="17.686033">
        <ele>26.0929</ele>
        <time>2013-03-10T12:16:02Z</time>
      </trkpt>
      <trkpt lat="59.8746554" lon="17.6860502">
        <ele>26.0929</ele>
        <time>2013-03-10T12:16:03Z</time>
      </trkpt>
      <trkpt lat="59.8746459" lon="17.686068">
        <ele>26.0929</ele>
        <time>2013-03-10T12:16:04Z</time>
      </trkpt>
      <trkpt lat="59.8746364" lon="17.6860867">
        <ele>25.6123</ele>
        <time>2013-03-10T12:16:05Z</time>
      </trkpt>
      <trkpt lat="59.8746265" lon="17.6861061">
        <ele>25.6123</ele>
        <time>2013-03-10T12:16:06Z</time>
      </trkpt>
      <trkpt lat="59.8746167" lon="17.6861253">
        <ele>25.6123</ele>
        <time>2013-03-10T12:16:07Z</time>
      </trkpt>
      <trkpt lat="59.8746074" lon="17.6861447">
        <ele>25.6123</ele>
        <time>2013-03-10T12:16:08Z</time>
      </trkpt>
      <trkpt lat="59.8745978" lon="17.6861645">
        <ele>25.6123</ele>
        <time>2013-03-10T12:16:09Z</time>
      </trkpt>
      <trkpt lat="59.8745885" lon="17.6861846">
        <ele>25.6123</ele>
        <time>2013-03-10T12:16:10Z</time>
      </trkpt>
      <trkpt lat="59.8745792" lon="17.6862044">
        <ele>25.6123</ele>
        <time>2013-03-10T12:16:11Z</time>
      </trkpt>
      <trkpt lat="59.8745699" lon="17.6862232">
        <ele>25.6123</ele>
        <time>2013-03-10T12:16:12Z</time>
      </trkpt>
      <trkpt lat="59.8745607" lon="17.6862416">
        <ele>25.6123</ele>
        <time>2013-03-10T12:16:13Z</time>
      </trkpt>
      <trkpt lat="59.8745519" lon="17.6862603">
        <ele>25.6123</ele>
        <time>2013-03-10T12:16:14Z</time>
      </trkpt>
      <trkpt lat="59.8745431" lon="17.6862796">
        <ele>25.1317</ele>
        <time>2013-03-10T12:16:15Z</time>
      </trkpt>
      <trkpt lat="59.8745344" lon="17.6862993">
        <ele>25.1317</ele>
        <time>2013-03-10T12:16:16Z</time>
      </trkpt>
      <trkpt lat="59.8745251" lon="17.6863189">
        <ele>25.1317</ele>
        <time>2013-03-10T12:16:17Z</time>
      </trkpt>
      <trkpt lat="59.8745155" lon="17.6863381">
        <ele>25.1317</ele>
        <time>2013-03-10T12:16:18Z</time>
      </trkpt>
      <trkpt lat="59.8745058" lon="17.686357">
        <ele>25.1317</ele>
        <time>2013-03-10T12:16:19Z</time>
      </trkpt>
      <trkpt lat="59.8744963" lon="17.6863769">
        <ele>25.1317</ele>
        <time>2013-03-10T12:16:20Z</time>
      </trkpt>
      <trkpt lat="59.8744876" lon="17.686397">
        <ele>25.1317</ele>
        <time>2013-03-10T12:16:21Z</time>
      </trkpt>
      <trkpt lat="59.8744788" lon="17.6864164">
        <ele>24.651</ele>
        <time>2013-03-10T12:16:22Z</time>
      </trkpt>
      <trkpt lat="59.8744699" lon="17.6864361">
        <ele>24.651</ele>
        <time>2013-03-10T12:16:23Z</time>
      </trkpt>
      <trkpt lat="59.8744606" lon="17.6864562">
        <ele>25.1317</ele>
        <time>2013-03-10T12:16:24Z</time>
      </trkpt>
      <trkpt lat="59.8744513" lon="17.6864753">
        <ele>25.1317</ele>
        <time>2013-03-10T12:16:25Z</time>
      </trkpt>
      <trkpt lat="59.8744421" lon="17.6864929">
        <ele>25.1317</ele>
        <time>2013-03-10T12:16:26Z</time>
      </trkpt>
      <trkpt lat="59.8744316" lon="17.6865135">
        <ele>25.1317</ele>
        <time>2013-03-10T12:16:27Z</time>
      </trkpt>
      <trkpt lat="59.8744223" lon="17.6865329">
        <ele>25.1317</ele>
        <time>2013-03-10T12:16:28Z</time>
      </trkpt>
      <trkpt lat="59.8744136" lon="17.6865525">
        <ele>25.1317</ele>
        <time>2013-03-10T12:16:29Z</time>
      </trkpt>
      <trkpt lat="59.8744038" lon="17.6865732">
        <ele>25.1317</ele>
        <time>2013-03-10T12:16:30Z</time>
      </trkpt>
      <trkpt lat="59.8743942" lon="17.6865917">
        <ele>25.1317</ele>
        <time>2013-03-10T12:16:31Z</time>
      </trkpt>
      <trkpt lat="59.8743849" lon="17.6866085">
        <ele>25.1317</ele>
        <time>2013-03-10T12:16:32Z</time>
      </trkpt>
      <trkpt lat="59.8743752" lon="17.6866262">
        <ele>24.651</ele>
        <time>2013-03-10T12:16:33Z</time>
      </trkpt>
      <trkpt lat="59.8743659" lon="17.6866447">
        <ele>24.651</ele>
        <time>2013-03-10T12:16:34Z</time>
      </trkpt>
      <trkpt lat="59.874357" lon="17.6866639">
        <ele>24.651</ele>
        <time>2013-03-10T12:16:35Z</time>
      </trkpt>
      <trkpt lat="59.8743483" lon="17.6866829">
        <ele>24.651</ele>
        <time>2013-03-10T12:16:36Z</time>
      </trkpt>
      <trkpt lat="59.8743391" lon="17.6867016">
        <ele>24.651</ele>
        <time>2013-03-10T12:16:37Z</time>
      </trkpt>
      <trkpt lat="59.8743301" lon="17.6867209">
        <ele>24.651</ele>
        <time>2013-03-10T12:16:38Z</time>
      </trkpt>
      <trkpt lat="59.874321" lon="17.6867406">
        <ele>24.651</ele>
        <time>2013-03-10T12:16:39Z</time>
      </trkpt>
      <trkpt lat="59.8743126" lon="17.6867597">
        <ele>24.1703</ele>
        <time>2013-03-10T12:16:40Z</time>
      </trkpt>
      <trkpt lat="59.8743048" lon="17.6867797">
        <ele>24.1703</ele>
        <time>2013-03-10T12:16:41Z</time>
      </trkpt>
      <trkpt lat="59.8742965" lon="17.6868004">
        <ele>24.1703</ele>
        <time>2013-03-10T12:16:42Z</time>
      </trkpt>
      <trkpt lat="59.874288" lon="17.6868204">
        <ele>24.1703</ele>
        <time>2013-03-10T12:16:43Z</time>
      </trkpt>
      <trkpt lat="59.8742789" lon="17.6868398">
        <ele>24.1703</ele>
        <time>2013-03-10T12:16:44Z</time>
      </trkpt>
      <trkpt lat="59.8742701" lon="17.6868587">
        <ele>24.1703</ele>
        <time>2013-03-10T12:16:45Z</time>
      </trkpt>
      <trkpt lat="59.8742617" lon="17.6868782">
        <ele>24.1703</ele>
        <time>2013-03-10T12:16:46Z</time>
      </trkpt>
      <trkpt lat="59.8742528" lon="17.686898">
        <ele>24.1703</ele>
        <time>2013-03-10T12:16:47Z</time>
      </trkpt>
      <trkpt lat="59.8742436" lon="17.6869173">
        <ele>24.1703</ele>
        <time>2013-03-10T12:16:48Z</time>
      </trkpt>
      <trkpt lat="59.8742349" lon="17.6869374">
        <ele>24.1703</ele>
        <time>2013-03-10T12:16:49Z</time>
      </trkpt>
      <trkpt lat="59.8742267" lon="17.686956">
        <ele>24.1703</ele>
        <time>2013-03-10T12:16:50Z</time>
      </trkpt>
      <trkpt lat="59.8742187" lon="17.6869736">
        <ele>24.1703</ele>
        <time>2013-03-10T12:16:51Z</time>
      </trkpt>
      <trkpt lat="59.8742106" lon="17.6869917">
        <ele>24.1703</ele>
        <time>2013-03-10T12:16:52Z</time>
      </trkpt>
      <trkpt lat="59.874202" lon="17.6870115">
        <ele>24.1703</ele>
        <time>2013-03-10T12:16:53Z</time>
      </trkpt>
      <trkpt lat="59.8741935" lon="17.6870331">
        <ele>24.1703</ele>
        <time>2013-03-10T12:16:54Z</time>
      </trkpt>
      <trkpt lat="59.8741841" lon="17.6870534">
        <ele>24.1703</ele>
        <time>2013-03-10T12:16:55Z</time>
      </trkpt>
      <trkpt lat="59.8741743" lon="17.6870726">
        <ele>24.1703</ele>
        <time>2013-03-10T12:16:56Z</time>
      </trkpt>
      <trkpt lat="59.8741647" lon="17.6870918">
        <ele>24.1703</ele>
        <time>2013-03-10T12:16:57Z</time>
      </trkpt>
      <trkpt lat="59.8741547" lon="17.6871112">
        <ele>24.1703</ele>
        <time>2013-03-10T12:16:58Z</time>
      </trkpt>
      <trkpt lat="59.874145" lon="17.6871306">
        <ele>24.1703</ele>
        <time>2013-03-10T12:16:59Z</time>
      </trkpt>
      <trkpt lat="59.8741348" lon="17.6871493">
        <ele>24.651</ele>
        <time>2013-03-10T12:17:00Z</time>
      </trkpt>
      <trkpt lat="59.8741257" lon="17.6871687">
        <ele>24.651</ele>
        <time>2013-03-10T12:17:01Z</time>
      </trkpt>
      <trkpt lat="59.8741173" lon="17.6871902">
        <ele>25.1317</ele>
        <time>2013-03-10T12:17:02Z</time>
      </trkpt>
      <trkpt lat="59.8741084" lon="17.6872109">
        <ele>25.1317</ele>
        <time>2013-03-10T12:17:03Z</time>
      </trkpt>
      <trkpt lat="59.8740991" lon="17.6872299">
        <ele>25.1317</ele>
        <time>2013-03-10T12:17:04Z</time>
      </trkpt>
      <trkpt lat="59.8740922" lon="17.6872492">
        <ele>25.1317</ele>
        <time>2013-03-10T12:17:05Z</time>
      </trkpt>
      <trkpt lat="59.8740851" lon="17.6872704">
        <ele>25.1317</ele>
        <time>2013-03-10T12:17:06Z</time>
      </trkpt>
      <trkpt lat="59.8740759" lon="17.6872886">
        <ele>25.1317</ele>
        <time>2013-03-10T12:17:07Z</time>
      </trkpt>
      <trkpt lat="59.8740664" lon="17.6873046">
        <ele>25.1317</ele>
        <time>2013-03-10T12:17:08Z</time>
      </trkpt>
      <trkpt lat="59.8740568" lon="17.6873197">
        <ele>25.1317</ele>
        <time>2013-03-10T12:17:09Z</time>
      </trkpt>
      <trkpt lat="59.8740478" lon="17.6873357">
        <ele>25.1317</ele>
        <time>2013-03-10T12:17:10Z</time>
      </trkpt>
      <trkpt lat="59.8740386" lon="17.6873526">
        <ele>25.1317</ele>
        <time>2013-03-10T12:17:11Z</time>
      </trkpt>
      <trkpt lat="59.8740293" lon="17.6873694">
        <ele>25.1317</ele>
        <time>2013-03-10T12:17:12Z</time>
      </trkpt>
      <trkpt lat="59.8740197" lon="17.6873871">
        <ele>25.1317</ele>
        <time>2013-03-10T12:17:13Z</time>
      </trkpt>
      <trkpt lat="59.8740096" lon="17.6874048">
        <ele>25.1317</ele>
        <time>2013-03-10T12:17:14Z</time>
      </trkpt>
      <trkpt lat="59.874" lon="17.687422">
        <ele>25.1317</ele>
        <time>2013-03-10T12:17:15Z</time>
      </trkpt>
      <trkpt lat="59.8739914" lon="17.6874398">
        <ele>25.1317</ele>
        <time>2013-03-10T12:17:16Z</time>
      </trkpt>
      <trkpt lat="59.8739821" lon="17.6874584">
        <ele>25.1317</ele>
        <time>2013-03-10T12:17:17Z</time>
      </trkpt>
      <trkpt lat="59.8739732" lon="17.6874783">
        <ele>25.1317</ele>
        <time>2013-03-10T12:17:18Z</time>
      </trkpt>
      <trkpt lat="59.8739649" lon="17.6875004">
        <ele>25.1317</ele>
        <time>2013-03-10T12:17:19Z</time>
      </trkpt>
      <trkpt lat="59.8739572" lon="17.6875227">
        <ele>25.1317</ele>
        <time>2013-03-10T12:17:20Z</time>
      </trkpt>
      <trkpt lat="59.8739514" lon="17.6875444">
        <ele>25.1317</ele>
        <time>2013-03-10T12:17:21Z</time>
      </trkpt>
      <trkpt lat="59.8739488" lon="17.6875641">
        <ele>25.1317</ele>
        <time>2013-03-10T12:17:22Z</time>
      </trkpt>
      <trkpt lat="59.8739474" lon="17.6875889">
        <ele>25.1317</ele>
        <time>2013-03-10T12:17:23Z</time>
      </trkpt>
      <trkpt lat="59.8739464" lon="17.6876122">
        <ele>25.1317</ele>
        <time>2013-03-10T12:17:24Z</time>
      </trkpt>
      <trkpt lat="59.8739472" lon="17.6876321">
        <ele>25.1317</ele>
        <time>2013-03-10T12:17:25Z</time>
      </trkpt>
      <trkpt lat="59.8739494" lon="17.6876548">
        <ele>25.1317</ele>
        <time>2013-03-10T12:17:26Z</time>
      </trkpt>
      <trkpt lat="59.8739498" lon="17.6876806">
        <ele>25.1317</ele>
        <time>2013-03-10T12:17:27Z</time>
      </trkpt>
      <trkpt lat="59.873951" lon="17.6877049">
        <ele>25.6123</ele>
        <time>2013-03-10T12:17:28Z</time>
      </trkpt>
      <trkpt lat="59.873953" lon="17.6877294">
        <ele>25.6123</ele>
        <time>2013-03-10T12:17:29Z</time>
      </trkpt>
      <trkpt lat="59.8739562" lon="17.6877554">
        <ele>25.6123</ele>
        <time>2013-03-10T12:17:30Z</time>
      </trkpt>
      <trkpt lat="59.8739587" lon="17.6877785">
        <ele>25.6123</ele>
        <time>2013-03-10T12:17:31Z</time>
      </trkpt>
      <trkpt lat="59.8739615" lon="17.6878024">
        <ele>25.6123</ele>
        <time>2013-03-10T12:17:32Z</time>
      </trkpt>
      <trkpt lat="59.8739649" lon="17.6878266">
        <ele>25.6123</ele>
        <time>2013-03-10T12:17:33Z</time>
      </trkpt>
      <trkpt lat="59.8739696" lon="17.68785">
        <ele>26.0929</ele>
        <time>2013-03-10T12:17:34Z</time>
      </trkpt>
      <trkpt lat="59.8739741" lon="17.6878733">
        <ele>26.0929</ele>
        <time>2013-03-10T12:17:35Z</time>
      </trkpt>
      <trkpt lat="59.8739786" lon="17.6878963">
        <ele>26.0929</ele>
        <time>2013-03-10T12:17:36Z</time>
      </trkpt>
      <trkpt lat="59.8739831" lon="17.6879196">
        <ele>26.0929</ele>
        <time>2013-03-10T12:17:37Z</time>
      </trkpt>
      <trkpt lat="59.8739883" lon="17.6879433">
        <ele>26.0929</ele>
        <time>2013-03-10T12:17:38Z</time>
      </trkpt>
      <trkpt lat="59.8739939" lon="17.6879678">
        <ele>26.0929</ele>
        <time>2013-03-10T12:17:39Z</time>
      </trkpt>
      <trkpt lat="59.8740001" lon="17.6879891">
        <ele>26.5736</ele>
        <time>2013-03-10T12:17:40Z</time>
      </trkpt>
      <trkpt lat="59.8740062" lon="17.6880112">
        <ele>26.0929</ele>
        <time>2013-03-10T12:17:41Z</time>
      </trkpt>
      <trkpt lat="59.8740126" lon="17.6880349">
        <ele>26.0929</ele>
        <time>2013-03-10T12:17:42Z</time>
      </trkpt>
      <trkpt lat="59.8740188" lon="17.6880594">
        <ele>26.0929</ele>
        <time>2013-03-10T12:17:43Z</time>
      </trkpt>
      <trkpt lat="59.8740249" lon="17.6880842">
        <ele>26.5736</ele>
        <time>2013-03-10T12:17:44Z</time>
      </trkpt>
      <trkpt lat="59.8740293" lon="17.6881086">
        <ele>26.5736</ele>
        <time>2013-03-10T12:17:45Z</time>
      </trkpt>
      <trkpt lat="59.8740349" lon="17.6881325">
        <ele>26.5736</ele>
        <time>2013-03-10T12:17:46Z</time>
      </trkpt>
      <trkpt lat="59.8740412" lon="17.6881569">
        <ele>26.5736</ele>
        <time>2013-03-10T12:17:47Z</time>
      </trkpt>
      <trkpt lat="59.8740479" lon="17.6881802">
        <ele>26.5736</ele>
        <time>2013-03-10T12:17:48Z</time>
      </trkpt>
      <trkpt lat="59.8740549" lon="17.6882034">
        <ele>26.5736</ele>
        <time>2013-03-10T12:17:49Z</time>
      </trkpt>
      <trkpt lat="59.8740623" lon="17.6882257">
        <ele>26.5736</ele>
        <time>2013-03-10T12:17:50Z</time>
      </trkpt>
      <trkpt lat="59.874069" lon="17.688248">
        <ele>26.5736</ele>
        <time>2013-03-10T12:17:51Z</time>
      </trkpt>
      <trkpt lat="59.8740764" lon="17.6882707">
        <ele>26.5736</ele>
        <time>2013-03-10T12:17:52Z</time>
      </trkpt>
      <trkpt lat="59.8740831" lon="17.6882936">
        <ele>27.0543</ele>
        <time>2013-03-10T12:17:53Z</time>
      </trkpt>
      <trkpt lat="59.8740889" lon="17.6883156">
        <ele>27.0543</ele>
        <time>2013-03-10T12:17:54Z</time>
      </trkpt>
      <trkpt lat="59.8740953" lon="17.6883367">
        <ele>27.5349</ele>
        <time>2013-03-10T12:17:55Z</time>
      </trkpt>
      <trkpt lat="59.8741017" lon="17.6883599">
        <ele>28.0155</ele>
        <time>2013-03-10T12:17:56Z</time>
      </trkpt>
      <trkpt lat="59.874109" lon="17.6883838">
        <ele>28.0155</ele>
        <time>2013-03-10T12:17:57Z</time>
      </trkpt>
      <trkpt lat="59.8741156" lon="17.6884085">
        <ele>28.4962</ele>
        <time>2013-03-10T12:17:58Z</time>
      </trkpt>
      <trkpt lat="59.8741214" lon="17.6884312">
        <ele>28.4962</ele>
        <time>2013-03-10T12:17:59Z</time>
      </trkpt>
      <trkpt lat="59.8741281" lon="17.6884552">
        <ele>28.4962</ele>
        <time>2013-03-10T12:18:00Z</time>
      </trkpt>
      <trkpt lat="59.8741342" lon="17.6884791">
        <ele>28.4962</ele>
        <time>2013-03-10T12:18:01Z</time>
      </trkpt>
      <trkpt lat="59.8741411" lon="17.6885044">
        <ele>28.9769</ele>
        <time>2013-03-10T12:18:02Z</time>
      </trkpt>
      <trkpt lat="59.874149" lon="17.6885298">
        <ele>28.9769</ele>
        <time>2013-03-10T12:18:03Z</time>
      </trkpt>
      <trkpt lat="59.8741559" lon="17.6885545">
        <ele>28.9769</ele>
        <time>2013-03-10T12:18:04Z</time>
      </trkpt>
      <trkpt lat="59.8741626" lon="17.6885774">
        <ele>29.4575</ele>
        <time>2013-03-10T12:18:05Z</time>
      </trkpt>
      <trkpt lat="59.8741687" lon="17.6885997">
        <ele>28.9769</ele>
        <time>2013-03-10T12:18:06Z</time>
      </trkpt>
      <trkpt lat="59.8741758" lon="17.6886234">
        <ele>28.9769</ele>
        <time>2013-03-10T12:18:07Z</time>
      </trkpt>
      <trkpt lat="59.874183" lon="17.6886471">
        <ele>28.9769</ele>
        <time>2013-03-10T12:18:08Z</time>
      </trkpt>
      <trkpt lat="59.8741903" lon="17.6886716">
        <ele>28.9769</ele>
        <time>2013-03-10T12:18:09Z</time>
      </trkpt>
      <trkpt lat="59.8741972" lon="17.6886961">
        <ele>28.9769</ele>
        <time>2013-03-10T12:18:10Z</time>
      </trkpt>
      <trkpt lat="59.8742049" lon="17.688721">
        <ele>28.9769</ele>
        <time>2013-03-10T12:18:11Z</time>
      </trkpt>
      <trkpt lat="59.8742125" lon="17.6887457">
        <ele>28.9769</ele>
        <time>2013-03-10T12:18:12Z</time>
      </trkpt>
      <trkpt lat="59.8742191" lon="17.6887696">
        <ele>28.4962</ele>
        <time>2013-03-10T12:18:13Z</time>
      </trkpt>
      <trkpt lat="59.8742262" lon="17.6887946">
        <ele>28.9769</ele>
        <time>2013-03-10T12:18:14Z</time>
      </trkpt>
      <trkpt lat="59.8742324" lon="17.6888191">
        <ele>28.9769</ele>
        <time>2013-03-10T12:18:15Z</time>
      </trkpt>
      <trkpt lat="59.8742398" lon="17.6888432">
        <ele>28.9769</ele>
        <time>2013-03-10T12:18:16Z</time>
      </trkpt>
      <trkpt lat="59.8742462" lon="17.688868">
        <ele>28.9769</ele>
        <time>2013-03-10T12:18:17Z</time>
      </trkpt>
      <trkpt lat="59.8742523" lon="17.6888929">
        <ele>29.4575</ele>
        <time>2013-03-10T12:18:18Z</time>
      </trkpt>
      <trkpt lat="59.8742587" lon="17.6889168">
        <ele>28.9769</ele>
        <time>2013-03-10T12:18:19Z</time>
      </trkpt>
      <trkpt lat="59.8742674" lon="17.6889426">
        <ele>29.4575</ele>
        <time>2013-03-10T12:18:20Z</time>
      </trkpt>
      <trkpt lat="59.8742753" lon="17.6889678">
        <ele>29.9381</ele>
        <time>2013-03-10T12:18:21Z</time>
      </trkpt>
      <trkpt lat="59.8742818" lon="17.6889918">
        <ele>29.9381</ele>
        <time>2013-03-10T12:18:22Z</time>
      </trkpt>
      <trkpt lat="59.8742885" lon="17.6890161">
        <ele>29.9381</ele>
        <time>2013-03-10T12:18:23Z</time>
      </trkpt>
      <trkpt lat="59.8742958" lon="17.689041">
        <ele>29.9381</ele>
        <time>2013-03-10T12:18:24Z</time>
      </trkpt>
      <trkpt lat="59.8743025" lon="17.6890664">
        <ele>30.4188</ele>
        <time>2013-03-10T12:18:25Z</time>
      </trkpt>
      <trkpt lat="59.8743092" lon="17.6890912">
        <ele>30.4188</ele>
        <time>2013-03-10T12:18:26Z</time>
      </trkpt>
      <trkpt lat="59.8743162" lon="17.689116">
        <ele>30.4188</ele>
        <time>2013-03-10T12:18:27Z</time>
      </trkpt>
      <trkpt lat="59.8743229" lon="17.6891399">
        <ele>30.4188</ele>
        <time>2013-03-10T12:18:28Z</time>
      </trkpt>
      <trkpt lat="59.8743295" lon="17.6891629">
        <ele>29.9381</ele>
        <time>2013-03-10T12:18:29Z</time>
      </trkpt>
      <trkpt lat="59.8743369" lon="17.6891869">
        <ele>30.4188</ele>
        <time>2013-03-10T12:18:30Z</time>
      </trkpt>
      <trkpt lat="59.8743442" lon="17.6892104">
        <ele>30.4188</ele>
        <time>2013-03-10T12:18:31Z</time>
      </trkpt>
      <trkpt lat="59.8743515" lon="17.6892348">
        <ele>30.4188</ele>
        <time>2013-03-10T12:18:32Z</time>
      </trkpt>
      <trkpt lat="59.8743581" lon="17.6892587">
        <ele>30.4188</ele>
        <time>2013-03-10T12:18:33Z</time>
      </trkpt>
      <trkpt lat="59.8743648" lon="17.6892822">
        <ele>30.4188</ele>
        <time>2013-03-10T12:18:34Z</time>
      </trkpt>
      <trkpt lat="59.8743712" lon="17.6893047">
        <ele>29.9381</ele>
        <time>2013-03-10T12:18:35Z</time>
      </trkpt>
      <trkpt lat="59.8743776" lon="17.6893273">
        <ele>29.9381</ele>
        <time>2013-03-10T12:18:36Z</time>
      </trkpt>
      <trkpt lat="59.8743842" lon="17.6893503">
        <ele>29.9381</ele>
        <time>2013-03-10T12:18:37Z</time>
      </trkpt>
      <trkpt lat="59.8743912" lon="17.6893731">
        <ele>29.9381</ele>
        <time>2013-03-10T12:18:38Z</time>
      </trkpt>
      <trkpt lat="59.8743986" lon="17.6893954">
        <ele>30.4188</ele>
        <time>2013-03-10T12:18:39Z</time>
      </trkpt>
      <trkpt lat="59.8744059" lon="17.6894169">
        <ele>30.4188</ele>
        <time>2013-03-10T12:18:40Z</time>
      </trkpt>
      <trkpt lat="59.8744126" lon="17.6894397">
        <ele>30.4188</ele>
        <time>2013-03-10T12:18:41Z</time>
      </trkpt>
      <trkpt lat="59.8744199" lon="17.6894638">
        <ele>30.4188</ele>
        <time>2013-03-10T12:18:42Z</time>
      </trkpt>
      <trkpt lat="59.8744279" lon="17.6894879">
        <ele>30.4188</ele>
        <time>2013-03-10T12:18:43Z</time>
      </trkpt>
      <trkpt lat="59.874436" lon="17.689512">
        <ele>30.8995</ele>
        <time>2013-03-10T12:18:44Z</time>
      </trkpt>
      <trkpt lat="59.874444" lon="17.6895355">
        <ele>30.8995</ele>
        <time>2013-03-10T12:18:45Z</time>
      </trkpt>
      <trkpt lat="59.8744508" lon="17.6895586">
        <ele>30.8995</ele>
        <time>2013-03-10T12:18:46Z</time>
      </trkpt>
      <trkpt lat="59.8744566" lon="17.6895819">
        <ele>30.4188</ele>
        <time>2013-03-10T12:18:47Z</time>
      </trkpt>
      <trkpt lat="59.8744628" lon="17.6896057">
        <ele>30.4188</ele>
        <time>2013-03-10T12:18:48Z</time>
      </trkpt>
      <trkpt lat="59.8744696" lon="17.6896295">
        <ele>30.4188</ele>
        <time>2013-03-10T12:18:49Z</time>
      </trkpt>
      <trkpt lat="59.8744769" lon="17.689654">
        <ele>30.4188</ele>
        <time>2013-03-10T12:18:50Z</time>
      </trkpt>
      <trkpt lat="59.8744836" lon="17.689679">
        <ele>30.4188</ele>
        <time>2013-03-10T12:18:51Z</time>
      </trkpt>
      <trkpt lat="59.8744898" lon="17.6897044">
        <ele>30.4188</ele>
        <time>2013-03-10T12:18:52Z</time>
      </trkpt>
      <trkpt lat="59.8744962" lon="17.6897295">
        <ele>30.4188</ele>
        <time>2013-03-10T12:18:53Z</time>
      </trkpt>
      <trkpt lat="59.8745025" lon="17.6897543">
        <ele>30.4188</ele>
        <time>2013-03-10T12:18:54Z</time>
      </trkpt>
      <trkpt lat="59.8745093" lon="17.6897803">
        <ele>30.4188</ele>
        <time>2013-03-10T12:18:55Z</time>
      </trkpt>
      <trkpt lat="59.8745161" lon="17.6898064">
        <ele>30.4188</ele>
        <time>2013-03-10T12:18:56Z</time>
      </trkpt>
      <trkpt lat="59.8745228" lon="17.6898319">
        <ele>30.4188</ele>
        <time>2013-03-10T12:18:57Z</time>
      </trkpt>
      <trkpt lat="59.8745291" lon="17.689857">
        <ele>30.4188</ele>
        <time>2013-03-10T12:18:58Z</time>
      </trkpt>
      <trkpt lat="59.8745352" lon="17.6898818">
        <ele>30.4188</ele>
        <time>2013-03-10T12:18:59Z</time>
      </trkpt>
      <trkpt lat="59.8745414" lon="17.6899064">
        <ele>30.4188</ele>
        <time>2013-03-10T12:19:00Z</time>
      </trkpt>
      <trkpt lat="59.8745478" lon="17.6899304">
        <ele>30.4188</ele>
        <time>2013-03-10T12:19:01Z</time>
      </trkpt>
      <trkpt lat="59.8745554" lon="17.6899547">
        <ele>30.4188</ele>
        <time>2013-03-10T12:19:02Z</time>
      </trkpt>
      <trkpt lat="59.8745623" lon="17.6899776">
        <ele>30.4188</ele>
        <time>2013-03-10T12:19:03Z</time>
      </trkpt>
      <trkpt lat="59.8745698" lon="17.6899998">
        <ele>30.4188</ele>
        <time>2013-03-10T12:19:04Z</time>
      </trkpt>
      <trkpt lat="59.8745767" lon="17.6900207">
        <ele>30.4188</ele>
        <time>2013-03-10T12:19:05Z</time>
      </trkpt>
      <trkpt lat="59.8745841" lon="17.6900411">
        <ele>30.4188</ele>
        <time>2013-03-10T12:19:06Z</time>
      </trkpt>
      <trkpt lat="59.874591" lon="17.6900618">
        <ele>29.9381</ele>
        <time>2013-03-10T12:19:07Z</time>
      </trkpt>
      <trkpt lat="59.8745978" lon="17.6900836">
        <ele>29.9381</ele>
        <time>2013-03-10T12:19:08Z</time>
      </trkpt>
      <trkpt lat="59.874605" lon="17.6901066">
        <ele>29.9381</ele>
        <time>2013-03-10T12:19:09Z</time>
      </trkpt>
      <trkpt lat="59.8746124" lon="17.6901292">
        <ele>30.4188</ele>
        <time>2013-03-10T12:19:10Z</time>
      </trkpt>
      <trkpt lat="59.8746187" lon="17.6901505">
        <ele>29.9381</ele>
        <time>2013-03-10T12:19:11Z</time>
      </trkpt>
      <trkpt lat="59.8746253" lon="17.6901728">
        <ele>29.9381</ele>
        <time>2013-03-10T12:19:12Z</time>
      </trkpt>
      <trkpt lat="59.8746322" lon="17.6901951">
        <ele>29.9381</ele>
        <time>2013-03-10T12:19:13Z</time>
      </trkpt>
      <trkpt lat="59.8746398" lon="17.6902163">
        <ele>29.9381</ele>
        <time>2013-03-10T12:19:14Z</time>
      </trkpt>
      <trkpt lat="59.8746477" lon="17.6902381">
        <ele>29.9381</ele>
        <time>2013-03-10T12:19:15Z</time>
      </trkpt>
      <trkpt lat="59.8746559" lon="17.6902607">
        <ele>30.4188</ele>
        <time>2013-03-10T12:19:16Z</time>
      </trkpt>
      <trkpt lat="59.8746632" lon="17.6902836">
        <ele>29.9381</ele>
        <time>2013-03-10T12:19:17Z</time>
      </trkpt>
      <trkpt lat="59.8746701" lon="17.6903059">
        <ele>29.9381</ele>
        <time>2013-03-10T12:19:18Z</time>
      </trkpt>
      <trkpt lat="59.8746767" lon="17.6903276">
        <ele>29.9381</ele>
        <time>2013-03-10T12:19:19Z</time>
      </trkpt>
      <trkpt lat="59.8746835" lon="17.6903501">
        <ele>29.9381</ele>
        <time>2013-03-10T12:19:20Z</time>
      </trkpt>
      <trkpt lat="59.8746902" lon="17.6903724">
        <ele>29.9381</ele>
        <time>2013-03-10T12:19:21Z</time>
      </trkpt>
      <trkpt lat="59.8746974" lon="17.690396">
        <ele>29.9381</ele>
        <time>2013-03-10T12:19:22Z</time>
      </trkpt>
      <trkpt lat="59.8747046" lon="17.6904195">
        <ele>29.9381</ele>
        <time>2013-03-10T12:19:23Z</time>
      </trkpt>
      <trkpt lat="59.874712" lon="17.6904423">
        <ele>29.9381</ele>
        <time>2013-03-10T12:19:24Z</time>
      </trkpt>
      <trkpt lat="59.8747196" lon="17.6904639">
        <ele>30.4188</ele>
        <time>2013-03-10T12:19:25Z</time>
      </trkpt>
      <trkpt lat="59.874727" lon="17.6904836">
        <ele>30.4188</ele>
        <time>2013-03-10T12:19:26Z</time>
      </trkpt>
      <trkpt lat="59.8747351" lon="17.6905037">
        <ele>30.4188</ele>
        <time>2013-03-10T12:19:27Z</time>
      </trkpt>
      <trkpt lat="59.8747429" lon="17.6905242">
        <ele>30.4188</ele>
        <time>2013-03-10T12:19:28Z</time>
      </trkpt>
      <trkpt lat="59.8747503" lon="17.6905439">
        <ele>30.4188</ele>
        <time>2013-03-10T12:19:29Z</time>
      </trkpt>
      <trkpt lat="59.8747586" lon="17.6905629">
        <ele>30.4188</ele>
        <time>2013-03-10T12:19:30Z</time>
      </trkpt>
      <trkpt lat="59.8747674" lon="17.6905836">
        <ele>30.4188</ele>
        <time>2013-03-10T12:19:31Z</time>
      </trkpt>
      <trkpt lat="59.8747765" lon="17.6906034">
        <ele>30.4188</ele>
        <time>2013-03-10T12:19:32Z</time>
      </trkpt>
      <trkpt lat="59.8747855" lon="17.690623">
        <ele>30.4188</ele>
        <time>2013-03-10T12:19:33Z</time>
      </trkpt>
      <trkpt lat="59.8747937" lon="17.6906427">
        <ele>30.8995</ele>
        <time>2013-03-10T12:19:34Z</time>
      </trkpt>
      <trkpt lat="59.874802" lon="17.6906634">
        <ele>30.8995</ele>
        <time>2013-03-10T12:19:35Z</time>
      </trkpt>
      <trkpt lat="59.8748112" lon="17.6906857">
        <ele>30.8995</ele>
        <time>2013-03-10T12:19:36Z</time>
      </trkpt>
      <trkpt lat="59.8748203" lon="17.6907078">
        <ele>30.8995</ele>
        <time>2013-03-10T12:19:37Z</time>
      </trkpt>
      <trkpt lat="59.874829" lon="17.6907296">
        <ele>30.8995</ele>
        <time>2013-03-10T12:19:38Z</time>
      </trkpt>
      <trkpt lat="59.8748373" lon="17.690752">
        <ele>30.8995</ele>
        <time>2013-03-10T12:19:39Z</time>
      </trkpt>
      <trkpt lat="59.8748449" lon="17.6907749">
        <ele>30.8995</ele>
        <time>2013-03-10T12:19:40Z</time>
      </trkpt>
      <trkpt lat="59.8748518" lon="17.6907986">
        <ele>30.8995</ele>
        <time>2013-03-10T12:19:41Z</time>
      </trkpt>
      <trkpt lat="59.8748587" lon="17.6908224">
        <ele>31.3801</ele>
        <time>2013-03-10T12:19:42Z</time>
      </trkpt>
      <trkpt lat="59.8748658" lon="17.6908456">
        <ele>31.3801</ele>
        <time>2013-03-10T12:19:43Z</time>
      </trkpt>
      <trkpt lat="59.8748735" lon="17.6908684">
        <ele>31.3801</ele>
        <time>2013-03-10T12:19:44Z</time>
      </trkpt>
      <trkpt lat="59.8748811" lon="17.6908898">
        <ele>31.3801</ele>
        <time>2013-03-10T12:19:45Z</time>
      </trkpt>
      <trkpt lat="59.8748897" lon="17.6909115">
        <ele>31.3801</ele>
        <time>2013-03-10T12:19:46Z</time>
      </trkpt>
      <trkpt lat="59.8748983" lon="17.6909343">
        <ele>31.3801</ele>
        <time>2013-03-10T12:19:47Z</time>
      </trkpt>
      <trkpt lat="59.874907" lon="17.690957">
        <ele>31.3801</ele>
        <time>2013-03-10T12:19:48Z</time>
      </trkpt>
      <trkpt lat="59.8749155" lon="17.6909788">
        <ele>31.3801</ele>
        <time>2013-03-10T12:19:49Z</time>
      </trkpt>
      <trkpt lat="59.8749238" lon="17.6909997">
        <ele>31.3801</ele>
        <time>2013-03-10T12:19:50Z</time>
      </trkpt>
      <trkpt lat="59.8749325" lon="17.6910204">
        <ele>31.3801</ele>
        <time>2013-03-10T12:19:51Z</time>
      </trkpt>
      <trkpt lat="59.874941" lon="17.6910394">
        <ele>31.3801</ele>
        <time>2013-03-10T12:19:52Z</time>
      </trkpt>
      <trkpt lat="59.8749507" lon="17.6910582">
        <ele>31.3801</ele>
        <time>2013-03-10T12:19:53Z</time>
      </trkpt>
      <trkpt lat="59.8749595" lon="17.6910769">
        <ele>31.3801</ele>
        <time>2013-03-10T12:19:54Z</time>
      </trkpt>
      <trkpt lat="59.8749684" lon="17.6910954">
        <ele>31.3801</ele>
        <time>2013-03-10T12:19:55Z</time>
      </trkpt>
      <trkpt lat="59.874977" lon="17.6911136">
        <ele>31.3801</ele>
        <time>2013-03-10T12:19:56Z</time>
      </trkpt>
      <trkpt lat="59.8749852" lon="17.6911318">
        <ele>31.3801</ele>
        <time>2013-03-10T12:19:57Z</time>
      </trkpt>
      <trkpt lat="59.8749936" lon="17.6911496">
        <ele>31.3801</ele>
        <time>2013-03-10T12:19:58Z</time>
      </trkpt>
      <trkpt lat="59.8750021" lon="17.6911675">
        <ele>31.3801</ele>
        <time>2013-03-10T12:19:59Z</time>
      </trkpt>
      <trkpt lat="59.8750115" lon="17.6911867">
        <ele>31.8607</ele>
        <time>2013-03-10T12:20:00Z</time>
      </trkpt>
      <trkpt lat="59.8750206" lon="17.6912063">
        <ele>31.8607</ele>
        <time>2013-03-10T12:20:01Z</time>
      </trkpt>
      <trkpt lat="59.8750295" lon="17.6912269">
        <ele>31.8607</ele>
        <time>2013-03-10T12:20:02Z</time>
      </trkpt>
      <trkpt lat="59.8750382" lon="17.6912473">
        <ele>31.8607</ele>
        <time>2013-03-10T12:20:03Z</time>
      </trkpt>
      <trkpt lat="59.8750477" lon="17.6912689">
        <ele>31.8607</ele>
        <time>2013-03-10T12:20:04Z</time>
      </trkpt>
      <trkpt lat="59.875057" lon="17.6912907">
        <ele>31.8607</ele>
        <time>2013-03-10T12:20:05Z</time>
      </trkpt>
      <trkpt lat="59.8750661" lon="17.6913141">
        <ele>31.8607</ele>
        <time>2013-03-10T12:20:06Z</time>
      </trkpt>
      <trkpt lat="59.875074" lon="17.6913367">
        <ele>31.8607</ele>
        <time>2013-03-10T12:20:07Z</time>
      </trkpt>
      <trkpt lat="59.8750823" lon="17.6913591">
        <ele>31.8607</ele>
        <time>2013-03-10T12:20:08Z</time>
      </trkpt>
      <trkpt lat="59.8750907" lon="17.6913804">
        <ele>31.8607</ele>
        <time>2013-03-10T12:20:09Z</time>
      </trkpt>
      <trkpt lat="59.8750994" lon="17.6914007">
        <ele>31.8607</ele>
        <time>2013-03-10T12:20:10Z</time>
      </trkpt>
      <trkpt lat="59.8751083" lon="17.6914214">
        <ele>31.8607</ele>
        <time>2013-03-10T12:20:11Z</time>
      </trkpt>
      <trkpt lat="59.875118" lon="17.6914406">
        <ele>32.3416</ele>
        <time>2013-03-10T12:20:12Z</time>
      </trkpt>
      <trkpt lat="59.8751277" lon="17.69146">
        <ele>32.3416</ele>
        <time>2013-03-10T12:20:13Z</time>
      </trkpt>
      <trkpt lat="59.8751372" lon="17.6914812">
        <ele>32.3416</ele>
        <time>2013-03-10T12:20:14Z</time>
      </trkpt>
      <trkpt lat="59.8751458" lon="17.691502">
        <ele>31.8607</ele>
        <time>2013-03-10T12:20:15Z</time>
      </trkpt>
      <trkpt lat="59.8751554" lon="17.6915229">
        <ele>31.8607</ele>
        <time>2013-03-10T12:20:16Z</time>
      </trkpt>
      <trkpt lat="59.8751647" lon="17.6915439">
        <ele>31.8607</ele>
        <time>2013-03-10T12:20:17Z</time>
      </trkpt>
      <trkpt lat="59.8751735" lon="17.6915637">
        <ele>31.8607</ele>
        <time>2013-03-10T12:20:18Z</time>
      </trkpt>
      <trkpt lat="59.8751828" lon="17.6915835">
        <ele>31.8607</ele>
        <time>2013-03-10T12:20:19Z</time>
      </trkpt>
      <trkpt lat="59.8751917" lon="17.6916042">
        <ele>31.8607</ele>
        <time>2013-03-10T12:20:20Z</time>
      </trkpt>
      <trkpt lat="59.8752003" lon="17.6916255">
        <ele>31.8607</ele>
        <time>2013-03-10T12:20:21Z</time>
      </trkpt>
      <trkpt lat="59.8752097" lon="17.6916473">
        <ele>31.8607</ele>
        <time>2013-03-10T12:20:22Z</time>
      </trkpt>
      <trkpt lat="59.8752155" lon="17.691668">
        <ele>31.3801</ele>
        <time>2013-03-10T12:20:23Z</time>
      </trkpt>
      <trkpt lat="59.8752237" lon="17.6916886">
        <ele>31.3801</ele>
        <time>2013-03-10T12:20:24Z</time>
      </trkpt>
      <trkpt lat="59.8752292" lon="17.6917067">
        <ele>30.8995</ele>
        <time>2013-03-10T12:20:25Z</time>
      </trkpt>
      <trkpt lat="59.8752346" lon="17.6917244">
        <ele>30.4188</ele>
        <time>2013-03-10T12:20:26Z</time>
      </trkpt>
      <trkpt lat="59.8752419" lon="17.6917431">
        <ele>29.9381</ele>
        <time>2013-03-10T12:20:27Z</time>
      </trkpt>
      <trkpt lat="59.8752481" lon="17.6917616">
        <ele>29.4575</ele>
        <time>2013-03-10T12:20:28Z</time>
      </trkpt>
      <trkpt lat="59.8752544" lon="17.6917804">
        <ele>28.9769</ele>
        <time>2013-03-10T12:20:29Z</time>
      </trkpt>
      <trkpt lat="59.8752639" lon="17.6918015">
        <ele>28.9769</ele>
        <time>2013-03-10T12:20:30Z</time>
      </trkpt>
      <trkpt lat="59.8752731" lon="17.6918233">
        <ele>28.9769</ele>
        <time>2013-03-10T12:20:31Z</time>
      </trkpt>
      <trkpt lat="59.8752822" lon="17.6918436">
        <ele>28.9769</ele>
        <time>2013-03-10T12:20:32Z</time>
      </trkpt>
      <trkpt lat="59.8752914" lon="17.6918637">
        <ele>28.9769</ele>
        <time>2013-03-10T12:20:33Z</time>
      </trkpt>
      <trkpt lat="59.8753009" lon="17.691883">
        <ele>29.4575</ele>
        <time>2013-03-10T12:20:34Z</time>
      </trkpt>
      <trkpt lat="59.8753107" lon="17.6919045">
        <ele>28.9769</ele>
        <time>2013-03-10T12:20:35Z</time>
      </trkpt>
      <trkpt lat="59.875321" lon="17.6919278">
        <ele>28.9769</ele>
        <time>2013-03-10T12:20:36Z</time>
      </trkpt>
      <trkpt lat="59.8753294" lon="17.6919502">
        <ele>28.9769</ele>
        <time>2013-03-10T12:20:37Z</time>
      </trkpt>
      <trkpt lat="59.8753401" lon="17.6919709">
        <ele>29.4575</ele>
        <time>2013-03-10T12:20:38Z</time>
      </trkpt>
      <trkpt lat="59.8753507" lon="17.6919916">
        <ele>29.4575</ele>
        <time>2013-03-10T12:20:39Z</time>
      </trkpt>
      <trkpt lat="59.8753606" lon="17.6920135">
        <ele>29.4575</ele>
        <time>2013-03-10T12:20:40Z</time>
      </trkpt>
      <trkpt lat="59.8753692" lon="17.6920388">
        <ele>29.4575</ele>
        <time>2013-03-10T12:20:41Z</time>
      </trkpt>
      <trkpt lat="59.8753785" lon="17.6920647">
        <ele>29.9381</ele>
        <time>2013-03-10T12:20:42Z</time>
      </trkpt>
      <trkpt lat="59.8753879" lon="17.6920873">
        <ele>30.4188</ele>
        <time>2013-03-10T12:20:43Z</time>
      </trkpt>
      <trkpt lat="59.8753971" lon="17.6921082">
        <ele>30.4188</ele>
        <time>2013-03-10T12:20:44Z</time>
      </trkpt>
      <trkpt lat="59.8754046" lon="17.6921302">
        <ele>30.4188</ele>
        <time>2013-03-10T12:20:45Z</time>
      </trkpt>
      <trkpt lat="59.8754129" lon="17.6921533">
        <ele>30.4188</ele>
        <time>2013-03-10T12:20:46Z</time>
      </trkpt>
      <trkpt lat="59.8754215" lon="17.6921745">
        <ele>30.8995</ele>
        <time>2013-03-10T12:20:47Z</time>
      </trkpt>
      <trkpt lat="59.8754309" lon="17.692195">
        <ele>30.8995</ele>
        <time>2013-03-10T12:20:48Z</time>
      </trkpt>
      <trkpt lat="59.8754408" lon="17.6922152">
        <ele>31.3801</ele>
        <time>2013-03-10T12:20:49Z</time>
      </trkpt>
      <trkpt lat="59.8754511" lon="17.6922372">
        <ele>31.3801</ele>
        <time>2013-03-10T12:20:50Z</time>
      </trkpt>
      <trkpt lat="59.8754608" lon="17.6922601">
        <ele>31.3801</ele>
        <time>2013-03-10T12:20:51Z</time>
      </trkpt>
      <trkpt lat="59.8754706" lon="17.6922817">
        <ele>31.3801</ele>
        <time>2013-03-10T12:20:52Z</time>
      </trkpt>
      <trkpt lat="59.8754802" lon="17.6923025">
        <ele>31.8607</ele>
        <time>2013-03-10T12:20:53Z</time>
      </trkpt>
      <trkpt lat="59.8754851" lon="17.692322">
        <ele>30.8995</ele>
        <time>2013-03-10T12:20:54Z</time>
      </trkpt>
      <trkpt lat="59.8754896" lon="17.6923412">
        <ele>30.8995</ele>
        <time>2013-03-10T12:20:55Z</time>
      </trkpt>
      <trkpt lat="59.8754934" lon="17.6923594">
        <ele>29.9381</ele>
        <time>2013-03-10T12:20:56Z</time>
      </trkpt>
      <trkpt lat="59.8754981" lon="17.6923786">
        <ele>29.4575</ele>
        <time>2013-03-10T12:20:57Z</time>
      </trkpt>
      <trkpt lat="59.8755029" lon="17.6923983">
        <ele>28.9769</ele>
        <time>2013-03-10T12:20:58Z</time>
      </trkpt>
      <trkpt lat="59.8755098" lon="17.6924181">
        <ele>28.9769</ele>
        <time>2013-03-10T12:20:59Z</time>
      </trkpt>
      <trkpt lat="59.8755164" lon="17.6924357">
        <ele>28.4962</ele>
        <time>2013-03-10T12:21:00Z</time>
      </trkpt>
      <trkpt lat="59.8755231" lon="17.6924547">
        <ele>28.4962</ele>
        <time>2013-03-10T12:21:01Z</time>
      </trkpt>
      <trkpt lat="59.8755302" lon="17.6924744">
        <ele>28.4962</ele>
        <time>2013-03-10T12:21:02Z</time>
      </trkpt>
      <trkpt lat="59.8755346" lon="17.6924923">
        <ele>27.5349</ele>
        <time>2013-03-10T12:21:03Z</time>
      </trkpt>
      <trkpt lat="59.8755397" lon="17.6925092">
        <ele>27.5349</ele>
        <time>2013-03-10T12:21:04Z</time>
      </trkpt>
      <trkpt lat="59.8755461" lon="17.6925262">
        <ele>27.0543</ele>
        <time>2013-03-10T12:21:05Z</time>
      </trkpt>
      <trkpt lat="59.8755532" lon="17.6925446">
        <ele>26.5736</ele>
        <time>2013-03-10T12:21:06Z</time>
      </trkpt>
      <trkpt lat="59.8755599" lon="17.6925647">
        <ele>26.5736</ele>
        <time>2013-03-10T12:21:07Z</time>
      </trkpt>
      <trkpt lat="59.8755668" lon="17.6925849">
        <ele>26.5736</ele>
        <time>2013-03-10T12:21:08Z</time>
      </trkpt>
      <trkpt lat="59.8755739" lon="17.6926053">
        <ele>26.0929</ele>
        <time>2013-03-10T12:21:09Z</time>
      </trkpt>
      <trkpt lat="59.8755813" lon="17.6926251">
        <ele>26.0929</ele>
        <time>2013-03-10T12:21:10Z</time>
      </trkpt>
      <trkpt lat="59.875589" lon="17.6926455">
        <ele>26.0929</ele>
        <time>2013-03-10T12:21:11Z</time>
      </trkpt>
      <trkpt lat="59.8755972" lon="17.6926665">
        <ele>26.0929</ele>
        <time>2013-03-10T12:21:12Z</time>
      </trkpt>
      <trkpt lat="59.8756054" lon="17.6926877">
        <ele>25.6123</ele>
        <time>2013-03-10T12:21:13Z</time>
      </trkpt>
      <trkpt lat="59.8756128" lon="17.692709">
        <ele>25.6123</ele>
        <time>2013-03-10T12:21:14Z</time>
      </trkpt>
      <trkpt lat="59.8756203" lon="17.6927318">
        <ele>25.1317</ele>
        <time>2013-03-10T12:21:15Z</time>
      </trkpt>
      <trkpt lat="59.8756272" lon="17.6927536">
        <ele>25.1317</ele>
        <time>2013-03-10T12:21:16Z</time>
      </trkpt>
      <trkpt lat="59.8756345" lon="17.6927737">
        <ele>24.651</ele>
        <time>2013-03-10T12:21:17Z</time>
      </trkpt>
      <trkpt lat="59.8756427" lon="17.6927933">
        <ele>24.651</ele>
        <time>2013-03-10T12:21:18Z</time>
      </trkpt>
      <trkpt lat="59.8756512" lon="17.6928151">
        <ele>24.651</ele>
        <time>2013-03-10T12:21:19Z</time>
      </trkpt>
      <trkpt lat="59.8756579" lon="17.6928375">
        <ele>24.1703</ele>
        <time>2013-03-10T12:21:20Z</time>
      </trkpt>
      <trkpt lat="59.8756657" lon="17.6928597">
        <ele>24.1703</ele>
        <time>2013-03-10T12:21:21Z</time>
      </trkpt>
      <trkpt lat="59.8756739" lon="17.69288">
        <ele>24.1703</ele>
        <time>2013-03-10T12:21:22Z</time>
      </trkpt>
      <trkpt lat="59.8756822" lon="17.6928998">
        <ele>23.6896</ele>
        <time>2013-03-10T12:21:23Z</time>
      </trkpt>
      <trkpt lat="59.8756901" lon="17.6929199">
        <ele>23.6896</ele>
        <time>2013-03-10T12:21:24Z</time>
      </trkpt>
      <trkpt lat="59.8756982" lon="17.6929404">
        <ele>23.6896</ele>
        <time>2013-03-10T12:21:25Z</time>
      </trkpt>
      <trkpt lat="59.8757069" lon="17.6929603">
        <ele>23.209</ele>
        <time>2013-03-10T12:21:26Z</time>
      </trkpt>
      <trkpt lat="59.8757163" lon="17.6929805">
        <ele>23.209</ele>
        <time>2013-03-10T12:21:27Z</time>
      </trkpt>
      <trkpt lat="59.8757255" lon="17.6930022">
        <ele>23.209</ele>
        <time>2013-03-10T12:21:28Z</time>
      </trkpt>
      <trkpt lat="59.8757338" lon="17.6930234">
        <ele>23.209</ele>
        <time>2013-03-10T12:21:29Z</time>
      </trkpt>
      <trkpt lat="59.8757408" lon="17.693044">
        <ele>22.7283</ele>
        <time>2013-03-10T12:21:30Z</time>
      </trkpt>
      <trkpt lat="59.87575" lon="17.6930658">
        <ele>22.7283</ele>
        <time>2013-03-10T12:21:31Z</time>
      </trkpt>
      <trkpt lat="59.8757581" lon="17.6930852">
        <ele>22.7283</ele>
        <time>2013-03-10T12:21:32Z</time>
      </trkpt>
      <trkpt lat="59.8757666" lon="17.6931053">
        <ele>22.7283</ele>
        <time>2013-03-10T12:21:33Z</time>
      </trkpt>
      <trkpt lat="59.8757739" lon="17.6931275">
        <ele>22.7283</ele>
        <time>2013-03-10T12:21:34Z</time>
      </trkpt>
      <trkpt lat="59.8757784" lon="17.6931516">
        <ele>22.2476</ele>
        <time>2013-03-10T12:21:35Z</time>
      </trkpt>
      <trkpt lat="59.8757838" lon="17.6931759">
        <ele>22.2476</ele>
        <time>2013-03-10T12:21:36Z</time>
      </trkpt>
      <trkpt lat="59.8757905" lon="17.6931981">
        <ele>22.2476</ele>
        <time>2013-03-10T12:21:37Z</time>
      </trkpt>
      <trkpt lat="59.8757976" lon="17.693217">
        <ele>22.2476</ele>
        <time>2013-03-10T12:21:38Z</time>
      </trkpt>
      <trkpt lat="59.8758044" lon="17.6932354">
        <ele>21.767</ele>
        <time>2013-03-10T12:21:39Z</time>
      </trkpt>
      <trkpt lat="59.8758132" lon="17.6932555">
        <ele>21.767</ele>
        <time>2013-03-10T12:21:40Z</time>
      </trkpt>
      <trkpt lat="59.875822" lon="17.6932763">
        <ele>21.767</ele>
        <time>2013-03-10T12:21:41Z</time>
      </trkpt>
      <trkpt lat="59.8758298" lon="17.6932982">
        <ele>21.2864</ele>
        <time>2013-03-10T12:21:42Z</time>
      </trkpt>
      <trkpt lat="59.8758384" lon="17.6933198">
        <ele>21.2864</ele>
        <time>2013-03-10T12:21:43Z</time>
      </trkpt>
      <trkpt lat="59.8758468" lon="17.6933421">
        <ele>21.2864</ele>
        <time>2013-03-10T12:21:44Z</time>
      </trkpt>
      <trkpt lat="59.8758548" lon="17.6933632">
        <ele>21.2864</ele>
        <time>2013-03-10T12:21:45Z</time>
      </trkpt>
      <trkpt lat="59.8758629" lon="17.6933825">
        <ele>21.2864</ele>
        <time>2013-03-10T12:21:46Z</time>
      </trkpt>
      <trkpt lat="59.8758708" lon="17.6934033">
        <ele>20.8057</ele>
        <time>2013-03-10T12:21:47Z</time>
      </trkpt>
      <trkpt lat="59.8758784" lon="17.6934235">
        <ele>20.8057</ele>
        <time>2013-03-10T12:21:48Z</time>
      </trkpt>
      <trkpt lat="59.8758868" lon="17.6934445">
        <ele>20.8057</ele>
        <time>2013-03-10T12:21:49Z</time>
      </trkpt>
      <trkpt lat="59.8758965" lon="17.6934657">
        <ele>20.8057</ele>
        <time>2013-03-10T12:21:50Z</time>
      </trkpt>
      <trkpt lat="59.8759054" lon="17.6934871">
        <ele>20.8057</ele>
        <time>2013-03-10T12:21:51Z</time>
      </trkpt>
      <trkpt lat="59.8759138" lon="17.6935079">
        <ele>20.8057</ele>
        <time>2013-03-10T12:21:52Z</time>
      </trkpt>
      <trkpt lat="59.8759232" lon="17.6935291">
        <ele>20.8057</ele>
        <time>2013-03-10T12:21:53Z</time>
      </trkpt>
      <trkpt lat="59.8759312" lon="17.6935499">
        <ele>20.325</ele>
        <time>2013-03-10T12:21:54Z</time>
      </trkpt>
      <trkpt lat="59.8759391" lon="17.6935695">
        <ele>20.325</ele>
        <time>2013-03-10T12:21:55Z</time>
      </trkpt>
      <trkpt lat="59.875949" lon="17.6935857">
        <ele>20.325</ele>
        <time>2013-03-10T12:21:56Z</time>
      </trkpt>
      <trkpt lat="59.8759589" lon="17.693603">
        <ele>19.8444</ele>
        <time>2013-03-10T12:21:57Z</time>
      </trkpt>
      <trkpt lat="59.8759681" lon="17.6936247">
        <ele>19.8444</ele>
        <time>2013-03-10T12:21:58Z</time>
      </trkpt>
      <trkpt lat="59.8759773" lon="17.6936473">
        <ele>19.8444</ele>
        <time>2013-03-10T12:21:59Z</time>
      </trkpt>
      <trkpt lat="59.8759863" lon="17.6936689">
        <ele>19.8444</ele>
        <time>2013-03-10T12:22:00Z</time>
      </trkpt>
      <trkpt lat="59.8759956" lon="17.6936907">
        <ele>19.3638</ele>
        <time>2013-03-10T12:22:01Z</time>
      </trkpt>
      <trkpt lat="59.8760053" lon="17.6937144">
        <ele>19.3638</ele>
        <time>2013-03-10T12:22:02Z</time>
      </trkpt>
      <trkpt lat="59.8760143" lon="17.6937389">
        <ele>19.3638</ele>
        <time>2013-03-10T12:22:03Z</time>
      </trkpt>
      <trkpt lat="59.8760231" lon="17.6937622">
        <ele>19.3638</ele>
        <time>2013-03-10T12:22:04Z</time>
      </trkpt>
      <trkpt lat="59.8760312" lon="17.6937839">
        <ele>18.8831</ele>
        <time>2013-03-10T12:22:05Z</time>
      </trkpt>
      <trkpt lat="59.8760389" lon="17.6938042">
        <ele>18.8831</ele>
        <time>2013-03-10T12:22:06Z</time>
      </trkpt>
      <trkpt lat="59.8760479" lon="17.6938236">
        <ele>18.8831</ele>
        <time>2013-03-10T12:22:07Z</time>
      </trkpt>
      <trkpt lat="59.8760568" lon="17.6938431">
        <ele>18.8831</ele>
        <time>2013-03-10T12:22:08Z</time>
      </trkpt>
      <trkpt lat="59.8760655" lon="17.6938646">
        <ele>18.4023</ele>
        <time>2013-03-10T12:22:09Z</time>
      </trkpt>
      <trkpt lat="59.8760742" lon="17.693882">
        <ele>18.4023</ele>
        <time>2013-03-10T12:22:10Z</time>
      </trkpt>
      <trkpt lat="59.8760832" lon="17.6938983">
        <ele>18.4023</ele>
        <time>2013-03-10T12:22:11Z</time>
      </trkpt>
      <trkpt lat="59.8760925" lon="17.693916">
        <ele>17.9218</ele>
        <time>2013-03-10T12:22:12Z</time>
      </trkpt>
      <trkpt lat="59.8761013" lon="17.6939346">
        <ele>17.9218</ele>
        <time>2013-03-10T12:22:13Z</time>
      </trkpt>
      <trkpt lat="59.8761104" lon="17.693954">
        <ele>17.9218</ele>
        <time>2013-03-10T12:22:14Z</time>
      </trkpt>
      <trkpt lat="59.8761199" lon="17.693976">
        <ele>17.9218</ele>
        <time>2013-03-10T12:22:15Z</time>
      </trkpt>
      <trkpt lat="59.8761283" lon="17.6939989">
        <ele>17.4412</ele>
        <time>2013-03-10T12:22:16Z</time>
      </trkpt>
      <trkpt lat="59.876136" lon="17.6940232">
        <ele>17.4412</ele>
        <time>2013-03-10T12:22:17Z</time>
      </trkpt>
      <trkpt lat="59.8761432" lon="17.6940474">
        <ele>17.4412</ele>
        <time>2013-03-10T12:22:18Z</time>
      </trkpt>
      <trkpt lat="59.876151" lon="17.6940725">
        <ele>16.9604</ele>
        <time>2013-03-10T12:22:19Z</time>
      </trkpt>
      <trkpt lat="59.8761581" lon="17.6941002">
        <ele>16.9604</ele>
        <time>2013-03-10T12:22:20Z</time>
      </trkpt>
      <trkpt lat="59.8761634" lon="17.6941263">
        <ele>16.9604</ele>
        <time>2013-03-10T12:22:21Z</time>
      </trkpt>
      <trkpt lat="59.87617" lon="17.6941505">
        <ele>16.4797</ele>
        <time>2013-03-10T12:22:22Z</time>
      </trkpt>
      <trkpt lat="59.8761783" lon="17.6941744">
        <ele>16.9604</ele>
        <time>2013-03-10T12:22:23Z</time>
      </trkpt>
      <trkpt lat="59.8761878" lon="17.6941943">
        <ele>16.9604</ele>
        <time>2013-03-10T12:22:24Z</time>
      </trkpt>
      <trkpt lat="59.8761971" lon="17.6942149">
        <ele>16.9604</ele>
        <time>2013-03-10T12:22:25Z</time>
      </trkpt>
      <trkpt lat="59.8762074" lon="17.6942368">
        <ele>17.4412</ele>
        <time>2013-03-10T12:22:26Z</time>
      </trkpt>
      <trkpt lat="59.8762172" lon="17.6942585">
        <ele>17.4412</ele>
        <time>2013-03-10T12:22:27Z</time>
      </trkpt>
      <trkpt lat="59.8762259" lon="17.6942829">
        <ele>17.4412</ele>
        <time>2013-03-10T12:22:28Z</time>
      </trkpt>
      <trkpt lat="59.8762373" lon="17.6943064">
        <ele>17.9218</ele>
        <time>2013-03-10T12:22:29Z</time>
      </trkpt>
      <trkpt lat="59.8762482" lon="17.694328">
        <ele>18.4023</ele>
        <time>2013-03-10T12:22:30Z</time>
      </trkpt>
      <trkpt lat="59.8762575" lon="17.6943486">
        <ele>18.4023</ele>
        <time>2013-03-10T12:22:31Z</time>
      </trkpt>
      <trkpt lat="59.876265" lon="17.6943707">
        <ele>17.9218</ele>
        <time>2013-03-10T12:22:32Z</time>
      </trkpt>
      <trkpt lat="59.8762738" lon="17.6943947">
        <ele>17.9218</ele>
        <time>2013-03-10T12:22:33Z</time>
      </trkpt>
      <trkpt lat="59.8762823" lon="17.6944159">
        <ele>18.4023</ele>
        <time>2013-03-10T12:22:34Z</time>
      </trkpt>
      <trkpt lat="59.8762919" lon="17.6944366">
        <ele>18.4023</ele>
        <time>2013-03-10T12:22:35Z</time>
      </trkpt>
      <trkpt lat="59.8763001" lon="17.6944584">
        <ele>18.4023</ele>
        <time>2013-03-10T12:22:36Z</time>
      </trkpt>
      <trkpt lat="59.8763074" lon="17.6944763">
        <ele>18.4023</ele>
        <time>2013-03-10T12:22:37Z</time>
      </trkpt>
      <trkpt lat="59.8763161" lon="17.6944916">
        <ele>18.4023</ele>
        <time>2013-03-10T12:22:38Z</time>
      </trkpt>
      <trkpt lat="59.8763238" lon="17.6945102">
        <ele>18.4023</ele>
        <time>2013-03-10T12:22:39Z</time>
      </trkpt>
      <trkpt lat="59.87633" lon="17.6945299">
        <ele>17.9218</ele>
        <time>2013-03-10T12:22:40Z</time>
      </trkpt>
      <trkpt lat="59.8763374" lon="17.6945515">
        <ele>18.4023</ele>
        <time>2013-03-10T12:22:41Z</time>
      </trkpt>
      <trkpt lat="59.8763494" lon="17.6945704">
        <ele>18.4023</ele>
        <time>2013-03-10T12:22:42Z</time>
      </trkpt>
      <trkpt lat="59.8763587" lon="17.6945889">
        <ele>17.9218</ele>
        <time>2013-03-10T12:22:43Z</time>
      </trkpt>
      <trkpt lat="59.8763684" lon="17.6946107">
        <ele>18.4023</ele>
        <time>2013-03-10T12:22:44Z</time>
      </trkpt>
      <trkpt lat="59.8763779" lon="17.6946314">
        <ele>18.8831</ele>
        <time>2013-03-10T12:22:45Z</time>
      </trkpt>
      <trkpt lat="59.8763867" lon="17.6946536">
        <ele>18.8831</ele>
        <time>2013-03-10T12:22:46Z</time>
      </trkpt>
      <trkpt lat="59.8763928" lon="17.694676">
        <ele>18.4023</ele>
        <time>2013-03-10T12:22:47Z</time>
      </trkpt>
      <trkpt lat="59.8763976" lon="17.6946991">
        <ele>17.9218</ele>
        <time>2013-03-10T12:22:48Z</time>
      </trkpt>
      <trkpt lat="59.8764039" lon="17.6947227">
        <ele>17.9218</ele>
        <time>2013-03-10T12:22:49Z</time>
      </trkpt>
      <trkpt lat="59.8764111" lon="17.6947462">
        <ele>17.9218</ele>
        <time>2013-03-10T12:22:50Z</time>
      </trkpt>
      <trkpt lat="59.8764188" lon="17.6947691">
        <ele>17.9218</ele>
        <time>2013-03-10T12:22:51Z</time>
      </trkpt>
      <trkpt lat="59.8764271" lon="17.6947915">
        <ele>17.9218</ele>
        <time>2013-03-10T12:22:52Z</time>
      </trkpt>
      <trkpt lat="59.8764322" lon="17.6948127">
        <ele>17.9218</ele>
        <time>2013-03-10T12:22:53Z</time>
      </trkpt>
      <trkpt lat="59.8764383" lon="17.6948335">
        <ele>17.4412</ele>
        <time>2013-03-10T12:22:54Z</time>
      </trkpt>
      <trkpt lat="59.8764455" lon="17.694855">
        <ele>17.4412</ele>
        <time>2013-03-10T12:22:55Z</time>
      </trkpt>
      <trkpt lat="59.8764536" lon="17.6948757">
        <ele>17.9218</ele>
        <time>2013-03-10T12:22:56Z</time>
      </trkpt>
      <trkpt lat="59.8764624" lon="17.6948959">
        <ele>17.9218</ele>
        <time>2013-03-10T12:22:57Z</time>
      </trkpt>
      <trkpt lat="59.8764716" lon="17.6949127">
        <ele>18.4023</ele>
        <time>2013-03-10T12:22:58Z</time>
      </trkpt>
      <trkpt lat="59.8764782" lon="17.6949308">
        <ele>17.9218</ele>
        <time>2013-03-10T12:22:59Z</time>
      </trkpt>
      <trkpt lat="59.876484" lon="17.6949535">
        <ele>17.9218</ele>
        <time>2013-03-10T12:23:00Z</time>
      </trkpt>
      <trkpt lat="59.8764907" lon="17.6949715">
        <ele>18.4023</ele>
        <time>2013-03-10T12:23:01Z</time>
      </trkpt>
      <trkpt lat="59.876497" lon="17.6949871">
        <ele>18.4023</ele>
        <time>2013-03-10T12:23:02Z</time>
      </trkpt>
      <trkpt lat="59.8765011" lon="17.6950054">
        <ele>17.9218</ele>
        <time>2013-03-10T12:23:03Z</time>
      </trkpt>
      <trkpt lat="59.8765044" lon="17.6950256">
        <ele>17.4412</ele>
        <time>2013-03-10T12:23:04Z</time>
      </trkpt>
      <trkpt lat="59.8765018" lon="17.6950444">
        <ele>16.9604</ele>
        <time>2013-03-10T12:23:05Z</time>
      </trkpt>
      <trkpt lat="59.8765" lon="17.6950671">
        <ele>16.9604</ele>
        <time>2013-03-10T12:23:06Z</time>
      </trkpt>
      <trkpt lat="59.8765022" lon="17.6950909">
        <ele>16.4797</ele>
        <time>2013-03-10T12:23:07Z</time>
      </trkpt>
      <trkpt lat="59.8765077" lon="17.6951129">
        <ele>16.4797</ele>
        <time>2013-03-10T12:23:08Z</time>
      </trkpt>
      <trkpt lat="59.8765177" lon="17.6951314">
        <ele>16.4797</ele>
        <time>2013-03-10T12:23:09Z</time>
      </trkpt>
      <trkpt lat="59.8765241" lon="17.695149">
        <ele>16.9604</ele>
        <time>2013-03-10T12:23:10Z</time>
      </trkpt>
      <trkpt lat="59.8765342" lon="17.6951723">
        <ele>16.9604</ele>
        <time>2013-03-10T12:23:11Z</time>
      </trkpt>
      <trkpt lat="59.8765415" lon="17.695193">
        <ele>17.4412</ele>
        <time>2013-03-10T12:23:12Z</time>
      </trkpt>
      <trkpt lat="59.8765488" lon="17.6952168">
        <ele>17.4412</ele>
        <time>2013-03-10T12:23:13Z</time>
      </trkpt>
      <trkpt lat="59.8765566" lon="17.6952367">
        <ele>17.9218</ele>
        <time>2013-03-10T12:23:14Z</time>
      </trkpt>
      <trkpt lat="59.8765675" lon="17.6952519">
        <ele>18.4023</ele>
        <time>2013-03-10T12:23:15Z</time>
      </trkpt>
      <trkpt lat="59.8765878" lon="17.6952654">
        <ele>18.8831</ele>
        <time>2013-03-10T12:23:16Z</time>
      </trkpt>
      <trkpt lat="59.8765968" lon="17.6952797">
        <ele>18.8831</ele>
        <time>2013-03-10T12:23:17Z</time>
      </trkpt>
      <trkpt lat="59.876602" lon="17.6953041">
        <ele>18.8831</ele>
        <time>2013-03-10T12:23:18Z</time>
      </trkpt>
      <trkpt lat="59.8766088" lon="17.6953151">
        <ele>19.3638</ele>
        <time>2013-03-10T12:23:19Z</time>
      </trkpt>
      <trkpt lat="59.8766239" lon="17.6953225">
        <ele>17.4412</ele>
        <time>2013-03-10T12:23:20Z</time>
      </trkpt>
      <trkpt lat="59.8766364" lon="17.695356">
        <ele>17.9218</ele>
        <time>2013-03-10T12:23:21Z</time>
      </trkpt>
      <trkpt lat="59.8766461" lon="17.6953622">
        <ele>16.4797</ele>
        <time>2013-03-10T12:23:22Z</time>
      </trkpt>
      <trkpt lat="59.87666" lon="17.6953766">
        <ele>15.5184</ele>
        <time>2013-03-10T12:23:23Z</time>
      </trkpt>
      <trkpt lat="59.8766772" lon="17.6953928">
        <ele>14.557</ele>
        <time>2013-03-10T12:23:24Z</time>
      </trkpt>
      <trkpt lat="59.8766976" lon="17.6954115">
        <ele>14.0764</ele>
        <time>2013-03-10T12:23:25Z</time>
      </trkpt>
      <trkpt lat="59.8767083" lon="17.6954419">
        <ele>13.1151</ele>
        <time>2013-03-10T12:23:26Z</time>
      </trkpt>
      <trkpt lat="59.8767196" lon="17.695494">
        <ele>12.6344</ele>
        <time>2013-03-10T12:23:27Z</time>
      </trkpt>
      <trkpt lat="59.8767269" lon="17.6955188">
        <ele>11.1925</ele>
        <time>2013-03-10T12:23:28Z</time>
      </trkpt>
      <trkpt lat="59.8767302" lon="17.6955369">
        <ele>10.7118</ele>
        <time>2013-03-10T12:23:29Z</time>
      </trkpt>
      <trkpt lat="59.876731" lon="17.6955615">
        <ele>11.1925</ele>
        <time>2013-03-10T12:23:30Z</time>
      </trkpt>
      <trkpt lat="59.8767317" lon="17.69558">
        <ele>12.1538</ele>
        <time>2013-03-10T12:23:31Z</time>
      </trkpt>
      <trkpt lat="59.876729" lon="17.6956125">
        <ele>12.1538</ele>
        <time>2013-03-10T12:23:32Z</time>
      </trkpt>
      <trkpt lat="59.8767292" lon="17.6956506">
        <ele>12.6344</ele>
        <time>2013-03-10T12:23:33Z</time>
      </trkpt>
      <trkpt lat="59.8767343" lon="17.6956747">
        <ele>13.1151</ele>
        <time>2013-03-10T12:23:34Z</time>
      </trkpt>
      <trkpt lat="59.8767387" lon="17.6957083">
        <ele>14.0764</ele>
        <time>2013-03-10T12:23:35Z</time>
      </trkpt>
      <trkpt lat="59.8767457" lon="17.695733">
        <ele>14.557</ele>
        <time>2013-03-10T12:23:36Z</time>
      </trkpt>
      <trkpt lat="59.8767522" lon="17.6957569">
        <ele>15.0377</ele>
        <time>2013-03-10T12:23:37Z</time>
      </trkpt>
      <trkpt lat="59.8767575" lon="17.6957783">
        <ele>15.0377</ele>
        <time>2013-03-10T12:23:38Z</time>
      </trkpt>
      <trkpt lat="59.8767629" lon="17.6958016">
        <ele>15.5184</ele>
        <time>2013-03-10T12:23:39Z</time>
      </trkpt>
      <trkpt lat="59.87677" lon="17.6958226">
        <ele>15.999</ele>
        <time>2013-03-10T12:23:40Z</time>
      </trkpt>
      <trkpt lat="59.8767779" lon="17.6958407">
        <ele>16.4797</ele>
        <time>2013-03-10T12:23:41Z</time>
      </trkpt>
      <trkpt lat="59.8767856" lon="17.6958607">
        <ele>16.4797</ele>
        <time>2013-03-10T12:23:42Z</time>
      </trkpt>
      <trkpt lat="59.8767911" lon="17.6958858">
        <ele>16.4797</ele>
        <time>2013-03-10T12:23:43Z</time>
      </trkpt>
      <trkpt lat="59.8767978" lon="17.6959093">
        <ele>16.9604</ele>
        <time>2013-03-10T12:23:44Z</time>
      </trkpt>
      <trkpt lat="59.8768043" lon="17.6959326">
        <ele>16.9604</ele>
        <time>2013-03-10T12:23:45Z</time>
      </trkpt>
      <trkpt lat="59.8768121" lon="17.6959554">
        <ele>16.9604</ele>
        <time>2013-03-10T12:23:46Z</time>
      </trkpt>
      <trkpt lat="59.8768213" lon="17.6959783">
        <ele>16.9604</ele>
        <time>2013-03-10T12:23:47Z</time>
      </trkpt>
      <trkpt lat="59.8768291" lon="17.6960013">
        <ele>17.4412</ele>
        <time>2013-03-10T12:23:48Z</time>
      </trkpt>
      <trkpt lat="59.8768363" lon="17.6960228">
        <ele>17.4412</ele>
        <time>2013-03-10T12:23:49Z</time>
      </trkpt>
      <trkpt lat="59.8768442" lon="17.6960431">
        <ele>17.9218</ele>
        <time>2013-03-10T12:23:50Z</time>
      </trkpt>
      <trkpt lat="59.8768519" lon="17.6960647">
        <ele>17.9218</ele>
        <time>2013-03-10T12:23:51Z</time>
      </trkpt>
      <trkpt lat="59.8768599" lon="17.6960875">
        <ele>17.9218</ele>
        <time>2013-03-10T12:23:52Z</time>
      </trkpt>
      <trkpt lat="59.8768663" lon="17.6961092">
        <ele>17.9218</ele>
        <time>2013-03-10T12:23:53Z</time>
      </trkpt>
      <trkpt lat="59.8768705" lon="17.6961321">
        <ele>18.4023</ele>
        <time>2013-03-10T12:23:54Z</time>
      </trkpt>
      <trkpt lat="59.8768752" lon="17.6961543">
        <ele>18.4023</ele>
        <time>2013-03-10T12:23:55Z</time>
      </trkpt>
      <trkpt lat="59.8768814" lon="17.696174">
        <ele>18.4023</ele>
        <time>2013-03-10T12:23:56Z</time>
      </trkpt>
      <trkpt lat="59.8768886" lon="17.6961946">
        <ele>18.4023</ele>
        <time>2013-03-10T12:23:57Z</time>
      </trkpt>
      <trkpt lat="59.8768955" lon="17.6962163">
        <ele>18.8831</ele>
        <time>2013-03-10T12:23:58Z</time>
      </trkpt>
      <trkpt lat="59.8769019" lon="17.6962388">
        <ele>18.8831</ele>
        <time>2013-03-10T12:23:59Z</time>
      </trkpt>
      <trkpt lat="59.8769069" lon="17.6962624">
        <ele>19.3638</ele>
        <time>2013-03-10T12:24:00Z</time>
      </trkpt>
      <trkpt lat="59.8769128" lon="17.6962855">
        <ele>19.8444</ele>
        <time>2013-03-10T12:24:01Z</time>
      </trkpt>
      <trkpt lat="59.8769188" lon="17.6963075">
        <ele>19.8444</ele>
        <time>2013-03-10T12:24:02Z</time>
      </trkpt>
      <trkpt lat="59.8769249" lon="17.696329">
        <ele>19.8444</ele>
        <time>2013-03-10T12:24:03Z</time>
      </trkpt>
      <trkpt lat="59.8769315" lon="17.6963511">
        <ele>20.325</ele>
        <time>2013-03-10T12:24:04Z</time>
      </trkpt>
      <trkpt lat="59.8769381" lon="17.6963736">
        <ele>20.325</ele>
        <time>2013-03-10T12:24:05Z</time>
      </trkpt>
      <trkpt lat="59.8769455" lon="17.6963962">
        <ele>20.8057</ele>
        <time>2013-03-10T12:24:06Z</time>
      </trkpt>
      <trkpt lat="59.8769506" lon="17.696417">
        <ele>20.8057</ele>
        <time>2013-03-10T12:24:07Z</time>
      </trkpt>
      <trkpt lat="59.8769575" lon="17.6964392">
        <ele>20.8057</ele>
        <time>2013-03-10T12:24:08Z</time>
      </trkpt>
      <trkpt lat="59.8769683" lon="17.6964632">
        <ele>21.2864</ele>
        <time>2013-03-10T12:24:09Z</time>
      </trkpt>
      <trkpt lat="59.8769797" lon="17.6964868">
        <ele>21.2864</ele>
        <time>2013-03-10T12:24:10Z</time>
      </trkpt>
      <trkpt lat="59.876987" lon="17.6965093">
        <ele>21.2864</ele>
        <time>2013-03-10T12:24:11Z</time>
      </trkpt>
      <trkpt lat="59.8769927" lon="17.6965318">
        <ele>21.767</ele>
        <time>2013-03-10T12:24:12Z</time>
      </trkpt>
      <trkpt lat="59.8769995" lon="17.6965552">
        <ele>21.767</ele>
        <time>2013-03-10T12:24:13Z</time>
      </trkpt>
      <trkpt lat="59.8770067" lon="17.6965791">
        <ele>22.2476</ele>
        <time>2013-03-10T12:24:14Z</time>
      </trkpt>
      <trkpt lat="59.8770135" lon="17.6966046">
        <ele>22.2476</ele>
        <time>2013-03-10T12:24:15Z</time>
      </trkpt>
      <trkpt lat="59.8770197" lon="17.6966293">
        <ele>22.2476</ele>
        <time>2013-03-10T12:24:16Z</time>
      </trkpt>
      <trkpt lat="59.877026" lon="17.6966533">
        <ele>22.7283</ele>
        <time>2013-03-10T12:24:17Z</time>
      </trkpt>
      <trkpt lat="59.8770329" lon="17.6966769">
        <ele>22.7283</ele>
        <time>2013-03-10T12:24:18Z</time>
      </trkpt>
      <trkpt lat="59.8770403" lon="17.6966999">
        <ele>23.209</ele>
        <time>2013-03-10T12:24:19Z</time>
      </trkpt>
      <trkpt lat="59.8770477" lon="17.6967231">
        <ele>23.209</ele>
        <time>2013-03-10T12:24:20Z</time>
      </trkpt>
      <trkpt lat="59.8770544" lon="17.6967464">
        <ele>23.6896</ele>
        <time>2013-03-10T12:24:21Z</time>
      </trkpt>
      <trkpt lat="59.8770609" lon="17.6967692">
        <ele>23.6896</ele>
        <time>2013-03-10T12:24:22Z</time>
      </trkpt>
      <trkpt lat="59.8770682" lon="17.6967926">
        <ele>24.1703</ele>
        <time>2013-03-10T12:24:23Z</time>
      </trkpt>
      <trkpt lat="59.8770752" lon="17.6968148">
        <ele>24.1703</ele>
        <time>2013-03-10T12:24:24Z</time>
      </trkpt>
      <trkpt lat="59.8770829" lon="17.6968372">
        <ele>24.651</ele>
        <time>2013-03-10T12:24:25Z</time>
      </trkpt>
      <trkpt lat="59.8770901" lon="17.6968604">
        <ele>24.651</ele>
        <time>2013-03-10T12:24:26Z</time>
      </trkpt>
      <trkpt lat="59.8770977" lon="17.6968842">
        <ele>24.651</ele>
        <time>2013-03-10T12:24:27Z</time>
      </trkpt>
      <trkpt lat="59.8771052" lon="17.6969087">
        <ele>25.1317</ele>
        <time>2013-03-10T12:24:28Z</time>
      </trkpt>
      <trkpt lat="59.877112" lon="17.6969332">
        <ele>25.1317</ele>
        <time>2013-03-10T12:24:29Z</time>
      </trkpt>
      <trkpt lat="59.8771179" lon="17.6969578">
        <ele>25.6123</ele>
        <time>2013-03-10T12:24:30Z</time>
      </trkpt>
      <trkpt lat="59.8771238" lon="17.6969821">
        <ele>25.6123</ele>
        <time>2013-03-10T12:24:31Z</time>
      </trkpt>
      <trkpt lat="59.8771298" lon="17.6970069">
        <ele>25.6123</ele>
        <time>2013-03-10T12:24:32Z</time>
      </trkpt>
      <trkpt lat="59.8771363" lon="17.6970313">
        <ele>26.0929</ele>
        <time>2013-03-10T12:24:33Z</time>
      </trkpt>
      <trkpt lat="59.8771429" lon="17.6970535">
        <ele>26.0929</ele>
        <time>2013-03-10T12:24:34Z</time>
      </trkpt>
      <trkpt lat="59.8771492" lon="17.6970744">
        <ele>26.0929</ele>
        <time>2013-03-10T12:24:35Z</time>
      </trkpt>
      <trkpt lat="59.8771555" lon="17.6970955">
        <ele>26.5736</ele>
        <time>2013-03-10T12:24:36Z</time>
      </trkpt>
      <trkpt lat="59.8771615" lon="17.6971179">
        <ele>26.5736</ele>
        <time>2013-03-10T12:24:37Z</time>
      </trkpt>
      <trkpt lat="59.8771672" lon="17.6971402">
        <ele>26.5736</ele>
        <time>2013-03-10T12:24:38Z</time>
      </trkpt>
      <trkpt lat="59.8771725" lon="17.6971606">
        <ele>27.0543</ele>
        <time>2013-03-10T12:24:39Z</time>
      </trkpt>
      <trkpt lat="59.8771777" lon="17.6971808">
        <ele>27.0543</ele>
        <time>2013-03-10T12:24:40Z</time>
      </trkpt>
      <trkpt lat="59.8771834" lon="17.6972013">
        <ele>27.0543</ele>
        <time>2013-03-10T12:24:41Z</time>
      </trkpt>
      <trkpt lat="59.8771884" lon="17.6972225">
        <ele>27.0543</ele>
        <time>2013-03-10T12:24:42Z</time>
      </trkpt>
      <trkpt lat="59.8771963" lon="17.6972452">
        <ele>27.5349</ele>
        <time>2013-03-10T12:24:43Z</time>
      </trkpt>
      <trkpt lat="59.8772036" lon="17.6972684">
        <ele>27.5349</ele>
        <time>2013-03-10T12:24:44Z</time>
      </trkpt>
      <trkpt lat="59.8772093" lon="17.6972938">
        <ele>27.5349</ele>
        <time>2013-03-10T12:24:45Z</time>
      </trkpt>
      <trkpt lat="59.8772153" lon="17.6973176">
        <ele>28.0155</ele>
        <time>2013-03-10T12:24:46Z</time>
      </trkpt>
      <trkpt lat="59.877222" lon="17.6973409">
        <ele>28.0155</ele>
        <time>2013-03-10T12:24:47Z</time>
      </trkpt>
      <trkpt lat="59.8772273" lon="17.6973639">
        <ele>28.4962</ele>
        <time>2013-03-10T12:24:48Z</time>
      </trkpt>
      <trkpt lat="59.8772331" lon="17.697387">
        <ele>28.4962</ele>
        <time>2013-03-10T12:24:49Z</time>
      </trkpt>
      <trkpt lat="59.8772383" lon="17.697411">
        <ele>28.4962</ele>
        <time>2013-03-10T12:24:50Z</time>
      </trkpt>
      <trkpt lat="59.877244" lon="17.6974339">
        <ele>28.9769</ele>
        <time>2013-03-10T12:24:51Z</time>
      </trkpt>
      <trkpt lat="59.8772503" lon="17.6974566">
        <ele>28.9769</ele>
        <time>2013-03-10T12:24:52Z</time>
      </trkpt>
      <trkpt lat="59.8772526" lon="17.6974794">
        <ele>28.9769</ele>
        <time>2013-03-10T12:24:53Z</time>
      </trkpt>
      <trkpt lat="59.8772569" lon="17.6975007">
        <ele>28.9769</ele>
        <time>2013-03-10T12:24:54Z</time>
      </trkpt>
      <trkpt lat="59.8772632" lon="17.6975218">
        <ele>28.9769</ele>
        <time>2013-03-10T12:24:55Z</time>
      </trkpt>
      <trkpt lat="59.8772702" lon="17.6975447">
        <ele>28.9769</ele>
        <time>2013-03-10T12:24:56Z</time>
      </trkpt>
      <trkpt lat="59.877277" lon="17.697568">
        <ele>28.9769</ele>
        <time>2013-03-10T12:24:57Z</time>
      </trkpt>
      <trkpt lat="59.8772821" lon="17.6975901">
        <ele>28.9769</ele>
        <time>2013-03-10T12:24:58Z</time>
      </trkpt>
      <trkpt lat="59.8772886" lon="17.6976142">
        <ele>29.4575</ele>
        <time>2013-03-10T12:24:59Z</time>
      </trkpt>
      <trkpt lat="59.8772951" lon="17.6976379">
        <ele>29.4575</ele>
        <time>2013-03-10T12:25:00Z</time>
      </trkpt>
      <trkpt lat="59.8773014" lon="17.6976598">
        <ele>29.4575</ele>
        <time>2013-03-10T12:25:01Z</time>
      </trkpt>
      <trkpt lat="59.8773099" lon="17.697684">
        <ele>29.9381</ele>
        <time>2013-03-10T12:25:02Z</time>
      </trkpt>
      <trkpt lat="59.8773191" lon="17.6977084">
        <ele>29.9381</ele>
        <time>2013-03-10T12:25:03Z</time>
      </trkpt>
      <trkpt lat="59.8773267" lon="17.6977334">
        <ele>29.9381</ele>
        <time>2013-03-10T12:25:04Z</time>
      </trkpt>
      <trkpt lat="59.8773313" lon="17.6977634">
        <ele>29.9381</ele>
        <time>2013-03-10T12:25:05Z</time>
      </trkpt>
      <trkpt lat="59.877317" lon="17.6977888">
        <ele>27.5349</ele>
        <time>2013-03-10T12:25:06Z</time>
      </trkpt>
      <trkpt lat="59.8773221" lon="17.6978063">
        <ele>27.5349</ele>
        <time>2013-03-10T12:25:07Z</time>
      </trkpt>
      <trkpt lat="59.877328" lon="17.6978249">
        <ele>28.0155</ele>
        <time>2013-03-10T12:25:08Z</time>
      </trkpt>
      <trkpt lat="59.877335" lon="17.6978466">
        <ele>28.0155</ele>
        <time>2013-03-10T12:25:09Z</time>
      </trkpt>
      <trkpt lat="59.8773424" lon="17.6978705">
        <ele>28.4962</ele>
        <time>2013-03-10T12:25:10Z</time>
      </trkpt>
      <trkpt lat="59.8773494" lon="17.6978933">
        <ele>28.4962</ele>
        <time>2013-03-10T12:25:11Z</time>
      </trkpt>
      <trkpt lat="59.877356" lon="17.6979175">
        <ele>28.9769</ele>
        <time>2013-03-10T12:25:12Z</time>
      </trkpt>
      <trkpt lat="59.877363" lon="17.6979414">
        <ele>28.9769</ele>
        <time>2013-03-10T12:25:13Z</time>
      </trkpt>
      <trkpt lat="59.8773698" lon="17.697967">
        <ele>29.4575</ele>
        <time>2013-03-10T12:25:14Z</time>
      </trkpt>
      <trkpt lat="59.8773761" lon="17.697992">
        <ele>29.4575</ele>
        <time>2013-03-10T12:25:15Z</time>
      </trkpt>
      <trkpt lat="59.8773808" lon="17.6980166">
        <ele>29.4575</ele>
        <time>2013-03-10T12:25:16Z</time>
      </trkpt>
      <trkpt lat="59.877387" lon="17.6980409">
        <ele>29.4575</ele>
        <time>2013-03-10T12:25:17Z</time>
      </trkpt>
      <trkpt lat="59.8773922" lon="17.6980661">
        <ele>29.4575</ele>
        <time>2013-03-10T12:25:18Z</time>
      </trkpt>
      <trkpt lat="59.8773978" lon="17.6980932">
        <ele>29.4575</ele>
        <time>2013-03-10T12:25:19Z</time>
      </trkpt>
      <trkpt lat="59.8774039" lon="17.698118">
        <ele>29.4575</ele>
        <time>2013-03-10T12:25:20Z</time>
      </trkpt>
      <trkpt lat="59.8774097" lon="17.6981434">
        <ele>29.4575</ele>
        <time>2013-03-10T12:25:21Z</time>
      </trkpt>
      <trkpt lat="59.8774157" lon="17.698168">
        <ele>29.4575</ele>
        <time>2013-03-10T12:25:22Z</time>
      </trkpt>
      <trkpt lat="59.8774215" lon="17.6981947">
        <ele>29.4575</ele>
        <time>2013-03-10T12:25:23Z</time>
      </trkpt>
      <trkpt lat="59.8774262" lon="17.6982232">
        <ele>28.9769</ele>
        <time>2013-03-10T12:25:24Z</time>
      </trkpt>
      <trkpt lat="59.8774315" lon="17.6982491">
        <ele>28.4962</ele>
        <time>2013-03-10T12:25:25Z</time>
      </trkpt>
      <trkpt lat="59.8774372" lon="17.6982719">
        <ele>28.4962</ele>
        <time>2013-03-10T12:25:26Z</time>
      </trkpt>
      <trkpt lat="59.8774424" lon="17.6982947">
        <ele>28.4962</ele>
        <time>2013-03-10T12:25:27Z</time>
      </trkpt>
      <trkpt lat="59.8774486" lon="17.6983194">
        <ele>28.4962</ele>
        <time>2013-03-10T12:25:28Z</time>
      </trkpt>
      <trkpt lat="59.8774548" lon="17.6983441">
        <ele>28.9769</ele>
        <time>2013-03-10T12:25:29Z</time>
      </trkpt>
      <trkpt lat="59.8774606" lon="17.6983694">
        <ele>28.9769</ele>
        <time>2013-03-10T12:25:30Z</time>
      </trkpt>
      <trkpt lat="59.877466" lon="17.6983953">
        <ele>28.9769</ele>
        <time>2013-03-10T12:25:31Z</time>
      </trkpt>
      <trkpt lat="59.877472" lon="17.6984201">
        <ele>28.9769</ele>
        <time>2013-03-10T12:25:32Z</time>
      </trkpt>
      <trkpt lat="59.8774777" lon="17.6984456">
        <ele>28.4962</ele>
        <time>2013-03-10T12:25:33Z</time>
      </trkpt>
      <trkpt lat="59.8774846" lon="17.6984697">
        <ele>28.9769</ele>
        <time>2013-03-10T12:25:34Z</time>
      </trkpt>
      <trkpt lat="59.8774921" lon="17.6984932">
        <ele>28.9769</ele>
        <time>2013-03-10T12:25:35Z</time>
      </trkpt>
      <trkpt lat="59.8774981" lon="17.6985178">
        <ele>28.9769</ele>
        <time>2013-03-10T12:25:36Z</time>
      </trkpt>
      <trkpt lat="59.8775038" lon="17.6985439">
        <ele>28.9769</ele>
        <time>2013-03-10T12:25:37Z</time>
      </trkpt>
      <trkpt lat="59.8775102" lon="17.6985678">
        <ele>28.9769</ele>
        <time>2013-03-10T12:25:38Z</time>
      </trkpt>
      <trkpt lat="59.8775159" lon="17.6985891">
        <ele>28.9769</ele>
        <time>2013-03-10T12:25:39Z</time>
      </trkpt>
      <trkpt lat="59.8775222" lon="17.6986132">
        <ele>28.9769</ele>
        <time>2013-03-10T12:25:40Z</time>
      </trkpt>
      <trkpt lat="59.8775292" lon="17.6986387">
        <ele>28.9769</ele>
        <time>2013-03-10T12:25:41Z</time>
      </trkpt>
      <trkpt lat="59.8775367" lon="17.6986641">
        <ele>28.9769</ele>
        <time>2013-03-10T12:25:42Z</time>
      </trkpt>
      <trkpt lat="59.8775448" lon="17.6986903">
        <ele>29.4575</ele>
        <time>2013-03-10T12:25:43Z</time>
      </trkpt>
      <trkpt lat="59.8775526" lon="17.6987143">
        <ele>29.4575</ele>
        <time>2013-03-10T12:25:44Z</time>
      </trkpt>
      <trkpt lat="59.8775608" lon="17.6987392">
        <ele>29.9381</ele>
        <time>2013-03-10T12:25:45Z</time>
      </trkpt>
      <trkpt lat="59.8775676" lon="17.6987663">
        <ele>29.9381</ele>
        <time>2013-03-10T12:25:46Z</time>
      </trkpt>
      <trkpt lat="59.8775745" lon="17.698794">
        <ele>29.9381</ele>
        <time>2013-03-10T12:25:47Z</time>
      </trkpt>
      <trkpt lat="59.877582" lon="17.6988211">
        <ele>29.9381</ele>
        <time>2013-03-10T12:25:48Z</time>
      </trkpt>
      <trkpt lat="59.8775886" lon="17.6988475">
        <ele>29.9381</ele>
        <time>2013-03-10T12:25:49Z</time>
      </trkpt>
      <trkpt lat="59.877596" lon="17.6988711">
        <ele>29.9381</ele>
        <time>2013-03-10T12:25:50Z</time>
      </trkpt>
      <trkpt lat="59.8776033" lon="17.6988932">
        <ele>30.4188</ele>
        <time>2013-03-10T12:25:51Z</time>
      </trkpt>
      <trkpt lat="59.8776101" lon="17.6989162">
        <ele>30.4188</ele>
        <time>2013-03-10T12:25:52Z</time>
      </trkpt>
      <trkpt lat="59.8776174" lon="17.6989393">
        <ele>30.4188</ele>
        <time>2013-03-10T12:25:53Z</time>
      </trkpt>
      <trkpt lat="59.8776248" lon="17.6989626">
        <ele>30.4188</ele>
        <time>2013-03-10T12:25:54Z</time>
      </trkpt>
      <trkpt lat="59.8776335" lon="17.6989863">
        <ele>30.4188</ele>
        <time>2013-03-10T12:25:55Z</time>
      </trkpt>
      <trkpt lat="59.8776407" lon="17.6990095">
        <ele>30.4188</ele>
        <time>2013-03-10T12:25:56Z</time>
      </trkpt>
      <trkpt lat="59.8776487" lon="17.6990335">
        <ele>30.8995</ele>
        <time>2013-03-10T12:25:57Z</time>
      </trkpt>
      <trkpt lat="59.8776556" lon="17.6990574">
        <ele>30.8995</ele>
        <time>2013-03-10T12:25:58Z</time>
      </trkpt>
      <trkpt lat="59.8776615" lon="17.6990804">
        <ele>30.4188</ele>
        <time>2013-03-10T12:25:59Z</time>
      </trkpt>
      <trkpt lat="59.8776675" lon="17.699105">
        <ele>30.4188</ele>
        <time>2013-03-10T12:26:00Z</time>
      </trkpt>
      <trkpt lat="59.8776734" lon="17.699128">
        <ele>30.4188</ele>
        <time>2013-03-10T12:26:01Z</time>
      </trkpt>
      <trkpt lat="59.8776789" lon="17.6991509">
        <ele>30.4188</ele>
        <time>2013-03-10T12:26:02Z</time>
      </trkpt>
      <trkpt lat="59.8776852" lon="17.6991749">
        <ele>30.4188</ele>
        <time>2013-03-10T12:26:03Z</time>
      </trkpt>
      <trkpt lat="59.8776922" lon="17.6991995">
        <ele>30.4188</ele>
        <time>2013-03-10T12:26:04Z</time>
      </trkpt>
      <trkpt lat="59.8776989" lon="17.6992221">
        <ele>29.9381</ele>
        <time>2013-03-10T12:26:05Z</time>
      </trkpt>
      <trkpt lat="59.8777054" lon="17.6992448">
        <ele>29.9381</ele>
        <time>2013-03-10T12:26:06Z</time>
      </trkpt>
      <trkpt lat="59.8777119" lon="17.6992672">
        <ele>29.9381</ele>
        <time>2013-03-10T12:26:07Z</time>
      </trkpt>
      <trkpt lat="59.8777185" lon="17.6992898">
        <ele>29.9381</ele>
        <time>2013-03-10T12:26:08Z</time>
      </trkpt>
      <trkpt lat="59.8777252" lon="17.699311">
        <ele>29.9381</ele>
        <time>2013-03-10T12:26:09Z</time>
      </trkpt>
      <trkpt lat="59.8777314" lon="17.6993339">
        <ele>29.4575</ele>
        <time>2013-03-10T12:26:10Z</time>
      </trkpt>
      <trkpt lat="59.8777383" lon="17.6993575">
        <ele>29.4575</ele>
        <time>2013-03-10T12:26:11Z</time>
      </trkpt>
      <trkpt lat="59.8777459" lon="17.6993806">
        <ele>29.9381</ele>
        <time>2013-03-10T12:26:12Z</time>
      </trkpt>
      <trkpt lat="59.8777536" lon="17.6994038">
        <ele>29.9381</ele>
        <time>2013-03-10T12:26:13Z</time>
      </trkpt>
      <trkpt lat="59.8777603" lon="17.6994261">
        <ele>29.4575</ele>
        <time>2013-03-10T12:26:14Z</time>
      </trkpt>
      <trkpt lat="59.8777667" lon="17.6994488">
        <ele>29.4575</ele>
        <time>2013-03-10T12:26:15Z</time>
      </trkpt>
      <trkpt lat="59.877773" lon="17.6994713">
        <ele>29.4575</ele>
        <time>2013-03-10T12:26:16Z</time>
      </trkpt>
      <trkpt lat="59.8777795" lon="17.6994945">
        <ele>29.4575</ele>
        <time>2013-03-10T12:26:17Z</time>
      </trkpt>
      <trkpt lat="59.8777854" lon="17.6995182">
        <ele>29.4575</ele>
        <time>2013-03-10T12:26:18Z</time>
      </trkpt>
      <trkpt lat="59.877792" lon="17.6995416">
        <ele>29.4575</ele>
        <time>2013-03-10T12:26:19Z</time>
      </trkpt>
      <trkpt lat="59.8777987" lon="17.699566">
        <ele>29.4575</ele>
        <time>2013-03-10T12:26:20Z</time>
      </trkpt>
      <trkpt lat="59.877805" lon="17.6995889">
        <ele>29.4575</ele>
        <time>2013-03-10T12:26:21Z</time>
      </trkpt>
      <trkpt lat="59.877812" lon="17.6996095">
        <ele>29.4575</ele>
        <time>2013-03-10T12:26:22Z</time>
      </trkpt>
      <trkpt lat="59.8778182" lon="17.699631">
        <ele>28.9769</ele>
        <time>2013-03-10T12:26:23Z</time>
      </trkpt>
      <trkpt lat="59.877825" lon="17.6996521">
        <ele>28.9769</ele>
        <time>2013-03-10T12:26:24Z</time>
      </trkpt>
      <trkpt lat="59.8778323" lon="17.6996733">
        <ele>28.9769</ele>
        <time>2013-03-10T12:26:25Z</time>
      </trkpt>
      <trkpt lat="59.8778393" lon="17.6996955">
        <ele>28.9769</ele>
        <time>2013-03-10T12:26:26Z</time>
      </trkpt>
      <trkpt lat="59.8778458" lon="17.6997175">
        <ele>28.9769</ele>
        <time>2013-03-10T12:26:27Z</time>
      </trkpt>
      <trkpt lat="59.8778522" lon="17.699739">
        <ele>29.4575</ele>
        <time>2013-03-10T12:26:28Z</time>
      </trkpt>
      <trkpt lat="59.877859" lon="17.6997607">
        <ele>29.4575</ele>
        <time>2013-03-10T12:26:29Z</time>
      </trkpt>
      <trkpt lat="59.8778666" lon="17.6997815">
        <ele>29.4575</ele>
        <time>2013-03-10T12:26:30Z</time>
      </trkpt>
      <trkpt lat="59.8778742" lon="17.6998026">
        <ele>29.4575</ele>
        <time>2013-03-10T12:26:31Z</time>
      </trkpt>
      <trkpt lat="59.8778811" lon="17.6998261">
        <ele>29.4575</ele>
        <time>2013-03-10T12:26:32Z</time>
      </trkpt>
      <trkpt lat="59.8778884" lon="17.6998519">
        <ele>29.4575</ele>
        <time>2013-03-10T12:26:33Z</time>
      </trkpt>
      <trkpt lat="59.8778949" lon="17.6998752">
        <ele>29.4575</ele>
        <time>2013-03-10T12:26:34Z</time>
      </trkpt>
      <trkpt lat="59.8779007" lon="17.6998984">
        <ele>28.9769</ele>
        <time>2013-03-10T12:26:35Z</time>
      </trkpt>
      <trkpt lat="59.8779079" lon="17.699923">
        <ele>28.9769</ele>
        <time>2013-03-10T12:26:36Z</time>
      </trkpt>
      <trkpt lat="59.8779141" lon="17.6999472">
        <ele>28.9769</ele>
        <time>2013-03-10T12:26:37Z</time>
      </trkpt>
      <trkpt lat="59.8779201" lon="17.6999719">
        <ele>28.4962</ele>
        <time>2013-03-10T12:26:38Z</time>
      </trkpt>
      <trkpt lat="59.8779257" lon="17.6999964">
        <ele>28.4962</ele>
        <time>2013-03-10T12:26:39Z</time>
      </trkpt>
      <trkpt lat="59.8779323" lon="17.7000209">
        <ele>28.4962</ele>
        <time>2013-03-10T12:26:40Z</time>
      </trkpt>
      <trkpt lat="59.8779386" lon="17.7000442">
        <ele>28.4962</ele>
        <time>2013-03-10T12:26:41Z</time>
      </trkpt>
      <trkpt lat="59.8779449" lon="17.7000677">
        <ele>28.0155</ele>
        <time>2013-03-10T12:26:42Z</time>
      </trkpt>
      <trkpt lat="59.8779519" lon="17.7000901">
        <ele>28.0155</ele>
        <time>2013-03-10T12:26:43Z</time>
      </trkpt>
      <trkpt lat="59.8779583" lon="17.700113">
        <ele>28.0155</ele>
        <time>2013-03-10T12:26:44Z</time>
      </trkpt>
      <trkpt lat="59.8779661" lon="17.7001372">
        <ele>28.0155</ele>
        <time>2013-03-10T12:26:45Z</time>
      </trkpt>
      <trkpt lat="59.8779654" lon="17.7001578">
        <ele>27.0543</ele>
        <time>2013-03-10T12:26:46Z</time>
      </trkpt>
      <trkpt lat="59.877965" lon="17.7001778">
        <ele>26.0929</ele>
        <time>2013-03-10T12:26:47Z</time>
      </trkpt>
      <trkpt lat="59.8779657" lon="17.7002">
        <ele>25.1317</ele>
        <time>2013-03-10T12:26:48Z</time>
      </trkpt>
      <trkpt lat="59.8779676" lon="17.7002221">
        <ele>24.651</ele>
        <time>2013-03-10T12:26:49Z</time>
      </trkpt>
      <trkpt lat="59.8779708" lon="17.7002438">
        <ele>24.1703</ele>
        <time>2013-03-10T12:26:50Z</time>
      </trkpt>
      <trkpt lat="59.8779752" lon="17.7002654">
        <ele>23.6896</ele>
        <time>2013-03-10T12:26:51Z</time>
      </trkpt>
      <trkpt lat="59.877981" lon="17.7002854">
        <ele>23.6896</ele>
        <time>2013-03-10T12:26:52Z</time>
      </trkpt>
      <trkpt lat="59.8779868" lon="17.7003052">
        <ele>23.209</ele>
        <time>2013-03-10T12:26:53Z</time>
      </trkpt>
      <trkpt lat="59.8779925" lon="17.7003265">
        <ele>22.7283</ele>
        <time>2013-03-10T12:26:54Z</time>
      </trkpt>
      <trkpt lat="59.8779977" lon="17.700348">
        <ele>22.7283</ele>
        <time>2013-03-10T12:26:55Z</time>
      </trkpt>
      <trkpt lat="59.8780039" lon="17.7003679">
        <ele>22.7283</ele>
        <time>2013-03-10T12:26:56Z</time>
      </trkpt>
      <trkpt lat="59.8780112" lon="17.7003879">
        <ele>22.2476</ele>
        <time>2013-03-10T12:26:57Z</time>
      </trkpt>
      <trkpt lat="59.8780184" lon="17.7004088">
        <ele>22.2476</ele>
        <time>2013-03-10T12:26:58Z</time>
      </trkpt>
      <trkpt lat="59.8780247" lon="17.7004305">
        <ele>22.2476</ele>
        <time>2013-03-10T12:26:59Z</time>
      </trkpt>
      <trkpt lat="59.8780324" lon="17.7004528">
        <ele>22.2476</ele>
        <time>2013-03-10T12:27:00Z</time>
      </trkpt>
      <trkpt lat="59.8780376" lon="17.7004743">
        <ele>22.2476</ele>
        <time>2013-03-10T12:27:01Z</time>
      </trkpt>
      <trkpt lat="59.8780433" lon="17.7004969">
        <ele>21.767</ele>
        <time>2013-03-10T12:27:02Z</time>
      </trkpt>
      <trkpt lat="59.8780506" lon="17.7005194">
        <ele>21.767</ele>
        <time>2013-03-10T12:27:03Z</time>
      </trkpt>
      <trkpt lat="59.8780588" lon="17.7005403">
        <ele>21.767</ele>
        <time>2013-03-10T12:27:04Z</time>
      </trkpt>
      <trkpt lat="59.8780666" lon="17.7005622">
        <ele>21.767</ele>
        <time>2013-03-10T12:27:05Z</time>
      </trkpt>
      <trkpt lat="59.8780747" lon="17.7005864">
        <ele>21.767</ele>
        <time>2013-03-10T12:27:06Z</time>
      </trkpt>
      <trkpt lat="59.878083" lon="17.7006097">
        <ele>21.767</ele>
        <time>2013-03-10T12:27:07Z</time>
      </trkpt>
      <trkpt lat="59.8780905" lon="17.7006313">
        <ele>21.767</ele>
        <time>2013-03-10T12:27:08Z</time>
      </trkpt>
      <trkpt lat="59.8780973" lon="17.7006537">
        <ele>21.2864</ele>
        <time>2013-03-10T12:27:09Z</time>
      </trkpt>
      <trkpt lat="59.8781044" lon="17.7006765">
        <ele>21.2864</ele>
        <time>2013-03-10T12:27:10Z</time>
      </trkpt>
      <trkpt lat="59.8781112" lon="17.7006982">
        <ele>21.2864</ele>
        <time>2013-03-10T12:27:11Z</time>
      </trkpt>
      <trkpt lat="59.8781198" lon="17.7007196">
        <ele>21.2864</ele>
        <time>2013-03-10T12:27:12Z</time>
      </trkpt>
      <trkpt lat="59.8781277" lon="17.7007413">
        <ele>21.2864</ele>
        <time>2013-03-10T12:27:13Z</time>
      </trkpt>
      <trkpt lat="59.8781353" lon="17.7007627">
        <ele>21.2864</ele>
        <time>2013-03-10T12:27:14Z</time>
      </trkpt>
      <trkpt lat="59.8781418" lon="17.7007837">
        <ele>21.2864</ele>
        <time>2013-03-10T12:27:15Z</time>
      </trkpt>
      <trkpt lat="59.878149" lon="17.7008043">
        <ele>20.8057</ele>
        <time>2013-03-10T12:27:16Z</time>
      </trkpt>
      <trkpt lat="59.8781571" lon="17.7008251">
        <ele>20.8057</ele>
        <time>2013-03-10T12:27:17Z</time>
      </trkpt>
      <trkpt lat="59.878166" lon="17.7008438">
        <ele>20.8057</ele>
        <time>2013-03-10T12:27:18Z</time>
      </trkpt>
      <trkpt lat="59.8781749" lon="17.7008624">
        <ele>20.325</ele>
        <time>2013-03-10T12:27:19Z</time>
      </trkpt>
      <trkpt lat="59.8781826" lon="17.7008843">
        <ele>20.325</ele>
        <time>2013-03-10T12:27:20Z</time>
      </trkpt>
      <trkpt lat="59.8781902" lon="17.7009064">
        <ele>20.325</ele>
        <time>2013-03-10T12:27:21Z</time>
      </trkpt>
      <trkpt lat="59.8781975" lon="17.7009259">
        <ele>20.325</ele>
        <time>2013-03-10T12:27:22Z</time>
      </trkpt>
      <trkpt lat="59.8782057" lon="17.700944">
        <ele>20.325</ele>
        <time>2013-03-10T12:27:23Z</time>
      </trkpt>
      <trkpt lat="59.8782132" lon="17.7009625">
        <ele>20.325</ele>
        <time>2013-03-10T12:27:24Z</time>
      </trkpt>
      <trkpt lat="59.8782203" lon="17.7009812">
        <ele>20.325</ele>
        <time>2013-03-10T12:27:25Z</time>
      </trkpt>
      <trkpt lat="59.878228" lon="17.701002">
        <ele>20.325</ele>
        <time>2013-03-10T12:27:26Z</time>
      </trkpt>
      <trkpt lat="59.8782344" lon="17.7010248">
        <ele>19.8444</ele>
        <time>2013-03-10T12:27:27Z</time>
      </trkpt>
      <trkpt lat="59.8782413" lon="17.7010478">
        <ele>20.325</ele>
        <time>2013-03-10T12:27:28Z</time>
      </trkpt>
      <trkpt lat="59.8782485" lon="17.7010704">
        <ele>20.325</ele>
        <time>2013-03-10T12:27:29Z</time>
      </trkpt>
      <trkpt lat="59.8782558" lon="17.701093">
        <ele>19.8444</ele>
        <time>2013-03-10T12:27:30Z</time>
      </trkpt>
      <trkpt lat="59.8782639" lon="17.7011137">
        <ele>20.325</ele>
        <time>2013-03-10T12:27:31Z</time>
      </trkpt>
      <trkpt lat="59.8782721" lon="17.7011351">
        <ele>19.8444</ele>
        <time>2013-03-10T12:27:32Z</time>
      </trkpt>
      <trkpt lat="59.8782806" lon="17.7011579">
        <ele>19.8444</ele>
        <time>2013-03-10T12:27:33Z</time>
      </trkpt>
      <trkpt lat="59.8782893" lon="17.70118">
        <ele>19.8444</ele>
        <time>2013-03-10T12:27:34Z</time>
      </trkpt>
      <trkpt lat="59.8782966" lon="17.7012016">
        <ele>19.8444</ele>
        <time>2013-03-10T12:27:35Z</time>
      </trkpt>
      <trkpt lat="59.8783054" lon="17.701224">
        <ele>19.8444</ele>
        <time>2013-03-10T12:27:36Z</time>
      </trkpt>
      <trkpt lat="59.878314" lon="17.701247">
        <ele>19.8444</ele>
        <time>2013-03-10T12:27:37Z</time>
      </trkpt>
      <trkpt lat="59.8783225" lon="17.7012687">
        <ele>19.8444</ele>
        <time>2013-03-10T12:27:38Z</time>
      </trkpt>
      <trkpt lat="59.8783312" lon="17.7012899">
        <ele>19.8444</ele>
        <time>2013-03-10T12:27:39Z</time>
      </trkpt>
      <trkpt lat="59.87834" lon="17.7013113">
        <ele>20.325</ele>
        <time>2013-03-10T12:27:40Z</time>
      </trkpt>
      <trkpt lat="59.8783488" lon="17.7013332">
        <ele>20.325</ele>
        <time>2013-03-10T12:27:41Z</time>
      </trkpt>
      <trkpt lat="59.8783571" lon="17.7013536">
        <ele>20.325</ele>
        <time>2013-03-10T12:27:42Z</time>
      </trkpt>
      <trkpt lat="59.8783674" lon="17.7013749">
        <ele>20.325</ele>
        <time>2013-03-10T12:27:43Z</time>
      </trkpt>
      <trkpt lat="59.878377" lon="17.7013951">
        <ele>20.8057</ele>
        <time>2013-03-10T12:27:44Z</time>
      </trkpt>
      <trkpt lat="59.8783849" lon="17.7014166">
        <ele>20.325</ele>
        <time>2013-03-10T12:27:45Z</time>
      </trkpt>
      <trkpt lat="59.8783936" lon="17.7014378">
        <ele>20.8057</ele>
        <time>2013-03-10T12:27:46Z</time>
      </trkpt>
      <trkpt lat="59.8784022" lon="17.7014578">
        <ele>20.8057</ele>
        <time>2013-03-10T12:27:47Z</time>
      </trkpt>
      <trkpt lat="59.8784115" lon="17.7014783">
        <ele>20.8057</ele>
        <time>2013-03-10T12:27:48Z</time>
      </trkpt>
      <trkpt lat="59.8784191" lon="17.7014987">
        <ele>20.8057</ele>
        <time>2013-03-10T12:27:49Z</time>
      </trkpt>
      <trkpt lat="59.8784266" lon="17.7015159">
        <ele>20.8057</ele>
        <time>2013-03-10T12:27:50Z</time>
      </trkpt>
      <trkpt lat="59.8784296" lon="17.7015292">
        <ele>20.325</ele>
        <time>2013-03-10T12:27:51Z</time>
      </trkpt>
      <trkpt lat="59.8784332" lon="17.7015406">
        <ele>20.325</ele>
        <time>2013-03-10T12:27:52Z</time>
      </trkpt>
      <trkpt lat="59.8784411" lon="17.7015573">
        <ele>20.325</ele>
        <time>2013-03-10T12:27:53Z</time>
      </trkpt>
      <trkpt lat="59.8784476" lon="17.7015784">
        <ele>20.325</ele>
        <time>2013-03-10T12:27:54Z</time>
      </trkpt>
      <trkpt lat="59.8784556" lon="17.7015991">
        <ele>20.325</ele>
        <time>2013-03-10T12:27:55Z</time>
      </trkpt>
      <trkpt lat="59.8784639" lon="17.7016199">
        <ele>20.325</ele>
        <time>2013-03-10T12:27:56Z</time>
      </trkpt>
      <trkpt lat="59.8784736" lon="17.701642">
        <ele>20.8057</ele>
        <time>2013-03-10T12:27:57Z</time>
      </trkpt>
      <trkpt lat="59.8784826" lon="17.7016643">
        <ele>20.8057</ele>
        <time>2013-03-10T12:27:58Z</time>
      </trkpt>
      <trkpt lat="59.8784915" lon="17.7016882">
        <ele>20.8057</ele>
        <time>2013-03-10T12:27:59Z</time>
      </trkpt>
      <trkpt lat="59.8785006" lon="17.7017099">
        <ele>20.8057</ele>
        <time>2013-03-10T12:28:00Z</time>
      </trkpt>
      <trkpt lat="59.8785098" lon="17.7017307">
        <ele>20.8057</ele>
        <time>2013-03-10T12:28:01Z</time>
      </trkpt>
      <trkpt lat="59.8785193" lon="17.7017545">
        <ele>20.8057</ele>
        <time>2013-03-10T12:28:02Z</time>
      </trkpt>
      <trkpt lat="59.8785279" lon="17.7017779">
        <ele>20.8057</ele>
        <time>2013-03-10T12:28:03Z</time>
      </trkpt>
      <trkpt lat="59.8785374" lon="17.7017997">
        <ele>21.2864</ele>
        <time>2013-03-10T12:28:04Z</time>
      </trkpt>
      <trkpt lat="59.8785471" lon="17.7018219">
        <ele>21.2864</ele>
        <time>2013-03-10T12:28:05Z</time>
      </trkpt>
      <trkpt lat="59.8785572" lon="17.7018434">
        <ele>21.767</ele>
        <time>2013-03-10T12:28:06Z</time>
      </trkpt>
      <trkpt lat="59.8785664" lon="17.7018642">
        <ele>21.767</ele>
        <time>2013-03-10T12:28:07Z</time>
      </trkpt>
      <trkpt lat="59.8785742" lon="17.7018864">
        <ele>21.767</ele>
        <time>2013-03-10T12:28:08Z</time>
      </trkpt>
      <trkpt lat="59.878582" lon="17.7019053">
        <ele>21.767</ele>
        <time>2013-03-10T12:28:09Z</time>
      </trkpt>
      <trkpt lat="59.8785901" lon="17.7019232">
        <ele>22.2476</ele>
        <time>2013-03-10T12:28:10Z</time>
      </trkpt>
      <trkpt lat="59.8785985" lon="17.7019426">
        <ele>22.2476</ele>
        <time>2013-03-10T12:28:11Z</time>
      </trkpt>
      <trkpt lat="59.8786074" lon="17.7019602">
        <ele>22.2476</ele>
        <time>2013-03-10T12:28:12Z</time>
      </trkpt>
      <trkpt lat="59.8786145" lon="17.7019789">
        <ele>22.2476</ele>
        <time>2013-03-10T12:28:13Z</time>
      </trkpt>
      <trkpt lat="59.8786213" lon="17.7020002">
        <ele>21.767</ele>
        <time>2013-03-10T12:28:14Z</time>
      </trkpt>
      <trkpt lat="59.8786295" lon="17.7020198">
        <ele>21.767</ele>
        <time>2013-03-10T12:28:15Z</time>
      </trkpt>
      <trkpt lat="59.8786378" lon="17.7020388">
        <ele>22.2476</ele>
        <time>2013-03-10T12:28:16Z</time>
      </trkpt>
      <trkpt lat="59.8786473" lon="17.7020592">
        <ele>22.2476</ele>
        <time>2013-03-10T12:28:17Z</time>
      </trkpt>
      <trkpt lat="59.8786566" lon="17.7020808">
        <ele>22.7283</ele>
        <time>2013-03-10T12:28:18Z</time>
      </trkpt>
      <trkpt lat="59.8786647" lon="17.7021032">
        <ele>22.7283</ele>
        <time>2013-03-10T12:28:19Z</time>
      </trkpt>
      <trkpt lat="59.8786738" lon="17.702125">
        <ele>23.209</ele>
        <time>2013-03-10T12:28:20Z</time>
      </trkpt>
      <trkpt lat="59.8786812" lon="17.7021476">
        <ele>23.209</ele>
        <time>2013-03-10T12:28:21Z</time>
      </trkpt>
      <trkpt lat="59.8786881" lon="17.7021693">
        <ele>23.209</ele>
        <time>2013-03-10T12:28:22Z</time>
      </trkpt>
      <trkpt lat="59.8786952" lon="17.7021872">
        <ele>23.209</ele>
        <time>2013-03-10T12:28:23Z</time>
      </trkpt>
      <trkpt lat="59.8787027" lon="17.7022076">
        <ele>23.209</ele>
        <time>2013-03-10T12:28:24Z</time>
      </trkpt>
      <trkpt lat="59.8787106" lon="17.7022288">
        <ele>23.209</ele>
        <time>2013-03-10T12:28:25Z</time>
      </trkpt>
      <trkpt lat="59.8787185" lon="17.7022507">
        <ele>23.209</ele>
        <time>2013-03-10T12:28:26Z</time>
      </trkpt>
      <trkpt lat="59.878725" lon="17.7022724">
        <ele>23.209</ele>
        <time>2013-03-10T12:28:27Z</time>
      </trkpt>
      <trkpt lat="59.8787323" lon="17.7022926">
        <ele>23.209</ele>
        <time>2013-03-10T12:28:28Z</time>
      </trkpt>
      <trkpt lat="59.87874" lon="17.7023124">
        <ele>23.209</ele>
        <time>2013-03-10T12:28:29Z</time>
      </trkpt>
      <trkpt lat="59.8787472" lon="17.7023327">
        <ele>23.209</ele>
        <time>2013-03-10T12:28:30Z</time>
      </trkpt>
      <trkpt lat="59.8787548" lon="17.7023532">
        <ele>23.6896</ele>
        <time>2013-03-10T12:28:31Z</time>
      </trkpt>
      <trkpt lat="59.8787623" lon="17.7023737">
        <ele>23.6896</ele>
        <time>2013-03-10T12:28:32Z</time>
      </trkpt>
      <trkpt lat="59.8787703" lon="17.7023954">
        <ele>23.6896</ele>
        <time>2013-03-10T12:28:33Z</time>
      </trkpt>
      <trkpt lat="59.8787782" lon="17.7024177">
        <ele>24.1703</ele>
        <time>2013-03-10T12:28:34Z</time>
      </trkpt>
      <trkpt lat="59.8787856" lon="17.7024408">
        <ele>23.6896</ele>
        <time>2013-03-10T12:28:35Z</time>
      </trkpt>
      <trkpt lat="59.8787945" lon="17.7024616">
        <ele>24.1703</ele>
        <time>2013-03-10T12:28:36Z</time>
      </trkpt>
      <trkpt lat="59.8788032" lon="17.7024824">
        <ele>24.651</ele>
        <time>2013-03-10T12:28:37Z</time>
      </trkpt>
      <trkpt lat="59.8788115" lon="17.7025046">
        <ele>24.651</ele>
        <time>2013-03-10T12:28:38Z</time>
      </trkpt>
      <trkpt lat="59.8788187" lon="17.702527">
        <ele>24.651</ele>
        <time>2013-03-10T12:28:39Z</time>
      </trkpt>
      <trkpt lat="59.8788266" lon="17.7025495">
        <ele>25.1317</ele>
        <time>2013-03-10T12:28:40Z</time>
      </trkpt>
      <trkpt lat="59.8788339" lon="17.70257">
        <ele>24.651</ele>
        <time>2013-03-10T12:28:41Z</time>
      </trkpt>
      <trkpt lat="59.8788426" lon="17.7025881">
        <ele>25.1317</ele>
        <time>2013-03-10T12:28:42Z</time>
      </trkpt>
      <trkpt lat="59.8788504" lon="17.7026083">
        <ele>25.1317</ele>
        <time>2013-03-10T12:28:43Z</time>
      </trkpt>
      <trkpt lat="59.8788581" lon="17.702629">
        <ele>25.1317</ele>
        <time>2013-03-10T12:28:44Z</time>
      </trkpt>
      <trkpt lat="59.8788655" lon="17.7026486">
        <ele>25.1317</ele>
        <time>2013-03-10T12:28:45Z</time>
      </trkpt>
      <trkpt lat="59.8788734" lon="17.7026686">
        <ele>25.1317</ele>
        <time>2013-03-10T12:28:46Z</time>
      </trkpt>
      <trkpt lat="59.8788813" lon="17.7026885">
        <ele>25.1317</ele>
        <time>2013-03-10T12:28:47Z</time>
      </trkpt>
      <trkpt lat="59.8788891" lon="17.7027101">
        <ele>25.6123</ele>
        <time>2013-03-10T12:28:48Z</time>
      </trkpt>
      <trkpt lat="59.8788973" lon="17.7027332">
        <ele>25.6123</ele>
        <time>2013-03-10T12:28:49Z</time>
      </trkpt>
      <trkpt lat="59.8789042" lon="17.7027559">
        <ele>25.6123</ele>
        <time>2013-03-10T12:28:50Z</time>
      </trkpt>
      <trkpt lat="59.8789113" lon="17.702778">
        <ele>25.6123</ele>
        <time>2013-03-10T12:28:51Z</time>
      </trkpt>
      <trkpt lat="59.8789187" lon="17.7028004">
        <ele>25.6123</ele>
        <time>2013-03-10T12:28:52Z</time>
      </trkpt>
      <trkpt lat="59.8789266" lon="17.702822">
        <ele>25.6123</ele>
        <time>2013-03-10T12:28:53Z</time>
      </trkpt>
      <trkpt lat="59.8789352" lon="17.7028429">
        <ele>25.6123</ele>
        <time>2013-03-10T12:28:54Z</time>
      </trkpt>
      <trkpt lat="59.8789425" lon="17.7028645">
        <ele>25.1317</ele>
        <time>2013-03-10T12:28:55Z</time>
      </trkpt>
      <trkpt lat="59.8789503" lon="17.7028867">
        <ele>25.6123</ele>
        <time>2013-03-10T12:28:56Z</time>
      </trkpt>
      <trkpt lat="59.8789579" lon="17.7029074">
        <ele>25.6123</ele>
        <time>2013-03-10T12:28:57Z</time>
      </trkpt>
      <trkpt lat="59.8789653" lon="17.7029266">
        <ele>25.1317</ele>
        <time>2013-03-10T12:28:58Z</time>
      </trkpt>
      <trkpt lat="59.8789736" lon="17.7029469">
        <ele>25.6123</ele>
        <time>2013-03-10T12:28:59Z</time>
      </trkpt>
      <trkpt lat="59.8789819" lon="17.7029675">
        <ele>25.6123</ele>
        <time>2013-03-10T12:29:00Z</time>
      </trkpt>
      <trkpt lat="59.8789906" lon="17.7029879">
        <ele>25.6123</ele>
        <time>2013-03-10T12:29:01Z</time>
      </trkpt>
      <trkpt lat="59.8789998" lon="17.7030074">
        <ele>25.6123</ele>
        <time>2013-03-10T12:29:02Z</time>
      </trkpt>
      <trkpt lat="59.8790078" lon="17.7030276">
        <ele>26.0929</ele>
        <time>2013-03-10T12:29:03Z</time>
      </trkpt>
      <trkpt lat="59.879016" lon="17.7030494">
        <ele>26.0929</ele>
        <time>2013-03-10T12:29:04Z</time>
      </trkpt>
      <trkpt lat="59.8790243" lon="17.7030707">
        <ele>26.0929</ele>
        <time>2013-03-10T12:29:05Z</time>
      </trkpt>
      <trkpt lat="59.8790307" lon="17.7030922">
        <ele>26.0929</ele>
        <time>2013-03-10T12:29:06Z</time>
      </trkpt>
      <trkpt lat="59.8790455" lon="17.7031366">
        <ele>26.0929</ele>
        <time>2013-03-10T12:29:08Z</time>
      </trkpt>
      <trkpt lat="59.8790537" lon="17.7031584">
        <ele>26.0929</ele>
        <time>2013-03-10T12:29:09Z</time>
      </trkpt>
      <trkpt lat="59.8790618" lon="17.7031786">
        <ele>26.0929</ele>
        <time>2013-03-10T12:29:10Z</time>
      </trkpt>
      <trkpt lat="59.8790705" lon="17.7031988">
        <ele>26.0929</ele>
        <time>2013-03-10T12:29:11Z</time>
      </trkpt>
      <trkpt lat="59.8790782" lon="17.7032174">
        <ele>26.0929</ele>
        <time>2013-03-10T12:29:12Z</time>
      </trkpt>
      <trkpt lat="59.8790844" lon="17.7032359">
        <ele>26.0929</ele>
        <time>2013-03-10T12:29:13Z</time>
      </trkpt>
      <trkpt lat="59.8790917" lon="17.7032527">
        <ele>26.0929</ele>
        <time>2013-03-10T12:29:14Z</time>
      </trkpt>
      <trkpt lat="59.8790989" lon="17.7032683">
        <ele>26.0929</ele>
        <time>2013-03-10T12:29:15Z</time>
      </trkpt>
      <trkpt lat="59.8791061" lon="17.7032858">
        <ele>26.5736</ele>
        <time>2013-03-10T12:29:16Z</time>
      </trkpt>
      <trkpt lat="59.8791136" lon="17.7033049">
        <ele>26.5736</ele>
        <time>2013-03-10T12:29:17Z</time>
      </trkpt>
      <trkpt lat="59.8791219" lon="17.703325">
        <ele>26.5736</ele>
        <time>2013-03-10T12:29:18Z</time>
      </trkpt>
      <trkpt lat="59.8791301" lon="17.7033454">
        <ele>26.5736</ele>
        <time>2013-03-10T12:29:19Z</time>
      </trkpt>
      <trkpt lat="59.8791388" lon="17.7033669">
        <ele>27.0543</ele>
        <time>2013-03-10T12:29:20Z</time>
      </trkpt>
      <trkpt lat="59.8791471" lon="17.7033868">
        <ele>27.0543</ele>
        <time>2013-03-10T12:29:21Z</time>
      </trkpt>
      <trkpt lat="59.8791543" lon="17.7034086">
        <ele>27.0543</ele>
        <time>2013-03-10T12:29:22Z</time>
      </trkpt>
      <trkpt lat="59.879162" lon="17.7034308">
        <ele>27.0543</ele>
        <time>2013-03-10T12:29:23Z</time>
      </trkpt>
      <trkpt lat="59.8791718" lon="17.7034529">
        <ele>27.5349</ele>
        <time>2013-03-10T12:29:24Z</time>
      </trkpt>
      <trkpt lat="59.8791808" lon="17.7034726">
        <ele>28.0155</ele>
        <time>2013-03-10T12:29:25Z</time>
      </trkpt>
      <trkpt lat="59.8791877" lon="17.7034914">
        <ele>28.0155</ele>
        <time>2013-03-10T12:29:26Z</time>
      </trkpt>
      <trkpt lat="59.8791963" lon="17.7035084">
        <ele>28.0155</ele>
        <time>2013-03-10T12:29:27Z</time>
      </trkpt>
      <trkpt lat="59.8792057" lon="17.7035254">
        <ele>28.4962</ele>
        <time>2013-03-10T12:29:28Z</time>
      </trkpt>
      <trkpt lat="59.8792135" lon="17.7035428">
        <ele>28.4962</ele>
        <time>2013-03-10T12:29:29Z</time>
      </trkpt>
      <trkpt lat="59.8792213" lon="17.7035618">
        <ele>28.4962</ele>
        <time>2013-03-10T12:29:30Z</time>
      </trkpt>
      <trkpt lat="59.8792281" lon="17.7035826">
        <ele>28.4962</ele>
        <time>2013-03-10T12:29:31Z</time>
      </trkpt>
      <trkpt lat="59.8792351" lon="17.7036045">
        <ele>28.4962</ele>
        <time>2013-03-10T12:29:32Z</time>
      </trkpt>
      <trkpt lat="59.8792426" lon="17.7036249">
        <ele>28.4962</ele>
        <time>2013-03-10T12:29:33Z</time>
      </trkpt>
      <trkpt lat="59.8792512" lon="17.7036456">
        <ele>28.4962</ele>
        <time>2013-03-10T12:29:34Z</time>
      </trkpt>
      <trkpt lat="59.8792593" lon="17.703668">
        <ele>28.4962</ele>
        <time>2013-03-10T12:29:35Z</time>
      </trkpt>
      <trkpt lat="59.8792678" lon="17.7036913">
        <ele>28.4962</ele>
        <time>2013-03-10T12:29:36Z</time>
      </trkpt>
      <trkpt lat="59.8792762" lon="17.7037146">
        <ele>28.4962</ele>
        <time>2013-03-10T12:29:37Z</time>
      </trkpt>
      <trkpt lat="59.8792848" lon="17.7037363">
        <ele>28.4962</ele>
        <time>2013-03-10T12:29:38Z</time>
      </trkpt>
      <trkpt lat="59.879292" lon="17.7037556">
        <ele>28.4962</ele>
        <time>2013-03-10T12:29:39Z</time>
      </trkpt>
      <trkpt lat="59.8792984" lon="17.7037738">
        <ele>28.0155</ele>
        <time>2013-03-10T12:29:40Z</time>
      </trkpt>
      <trkpt lat="59.8793054" lon="17.7037918">
        <ele>28.0155</ele>
        <time>2013-03-10T12:29:41Z</time>
      </trkpt>
      <trkpt lat="59.8793129" lon="17.7038112">
        <ele>28.0155</ele>
        <time>2013-03-10T12:29:42Z</time>
      </trkpt>
      <trkpt lat="59.8793201" lon="17.7038313">
        <ele>28.0155</ele>
        <time>2013-03-10T12:29:43Z</time>
      </trkpt>
      <trkpt lat="59.8793274" lon="17.7038502">
        <ele>28.0155</ele>
        <time>2013-03-10T12:29:44Z</time>
      </trkpt>
      <trkpt lat="59.8793342" lon="17.7038699">
        <ele>27.5349</ele>
        <time>2013-03-10T12:29:45Z</time>
      </trkpt>
      <trkpt lat="59.8793408" lon="17.7038913">
        <ele>27.5349</ele>
        <time>2013-03-10T12:29:46Z</time>
      </trkpt>
      <trkpt lat="59.8793469" lon="17.7039121">
        <ele>27.5349</ele>
        <time>2013-03-10T12:29:47Z</time>
      </trkpt>
      <trkpt lat="59.8793533" lon="17.7039328">
        <ele>27.5349</ele>
        <time>2013-03-10T12:29:48Z</time>
      </trkpt>
      <trkpt lat="59.8793599" lon="17.7039551">
        <ele>27.5349</ele>
        <time>2013-03-10T12:29:49Z</time>
      </trkpt>
      <trkpt lat="59.8793678" lon="17.7039772">
        <ele>27.5349</ele>
        <time>2013-03-10T12:29:50Z</time>
      </trkpt>
      <trkpt lat="59.8793745" lon="17.7039987">
        <ele>27.5349</ele>
        <time>2013-03-10T12:29:51Z</time>
      </trkpt>
      <trkpt lat="59.8793813" lon="17.7040209">
        <ele>27.5349</ele>
        <time>2013-03-10T12:29:52Z</time>
      </trkpt>
      <trkpt lat="59.8793891" lon="17.7040434">
        <ele>27.0543</ele>
        <time>2013-03-10T12:29:53Z</time>
      </trkpt>
      <trkpt lat="59.8793974" lon="17.7040649">
        <ele>27.5349</ele>
        <time>2013-03-10T12:29:54Z</time>
      </trkpt>
      <trkpt lat="59.8794047" lon="17.7040873">
        <ele>27.5349</ele>
        <time>2013-03-10T12:29:55Z</time>
      </trkpt>
      <trkpt lat="59.8794104" lon="17.7041099">
        <ele>27.5349</ele>
        <time>2013-03-10T12:29:56Z</time>
      </trkpt>
      <trkpt lat="59.8794165" lon="17.7041307">
        <ele>27.5349</ele>
        <time>2013-03-10T12:29:57Z</time>
      </trkpt>
      <trkpt lat="59.879423" lon="17.7041505">
        <ele>27.5349</ele>
        <time>2013-03-10T12:29:58Z</time>
      </trkpt>
      <trkpt lat="59.8794295" lon="17.7041691">
        <ele>27.0543</ele>
        <time>2013-03-10T12:29:59Z</time>
      </trkpt>
      <trkpt lat="59.8794365" lon="17.7041861">
        <ele>27.0543</ele>
        <time>2013-03-10T12:30:00Z</time>
      </trkpt>
      <trkpt lat="59.879444" lon="17.7042047">
        <ele>27.5349</ele>
        <time>2013-03-10T12:30:01Z</time>
      </trkpt>
      <trkpt lat="59.8794448" lon="17.7042235">
        <ele>26.5736</ele>
        <time>2013-03-10T12:30:02Z</time>
      </trkpt>
      <trkpt lat="59.879447" lon="17.7042451">
        <ele>26.0929</ele>
        <time>2013-03-10T12:30:03Z</time>
      </trkpt>
      <trkpt lat="59.8794546" lon="17.7042678">
        <ele>26.0929</ele>
        <time>2013-03-10T12:30:04Z</time>
      </trkpt>
      <trkpt lat="59.8794621" lon="17.7042906">
        <ele>26.0929</ele>
        <time>2013-03-10T12:30:05Z</time>
      </trkpt>
      <trkpt lat="59.87947" lon="17.7043128">
        <ele>26.0929</ele>
        <time>2013-03-10T12:30:06Z</time>
      </trkpt>
      <trkpt lat="59.8794772" lon="17.7043356">
        <ele>26.0929</ele>
        <time>2013-03-10T12:30:07Z</time>
      </trkpt>
      <trkpt lat="59.8794844" lon="17.7043591">
        <ele>26.0929</ele>
        <time>2013-03-10T12:30:08Z</time>
      </trkpt>
      <trkpt lat="59.8794916" lon="17.7043817">
        <ele>26.0929</ele>
        <time>2013-03-10T12:30:09Z</time>
      </trkpt>
      <trkpt lat="59.8794993" lon="17.7044027">
        <ele>26.0929</ele>
        <time>2013-03-10T12:30:10Z</time>
      </trkpt>
      <trkpt lat="59.8795072" lon="17.7044228">
        <ele>26.0929</ele>
        <time>2013-03-10T12:30:11Z</time>
      </trkpt>
      <trkpt lat="59.8795154" lon="17.704443">
        <ele>26.0929</ele>
        <time>2013-03-10T12:30:12Z</time>
      </trkpt>
      <trkpt lat="59.8795237" lon="17.7044632">
        <ele>26.0929</ele>
        <time>2013-03-10T12:30:13Z</time>
      </trkpt>
      <trkpt lat="59.8795324" lon="17.7044845">
        <ele>26.0929</ele>
        <time>2013-03-10T12:30:14Z</time>
      </trkpt>
      <trkpt lat="59.8795402" lon="17.704506">
        <ele>26.0929</ele>
        <time>2013-03-10T12:30:15Z</time>
      </trkpt>
      <trkpt lat="59.8795477" lon="17.7045276">
        <ele>26.0929</ele>
        <time>2013-03-10T12:30:16Z</time>
      </trkpt>
      <trkpt lat="59.8795552" lon="17.7045492">
        <ele>26.0929</ele>
        <time>2013-03-10T12:30:17Z</time>
      </trkpt>
      <trkpt lat="59.8795627" lon="17.7045706">
        <ele>25.6123</ele>
        <time>2013-03-10T12:30:18Z</time>
      </trkpt>
      <trkpt lat="59.8795705" lon="17.7045927">
        <ele>25.6123</ele>
        <time>2013-03-10T12:30:19Z</time>
      </trkpt>
      <trkpt lat="59.8795779" lon="17.7046148">
        <ele>25.6123</ele>
        <time>2013-03-10T12:30:20Z</time>
      </trkpt>
      <trkpt lat="59.8795859" lon="17.7046372">
        <ele>25.6123</ele>
        <time>2013-03-10T12:30:21Z</time>
      </trkpt>
      <trkpt lat="59.8795942" lon="17.7046591">
        <ele>26.0929</ele>
        <time>2013-03-10T12:30:22Z</time>
      </trkpt>
      <trkpt lat="59.8796023" lon="17.7046808">
        <ele>26.0929</ele>
        <time>2013-03-10T12:30:23Z</time>
      </trkpt>
      <trkpt lat="59.8796104" lon="17.704703">
        <ele>26.0929</ele>
        <time>2013-03-10T12:30:24Z</time>
      </trkpt>
      <trkpt lat="59.8796178" lon="17.7047262">
        <ele>26.0929</ele>
        <time>2013-03-10T12:30:25Z</time>
      </trkpt>
      <trkpt lat="59.8796248" lon="17.7047501">
        <ele>26.0929</ele>
        <time>2013-03-10T12:30:26Z</time>
      </trkpt>
      <trkpt lat="59.8796308" lon="17.7047746">
        <ele>26.0929</ele>
        <time>2013-03-10T12:30:27Z</time>
      </trkpt>
      <trkpt lat="59.8796375" lon="17.7047997">
        <ele>26.0929</ele>
        <time>2013-03-10T12:30:28Z</time>
      </trkpt>
      <trkpt lat="59.8796448" lon="17.7048239">
        <ele>26.0929</ele>
        <time>2013-03-10T12:30:29Z</time>
      </trkpt>
      <trkpt lat="59.8796522" lon="17.7048476">
        <ele>26.0929</ele>
        <time>2013-03-10T12:30:30Z</time>
      </trkpt>
      <trkpt lat="59.8796591" lon="17.7048718">
        <ele>26.0929</ele>
        <time>2013-03-10T12:30:31Z</time>
      </trkpt>
      <trkpt lat="59.8796665" lon="17.7048958">
        <ele>26.0929</ele>
        <time>2013-03-10T12:30:32Z</time>
      </trkpt>
      <trkpt lat="59.879674" lon="17.704918">
        <ele>26.0929</ele>
        <time>2013-03-10T12:30:33Z</time>
      </trkpt>
      <trkpt lat="59.8796806" lon="17.7049403">
        <ele>26.0929</ele>
        <time>2013-03-10T12:30:34Z</time>
      </trkpt>
      <trkpt lat="59.8796868" lon="17.7049634">
        <ele>26.0929</ele>
        <time>2013-03-10T12:30:35Z</time>
      </trkpt>
      <trkpt lat="59.8796931" lon="17.7049863">
        <ele>26.0929</ele>
        <time>2013-03-10T12:30:36Z</time>
      </trkpt>
      <trkpt lat="59.8797004" lon="17.7050097">
        <ele>26.0929</ele>
        <time>2013-03-10T12:30:37Z</time>
      </trkpt>
      <trkpt lat="59.8797076" lon="17.7050321">
        <ele>26.0929</ele>
        <time>2013-03-10T12:30:38Z</time>
      </trkpt>
      <trkpt lat="59.8797149" lon="17.7050551">
        <ele>26.0929</ele>
        <time>2013-03-10T12:30:39Z</time>
      </trkpt>
      <trkpt lat="59.8797221" lon="17.7050787">
        <ele>26.0929</ele>
        <time>2013-03-10T12:30:40Z</time>
      </trkpt>
      <trkpt lat="59.87973" lon="17.7051015">
        <ele>26.0929</ele>
        <time>2013-03-10T12:30:41Z</time>
      </trkpt>
      <trkpt lat="59.8797382" lon="17.705123">
        <ele>26.0929</ele>
        <time>2013-03-10T12:30:42Z</time>
      </trkpt>
      <trkpt lat="59.8797461" lon="17.7051443">
        <ele>26.0929</ele>
        <time>2013-03-10T12:30:43Z</time>
      </trkpt>
      <trkpt lat="59.8797536" lon="17.7051672">
        <ele>26.0929</ele>
        <time>2013-03-10T12:30:44Z</time>
      </trkpt>
      <trkpt lat="59.879761" lon="17.705191">
        <ele>26.0929</ele>
        <time>2013-03-10T12:30:45Z</time>
      </trkpt>
      <trkpt lat="59.8797682" lon="17.7052149">
        <ele>26.0929</ele>
        <time>2013-03-10T12:30:46Z</time>
      </trkpt>
      <trkpt lat="59.8797754" lon="17.7052383">
        <ele>26.0929</ele>
        <time>2013-03-10T12:30:47Z</time>
      </trkpt>
      <trkpt lat="59.8797831" lon="17.7052609">
        <ele>26.0929</ele>
        <time>2013-03-10T12:30:48Z</time>
      </trkpt>
      <trkpt lat="59.8797905" lon="17.7052832">
        <ele>26.0929</ele>
        <time>2013-03-10T12:30:49Z</time>
      </trkpt>
      <trkpt lat="59.8797983" lon="17.7053045">
        <ele>26.0929</ele>
        <time>2013-03-10T12:30:50Z</time>
      </trkpt>
      <trkpt lat="59.8798061" lon="17.7053262">
        <ele>26.0929</ele>
        <time>2013-03-10T12:30:51Z</time>
      </trkpt>
      <trkpt lat="59.8798138" lon="17.7053494">
        <ele>26.0929</ele>
        <time>2013-03-10T12:30:52Z</time>
      </trkpt>
      <trkpt lat="59.87982" lon="17.7053727">
        <ele>26.0929</ele>
        <time>2013-03-10T12:30:53Z</time>
      </trkpt>
      <trkpt lat="59.8798269" lon="17.705395">
        <ele>26.0929</ele>
        <time>2013-03-10T12:30:54Z</time>
      </trkpt>
      <trkpt lat="59.879834" lon="17.7054165">
        <ele>26.0929</ele>
        <time>2013-03-10T12:30:55Z</time>
      </trkpt>
      <trkpt lat="59.8798427" lon="17.7054401">
        <ele>26.5736</ele>
        <time>2013-03-10T12:30:56Z</time>
      </trkpt>
      <trkpt lat="59.87985" lon="17.7054625">
        <ele>26.5736</ele>
        <time>2013-03-10T12:30:57Z</time>
      </trkpt>
      <trkpt lat="59.8798576" lon="17.7054857">
        <ele>26.5736</ele>
        <time>2013-03-10T12:30:58Z</time>
      </trkpt>
      <trkpt lat="59.879864" lon="17.70551">
        <ele>26.5736</ele>
        <time>2013-03-10T12:30:59Z</time>
      </trkpt>
      <trkpt lat="59.8798709" lon="17.7055324">
        <ele>26.5736</ele>
        <time>2013-03-10T12:31:00Z</time>
      </trkpt>
      <trkpt lat="59.8798769" lon="17.7055556">
        <ele>26.5736</ele>
        <time>2013-03-10T12:31:01Z</time>
      </trkpt>
      <trkpt lat="59.8798833" lon="17.7055788">
        <ele>26.0929</ele>
        <time>2013-03-10T12:31:02Z</time>
      </trkpt>
      <trkpt lat="59.879891" lon="17.7056002">
        <ele>26.5736</ele>
        <time>2013-03-10T12:31:03Z</time>
      </trkpt>
      <trkpt lat="59.8798982" lon="17.7056229">
        <ele>26.5736</ele>
        <time>2013-03-10T12:31:04Z</time>
      </trkpt>
      <trkpt lat="59.879906" lon="17.7056449">
        <ele>27.0543</ele>
        <time>2013-03-10T12:31:05Z</time>
      </trkpt>
      <trkpt lat="59.8799141" lon="17.7056651">
        <ele>27.0543</ele>
        <time>2013-03-10T12:31:06Z</time>
      </trkpt>
      <trkpt lat="59.8799215" lon="17.7056869">
        <ele>27.0543</ele>
        <time>2013-03-10T12:31:07Z</time>
      </trkpt>
      <trkpt lat="59.8799286" lon="17.7057096">
        <ele>27.0543</ele>
        <time>2013-03-10T12:31:08Z</time>
      </trkpt>
      <trkpt lat="59.8799367" lon="17.7057308">
        <ele>27.0543</ele>
        <time>2013-03-10T12:31:09Z</time>
      </trkpt>
      <trkpt lat="59.879945" lon="17.7057515">
        <ele>27.0543</ele>
        <time>2013-03-10T12:31:10Z</time>
      </trkpt>
      <trkpt lat="59.8799526" lon="17.7057732">
        <ele>27.0543</ele>
        <time>2013-03-10T12:31:11Z</time>
      </trkpt>
      <trkpt lat="59.87996" lon="17.7057961">
        <ele>27.0543</ele>
        <time>2013-03-10T12:31:12Z</time>
      </trkpt>
      <trkpt lat="59.879968" lon="17.7058187">
        <ele>27.0543</ele>
        <time>2013-03-10T12:31:13Z</time>
      </trkpt>
      <trkpt lat="59.8799755" lon="17.7058402">
        <ele>27.0543</ele>
        <time>2013-03-10T12:31:14Z</time>
      </trkpt>
      <trkpt lat="59.8799825" lon="17.7058609">
        <ele>27.0543</ele>
        <time>2013-03-10T12:31:15Z</time>
      </trkpt>
      <trkpt lat="59.8799884" lon="17.7058826">
        <ele>26.5736</ele>
        <time>2013-03-10T12:31:16Z</time>
      </trkpt>
      <trkpt lat="59.8799949" lon="17.7059049">
        <ele>27.0543</ele>
        <time>2013-03-10T12:31:17Z</time>
      </trkpt>
      <trkpt lat="59.8800014" lon="17.7059264">
        <ele>27.0543</ele>
        <time>2013-03-10T12:31:18Z</time>
      </trkpt>
      <trkpt lat="59.8800074" lon="17.7059483">
        <ele>26.5736</ele>
        <time>2013-03-10T12:31:19Z</time>
      </trkpt>
      <trkpt lat="59.8800128" lon="17.7059712">
        <ele>26.5736</ele>
        <time>2013-03-10T12:31:20Z</time>
      </trkpt>
      <trkpt lat="59.8800184" lon="17.705994">
        <ele>26.5736</ele>
        <time>2013-03-10T12:31:21Z</time>
      </trkpt>
      <trkpt lat="59.8800252" lon="17.7060172">
        <ele>26.5736</ele>
        <time>2013-03-10T12:31:22Z</time>
      </trkpt>
      <trkpt lat="59.8800315" lon="17.7060401">
        <ele>26.5736</ele>
        <time>2013-03-10T12:31:23Z</time>
      </trkpt>
      <trkpt lat="59.8800381" lon="17.7060628">
        <ele>26.5736</ele>
        <time>2013-03-10T12:31:24Z</time>
      </trkpt>
      <trkpt lat="59.8800454" lon="17.7060861">
        <ele>26.5736</ele>
        <time>2013-03-10T12:31:25Z</time>
      </trkpt>
      <trkpt lat="59.8800519" lon="17.7061098">
        <ele>26.0929</ele>
        <time>2013-03-10T12:31:26Z</time>
      </trkpt>
      <trkpt lat="59.8800581" lon="17.7061334">
        <ele>26.0929</ele>
        <time>2013-03-10T12:31:27Z</time>
      </trkpt>
      <trkpt lat="59.8800651" lon="17.7061578">
        <ele>26.0929</ele>
        <time>2013-03-10T12:31:28Z</time>
      </trkpt>
      <trkpt lat="59.8800723" lon="17.7061824">
        <ele>26.0929</ele>
        <time>2013-03-10T12:31:29Z</time>
      </trkpt>
      <trkpt lat="59.8800791" lon="17.7062064">
        <ele>26.5736</ele>
        <time>2013-03-10T12:31:30Z</time>
      </trkpt>
      <trkpt lat="59.8800867" lon="17.7062291">
        <ele>26.5736</ele>
        <time>2013-03-10T12:31:31Z</time>
      </trkpt>
      <trkpt lat="59.8800936" lon="17.7062519">
        <ele>26.5736</ele>
        <time>2013-03-10T12:31:32Z</time>
      </trkpt>
      <trkpt lat="59.8800994" lon="17.7062752">
        <ele>26.5736</ele>
        <time>2013-03-10T12:31:33Z</time>
      </trkpt>
      <trkpt lat="59.8801055" lon="17.706298">
        <ele>26.5736</ele>
        <time>2013-03-10T12:31:34Z</time>
      </trkpt>
      <trkpt lat="59.8801112" lon="17.7063203">
        <ele>26.5736</ele>
        <time>2013-03-10T12:31:35Z</time>
      </trkpt>
      <trkpt lat="59.8801174" lon="17.7063429">
        <ele>26.0929</ele>
        <time>2013-03-10T12:31:36Z</time>
      </trkpt>
      <trkpt lat="59.8801246" lon="17.706366">
        <ele>26.0929</ele>
        <time>2013-03-10T12:31:37Z</time>
      </trkpt>
      <trkpt lat="59.8801315" lon="17.7063888">
        <ele>26.0929</ele>
        <time>2013-03-10T12:31:38Z</time>
      </trkpt>
      <trkpt lat="59.880138" lon="17.7064116">
        <ele>26.0929</ele>
        <time>2013-03-10T12:31:39Z</time>
      </trkpt>
      <trkpt lat="59.8801442" lon="17.7064352">
        <ele>26.0929</ele>
        <time>2013-03-10T12:31:40Z</time>
      </trkpt>
      <trkpt lat="59.8801499" lon="17.706459">
        <ele>26.0929</ele>
        <time>2013-03-10T12:31:41Z</time>
      </trkpt>
      <trkpt lat="59.8801556" lon="17.706483">
        <ele>26.0929</ele>
        <time>2013-03-10T12:31:42Z</time>
      </trkpt>
      <trkpt lat="59.8801615" lon="17.7065078">
        <ele>26.0929</ele>
        <time>2013-03-10T12:31:43Z</time>
      </trkpt>
      <trkpt lat="59.8801672" lon="17.7065315">
        <ele>26.0929</ele>
        <time>2013-03-10T12:31:44Z</time>
      </trkpt>
      <trkpt lat="59.8801723" lon="17.7065556">
        <ele>26.0929</ele>
        <time>2013-03-10T12:31:45Z</time>
      </trkpt>
      <trkpt lat="59.8801771" lon="17.7065806">
        <ele>26.0929</ele>
        <time>2013-03-10T12:31:46Z</time>
      </trkpt>
      <trkpt lat="59.8801821" lon="17.7066053">
        <ele>25.6123</ele>
        <time>2013-03-10T12:31:47Z</time>
      </trkpt>
      <trkpt lat="59.8801883" lon="17.7066294">
        <ele>25.6123</ele>
        <time>2013-03-10T12:31:48Z</time>
      </trkpt>
      <trkpt lat="59.8801946" lon="17.7066535">
        <ele>25.6123</ele>
        <time>2013-03-10T12:31:49Z</time>
      </trkpt>
      <trkpt lat="59.8801997" lon="17.7066789">
        <ele>25.6123</ele>
        <time>2013-03-10T12:31:50Z</time>
      </trkpt>
      <trkpt lat="59.8802056" lon="17.7067046">
        <ele>25.6123</ele>
        <time>2013-03-10T12:31:51Z</time>
      </trkpt>
      <trkpt lat="59.8802117" lon="17.7067305">
        <ele>25.6123</ele>
        <time>2013-03-10T12:31:52Z</time>
      </trkpt>
      <trkpt lat="59.8802174" lon="17.706755">
        <ele>25.6123</ele>
        <time>2013-03-10T12:31:53Z</time>
      </trkpt>
      <trkpt lat="59.8802236" lon="17.7067793">
        <ele>25.6123</ele>
        <time>2013-03-10T12:31:54Z</time>
      </trkpt>
      <trkpt lat="59.8802293" lon="17.7068039">
        <ele>25.6123</ele>
        <time>2013-03-10T12:31:55Z</time>
      </trkpt>
      <trkpt lat="59.8802346" lon="17.7068285">
        <ele>25.6123</ele>
        <time>2013-03-10T12:31:56Z</time>
      </trkpt>
      <trkpt lat="59.8802402" lon="17.7068539">
        <ele>25.6123</ele>
        <time>2013-03-10T12:31:57Z</time>
      </trkpt>
      <trkpt lat="59.8802452" lon="17.7068785">
        <ele>25.6123</ele>
        <time>2013-03-10T12:31:58Z</time>
      </trkpt>
      <trkpt lat="59.8802504" lon="17.7069031">
        <ele>25.6123</ele>
        <time>2013-03-10T12:31:59Z</time>
      </trkpt>
      <trkpt lat="59.8802553" lon="17.7069269">
        <ele>25.6123</ele>
        <time>2013-03-10T12:32:00Z</time>
      </trkpt>
      <trkpt lat="59.8802609" lon="17.7069506">
        <ele>25.6123</ele>
        <time>2013-03-10T12:32:01Z</time>
      </trkpt>
      <trkpt lat="59.880267" lon="17.706974">
        <ele>25.6123</ele>
        <time>2013-03-10T12:32:02Z</time>
      </trkpt>
      <trkpt lat="59.8802724" lon="17.7069977">
        <ele>25.6123</ele>
        <time>2013-03-10T12:32:03Z</time>
      </trkpt>
      <trkpt lat="59.8802775" lon="17.7070223">
        <ele>26.0929</ele>
        <time>2013-03-10T12:32:04Z</time>
      </trkpt>
      <trkpt lat="59.8802825" lon="17.7070461">
        <ele>26.0929</ele>
        <time>2013-03-10T12:32:05Z</time>
      </trkpt>
      <trkpt lat="59.8802874" lon="17.7070704">
        <ele>26.0929</ele>
        <time>2013-03-10T12:32:06Z</time>
      </trkpt>
      <trkpt lat="59.8802925" lon="17.7070947">
        <ele>25.6123</ele>
        <time>2013-03-10T12:32:07Z</time>
      </trkpt>
      <trkpt lat="59.8802971" lon="17.7071186">
        <ele>25.6123</ele>
        <time>2013-03-10T12:32:08Z</time>
      </trkpt>
      <trkpt lat="59.8803016" lon="17.7071417">
        <ele>25.6123</ele>
        <time>2013-03-10T12:32:09Z</time>
      </trkpt>
      <trkpt lat="59.8803058" lon="17.7071657">
        <ele>25.6123</ele>
        <time>2013-03-10T12:32:10Z</time>
      </trkpt>
      <trkpt lat="59.880309" lon="17.70719">
        <ele>25.1317</ele>
        <time>2013-03-10T12:32:11Z</time>
      </trkpt>
      <trkpt lat="59.8803121" lon="17.7072159">
        <ele>25.1317</ele>
        <time>2013-03-10T12:32:12Z</time>
      </trkpt>
      <trkpt lat="59.8803146" lon="17.7072404">
        <ele>25.1317</ele>
        <time>2013-03-10T12:32:13Z</time>
      </trkpt>
      <trkpt lat="59.8803172" lon="17.7072649">
        <ele>24.651</ele>
        <time>2013-03-10T12:32:14Z</time>
      </trkpt>
      <trkpt lat="59.8803205" lon="17.7072896">
        <ele>24.651</ele>
        <time>2013-03-10T12:32:15Z</time>
      </trkpt>
      <trkpt lat="59.8803246" lon="17.7073144">
        <ele>24.651</ele>
        <time>2013-03-10T12:32:16Z</time>
      </trkpt>
      <trkpt lat="59.8803293" lon="17.7073395">
        <ele>24.651</ele>
        <time>2013-03-10T12:32:17Z</time>
      </trkpt>
      <trkpt lat="59.8803342" lon="17.7073637">
        <ele>24.651</ele>
        <time>2013-03-10T12:32:18Z</time>
      </trkpt>
      <trkpt lat="59.8803385" lon="17.7073883">
        <ele>24.651</ele>
        <time>2013-03-10T12:32:19Z</time>
      </trkpt>
      <trkpt lat="59.8803428" lon="17.7074127">
        <ele>24.651</ele>
        <time>2013-03-10T12:32:20Z</time>
      </trkpt>
      <trkpt lat="59.8803474" lon="17.7074382">
        <ele>24.651</ele>
        <time>2013-03-10T12:32:21Z</time>
      </trkpt>
      <trkpt lat="59.880351" lon="17.7074637">
        <ele>24.651</ele>
        <time>2013-03-10T12:32:22Z</time>
      </trkpt>
      <trkpt lat="59.8803551" lon="17.7074869">
        <ele>24.651</ele>
        <time>2013-03-10T12:32:23Z</time>
      </trkpt>
      <trkpt lat="59.8803597" lon="17.7075106">
        <ele>24.651</ele>
        <time>2013-03-10T12:32:24Z</time>
      </trkpt>
      <trkpt lat="59.8803633" lon="17.707534">
        <ele>24.651</ele>
        <time>2013-03-10T12:32:25Z</time>
      </trkpt>
      <trkpt lat="59.8803664" lon="17.7075579">
        <ele>24.651</ele>
        <time>2013-03-10T12:32:26Z</time>
      </trkpt>
      <trkpt lat="59.880371" lon="17.7075825">
        <ele>24.651</ele>
        <time>2013-03-10T12:32:27Z</time>
      </trkpt>
      <trkpt lat="59.8803753" lon="17.7076076">
        <ele>25.1317</ele>
        <time>2013-03-10T12:32:28Z</time>
      </trkpt>
      <trkpt lat="59.8803791" lon="17.7076307">
        <ele>25.1317</ele>
        <time>2013-03-10T12:32:29Z</time>
      </trkpt>
      <trkpt lat="59.8803835" lon="17.7076562">
        <ele>25.1317</ele>
        <time>2013-03-10T12:32:30Z</time>
      </trkpt>
      <trkpt lat="59.8803874" lon="17.7076823">
        <ele>25.1317</ele>
        <time>2013-03-10T12:32:31Z</time>
      </trkpt>
      <trkpt lat="59.8803915" lon="17.7077084">
        <ele>25.1317</ele>
        <time>2013-03-10T12:32:32Z</time>
      </trkpt>
      <trkpt lat="59.880395" lon="17.7077341">
        <ele>25.1317</ele>
        <time>2013-03-10T12:32:33Z</time>
      </trkpt>
      <trkpt lat="59.8803987" lon="17.7077597">
        <ele>25.1317</ele>
        <time>2013-03-10T12:32:34Z</time>
      </trkpt>
      <trkpt lat="59.8804027" lon="17.707785">
        <ele>25.1317</ele>
        <time>2013-03-10T12:32:35Z</time>
      </trkpt>
      <trkpt lat="59.8804062" lon="17.7078106">
        <ele>24.651</ele>
        <time>2013-03-10T12:32:36Z</time>
      </trkpt>
      <trkpt lat="59.8804101" lon="17.7078365">
        <ele>24.651</ele>
        <time>2013-03-10T12:32:37Z</time>
      </trkpt>
      <trkpt lat="59.8804135" lon="17.7078629">
        <ele>24.651</ele>
        <time>2013-03-10T12:32:38Z</time>
      </trkpt>
      <trkpt lat="59.8804173" lon="17.7078878">
        <ele>24.651</ele>
        <time>2013-03-10T12:32:39Z</time>
      </trkpt>
      <trkpt lat="59.8804215" lon="17.7079137">
        <ele>24.651</ele>
        <time>2013-03-10T12:32:40Z</time>
      </trkpt>
      <trkpt lat="59.8804261" lon="17.7079397">
        <ele>24.651</ele>
        <time>2013-03-10T12:32:41Z</time>
      </trkpt>
      <trkpt lat="59.8804314" lon="17.7079644">
        <ele>25.1317</ele>
        <time>2013-03-10T12:32:42Z</time>
      </trkpt>
      <trkpt lat="59.8804375" lon="17.7079881">
        <ele>25.1317</ele>
        <time>2013-03-10T12:32:43Z</time>
      </trkpt>
      <trkpt lat="59.8804431" lon="17.7080116">
        <ele>25.1317</ele>
        <time>2013-03-10T12:32:44Z</time>
      </trkpt>
      <trkpt lat="59.8804475" lon="17.7080334">
        <ele>25.1317</ele>
        <time>2013-03-10T12:32:45Z</time>
      </trkpt>
      <trkpt lat="59.8804531" lon="17.7080554">
        <ele>25.1317</ele>
        <time>2013-03-10T12:32:46Z</time>
      </trkpt>
      <trkpt lat="59.8804587" lon="17.70808">
        <ele>25.6123</ele>
        <time>2013-03-10T12:32:47Z</time>
      </trkpt>
      <trkpt lat="59.8804645" lon="17.7081037">
        <ele>25.6123</ele>
        <time>2013-03-10T12:32:48Z</time>
      </trkpt>
      <trkpt lat="59.880471" lon="17.7081255">
        <ele>25.6123</ele>
        <time>2013-03-10T12:32:49Z</time>
      </trkpt>
      <trkpt lat="59.8804788" lon="17.7081494">
        <ele>25.6123</ele>
        <time>2013-03-10T12:32:50Z</time>
      </trkpt>
      <trkpt lat="59.8804855" lon="17.7081743">
        <ele>26.0929</ele>
        <time>2013-03-10T12:32:51Z</time>
      </trkpt>
      <trkpt lat="59.8804907" lon="17.7081986">
        <ele>25.6123</ele>
        <time>2013-03-10T12:32:52Z</time>
      </trkpt>
      <trkpt lat="59.8804946" lon="17.7082238">
        <ele>25.6123</ele>
        <time>2013-03-10T12:32:53Z</time>
      </trkpt>
      <trkpt lat="59.8804986" lon="17.7082487">
        <ele>25.6123</ele>
        <time>2013-03-10T12:32:54Z</time>
      </trkpt>
      <trkpt lat="59.8805022" lon="17.7082732">
        <ele>25.6123</ele>
        <time>2013-03-10T12:32:55Z</time>
      </trkpt>
      <trkpt lat="59.8805062" lon="17.7082991">
        <ele>25.6123</ele>
        <time>2013-03-10T12:32:56Z</time>
      </trkpt>
      <trkpt lat="59.8805104" lon="17.7083239">
        <ele>25.6123</ele>
        <time>2013-03-10T12:32:57Z</time>
      </trkpt>
      <trkpt lat="59.8805142" lon="17.7083463">
        <ele>25.6123</ele>
        <time>2013-03-10T12:32:58Z</time>
      </trkpt>
      <trkpt lat="59.8805181" lon="17.708369">
        <ele>25.6123</ele>
        <time>2013-03-10T12:32:59Z</time>
      </trkpt>
      <trkpt lat="59.8805217" lon="17.7083918">
        <ele>25.1317</ele>
        <time>2013-03-10T12:33:00Z</time>
      </trkpt>
      <trkpt lat="59.8805249" lon="17.7084128">
        <ele>25.1317</ele>
        <time>2013-03-10T12:33:01Z</time>
      </trkpt>
      <trkpt lat="59.8805287" lon="17.7084322">
        <ele>25.1317</ele>
        <time>2013-03-10T12:33:02Z</time>
      </trkpt>
      <trkpt lat="59.8805324" lon="17.708453">
        <ele>24.651</ele>
        <time>2013-03-10T12:33:03Z</time>
      </trkpt>
      <trkpt lat="59.8805359" lon="17.7084756">
        <ele>24.651</ele>
        <time>2013-03-10T12:33:04Z</time>
      </trkpt>
      <trkpt lat="59.8805401" lon="17.7084974">
        <ele>24.1703</ele>
        <time>2013-03-10T12:33:05Z</time>
      </trkpt>
      <trkpt lat="59.8805435" lon="17.7085197">
        <ele>23.6896</ele>
        <time>2013-03-10T12:33:06Z</time>
      </trkpt>
      <trkpt lat="59.8805468" lon="17.7085436">
        <ele>23.6896</ele>
        <time>2013-03-10T12:33:07Z</time>
      </trkpt>
      <trkpt lat="59.8805499" lon="17.7085673">
        <ele>23.209</ele>
        <time>2013-03-10T12:33:08Z</time>
      </trkpt>
      <trkpt lat="59.880553" lon="17.708591">
        <ele>22.7283</ele>
        <time>2013-03-10T12:33:09Z</time>
      </trkpt>
      <trkpt lat="59.8805575" lon="17.7086133">
        <ele>22.7283</ele>
        <time>2013-03-10T12:33:10Z</time>
      </trkpt>
      <trkpt lat="59.8805621" lon="17.7086343">
        <ele>22.2476</ele>
        <time>2013-03-10T12:33:11Z</time>
      </trkpt>
      <trkpt lat="59.8805673" lon="17.7086577">
        <ele>22.2476</ele>
        <time>2013-03-10T12:33:12Z</time>
      </trkpt>
      <trkpt lat="59.8805717" lon="17.7086803">
        <ele>21.767</ele>
        <time>2013-03-10T12:33:13Z</time>
      </trkpt>
      <trkpt lat="59.8805756" lon="17.7087031">
        <ele>21.2864</ele>
        <time>2013-03-10T12:33:14Z</time>
      </trkpt>
      <trkpt lat="59.880581" lon="17.7087237">
        <ele>21.2864</ele>
        <time>2013-03-10T12:33:15Z</time>
      </trkpt>
      <trkpt lat="59.880587" lon="17.708745">
        <ele>20.8057</ele>
        <time>2013-03-10T12:33:16Z</time>
      </trkpt>
      <trkpt lat="59.8805924" lon="17.7087669">
        <ele>20.8057</ele>
        <time>2013-03-10T12:33:17Z</time>
      </trkpt>
      <trkpt lat="59.8805976" lon="17.7087884">
        <ele>20.325</ele>
        <time>2013-03-10T12:33:18Z</time>
      </trkpt>
      <trkpt lat="59.8806038" lon="17.7088067">
        <ele>20.325</ele>
        <time>2013-03-10T12:33:19Z</time>
      </trkpt>
      <trkpt lat="59.8806085" lon="17.7088254">
        <ele>20.325</ele>
        <time>2013-03-10T12:33:20Z</time>
      </trkpt>
      <trkpt lat="59.880613" lon="17.7088485">
        <ele>20.325</ele>
        <time>2013-03-10T12:33:21Z</time>
      </trkpt>
      <trkpt lat="59.8806163" lon="17.7088685">
        <ele>20.325</ele>
        <time>2013-03-10T12:33:22Z</time>
      </trkpt>
      <trkpt lat="59.8806212" lon="17.7088875">
        <ele>20.325</ele>
        <time>2013-03-10T12:33:23Z</time>
      </trkpt>
      <trkpt lat="59.8806266" lon="17.7089094">
        <ele>20.325</ele>
        <time>2013-03-10T12:33:24Z</time>
      </trkpt>
      <trkpt lat="59.8806321" lon="17.7089324">
        <ele>20.325</ele>
        <time>2013-03-10T12:33:25Z</time>
      </trkpt>
      <trkpt lat="59.8806368" lon="17.7089533">
        <ele>20.325</ele>
        <time>2013-03-10T12:33:26Z</time>
      </trkpt>
      <trkpt lat="59.8806417" lon="17.7089761">
        <ele>19.8444</ele>
        <time>2013-03-10T12:33:27Z</time>
      </trkpt>
      <trkpt lat="59.8806478" lon="17.7090009">
        <ele>19.8444</ele>
        <time>2013-03-10T12:33:28Z</time>
      </trkpt>
      <trkpt lat="59.8806546" lon="17.7090248">
        <ele>19.8444</ele>
        <time>2013-03-10T12:33:29Z</time>
      </trkpt>
      <trkpt lat="59.8806598" lon="17.7090487">
        <ele>19.8444</ele>
        <time>2013-03-10T12:33:30Z</time>
      </trkpt>
      <trkpt lat="59.8806647" lon="17.70907">
        <ele>19.8444</ele>
        <time>2013-03-10T12:33:31Z</time>
      </trkpt>
      <trkpt lat="59.8806696" lon="17.7090922">
        <ele>19.3638</ele>
        <time>2013-03-10T12:33:32Z</time>
      </trkpt>
      <trkpt lat="59.8806746" lon="17.7091123">
        <ele>19.3638</ele>
        <time>2013-03-10T12:33:33Z</time>
      </trkpt>
      <trkpt lat="59.8806797" lon="17.7091331">
        <ele>18.8831</ele>
        <time>2013-03-10T12:33:34Z</time>
      </trkpt>
      <trkpt lat="59.8806856" lon="17.7091532">
        <ele>18.8831</ele>
        <time>2013-03-10T12:33:35Z</time>
      </trkpt>
      <trkpt lat="59.8806913" lon="17.7091712">
        <ele>18.8831</ele>
        <time>2013-03-10T12:33:36Z</time>
      </trkpt>
      <trkpt lat="59.8806971" lon="17.7091885">
        <ele>19.3638</ele>
        <time>2013-03-10T12:33:37Z</time>
      </trkpt>
      <trkpt lat="59.880702" lon="17.7092064">
        <ele>18.8831</ele>
        <time>2013-03-10T12:33:38Z</time>
      </trkpt>
      <trkpt lat="59.8807074" lon="17.7092253">
        <ele>18.8831</ele>
        <time>2013-03-10T12:33:39Z</time>
      </trkpt>
      <trkpt lat="59.8807131" lon="17.7092475">
        <ele>18.4023</ele>
        <time>2013-03-10T12:33:40Z</time>
      </trkpt>
      <trkpt lat="59.8807202" lon="17.7092693">
        <ele>18.4023</ele>
        <time>2013-03-10T12:33:41Z</time>
      </trkpt>
      <trkpt lat="59.8807266" lon="17.7092922">
        <ele>18.4023</ele>
        <time>2013-03-10T12:33:42Z</time>
      </trkpt>
      <trkpt lat="59.880739" lon="17.7093149">
        <ele>18.8831</ele>
        <time>2013-03-10T12:33:43Z</time>
      </trkpt>
      <trkpt lat="59.8807464" lon="17.7093346">
        <ele>18.4023</ele>
        <time>2013-03-10T12:33:44Z</time>
      </trkpt>
      <trkpt lat="59.8807543" lon="17.7093559">
        <ele>18.4023</ele>
        <time>2013-03-10T12:33:45Z</time>
      </trkpt>
      <trkpt lat="59.8807623" lon="17.7093771">
        <ele>18.4023</ele>
        <time>2013-03-10T12:33:46Z</time>
      </trkpt>
      <trkpt lat="59.880769" lon="17.7093958">
        <ele>18.4023</ele>
        <time>2013-03-10T12:33:47Z</time>
      </trkpt>
      <trkpt lat="59.8807758" lon="17.7094144">
        <ele>18.4023</ele>
        <time>2013-03-10T12:33:48Z</time>
      </trkpt>
      <trkpt lat="59.8807835" lon="17.709433">
        <ele>18.4023</ele>
        <time>2013-03-10T12:33:49Z</time>
      </trkpt>
      <trkpt lat="59.8807913" lon="17.7094507">
        <ele>18.4023</ele>
        <time>2013-03-10T12:33:50Z</time>
      </trkpt>
      <trkpt lat="59.8807996" lon="17.7094639">
        <ele>18.4023</ele>
        <time>2013-03-10T12:33:51Z</time>
      </trkpt>
      <trkpt lat="59.8808084" lon="17.7094774">
        <ele>18.8831</ele>
        <time>2013-03-10T12:33:52Z</time>
      </trkpt>
      <trkpt lat="59.8808177" lon="17.7094925">
        <ele>18.8831</ele>
        <time>2013-03-10T12:33:53Z</time>
      </trkpt>
      <trkpt lat="59.8808282" lon="17.7095098">
        <ele>18.8831</ele>
        <time>2013-03-10T12:33:54Z</time>
      </trkpt>
      <trkpt lat="59.8808385" lon="17.7095278">
        <ele>18.8831</ele>
        <time>2013-03-10T12:33:55Z</time>
      </trkpt>
      <trkpt lat="59.8808494" lon="17.7095486">
        <ele>18.8831</ele>
        <time>2013-03-10T12:33:56Z</time>
      </trkpt>
      <trkpt lat="59.8808612" lon="17.7095693">
        <ele>18.8831</ele>
        <time>2013-03-10T12:33:57Z</time>
      </trkpt>
      <trkpt lat="59.8808712" lon="17.7095888">
        <ele>18.4023</ele>
        <time>2013-03-10T12:33:58Z</time>
      </trkpt>
      <trkpt lat="59.8808805" lon="17.709606">
        <ele>18.4023</ele>
        <time>2013-03-10T12:33:59Z</time>
      </trkpt>
      <trkpt lat="59.880889" lon="17.7096248">
        <ele>18.4023</ele>
        <time>2013-03-10T12:34:00Z</time>
      </trkpt>
      <trkpt lat="59.8808975" lon="17.7096463">
        <ele>17.9218</ele>
        <time>2013-03-10T12:34:01Z</time>
      </trkpt>
      <trkpt lat="59.8809058" lon="17.7096629">
        <ele>17.9218</ele>
        <time>2013-03-10T12:34:02Z</time>
      </trkpt>
      <trkpt lat="59.8809147" lon="17.7096781">
        <ele>17.9218</ele>
        <time>2013-03-10T12:34:03Z</time>
      </trkpt>
      <trkpt lat="59.8809248" lon="17.7096963">
        <ele>18.4023</ele>
        <time>2013-03-10T12:34:04Z</time>
      </trkpt>
      <trkpt lat="59.8809349" lon="17.7097131">
        <ele>18.8831</ele>
        <time>2013-03-10T12:34:05Z</time>
      </trkpt>
      <trkpt lat="59.8809445" lon="17.7097225">
        <ele>18.4023</ele>
        <time>2013-03-10T12:34:06Z</time>
      </trkpt>
      <trkpt lat="59.8809536" lon="17.7097314">
        <ele>18.8831</ele>
        <time>2013-03-10T12:34:07Z</time>
      </trkpt>
      <trkpt lat="59.8809602" lon="17.7097452">
        <ele>18.8831</ele>
        <time>2013-03-10T12:34:08Z</time>
      </trkpt>
      <trkpt lat="59.8809667" lon="17.7097614">
        <ele>18.8831</ele>
        <time>2013-03-10T12:34:09Z</time>
      </trkpt>
      <trkpt lat="59.8809742" lon="17.7097785">
        <ele>18.8831</ele>
        <time>2013-03-10T12:34:10Z</time>
      </trkpt>
      <trkpt lat="59.8809819" lon="17.7097975">
        <ele>18.4023</ele>
        <time>2013-03-10T12:34:11Z</time>
      </trkpt>
      <trkpt lat="59.8809911" lon="17.7098188">
        <ele>18.4023</ele>
        <time>2013-03-10T12:34:12Z</time>
      </trkpt>
      <trkpt lat="59.880999" lon="17.7098407">
        <ele>17.9218</ele>
        <time>2013-03-10T12:34:13Z</time>
      </trkpt>
      <trkpt lat="59.8810069" lon="17.7098671">
        <ele>18.4023</ele>
        <time>2013-03-10T12:34:14Z</time>
      </trkpt>
      <trkpt lat="59.8810133" lon="17.7098904">
        <ele>18.4023</ele>
        <time>2013-03-10T12:34:15Z</time>
      </trkpt>
      <trkpt lat="59.8810196" lon="17.7099141">
        <ele>18.4023</ele>
        <time>2013-03-10T12:34:16Z</time>
      </trkpt>
      <trkpt lat="59.8810258" lon="17.7099396">
        <ele>18.4023</ele>
        <time>2013-03-10T12:34:17Z</time>
      </trkpt>
      <trkpt lat="59.8810323" lon="17.7099651">
        <ele>18.8831</ele>
        <time>2013-03-10T12:34:18Z</time>
      </trkpt>
      <trkpt lat="59.8810392" lon="17.7099905">
        <ele>18.8831</ele>
        <time>2013-03-10T12:34:19Z</time>
      </trkpt>
      <trkpt lat="59.8810458" lon="17.7100161">
        <ele>18.8831</ele>
        <time>2013-03-10T12:34:20Z</time>
      </trkpt>
      <trkpt lat="59.8810513" lon="17.7100406">
        <ele>18.8831</ele>
        <time>2013-03-10T12:34:21Z</time>
      </trkpt>
      <trkpt lat="59.8810565" lon="17.710065">
        <ele>18.8831</ele>
        <time>2013-03-10T12:34:22Z</time>
      </trkpt>
      <trkpt lat="59.8810628" lon="17.7100883">
        <ele>19.3638</ele>
        <time>2013-03-10T12:34:23Z</time>
      </trkpt>
      <trkpt lat="59.8810673" lon="17.7101084">
        <ele>18.8831</ele>
        <time>2013-03-10T12:34:24Z</time>
      </trkpt>
      <trkpt lat="59.8810748" lon="17.7101245">
        <ele>18.8831</ele>
        <time>2013-03-10T12:34:25Z</time>
      </trkpt>
      <trkpt lat="59.8810805" lon="17.7101458">
        <ele>18.4023</ele>
        <time>2013-03-10T12:34:26Z</time>
      </trkpt>
      <trkpt lat="59.8810866" lon="17.7101695">
        <ele>18.4023</ele>
        <time>2013-03-10T12:34:27Z</time>
      </trkpt>
      <trkpt lat="59.8810936" lon="17.7101922">
        <ele>17.9218</ele>
        <time>2013-03-10T12:34:28Z</time>
      </trkpt>
      <trkpt lat="59.8811019" lon="17.710216">
        <ele>17.9218</ele>
        <time>2013-03-10T12:34:29Z</time>
      </trkpt>
      <trkpt lat="59.8811084" lon="17.7102364">
        <ele>17.9218</ele>
        <time>2013-03-10T12:34:30Z</time>
      </trkpt>
      <trkpt lat="59.8811154" lon="17.7102537">
        <ele>17.9218</ele>
        <time>2013-03-10T12:34:31Z</time>
      </trkpt>
      <trkpt lat="59.8811217" lon="17.710269">
        <ele>18.4023</ele>
        <time>2013-03-10T12:34:32Z</time>
      </trkpt>
      <trkpt lat="59.8811291" lon="17.7102852">
        <ele>18.4023</ele>
        <time>2013-03-10T12:34:33Z</time>
      </trkpt>
      <trkpt lat="59.8811368" lon="17.7103073">
        <ele>18.4023</ele>
        <time>2013-03-10T12:34:34Z</time>
      </trkpt>
      <trkpt lat="59.881144" lon="17.7103277">
        <ele>18.4023</ele>
        <time>2013-03-10T12:34:35Z</time>
      </trkpt>
      <trkpt lat="59.8811507" lon="17.7103499">
        <ele>18.4023</ele>
        <time>2013-03-10T12:34:36Z</time>
      </trkpt>
      <trkpt lat="59.8811573" lon="17.7103717">
        <ele>18.4023</ele>
        <time>2013-03-10T12:34:37Z</time>
      </trkpt>
      <trkpt lat="59.8811631" lon="17.7103922">
        <ele>18.4023</ele>
        <time>2013-03-10T12:34:38Z</time>
      </trkpt>
      <trkpt lat="59.88117" lon="17.7104141">
        <ele>17.9218</ele>
        <time>2013-03-10T12:34:39Z</time>
      </trkpt>
      <trkpt lat="59.8811788" lon="17.7104385">
        <ele>17.9218</ele>
        <time>2013-03-10T12:34:40Z</time>
      </trkpt>
      <trkpt lat="59.881185" lon="17.7104597">
        <ele>17.4412</ele>
        <time>2013-03-10T12:34:41Z</time>
      </trkpt>
      <trkpt lat="59.8811896" lon="17.7104814">
        <ele>17.4412</ele>
        <time>2013-03-10T12:34:42Z</time>
      </trkpt>
      <trkpt lat="59.8811944" lon="17.7105053">
        <ele>16.9604</ele>
        <time>2013-03-10T12:34:43Z</time>
      </trkpt>
      <trkpt lat="59.8811979" lon="17.7105292">
        <ele>16.9604</ele>
        <time>2013-03-10T12:34:44Z</time>
      </trkpt>
      <trkpt lat="59.8812047" lon="17.7105524">
        <ele>17.4412</ele>
        <time>2013-03-10T12:34:45Z</time>
      </trkpt>
      <trkpt lat="59.8812112" lon="17.7105721">
        <ele>16.9604</ele>
        <time>2013-03-10T12:34:46Z</time>
      </trkpt>
      <trkpt lat="59.881218" lon="17.7105935">
        <ele>16.9604</ele>
        <time>2013-03-10T12:34:47Z</time>
      </trkpt>
      <trkpt lat="59.8812264" lon="17.7106123">
        <ele>16.9604</ele>
        <time>2013-03-10T12:34:48Z</time>
      </trkpt>
      <trkpt lat="59.8812341" lon="17.7106318">
        <ele>16.9604</ele>
        <time>2013-03-10T12:34:49Z</time>
      </trkpt>
      <trkpt lat="59.8812428" lon="17.7106532">
        <ele>16.9604</ele>
        <time>2013-03-10T12:34:50Z</time>
      </trkpt>
      <trkpt lat="59.8812514" lon="17.7106726">
        <ele>17.4412</ele>
        <time>2013-03-10T12:34:51Z</time>
      </trkpt>
      <trkpt lat="59.8812591" lon="17.7106937">
        <ele>17.4412</ele>
        <time>2013-03-10T12:34:52Z</time>
      </trkpt>
      <trkpt lat="59.8812663" lon="17.7107154">
        <ele>17.4412</ele>
        <time>2013-03-10T12:34:53Z</time>
      </trkpt>
      <trkpt lat="59.8812741" lon="17.7107372">
        <ele>17.4412</ele>
        <time>2013-03-10T12:34:54Z</time>
      </trkpt>
      <trkpt lat="59.8812819" lon="17.7107596">
        <ele>17.4412</ele>
        <time>2013-03-10T12:34:55Z</time>
      </trkpt>
      <trkpt lat="59.8812907" lon="17.7107809">
        <ele>17.4412</ele>
        <time>2013-03-10T12:34:56Z</time>
      </trkpt>
      <trkpt lat="59.8812984" lon="17.7108021">
        <ele>17.4412</ele>
        <time>2013-03-10T12:34:57Z</time>
      </trkpt>
      <trkpt lat="59.8813062" lon="17.7108238">
        <ele>17.9218</ele>
        <time>2013-03-10T12:34:58Z</time>
      </trkpt>
      <trkpt lat="59.8813139" lon="17.7108457">
        <ele>17.9218</ele>
        <time>2013-03-10T12:34:59Z</time>
      </trkpt>
      <trkpt lat="59.8813221" lon="17.7108659">
        <ele>17.9218</ele>
        <time>2013-03-10T12:35:00Z</time>
      </trkpt>
      <trkpt lat="59.8813295" lon="17.7108846">
        <ele>17.9218</ele>
        <time>2013-03-10T12:35:01Z</time>
      </trkpt>
      <trkpt lat="59.8813368" lon="17.7109037">
        <ele>17.9218</ele>
        <time>2013-03-10T12:35:02Z</time>
      </trkpt>
      <trkpt lat="59.8813446" lon="17.7109237">
        <ele>18.4023</ele>
        <time>2013-03-10T12:35:03Z</time>
      </trkpt>
      <trkpt lat="59.8813528" lon="17.7109409">
        <ele>18.4023</ele>
        <time>2013-03-10T12:35:04Z</time>
      </trkpt>
      <trkpt lat="59.8813616" lon="17.7109581">
        <ele>18.4023</ele>
        <time>2013-03-10T12:35:05Z</time>
      </trkpt>
      <trkpt lat="59.8813709" lon="17.7109782">
        <ele>18.8831</ele>
        <time>2013-03-10T12:35:06Z</time>
      </trkpt>
      <trkpt lat="59.8813801" lon="17.7109994">
        <ele>18.8831</ele>
        <time>2013-03-10T12:35:07Z</time>
      </trkpt>
      <trkpt lat="59.8813887" lon="17.7110215">
        <ele>18.8831</ele>
        <time>2013-03-10T12:35:08Z</time>
      </trkpt>
      <trkpt lat="59.8813985" lon="17.7110439">
        <ele>19.3638</ele>
        <time>2013-03-10T12:35:09Z</time>
      </trkpt>
      <trkpt lat="59.8814083" lon="17.7110659">
        <ele>19.3638</ele>
        <time>2013-03-10T12:35:10Z</time>
      </trkpt>
      <trkpt lat="59.881418" lon="17.7110887">
        <ele>19.8444</ele>
        <time>2013-03-10T12:35:11Z</time>
      </trkpt>
      <trkpt lat="59.8814278" lon="17.7111113">
        <ele>19.8444</ele>
        <time>2013-03-10T12:35:12Z</time>
      </trkpt>
      <trkpt lat="59.8814372" lon="17.7111332">
        <ele>20.325</ele>
        <time>2013-03-10T12:35:13Z</time>
      </trkpt>
      <trkpt lat="59.8814464" lon="17.7111553">
        <ele>20.325</ele>
        <time>2013-03-10T12:35:14Z</time>
      </trkpt>
      <trkpt lat="59.8814552" lon="17.7111773">
        <ele>20.325</ele>
        <time>2013-03-10T12:35:15Z</time>
      </trkpt>
      <trkpt lat="59.8814635" lon="17.7111982">
        <ele>20.325</ele>
        <time>2013-03-10T12:35:16Z</time>
      </trkpt>
      <trkpt lat="59.881473" lon="17.7112218">
        <ele>20.325</ele>
        <time>2013-03-10T12:35:17Z</time>
      </trkpt>
      <trkpt lat="59.8814832" lon="17.711245">
        <ele>20.325</ele>
        <time>2013-03-10T12:35:18Z</time>
      </trkpt>
      <trkpt lat="59.8814932" lon="17.7112678">
        <ele>20.8057</ele>
        <time>2013-03-10T12:35:19Z</time>
      </trkpt>
      <trkpt lat="59.8815028" lon="17.71129">
        <ele>21.2864</ele>
        <time>2013-03-10T12:35:20Z</time>
      </trkpt>
      <trkpt lat="59.8815111" lon="17.7113119">
        <ele>21.2864</ele>
        <time>2013-03-10T12:35:21Z</time>
      </trkpt>
      <trkpt lat="59.881521" lon="17.7113331">
        <ele>21.2864</ele>
        <time>2013-03-10T12:35:22Z</time>
      </trkpt>
      <trkpt lat="59.8815301" lon="17.7113539">
        <ele>21.767</ele>
        <time>2013-03-10T12:35:23Z</time>
      </trkpt>
      <trkpt lat="59.8815392" lon="17.7113769">
        <ele>21.767</ele>
        <time>2013-03-10T12:35:24Z</time>
      </trkpt>
      <trkpt lat="59.8815481" lon="17.7113998">
        <ele>22.2476</ele>
        <time>2013-03-10T12:35:25Z</time>
      </trkpt>
      <trkpt lat="59.8815573" lon="17.7114218">
        <ele>22.2476</ele>
        <time>2013-03-10T12:35:26Z</time>
      </trkpt>
      <trkpt lat="59.8815671" lon="17.7114451">
        <ele>23.209</ele>
        <time>2013-03-10T12:35:27Z</time>
      </trkpt>
      <trkpt lat="59.8815755" lon="17.7114682">
        <ele>23.209</ele>
        <time>2013-03-10T12:35:28Z</time>
      </trkpt>
      <trkpt lat="59.8815827" lon="17.7114929">
        <ele>23.209</ele>
        <time>2013-03-10T12:35:29Z</time>
      </trkpt>
      <trkpt lat="59.881589" lon="17.7115183">
        <ele>23.6896</ele>
        <time>2013-03-10T12:35:30Z</time>
      </trkpt>
      <trkpt lat="59.8815951" lon="17.7115433">
        <ele>23.6896</ele>
        <time>2013-03-10T12:35:31Z</time>
      </trkpt>
      <trkpt lat="59.881602" lon="17.7115683">
        <ele>23.6896</ele>
        <time>2013-03-10T12:35:32Z</time>
      </trkpt>
      <trkpt lat="59.8816093" lon="17.7115934">
        <ele>24.1703</ele>
        <time>2013-03-10T12:35:33Z</time>
      </trkpt>
      <trkpt lat="59.8816168" lon="17.7116175">
        <ele>24.1703</ele>
        <time>2013-03-10T12:35:34Z</time>
      </trkpt>
      <trkpt lat="59.8816242" lon="17.7116408">
        <ele>24.1703</ele>
        <time>2013-03-10T12:35:35Z</time>
      </trkpt>
      <trkpt lat="59.8816318" lon="17.7116667">
        <ele>24.651</ele>
        <time>2013-03-10T12:35:36Z</time>
      </trkpt>
      <trkpt lat="59.8816394" lon="17.7116911">
        <ele>24.651</ele>
        <time>2013-03-10T12:35:37Z</time>
      </trkpt>
      <trkpt lat="59.8816475" lon="17.7117162">
        <ele>25.1317</ele>
        <time>2013-03-10T12:35:38Z</time>
      </trkpt>
      <trkpt lat="59.8816533" lon="17.7117428">
        <ele>25.1317</ele>
        <time>2013-03-10T12:35:39Z</time>
      </trkpt>
      <trkpt lat="59.881659" lon="17.7117681">
        <ele>25.1317</ele>
        <time>2013-03-10T12:35:40Z</time>
      </trkpt>
      <trkpt lat="59.8816642" lon="17.711794">
        <ele>25.1317</ele>
        <time>2013-03-10T12:35:41Z</time>
      </trkpt>
      <trkpt lat="59.8816699" lon="17.7118209">
        <ele>25.1317</ele>
        <time>2013-03-10T12:35:42Z</time>
      </trkpt>
      <trkpt lat="59.8816753" lon="17.7118486">
        <ele>25.1317</ele>
        <time>2013-03-10T12:35:43Z</time>
      </trkpt>
      <trkpt lat="59.8816797" lon="17.7118739">
        <ele>25.1317</ele>
        <time>2013-03-10T12:35:44Z</time>
      </trkpt>
      <trkpt lat="59.8816845" lon="17.7118978">
        <ele>24.651</ele>
        <time>2013-03-10T12:35:45Z</time>
      </trkpt>
      <trkpt lat="59.8816898" lon="17.7119246">
        <ele>24.651</ele>
        <time>2013-03-10T12:35:46Z</time>
      </trkpt>
      <trkpt lat="59.8816955" lon="17.7119486">
        <ele>24.651</ele>
        <time>2013-03-10T12:35:47Z</time>
      </trkpt>
      <trkpt lat="59.881701" lon="17.7119724">
        <ele>24.651</ele>
        <time>2013-03-10T12:35:48Z</time>
      </trkpt>
      <trkpt lat="59.8817059" lon="17.7119981">
        <ele>24.651</ele>
        <time>2013-03-10T12:35:49Z</time>
      </trkpt>
      <trkpt lat="59.8817106" lon="17.7120239">
        <ele>24.651</ele>
        <time>2013-03-10T12:35:50Z</time>
      </trkpt>
      <trkpt lat="59.8817144" lon="17.7120486">
        <ele>24.651</ele>
        <time>2013-03-10T12:35:51Z</time>
      </trkpt>
      <trkpt lat="59.8817185" lon="17.7120753">
        <ele>24.651</ele>
        <time>2013-03-10T12:35:52Z</time>
      </trkpt>
      <trkpt lat="59.8817231" lon="17.7121013">
        <ele>24.651</ele>
        <time>2013-03-10T12:35:53Z</time>
      </trkpt>
      <trkpt lat="59.8817278" lon="17.712128">
        <ele>24.651</ele>
        <time>2013-03-10T12:35:54Z</time>
      </trkpt>
      <trkpt lat="59.8817323" lon="17.7121551">
        <ele>24.651</ele>
        <time>2013-03-10T12:35:55Z</time>
      </trkpt>
      <trkpt lat="59.8817375" lon="17.7121821">
        <ele>25.1317</ele>
        <time>2013-03-10T12:35:56Z</time>
      </trkpt>
      <trkpt lat="59.8817423" lon="17.7122086">
        <ele>25.1317</ele>
        <time>2013-03-10T12:35:57Z</time>
      </trkpt>
      <trkpt lat="59.8817466" lon="17.7122355">
        <ele>25.1317</ele>
        <time>2013-03-10T12:35:58Z</time>
      </trkpt>
      <trkpt lat="59.8817511" lon="17.7122625">
        <ele>25.1317</ele>
        <time>2013-03-10T12:35:59Z</time>
      </trkpt>
      <trkpt lat="59.8817553" lon="17.7122873">
        <ele>25.1317</ele>
        <time>2013-03-10T12:36:00Z</time>
      </trkpt>
      <trkpt lat="59.881759" lon="17.7123124">
        <ele>25.1317</ele>
        <time>2013-03-10T12:36:01Z</time>
      </trkpt>
      <trkpt lat="59.8817629" lon="17.712338">
        <ele>25.6123</ele>
        <time>2013-03-10T12:36:02Z</time>
      </trkpt>
      <trkpt lat="59.8817672" lon="17.712365">
        <ele>25.6123</ele>
        <time>2013-03-10T12:36:03Z</time>
      </trkpt>
      <trkpt lat="59.881771" lon="17.7123904">
        <ele>25.6123</ele>
        <time>2013-03-10T12:36:04Z</time>
      </trkpt>
      <trkpt lat="59.8817758" lon="17.7124147">
        <ele>25.6123</ele>
        <time>2013-03-10T12:36:05Z</time>
      </trkpt>
      <trkpt lat="59.8817808" lon="17.7124395">
        <ele>25.6123</ele>
        <time>2013-03-10T12:36:06Z</time>
      </trkpt>
      <trkpt lat="59.8817853" lon="17.7124663">
        <ele>25.6123</ele>
        <time>2013-03-10T12:36:07Z</time>
      </trkpt>
      <trkpt lat="59.88179" lon="17.7124924">
        <ele>25.6123</ele>
        <time>2013-03-10T12:36:08Z</time>
      </trkpt>
      <trkpt lat="59.8817952" lon="17.7125145">
        <ele>25.6123</ele>
        <time>2013-03-10T12:36:09Z</time>
      </trkpt>
      <trkpt lat="59.8817994" lon="17.7125393">
        <ele>25.6123</ele>
        <time>2013-03-10T12:36:10Z</time>
      </trkpt>
      <trkpt lat="59.8818034" lon="17.7125634">
        <ele>26.0929</ele>
        <time>2013-03-10T12:36:11Z</time>
      </trkpt>
      <trkpt lat="59.881807" lon="17.7125892">
        <ele>26.0929</ele>
        <time>2013-03-10T12:36:12Z</time>
      </trkpt>
      <trkpt lat="59.8818108" lon="17.7126162">
        <ele>25.6123</ele>
        <time>2013-03-10T12:36:13Z</time>
      </trkpt>
      <trkpt lat="59.8818144" lon="17.7126403">
        <ele>25.6123</ele>
        <time>2013-03-10T12:36:14Z</time>
      </trkpt>
      <trkpt lat="59.8818174" lon="17.7126645">
        <ele>25.6123</ele>
        <time>2013-03-10T12:36:15Z</time>
      </trkpt>
      <trkpt lat="59.8818216" lon="17.7126892">
        <ele>26.0929</ele>
        <time>2013-03-10T12:36:16Z</time>
      </trkpt>
      <trkpt lat="59.8818269" lon="17.7127152">
        <ele>26.0929</ele>
        <time>2013-03-10T12:36:17Z</time>
      </trkpt>
      <trkpt lat="59.8818337" lon="17.7127385">
        <ele>26.0929</ele>
        <time>2013-03-10T12:36:18Z</time>
      </trkpt>
      <trkpt lat="59.8818388" lon="17.7127641">
        <ele>26.0929</ele>
        <time>2013-03-10T12:36:19Z</time>
      </trkpt>
      <trkpt lat="59.8818433" lon="17.712788">
        <ele>26.5736</ele>
        <time>2013-03-10T12:36:20Z</time>
      </trkpt>
      <trkpt lat="59.881848" lon="17.7128129">
        <ele>26.5736</ele>
        <time>2013-03-10T12:36:21Z</time>
      </trkpt>
      <trkpt lat="59.8818518" lon="17.7128364">
        <ele>27.0543</ele>
        <time>2013-03-10T12:36:22Z</time>
      </trkpt>
      <trkpt lat="59.8818544" lon="17.7128617">
        <ele>27.0543</ele>
        <time>2013-03-10T12:36:23Z</time>
      </trkpt>
      <trkpt lat="59.8818569" lon="17.7128859">
        <ele>27.0543</ele>
        <time>2013-03-10T12:36:24Z</time>
      </trkpt>
      <trkpt lat="59.8818595" lon="17.7129109">
        <ele>27.5349</ele>
        <time>2013-03-10T12:36:25Z</time>
      </trkpt>
      <trkpt lat="59.8818624" lon="17.712938">
        <ele>27.5349</ele>
        <time>2013-03-10T12:36:26Z</time>
      </trkpt>
      <trkpt lat="59.8818661" lon="17.7129633">
        <ele>28.0155</ele>
        <time>2013-03-10T12:36:27Z</time>
      </trkpt>
      <trkpt lat="59.8818698" lon="17.7129908">
        <ele>28.0155</ele>
        <time>2013-03-10T12:36:28Z</time>
      </trkpt>
      <trkpt lat="59.8818729" lon="17.7130172">
        <ele>28.0155</ele>
        <time>2013-03-10T12:36:29Z</time>
      </trkpt>
      <trkpt lat="59.8818766" lon="17.7130415">
        <ele>28.0155</ele>
        <time>2013-03-10T12:36:30Z</time>
      </trkpt>
      <trkpt lat="59.8818795" lon="17.7130657">
        <ele>28.0155</ele>
        <time>2013-03-10T12:36:31Z</time>
      </trkpt>
      <trkpt lat="59.8818826" lon="17.713091">
        <ele>28.4962</ele>
        <time>2013-03-10T12:36:32Z</time>
      </trkpt>
      <trkpt lat="59.8818848" lon="17.7131171">
        <ele>28.4962</ele>
        <time>2013-03-10T12:36:33Z</time>
      </trkpt>
      <trkpt lat="59.8818874" lon="17.7131429">
        <ele>28.4962</ele>
        <time>2013-03-10T12:36:34Z</time>
      </trkpt>
      <trkpt lat="59.8818909" lon="17.7131684">
        <ele>28.9769</ele>
        <time>2013-03-10T12:36:35Z</time>
      </trkpt>
      <trkpt lat="59.881895" lon="17.7131941">
        <ele>28.9769</ele>
        <time>2013-03-10T12:36:36Z</time>
      </trkpt>
      <trkpt lat="59.8818988" lon="17.7132201">
        <ele>28.9769</ele>
        <time>2013-03-10T12:36:37Z</time>
      </trkpt>
      <trkpt lat="59.8819018" lon="17.7132471">
        <ele>28.9769</ele>
        <time>2013-03-10T12:36:38Z</time>
      </trkpt>
      <trkpt lat="59.8819043" lon="17.7132729">
        <ele>28.9769</ele>
        <time>2013-03-10T12:36:39Z</time>
      </trkpt>
      <trkpt lat="59.8819086" lon="17.7132989">
        <ele>28.9769</ele>
        <time>2013-03-10T12:36:40Z</time>
      </trkpt>
      <trkpt lat="59.8819128" lon="17.7133264">
        <ele>28.9769</ele>
        <time>2013-03-10T12:36:41Z</time>
      </trkpt>
      <trkpt lat="59.8819178" lon="17.7133543">
        <ele>28.9769</ele>
        <time>2013-03-10T12:36:42Z</time>
      </trkpt>
      <trkpt lat="59.8819221" lon="17.7133804">
        <ele>28.9769</ele>
        <time>2013-03-10T12:36:43Z</time>
      </trkpt>
      <trkpt lat="59.8819252" lon="17.7134072">
        <ele>28.9769</ele>
        <time>2013-03-10T12:36:44Z</time>
      </trkpt>
      <trkpt lat="59.8819289" lon="17.7134346">
        <ele>28.9769</ele>
        <time>2013-03-10T12:36:45Z</time>
      </trkpt>
      <trkpt lat="59.881933" lon="17.7134622">
        <ele>28.9769</ele>
        <time>2013-03-10T12:36:46Z</time>
      </trkpt>
      <trkpt lat="59.8819367" lon="17.71349">
        <ele>28.9769</ele>
        <time>2013-03-10T12:36:47Z</time>
      </trkpt>
      <trkpt lat="59.8819403" lon="17.7135169">
        <ele>28.9769</ele>
        <time>2013-03-10T12:36:48Z</time>
      </trkpt>
      <trkpt lat="59.8819439" lon="17.7135434">
        <ele>28.9769</ele>
        <time>2013-03-10T12:36:49Z</time>
      </trkpt>
      <trkpt lat="59.8819475" lon="17.7135683">
        <ele>28.9769</ele>
        <time>2013-03-10T12:36:50Z</time>
      </trkpt>
      <trkpt lat="59.8819509" lon="17.7135935">
        <ele>28.9769</ele>
        <time>2013-03-10T12:36:51Z</time>
      </trkpt>
      <trkpt lat="59.8819551" lon="17.7136186">
        <ele>28.9769</ele>
        <time>2013-03-10T12:36:52Z</time>
      </trkpt>
      <trkpt lat="59.8819593" lon="17.7136432">
        <ele>29.4575</ele>
        <time>2013-03-10T12:36:53Z</time>
      </trkpt>
      <trkpt lat="59.881963" lon="17.7136673">
        <ele>29.4575</ele>
        <time>2013-03-10T12:36:54Z</time>
      </trkpt>
      <trkpt lat="59.8819661" lon="17.7136916">
        <ele>28.9769</ele>
        <time>2013-03-10T12:36:55Z</time>
      </trkpt>
      <trkpt lat="59.8819689" lon="17.7137145">
        <ele>28.9769</ele>
        <time>2013-03-10T12:36:56Z</time>
      </trkpt>
      <trkpt lat="59.8819729" lon="17.7137382">
        <ele>28.9769</ele>
        <time>2013-03-10T12:36:57Z</time>
      </trkpt>
      <trkpt lat="59.8819776" lon="17.7137631">
        <ele>28.9769</ele>
        <time>2013-03-10T12:36:58Z</time>
      </trkpt>
      <trkpt lat="59.8819818" lon="17.7137884">
        <ele>28.9769</ele>
        <time>2013-03-10T12:36:59Z</time>
      </trkpt>
      <trkpt lat="59.8819862" lon="17.7138138">
        <ele>28.9769</ele>
        <time>2013-03-10T12:37:00Z</time>
      </trkpt>
      <trkpt lat="59.8819905" lon="17.7138402">
        <ele>29.4575</ele>
        <time>2013-03-10T12:37:01Z</time>
      </trkpt>
      <trkpt lat="59.8819946" lon="17.7138667">
        <ele>29.4575</ele>
        <time>2013-03-10T12:37:02Z</time>
      </trkpt>
      <trkpt lat="59.8819981" lon="17.713893">
        <ele>29.4575</ele>
        <time>2013-03-10T12:37:03Z</time>
      </trkpt>
      <trkpt lat="59.8820017" lon="17.7139185">
        <ele>29.4575</ele>
        <time>2013-03-10T12:37:04Z</time>
      </trkpt>
      <trkpt lat="59.8820056" lon="17.7139439">
        <ele>29.4575</ele>
        <time>2013-03-10T12:37:05Z</time>
      </trkpt>
      <trkpt lat="59.8820102" lon="17.7139687">
        <ele>29.9381</ele>
        <time>2013-03-10T12:37:06Z</time>
      </trkpt>
      <trkpt lat="59.8820147" lon="17.7139934">
        <ele>29.9381</ele>
        <time>2013-03-10T12:37:07Z</time>
      </trkpt>
      <trkpt lat="59.8820183" lon="17.7140195">
        <ele>29.9381</ele>
        <time>2013-03-10T12:37:08Z</time>
      </trkpt>
      <trkpt lat="59.8820231" lon="17.7140455">
        <ele>29.9381</ele>
        <time>2013-03-10T12:37:09Z</time>
      </trkpt>
      <trkpt lat="59.8820278" lon="17.7140696">
        <ele>29.9381</ele>
        <time>2013-03-10T12:37:10Z</time>
      </trkpt>
      <trkpt lat="59.8820345" lon="17.7140926">
        <ele>29.9381</ele>
        <time>2013-03-10T12:37:11Z</time>
      </trkpt>
      <trkpt lat="59.8820412" lon="17.7141169">
        <ele>29.9381</ele>
        <time>2013-03-10T12:37:12Z</time>
      </trkpt>
      <trkpt lat="59.8820465" lon="17.7141426">
        <ele>30.4188</ele>
        <time>2013-03-10T12:37:13Z</time>
      </trkpt>
      <trkpt lat="59.8820522" lon="17.7141656">
        <ele>30.8995</ele>
        <time>2013-03-10T12:37:14Z</time>
      </trkpt>
      <trkpt lat="59.8820572" lon="17.7141895">
        <ele>30.8995</ele>
        <time>2013-03-10T12:37:15Z</time>
      </trkpt>
      <trkpt lat="59.8820613" lon="17.7142158">
        <ele>30.8995</ele>
        <time>2013-03-10T12:37:16Z</time>
      </trkpt>
      <trkpt lat="59.8820651" lon="17.7142427">
        <ele>30.8995</ele>
        <time>2013-03-10T12:37:17Z</time>
      </trkpt>
      <trkpt lat="59.8820693" lon="17.7142682">
        <ele>30.8995</ele>
        <time>2013-03-10T12:37:18Z</time>
      </trkpt>
      <trkpt lat="59.8820735" lon="17.7142921">
        <ele>30.8995</ele>
        <time>2013-03-10T12:37:19Z</time>
      </trkpt>
      <trkpt lat="59.8820749" lon="17.714318">
        <ele>30.8995</ele>
        <time>2013-03-10T12:37:20Z</time>
      </trkpt>
      <trkpt lat="59.8820696" lon="17.7143444">
        <ele>29.9381</ele>
        <time>2013-03-10T12:37:21Z</time>
      </trkpt>
      <trkpt lat="59.8820651" lon="17.7143692">
        <ele>29.4575</ele>
        <time>2013-03-10T12:37:22Z</time>
      </trkpt>
      <trkpt lat="59.8820667" lon="17.7143948">
        <ele>29.4575</ele>
        <time>2013-03-10T12:37:23Z</time>
      </trkpt>
      <trkpt lat="59.8820711" lon="17.7144177">
        <ele>29.4575</ele>
        <time>2013-03-10T12:37:24Z</time>
      </trkpt>
      <trkpt lat="59.8820758" lon="17.714442">
        <ele>29.4575</ele>
        <time>2013-03-10T12:37:25Z</time>
      </trkpt>
      <trkpt lat="59.8820805" lon="17.7144669">
        <ele>29.4575</ele>
        <time>2013-03-10T12:37:26Z</time>
      </trkpt>
      <trkpt lat="59.8820848" lon="17.7144914">
        <ele>29.4575</ele>
        <time>2013-03-10T12:37:27Z</time>
      </trkpt>
      <trkpt lat="59.8820895" lon="17.714515">
        <ele>29.9381</ele>
        <time>2013-03-10T12:37:28Z</time>
      </trkpt>
      <trkpt lat="59.8820966" lon="17.7145376">
        <ele>30.4188</ele>
        <time>2013-03-10T12:37:29Z</time>
      </trkpt>
      <trkpt lat="59.8821045" lon="17.7145594">
        <ele>30.4188</ele>
        <time>2013-03-10T12:37:30Z</time>
      </trkpt>
      <trkpt lat="59.8821115" lon="17.7145832">
        <ele>30.4188</ele>
        <time>2013-03-10T12:37:31Z</time>
      </trkpt>
      <trkpt lat="59.8821172" lon="17.7146105">
        <ele>30.4188</ele>
        <time>2013-03-10T12:37:32Z</time>
      </trkpt>
      <trkpt lat="59.882121" lon="17.7146375">
        <ele>30.4188</ele>
        <time>2013-03-10T12:37:33Z</time>
      </trkpt>
      <trkpt lat="59.8821245" lon="17.7146624">
        <ele>30.4188</ele>
        <time>2013-03-10T12:37:34Z</time>
      </trkpt>
      <trkpt lat="59.8821278" lon="17.7146866">
        <ele>30.4188</ele>
        <time>2013-03-10T12:37:35Z</time>
      </trkpt>
      <trkpt lat="59.8821312" lon="17.7147105">
        <ele>30.8995</ele>
        <time>2013-03-10T12:37:36Z</time>
      </trkpt>
      <trkpt lat="59.8821353" lon="17.7147343">
        <ele>30.8995</ele>
        <time>2013-03-10T12:37:37Z</time>
      </trkpt>
      <trkpt lat="59.8821397" lon="17.7147587">
        <ele>30.8995</ele>
        <time>2013-03-10T12:37:38Z</time>
      </trkpt>
      <trkpt lat="59.8821439" lon="17.7147836">
        <ele>30.8995</ele>
        <time>2013-03-10T12:37:39Z</time>
      </trkpt>
      <trkpt lat="59.8821478" lon="17.7148087">
        <ele>30.8995</ele>
        <time>2013-03-10T12:37:40Z</time>
      </trkpt>
      <trkpt lat="59.882151" lon="17.7148331">
        <ele>30.8995</ele>
        <time>2013-03-10T12:37:41Z</time>
      </trkpt>
      <trkpt lat="59.8821541" lon="17.7148581">
        <ele>30.8995</ele>
        <time>2013-03-10T12:37:42Z</time>
      </trkpt>
      <trkpt lat="59.8821574" lon="17.7148828">
        <ele>31.3801</ele>
        <time>2013-03-10T12:37:43Z</time>
      </trkpt>
      <trkpt lat="59.8821609" lon="17.7149067">
        <ele>31.3801</ele>
        <time>2013-03-10T12:37:44Z</time>
      </trkpt>
      <trkpt lat="59.8821646" lon="17.7149301">
        <ele>31.3801</ele>
        <time>2013-03-10T12:37:45Z</time>
      </trkpt>
      <trkpt lat="59.8821623" lon="17.7149529">
        <ele>30.4188</ele>
        <time>2013-03-10T12:37:46Z</time>
      </trkpt>
      <trkpt lat="59.8821436" lon="17.7149722">
        <ele>28.4962</ele>
        <time>2013-03-10T12:37:47Z</time>
      </trkpt>
      <trkpt lat="59.882134" lon="17.7149907">
        <ele>28.0155</ele>
        <time>2013-03-10T12:37:48Z</time>
      </trkpt>
      <trkpt lat="59.8821343" lon="17.7150115">
        <ele>27.5349</ele>
        <time>2013-03-10T12:37:49Z</time>
      </trkpt>
      <trkpt lat="59.882137" lon="17.7150347">
        <ele>28.0155</ele>
        <time>2013-03-10T12:37:50Z</time>
      </trkpt>
      <trkpt lat="59.8821413" lon="17.7150585">
        <ele>27.5349</ele>
        <time>2013-03-10T12:37:51Z</time>
      </trkpt>
      <trkpt lat="59.8821464" lon="17.7150831">
        <ele>28.0155</ele>
        <time>2013-03-10T12:37:52Z</time>
      </trkpt>
      <trkpt lat="59.8821521" lon="17.7151079">
        <ele>28.0155</ele>
        <time>2013-03-10T12:37:53Z</time>
      </trkpt>
      <trkpt lat="59.8821574" lon="17.7151335">
        <ele>28.4962</ele>
        <time>2013-03-10T12:37:54Z</time>
      </trkpt>
      <trkpt lat="59.8821625" lon="17.7151596">
        <ele>28.4962</ele>
        <time>2013-03-10T12:37:55Z</time>
      </trkpt>
      <trkpt lat="59.8821664" lon="17.7151855">
        <ele>28.4962</ele>
        <time>2013-03-10T12:37:56Z</time>
      </trkpt>
      <trkpt lat="59.8821708" lon="17.7152094">
        <ele>28.9769</ele>
        <time>2013-03-10T12:37:57Z</time>
      </trkpt>
      <trkpt lat="59.8821747" lon="17.7152333">
        <ele>28.9769</ele>
        <time>2013-03-10T12:37:58Z</time>
      </trkpt>
      <trkpt lat="59.8821789" lon="17.7152582">
        <ele>28.9769</ele>
        <time>2013-03-10T12:37:59Z</time>
      </trkpt>
      <trkpt lat="59.8821827" lon="17.715283">
        <ele>29.4575</ele>
        <time>2013-03-10T12:38:00Z</time>
      </trkpt>
      <trkpt lat="59.8821864" lon="17.7153079">
        <ele>29.4575</ele>
        <time>2013-03-10T12:38:01Z</time>
      </trkpt>
      <trkpt lat="59.8821915" lon="17.7153325">
        <ele>29.4575</ele>
        <time>2013-03-10T12:38:02Z</time>
      </trkpt>
      <trkpt lat="59.8821955" lon="17.7153583">
        <ele>29.4575</ele>
        <time>2013-03-10T12:38:03Z</time>
      </trkpt>
      <trkpt lat="59.8822003" lon="17.7153843">
        <ele>29.9381</ele>
        <time>2013-03-10T12:38:04Z</time>
      </trkpt>
      <trkpt lat="59.8822056" lon="17.7154086">
        <ele>29.9381</ele>
        <time>2013-03-10T12:38:05Z</time>
      </trkpt>
      <trkpt lat="59.8822091" lon="17.7154331">
        <ele>29.9381</ele>
        <time>2013-03-10T12:38:06Z</time>
      </trkpt>
      <trkpt lat="59.8822128" lon="17.7154585">
        <ele>29.9381</ele>
        <time>2013-03-10T12:38:07Z</time>
      </trkpt>
      <trkpt lat="59.8822156" lon="17.7154834">
        <ele>29.9381</ele>
        <time>2013-03-10T12:38:08Z</time>
      </trkpt>
      <trkpt lat="59.8822101" lon="17.7155039">
        <ele>28.9769</ele>
        <time>2013-03-10T12:38:09Z</time>
      </trkpt>
      <trkpt lat="59.8822065" lon="17.7155237">
        <ele>27.5349</ele>
        <time>2013-03-10T12:38:10Z</time>
      </trkpt>
      <trkpt lat="59.8822038" lon="17.7155458">
        <ele>27.0543</ele>
        <time>2013-03-10T12:38:11Z</time>
      </trkpt>
      <trkpt lat="59.8822008" lon="17.7155692">
        <ele>26.0929</ele>
        <time>2013-03-10T12:38:12Z</time>
      </trkpt>
      <trkpt lat="59.8821993" lon="17.7155923">
        <ele>25.6123</ele>
        <time>2013-03-10T12:38:13Z</time>
      </trkpt>
      <trkpt lat="59.8821983" lon="17.7156181">
        <ele>25.1317</ele>
        <time>2013-03-10T12:38:14Z</time>
      </trkpt>
      <trkpt lat="59.8822013" lon="17.7156458">
        <ele>25.1317</ele>
        <time>2013-03-10T12:38:15Z</time>
      </trkpt>
      <trkpt lat="59.8822042" lon="17.7156714">
        <ele>25.1317</ele>
        <time>2013-03-10T12:38:16Z</time>
      </trkpt>
      <trkpt lat="59.8822027" lon="17.7156968">
        <ele>24.651</ele>
        <time>2013-03-10T12:38:17Z</time>
      </trkpt>
      <trkpt lat="59.8822029" lon="17.7157226">
        <ele>24.1703</ele>
        <time>2013-03-10T12:38:18Z</time>
      </trkpt>
      <trkpt lat="59.8822042" lon="17.715748">
        <ele>24.1703</ele>
        <time>2013-03-10T12:38:19Z</time>
      </trkpt>
      <trkpt lat="59.8822056" lon="17.7157735">
        <ele>23.6896</ele>
        <time>2013-03-10T12:38:20Z</time>
      </trkpt>
      <trkpt lat="59.882206" lon="17.7157992">
        <ele>23.209</ele>
        <time>2013-03-10T12:38:21Z</time>
      </trkpt>
      <trkpt lat="59.8822069" lon="17.7158238">
        <ele>23.209</ele>
        <time>2013-03-10T12:38:22Z</time>
      </trkpt>
      <trkpt lat="59.8822087" lon="17.715848">
        <ele>23.209</ele>
        <time>2013-03-10T12:38:23Z</time>
      </trkpt>
      <trkpt lat="59.8822116" lon="17.7158718">
        <ele>22.7283</ele>
        <time>2013-03-10T12:38:24Z</time>
      </trkpt>
      <trkpt lat="59.8822167" lon="17.7158948">
        <ele>22.7283</ele>
        <time>2013-03-10T12:38:25Z</time>
      </trkpt>
      <trkpt lat="59.8822215" lon="17.7159188">
        <ele>22.7283</ele>
        <time>2013-03-10T12:38:26Z</time>
      </trkpt>
      <trkpt lat="59.8822257" lon="17.7159427">
        <ele>22.7283</ele>
        <time>2013-03-10T12:38:27Z</time>
      </trkpt>
      <trkpt lat="59.8822305" lon="17.7159662">
        <ele>22.7283</ele>
        <time>2013-03-10T12:38:28Z</time>
      </trkpt>
      <trkpt lat="59.8822358" lon="17.715991">
        <ele>22.7283</ele>
        <time>2013-03-10T12:38:29Z</time>
      </trkpt>
      <trkpt lat="59.8822405" lon="17.716016">
        <ele>22.7283</ele>
        <time>2013-03-10T12:38:30Z</time>
      </trkpt>
      <trkpt lat="59.882245" lon="17.7160405">
        <ele>22.7283</ele>
        <time>2013-03-10T12:38:31Z</time>
      </trkpt>
      <trkpt lat="59.8822493" lon="17.7160651">
        <ele>22.7283</ele>
        <time>2013-03-10T12:38:32Z</time>
      </trkpt>
      <trkpt lat="59.8822534" lon="17.7160906">
        <ele>23.209</ele>
        <time>2013-03-10T12:38:33Z</time>
      </trkpt>
      <trkpt lat="59.8822569" lon="17.7161162">
        <ele>23.209</ele>
        <time>2013-03-10T12:38:34Z</time>
      </trkpt>
      <trkpt lat="59.882261" lon="17.7161422">
        <ele>23.209</ele>
        <time>2013-03-10T12:38:35Z</time>
      </trkpt>
      <trkpt lat="59.882265" lon="17.7161677">
        <ele>23.209</ele>
        <time>2013-03-10T12:38:36Z</time>
      </trkpt>
      <trkpt lat="59.8822688" lon="17.7161923">
        <ele>23.209</ele>
        <time>2013-03-10T12:38:37Z</time>
      </trkpt>
      <trkpt lat="59.8822728" lon="17.7162179">
        <ele>23.6896</ele>
        <time>2013-03-10T12:38:38Z</time>
      </trkpt>
      <trkpt lat="59.8822768" lon="17.7162442">
        <ele>23.6896</ele>
        <time>2013-03-10T12:38:39Z</time>
      </trkpt>
      <trkpt lat="59.8822801" lon="17.7162706">
        <ele>23.6896</ele>
        <time>2013-03-10T12:38:40Z</time>
      </trkpt>
      <trkpt lat="59.882283" lon="17.7162967">
        <ele>23.6896</ele>
        <time>2013-03-10T12:38:41Z</time>
      </trkpt>
      <trkpt lat="59.8822863" lon="17.716322">
        <ele>23.6896</ele>
        <time>2013-03-10T12:38:42Z</time>
      </trkpt>
      <trkpt lat="59.88229" lon="17.7163472">
        <ele>23.6896</ele>
        <time>2013-03-10T12:38:43Z</time>
      </trkpt>
      <trkpt lat="59.8822935" lon="17.7163726">
        <ele>23.6896</ele>
        <time>2013-03-10T12:38:44Z</time>
      </trkpt>
      <trkpt lat="59.8822968" lon="17.7163985">
        <ele>23.6896</ele>
        <time>2013-03-10T12:38:45Z</time>
      </trkpt>
      <trkpt lat="59.8823001" lon="17.7164249">
        <ele>23.6896</ele>
        <time>2013-03-10T12:38:46Z</time>
      </trkpt>
      <trkpt lat="59.8823033" lon="17.7164521">
        <ele>23.6896</ele>
        <time>2013-03-10T12:38:47Z</time>
      </trkpt>
      <trkpt lat="59.8823061" lon="17.7164794">
        <ele>23.6896</ele>
        <time>2013-03-10T12:38:48Z</time>
      </trkpt>
      <trkpt lat="59.8823105" lon="17.7165057">
        <ele>23.6896</ele>
        <time>2013-03-10T12:38:49Z</time>
      </trkpt>
      <trkpt lat="59.8823152" lon="17.7165319">
        <ele>23.6896</ele>
        <time>2013-03-10T12:38:50Z</time>
      </trkpt>
      <trkpt lat="59.8823201" lon="17.7165588">
        <ele>23.6896</ele>
        <time>2013-03-10T12:38:51Z</time>
      </trkpt>
      <trkpt lat="59.8823255" lon="17.7165862">
        <ele>24.1703</ele>
        <time>2013-03-10T12:38:52Z</time>
      </trkpt>
      <trkpt lat="59.8823308" lon="17.7166136">
        <ele>24.1703</ele>
        <time>2013-03-10T12:38:53Z</time>
      </trkpt>
      <trkpt lat="59.8823363" lon="17.7166401">
        <ele>24.1703</ele>
        <time>2013-03-10T12:38:54Z</time>
      </trkpt>
      <trkpt lat="59.8823412" lon="17.7166661">
        <ele>24.651</ele>
        <time>2013-03-10T12:38:55Z</time>
      </trkpt>
      <trkpt lat="59.8823452" lon="17.7166923">
        <ele>24.651</ele>
        <time>2013-03-10T12:38:56Z</time>
      </trkpt>
      <trkpt lat="59.8823489" lon="17.7167181">
        <ele>24.651</ele>
        <time>2013-03-10T12:38:57Z</time>
      </trkpt>
      <trkpt lat="59.8823529" lon="17.7167427">
        <ele>24.651</ele>
        <time>2013-03-10T12:38:58Z</time>
      </trkpt>
      <trkpt lat="59.8823567" lon="17.716767">
        <ele>25.1317</ele>
        <time>2013-03-10T12:38:59Z</time>
      </trkpt>
      <trkpt lat="59.8823605" lon="17.7167911">
        <ele>25.1317</ele>
        <time>2013-03-10T12:39:00Z</time>
      </trkpt>
      <trkpt lat="59.8823649" lon="17.7168141">
        <ele>25.1317</ele>
        <time>2013-03-10T12:39:01Z</time>
      </trkpt>
      <trkpt lat="59.8823687" lon="17.7168379">
        <ele>25.1317</ele>
        <time>2013-03-10T12:39:02Z</time>
      </trkpt>
      <trkpt lat="59.8823721" lon="17.7168628">
        <ele>25.1317</ele>
        <time>2013-03-10T12:39:03Z</time>
      </trkpt>
      <trkpt lat="59.8823753" lon="17.7168861">
        <ele>25.6123</ele>
        <time>2013-03-10T12:39:04Z</time>
      </trkpt>
      <trkpt lat="59.8823783" lon="17.7169095">
        <ele>25.1317</ele>
        <time>2013-03-10T12:39:05Z</time>
      </trkpt>
      <trkpt lat="59.8823817" lon="17.7169324">
        <ele>25.6123</ele>
        <time>2013-03-10T12:39:06Z</time>
      </trkpt>
      <trkpt lat="59.8823857" lon="17.7169541">
        <ele>25.6123</ele>
        <time>2013-03-10T12:39:07Z</time>
      </trkpt>
      <trkpt lat="59.8823889" lon="17.7169781">
        <ele>25.6123</ele>
        <time>2013-03-10T12:39:08Z</time>
      </trkpt>
      <trkpt lat="59.8823904" lon="17.7170038">
        <ele>25.6123</ele>
        <time>2013-03-10T12:39:09Z</time>
      </trkpt>
      <trkpt lat="59.8823894" lon="17.7170302">
        <ele>25.6123</ele>
        <time>2013-03-10T12:39:10Z</time>
      </trkpt>
      <trkpt lat="59.8823877" lon="17.7170561">
        <ele>25.6123</ele>
        <time>2013-03-10T12:39:11Z</time>
      </trkpt>
      <trkpt lat="59.8823879" lon="17.7170815">
        <ele>25.6123</ele>
        <time>2013-03-10T12:39:12Z</time>
      </trkpt>
      <trkpt lat="59.8823908" lon="17.7171058">
        <ele>25.6123</ele>
        <time>2013-03-10T12:39:13Z</time>
      </trkpt>
      <trkpt lat="59.8823941" lon="17.7171282">
        <ele>25.6123</ele>
        <time>2013-03-10T12:39:14Z</time>
      </trkpt>
      <trkpt lat="59.8823991" lon="17.7171504">
        <ele>25.1317</ele>
        <time>2013-03-10T12:39:15Z</time>
      </trkpt>
      <trkpt lat="59.8824022" lon="17.7171712">
        <ele>25.1317</ele>
        <time>2013-03-10T12:39:16Z</time>
      </trkpt>
      <trkpt lat="59.8824042" lon="17.7171936">
        <ele>25.1317</ele>
        <time>2013-03-10T12:39:17Z</time>
      </trkpt>
      <trkpt lat="59.882406" lon="17.7172183">
        <ele>25.1317</ele>
        <time>2013-03-10T12:39:18Z</time>
      </trkpt>
      <trkpt lat="59.8824075" lon="17.7172447">
        <ele>25.1317</ele>
        <time>2013-03-10T12:39:19Z</time>
      </trkpt>
      <trkpt lat="59.8824096" lon="17.7172715">
        <ele>25.1317</ele>
        <time>2013-03-10T12:39:20Z</time>
      </trkpt>
      <trkpt lat="59.8824126" lon="17.7172995">
        <ele>25.1317</ele>
        <time>2013-03-10T12:39:21Z</time>
      </trkpt>
      <trkpt lat="59.8824143" lon="17.7173276">
        <ele>25.1317</ele>
        <time>2013-03-10T12:39:22Z</time>
      </trkpt>
      <trkpt lat="59.8824147" lon="17.7173549">
        <ele>25.1317</ele>
        <time>2013-03-10T12:39:23Z</time>
      </trkpt>
      <trkpt lat="59.8824152" lon="17.717382">
        <ele>25.1317</ele>
        <time>2013-03-10T12:39:24Z</time>
      </trkpt>
      <trkpt lat="59.8824158" lon="17.7174102">
        <ele>24.651</ele>
        <time>2013-03-10T12:39:25Z</time>
      </trkpt>
      <trkpt lat="59.8824166" lon="17.7174384">
        <ele>24.651</ele>
        <time>2013-03-10T12:39:26Z</time>
      </trkpt>
      <trkpt lat="59.8824178" lon="17.7174669">
        <ele>24.651</ele>
        <time>2013-03-10T12:39:27Z</time>
      </trkpt>
      <trkpt lat="59.8824187" lon="17.7174957">
        <ele>24.651</ele>
        <time>2013-03-10T12:39:28Z</time>
      </trkpt>
      <trkpt lat="59.882419" lon="17.7175243">
        <ele>24.651</ele>
        <time>2013-03-10T12:39:29Z</time>
      </trkpt>
      <trkpt lat="59.8824189" lon="17.7175532">
        <ele>24.651</ele>
        <time>2013-03-10T12:39:30Z</time>
      </trkpt>
      <trkpt lat="59.8824188" lon="17.7175821">
        <ele>24.1703</ele>
        <time>2013-03-10T12:39:31Z</time>
      </trkpt>
      <trkpt lat="59.8824189" lon="17.7176113">
        <ele>24.1703</ele>
        <time>2013-03-10T12:39:32Z</time>
      </trkpt>
      <trkpt lat="59.8824188" lon="17.7176404">
        <ele>24.1703</ele>
        <time>2013-03-10T12:39:33Z</time>
      </trkpt>
      <trkpt lat="59.8824193" lon="17.7176693">
        <ele>24.1703</ele>
        <time>2013-03-10T12:39:34Z</time>
      </trkpt>
      <trkpt lat="59.8824194" lon="17.7176966">
        <ele>24.1703</ele>
        <time>2013-03-10T12:39:35Z</time>
      </trkpt>
      <trkpt lat="59.8824205" lon="17.7177238">
        <ele>24.1703</ele>
        <time>2013-03-10T12:39:36Z</time>
      </trkpt>
      <trkpt lat="59.8824236" lon="17.7177507">
        <ele>24.1703</ele>
        <time>2013-03-10T12:39:37Z</time>
      </trkpt>
      <trkpt lat="59.8824261" lon="17.7177805">
        <ele>24.1703</ele>
        <time>2013-03-10T12:39:38Z</time>
      </trkpt>
      <trkpt lat="59.8824272" lon="17.7178096">
        <ele>24.1703</ele>
        <time>2013-03-10T12:39:39Z</time>
      </trkpt>
      <trkpt lat="59.8824286" lon="17.7178361">
        <ele>24.651</ele>
        <time>2013-03-10T12:39:40Z</time>
      </trkpt>
      <trkpt lat="59.8824298" lon="17.7178619">
        <ele>24.651</ele>
        <time>2013-03-10T12:39:41Z</time>
      </trkpt>
      <trkpt lat="59.8824334" lon="17.7178891">
        <ele>25.1317</ele>
        <time>2013-03-10T12:39:42Z</time>
      </trkpt>
      <trkpt lat="59.8824356" lon="17.7179166">
        <ele>25.1317</ele>
        <time>2013-03-10T12:39:43Z</time>
      </trkpt>
      <trkpt lat="59.88244" lon="17.7179359">
        <ele>25.6123</ele>
        <time>2013-03-10T12:39:44Z</time>
      </trkpt>
      <trkpt lat="59.882443" lon="17.7179558">
        <ele>26.0929</ele>
        <time>2013-03-10T12:39:45Z</time>
      </trkpt>
      <trkpt lat="59.8824453" lon="17.7179848">
        <ele>26.0929</ele>
        <time>2013-03-10T12:39:46Z</time>
      </trkpt>
      <trkpt lat="59.8824484" lon="17.7180117">
        <ele>26.0929</ele>
        <time>2013-03-10T12:39:47Z</time>
      </trkpt>
      <trkpt lat="59.8824505" lon="17.7180377">
        <ele>26.0929</ele>
        <time>2013-03-10T12:39:48Z</time>
      </trkpt>
      <trkpt lat="59.8824552" lon="17.7180639">
        <ele>26.5736</ele>
        <time>2013-03-10T12:39:49Z</time>
      </trkpt>
      <trkpt lat="59.8824584" lon="17.7180869">
        <ele>27.0543</ele>
        <time>2013-03-10T12:39:50Z</time>
      </trkpt>
      <trkpt lat="59.8824609" lon="17.7181106">
        <ele>27.0543</ele>
        <time>2013-03-10T12:39:51Z</time>
      </trkpt>
      <trkpt lat="59.8824638" lon="17.7181371">
        <ele>27.0543</ele>
        <time>2013-03-10T12:39:52Z</time>
      </trkpt>
      <trkpt lat="59.8824677" lon="17.7181621">
        <ele>27.0543</ele>
        <time>2013-03-10T12:39:53Z</time>
      </trkpt>
      <trkpt lat="59.8824717" lon="17.7181875">
        <ele>27.0543</ele>
        <time>2013-03-10T12:39:54Z</time>
      </trkpt>
      <trkpt lat="59.8824752" lon="17.7182146">
        <ele>27.0543</ele>
        <time>2013-03-10T12:39:55Z</time>
      </trkpt>
      <trkpt lat="59.8824794" lon="17.7182412">
        <ele>27.5349</ele>
        <time>2013-03-10T12:39:56Z</time>
      </trkpt>
      <trkpt lat="59.8824817" lon="17.7182708">
        <ele>27.5349</ele>
        <time>2013-03-10T12:39:57Z</time>
      </trkpt>
      <trkpt lat="59.8824866" lon="17.7183001">
        <ele>27.5349</ele>
        <time>2013-03-10T12:39:58Z</time>
      </trkpt>
      <trkpt lat="59.8824913" lon="17.7183265">
        <ele>28.0155</ele>
        <time>2013-03-10T12:39:59Z</time>
      </trkpt>
      <trkpt lat="59.8824956" lon="17.7183532">
        <ele>28.0155</ele>
        <time>2013-03-10T12:40:00Z</time>
      </trkpt>
      <trkpt lat="59.8825001" lon="17.7183796">
        <ele>28.4962</ele>
        <time>2013-03-10T12:40:01Z</time>
      </trkpt>
      <trkpt lat="59.8825044" lon="17.7184061">
        <ele>28.4962</ele>
        <time>2013-03-10T12:40:02Z</time>
      </trkpt>
      <trkpt lat="59.8825094" lon="17.7184324">
        <ele>28.4962</ele>
        <time>2013-03-10T12:40:03Z</time>
      </trkpt>
      <trkpt lat="59.882514" lon="17.7184589">
        <ele>28.9769</ele>
        <time>2013-03-10T12:40:04Z</time>
      </trkpt>
      <trkpt lat="59.8825189" lon="17.7184852">
        <ele>28.9769</ele>
        <time>2013-03-10T12:40:05Z</time>
      </trkpt>
      <trkpt lat="59.8825242" lon="17.7185112">
        <ele>28.9769</ele>
        <time>2013-03-10T12:40:06Z</time>
      </trkpt>
      <trkpt lat="59.8825293" lon="17.718539">
        <ele>28.9769</ele>
        <time>2013-03-10T12:40:07Z</time>
      </trkpt>
      <trkpt lat="59.8825339" lon="17.7185671">
        <ele>28.9769</ele>
        <time>2013-03-10T12:40:08Z</time>
      </trkpt>
      <trkpt lat="59.8825385" lon="17.7185945">
        <ele>29.4575</ele>
        <time>2013-03-10T12:40:09Z</time>
      </trkpt>
      <trkpt lat="59.8825438" lon="17.7186211">
        <ele>29.4575</ele>
        <time>2013-03-10T12:40:10Z</time>
      </trkpt>
      <trkpt lat="59.8825497" lon="17.718647">
        <ele>29.9381</ele>
        <time>2013-03-10T12:40:11Z</time>
      </trkpt>
      <trkpt lat="59.8825552" lon="17.7186724">
        <ele>29.9381</ele>
        <time>2013-03-10T12:40:12Z</time>
      </trkpt>
      <trkpt lat="59.8825618" lon="17.7186982">
        <ele>30.4188</ele>
        <time>2013-03-10T12:40:13Z</time>
      </trkpt>
      <trkpt lat="59.8825682" lon="17.7187239">
        <ele>30.4188</ele>
        <time>2013-03-10T12:40:14Z</time>
      </trkpt>
      <trkpt lat="59.8825749" lon="17.7187497">
        <ele>30.8995</ele>
        <time>2013-03-10T12:40:15Z</time>
      </trkpt>
      <trkpt lat="59.8825821" lon="17.7187769">
        <ele>31.3801</ele>
        <time>2013-03-10T12:40:16Z</time>
      </trkpt>
      <trkpt lat="59.8825888" lon="17.7188042">
        <ele>31.8607</ele>
        <time>2013-03-10T12:40:17Z</time>
      </trkpt>
      <trkpt lat="59.8825944" lon="17.7188307">
        <ele>31.8607</ele>
        <time>2013-03-10T12:40:18Z</time>
      </trkpt>
      <trkpt lat="59.8826007" lon="17.7188559">
        <ele>32.3416</ele>
        <time>2013-03-10T12:40:19Z</time>
      </trkpt>
      <trkpt lat="59.8826075" lon="17.7188805">
        <ele>32.3416</ele>
        <time>2013-03-10T12:40:20Z</time>
      </trkpt>
      <trkpt lat="59.8826135" lon="17.7189051">
        <ele>32.3416</ele>
        <time>2013-03-10T12:40:21Z</time>
      </trkpt>
      <trkpt lat="59.8826189" lon="17.7189302">
        <ele>32.3416</ele>
        <time>2013-03-10T12:40:22Z</time>
      </trkpt>
      <trkpt lat="59.8826245" lon="17.7189559">
        <ele>32.3416</ele>
        <time>2013-03-10T12:40:23Z</time>
      </trkpt>
      <trkpt lat="59.8826302" lon="17.7189805">
        <ele>32.8223</ele>
        <time>2013-03-10T12:40:24Z</time>
      </trkpt>
      <trkpt lat="59.8826365" lon="17.7190047">
        <ele>32.8223</ele>
        <time>2013-03-10T12:40:25Z</time>
      </trkpt>
      <trkpt lat="59.8826425" lon="17.7190289">
        <ele>32.8223</ele>
        <time>2013-03-10T12:40:26Z</time>
      </trkpt>
      <trkpt lat="59.8826467" lon="17.7190543">
        <ele>32.3416</ele>
        <time>2013-03-10T12:40:27Z</time>
      </trkpt>
      <trkpt lat="59.8826508" lon="17.7190789">
        <ele>32.3416</ele>
        <time>2013-03-10T12:40:28Z</time>
      </trkpt>
      <trkpt lat="59.8826549" lon="17.7191027">
        <ele>32.3416</ele>
        <time>2013-03-10T12:40:29Z</time>
      </trkpt>
      <trkpt lat="59.8826597" lon="17.7191272">
        <ele>31.8607</ele>
        <time>2013-03-10T12:40:30Z</time>
      </trkpt>
      <trkpt lat="59.8826647" lon="17.7191522">
        <ele>31.8607</ele>
        <time>2013-03-10T12:40:31Z</time>
      </trkpt>
      <trkpt lat="59.8826699" lon="17.7191773">
        <ele>31.8607</ele>
        <time>2013-03-10T12:40:32Z</time>
      </trkpt>
      <trkpt lat="59.8826739" lon="17.7192025">
        <ele>31.8607</ele>
        <time>2013-03-10T12:40:33Z</time>
      </trkpt>
      <trkpt lat="59.882677" lon="17.719227">
        <ele>31.8607</ele>
        <time>2013-03-10T12:40:34Z</time>
      </trkpt>
      <trkpt lat="59.88268" lon="17.7192512">
        <ele>31.3801</ele>
        <time>2013-03-10T12:40:35Z</time>
      </trkpt>
      <trkpt lat="59.8826881" lon="17.7192753">
        <ele>31.3801</ele>
        <time>2013-03-10T12:40:36Z</time>
      </trkpt>
      <trkpt lat="59.8826959" lon="17.7193004">
        <ele>31.3801</ele>
        <time>2013-03-10T12:40:37Z</time>
      </trkpt>
      <trkpt lat="59.8826995" lon="17.7193295">
        <ele>31.3801</ele>
        <time>2013-03-10T12:40:38Z</time>
      </trkpt>
      <trkpt lat="59.8827029" lon="17.7193527">
        <ele>31.3801</ele>
        <time>2013-03-10T12:40:39Z</time>
      </trkpt>
      <trkpt lat="59.8827095" lon="17.7193729">
        <ele>31.3801</ele>
        <time>2013-03-10T12:40:40Z</time>
      </trkpt>
      <trkpt lat="59.8827142" lon="17.719398">
        <ele>30.8995</ele>
        <time>2013-03-10T12:40:41Z</time>
      </trkpt>
      <trkpt lat="59.8827157" lon="17.7194222">
        <ele>30.4188</ele>
        <time>2013-03-10T12:40:42Z</time>
      </trkpt>
      <trkpt lat="59.8827184" lon="17.7194459">
        <ele>29.9381</ele>
        <time>2013-03-10T12:40:43Z</time>
      </trkpt>
      <trkpt lat="59.8827182" lon="17.7194648">
        <ele>29.4575</ele>
        <time>2013-03-10T12:40:44Z</time>
      </trkpt>
      <trkpt lat="59.8827204" lon="17.7194812">
        <ele>28.4962</ele>
        <time>2013-03-10T12:40:45Z</time>
      </trkpt>
      <trkpt lat="59.8827271" lon="17.719503">
        <ele>28.4962</ele>
        <time>2013-03-10T12:40:46Z</time>
      </trkpt>
      <trkpt lat="59.8827287" lon="17.7195286">
        <ele>28.4962</ele>
        <time>2013-03-10T12:40:47Z</time>
      </trkpt>
      <trkpt lat="59.882731" lon="17.719554">
        <ele>28.0155</ele>
        <time>2013-03-10T12:40:48Z</time>
      </trkpt>
      <trkpt lat="59.8827347" lon="17.7195794">
        <ele>28.0155</ele>
        <time>2013-03-10T12:40:49Z</time>
      </trkpt>
      <trkpt lat="59.8827388" lon="17.7196051">
        <ele>27.5349</ele>
        <time>2013-03-10T12:40:50Z</time>
      </trkpt>
      <trkpt lat="59.882745" lon="17.7196307">
        <ele>28.0155</ele>
        <time>2013-03-10T12:40:51Z</time>
      </trkpt>
      <trkpt lat="59.882751" lon="17.7196568">
        <ele>27.5349</ele>
        <time>2013-03-10T12:40:52Z</time>
      </trkpt>
      <trkpt lat="59.8827565" lon="17.7196825">
        <ele>27.5349</ele>
        <time>2013-03-10T12:40:53Z</time>
      </trkpt>
      <trkpt lat="59.8827599" lon="17.7197056">
        <ele>27.5349</ele>
        <time>2013-03-10T12:40:54Z</time>
      </trkpt>
      <trkpt lat="59.8827628" lon="17.7197279">
        <ele>27.5349</ele>
        <time>2013-03-10T12:40:55Z</time>
      </trkpt>
      <trkpt lat="59.8827678" lon="17.7197523">
        <ele>27.5349</ele>
        <time>2013-03-10T12:40:56Z</time>
      </trkpt>
      <trkpt lat="59.8827731" lon="17.7197772">
        <ele>27.5349</ele>
        <time>2013-03-10T12:40:57Z</time>
      </trkpt>
      <trkpt lat="59.8827787" lon="17.7198024">
        <ele>27.5349</ele>
        <time>2013-03-10T12:40:58Z</time>
      </trkpt>
      <trkpt lat="59.882784" lon="17.7198272">
        <ele>27.5349</ele>
        <time>2013-03-10T12:40:59Z</time>
      </trkpt>
      <trkpt lat="59.8827897" lon="17.7198521">
        <ele>27.5349</ele>
        <time>2013-03-10T12:41:00Z</time>
      </trkpt>
      <trkpt lat="59.8827991" lon="17.7198757">
        <ele>28.0155</ele>
        <time>2013-03-10T12:41:01Z</time>
      </trkpt>
      <trkpt lat="59.8828086" lon="17.7198978">
        <ele>28.0155</ele>
        <time>2013-03-10T12:41:02Z</time>
      </trkpt>
      <trkpt lat="59.882817" lon="17.7199204">
        <ele>28.0155</ele>
        <time>2013-03-10T12:41:03Z</time>
      </trkpt>
      <trkpt lat="59.8828261" lon="17.7199449">
        <ele>28.4962</ele>
        <time>2013-03-10T12:41:04Z</time>
      </trkpt>
      <trkpt lat="59.8828345" lon="17.71997">
        <ele>28.4962</ele>
        <time>2013-03-10T12:41:05Z</time>
      </trkpt>
      <trkpt lat="59.8828409" lon="17.7199936">
        <ele>28.4962</ele>
        <time>2013-03-10T12:41:06Z</time>
      </trkpt>
      <trkpt lat="59.8828456" lon="17.7200175">
        <ele>28.4962</ele>
        <time>2013-03-10T12:41:07Z</time>
      </trkpt>
      <trkpt lat="59.8828494" lon="17.720043">
        <ele>28.4962</ele>
        <time>2013-03-10T12:41:08Z</time>
      </trkpt>
      <trkpt lat="59.8828538" lon="17.7200671">
        <ele>28.4962</ele>
        <time>2013-03-10T12:41:09Z</time>
      </trkpt>
      <trkpt lat="59.8828592" lon="17.7200911">
        <ele>28.4962</ele>
        <time>2013-03-10T12:41:10Z</time>
      </trkpt>
      <trkpt lat="59.8828649" lon="17.7201149">
        <ele>28.4962</ele>
        <time>2013-03-10T12:41:11Z</time>
      </trkpt>
      <trkpt lat="59.8828689" lon="17.7201382">
        <ele>28.4962</ele>
        <time>2013-03-10T12:41:12Z</time>
      </trkpt>
      <trkpt lat="59.8828736" lon="17.7201619">
        <ele>28.4962</ele>
        <time>2013-03-10T12:41:13Z</time>
      </trkpt>
      <trkpt lat="59.8828779" lon="17.7201846">
        <ele>28.4962</ele>
        <time>2013-03-10T12:41:14Z</time>
      </trkpt>
      <trkpt lat="59.8828825" lon="17.7202081">
        <ele>28.4962</ele>
        <time>2013-03-10T12:41:15Z</time>
      </trkpt>
      <trkpt lat="59.8828873" lon="17.720232">
        <ele>28.4962</ele>
        <time>2013-03-10T12:41:16Z</time>
      </trkpt>
      <trkpt lat="59.8828923" lon="17.7202558">
        <ele>28.4962</ele>
        <time>2013-03-10T12:41:17Z</time>
      </trkpt>
      <trkpt lat="59.8828965" lon="17.7202803">
        <ele>28.4962</ele>
        <time>2013-03-10T12:41:18Z</time>
      </trkpt>
      <trkpt lat="59.8829015" lon="17.7203061">
        <ele>28.4962</ele>
        <time>2013-03-10T12:41:19Z</time>
      </trkpt>
      <trkpt lat="59.8829073" lon="17.7203325">
        <ele>28.4962</ele>
        <time>2013-03-10T12:41:20Z</time>
      </trkpt>
      <trkpt lat="59.8829109" lon="17.7203584">
        <ele>28.4962</ele>
        <time>2013-03-10T12:41:21Z</time>
      </trkpt>
      <trkpt lat="59.8829116" lon="17.7203843">
        <ele>28.4962</ele>
        <time>2013-03-10T12:41:22Z</time>
      </trkpt>
      <trkpt lat="59.882914" lon="17.7204106">
        <ele>28.4962</ele>
        <time>2013-03-10T12:41:23Z</time>
      </trkpt>
      <trkpt lat="59.8829181" lon="17.7204372">
        <ele>28.4962</ele>
        <time>2013-03-10T12:41:24Z</time>
      </trkpt>
      <trkpt lat="59.8829233" lon="17.720464">
        <ele>28.4962</ele>
        <time>2013-03-10T12:41:25Z</time>
      </trkpt>
      <trkpt lat="59.8829289" lon="17.7204909">
        <ele>28.9769</ele>
        <time>2013-03-10T12:41:26Z</time>
      </trkpt>
      <trkpt lat="59.8829338" lon="17.720517">
        <ele>28.9769</ele>
        <time>2013-03-10T12:41:27Z</time>
      </trkpt>
      <trkpt lat="59.8829379" lon="17.7205428">
        <ele>28.9769</ele>
        <time>2013-03-10T12:41:28Z</time>
      </trkpt>
      <trkpt lat="59.8829409" lon="17.7205676">
        <ele>28.9769</ele>
        <time>2013-03-10T12:41:29Z</time>
      </trkpt>
      <trkpt lat="59.8829443" lon="17.7205919">
        <ele>28.9769</ele>
        <time>2013-03-10T12:41:30Z</time>
      </trkpt>
      <trkpt lat="59.8829479" lon="17.7206166">
        <ele>28.9769</ele>
        <time>2013-03-10T12:41:31Z</time>
      </trkpt>
      <trkpt lat="59.8829503" lon="17.7206425">
        <ele>28.4962</ele>
        <time>2013-03-10T12:41:32Z</time>
      </trkpt>
      <trkpt lat="59.8829518" lon="17.720669">
        <ele>28.4962</ele>
        <time>2013-03-10T12:41:33Z</time>
      </trkpt>
      <trkpt lat="59.8829526" lon="17.720695">
        <ele>28.4962</ele>
        <time>2013-03-10T12:41:34Z</time>
      </trkpt>
      <trkpt lat="59.8829536" lon="17.7207213">
        <ele>28.4962</ele>
        <time>2013-03-10T12:41:35Z</time>
      </trkpt>
      <trkpt lat="59.8829505" lon="17.7207475">
        <ele>28.4962</ele>
        <time>2013-03-10T12:41:36Z</time>
      </trkpt>
      <trkpt lat="59.8829497" lon="17.7207746">
        <ele>28.4962</ele>
        <time>2013-03-10T12:41:37Z</time>
      </trkpt>
      <trkpt lat="59.8829466" lon="17.7208013">
        <ele>28.4962</ele>
        <time>2013-03-10T12:41:38Z</time>
      </trkpt>
      <trkpt lat="59.8829431" lon="17.7208267">
        <ele>28.0155</ele>
        <time>2013-03-10T12:41:39Z</time>
      </trkpt>
      <trkpt lat="59.8829328" lon="17.7208542">
        <ele>27.5349</ele>
        <time>2013-03-10T12:41:40Z</time>
      </trkpt>
      <trkpt lat="59.8829199" lon="17.7208779">
        <ele>27.0543</ele>
        <time>2013-03-10T12:41:41Z</time>
      </trkpt>
      <trkpt lat="59.8829118" lon="17.7208998">
        <ele>26.0929</ele>
        <time>2013-03-10T12:41:42Z</time>
      </trkpt>
      <trkpt lat="59.8829061" lon="17.7209243">
        <ele>25.6123</ele>
        <time>2013-03-10T12:41:43Z</time>
      </trkpt>
      <trkpt lat="59.8829002" lon="17.7209466">
        <ele>25.1317</ele>
        <time>2013-03-10T12:41:44Z</time>
      </trkpt>
      <trkpt lat="59.882892" lon="17.7209686">
        <ele>24.651</ele>
        <time>2013-03-10T12:41:45Z</time>
      </trkpt>
      <trkpt lat="59.8828819" lon="17.7209893">
        <ele>24.1703</ele>
        <time>2013-03-10T12:41:46Z</time>
      </trkpt>
      <trkpt lat="59.8828722" lon="17.7210091">
        <ele>23.6896</ele>
        <time>2013-03-10T12:41:47Z</time>
      </trkpt>
      <trkpt lat="59.8828632" lon="17.7210307">
        <ele>23.6896</ele>
        <time>2013-03-10T12:41:48Z</time>
      </trkpt>
      <trkpt lat="59.8828535" lon="17.721052">
        <ele>23.6896</ele>
        <time>2013-03-10T12:41:49Z</time>
      </trkpt>
      <trkpt lat="59.8828431" lon="17.7210709">
        <ele>23.6896</ele>
        <time>2013-03-10T12:41:50Z</time>
      </trkpt>
      <trkpt lat="59.8828323" lon="17.7210875">
        <ele>23.209</ele>
        <time>2013-03-10T12:41:51Z</time>
      </trkpt>
      <trkpt lat="59.8828209" lon="17.7211033">
        <ele>23.209</ele>
        <time>2013-03-10T12:41:52Z</time>
      </trkpt>
      <trkpt lat="59.8828099" lon="17.7211162">
        <ele>23.209</ele>
        <time>2013-03-10T12:41:53Z</time>
      </trkpt>
      <trkpt lat="59.8827955" lon="17.7211262">
        <ele>22.7283</ele>
        <time>2013-03-10T12:41:54Z</time>
      </trkpt>
      <trkpt lat="59.8827808" lon="17.7211364">
        <ele>21.767</ele>
        <time>2013-03-10T12:41:55Z</time>
      </trkpt>
      <trkpt lat="59.8827668" lon="17.721145">
        <ele>21.767</ele>
        <time>2013-03-10T12:41:56Z</time>
      </trkpt>
      <trkpt lat="59.8827534" lon="17.7211569">
        <ele>20.8057</ele>
        <time>2013-03-10T12:41:57Z</time>
      </trkpt>
      <trkpt lat="59.8827397" lon="17.7211753">
        <ele>20.325</ele>
        <time>2013-03-10T12:41:58Z</time>
      </trkpt>
      <trkpt lat="59.882727" lon="17.7211882">
        <ele>19.8444</ele>
        <time>2013-03-10T12:41:59Z</time>
      </trkpt>
      <trkpt lat="59.8827135" lon="17.7211995">
        <ele>19.3638</ele>
        <time>2013-03-10T12:42:00Z</time>
      </trkpt>
      <trkpt lat="59.8827001" lon="17.7212137">
        <ele>18.8831</ele>
        <time>2013-03-10T12:42:01Z</time>
      </trkpt>
      <trkpt lat="59.8826867" lon="17.7212269">
        <ele>18.8831</ele>
        <time>2013-03-10T12:42:02Z</time>
      </trkpt>
      <trkpt lat="59.8826742" lon="17.7212395">
        <ele>18.8831</ele>
        <time>2013-03-10T12:42:03Z</time>
      </trkpt>
      <trkpt lat="59.8826618" lon="17.7212514">
        <ele>18.4023</ele>
        <time>2013-03-10T12:42:04Z</time>
      </trkpt>
      <trkpt lat="59.8826493" lon="17.7212642">
        <ele>18.4023</ele>
        <time>2013-03-10T12:42:05Z</time>
      </trkpt>
      <trkpt lat="59.8826355" lon="17.7212797">
        <ele>18.4023</ele>
        <time>2013-03-10T12:42:06Z</time>
      </trkpt>
      <trkpt lat="59.882622" lon="17.7212918">
        <ele>18.4023</ele>
        <time>2013-03-10T12:42:07Z</time>
      </trkpt>
      <trkpt lat="59.8826095" lon="17.7213005">
        <ele>17.9218</ele>
        <time>2013-03-10T12:42:08Z</time>
      </trkpt>
      <trkpt lat="59.8825979" lon="17.7213101">
        <ele>17.9218</ele>
        <time>2013-03-10T12:42:09Z</time>
      </trkpt>
      <trkpt lat="59.8825868" lon="17.7213204">
        <ele>17.4412</ele>
        <time>2013-03-10T12:42:10Z</time>
      </trkpt>
      <trkpt lat="59.8825752" lon="17.7213312">
        <ele>17.4412</ele>
        <time>2013-03-10T12:42:11Z</time>
      </trkpt>
      <trkpt lat="59.8825628" lon="17.7213401">
        <ele>16.9604</ele>
        <time>2013-03-10T12:42:12Z</time>
      </trkpt>
      <trkpt lat="59.8825494" lon="17.7213528">
        <ele>16.4797</ele>
        <time>2013-03-10T12:42:13Z</time>
      </trkpt>
      <trkpt lat="59.8825359" lon="17.721366">
        <ele>16.4797</ele>
        <time>2013-03-10T12:42:14Z</time>
      </trkpt>
      <trkpt lat="59.8825216" lon="17.7213809">
        <ele>15.999</ele>
        <time>2013-03-10T12:42:15Z</time>
      </trkpt>
      <trkpt lat="59.8825054" lon="17.7214027">
        <ele>15.999</ele>
        <time>2013-03-10T12:42:16Z</time>
      </trkpt>
      <trkpt lat="59.8824907" lon="17.7214213">
        <ele>15.999</ele>
        <time>2013-03-10T12:42:17Z</time>
      </trkpt>
      <trkpt lat="59.8824777" lon="17.7214333">
        <ele>15.999</ele>
        <time>2013-03-10T12:42:18Z</time>
      </trkpt>
      <trkpt lat="59.8824639" lon="17.7214457">
        <ele>15.999</ele>
        <time>2013-03-10T12:42:19Z</time>
      </trkpt>
      <trkpt lat="59.8824504" lon="17.7214566">
        <ele>15.5184</ele>
        <time>2013-03-10T12:42:20Z</time>
      </trkpt>
      <trkpt lat="59.8824384" lon="17.7214706">
        <ele>15.999</ele>
        <time>2013-03-10T12:42:21Z</time>
      </trkpt>
      <trkpt lat="59.8824256" lon="17.7214866">
        <ele>15.999</ele>
        <time>2013-03-10T12:42:22Z</time>
      </trkpt>
      <trkpt lat="59.8824126" lon="17.7214994">
        <ele>15.999</ele>
        <time>2013-03-10T12:42:23Z</time>
      </trkpt>
      <trkpt lat="59.8823997" lon="17.7215115">
        <ele>16.4797</ele>
        <time>2013-03-10T12:42:24Z</time>
      </trkpt>
      <trkpt lat="59.8823869" lon="17.7215228">
        <ele>16.4797</ele>
        <time>2013-03-10T12:42:25Z</time>
      </trkpt>
      <trkpt lat="59.8823739" lon="17.7215354">
        <ele>16.4797</ele>
        <time>2013-03-10T12:42:26Z</time>
      </trkpt>
      <trkpt lat="59.8823607" lon="17.7215488">
        <ele>16.4797</ele>
        <time>2013-03-10T12:42:27Z</time>
      </trkpt>
      <trkpt lat="59.8823482" lon="17.7215617">
        <ele>16.4797</ele>
        <time>2013-03-10T12:42:28Z</time>
      </trkpt>
      <trkpt lat="59.882336" lon="17.7215748">
        <ele>16.4797</ele>
        <time>2013-03-10T12:42:29Z</time>
      </trkpt>
      <trkpt lat="59.8823226" lon="17.7215908">
        <ele>15.999</ele>
        <time>2013-03-10T12:42:30Z</time>
      </trkpt>
      <trkpt lat="59.8823092" lon="17.7216071">
        <ele>15.999</ele>
        <time>2013-03-10T12:42:31Z</time>
      </trkpt>
      <trkpt lat="59.8822977" lon="17.7216219">
        <ele>15.999</ele>
        <time>2013-03-10T12:42:32Z</time>
      </trkpt>
      <trkpt lat="59.8822863" lon="17.7216362">
        <ele>15.999</ele>
        <time>2013-03-10T12:42:33Z</time>
      </trkpt>
      <trkpt lat="59.8822747" lon="17.7216512">
        <ele>15.999</ele>
        <time>2013-03-10T12:42:34Z</time>
      </trkpt>
      <trkpt lat="59.8822635" lon="17.7216647">
        <ele>15.999</ele>
        <time>2013-03-10T12:42:35Z</time>
      </trkpt>
      <trkpt lat="59.8822525" lon="17.7216787">
        <ele>15.999</ele>
        <time>2013-03-10T12:42:36Z</time>
      </trkpt>
      <trkpt lat="59.8822411" lon="17.7216943">
        <ele>15.999</ele>
        <time>2013-03-10T12:42:37Z</time>
      </trkpt>
      <trkpt lat="59.8822304" lon="17.7217098">
        <ele>15.999</ele>
        <time>2013-03-10T12:42:38Z</time>
      </trkpt>
      <trkpt lat="59.8822178" lon="17.7217271">
        <ele>15.999</ele>
        <time>2013-03-10T12:42:39Z</time>
      </trkpt>
      <trkpt lat="59.882205" lon="17.7217431">
        <ele>15.999</ele>
        <time>2013-03-10T12:42:40Z</time>
      </trkpt>
      <trkpt lat="59.8821935" lon="17.7217579">
        <ele>15.999</ele>
        <time>2013-03-10T12:42:41Z</time>
      </trkpt>
      <trkpt lat="59.8821805" lon="17.721776">
        <ele>15.999</ele>
        <time>2013-03-10T12:42:42Z</time>
      </trkpt>
      <trkpt lat="59.8821669" lon="17.7217933">
        <ele>15.999</ele>
        <time>2013-03-10T12:42:43Z</time>
      </trkpt>
      <trkpt lat="59.8821547" lon="17.7218073">
        <ele>15.999</ele>
        <time>2013-03-10T12:42:44Z</time>
      </trkpt>
      <trkpt lat="59.8821419" lon="17.7218253">
        <ele>15.999</ele>
        <time>2013-03-10T12:42:45Z</time>
      </trkpt>
      <trkpt lat="59.8821299" lon="17.7218466">
        <ele>15.999</ele>
        <time>2013-03-10T12:42:46Z</time>
      </trkpt>
      <trkpt lat="59.8821199" lon="17.721861">
        <ele>15.999</ele>
        <time>2013-03-10T12:42:47Z</time>
      </trkpt>
      <trkpt lat="59.8821102" lon="17.7218762">
        <ele>16.4797</ele>
        <time>2013-03-10T12:42:48Z</time>
      </trkpt>
      <trkpt lat="59.8820999" lon="17.7218911">
        <ele>16.4797</ele>
        <time>2013-03-10T12:42:49Z</time>
      </trkpt>
      <trkpt lat="59.8820884" lon="17.7219062">
        <ele>16.4797</ele>
        <time>2013-03-10T12:42:50Z</time>
      </trkpt>
      <trkpt lat="59.8820787" lon="17.7219212">
        <ele>16.4797</ele>
        <time>2013-03-10T12:42:51Z</time>
      </trkpt>
      <trkpt lat="59.8820692" lon="17.7219358">
        <ele>16.4797</ele>
        <time>2013-03-10T12:42:52Z</time>
      </trkpt>
      <trkpt lat="59.8820594" lon="17.7219497">
        <ele>16.4797</ele>
        <time>2013-03-10T12:42:53Z</time>
      </trkpt>
      <trkpt lat="59.8820496" lon="17.7219656">
        <ele>16.4797</ele>
        <time>2013-03-10T12:42:54Z</time>
      </trkpt>
      <trkpt lat="59.8820406" lon="17.7219818">
        <ele>16.4797</ele>
        <time>2013-03-10T12:42:55Z</time>
      </trkpt>
      <trkpt lat="59.882033" lon="17.7219995">
        <ele>16.4797</ele>
        <time>2013-03-10T12:42:56Z</time>
      </trkpt>
      <trkpt lat="59.8820258" lon="17.7220181">
        <ele>16.4797</ele>
        <time>2013-03-10T12:42:57Z</time>
      </trkpt>
      <trkpt lat="59.8820176" lon="17.7220352">
        <ele>16.9604</ele>
        <time>2013-03-10T12:42:58Z</time>
      </trkpt>
      <trkpt lat="59.8820086" lon="17.7220516">
        <ele>16.9604</ele>
        <time>2013-03-10T12:42:59Z</time>
      </trkpt>
      <trkpt lat="59.8819987" lon="17.7220693">
        <ele>16.4797</ele>
        <time>2013-03-10T12:43:00Z</time>
      </trkpt>
      <trkpt lat="59.8819899" lon="17.7220869">
        <ele>16.4797</ele>
        <time>2013-03-10T12:43:01Z</time>
      </trkpt>
      <trkpt lat="59.8819815" lon="17.7221034">
        <ele>16.9604</ele>
        <time>2013-03-10T12:43:02Z</time>
      </trkpt>
      <trkpt lat="59.8819735" lon="17.7221197">
        <ele>16.9604</ele>
        <time>2013-03-10T12:43:03Z</time>
      </trkpt>
      <trkpt lat="59.8819654" lon="17.7221372">
        <ele>16.9604</ele>
        <time>2013-03-10T12:43:04Z</time>
      </trkpt>
      <trkpt lat="59.8819574" lon="17.7221559">
        <ele>16.9604</ele>
        <time>2013-03-10T12:43:05Z</time>
      </trkpt>
      <trkpt lat="59.8819506" lon="17.7221743">
        <ele>17.4412</ele>
        <time>2013-03-10T12:43:06Z</time>
      </trkpt>
      <trkpt lat="59.8819418" lon="17.7221912">
        <ele>17.4412</ele>
        <time>2013-03-10T12:43:07Z</time>
      </trkpt>
      <trkpt lat="59.8819314" lon="17.7222069">
        <ele>17.4412</ele>
        <time>2013-03-10T12:43:08Z</time>
      </trkpt>
      <trkpt lat="59.8819219" lon="17.7222236">
        <ele>17.4412</ele>
        <time>2013-03-10T12:43:09Z</time>
      </trkpt>
      <trkpt lat="59.8819136" lon="17.7222424">
        <ele>17.4412</ele>
        <time>2013-03-10T12:43:10Z</time>
      </trkpt>
      <trkpt lat="59.8819072" lon="17.722261">
        <ele>17.9218</ele>
        <time>2013-03-10T12:43:11Z</time>
      </trkpt>
      <trkpt lat="59.8819007" lon="17.722279">
        <ele>17.9218</ele>
        <time>2013-03-10T12:43:12Z</time>
      </trkpt>
      <trkpt lat="59.8818942" lon="17.7222979">
        <ele>18.4023</ele>
        <time>2013-03-10T12:43:13Z</time>
      </trkpt>
      <trkpt lat="59.8818858" lon="17.7223164">
        <ele>17.9218</ele>
        <time>2013-03-10T12:43:14Z</time>
      </trkpt>
      <trkpt lat="59.8818782" lon="17.7223344">
        <ele>17.9218</ele>
        <time>2013-03-10T12:43:15Z</time>
      </trkpt>
      <trkpt lat="59.8818714" lon="17.7223537">
        <ele>18.4023</ele>
        <time>2013-03-10T12:43:16Z</time>
      </trkpt>
      <trkpt lat="59.8818631" lon="17.7223722">
        <ele>18.4023</ele>
        <time>2013-03-10T12:43:17Z</time>
      </trkpt>
      <trkpt lat="59.8818552" lon="17.72239">
        <ele>18.4023</ele>
        <time>2013-03-10T12:43:18Z</time>
      </trkpt>
      <trkpt lat="59.8818465" lon="17.7224076">
        <ele>18.4023</ele>
        <time>2013-03-10T12:43:19Z</time>
      </trkpt>
      <trkpt lat="59.881836" lon="17.7224257">
        <ele>17.9218</ele>
        <time>2013-03-10T12:43:20Z</time>
      </trkpt>
      <trkpt lat="59.8818273" lon="17.722443">
        <ele>17.9218</ele>
        <time>2013-03-10T12:43:21Z</time>
      </trkpt>
      <trkpt lat="59.8818196" lon="17.722462">
        <ele>18.4023</ele>
        <time>2013-03-10T12:43:22Z</time>
      </trkpt>
      <trkpt lat="59.8818111" lon="17.7224813">
        <ele>17.9218</ele>
        <time>2013-03-10T12:43:23Z</time>
      </trkpt>
      <trkpt lat="59.8818028" lon="17.7224997">
        <ele>18.4023</ele>
        <time>2013-03-10T12:43:24Z</time>
      </trkpt>
      <trkpt lat="59.8817958" lon="17.722517">
        <ele>18.4023</ele>
        <time>2013-03-10T12:43:25Z</time>
      </trkpt>
      <trkpt lat="59.8817905" lon="17.7225344">
        <ele>18.4023</ele>
        <time>2013-03-10T12:43:26Z</time>
      </trkpt>
      <trkpt lat="59.8817857" lon="17.7225511">
        <ele>18.4023</ele>
        <time>2013-03-10T12:43:27Z</time>
      </trkpt>
      <trkpt lat="59.88178" lon="17.722569">
        <ele>18.8831</ele>
        <time>2013-03-10T12:43:28Z</time>
      </trkpt>
      <trkpt lat="59.8817733" lon="17.7225864">
        <ele>18.8831</ele>
        <time>2013-03-10T12:43:29Z</time>
      </trkpt>
      <trkpt lat="59.8817656" lon="17.7226037">
        <ele>18.8831</ele>
        <time>2013-03-10T12:43:30Z</time>
      </trkpt>
      <trkpt lat="59.8817565" lon="17.7226216">
        <ele>18.8831</ele>
        <time>2013-03-10T12:43:31Z</time>
      </trkpt>
      <trkpt lat="59.8817471" lon="17.7226402">
        <ele>18.8831</ele>
        <time>2013-03-10T12:43:32Z</time>
      </trkpt>
      <trkpt lat="59.8817382" lon="17.7226586">
        <ele>18.8831</ele>
        <time>2013-03-10T12:43:33Z</time>
      </trkpt>
      <trkpt lat="59.8817295" lon="17.722677">
        <ele>19.3638</ele>
        <time>2013-03-10T12:43:34Z</time>
      </trkpt>
      <trkpt lat="59.8817195" lon="17.7226956">
        <ele>18.8831</ele>
        <time>2013-03-10T12:43:35Z</time>
      </trkpt>
      <trkpt lat="59.8817106" lon="17.7227131">
        <ele>19.3638</ele>
        <time>2013-03-10T12:43:36Z</time>
      </trkpt>
      <trkpt lat="59.8817036" lon="17.7227324">
        <ele>19.3638</ele>
        <time>2013-03-10T12:43:37Z</time>
      </trkpt>
      <trkpt lat="59.8816961" lon="17.72275">
        <ele>19.3638</ele>
        <time>2013-03-10T12:43:38Z</time>
      </trkpt>
      <trkpt lat="59.8816883" lon="17.7227656">
        <ele>19.3638</ele>
        <time>2013-03-10T12:43:39Z</time>
      </trkpt>
      <trkpt lat="59.8816817" lon="17.7227812">
        <ele>19.3638</ele>
        <time>2013-03-10T12:43:40Z</time>
      </trkpt>
      <trkpt lat="59.8816766" lon="17.7227997">
        <ele>19.3638</ele>
        <time>2013-03-10T12:43:41Z</time>
      </trkpt>
      <trkpt lat="59.8816702" lon="17.7228188">
        <ele>19.3638</ele>
        <time>2013-03-10T12:43:42Z</time>
      </trkpt>
      <trkpt lat="59.8816624" lon="17.7228381">
        <ele>19.3638</ele>
        <time>2013-03-10T12:43:43Z</time>
      </trkpt>
      <trkpt lat="59.8816538" lon="17.7228567">
        <ele>19.3638</ele>
        <time>2013-03-10T12:43:44Z</time>
      </trkpt>
      <trkpt lat="59.8816438" lon="17.7228745">
        <ele>19.3638</ele>
        <time>2013-03-10T12:43:45Z</time>
      </trkpt>
      <trkpt lat="59.8816347" lon="17.722893">
        <ele>19.3638</ele>
        <time>2013-03-10T12:43:46Z</time>
      </trkpt>
      <trkpt lat="59.8816253" lon="17.7229109">
        <ele>19.3638</ele>
        <time>2013-03-10T12:43:47Z</time>
      </trkpt>
      <trkpt lat="59.881617" lon="17.7229287">
        <ele>19.3638</ele>
        <time>2013-03-10T12:43:48Z</time>
      </trkpt>
      <trkpt lat="59.8816096" lon="17.7229477">
        <ele>19.8444</ele>
        <time>2013-03-10T12:43:49Z</time>
      </trkpt>
      <trkpt lat="59.8816019" lon="17.722965">
        <ele>19.3638</ele>
        <time>2013-03-10T12:43:50Z</time>
      </trkpt>
      <trkpt lat="59.8815951" lon="17.7229836">
        <ele>19.3638</ele>
        <time>2013-03-10T12:43:51Z</time>
      </trkpt>
      <trkpt lat="59.881588" lon="17.7230028">
        <ele>19.3638</ele>
        <time>2013-03-10T12:43:52Z</time>
      </trkpt>
      <trkpt lat="59.8815802" lon="17.7230205">
        <ele>19.3638</ele>
        <time>2013-03-10T12:43:53Z</time>
      </trkpt>
      <trkpt lat="59.8815713" lon="17.7230363">
        <ele>18.8831</ele>
        <time>2013-03-10T12:43:54Z</time>
      </trkpt>
      <trkpt lat="59.881563" lon="17.7230515">
        <ele>18.8831</ele>
        <time>2013-03-10T12:43:55Z</time>
      </trkpt>
      <trkpt lat="59.8815542" lon="17.723069">
        <ele>18.8831</ele>
        <time>2013-03-10T12:43:56Z</time>
      </trkpt>
      <trkpt lat="59.8815465" lon="17.7230878">
        <ele>18.8831</ele>
        <time>2013-03-10T12:43:57Z</time>
      </trkpt>
      <trkpt lat="59.8815404" lon="17.7231089">
        <ele>18.8831</ele>
        <time>2013-03-10T12:43:58Z</time>
      </trkpt>
      <trkpt lat="59.881533" lon="17.7231307">
        <ele>18.8831</ele>
        <time>2013-03-10T12:43:59Z</time>
      </trkpt>
      <trkpt lat="59.8815256" lon="17.7231526">
        <ele>18.8831</ele>
        <time>2013-03-10T12:44:00Z</time>
      </trkpt>
      <trkpt lat="59.8815191" lon="17.7231758">
        <ele>18.8831</ele>
        <time>2013-03-10T12:44:01Z</time>
      </trkpt>
      <trkpt lat="59.8815127" lon="17.7231984">
        <ele>19.3638</ele>
        <time>2013-03-10T12:44:02Z</time>
      </trkpt>
      <trkpt lat="59.8815071" lon="17.7232209">
        <ele>19.3638</ele>
        <time>2013-03-10T12:44:03Z</time>
      </trkpt>
      <trkpt lat="59.881502" lon="17.7232436">
        <ele>19.8444</ele>
        <time>2013-03-10T12:44:04Z</time>
      </trkpt>
      <trkpt lat="59.8814964" lon="17.7232661">
        <ele>19.8444</ele>
        <time>2013-03-10T12:44:05Z</time>
      </trkpt>
      <trkpt lat="59.8814922" lon="17.7232885">
        <ele>19.8444</ele>
        <time>2013-03-10T12:44:06Z</time>
      </trkpt>
      <trkpt lat="59.88149" lon="17.7233115">
        <ele>19.8444</ele>
        <time>2013-03-10T12:44:07Z</time>
      </trkpt>
      <trkpt lat="59.881488" lon="17.7233339">
        <ele>19.8444</ele>
        <time>2013-03-10T12:44:08Z</time>
      </trkpt>
      <trkpt lat="59.8814858" lon="17.7233556">
        <ele>20.325</ele>
        <time>2013-03-10T12:44:09Z</time>
      </trkpt>
      <trkpt lat="59.8814827" lon="17.7233758">
        <ele>20.325</ele>
        <time>2013-03-10T12:44:10Z</time>
      </trkpt>
      <trkpt lat="59.881479" lon="17.7233971">
        <ele>20.325</ele>
        <time>2013-03-10T12:44:11Z</time>
      </trkpt>
      <trkpt lat="59.8814772" lon="17.7234215">
        <ele>20.325</ele>
        <time>2013-03-10T12:44:12Z</time>
      </trkpt>
      <trkpt lat="59.8814759" lon="17.7234476">
        <ele>20.8057</ele>
        <time>2013-03-10T12:44:13Z</time>
      </trkpt>
      <trkpt lat="59.8814746" lon="17.7234735">
        <ele>20.8057</ele>
        <time>2013-03-10T12:44:14Z</time>
      </trkpt>
      <trkpt lat="59.8814728" lon="17.7235011">
        <ele>20.8057</ele>
        <time>2013-03-10T12:44:15Z</time>
      </trkpt>
      <trkpt lat="59.8814719" lon="17.7235282">
        <ele>20.8057</ele>
        <time>2013-03-10T12:44:16Z</time>
      </trkpt>
      <trkpt lat="59.8814725" lon="17.7235541">
        <ele>21.2864</ele>
        <time>2013-03-10T12:44:17Z</time>
      </trkpt>
      <trkpt lat="59.881473" lon="17.7235788">
        <ele>21.2864</ele>
        <time>2013-03-10T12:44:18Z</time>
      </trkpt>
      <trkpt lat="59.881477" lon="17.7236">
        <ele>21.2864</ele>
        <time>2013-03-10T12:44:19Z</time>
      </trkpt>
      <trkpt lat="59.8814812" lon="17.7236244">
        <ele>21.2864</ele>
        <time>2013-03-10T12:44:20Z</time>
      </trkpt>
      <trkpt lat="59.881486" lon="17.7236513">
        <ele>21.767</ele>
        <time>2013-03-10T12:44:21Z</time>
      </trkpt>
      <trkpt lat="59.8814926" lon="17.7236757">
        <ele>21.767</ele>
        <time>2013-03-10T12:44:22Z</time>
      </trkpt>
      <trkpt lat="59.8814983" lon="17.7237004">
        <ele>21.767</ele>
        <time>2013-03-10T12:44:23Z</time>
      </trkpt>
      <trkpt lat="59.8815042" lon="17.723725">
        <ele>21.767</ele>
        <time>2013-03-10T12:44:24Z</time>
      </trkpt>
      <trkpt lat="59.8815092" lon="17.7237506">
        <ele>21.767</ele>
        <time>2013-03-10T12:44:25Z</time>
      </trkpt>
      <trkpt lat="59.8815145" lon="17.7237748">
        <ele>21.767</ele>
        <time>2013-03-10T12:44:26Z</time>
      </trkpt>
      <trkpt lat="59.8815216" lon="17.7237986">
        <ele>21.767</ele>
        <time>2013-03-10T12:44:27Z</time>
      </trkpt>
      <trkpt lat="59.8815299" lon="17.7238223">
        <ele>21.767</ele>
        <time>2013-03-10T12:44:28Z</time>
      </trkpt>
      <trkpt lat="59.8815363" lon="17.723845">
        <ele>22.2476</ele>
        <time>2013-03-10T12:44:29Z</time>
      </trkpt>
      <trkpt lat="59.8815433" lon="17.7238677">
        <ele>22.2476</ele>
        <time>2013-03-10T12:44:30Z</time>
      </trkpt>
      <trkpt lat="59.8815515" lon="17.723891">
        <ele>22.2476</ele>
        <time>2013-03-10T12:44:31Z</time>
      </trkpt>
      <trkpt lat="59.8815574" lon="17.723914">
        <ele>22.2476</ele>
        <time>2013-03-10T12:44:32Z</time>
      </trkpt>
      <trkpt lat="59.8815668" lon="17.7239352">
        <ele>22.2476</ele>
        <time>2013-03-10T12:44:33Z</time>
      </trkpt>
      <trkpt lat="59.8815765" lon="17.7239566">
        <ele>22.2476</ele>
        <time>2013-03-10T12:44:34Z</time>
      </trkpt>
      <trkpt lat="59.8815833" lon="17.7239813">
        <ele>22.2476</ele>
        <time>2013-03-10T12:44:35Z</time>
      </trkpt>
      <trkpt lat="59.8815899" lon="17.724007">
        <ele>22.7283</ele>
        <time>2013-03-10T12:44:36Z</time>
      </trkpt>
      <trkpt lat="59.8815977" lon="17.7240306">
        <ele>22.7283</ele>
        <time>2013-03-10T12:44:37Z</time>
      </trkpt>
      <trkpt lat="59.8816046" lon="17.7240538">
        <ele>22.7283</ele>
        <time>2013-03-10T12:44:38Z</time>
      </trkpt>
      <trkpt lat="59.8816088" lon="17.7240772">
        <ele>22.7283</ele>
        <time>2013-03-10T12:44:39Z</time>
      </trkpt>
      <trkpt lat="59.8816121" lon="17.7241013">
        <ele>22.7283</ele>
        <time>2013-03-10T12:44:40Z</time>
      </trkpt>
      <trkpt lat="59.8816174" lon="17.7241243">
        <ele>22.7283</ele>
        <time>2013-03-10T12:44:41Z</time>
      </trkpt>
      <trkpt lat="59.8816227" lon="17.7241471">
        <ele>22.7283</ele>
        <time>2013-03-10T12:44:42Z</time>
      </trkpt>
      <trkpt lat="59.881629" lon="17.724169">
        <ele>22.7283</ele>
        <time>2013-03-10T12:44:43Z</time>
      </trkpt>
      <trkpt lat="59.8816355" lon="17.7241906">
        <ele>22.7283</ele>
        <time>2013-03-10T12:44:44Z</time>
      </trkpt>
      <trkpt lat="59.8816417" lon="17.7242138">
        <ele>22.7283</ele>
        <time>2013-03-10T12:44:45Z</time>
      </trkpt>
      <trkpt lat="59.8816489" lon="17.7242366">
        <ele>22.7283</ele>
        <time>2013-03-10T12:44:46Z</time>
      </trkpt>
      <trkpt lat="59.8816558" lon="17.7242588">
        <ele>22.7283</ele>
        <time>2013-03-10T12:44:47Z</time>
      </trkpt>
      <trkpt lat="59.8816621" lon="17.7242813">
        <ele>22.7283</ele>
        <time>2013-03-10T12:44:48Z</time>
      </trkpt>
      <trkpt lat="59.8816681" lon="17.7243046">
        <ele>22.7283</ele>
        <time>2013-03-10T12:44:49Z</time>
      </trkpt>
      <trkpt lat="59.8816725" lon="17.7243289">
        <ele>22.7283</ele>
        <time>2013-03-10T12:44:50Z</time>
      </trkpt>
      <trkpt lat="59.8816785" lon="17.7243546">
        <ele>22.7283</ele>
        <time>2013-03-10T12:44:51Z</time>
      </trkpt>
      <trkpt lat="59.8816858" lon="17.7243797">
        <ele>22.7283</ele>
        <time>2013-03-10T12:44:52Z</time>
      </trkpt>
      <trkpt lat="59.881692" lon="17.7244047">
        <ele>22.7283</ele>
        <time>2013-03-10T12:44:53Z</time>
      </trkpt>
      <trkpt lat="59.8816966" lon="17.7244347">
        <ele>22.7283</ele>
        <time>2013-03-10T12:44:54Z</time>
      </trkpt>
      <trkpt lat="59.8816927" lon="17.7244636">
        <ele>22.2476</ele>
        <time>2013-03-10T12:44:55Z</time>
      </trkpt>
      <trkpt lat="59.8816938" lon="17.7244864">
        <ele>21.767</ele>
        <time>2013-03-10T12:44:56Z</time>
      </trkpt>
      <trkpt lat="59.8817014" lon="17.7245075">
        <ele>21.2864</ele>
        <time>2013-03-10T12:44:57Z</time>
      </trkpt>
      <trkpt lat="59.8817113" lon="17.7245268">
        <ele>21.767</ele>
        <time>2013-03-10T12:44:58Z</time>
      </trkpt>
      <trkpt lat="59.8817192" lon="17.7245494">
        <ele>21.767</ele>
        <time>2013-03-10T12:44:59Z</time>
      </trkpt>
      <trkpt lat="59.8817258" lon="17.7245735">
        <ele>21.767</ele>
        <time>2013-03-10T12:45:00Z</time>
      </trkpt>
      <trkpt lat="59.8817335" lon="17.7245974">
        <ele>21.767</ele>
        <time>2013-03-10T12:45:01Z</time>
      </trkpt>
      <trkpt lat="59.8817409" lon="17.7246194">
        <ele>21.767</ele>
        <time>2013-03-10T12:45:02Z</time>
      </trkpt>
      <trkpt lat="59.8817486" lon="17.7246409">
        <ele>21.767</ele>
        <time>2013-03-10T12:45:03Z</time>
      </trkpt>
      <trkpt lat="59.8817553" lon="17.7246626">
        <ele>22.2476</ele>
        <time>2013-03-10T12:45:04Z</time>
      </trkpt>
      <trkpt lat="59.8817626" lon="17.7246843">
        <ele>22.7283</ele>
        <time>2013-03-10T12:45:05Z</time>
      </trkpt>
      <trkpt lat="59.8817692" lon="17.7247098">
        <ele>22.7283</ele>
        <time>2013-03-10T12:45:06Z</time>
      </trkpt>
      <trkpt lat="59.8817767" lon="17.7247357">
        <ele>22.7283</ele>
        <time>2013-03-10T12:45:07Z</time>
      </trkpt>
      <trkpt lat="59.8817833" lon="17.7247578">
        <ele>22.7283</ele>
        <time>2013-03-10T12:45:08Z</time>
      </trkpt>
      <trkpt lat="59.8817896" lon="17.7247846">
        <ele>22.7283</ele>
        <time>2013-03-10T12:45:09Z</time>
      </trkpt>
      <trkpt lat="59.8817963" lon="17.7248117">
        <ele>23.209</ele>
        <time>2013-03-10T12:45:10Z</time>
      </trkpt>
      <trkpt lat="59.8818043" lon="17.7248299">
        <ele>23.6896</ele>
        <time>2013-03-10T12:45:11Z</time>
      </trkpt>
      <trkpt lat="59.8818128" lon="17.724846">
        <ele>24.1703</ele>
        <time>2013-03-10T12:45:12Z</time>
      </trkpt>
      <trkpt lat="59.8818204" lon="17.7248654">
        <ele>24.1703</ele>
        <time>2013-03-10T12:45:13Z</time>
      </trkpt>
      <trkpt lat="59.8818276" lon="17.7248873">
        <ele>24.1703</ele>
        <time>2013-03-10T12:45:14Z</time>
      </trkpt>
      <trkpt lat="59.8818355" lon="17.724907">
        <ele>24.651</ele>
        <time>2013-03-10T12:45:15Z</time>
      </trkpt>
      <trkpt lat="59.8818424" lon="17.7249252">
        <ele>24.651</ele>
        <time>2013-03-10T12:45:16Z</time>
      </trkpt>
      <trkpt lat="59.8818494" lon="17.7249465">
        <ele>24.651</ele>
        <time>2013-03-10T12:45:17Z</time>
      </trkpt>
      <trkpt lat="59.8818557" lon="17.7249682">
        <ele>24.651</ele>
        <time>2013-03-10T12:45:18Z</time>
      </trkpt>
      <trkpt lat="59.8818618" lon="17.7249926">
        <ele>25.1317</ele>
        <time>2013-03-10T12:45:19Z</time>
      </trkpt>
      <trkpt lat="59.8818687" lon="17.7250171">
        <ele>25.1317</ele>
        <time>2013-03-10T12:45:20Z</time>
      </trkpt>
      <trkpt lat="59.8818753" lon="17.7250417">
        <ele>25.1317</ele>
        <time>2013-03-10T12:45:21Z</time>
      </trkpt>
      <trkpt lat="59.8818812" lon="17.725066">
        <ele>25.1317</ele>
        <time>2013-03-10T12:45:22Z</time>
      </trkpt>
      <trkpt lat="59.8818872" lon="17.7250883">
        <ele>25.1317</ele>
        <time>2013-03-10T12:45:23Z</time>
      </trkpt>
      <trkpt lat="59.8818937" lon="17.7251116">
        <ele>25.1317</ele>
        <time>2013-03-10T12:45:24Z</time>
      </trkpt>
      <trkpt lat="59.8819003" lon="17.7251363">
        <ele>25.1317</ele>
        <time>2013-03-10T12:45:25Z</time>
      </trkpt>
      <trkpt lat="59.8819067" lon="17.7251614">
        <ele>25.1317</ele>
        <time>2013-03-10T12:45:26Z</time>
      </trkpt>
      <trkpt lat="59.8819128" lon="17.7251874">
        <ele>25.1317</ele>
        <time>2013-03-10T12:45:27Z</time>
      </trkpt>
      <trkpt lat="59.8819191" lon="17.7252141">
        <ele>25.1317</ele>
        <time>2013-03-10T12:45:28Z</time>
      </trkpt>
      <trkpt lat="59.8819258" lon="17.7252391">
        <ele>25.1317</ele>
        <time>2013-03-10T12:45:29Z</time>
      </trkpt>
      <trkpt lat="59.881932" lon="17.7252633">
        <ele>25.1317</ele>
        <time>2013-03-10T12:45:30Z</time>
      </trkpt>
      <trkpt lat="59.8819383" lon="17.7252841">
        <ele>25.1317</ele>
        <time>2013-03-10T12:45:31Z</time>
      </trkpt>
      <trkpt lat="59.8819461" lon="17.725306">
        <ele>25.1317</ele>
        <time>2013-03-10T12:45:32Z</time>
      </trkpt>
      <trkpt lat="59.8819531" lon="17.7253302">
        <ele>25.1317</ele>
        <time>2013-03-10T12:45:33Z</time>
      </trkpt>
      <trkpt lat="59.8819593" lon="17.7253525">
        <ele>25.1317</ele>
        <time>2013-03-10T12:45:34Z</time>
      </trkpt>
      <trkpt lat="59.8819657" lon="17.7253751">
        <ele>25.1317</ele>
        <time>2013-03-10T12:45:35Z</time>
      </trkpt>
      <trkpt lat="59.881972" lon="17.7253985">
        <ele>25.6123</ele>
        <time>2013-03-10T12:45:36Z</time>
      </trkpt>
      <trkpt lat="59.8819781" lon="17.7254212">
        <ele>25.6123</ele>
        <time>2013-03-10T12:45:37Z</time>
      </trkpt>
      <trkpt lat="59.8819849" lon="17.7254419">
        <ele>25.6123</ele>
        <time>2013-03-10T12:45:38Z</time>
      </trkpt>
      <trkpt lat="59.8819931" lon="17.7254607">
        <ele>25.6123</ele>
        <time>2013-03-10T12:45:39Z</time>
      </trkpt>
      <trkpt lat="59.8820012" lon="17.72548">
        <ele>25.6123</ele>
        <time>2013-03-10T12:45:40Z</time>
      </trkpt>
      <trkpt lat="59.8820084" lon="17.7255005">
        <ele>25.6123</ele>
        <time>2013-03-10T12:45:41Z</time>
      </trkpt>
      <trkpt lat="59.8820147" lon="17.7255222">
        <ele>25.6123</ele>
        <time>2013-03-10T12:45:42Z</time>
      </trkpt>
      <trkpt lat="59.8820214" lon="17.7255457">
        <ele>25.6123</ele>
        <time>2013-03-10T12:45:43Z</time>
      </trkpt>
      <trkpt lat="59.8820281" lon="17.7255699">
        <ele>26.0929</ele>
        <time>2013-03-10T12:45:44Z</time>
      </trkpt>
      <trkpt lat="59.8820355" lon="17.7255939">
        <ele>26.0929</ele>
        <time>2013-03-10T12:45:45Z</time>
      </trkpt>
      <trkpt lat="59.8820428" lon="17.7256194">
        <ele>26.0929</ele>
        <time>2013-03-10T12:45:46Z</time>
      </trkpt>
      <trkpt lat="59.882049" lon="17.7256452">
        <ele>26.0929</ele>
        <time>2013-03-10T12:45:47Z</time>
      </trkpt>
      <trkpt lat="59.8820547" lon="17.7256712">
        <ele>26.0929</ele>
        <time>2013-03-10T12:45:48Z</time>
      </trkpt>
      <trkpt lat="59.8820605" lon="17.7256971">
        <ele>26.5736</ele>
        <time>2013-03-10T12:45:49Z</time>
      </trkpt>
      <trkpt lat="59.8820662" lon="17.7257208">
        <ele>26.5736</ele>
        <time>2013-03-10T12:45:50Z</time>
      </trkpt>
      <trkpt lat="59.8820727" lon="17.7257437">
        <ele>26.5736</ele>
        <time>2013-03-10T12:45:51Z</time>
      </trkpt>
      <trkpt lat="59.8820789" lon="17.7257653">
        <ele>26.5736</ele>
        <time>2013-03-10T12:45:52Z</time>
      </trkpt>
      <trkpt lat="59.8820851" lon="17.7257866">
        <ele>26.5736</ele>
        <time>2013-03-10T12:45:53Z</time>
      </trkpt>
      <trkpt lat="59.8820919" lon="17.7258069">
        <ele>26.5736</ele>
        <time>2013-03-10T12:45:54Z</time>
      </trkpt>
      <trkpt lat="59.8820988" lon="17.725828">
        <ele>26.5736</ele>
        <time>2013-03-10T12:45:55Z</time>
      </trkpt>
      <trkpt lat="59.882105" lon="17.7258492">
        <ele>26.5736</ele>
        <time>2013-03-10T12:45:56Z</time>
      </trkpt>
      <trkpt lat="59.8821107" lon="17.7258691">
        <ele>26.5736</ele>
        <time>2013-03-10T12:45:57Z</time>
      </trkpt>
      <trkpt lat="59.8821162" lon="17.7258898">
        <ele>26.5736</ele>
        <time>2013-03-10T12:45:58Z</time>
      </trkpt>
      <trkpt lat="59.8821216" lon="17.72591">
        <ele>26.5736</ele>
        <time>2013-03-10T12:45:59Z</time>
      </trkpt>
      <trkpt lat="59.8821269" lon="17.7259302">
        <ele>26.0929</ele>
        <time>2013-03-10T12:46:00Z</time>
      </trkpt>
      <trkpt lat="59.8821331" lon="17.7259512">
        <ele>26.0929</ele>
        <time>2013-03-10T12:46:01Z</time>
      </trkpt>
      <trkpt lat="59.8821402" lon="17.725972">
        <ele>26.0929</ele>
        <time>2013-03-10T12:46:02Z</time>
      </trkpt>
      <trkpt lat="59.882148" lon="17.7259943">
        <ele>26.0929</ele>
        <time>2013-03-10T12:46:03Z</time>
      </trkpt>
      <trkpt lat="59.8821562" lon="17.7260177">
        <ele>26.0929</ele>
        <time>2013-03-10T12:46:04Z</time>
      </trkpt>
      <trkpt lat="59.8821635" lon="17.7260398">
        <ele>26.0929</ele>
        <time>2013-03-10T12:46:05Z</time>
      </trkpt>
      <trkpt lat="59.8821702" lon="17.7260632">
        <ele>26.0929</ele>
        <time>2013-03-10T12:46:06Z</time>
      </trkpt>
      <trkpt lat="59.8821774" lon="17.7260855">
        <ele>26.0929</ele>
        <time>2013-03-10T12:46:07Z</time>
      </trkpt>
      <trkpt lat="59.8821849" lon="17.7261072">
        <ele>26.0929</ele>
        <time>2013-03-10T12:46:08Z</time>
      </trkpt>
      <trkpt lat="59.8821919" lon="17.7261295">
        <ele>26.0929</ele>
        <time>2013-03-10T12:46:09Z</time>
      </trkpt>
      <trkpt lat="59.8821992" lon="17.7261503">
        <ele>26.0929</ele>
        <time>2013-03-10T12:46:10Z</time>
      </trkpt>
      <trkpt lat="59.8822065" lon="17.7261725">
        <ele>26.0929</ele>
        <time>2013-03-10T12:46:11Z</time>
      </trkpt>
      <trkpt lat="59.8822142" lon="17.7261942">
        <ele>26.0929</ele>
        <time>2013-03-10T12:46:12Z</time>
      </trkpt>
      <trkpt lat="59.882222" lon="17.7262146">
        <ele>26.0929</ele>
        <time>2013-03-10T12:46:13Z</time>
      </trkpt>
      <trkpt lat="59.8822294" lon="17.7262343">
        <ele>26.0929</ele>
        <time>2013-03-10T12:46:14Z</time>
      </trkpt>
      <trkpt lat="59.882236" lon="17.7262538">
        <ele>26.0929</ele>
        <time>2013-03-10T12:46:15Z</time>
      </trkpt>
      <trkpt lat="59.8822431" lon="17.726274">
        <ele>26.0929</ele>
        <time>2013-03-10T12:46:16Z</time>
      </trkpt>
      <trkpt lat="59.8822501" lon="17.7262935">
        <ele>26.0929</ele>
        <time>2013-03-10T12:46:17Z</time>
      </trkpt>
      <trkpt lat="59.8822568" lon="17.7263122">
        <ele>26.0929</ele>
        <time>2013-03-10T12:46:18Z</time>
      </trkpt>
      <trkpt lat="59.8822644" lon="17.7263331">
        <ele>26.5736</ele>
        <time>2013-03-10T12:46:19Z</time>
      </trkpt>
      <trkpt lat="59.8822707" lon="17.7263543">
        <ele>26.0929</ele>
        <time>2013-03-10T12:46:20Z</time>
      </trkpt>
      <trkpt lat="59.8822765" lon="17.7263746">
        <ele>26.0929</ele>
        <time>2013-03-10T12:46:21Z</time>
      </trkpt>
      <trkpt lat="59.8822835" lon="17.7263963">
        <ele>26.0929</ele>
        <time>2013-03-10T12:46:22Z</time>
      </trkpt>
      <trkpt lat="59.8822899" lon="17.7264179">
        <ele>26.0929</ele>
        <time>2013-03-10T12:46:23Z</time>
      </trkpt>
      <trkpt lat="59.8822966" lon="17.7264401">
        <ele>26.0929</ele>
        <time>2013-03-10T12:46:24Z</time>
      </trkpt>
      <trkpt lat="59.8823034" lon="17.7264631">
        <ele>26.0929</ele>
        <time>2013-03-10T12:46:25Z</time>
      </trkpt>
      <trkpt lat="59.8823096" lon="17.7264862">
        <ele>25.6123</ele>
        <time>2013-03-10T12:46:26Z</time>
      </trkpt>
      <trkpt lat="59.8823163" lon="17.7265083">
        <ele>26.0929</ele>
        <time>2013-03-10T12:46:27Z</time>
      </trkpt>
      <trkpt lat="59.8823227" lon="17.7265295">
        <ele>26.0929</ele>
        <time>2013-03-10T12:46:28Z</time>
      </trkpt>
      <trkpt lat="59.8823294" lon="17.7265503">
        <ele>25.6123</ele>
        <time>2013-03-10T12:46:29Z</time>
      </trkpt>
      <trkpt lat="59.8823363" lon="17.7265708">
        <ele>25.6123</ele>
        <time>2013-03-10T12:46:30Z</time>
      </trkpt>
      <trkpt lat="59.8823423" lon="17.7265909">
        <ele>25.6123</ele>
        <time>2013-03-10T12:46:31Z</time>
      </trkpt>
      <trkpt lat="59.8823486" lon="17.7266097">
        <ele>25.1317</ele>
        <time>2013-03-10T12:46:32Z</time>
      </trkpt>
      <trkpt lat="59.8823555" lon="17.7266285">
        <ele>25.1317</ele>
        <time>2013-03-10T12:46:33Z</time>
      </trkpt>
      <trkpt lat="59.8823619" lon="17.7266476">
        <ele>25.1317</ele>
        <time>2013-03-10T12:46:34Z</time>
      </trkpt>
      <trkpt lat="59.8823685" lon="17.7266675">
        <ele>25.1317</ele>
        <time>2013-03-10T12:46:35Z</time>
      </trkpt>
      <trkpt lat="59.8823754" lon="17.7266879">
        <ele>25.1317</ele>
        <time>2013-03-10T12:46:36Z</time>
      </trkpt>
      <trkpt lat="59.8823816" lon="17.7267084">
        <ele>25.1317</ele>
        <time>2013-03-10T12:46:37Z</time>
      </trkpt>
      <trkpt lat="59.8823883" lon="17.7267293">
        <ele>25.1317</ele>
        <time>2013-03-10T12:46:38Z</time>
      </trkpt>
      <trkpt lat="59.8823945" lon="17.726748">
        <ele>25.1317</ele>
        <time>2013-03-10T12:46:39Z</time>
      </trkpt>
      <trkpt lat="59.8824004" lon="17.7267676">
        <ele>24.651</ele>
        <time>2013-03-10T12:46:40Z</time>
      </trkpt>
      <trkpt lat="59.8824088" lon="17.7267869">
        <ele>24.651</ele>
        <time>2013-03-10T12:46:41Z</time>
      </trkpt>
      <trkpt lat="59.8824164" lon="17.7268085">
        <ele>24.651</ele>
        <time>2013-03-10T12:46:42Z</time>
      </trkpt>
      <trkpt lat="59.8824235" lon="17.7268313">
        <ele>24.651</ele>
        <time>2013-03-10T12:46:43Z</time>
      </trkpt>
      <trkpt lat="59.8824308" lon="17.726853">
        <ele>24.651</ele>
        <time>2013-03-10T12:46:44Z</time>
      </trkpt>
      <trkpt lat="59.8824386" lon="17.7268754">
        <ele>24.651</ele>
        <time>2013-03-10T12:46:45Z</time>
      </trkpt>
      <trkpt lat="59.8824456" lon="17.7268971">
        <ele>24.651</ele>
        <time>2013-03-10T12:46:46Z</time>
      </trkpt>
      <trkpt lat="59.8824531" lon="17.726919">
        <ele>24.651</ele>
        <time>2013-03-10T12:46:47Z</time>
      </trkpt>
      <trkpt lat="59.8824608" lon="17.7269412">
        <ele>24.651</ele>
        <time>2013-03-10T12:46:48Z</time>
      </trkpt>
      <trkpt lat="59.882468" lon="17.7269638">
        <ele>24.651</ele>
        <time>2013-03-10T12:46:49Z</time>
      </trkpt>
      <trkpt lat="59.8824747" lon="17.7269863">
        <ele>24.651</ele>
        <time>2013-03-10T12:46:50Z</time>
      </trkpt>
      <trkpt lat="59.8824805" lon="17.7270097">
        <ele>24.651</ele>
        <time>2013-03-10T12:46:51Z</time>
      </trkpt>
      <trkpt lat="59.8824847" lon="17.7270329">
        <ele>24.651</ele>
        <time>2013-03-10T12:46:52Z</time>
      </trkpt>
      <trkpt lat="59.8824874" lon="17.7270552">
        <ele>24.651</ele>
        <time>2013-03-10T12:46:53Z</time>
      </trkpt>
      <trkpt lat="59.882493" lon="17.7270767">
        <ele>24.651</ele>
        <time>2013-03-10T12:46:54Z</time>
      </trkpt>
      <trkpt lat="59.8824997" lon="17.7270981">
        <ele>24.651</ele>
        <time>2013-03-10T12:46:55Z</time>
      </trkpt>
      <trkpt lat="59.882507" lon="17.7271189">
        <ele>24.1703</ele>
        <time>2013-03-10T12:46:56Z</time>
      </trkpt>
      <trkpt lat="59.8825142" lon="17.7271395">
        <ele>24.1703</ele>
        <time>2013-03-10T12:46:57Z</time>
      </trkpt>
      <trkpt lat="59.882521" lon="17.7271593">
        <ele>24.1703</ele>
        <time>2013-03-10T12:46:58Z</time>
      </trkpt>
      <trkpt lat="59.8825277" lon="17.7271805">
        <ele>23.6896</ele>
        <time>2013-03-10T12:46:59Z</time>
      </trkpt>
      <trkpt lat="59.882534" lon="17.7272014">
        <ele>23.6896</ele>
        <time>2013-03-10T12:47:00Z</time>
      </trkpt>
      <trkpt lat="59.8825402" lon="17.7272218">
        <ele>23.6896</ele>
        <time>2013-03-10T12:47:01Z</time>
      </trkpt>
      <trkpt lat="59.8825479" lon="17.7272425">
        <ele>24.1703</ele>
        <time>2013-03-10T12:47:02Z</time>
      </trkpt>
      <trkpt lat="59.8825551" lon="17.7272633">
        <ele>24.1703</ele>
        <time>2013-03-10T12:47:03Z</time>
      </trkpt>
      <trkpt lat="59.8825602" lon="17.7272873">
        <ele>24.1703</ele>
        <time>2013-03-10T12:47:04Z</time>
      </trkpt>
      <trkpt lat="59.882565" lon="17.7273122">
        <ele>24.1703</ele>
        <time>2013-03-10T12:47:05Z</time>
      </trkpt>
      <trkpt lat="59.882571" lon="17.727336">
        <ele>24.1703</ele>
        <time>2013-03-10T12:47:06Z</time>
      </trkpt>
      <trkpt lat="59.8825777" lon="17.7273604">
        <ele>24.1703</ele>
        <time>2013-03-10T12:47:07Z</time>
      </trkpt>
      <trkpt lat="59.8825839" lon="17.7273858">
        <ele>24.1703</ele>
        <time>2013-03-10T12:47:08Z</time>
      </trkpt>
      <trkpt lat="59.8825897" lon="17.7274119">
        <ele>24.1703</ele>
        <time>2013-03-10T12:47:09Z</time>
      </trkpt>
      <trkpt lat="59.8825961" lon="17.7274369">
        <ele>24.651</ele>
        <time>2013-03-10T12:47:10Z</time>
      </trkpt>
      <trkpt lat="59.8826023" lon="17.7274612">
        <ele>24.651</ele>
        <time>2013-03-10T12:47:11Z</time>
      </trkpt>
      <trkpt lat="59.8826084" lon="17.7274884">
        <ele>24.651</ele>
        <time>2013-03-10T12:47:12Z</time>
      </trkpt>
      <trkpt lat="59.8826127" lon="17.7275147">
        <ele>24.651</ele>
        <time>2013-03-10T12:47:13Z</time>
      </trkpt>
      <trkpt lat="59.8826167" lon="17.7275416">
        <ele>24.651</ele>
        <time>2013-03-10T12:47:14Z</time>
      </trkpt>
      <trkpt lat="59.8826202" lon="17.7275684">
        <ele>24.651</ele>
        <time>2013-03-10T12:47:15Z</time>
      </trkpt>
      <trkpt lat="59.8826238" lon="17.7275934">
        <ele>24.1703</ele>
        <time>2013-03-10T12:47:16Z</time>
      </trkpt>
      <trkpt lat="59.8826277" lon="17.7276188">
        <ele>24.1703</ele>
        <time>2013-03-10T12:47:17Z</time>
      </trkpt>
      <trkpt lat="59.8826319" lon="17.7276442">
        <ele>24.1703</ele>
        <time>2013-03-10T12:47:18Z</time>
      </trkpt>
      <trkpt lat="59.8826361" lon="17.727669">
        <ele>24.1703</ele>
        <time>2013-03-10T12:47:19Z</time>
      </trkpt>
      <trkpt lat="59.8826401" lon="17.7276943">
        <ele>24.1703</ele>
        <time>2013-03-10T12:47:20Z</time>
      </trkpt>
      <trkpt lat="59.8826448" lon="17.7277188">
        <ele>24.1703</ele>
        <time>2013-03-10T12:47:21Z</time>
      </trkpt>
      <trkpt lat="59.8826498" lon="17.7277437">
        <ele>24.1703</ele>
        <time>2013-03-10T12:47:22Z</time>
      </trkpt>
      <trkpt lat="59.8826546" lon="17.727769">
        <ele>24.1703</ele>
        <time>2013-03-10T12:47:23Z</time>
      </trkpt>
      <trkpt lat="59.882659" lon="17.7277939">
        <ele>24.1703</ele>
        <time>2013-03-10T12:47:24Z</time>
      </trkpt>
      <trkpt lat="59.8826635" lon="17.7278182">
        <ele>24.1703</ele>
        <time>2013-03-10T12:47:25Z</time>
      </trkpt>
      <trkpt lat="59.8826681" lon="17.7278426">
        <ele>24.1703</ele>
        <time>2013-03-10T12:47:26Z</time>
      </trkpt>
      <trkpt lat="59.8826727" lon="17.7278669">
        <ele>24.1703</ele>
        <time>2013-03-10T12:47:27Z</time>
      </trkpt>
      <trkpt lat="59.8826764" lon="17.7278902">
        <ele>23.6896</ele>
        <time>2013-03-10T12:47:28Z</time>
      </trkpt>
      <trkpt lat="59.8826808" lon="17.7279129">
        <ele>23.6896</ele>
        <time>2013-03-10T12:47:29Z</time>
      </trkpt>
      <trkpt lat="59.8826853" lon="17.7279348">
        <ele>23.6896</ele>
        <time>2013-03-10T12:47:30Z</time>
      </trkpt>
      <trkpt lat="59.8826903" lon="17.7279568">
        <ele>23.6896</ele>
        <time>2013-03-10T12:47:31Z</time>
      </trkpt>
      <trkpt lat="59.8826944" lon="17.7279796">
        <ele>23.6896</ele>
        <time>2013-03-10T12:47:32Z</time>
      </trkpt>
      <trkpt lat="59.8826986" lon="17.7280028">
        <ele>23.6896</ele>
        <time>2013-03-10T12:47:33Z</time>
      </trkpt>
      <trkpt lat="59.8827032" lon="17.728027">
        <ele>23.6896</ele>
        <time>2013-03-10T12:47:34Z</time>
      </trkpt>
      <trkpt lat="59.8827078" lon="17.7280514">
        <ele>23.6896</ele>
        <time>2013-03-10T12:47:35Z</time>
      </trkpt>
      <trkpt lat="59.8827127" lon="17.7280767">
        <ele>23.6896</ele>
        <time>2013-03-10T12:47:36Z</time>
      </trkpt>
      <trkpt lat="59.8827171" lon="17.7281012">
        <ele>23.6896</ele>
        <time>2013-03-10T12:47:37Z</time>
      </trkpt>
      <trkpt lat="59.8827209" lon="17.7281262">
        <ele>23.209</ele>
        <time>2013-03-10T12:47:38Z</time>
      </trkpt>
      <trkpt lat="59.8827251" lon="17.7281508">
        <ele>23.209</ele>
        <time>2013-03-10T12:47:39Z</time>
      </trkpt>
      <trkpt lat="59.8827295" lon="17.7281754">
        <ele>23.209</ele>
        <time>2013-03-10T12:47:40Z</time>
      </trkpt>
      <trkpt lat="59.8827348" lon="17.7282006">
        <ele>23.209</ele>
        <time>2013-03-10T12:47:41Z</time>
      </trkpt>
      <trkpt lat="59.8827396" lon="17.7282259">
        <ele>23.209</ele>
        <time>2013-03-10T12:47:42Z</time>
      </trkpt>
      <trkpt lat="59.8827436" lon="17.7282502">
        <ele>22.7283</ele>
        <time>2013-03-10T12:47:43Z</time>
      </trkpt>
      <trkpt lat="59.8827476" lon="17.7282734">
        <ele>22.7283</ele>
        <time>2013-03-10T12:47:44Z</time>
      </trkpt>
      <trkpt lat="59.8827525" lon="17.7282978">
        <ele>22.7283</ele>
        <time>2013-03-10T12:47:45Z</time>
      </trkpt>
      <trkpt lat="59.8827582" lon="17.7283231">
        <ele>22.7283</ele>
        <time>2013-03-10T12:47:46Z</time>
      </trkpt>
      <trkpt lat="59.8827627" lon="17.7283475">
        <ele>22.7283</ele>
        <time>2013-03-10T12:47:47Z</time>
      </trkpt>
      <trkpt lat="59.8827669" lon="17.728372">
        <ele>22.7283</ele>
        <time>2013-03-10T12:47:48Z</time>
      </trkpt>
      <trkpt lat="59.8827711" lon="17.7283972">
        <ele>22.7283</ele>
        <time>2013-03-10T12:47:49Z</time>
      </trkpt>
      <trkpt lat="59.8827758" lon="17.7284218">
        <ele>22.7283</ele>
        <time>2013-03-10T12:47:50Z</time>
      </trkpt>
      <trkpt lat="59.8827801" lon="17.7284475">
        <ele>22.7283</ele>
        <time>2013-03-10T12:47:51Z</time>
      </trkpt>
      <trkpt lat="59.8827841" lon="17.7284735">
        <ele>22.2476</ele>
        <time>2013-03-10T12:47:52Z</time>
      </trkpt>
      <trkpt lat="59.882793" lon="17.7285264">
        <ele>22.2476</ele>
        <time>2013-03-10T12:47:54Z</time>
      </trkpt>
      <trkpt lat="59.8827987" lon="17.7285532">
        <ele>22.2476</ele>
        <time>2013-03-10T12:47:55Z</time>
      </trkpt>
      <trkpt lat="59.8828046" lon="17.7285807">
        <ele>22.2476</ele>
        <time>2013-03-10T12:47:56Z</time>
      </trkpt>
      <trkpt lat="59.8828099" lon="17.7286056">
        <ele>22.2476</ele>
        <time>2013-03-10T12:47:57Z</time>
      </trkpt>
      <trkpt lat="59.8828147" lon="17.7286314">
        <ele>22.2476</ele>
        <time>2013-03-10T12:47:58Z</time>
      </trkpt>
      <trkpt lat="59.8828193" lon="17.7286579">
        <ele>22.2476</ele>
        <time>2013-03-10T12:47:59Z</time>
      </trkpt>
      <trkpt lat="59.8828236" lon="17.7286842">
        <ele>22.2476</ele>
        <time>2013-03-10T12:48:00Z</time>
      </trkpt>
      <trkpt lat="59.8828276" lon="17.7287113">
        <ele>22.2476</ele>
        <time>2013-03-10T12:48:01Z</time>
      </trkpt>
      <trkpt lat="59.8828337" lon="17.728739">
        <ele>22.7283</ele>
        <time>2013-03-10T12:48:02Z</time>
      </trkpt>
      <trkpt lat="59.8828385" lon="17.728764">
        <ele>22.7283</ele>
        <time>2013-03-10T12:48:03Z</time>
      </trkpt>
      <trkpt lat="59.8828432" lon="17.7287894">
        <ele>23.209</ele>
        <time>2013-03-10T12:48:04Z</time>
      </trkpt>
      <trkpt lat="59.8828483" lon="17.7288157">
        <ele>23.209</ele>
        <time>2013-03-10T12:48:05Z</time>
      </trkpt>
      <trkpt lat="59.8828524" lon="17.7288428">
        <ele>23.209</ele>
        <time>2013-03-10T12:48:06Z</time>
      </trkpt>
      <trkpt lat="59.8828566" lon="17.7288699">
        <ele>23.209</ele>
        <time>2013-03-10T12:48:07Z</time>
      </trkpt>
      <trkpt lat="59.8828609" lon="17.7288971">
        <ele>23.209</ele>
        <time>2013-03-10T12:48:08Z</time>
      </trkpt>
      <trkpt lat="59.8828639" lon="17.7289204">
        <ele>23.209</ele>
        <time>2013-03-10T12:48:09Z</time>
      </trkpt>
      <trkpt lat="59.8828681" lon="17.728946">
        <ele>23.209</ele>
        <time>2013-03-10T12:48:10Z</time>
      </trkpt>
      <trkpt lat="59.8828711" lon="17.7289723">
        <ele>22.7283</ele>
        <time>2013-03-10T12:48:11Z</time>
      </trkpt>
      <trkpt lat="59.8828735" lon="17.7289975">
        <ele>22.7283</ele>
        <time>2013-03-10T12:48:12Z</time>
      </trkpt>
      <trkpt lat="59.8828772" lon="17.729022">
        <ele>22.7283</ele>
        <time>2013-03-10T12:48:13Z</time>
      </trkpt>
      <trkpt lat="59.8828821" lon="17.7290443">
        <ele>22.7283</ele>
        <time>2013-03-10T12:48:14Z</time>
      </trkpt>
      <trkpt lat="59.8828882" lon="17.729068">
        <ele>22.7283</ele>
        <time>2013-03-10T12:48:15Z</time>
      </trkpt>
      <trkpt lat="59.8828942" lon="17.7290939">
        <ele>22.7283</ele>
        <time>2013-03-10T12:48:16Z</time>
      </trkpt>
      <trkpt lat="59.8828982" lon="17.7291191">
        <ele>22.7283</ele>
        <time>2013-03-10T12:48:17Z</time>
      </trkpt>
      <trkpt lat="59.8829022" lon="17.7291443">
        <ele>22.7283</ele>
        <time>2013-03-10T12:48:18Z</time>
      </trkpt>
      <trkpt lat="59.8829048" lon="17.7291696">
        <ele>22.2476</ele>
        <time>2013-03-10T12:48:19Z</time>
      </trkpt>
      <trkpt lat="59.8829063" lon="17.7291949">
        <ele>22.2476</ele>
        <time>2013-03-10T12:48:20Z</time>
      </trkpt>
      <trkpt lat="59.8829083" lon="17.7292203">
        <ele>21.767</ele>
        <time>2013-03-10T12:48:21Z</time>
      </trkpt>
      <trkpt lat="59.8829111" lon="17.7292458">
        <ele>21.767</ele>
        <time>2013-03-10T12:48:22Z</time>
      </trkpt>
      <trkpt lat="59.882915" lon="17.7292718">
        <ele>22.2476</ele>
        <time>2013-03-10T12:48:23Z</time>
      </trkpt>
      <trkpt lat="59.8829182" lon="17.7292962">
        <ele>22.2476</ele>
        <time>2013-03-10T12:48:24Z</time>
      </trkpt>
      <trkpt lat="59.8829209" lon="17.7293203">
        <ele>21.767</ele>
        <time>2013-03-10T12:48:25Z</time>
      </trkpt>
      <trkpt lat="59.8829234" lon="17.7293452">
        <ele>21.767</ele>
        <time>2013-03-10T12:48:26Z</time>
      </trkpt>
      <trkpt lat="59.8829267" lon="17.7293695">
        <ele>21.767</ele>
        <time>2013-03-10T12:48:27Z</time>
      </trkpt>
      <trkpt lat="59.8829306" lon="17.7293925">
        <ele>21.767</ele>
        <time>2013-03-10T12:48:28Z</time>
      </trkpt>
      <trkpt lat="59.8829333" lon="17.7294156">
        <ele>21.767</ele>
        <time>2013-03-10T12:48:29Z</time>
      </trkpt>
      <trkpt lat="59.8829352" lon="17.7294375">
        <ele>21.2864</ele>
        <time>2013-03-10T12:48:30Z</time>
      </trkpt>
      <trkpt lat="59.8829372" lon="17.7294612">
        <ele>21.2864</ele>
        <time>2013-03-10T12:48:31Z</time>
      </trkpt>
      <trkpt lat="59.8829398" lon="17.7294866">
        <ele>21.2864</ele>
        <time>2013-03-10T12:48:32Z</time>
      </trkpt>
      <trkpt lat="59.8829421" lon="17.7295132">
        <ele>21.2864</ele>
        <time>2013-03-10T12:48:33Z</time>
      </trkpt>
      <trkpt lat="59.8829436" lon="17.729539">
        <ele>21.2864</ele>
        <time>2013-03-10T12:48:34Z</time>
      </trkpt>
      <trkpt lat="59.8829453" lon="17.7295659">
        <ele>21.2864</ele>
        <time>2013-03-10T12:48:35Z</time>
      </trkpt>
      <trkpt lat="59.8829472" lon="17.7295913">
        <ele>21.2864</ele>
        <time>2013-03-10T12:48:36Z</time>
      </trkpt>
      <trkpt lat="59.8829479" lon="17.7296168">
        <ele>21.2864</ele>
        <time>2013-03-10T12:48:37Z</time>
      </trkpt>
      <trkpt lat="59.8829487" lon="17.7296442">
        <ele>21.2864</ele>
        <time>2013-03-10T12:48:38Z</time>
      </trkpt>
      <trkpt lat="59.8829488" lon="17.72967">
        <ele>21.2864</ele>
        <time>2013-03-10T12:48:39Z</time>
      </trkpt>
      <trkpt lat="59.882951" lon="17.7296933">
        <ele>21.2864</ele>
        <time>2013-03-10T12:48:40Z</time>
      </trkpt>
      <trkpt lat="59.8829514" lon="17.729717">
        <ele>20.8057</ele>
        <time>2013-03-10T12:48:41Z</time>
      </trkpt>
      <trkpt lat="59.8829488" lon="17.7297419">
        <ele>20.8057</ele>
        <time>2013-03-10T12:48:42Z</time>
      </trkpt>
      <trkpt lat="59.882946" lon="17.7297666">
        <ele>20.8057</ele>
        <time>2013-03-10T12:48:43Z</time>
      </trkpt>
      <trkpt lat="59.8829421" lon="17.729792">
        <ele>20.8057</ele>
        <time>2013-03-10T12:48:44Z</time>
      </trkpt>
      <trkpt lat="59.8829365" lon="17.7298178">
        <ele>20.325</ele>
        <time>2013-03-10T12:48:45Z</time>
      </trkpt>
      <trkpt lat="59.8829317" lon="17.7298411">
        <ele>20.325</ele>
        <time>2013-03-10T12:48:46Z</time>
      </trkpt>
      <trkpt lat="59.8829311" lon="17.7298638">
        <ele>20.325</ele>
        <time>2013-03-10T12:48:47Z</time>
      </trkpt>
      <trkpt lat="59.8829297" lon="17.7298877">
        <ele>20.325</ele>
        <time>2013-03-10T12:48:48Z</time>
      </trkpt>
      <trkpt lat="59.8829286" lon="17.7299126">
        <ele>20.8057</ele>
        <time>2013-03-10T12:48:49Z</time>
      </trkpt>
      <trkpt lat="59.8829292" lon="17.7299375">
        <ele>20.8057</ele>
        <time>2013-03-10T12:48:50Z</time>
      </trkpt>
      <trkpt lat="59.8829291" lon="17.7299607">
        <ele>21.2864</ele>
        <time>2013-03-10T12:48:51Z</time>
      </trkpt>
      <trkpt lat="59.8829286" lon="17.7299846">
        <ele>21.2864</ele>
        <time>2013-03-10T12:48:52Z</time>
      </trkpt>
      <trkpt lat="59.8829271" lon="17.730008">
        <ele>21.2864</ele>
        <time>2013-03-10T12:48:53Z</time>
      </trkpt>
      <trkpt lat="59.8829248" lon="17.73003">
        <ele>21.2864</ele>
        <time>2013-03-10T12:48:54Z</time>
      </trkpt>
      <trkpt lat="59.8829222" lon="17.7300525">
        <ele>21.2864</ele>
        <time>2013-03-10T12:48:55Z</time>
      </trkpt>
      <trkpt lat="59.8829171" lon="17.7300751">
        <ele>21.2864</ele>
        <time>2013-03-10T12:48:56Z</time>
      </trkpt>
      <trkpt lat="59.8829111" lon="17.7301006">
        <ele>20.8057</ele>
        <time>2013-03-10T12:48:57Z</time>
      </trkpt>
      <trkpt lat="59.8829038" lon="17.730123">
        <ele>20.8057</ele>
        <time>2013-03-10T12:48:58Z</time>
      </trkpt>
      <trkpt lat="59.8828984" lon="17.7301426">
        <ele>20.8057</ele>
        <time>2013-03-10T12:48:59Z</time>
      </trkpt>
      <trkpt lat="59.8828906" lon="17.7301646">
        <ele>20.8057</ele>
        <time>2013-03-10T12:49:00Z</time>
      </trkpt>
      <trkpt lat="59.8828836" lon="17.7301874">
        <ele>20.325</ele>
        <time>2013-03-10T12:49:01Z</time>
      </trkpt>
      <trkpt lat="59.8828773" lon="17.7302094">
        <ele>20.325</ele>
        <time>2013-03-10T12:49:02Z</time>
      </trkpt>
      <trkpt lat="59.8828691" lon="17.7302347">
        <ele>20.325</ele>
        <time>2013-03-10T12:49:03Z</time>
      </trkpt>
      <trkpt lat="59.8828613" lon="17.7302585">
        <ele>20.325</ele>
        <time>2013-03-10T12:49:04Z</time>
      </trkpt>
      <trkpt lat="59.882852" lon="17.7302762">
        <ele>20.325</ele>
        <time>2013-03-10T12:49:05Z</time>
      </trkpt>
      <trkpt lat="59.8828427" lon="17.7302938">
        <ele>20.325</ele>
        <time>2013-03-10T12:49:06Z</time>
      </trkpt>
      <trkpt lat="59.8828343" lon="17.7303108">
        <ele>20.325</ele>
        <time>2013-03-10T12:49:07Z</time>
      </trkpt>
      <trkpt lat="59.8828254" lon="17.7303239">
        <ele>20.325</ele>
        <time>2013-03-10T12:49:08Z</time>
      </trkpt>
      <trkpt lat="59.8828179" lon="17.7303333">
        <ele>20.8057</ele>
        <time>2013-03-10T12:49:09Z</time>
      </trkpt>
      <trkpt lat="59.8828098" lon="17.7303435">
        <ele>20.8057</ele>
        <time>2013-03-10T12:49:10Z</time>
      </trkpt>
      <trkpt lat="59.8828027" lon="17.7303555">
        <ele>20.8057</ele>
        <time>2013-03-10T12:49:11Z</time>
      </trkpt>
      <trkpt lat="59.8827963" lon="17.7303737">
        <ele>20.8057</ele>
        <time>2013-03-10T12:49:12Z</time>
      </trkpt>
      <trkpt lat="59.8827908" lon="17.7303933">
        <ele>20.8057</ele>
        <time>2013-03-10T12:49:13Z</time>
      </trkpt>
      <trkpt lat="59.8827834" lon="17.7304179">
        <ele>20.8057</ele>
        <time>2013-03-10T12:49:14Z</time>
      </trkpt>
      <trkpt lat="59.8827761" lon="17.7304425">
        <ele>20.8057</ele>
        <time>2013-03-10T12:49:15Z</time>
      </trkpt>
      <trkpt lat="59.8827711" lon="17.7304649">
        <ele>20.8057</ele>
        <time>2013-03-10T12:49:16Z</time>
      </trkpt>
      <trkpt lat="59.8827665" lon="17.7304864">
        <ele>21.2864</ele>
        <time>2013-03-10T12:49:17Z</time>
      </trkpt>
      <trkpt lat="59.8827623" lon="17.7305093">
        <ele>21.2864</ele>
        <time>2013-03-10T12:49:18Z</time>
      </trkpt>
      <trkpt lat="59.882759" lon="17.7305315">
        <ele>21.2864</ele>
        <time>2013-03-10T12:49:19Z</time>
      </trkpt>
      <trkpt lat="59.8827544" lon="17.7305558">
        <ele>21.2864</ele>
        <time>2013-03-10T12:49:20Z</time>
      </trkpt>
      <trkpt lat="59.8827505" lon="17.7305806">
        <ele>21.767</ele>
        <time>2013-03-10T12:49:21Z</time>
      </trkpt>
      <trkpt lat="59.8827489" lon="17.7306046">
        <ele>21.767</ele>
        <time>2013-03-10T12:49:22Z</time>
      </trkpt>
      <trkpt lat="59.8827479" lon="17.7306269">
        <ele>22.2476</ele>
        <time>2013-03-10T12:49:23Z</time>
      </trkpt>
      <trkpt lat="59.882755" lon="17.7306467">
        <ele>22.7283</ele>
        <time>2013-03-10T12:49:24Z</time>
      </trkpt>
      <trkpt lat="59.8827572" lon="17.730665">
        <ele>22.7283</ele>
        <time>2013-03-10T12:49:25Z</time>
      </trkpt>
      <trkpt lat="59.8827576" lon="17.7306885">
        <ele>22.7283</ele>
        <time>2013-03-10T12:49:26Z</time>
      </trkpt>
      <trkpt lat="59.8827581" lon="17.7307179">
        <ele>22.7283</ele>
        <time>2013-03-10T12:49:27Z</time>
      </trkpt>
      <trkpt lat="59.8827598" lon="17.730743">
        <ele>22.2476</ele>
        <time>2013-03-10T12:49:28Z</time>
      </trkpt>
      <trkpt lat="59.8827633" lon="17.7307661">
        <ele>22.2476</ele>
        <time>2013-03-10T12:49:29Z</time>
      </trkpt>
      <trkpt lat="59.8827661" lon="17.7307916">
        <ele>22.2476</ele>
        <time>2013-03-10T12:49:30Z</time>
      </trkpt>
      <trkpt lat="59.882771" lon="17.7308145">
        <ele>22.2476</ele>
        <time>2013-03-10T12:49:31Z</time>
      </trkpt>
      <trkpt lat="59.8827798" lon="17.730831">
        <ele>22.2476</ele>
        <time>2013-03-10T12:49:32Z</time>
      </trkpt>
      <trkpt lat="59.8827892" lon="17.7308536">
        <ele>22.7283</ele>
        <time>2013-03-10T12:49:33Z</time>
      </trkpt>
      <trkpt lat="59.8827945" lon="17.73088">
        <ele>22.7283</ele>
        <time>2013-03-10T12:49:34Z</time>
      </trkpt>
      <trkpt lat="59.8827969" lon="17.7309049">
        <ele>22.7283</ele>
        <time>2013-03-10T12:49:35Z</time>
      </trkpt>
      <trkpt lat="59.8827997" lon="17.7309297">
        <ele>22.7283</ele>
        <time>2013-03-10T12:49:36Z</time>
      </trkpt>
      <trkpt lat="59.8828033" lon="17.7309539">
        <ele>22.7283</ele>
        <time>2013-03-10T12:49:37Z</time>
      </trkpt>
      <trkpt lat="59.8828079" lon="17.7309725">
        <ele>22.7283</ele>
        <time>2013-03-10T12:49:38Z</time>
      </trkpt>
      <trkpt lat="59.8828129" lon="17.730989">
        <ele>22.7283</ele>
        <time>2013-03-10T12:49:39Z</time>
      </trkpt>
      <trkpt lat="59.8828181" lon="17.7310106">
        <ele>22.2476</ele>
        <time>2013-03-10T12:49:40Z</time>
      </trkpt>
      <trkpt lat="59.8828217" lon="17.7310292">
        <ele>22.2476</ele>
        <time>2013-03-10T12:49:41Z</time>
      </trkpt>
      <trkpt lat="59.8828291" lon="17.7310483">
        <ele>21.767</ele>
        <time>2013-03-10T12:49:42Z</time>
      </trkpt>
      <trkpt lat="59.8828339" lon="17.7310675">
        <ele>21.767</ele>
        <time>2013-03-10T12:49:43Z</time>
      </trkpt>
      <trkpt lat="59.8828349" lon="17.731088">
        <ele>21.767</ele>
        <time>2013-03-10T12:49:44Z</time>
      </trkpt>
      <trkpt lat="59.882838" lon="17.7311087">
        <ele>21.2864</ele>
        <time>2013-03-10T12:49:45Z</time>
      </trkpt>
      <trkpt lat="59.8828416" lon="17.7311349">
        <ele>21.2864</ele>
        <time>2013-03-10T12:49:46Z</time>
      </trkpt>
      <trkpt lat="59.8828457" lon="17.7311618">
        <ele>21.2864</ele>
        <time>2013-03-10T12:49:47Z</time>
      </trkpt>
      <trkpt lat="59.8828481" lon="17.731188">
        <ele>21.2864</ele>
        <time>2013-03-10T12:49:48Z</time>
      </trkpt>
      <trkpt lat="59.88285" lon="17.7312142">
        <ele>20.8057</ele>
        <time>2013-03-10T12:49:49Z</time>
      </trkpt>
      <trkpt lat="59.8828565" lon="17.7312445">
        <ele>20.325</ele>
        <time>2013-03-10T12:49:50Z</time>
      </trkpt>
      <trkpt lat="59.8828635" lon="17.7312687">
        <ele>20.325</ele>
        <time>2013-03-10T12:49:51Z</time>
      </trkpt>
      <trkpt lat="59.8828721" lon="17.7312868">
        <ele>19.8444</ele>
        <time>2013-03-10T12:49:52Z</time>
      </trkpt>
      <trkpt lat="59.8828806" lon="17.7313069">
        <ele>19.8444</ele>
        <time>2013-03-10T12:49:53Z</time>
      </trkpt>
      <trkpt lat="59.882886" lon="17.7313282">
        <ele>19.3638</ele>
        <time>2013-03-10T12:49:54Z</time>
      </trkpt>
      <trkpt lat="59.8828902" lon="17.731346">
        <ele>18.8831</ele>
        <time>2013-03-10T12:49:55Z</time>
      </trkpt>
      <trkpt lat="59.8828897" lon="17.7313636">
        <ele>18.8831</ele>
        <time>2013-03-10T12:49:56Z</time>
      </trkpt>
      <trkpt lat="59.8828893" lon="17.7313778">
        <ele>18.4023</ele>
        <time>2013-03-10T12:49:57Z</time>
      </trkpt>
      <trkpt lat="59.8828898" lon="17.7313816">
        <ele>18.4023</ele>
        <time>2013-03-10T12:49:58Z</time>
      </trkpt>
      <trkpt lat="59.8828903" lon="17.7313842">
        <ele>18.4023</ele>
        <time>2013-03-10T12:49:59Z</time>
      </trkpt>
      <trkpt lat="59.8828903" lon="17.7313913">
        <ele>17.9218</ele>
        <time>2013-03-10T12:50:00Z</time>
      </trkpt>
      <trkpt lat="59.8828908" lon="17.7314065">
        <ele>17.9218</ele>
        <time>2013-03-10T12:50:01Z</time>
      </trkpt>
      <trkpt lat="59.8828934" lon="17.7314278">
        <ele>17.9218</ele>
        <time>2013-03-10T12:50:02Z</time>
      </trkpt>
      <trkpt lat="59.8828979" lon="17.7314527">
        <ele>17.9218</ele>
        <time>2013-03-10T12:50:03Z</time>
      </trkpt>
      <trkpt lat="59.8829036" lon="17.7314779">
        <ele>17.9218</ele>
        <time>2013-03-10T12:50:04Z</time>
      </trkpt>
      <trkpt lat="59.8829096" lon="17.7315002">
        <ele>17.9218</ele>
        <time>2013-03-10T12:50:05Z</time>
      </trkpt>
      <trkpt lat="59.8829163" lon="17.7315203">
        <ele>17.9218</ele>
        <time>2013-03-10T12:50:06Z</time>
      </trkpt>
      <trkpt lat="59.8829235" lon="17.7315422">
        <ele>17.9218</ele>
        <time>2013-03-10T12:50:07Z</time>
      </trkpt>
      <trkpt lat="59.8829338" lon="17.7315651">
        <ele>17.9218</ele>
        <time>2013-03-10T12:50:08Z</time>
      </trkpt>
      <trkpt lat="59.882944" lon="17.7315883">
        <ele>17.9218</ele>
        <time>2013-03-10T12:50:09Z</time>
      </trkpt>
      <trkpt lat="59.8829539" lon="17.7316096">
        <ele>17.9218</ele>
        <time>2013-03-10T12:50:10Z</time>
      </trkpt>
      <trkpt lat="59.8829618" lon="17.7316306">
        <ele>17.9218</ele>
        <time>2013-03-10T12:50:11Z</time>
      </trkpt>
      <trkpt lat="59.8829711" lon="17.7316513">
        <ele>17.4412</ele>
        <time>2013-03-10T12:50:12Z</time>
      </trkpt>
      <trkpt lat="59.8829809" lon="17.7316713">
        <ele>17.4412</ele>
        <time>2013-03-10T12:50:13Z</time>
      </trkpt>
      <trkpt lat="59.8829898" lon="17.7316893">
        <ele>17.9218</ele>
        <time>2013-03-10T12:50:14Z</time>
      </trkpt>
      <trkpt lat="59.8829985" lon="17.7317072">
        <ele>18.4023</ele>
        <time>2013-03-10T12:50:15Z</time>
      </trkpt>
      <trkpt lat="59.8830067" lon="17.731728">
        <ele>18.4023</ele>
        <time>2013-03-10T12:50:16Z</time>
      </trkpt>
      <trkpt lat="59.8830165" lon="17.7317485">
        <ele>18.8831</ele>
        <time>2013-03-10T12:50:17Z</time>
      </trkpt>
      <trkpt lat="59.8830251" lon="17.7317692">
        <ele>18.4023</ele>
        <time>2013-03-10T12:50:18Z</time>
      </trkpt>
      <trkpt lat="59.883036" lon="17.7317908">
        <ele>18.4023</ele>
        <time>2013-03-10T12:50:19Z</time>
      </trkpt>
      <trkpt lat="59.8830476" lon="17.7318105">
        <ele>18.8831</ele>
        <time>2013-03-10T12:50:20Z</time>
      </trkpt>
      <trkpt lat="59.8830577" lon="17.7318301">
        <ele>18.8831</ele>
        <time>2013-03-10T12:50:21Z</time>
      </trkpt>
      <trkpt lat="59.8830669" lon="17.7318508">
        <ele>18.8831</ele>
        <time>2013-03-10T12:50:22Z</time>
      </trkpt>
      <trkpt lat="59.883076" lon="17.7318715">
        <ele>18.8831</ele>
        <time>2013-03-10T12:50:23Z</time>
      </trkpt>
      <trkpt lat="59.8830852" lon="17.7318925">
        <ele>18.8831</ele>
        <time>2013-03-10T12:50:24Z</time>
      </trkpt>
      <trkpt lat="59.8830952" lon="17.7319127">
        <ele>18.8831</ele>
        <time>2013-03-10T12:50:25Z</time>
      </trkpt>
      <trkpt lat="59.8831053" lon="17.7319327">
        <ele>18.8831</ele>
        <time>2013-03-10T12:50:26Z</time>
      </trkpt>
      <trkpt lat="59.8831141" lon="17.7319526">
        <ele>18.8831</ele>
        <time>2013-03-10T12:50:27Z</time>
      </trkpt>
      <trkpt lat="59.8831235" lon="17.7319728">
        <ele>19.3638</ele>
        <time>2013-03-10T12:50:28Z</time>
      </trkpt>
      <trkpt lat="59.8831335" lon="17.7319937">
        <ele>19.3638</ele>
        <time>2013-03-10T12:50:29Z</time>
      </trkpt>
      <trkpt lat="59.8831435" lon="17.7320141">
        <ele>19.3638</ele>
        <time>2013-03-10T12:50:30Z</time>
      </trkpt>
      <trkpt lat="59.8831535" lon="17.7320359">
        <ele>19.8444</ele>
        <time>2013-03-10T12:50:31Z</time>
      </trkpt>
      <trkpt lat="59.8831631" lon="17.7320566">
        <ele>19.8444</ele>
        <time>2013-03-10T12:50:32Z</time>
      </trkpt>
      <trkpt lat="59.8831726" lon="17.7320783">
        <ele>19.8444</ele>
        <time>2013-03-10T12:50:33Z</time>
      </trkpt>
      <trkpt lat="59.883181" lon="17.7321011">
        <ele>19.8444</ele>
        <time>2013-03-10T12:50:34Z</time>
      </trkpt>
      <trkpt lat="59.8831898" lon="17.7321219">
        <ele>19.8444</ele>
        <time>2013-03-10T12:50:35Z</time>
      </trkpt>
      <trkpt lat="59.8831999" lon="17.732141">
        <ele>19.8444</ele>
        <time>2013-03-10T12:50:36Z</time>
      </trkpt>
      <trkpt lat="59.8832089" lon="17.7321611">
        <ele>19.8444</ele>
        <time>2013-03-10T12:50:37Z</time>
      </trkpt>
      <trkpt lat="59.8832177" lon="17.7321809">
        <ele>19.8444</ele>
        <time>2013-03-10T12:50:38Z</time>
      </trkpt>
      <trkpt lat="59.8832273" lon="17.7322">
        <ele>19.8444</ele>
        <time>2013-03-10T12:50:39Z</time>
      </trkpt>
      <trkpt lat="59.8832378" lon="17.7322183">
        <ele>19.8444</ele>
        <time>2013-03-10T12:50:40Z</time>
      </trkpt>
      <trkpt lat="59.8832481" lon="17.7322373">
        <ele>19.8444</ele>
        <time>2013-03-10T12:50:41Z</time>
      </trkpt>
      <trkpt lat="59.8832573" lon="17.7322565">
        <ele>19.8444</ele>
        <time>2013-03-10T12:50:42Z</time>
      </trkpt>
      <trkpt lat="59.8832664" lon="17.7322742">
        <ele>19.8444</ele>
        <time>2013-03-10T12:50:43Z</time>
      </trkpt>
      <trkpt lat="59.8832752" lon="17.7322913">
        <ele>20.325</ele>
        <time>2013-03-10T12:50:44Z</time>
      </trkpt>
      <trkpt lat="59.8832844" lon="17.7323099">
        <ele>20.325</ele>
        <time>2013-03-10T12:50:45Z</time>
      </trkpt>
      <trkpt lat="59.8832939" lon="17.7323291">
        <ele>20.8057</ele>
        <time>2013-03-10T12:50:46Z</time>
      </trkpt>
      <trkpt lat="59.8833026" lon="17.7323497">
        <ele>20.8057</ele>
        <time>2013-03-10T12:50:47Z</time>
      </trkpt>
      <trkpt lat="59.883311" lon="17.7323706">
        <ele>20.8057</ele>
        <time>2013-03-10T12:50:48Z</time>
      </trkpt>
      <trkpt lat="59.8833193" lon="17.7323933">
        <ele>20.8057</ele>
        <time>2013-03-10T12:50:49Z</time>
      </trkpt>
      <trkpt lat="59.8833275" lon="17.7324157">
        <ele>21.2864</ele>
        <time>2013-03-10T12:50:50Z</time>
      </trkpt>
      <trkpt lat="59.8833358" lon="17.7324373">
        <ele>21.2864</ele>
        <time>2013-03-10T12:50:51Z</time>
      </trkpt>
      <trkpt lat="59.8833437" lon="17.7324589">
        <ele>21.2864</ele>
        <time>2013-03-10T12:50:52Z</time>
      </trkpt>
      <trkpt lat="59.8833518" lon="17.7324818">
        <ele>21.2864</ele>
        <time>2013-03-10T12:50:53Z</time>
      </trkpt>
      <trkpt lat="59.8833594" lon="17.7325046">
        <ele>21.2864</ele>
        <time>2013-03-10T12:50:54Z</time>
      </trkpt>
      <trkpt lat="59.8833667" lon="17.7325264">
        <ele>21.2864</ele>
        <time>2013-03-10T12:50:55Z</time>
      </trkpt>
      <trkpt lat="59.883374" lon="17.732548">
        <ele>21.2864</ele>
        <time>2013-03-10T12:50:56Z</time>
      </trkpt>
      <trkpt lat="59.8833819" lon="17.7325684">
        <ele>21.2864</ele>
        <time>2013-03-10T12:50:57Z</time>
      </trkpt>
      <trkpt lat="59.8833887" lon="17.7325901">
        <ele>21.2864</ele>
        <time>2013-03-10T12:50:58Z</time>
      </trkpt>
      <trkpt lat="59.8833943" lon="17.7326114">
        <ele>21.2864</ele>
        <time>2013-03-10T12:50:59Z</time>
      </trkpt>
      <trkpt lat="59.8834006" lon="17.7326312">
        <ele>21.2864</ele>
        <time>2013-03-10T12:51:00Z</time>
      </trkpt>
      <trkpt lat="59.8834068" lon="17.7326517">
        <ele>21.2864</ele>
        <time>2013-03-10T12:51:01Z</time>
      </trkpt>
      <trkpt lat="59.8834135" lon="17.7326757">
        <ele>21.767</ele>
        <time>2013-03-10T12:51:02Z</time>
      </trkpt>
      <trkpt lat="59.88342" lon="17.7327003">
        <ele>21.2864</ele>
        <time>2013-03-10T12:51:03Z</time>
      </trkpt>
      <trkpt lat="59.883428" lon="17.7327206">
        <ele>21.2864</ele>
        <time>2013-03-10T12:51:04Z</time>
      </trkpt>
      <trkpt lat="59.8834337" lon="17.7327428">
        <ele>21.767</ele>
        <time>2013-03-10T12:51:05Z</time>
      </trkpt>
      <trkpt lat="59.8834392" lon="17.7327662">
        <ele>21.767</ele>
        <time>2013-03-10T12:51:06Z</time>
      </trkpt>
      <trkpt lat="59.8834441" lon="17.7327912">
        <ele>21.767</ele>
        <time>2013-03-10T12:51:07Z</time>
      </trkpt>
      <trkpt lat="59.8834502" lon="17.732816">
        <ele>21.767</ele>
        <time>2013-03-10T12:51:08Z</time>
      </trkpt>
      <trkpt lat="59.8834548" lon="17.7328406">
        <ele>21.767</ele>
        <time>2013-03-10T12:51:09Z</time>
      </trkpt>
      <trkpt lat="59.883459" lon="17.7328655">
        <ele>21.767</ele>
        <time>2013-03-10T12:51:10Z</time>
      </trkpt>
      <trkpt lat="59.883463" lon="17.7328906">
        <ele>21.767</ele>
        <time>2013-03-10T12:51:11Z</time>
      </trkpt>
      <trkpt lat="59.8834674" lon="17.7329153">
        <ele>22.2476</ele>
        <time>2013-03-10T12:51:12Z</time>
      </trkpt>
      <trkpt lat="59.8834725" lon="17.7329401">
        <ele>21.767</ele>
        <time>2013-03-10T12:51:13Z</time>
      </trkpt>
      <trkpt lat="59.8834777" lon="17.7329652">
        <ele>22.2476</ele>
        <time>2013-03-10T12:51:14Z</time>
      </trkpt>
      <trkpt lat="59.8834824" lon="17.7329901">
        <ele>22.2476</ele>
        <time>2013-03-10T12:51:15Z</time>
      </trkpt>
      <trkpt lat="59.883487" lon="17.7330159">
        <ele>21.767</ele>
        <time>2013-03-10T12:51:16Z</time>
      </trkpt>
      <trkpt lat="59.8834911" lon="17.733042">
        <ele>21.767</ele>
        <time>2013-03-10T12:51:17Z</time>
      </trkpt>
      <trkpt lat="59.8834953" lon="17.7330686">
        <ele>21.767</ele>
        <time>2013-03-10T12:51:18Z</time>
      </trkpt>
      <trkpt lat="59.8834996" lon="17.7330948">
        <ele>21.767</ele>
        <time>2013-03-10T12:51:19Z</time>
      </trkpt>
      <trkpt lat="59.8835044" lon="17.7331205">
        <ele>21.767</ele>
        <time>2013-03-10T12:51:20Z</time>
      </trkpt>
      <trkpt lat="59.8835088" lon="17.7331465">
        <ele>21.767</ele>
        <time>2013-03-10T12:51:21Z</time>
      </trkpt>
      <trkpt lat="59.883513" lon="17.7331724">
        <ele>21.767</ele>
        <time>2013-03-10T12:51:22Z</time>
      </trkpt>
      <trkpt lat="59.8835176" lon="17.7331981">
        <ele>21.767</ele>
        <time>2013-03-10T12:51:23Z</time>
      </trkpt>
      <trkpt lat="59.8835219" lon="17.7332245">
        <ele>21.767</ele>
        <time>2013-03-10T12:51:24Z</time>
      </trkpt>
      <trkpt lat="59.8835258" lon="17.7332506">
        <ele>21.767</ele>
        <time>2013-03-10T12:51:25Z</time>
      </trkpt>
      <trkpt lat="59.8835296" lon="17.733276">
        <ele>21.767</ele>
        <time>2013-03-10T12:51:26Z</time>
      </trkpt>
      <trkpt lat="59.8835334" lon="17.7333019">
        <ele>21.767</ele>
        <time>2013-03-10T12:51:27Z</time>
      </trkpt>
      <trkpt lat="59.8835371" lon="17.7333277">
        <ele>21.767</ele>
        <time>2013-03-10T12:51:28Z</time>
      </trkpt>
      <trkpt lat="59.8835407" lon="17.733353">
        <ele>21.2864</ele>
        <time>2013-03-10T12:51:29Z</time>
      </trkpt>
      <trkpt lat="59.8835451" lon="17.7333781">
        <ele>21.2864</ele>
        <time>2013-03-10T12:51:30Z</time>
      </trkpt>
      <trkpt lat="59.8835487" lon="17.7334042">
        <ele>21.2864</ele>
        <time>2013-03-10T12:51:31Z</time>
      </trkpt>
      <trkpt lat="59.8835526" lon="17.7334288">
        <ele>20.8057</ele>
        <time>2013-03-10T12:51:32Z</time>
      </trkpt>
      <trkpt lat="59.883556" lon="17.7334533">
        <ele>20.8057</ele>
        <time>2013-03-10T12:51:33Z</time>
      </trkpt>
      <trkpt lat="59.8835593" lon="17.7334785">
        <ele>20.8057</ele>
        <time>2013-03-10T12:51:34Z</time>
      </trkpt>
      <trkpt lat="59.8835621" lon="17.7335034">
        <ele>20.8057</ele>
        <time>2013-03-10T12:51:35Z</time>
      </trkpt>
      <trkpt lat="59.8835658" lon="17.7335273">
        <ele>20.8057</ele>
        <time>2013-03-10T12:51:36Z</time>
      </trkpt>
      <trkpt lat="59.8835703" lon="17.733551">
        <ele>20.8057</ele>
        <time>2013-03-10T12:51:37Z</time>
      </trkpt>
      <trkpt lat="59.8835739" lon="17.733576">
        <ele>20.8057</ele>
        <time>2013-03-10T12:51:38Z</time>
      </trkpt>
      <trkpt lat="59.8835781" lon="17.7336018">
        <ele>21.2864</ele>
        <time>2013-03-10T12:51:39Z</time>
      </trkpt>
      <trkpt lat="59.8835818" lon="17.7336282">
        <ele>21.2864</ele>
        <time>2013-03-10T12:51:40Z</time>
      </trkpt>
      <trkpt lat="59.8835844" lon="17.7336553">
        <ele>21.2864</ele>
        <time>2013-03-10T12:51:41Z</time>
      </trkpt>
      <trkpt lat="59.8835871" lon="17.7336821">
        <ele>21.2864</ele>
        <time>2013-03-10T12:51:42Z</time>
      </trkpt>
      <trkpt lat="59.8835901" lon="17.733709">
        <ele>20.8057</ele>
        <time>2013-03-10T12:51:43Z</time>
      </trkpt>
      <trkpt lat="59.8835943" lon="17.7337361">
        <ele>21.2864</ele>
        <time>2013-03-10T12:51:44Z</time>
      </trkpt>
      <trkpt lat="59.8835974" lon="17.7337628">
        <ele>20.8057</ele>
        <time>2013-03-10T12:51:45Z</time>
      </trkpt>
      <trkpt lat="59.883601" lon="17.7337888">
        <ele>20.8057</ele>
        <time>2013-03-10T12:51:46Z</time>
      </trkpt>
      <trkpt lat="59.8836051" lon="17.7338147">
        <ele>20.8057</ele>
        <time>2013-03-10T12:51:47Z</time>
      </trkpt>
      <trkpt lat="59.8836091" lon="17.7338415">
        <ele>20.8057</ele>
        <time>2013-03-10T12:51:48Z</time>
      </trkpt>
      <trkpt lat="59.8836132" lon="17.7338676">
        <ele>20.8057</ele>
        <time>2013-03-10T12:51:49Z</time>
      </trkpt>
      <trkpt lat="59.8836168" lon="17.7338935">
        <ele>20.8057</ele>
        <time>2013-03-10T12:51:50Z</time>
      </trkpt>
      <trkpt lat="59.8836198" lon="17.7339202">
        <ele>20.8057</ele>
        <time>2013-03-10T12:51:51Z</time>
      </trkpt>
      <trkpt lat="59.8836237" lon="17.7339474">
        <ele>21.2864</ele>
        <time>2013-03-10T12:51:52Z</time>
      </trkpt>
      <trkpt lat="59.8836272" lon="17.7339743">
        <ele>21.2864</ele>
        <time>2013-03-10T12:51:53Z</time>
      </trkpt>
      <trkpt lat="59.8836299" lon="17.7339996">
        <ele>21.2864</ele>
        <time>2013-03-10T12:51:54Z</time>
      </trkpt>
      <trkpt lat="59.8836337" lon="17.7340256">
        <ele>21.2864</ele>
        <time>2013-03-10T12:51:55Z</time>
      </trkpt>
      <trkpt lat="59.8836389" lon="17.7340512">
        <ele>21.2864</ele>
        <time>2013-03-10T12:51:56Z</time>
      </trkpt>
      <trkpt lat="59.8836445" lon="17.7340763">
        <ele>21.2864</ele>
        <time>2013-03-10T12:51:57Z</time>
      </trkpt>
      <trkpt lat="59.8836495" lon="17.7341027">
        <ele>21.2864</ele>
        <time>2013-03-10T12:51:58Z</time>
      </trkpt>
      <trkpt lat="59.8836538" lon="17.7341301">
        <ele>21.767</ele>
        <time>2013-03-10T12:51:59Z</time>
      </trkpt>
      <trkpt lat="59.8836564" lon="17.7341579">
        <ele>21.767</ele>
        <time>2013-03-10T12:52:00Z</time>
      </trkpt>
      <trkpt lat="59.8836575" lon="17.7341852">
        <ele>21.767</ele>
        <time>2013-03-10T12:52:01Z</time>
      </trkpt>
      <trkpt lat="59.8836564" lon="17.7342125">
        <ele>21.767</ele>
        <time>2013-03-10T12:52:02Z</time>
      </trkpt>
      <trkpt lat="59.883656" lon="17.7342406">
        <ele>21.767</ele>
        <time>2013-03-10T12:52:03Z</time>
      </trkpt>
      <trkpt lat="59.8836563" lon="17.7342691">
        <ele>21.767</ele>
        <time>2013-03-10T12:52:04Z</time>
      </trkpt>
      <trkpt lat="59.8836552" lon="17.7342981">
        <ele>21.767</ele>
        <time>2013-03-10T12:52:05Z</time>
      </trkpt>
      <trkpt lat="59.8836532" lon="17.734326">
        <ele>21.767</ele>
        <time>2013-03-10T12:52:06Z</time>
      </trkpt>
      <trkpt lat="59.8836523" lon="17.7343529">
        <ele>21.767</ele>
        <time>2013-03-10T12:52:07Z</time>
      </trkpt>
      <trkpt lat="59.8836517" lon="17.7343794">
        <ele>21.767</ele>
        <time>2013-03-10T12:52:08Z</time>
      </trkpt>
      <trkpt lat="59.8836455" lon="17.7344071">
        <ele>21.2864</ele>
        <time>2013-03-10T12:52:09Z</time>
      </trkpt>
      <trkpt lat="59.8836377" lon="17.7344343">
        <ele>20.325</ele>
        <time>2013-03-10T12:52:10Z</time>
      </trkpt>
      <trkpt lat="59.8836285" lon="17.7344613">
        <ele>19.8444</ele>
        <time>2013-03-10T12:52:11Z</time>
      </trkpt>
      <trkpt lat="59.8836213" lon="17.7344867">
        <ele>19.3638</ele>
        <time>2013-03-10T12:52:12Z</time>
      </trkpt>
      <trkpt lat="59.8836171" lon="17.7345118">
        <ele>19.3638</ele>
        <time>2013-03-10T12:52:13Z</time>
      </trkpt>
      <trkpt lat="59.8836111" lon="17.7345373">
        <ele>18.8831</ele>
        <time>2013-03-10T12:52:14Z</time>
      </trkpt>
      <trkpt lat="59.8836057" lon="17.7345615">
        <ele>18.4023</ele>
        <time>2013-03-10T12:52:15Z</time>
      </trkpt>
      <trkpt lat="59.8836006" lon="17.734585">
        <ele>18.4023</ele>
        <time>2013-03-10T12:52:16Z</time>
      </trkpt>
      <trkpt lat="59.8835957" lon="17.7346083">
        <ele>17.9218</ele>
        <time>2013-03-10T12:52:17Z</time>
      </trkpt>
      <trkpt lat="59.8835895" lon="17.7346322">
        <ele>17.9218</ele>
        <time>2013-03-10T12:52:18Z</time>
      </trkpt>
      <trkpt lat="59.8835822" lon="17.734655">
        <ele>17.9218</ele>
        <time>2013-03-10T12:52:19Z</time>
      </trkpt>
      <trkpt lat="59.8835751" lon="17.7346785">
        <ele>17.9218</ele>
        <time>2013-03-10T12:52:20Z</time>
      </trkpt>
      <trkpt lat="59.8835682" lon="17.7347035">
        <ele>17.4412</ele>
        <time>2013-03-10T12:52:21Z</time>
      </trkpt>
      <trkpt lat="59.8835612" lon="17.7347293">
        <ele>17.4412</ele>
        <time>2013-03-10T12:52:22Z</time>
      </trkpt>
      <trkpt lat="59.8835539" lon="17.7347554">
        <ele>17.4412</ele>
        <time>2013-03-10T12:52:23Z</time>
      </trkpt>
      <trkpt lat="59.8835465" lon="17.7347803">
        <ele>17.4412</ele>
        <time>2013-03-10T12:52:24Z</time>
      </trkpt>
      <trkpt lat="59.8835384" lon="17.7348052">
        <ele>17.4412</ele>
        <time>2013-03-10T12:52:25Z</time>
      </trkpt>
      <trkpt lat="59.883529" lon="17.7348303">
        <ele>17.4412</ele>
        <time>2013-03-10T12:52:26Z</time>
      </trkpt>
      <trkpt lat="59.8835207" lon="17.7348552">
        <ele>17.4412</ele>
        <time>2013-03-10T12:52:27Z</time>
      </trkpt>
      <trkpt lat="59.883512" lon="17.7348804">
        <ele>17.4412</ele>
        <time>2013-03-10T12:52:28Z</time>
      </trkpt>
      <trkpt lat="59.8835044" lon="17.7349056">
        <ele>17.4412</ele>
        <time>2013-03-10T12:52:29Z</time>
      </trkpt>
      <trkpt lat="59.8834962" lon="17.7349315">
        <ele>17.4412</ele>
        <time>2013-03-10T12:52:30Z</time>
      </trkpt>
      <trkpt lat="59.8834873" lon="17.7349555">
        <ele>17.9218</ele>
        <time>2013-03-10T12:52:31Z</time>
      </trkpt>
      <trkpt lat="59.8834796" lon="17.7349778">
        <ele>17.9218</ele>
        <time>2013-03-10T12:52:32Z</time>
      </trkpt>
      <trkpt lat="59.8834723" lon="17.7349989">
        <ele>18.4023</ele>
        <time>2013-03-10T12:52:33Z</time>
      </trkpt>
      <trkpt lat="59.8834632" lon="17.7350182">
        <ele>17.9218</ele>
        <time>2013-03-10T12:52:34Z</time>
      </trkpt>
      <trkpt lat="59.8834552" lon="17.7350377">
        <ele>18.4023</ele>
        <time>2013-03-10T12:52:35Z</time>
      </trkpt>
      <trkpt lat="59.8834454" lon="17.7350585">
        <ele>17.9218</ele>
        <time>2013-03-10T12:52:36Z</time>
      </trkpt>
      <trkpt lat="59.8834363" lon="17.7350797">
        <ele>17.9218</ele>
        <time>2013-03-10T12:52:37Z</time>
      </trkpt>
      <trkpt lat="59.8834281" lon="17.7351015">
        <ele>17.9218</ele>
        <time>2013-03-10T12:52:38Z</time>
      </trkpt>
      <trkpt lat="59.883419" lon="17.7351232">
        <ele>17.4412</ele>
        <time>2013-03-10T12:52:39Z</time>
      </trkpt>
      <trkpt lat="59.8834104" lon="17.7351454">
        <ele>17.4412</ele>
        <time>2013-03-10T12:52:40Z</time>
      </trkpt>
      <trkpt lat="59.8834039" lon="17.7351687">
        <ele>17.4412</ele>
        <time>2013-03-10T12:52:41Z</time>
      </trkpt>
      <trkpt lat="59.8833995" lon="17.7351929">
        <ele>17.4412</ele>
        <time>2013-03-10T12:52:42Z</time>
      </trkpt>
      <trkpt lat="59.8833953" lon="17.735217">
        <ele>17.4412</ele>
        <time>2013-03-10T12:52:43Z</time>
      </trkpt>
      <trkpt lat="59.8833894" lon="17.7352414">
        <ele>17.4412</ele>
        <time>2013-03-10T12:52:44Z</time>
      </trkpt>
      <trkpt lat="59.883385" lon="17.7352667">
        <ele>17.4412</ele>
        <time>2013-03-10T12:52:45Z</time>
      </trkpt>
      <trkpt lat="59.8833803" lon="17.7352919">
        <ele>17.4412</ele>
        <time>2013-03-10T12:52:46Z</time>
      </trkpt>
      <trkpt lat="59.8833756" lon="17.7353169">
        <ele>17.4412</ele>
        <time>2013-03-10T12:52:47Z</time>
      </trkpt>
      <trkpt lat="59.8833716" lon="17.7353419">
        <ele>17.4412</ele>
        <time>2013-03-10T12:52:48Z</time>
      </trkpt>
      <trkpt lat="59.8833688" lon="17.7353682">
        <ele>17.4412</ele>
        <time>2013-03-10T12:52:49Z</time>
      </trkpt>
      <trkpt lat="59.8833657" lon="17.7353946">
        <ele>17.4412</ele>
        <time>2013-03-10T12:52:50Z</time>
      </trkpt>
      <trkpt lat="59.8833626" lon="17.7354205">
        <ele>17.4412</ele>
        <time>2013-03-10T12:52:51Z</time>
      </trkpt>
      <trkpt lat="59.883359" lon="17.7354459">
        <ele>17.4412</ele>
        <time>2013-03-10T12:52:52Z</time>
      </trkpt>
      <trkpt lat="59.8833554" lon="17.7354713">
        <ele>17.4412</ele>
        <time>2013-03-10T12:52:53Z</time>
      </trkpt>
      <trkpt lat="59.883353" lon="17.7354967">
        <ele>17.4412</ele>
        <time>2013-03-10T12:52:54Z</time>
      </trkpt>
      <trkpt lat="59.8833518" lon="17.7355216">
        <ele>17.4412</ele>
        <time>2013-03-10T12:52:55Z</time>
      </trkpt>
      <trkpt lat="59.8833508" lon="17.7355455">
        <ele>17.4412</ele>
        <time>2013-03-10T12:52:56Z</time>
      </trkpt>
      <trkpt lat="59.8833518" lon="17.7355688">
        <ele>17.4412</ele>
        <time>2013-03-10T12:52:57Z</time>
      </trkpt>
      <trkpt lat="59.8833544" lon="17.7355928">
        <ele>17.4412</ele>
        <time>2013-03-10T12:52:58Z</time>
      </trkpt>
      <trkpt lat="59.8833568" lon="17.7356174">
        <ele>17.9218</ele>
        <time>2013-03-10T12:52:59Z</time>
      </trkpt>
      <trkpt lat="59.8833594" lon="17.7356417">
        <ele>17.9218</ele>
        <time>2013-03-10T12:53:00Z</time>
      </trkpt>
      <trkpt lat="59.8833625" lon="17.7356657">
        <ele>18.4023</ele>
        <time>2013-03-10T12:53:01Z</time>
      </trkpt>
      <trkpt lat="59.8833646" lon="17.7356905">
        <ele>18.4023</ele>
        <time>2013-03-10T12:53:02Z</time>
      </trkpt>
      <trkpt lat="59.8833669" lon="17.7357157">
        <ele>18.4023</ele>
        <time>2013-03-10T12:53:03Z</time>
      </trkpt>
      <trkpt lat="59.8833674" lon="17.7357426">
        <ele>18.4023</ele>
        <time>2013-03-10T12:53:04Z</time>
      </trkpt>
      <trkpt lat="59.8833699" lon="17.7357679">
        <ele>18.8831</ele>
        <time>2013-03-10T12:53:05Z</time>
      </trkpt>
      <trkpt lat="59.8833755" lon="17.7357878">
        <ele>18.4023</ele>
        <time>2013-03-10T12:53:06Z</time>
      </trkpt>
      <trkpt lat="59.8833803" lon="17.73581">
        <ele>18.4023</ele>
        <time>2013-03-10T12:53:07Z</time>
      </trkpt>
      <trkpt lat="59.8833829" lon="17.7358334">
        <ele>18.4023</ele>
        <time>2013-03-10T12:53:08Z</time>
      </trkpt>
      <trkpt lat="59.8833861" lon="17.7358576">
        <ele>18.4023</ele>
        <time>2013-03-10T12:53:09Z</time>
      </trkpt>
      <trkpt lat="59.8833897" lon="17.7358817">
        <ele>18.4023</ele>
        <time>2013-03-10T12:53:10Z</time>
      </trkpt>
      <trkpt lat="59.8833943" lon="17.7359064">
        <ele>18.4023</ele>
        <time>2013-03-10T12:53:11Z</time>
      </trkpt>
      <trkpt lat="59.8833995" lon="17.7359318">
        <ele>18.4023</ele>
        <time>2013-03-10T12:53:12Z</time>
      </trkpt>
      <trkpt lat="59.8834042" lon="17.735957">
        <ele>18.4023</ele>
        <time>2013-03-10T12:53:13Z</time>
      </trkpt>
      <trkpt lat="59.8834093" lon="17.7359817">
        <ele>18.4023</ele>
        <time>2013-03-10T12:53:14Z</time>
      </trkpt>
      <trkpt lat="59.8834143" lon="17.7360059">
        <ele>18.4023</ele>
        <time>2013-03-10T12:53:15Z</time>
      </trkpt>
      <trkpt lat="59.883419" lon="17.7360293">
        <ele>18.4023</ele>
        <time>2013-03-10T12:53:16Z</time>
      </trkpt>
      <trkpt lat="59.8834221" lon="17.7360521">
        <ele>18.4023</ele>
        <time>2013-03-10T12:53:17Z</time>
      </trkpt>
      <trkpt lat="59.8834254" lon="17.7360753">
        <ele>18.4023</ele>
        <time>2013-03-10T12:53:18Z</time>
      </trkpt>
      <trkpt lat="59.8834296" lon="17.7360997">
        <ele>17.9218</ele>
        <time>2013-03-10T12:53:19Z</time>
      </trkpt>
      <trkpt lat="59.8834348" lon="17.736125">
        <ele>17.9218</ele>
        <time>2013-03-10T12:53:20Z</time>
      </trkpt>
      <trkpt lat="59.8834405" lon="17.7361514">
        <ele>17.9218</ele>
        <time>2013-03-10T12:53:21Z</time>
      </trkpt>
      <trkpt lat="59.8834466" lon="17.7361763">
        <ele>18.4023</ele>
        <time>2013-03-10T12:53:22Z</time>
      </trkpt>
      <trkpt lat="59.8834523" lon="17.7362012">
        <ele>18.4023</ele>
        <time>2013-03-10T12:53:23Z</time>
      </trkpt>
      <trkpt lat="59.8834575" lon="17.7362251">
        <ele>17.9218</ele>
        <time>2013-03-10T12:53:24Z</time>
      </trkpt>
      <trkpt lat="59.8834628" lon="17.7362469">
        <ele>17.9218</ele>
        <time>2013-03-10T12:53:25Z</time>
      </trkpt>
      <trkpt lat="59.883468" lon="17.736266">
        <ele>17.9218</ele>
        <time>2013-03-10T12:53:26Z</time>
      </trkpt>
      <trkpt lat="59.8834736" lon="17.7362872">
        <ele>17.9218</ele>
        <time>2013-03-10T12:53:27Z</time>
      </trkpt>
      <trkpt lat="59.8834785" lon="17.7363083">
        <ele>17.4412</ele>
        <time>2013-03-10T12:53:28Z</time>
      </trkpt>
      <trkpt lat="59.8834834" lon="17.7363318">
        <ele>17.4412</ele>
        <time>2013-03-10T12:53:29Z</time>
      </trkpt>
      <trkpt lat="59.8834881" lon="17.7363559">
        <ele>17.4412</ele>
        <time>2013-03-10T12:53:30Z</time>
      </trkpt>
      <trkpt lat="59.8834932" lon="17.7363789">
        <ele>17.4412</ele>
        <time>2013-03-10T12:53:31Z</time>
      </trkpt>
      <trkpt lat="59.8834995" lon="17.7364027">
        <ele>17.9218</ele>
        <time>2013-03-10T12:53:32Z</time>
      </trkpt>
      <trkpt lat="59.8835046" lon="17.7364269">
        <ele>17.4412</ele>
        <time>2013-03-10T12:53:33Z</time>
      </trkpt>
      <trkpt lat="59.8835094" lon="17.7364508">
        <ele>17.4412</ele>
        <time>2013-03-10T12:53:34Z</time>
      </trkpt>
      <trkpt lat="59.8835155" lon="17.7364742">
        <ele>17.4412</ele>
        <time>2013-03-10T12:53:35Z</time>
      </trkpt>
      <trkpt lat="59.8835212" lon="17.736498">
        <ele>17.9218</ele>
        <time>2013-03-10T12:53:36Z</time>
      </trkpt>
      <trkpt lat="59.8835269" lon="17.7365203">
        <ele>17.9218</ele>
        <time>2013-03-10T12:53:37Z</time>
      </trkpt>
      <trkpt lat="59.883533" lon="17.736542">
        <ele>17.9218</ele>
        <time>2013-03-10T12:53:38Z</time>
      </trkpt>
      <trkpt lat="59.8835391" lon="17.7365646">
        <ele>17.9218</ele>
        <time>2013-03-10T12:53:39Z</time>
      </trkpt>
      <trkpt lat="59.8835451" lon="17.7365867">
        <ele>17.9218</ele>
        <time>2013-03-10T12:53:40Z</time>
      </trkpt>
      <trkpt lat="59.8835505" lon="17.7366069">
        <ele>17.9218</ele>
        <time>2013-03-10T12:53:41Z</time>
      </trkpt>
      <trkpt lat="59.8835562" lon="17.7366254">
        <ele>17.9218</ele>
        <time>2013-03-10T12:53:42Z</time>
      </trkpt>
      <trkpt lat="59.8835627" lon="17.7366441">
        <ele>17.9218</ele>
        <time>2013-03-10T12:53:43Z</time>
      </trkpt>
      <trkpt lat="59.88357" lon="17.7366651">
        <ele>18.4023</ele>
        <time>2013-03-10T12:53:44Z</time>
      </trkpt>
      <trkpt lat="59.8835772" lon="17.7366855">
        <ele>18.4023</ele>
        <time>2013-03-10T12:53:45Z</time>
      </trkpt>
      <trkpt lat="59.8835845" lon="17.7367064">
        <ele>18.8831</ele>
        <time>2013-03-10T12:53:46Z</time>
      </trkpt>
      <trkpt lat="59.8835917" lon="17.7367283">
        <ele>18.8831</ele>
        <time>2013-03-10T12:53:47Z</time>
      </trkpt>
      <trkpt lat="59.8835994" lon="17.7367488">
        <ele>19.3638</ele>
        <time>2013-03-10T12:53:48Z</time>
      </trkpt>
      <trkpt lat="59.8836078" lon="17.73677">
        <ele>19.3638</ele>
        <time>2013-03-10T12:53:49Z</time>
      </trkpt>
      <trkpt lat="59.8836168" lon="17.7367932">
        <ele>19.3638</ele>
        <time>2013-03-10T12:53:50Z</time>
      </trkpt>
      <trkpt lat="59.8836243" lon="17.7368171">
        <ele>19.8444</ele>
        <time>2013-03-10T12:53:51Z</time>
      </trkpt>
      <trkpt lat="59.88363" lon="17.7368408">
        <ele>19.8444</ele>
        <time>2013-03-10T12:53:52Z</time>
      </trkpt>
      <trkpt lat="59.8836361" lon="17.7368627">
        <ele>20.325</ele>
        <time>2013-03-10T12:53:53Z</time>
      </trkpt>
      <trkpt lat="59.8836429" lon="17.7368835">
        <ele>20.325</ele>
        <time>2013-03-10T12:53:54Z</time>
      </trkpt>
      <trkpt lat="59.8836493" lon="17.7369044">
        <ele>20.325</ele>
        <time>2013-03-10T12:53:55Z</time>
      </trkpt>
      <trkpt lat="59.8836559" lon="17.7369246">
        <ele>20.325</ele>
        <time>2013-03-10T12:53:56Z</time>
      </trkpt>
      <trkpt lat="59.8836632" lon="17.7369444">
        <ele>20.325</ele>
        <time>2013-03-10T12:53:57Z</time>
      </trkpt>
      <trkpt lat="59.8836705" lon="17.7369633">
        <ele>20.325</ele>
        <time>2013-03-10T12:53:58Z</time>
      </trkpt>
      <trkpt lat="59.8836772" lon="17.7369823">
        <ele>20.325</ele>
        <time>2013-03-10T12:53:59Z</time>
      </trkpt>
      <trkpt lat="59.883684" lon="17.7370014">
        <ele>20.325</ele>
        <time>2013-03-10T12:54:00Z</time>
      </trkpt>
      <trkpt lat="59.8836914" lon="17.7370208">
        <ele>20.325</ele>
        <time>2013-03-10T12:54:01Z</time>
      </trkpt>
      <trkpt lat="59.8836977" lon="17.7370423">
        <ele>20.325</ele>
        <time>2013-03-10T12:54:02Z</time>
      </trkpt>
      <trkpt lat="59.8837045" lon="17.7370648">
        <ele>20.325</ele>
        <time>2013-03-10T12:54:03Z</time>
      </trkpt>
      <trkpt lat="59.8837117" lon="17.7370876">
        <ele>20.325</ele>
        <time>2013-03-10T12:54:04Z</time>
      </trkpt>
      <trkpt lat="59.8837189" lon="17.7371113">
        <ele>20.325</ele>
        <time>2013-03-10T12:54:05Z</time>
      </trkpt>
      <trkpt lat="59.8837264" lon="17.7371351">
        <ele>20.325</ele>
        <time>2013-03-10T12:54:06Z</time>
      </trkpt>
      <trkpt lat="59.8837336" lon="17.7371589">
        <ele>20.325</ele>
        <time>2013-03-10T12:54:07Z</time>
      </trkpt>
      <trkpt lat="59.8837412" lon="17.7371829">
        <ele>20.325</ele>
        <time>2013-03-10T12:54:08Z</time>
      </trkpt>
      <trkpt lat="59.8837481" lon="17.7372072">
        <ele>20.325</ele>
        <time>2013-03-10T12:54:09Z</time>
      </trkpt>
      <trkpt lat="59.8837548" lon="17.7372298">
        <ele>20.325</ele>
        <time>2013-03-10T12:54:10Z</time>
      </trkpt>
      <trkpt lat="59.8837621" lon="17.7372511">
        <ele>20.8057</ele>
        <time>2013-03-10T12:54:11Z</time>
      </trkpt>
      <trkpt lat="59.8837683" lon="17.7372736">
        <ele>20.8057</ele>
        <time>2013-03-10T12:54:12Z</time>
      </trkpt>
      <trkpt lat="59.8837738" lon="17.7372953">
        <ele>20.8057</ele>
        <time>2013-03-10T12:54:13Z</time>
      </trkpt>
      <trkpt lat="59.8837792" lon="17.7373159">
        <ele>20.325</ele>
        <time>2013-03-10T12:54:14Z</time>
      </trkpt>
      <trkpt lat="59.8837849" lon="17.7373361">
        <ele>20.325</ele>
        <time>2013-03-10T12:54:15Z</time>
      </trkpt>
      <trkpt lat="59.8837902" lon="17.7373569">
        <ele>20.325</ele>
        <time>2013-03-10T12:54:16Z</time>
      </trkpt>
      <trkpt lat="59.8837953" lon="17.7373782">
        <ele>20.325</ele>
        <time>2013-03-10T12:54:17Z</time>
      </trkpt>
      <trkpt lat="59.8838009" lon="17.7373999">
        <ele>20.8057</ele>
        <time>2013-03-10T12:54:18Z</time>
      </trkpt>
      <trkpt lat="59.8838061" lon="17.7374221">
        <ele>20.8057</ele>
        <time>2013-03-10T12:54:19Z</time>
      </trkpt>
      <trkpt lat="59.8838109" lon="17.7374444">
        <ele>20.8057</ele>
        <time>2013-03-10T12:54:20Z</time>
      </trkpt>
      <trkpt lat="59.8838161" lon="17.737467">
        <ele>20.8057</ele>
        <time>2013-03-10T12:54:21Z</time>
      </trkpt>
      <trkpt lat="59.8838212" lon="17.7374904">
        <ele>20.8057</ele>
        <time>2013-03-10T12:54:22Z</time>
      </trkpt>
      <trkpt lat="59.8838263" lon="17.7375142">
        <ele>20.8057</ele>
        <time>2013-03-10T12:54:23Z</time>
      </trkpt>
      <trkpt lat="59.8838318" lon="17.737538">
        <ele>20.8057</ele>
        <time>2013-03-10T12:54:24Z</time>
      </trkpt>
      <trkpt lat="59.8838373" lon="17.7375616">
        <ele>21.2864</ele>
        <time>2013-03-10T12:54:25Z</time>
      </trkpt>
      <trkpt lat="59.883842" lon="17.7375846">
        <ele>21.2864</ele>
        <time>2013-03-10T12:54:26Z</time>
      </trkpt>
      <trkpt lat="59.8838466" lon="17.7376066">
        <ele>21.2864</ele>
        <time>2013-03-10T12:54:27Z</time>
      </trkpt>
      <trkpt lat="59.8838503" lon="17.7376292">
        <ele>21.2864</ele>
        <time>2013-03-10T12:54:28Z</time>
      </trkpt>
      <trkpt lat="59.8838539" lon="17.7376521">
        <ele>21.2864</ele>
        <time>2013-03-10T12:54:29Z</time>
      </trkpt>
      <trkpt lat="59.8838575" lon="17.737675">
        <ele>21.2864</ele>
        <time>2013-03-10T12:54:30Z</time>
      </trkpt>
      <trkpt lat="59.883861" lon="17.7376988">
        <ele>21.2864</ele>
        <time>2013-03-10T12:54:31Z</time>
      </trkpt>
      <trkpt lat="59.8838645" lon="17.7377246">
        <ele>21.2864</ele>
        <time>2013-03-10T12:54:32Z</time>
      </trkpt>
      <trkpt lat="59.8838677" lon="17.737751">
        <ele>21.2864</ele>
        <time>2013-03-10T12:54:33Z</time>
      </trkpt>
      <trkpt lat="59.8838705" lon="17.7377775">
        <ele>21.2864</ele>
        <time>2013-03-10T12:54:34Z</time>
      </trkpt>
      <trkpt lat="59.8838738" lon="17.7378039">
        <ele>21.2864</ele>
        <time>2013-03-10T12:54:35Z</time>
      </trkpt>
      <trkpt lat="59.8838769" lon="17.7378303">
        <ele>21.2864</ele>
        <time>2013-03-10T12:54:36Z</time>
      </trkpt>
      <trkpt lat="59.8838798" lon="17.7378571">
        <ele>21.2864</ele>
        <time>2013-03-10T12:54:37Z</time>
      </trkpt>
      <trkpt lat="59.8838826" lon="17.7378842">
        <ele>21.2864</ele>
        <time>2013-03-10T12:54:38Z</time>
      </trkpt>
      <trkpt lat="59.8838853" lon="17.7379115">
        <ele>21.2864</ele>
        <time>2013-03-10T12:54:39Z</time>
      </trkpt>
      <trkpt lat="59.8838885" lon="17.7379386">
        <ele>21.2864</ele>
        <time>2013-03-10T12:54:40Z</time>
      </trkpt>
      <trkpt lat="59.883892" lon="17.7379649">
        <ele>21.2864</ele>
        <time>2013-03-10T12:54:41Z</time>
      </trkpt>
      <trkpt lat="59.8838952" lon="17.7379915">
        <ele>21.2864</ele>
        <time>2013-03-10T12:54:42Z</time>
      </trkpt>
      <trkpt lat="59.8838971" lon="17.7380184">
        <ele>21.2864</ele>
        <time>2013-03-10T12:54:43Z</time>
      </trkpt>
      <trkpt lat="59.8838988" lon="17.7380444">
        <ele>21.2864</ele>
        <time>2013-03-10T12:54:44Z</time>
      </trkpt>
      <trkpt lat="59.8839005" lon="17.7380703">
        <ele>21.2864</ele>
        <time>2013-03-10T12:54:45Z</time>
      </trkpt>
      <trkpt lat="59.8839021" lon="17.7380966">
        <ele>21.2864</ele>
        <time>2013-03-10T12:54:46Z</time>
      </trkpt>
      <trkpt lat="59.8839041" lon="17.7381226">
        <ele>21.2864</ele>
        <time>2013-03-10T12:54:47Z</time>
      </trkpt>
      <trkpt lat="59.8839057" lon="17.7381484">
        <ele>20.8057</ele>
        <time>2013-03-10T12:54:48Z</time>
      </trkpt>
      <trkpt lat="59.8839076" lon="17.7381733">
        <ele>20.8057</ele>
        <time>2013-03-10T12:54:49Z</time>
      </trkpt>
      <trkpt lat="59.8839098" lon="17.7381986">
        <ele>20.8057</ele>
        <time>2013-03-10T12:54:50Z</time>
      </trkpt>
      <trkpt lat="59.8839124" lon="17.7382214">
        <ele>20.8057</ele>
        <time>2013-03-10T12:54:51Z</time>
      </trkpt>
      <trkpt lat="59.8839148" lon="17.7382441">
        <ele>20.8057</ele>
        <time>2013-03-10T12:54:52Z</time>
      </trkpt>
      <trkpt lat="59.8839173" lon="17.7382694">
        <ele>20.8057</ele>
        <time>2013-03-10T12:54:53Z</time>
      </trkpt>
      <trkpt lat="59.883919" lon="17.7382949">
        <ele>20.8057</ele>
        <time>2013-03-10T12:54:54Z</time>
      </trkpt>
      <trkpt lat="59.8839206" lon="17.7383204">
        <ele>20.8057</ele>
        <time>2013-03-10T12:54:55Z</time>
      </trkpt>
      <trkpt lat="59.8839227" lon="17.7383447">
        <ele>20.8057</ele>
        <time>2013-03-10T12:54:56Z</time>
      </trkpt>
      <trkpt lat="59.8839246" lon="17.7383699">
        <ele>20.8057</ele>
        <time>2013-03-10T12:54:57Z</time>
      </trkpt>
      <trkpt lat="59.8839277" lon="17.7383933">
        <ele>20.8057</ele>
        <time>2013-03-10T12:54:58Z</time>
      </trkpt>
      <trkpt lat="59.8839318" lon="17.7384156">
        <ele>20.8057</ele>
        <time>2013-03-10T12:54:59Z</time>
      </trkpt>
      <trkpt lat="59.8839347" lon="17.7384383">
        <ele>20.8057</ele>
        <time>2013-03-10T12:55:00Z</time>
      </trkpt>
      <trkpt lat="59.8839381" lon="17.7384606">
        <ele>21.2864</ele>
        <time>2013-03-10T12:55:01Z</time>
      </trkpt>
      <trkpt lat="59.883942" lon="17.7384836">
        <ele>21.2864</ele>
        <time>2013-03-10T12:55:02Z</time>
      </trkpt>
      <trkpt lat="59.8839454" lon="17.7385068">
        <ele>21.2864</ele>
        <time>2013-03-10T12:55:03Z</time>
      </trkpt>
      <trkpt lat="59.8839494" lon="17.738531">
        <ele>21.2864</ele>
        <time>2013-03-10T12:55:04Z</time>
      </trkpt>
      <trkpt lat="59.8839516" lon="17.7385587">
        <ele>21.2864</ele>
        <time>2013-03-10T12:55:05Z</time>
      </trkpt>
      <trkpt lat="59.8839502" lon="17.7385833">
        <ele>21.2864</ele>
        <time>2013-03-10T12:55:06Z</time>
      </trkpt>
      <trkpt lat="59.8839497" lon="17.7386023">
        <ele>21.2864</ele>
        <time>2013-03-10T12:55:07Z</time>
      </trkpt>
      <trkpt lat="59.8839504" lon="17.7386238">
        <ele>20.8057</ele>
        <time>2013-03-10T12:55:08Z</time>
      </trkpt>
      <trkpt lat="59.883952" lon="17.7386451">
        <ele>20.8057</ele>
        <time>2013-03-10T12:55:09Z</time>
      </trkpt>
      <trkpt lat="59.8839528" lon="17.7386655">
        <ele>21.2864</ele>
        <time>2013-03-10T12:55:10Z</time>
      </trkpt>
      <trkpt lat="59.8839539" lon="17.738684">
        <ele>21.2864</ele>
        <time>2013-03-10T12:55:11Z</time>
      </trkpt>
      <trkpt lat="59.8839553" lon="17.7387015">
        <ele>21.2864</ele>
        <time>2013-03-10T12:55:12Z</time>
      </trkpt>
      <trkpt lat="59.8839567" lon="17.7387193">
        <ele>21.2864</ele>
        <time>2013-03-10T12:55:13Z</time>
      </trkpt>
      <trkpt lat="59.8839578" lon="17.7387383">
        <ele>21.2864</ele>
        <time>2013-03-10T12:55:14Z</time>
      </trkpt>
      <trkpt lat="59.88396" lon="17.738756">
        <ele>21.2864</ele>
        <time>2013-03-10T12:55:15Z</time>
      </trkpt>
      <trkpt lat="59.8839626" lon="17.7387741">
        <ele>21.2864</ele>
        <time>2013-03-10T12:55:16Z</time>
      </trkpt>
      <trkpt lat="59.8839631" lon="17.7387937">
        <ele>21.2864</ele>
        <time>2013-03-10T12:55:17Z</time>
      </trkpt>
      <trkpt lat="59.8839635" lon="17.7388123">
        <ele>21.2864</ele>
        <time>2013-03-10T12:55:18Z</time>
      </trkpt>
      <trkpt lat="59.8839658" lon="17.7388316">
        <ele>21.2864</ele>
        <time>2013-03-10T12:55:19Z</time>
      </trkpt>
      <trkpt lat="59.8839687" lon="17.738852">
        <ele>21.2864</ele>
        <time>2013-03-10T12:55:20Z</time>
      </trkpt>
      <trkpt lat="59.8839704" lon="17.738872">
        <ele>21.2864</ele>
        <time>2013-03-10T12:55:21Z</time>
      </trkpt>
      <trkpt lat="59.8839724" lon="17.7388907">
        <ele>21.2864</ele>
        <time>2013-03-10T12:55:22Z</time>
      </trkpt>
      <trkpt lat="59.8839729" lon="17.7389074">
        <ele>21.2864</ele>
        <time>2013-03-10T12:55:23Z</time>
      </trkpt>
      <trkpt lat="59.883973" lon="17.7389226">
        <ele>21.2864</ele>
        <time>2013-03-10T12:55:24Z</time>
      </trkpt>
      <trkpt lat="59.8839746" lon="17.7389327">
        <ele>21.2864</ele>
        <time>2013-03-10T12:55:25Z</time>
      </trkpt>
      <trkpt lat="59.8839745" lon="17.7389379">
        <ele>20.8057</ele>
        <time>2013-03-10T12:55:26Z</time>
      </trkpt>
      <trkpt lat="59.8839734" lon="17.7389423">
        <ele>20.8057</ele>
        <time>2013-03-10T12:55:27Z</time>
      </trkpt>
      <trkpt lat="59.8839733" lon="17.7389544">
        <ele>20.325</ele>
        <time>2013-03-10T12:55:28Z</time>
      </trkpt>
      <trkpt lat="59.8839744" lon="17.7389741">
        <ele>20.325</ele>
        <time>2013-03-10T12:55:29Z</time>
      </trkpt>
      <trkpt lat="59.8839772" lon="17.738997">
        <ele>20.325</ele>
        <time>2013-03-10T12:55:30Z</time>
      </trkpt>
      <trkpt lat="59.8839797" lon="17.7390218">
        <ele>20.325</ele>
        <time>2013-03-10T12:55:31Z</time>
      </trkpt>
      <trkpt lat="59.8839821" lon="17.7390461">
        <ele>19.8444</ele>
        <time>2013-03-10T12:55:32Z</time>
      </trkpt>
      <trkpt lat="59.8839854" lon="17.7390699">
        <ele>19.8444</ele>
        <time>2013-03-10T12:55:33Z</time>
      </trkpt>
      <trkpt lat="59.8839875" lon="17.7390939">
        <ele>19.8444</ele>
        <time>2013-03-10T12:55:34Z</time>
      </trkpt>
      <trkpt lat="59.8839899" lon="17.7391181">
        <ele>19.3638</ele>
        <time>2013-03-10T12:55:35Z</time>
      </trkpt>
      <trkpt lat="59.8839915" lon="17.7391423">
        <ele>19.3638</ele>
        <time>2013-03-10T12:55:36Z</time>
      </trkpt>
      <trkpt lat="59.8839931" lon="17.7391662">
        <ele>19.3638</ele>
        <time>2013-03-10T12:55:37Z</time>
      </trkpt>
      <trkpt lat="59.8839956" lon="17.7391905">
        <ele>19.3638</ele>
        <time>2013-03-10T12:55:38Z</time>
      </trkpt>
      <trkpt lat="59.8839993" lon="17.7392148">
        <ele>18.8831</ele>
        <time>2013-03-10T12:55:39Z</time>
      </trkpt>
      <trkpt lat="59.884001" lon="17.7392409">
        <ele>18.8831</ele>
        <time>2013-03-10T12:55:40Z</time>
      </trkpt>
      <trkpt lat="59.8840018" lon="17.7392679">
        <ele>18.8831</ele>
        <time>2013-03-10T12:55:41Z</time>
      </trkpt>
      <trkpt lat="59.8840029" lon="17.7392952">
        <ele>18.4023</ele>
        <time>2013-03-10T12:55:42Z</time>
      </trkpt>
      <trkpt lat="59.8840048" lon="17.7393208">
        <ele>18.4023</ele>
        <time>2013-03-10T12:55:43Z</time>
      </trkpt>
      <trkpt lat="59.8840075" lon="17.7393453">
        <ele>18.4023</ele>
        <time>2013-03-10T12:55:44Z</time>
      </trkpt>
      <trkpt lat="59.8840085" lon="17.73937">
        <ele>18.4023</ele>
        <time>2013-03-10T12:55:45Z</time>
      </trkpt>
      <trkpt lat="59.8840121" lon="17.7393963">
        <ele>18.4023</ele>
        <time>2013-03-10T12:55:46Z</time>
      </trkpt>
      <trkpt lat="59.8840143" lon="17.7394227">
        <ele>17.9218</ele>
        <time>2013-03-10T12:55:47Z</time>
      </trkpt>
      <trkpt lat="59.8840175" lon="17.7394486">
        <ele>18.4023</ele>
        <time>2013-03-10T12:55:48Z</time>
      </trkpt>
      <trkpt lat="59.8840195" lon="17.7394751">
        <ele>18.4023</ele>
        <time>2013-03-10T12:55:49Z</time>
      </trkpt>
      <trkpt lat="59.8840215" lon="17.7395018">
        <ele>18.4023</ele>
        <time>2013-03-10T12:55:50Z</time>
      </trkpt>
      <trkpt lat="59.8840241" lon="17.7395288">
        <ele>18.4023</ele>
        <time>2013-03-10T12:55:51Z</time>
      </trkpt>
      <trkpt lat="59.8840262" lon="17.7395557">
        <ele>17.9218</ele>
        <time>2013-03-10T12:55:52Z</time>
      </trkpt>
      <trkpt lat="59.8840283" lon="17.7395827">
        <ele>17.9218</ele>
        <time>2013-03-10T12:55:53Z</time>
      </trkpt>
      <trkpt lat="59.884032" lon="17.7396092">
        <ele>17.9218</ele>
        <time>2013-03-10T12:55:54Z</time>
      </trkpt>
      <trkpt lat="59.8840354" lon="17.7396354">
        <ele>17.4412</ele>
        <time>2013-03-10T12:55:55Z</time>
      </trkpt>
      <trkpt lat="59.8840408" lon="17.7396608">
        <ele>17.9218</ele>
        <time>2013-03-10T12:55:56Z</time>
      </trkpt>
      <trkpt lat="59.8840456" lon="17.7396856">
        <ele>17.4412</ele>
        <time>2013-03-10T12:55:57Z</time>
      </trkpt>
      <trkpt lat="59.8840531" lon="17.739709">
        <ele>17.4412</ele>
        <time>2013-03-10T12:55:58Z</time>
      </trkpt>
      <trkpt lat="59.8840594" lon="17.7397323">
        <ele>17.9218</ele>
        <time>2013-03-10T12:55:59Z</time>
      </trkpt>
      <trkpt lat="59.8840677" lon="17.7397541">
        <ele>17.9218</ele>
        <time>2013-03-10T12:56:00Z</time>
      </trkpt>
      <trkpt lat="59.8840763" lon="17.739775">
        <ele>18.4023</ele>
        <time>2013-03-10T12:56:01Z</time>
      </trkpt>
      <trkpt lat="59.8840838" lon="17.7397954">
        <ele>17.9218</ele>
        <time>2013-03-10T12:56:02Z</time>
      </trkpt>
      <trkpt lat="59.8840947" lon="17.7398116">
        <ele>17.9218</ele>
        <time>2013-03-10T12:56:03Z</time>
      </trkpt>
      <trkpt lat="59.8841055" lon="17.7398241">
        <ele>17.9218</ele>
        <time>2013-03-10T12:56:04Z</time>
      </trkpt>
      <trkpt lat="59.8841188" lon="17.739834">
        <ele>18.4023</ele>
        <time>2013-03-10T12:56:05Z</time>
      </trkpt>
      <trkpt lat="59.8841318" lon="17.7398437">
        <ele>18.8831</ele>
        <time>2013-03-10T12:56:06Z</time>
      </trkpt>
      <trkpt lat="59.8841449" lon="17.7398525">
        <ele>18.8831</ele>
        <time>2013-03-10T12:56:07Z</time>
      </trkpt>
      <trkpt lat="59.8841568" lon="17.7398571">
        <ele>18.8831</ele>
        <time>2013-03-10T12:56:08Z</time>
      </trkpt>
      <trkpt lat="59.8841682" lon="17.7398569">
        <ele>18.8831</ele>
        <time>2013-03-10T12:56:09Z</time>
      </trkpt>
      <trkpt lat="59.8841807" lon="17.7398547">
        <ele>18.8831</ele>
        <time>2013-03-10T12:56:10Z</time>
      </trkpt>
      <trkpt lat="59.8841936" lon="17.7398529">
        <ele>18.8831</ele>
        <time>2013-03-10T12:56:11Z</time>
      </trkpt>
      <trkpt lat="59.8842066" lon="17.7398478">
        <ele>18.8831</ele>
        <time>2013-03-10T12:56:12Z</time>
      </trkpt>
      <trkpt lat="59.884219" lon="17.7398422">
        <ele>18.8831</ele>
        <time>2013-03-10T12:56:13Z</time>
      </trkpt>
      <trkpt lat="59.8842318" lon="17.7398362">
        <ele>18.8831</ele>
        <time>2013-03-10T12:56:14Z</time>
      </trkpt>
      <trkpt lat="59.8842445" lon="17.7398298">
        <ele>18.8831</ele>
        <time>2013-03-10T12:56:15Z</time>
      </trkpt>
      <trkpt lat="59.8842578" lon="17.7398239">
        <ele>18.8831</ele>
        <time>2013-03-10T12:56:16Z</time>
      </trkpt>
      <trkpt lat="59.8842701" lon="17.7398173">
        <ele>18.8831</ele>
        <time>2013-03-10T12:56:17Z</time>
      </trkpt>
      <trkpt lat="59.8842827" lon="17.7398102">
        <ele>18.4023</ele>
        <time>2013-03-10T12:56:18Z</time>
      </trkpt>
      <trkpt lat="59.8842952" lon="17.7398015">
        <ele>18.8831</ele>
        <time>2013-03-10T12:56:19Z</time>
      </trkpt>
      <trkpt lat="59.8843077" lon="17.7397916">
        <ele>18.8831</ele>
        <time>2013-03-10T12:56:20Z</time>
      </trkpt>
      <trkpt lat="59.8843199" lon="17.7397812">
        <ele>18.8831</ele>
        <time>2013-03-10T12:56:21Z</time>
      </trkpt>
      <trkpt lat="59.884332" lon="17.7397699">
        <ele>18.8831</ele>
        <time>2013-03-10T12:56:22Z</time>
      </trkpt>
      <trkpt lat="59.8843437" lon="17.7397569">
        <ele>18.8831</ele>
        <time>2013-03-10T12:56:23Z</time>
      </trkpt>
      <trkpt lat="59.8843541" lon="17.7397453">
        <ele>18.8831</ele>
        <time>2013-03-10T12:56:24Z</time>
      </trkpt>
      <trkpt lat="59.8843652" lon="17.7397356">
        <ele>18.4023</ele>
        <time>2013-03-10T12:56:25Z</time>
      </trkpt>
      <trkpt lat="59.8843766" lon="17.7397278">
        <ele>18.4023</ele>
        <time>2013-03-10T12:56:26Z</time>
      </trkpt>
      <trkpt lat="59.8843882" lon="17.7397207">
        <ele>18.4023</ele>
        <time>2013-03-10T12:56:27Z</time>
      </trkpt>
      <trkpt lat="59.8844003" lon="17.7397139">
        <ele>18.4023</ele>
        <time>2013-03-10T12:56:28Z</time>
      </trkpt>
      <trkpt lat="59.8844127" lon="17.7397067">
        <ele>18.4023</ele>
        <time>2013-03-10T12:56:29Z</time>
      </trkpt>
      <trkpt lat="59.8844251" lon="17.7396983">
        <ele>18.4023</ele>
        <time>2013-03-10T12:56:30Z</time>
      </trkpt>
      <trkpt lat="59.8844386" lon="17.7396889">
        <ele>18.4023</ele>
        <time>2013-03-10T12:56:31Z</time>
      </trkpt>
      <trkpt lat="59.8844512" lon="17.73968">
        <ele>18.4023</ele>
        <time>2013-03-10T12:56:32Z</time>
      </trkpt>
      <trkpt lat="59.8844641" lon="17.7396727">
        <ele>18.4023</ele>
        <time>2013-03-10T12:56:33Z</time>
      </trkpt>
      <trkpt lat="59.8844771" lon="17.7396656">
        <ele>17.9218</ele>
        <time>2013-03-10T12:56:34Z</time>
      </trkpt>
      <trkpt lat="59.8844894" lon="17.7396599">
        <ele>17.9218</ele>
        <time>2013-03-10T12:56:35Z</time>
      </trkpt>
      <trkpt lat="59.8845018" lon="17.7396537">
        <ele>17.9218</ele>
        <time>2013-03-10T12:56:36Z</time>
      </trkpt>
      <trkpt lat="59.8845142" lon="17.7396468">
        <ele>17.9218</ele>
        <time>2013-03-10T12:56:37Z</time>
      </trkpt>
      <trkpt lat="59.8845267" lon="17.7396391">
        <ele>17.9218</ele>
        <time>2013-03-10T12:56:38Z</time>
      </trkpt>
      <trkpt lat="59.8845399" lon="17.7396305">
        <ele>17.9218</ele>
        <time>2013-03-10T12:56:39Z</time>
      </trkpt>
      <trkpt lat="59.884553" lon="17.7396228">
        <ele>17.9218</ele>
        <time>2013-03-10T12:56:40Z</time>
      </trkpt>
      <trkpt lat="59.8845656" lon="17.7396154">
        <ele>17.9218</ele>
        <time>2013-03-10T12:56:41Z</time>
      </trkpt>
      <trkpt lat="59.8845783" lon="17.7396062">
        <ele>17.9218</ele>
        <time>2013-03-10T12:56:42Z</time>
      </trkpt>
      <trkpt lat="59.8845904" lon="17.7395974">
        <ele>17.9218</ele>
        <time>2013-03-10T12:56:43Z</time>
      </trkpt>
      <trkpt lat="59.8846032" lon="17.739589">
        <ele>17.9218</ele>
        <time>2013-03-10T12:56:44Z</time>
      </trkpt>
      <trkpt lat="59.8846158" lon="17.739579">
        <ele>17.9218</ele>
        <time>2013-03-10T12:56:45Z</time>
      </trkpt>
      <trkpt lat="59.8846286" lon="17.7395682">
        <ele>17.9218</ele>
        <time>2013-03-10T12:56:46Z</time>
      </trkpt>
      <trkpt lat="59.8846408" lon="17.7395594">
        <ele>17.9218</ele>
        <time>2013-03-10T12:56:47Z</time>
      </trkpt>
      <trkpt lat="59.8846515" lon="17.7395481">
        <ele>17.9218</ele>
        <time>2013-03-10T12:56:48Z</time>
      </trkpt>
      <trkpt lat="59.8846628" lon="17.7395377">
        <ele>17.4412</ele>
        <time>2013-03-10T12:56:49Z</time>
      </trkpt>
      <trkpt lat="59.8846743" lon="17.7395277">
        <ele>17.9218</ele>
        <time>2013-03-10T12:56:50Z</time>
      </trkpt>
      <trkpt lat="59.8846855" lon="17.739515">
        <ele>17.4412</ele>
        <time>2013-03-10T12:56:51Z</time>
      </trkpt>
      <trkpt lat="59.8846981" lon="17.739506">
        <ele>17.9218</ele>
        <time>2013-03-10T12:56:52Z</time>
      </trkpt>
      <trkpt lat="59.8847101" lon="17.7394979">
        <ele>17.9218</ele>
        <time>2013-03-10T12:56:53Z</time>
      </trkpt>
      <trkpt lat="59.8847225" lon="17.7394909">
        <ele>17.9218</ele>
        <time>2013-03-10T12:56:54Z</time>
      </trkpt>
      <trkpt lat="59.8847345" lon="17.7394828">
        <ele>17.9218</ele>
        <time>2013-03-10T12:56:55Z</time>
      </trkpt>
      <trkpt lat="59.8847474" lon="17.7394739">
        <ele>17.9218</ele>
        <time>2013-03-10T12:56:56Z</time>
      </trkpt>
      <trkpt lat="59.8847608" lon="17.7394672">
        <ele>17.4412</ele>
        <time>2013-03-10T12:56:57Z</time>
      </trkpt>
      <trkpt lat="59.8847747" lon="17.7394617">
        <ele>17.4412</ele>
        <time>2013-03-10T12:56:58Z</time>
      </trkpt>
      <trkpt lat="59.8847886" lon="17.7394567">
        <ele>17.4412</ele>
        <time>2013-03-10T12:56:59Z</time>
      </trkpt>
      <trkpt lat="59.8848011" lon="17.7394512">
        <ele>17.4412</ele>
        <time>2013-03-10T12:57:00Z</time>
      </trkpt>
      <trkpt lat="59.8848126" lon="17.7394458">
        <ele>16.9604</ele>
        <time>2013-03-10T12:57:01Z</time>
      </trkpt>
      <trkpt lat="59.8848251" lon="17.7394382">
        <ele>17.4412</ele>
        <time>2013-03-10T12:57:02Z</time>
      </trkpt>
      <trkpt lat="59.884837" lon="17.7394304">
        <ele>17.4412</ele>
        <time>2013-03-10T12:57:03Z</time>
      </trkpt>
      <trkpt lat="59.8848489" lon="17.7394233">
        <ele>16.9604</ele>
        <time>2013-03-10T12:57:04Z</time>
      </trkpt>
      <trkpt lat="59.8848611" lon="17.7394163">
        <ele>16.9604</ele>
        <time>2013-03-10T12:57:05Z</time>
      </trkpt>
      <trkpt lat="59.8848738" lon="17.7394066">
        <ele>16.9604</ele>
        <time>2013-03-10T12:57:06Z</time>
      </trkpt>
      <trkpt lat="59.8848863" lon="17.7393963">
        <ele>16.4797</ele>
        <time>2013-03-10T12:57:07Z</time>
      </trkpt>
      <trkpt lat="59.8848989" lon="17.7393879">
        <ele>16.4797</ele>
        <time>2013-03-10T12:57:08Z</time>
      </trkpt>
      <trkpt lat="59.8849116" lon="17.739381">
        <ele>16.4797</ele>
        <time>2013-03-10T12:57:09Z</time>
      </trkpt>
      <trkpt lat="59.8849245" lon="17.7393738">
        <ele>16.4797</ele>
        <time>2013-03-10T12:57:10Z</time>
      </trkpt>
      <trkpt lat="59.8849362" lon="17.73937">
        <ele>15.999</ele>
        <time>2013-03-10T12:57:11Z</time>
      </trkpt>
      <trkpt lat="59.8849481" lon="17.7393657">
        <ele>15.999</ele>
        <time>2013-03-10T12:57:12Z</time>
      </trkpt>
      <trkpt lat="59.8849606" lon="17.7393579">
        <ele>15.999</ele>
        <time>2013-03-10T12:57:13Z</time>
      </trkpt>
      <trkpt lat="59.8849728" lon="17.73935">
        <ele>15.999</ele>
        <time>2013-03-10T12:57:14Z</time>
      </trkpt>
      <trkpt lat="59.8849855" lon="17.7393449">
        <ele>15.5184</ele>
        <time>2013-03-10T12:57:15Z</time>
      </trkpt>
      <trkpt lat="59.8849982" lon="17.7393398">
        <ele>15.5184</ele>
        <time>2013-03-10T12:57:16Z</time>
      </trkpt>
      <trkpt lat="59.885011" lon="17.7393349">
        <ele>15.0377</ele>
        <time>2013-03-10T12:57:17Z</time>
      </trkpt>
      <trkpt lat="59.8850238" lon="17.7393323">
        <ele>15.0377</ele>
        <time>2013-03-10T12:57:18Z</time>
      </trkpt>
      <trkpt lat="59.8850364" lon="17.739331">
        <ele>15.0377</ele>
        <time>2013-03-10T12:57:19Z</time>
      </trkpt>
      <trkpt lat="59.8850487" lon="17.7393339">
        <ele>15.0377</ele>
        <time>2013-03-10T12:57:20Z</time>
      </trkpt>
      <trkpt lat="59.8850632" lon="17.7393391">
        <ele>15.0377</ele>
        <time>2013-03-10T12:57:21Z</time>
      </trkpt>
      <trkpt lat="59.8850768" lon="17.7393448">
        <ele>15.0377</ele>
        <time>2013-03-10T12:57:22Z</time>
      </trkpt>
      <trkpt lat="59.8850911" lon="17.7393534">
        <ele>15.0377</ele>
        <time>2013-03-10T12:57:23Z</time>
      </trkpt>
      <trkpt lat="59.8851035" lon="17.7393627">
        <ele>14.557</ele>
        <time>2013-03-10T12:57:24Z</time>
      </trkpt>
      <trkpt lat="59.8851171" lon="17.7393703">
        <ele>14.557</ele>
        <time>2013-03-10T12:57:25Z</time>
      </trkpt>
      <trkpt lat="59.8851317" lon="17.7393775">
        <ele>15.0377</ele>
        <time>2013-03-10T12:57:26Z</time>
      </trkpt>
      <trkpt lat="59.8851447" lon="17.7393885">
        <ele>15.0377</ele>
        <time>2013-03-10T12:57:27Z</time>
      </trkpt>
      <trkpt lat="59.8851585" lon="17.7393998">
        <ele>15.0377</ele>
        <time>2013-03-10T12:57:28Z</time>
      </trkpt>
      <trkpt lat="59.8851717" lon="17.7394122">
        <ele>15.0377</ele>
        <time>2013-03-10T12:57:29Z</time>
      </trkpt>
      <trkpt lat="59.8851851" lon="17.7394264">
        <ele>15.5184</ele>
        <time>2013-03-10T12:57:30Z</time>
      </trkpt>
      <trkpt lat="59.8851975" lon="17.7394418">
        <ele>15.5184</ele>
        <time>2013-03-10T12:57:31Z</time>
      </trkpt>
      <trkpt lat="59.8852084" lon="17.7394599">
        <ele>15.5184</ele>
        <time>2013-03-10T12:57:32Z</time>
      </trkpt>
      <trkpt lat="59.8852192" lon="17.7394787">
        <ele>15.5184</ele>
        <time>2013-03-10T12:57:33Z</time>
      </trkpt>
      <trkpt lat="59.8852291" lon="17.7394963">
        <ele>15.999</ele>
        <time>2013-03-10T12:57:34Z</time>
      </trkpt>
      <trkpt lat="59.8852384" lon="17.7395142">
        <ele>15.999</ele>
        <time>2013-03-10T12:57:35Z</time>
      </trkpt>
      <trkpt lat="59.8852472" lon="17.7395346">
        <ele>15.999</ele>
        <time>2013-03-10T12:57:36Z</time>
      </trkpt>
      <trkpt lat="59.8852554" lon="17.7395564">
        <ele>15.999</ele>
        <time>2013-03-10T12:57:37Z</time>
      </trkpt>
      <trkpt lat="59.8852621" lon="17.7395792">
        <ele>15.999</ele>
        <time>2013-03-10T12:57:38Z</time>
      </trkpt>
      <trkpt lat="59.8852681" lon="17.739605">
        <ele>15.999</ele>
        <time>2013-03-10T12:57:39Z</time>
      </trkpt>
      <trkpt lat="59.8852727" lon="17.7396313">
        <ele>15.999</ele>
        <time>2013-03-10T12:57:40Z</time>
      </trkpt>
      <trkpt lat="59.8852777" lon="17.7396553">
        <ele>15.999</ele>
        <time>2013-03-10T12:57:41Z</time>
      </trkpt>
      <trkpt lat="59.8852838" lon="17.7396755">
        <ele>15.5184</ele>
        <time>2013-03-10T12:57:42Z</time>
      </trkpt>
      <trkpt lat="59.88529" lon="17.7396971">
        <ele>15.0377</ele>
        <time>2013-03-10T12:57:43Z</time>
      </trkpt>
      <trkpt lat="59.8852952" lon="17.7397229">
        <ele>15.0377</ele>
        <time>2013-03-10T12:57:44Z</time>
      </trkpt>
      <trkpt lat="59.8853007" lon="17.7397496">
        <ele>15.0377</ele>
        <time>2013-03-10T12:57:45Z</time>
      </trkpt>
      <trkpt lat="59.8853053" lon="17.7397775">
        <ele>15.0377</ele>
        <time>2013-03-10T12:57:46Z</time>
      </trkpt>
      <trkpt lat="59.8853089" lon="17.7398053">
        <ele>15.0377</ele>
        <time>2013-03-10T12:57:47Z</time>
      </trkpt>
      <trkpt lat="59.8853124" lon="17.7398313">
        <ele>14.557</ele>
        <time>2013-03-10T12:57:48Z</time>
      </trkpt>
      <trkpt lat="59.8853162" lon="17.7398583">
        <ele>15.0377</ele>
        <time>2013-03-10T12:57:49Z</time>
      </trkpt>
      <trkpt lat="59.8853198" lon="17.7398856">
        <ele>14.557</ele>
        <time>2013-03-10T12:57:50Z</time>
      </trkpt>
      <trkpt lat="59.8853235" lon="17.7399136">
        <ele>14.557</ele>
        <time>2013-03-10T12:57:51Z</time>
      </trkpt>
      <trkpt lat="59.885327" lon="17.7399398">
        <ele>14.557</ele>
        <time>2013-03-10T12:57:52Z</time>
      </trkpt>
      <trkpt lat="59.8853313" lon="17.7399656">
        <ele>14.557</ele>
        <time>2013-03-10T12:57:53Z</time>
      </trkpt>
      <trkpt lat="59.8853358" lon="17.7399911">
        <ele>14.557</ele>
        <time>2013-03-10T12:57:54Z</time>
      </trkpt>
      <trkpt lat="59.8853395" lon="17.740017">
        <ele>14.557</ele>
        <time>2013-03-10T12:57:55Z</time>
      </trkpt>
      <trkpt lat="59.8853439" lon="17.7400427">
        <ele>14.557</ele>
        <time>2013-03-10T12:57:56Z</time>
      </trkpt>
      <trkpt lat="59.8853475" lon="17.7400682">
        <ele>14.557</ele>
        <time>2013-03-10T12:57:57Z</time>
      </trkpt>
      <trkpt lat="59.8853522" lon="17.7400933">
        <ele>14.557</ele>
        <time>2013-03-10T12:57:58Z</time>
      </trkpt>
      <trkpt lat="59.8853575" lon="17.7401182">
        <ele>14.557</ele>
        <time>2013-03-10T12:57:59Z</time>
      </trkpt>
      <trkpt lat="59.8853622" lon="17.7401438">
        <ele>14.557</ele>
        <time>2013-03-10T12:58:00Z</time>
      </trkpt>
      <trkpt lat="59.8853672" lon="17.7401702">
        <ele>14.557</ele>
        <time>2013-03-10T12:58:01Z</time>
      </trkpt>
      <trkpt lat="59.8853721" lon="17.7401961">
        <ele>14.557</ele>
        <time>2013-03-10T12:58:02Z</time>
      </trkpt>
      <trkpt lat="59.8853771" lon="17.7402219">
        <ele>15.0377</ele>
        <time>2013-03-10T12:58:03Z</time>
      </trkpt>
      <trkpt lat="59.8853819" lon="17.7402478">
        <ele>15.0377</ele>
        <time>2013-03-10T12:58:04Z</time>
      </trkpt>
      <trkpt lat="59.8853861" lon="17.7402736">
        <ele>15.0377</ele>
        <time>2013-03-10T12:58:05Z</time>
      </trkpt>
      <trkpt lat="59.8853896" lon="17.7402985">
        <ele>15.0377</ele>
        <time>2013-03-10T12:58:06Z</time>
      </trkpt>
      <trkpt lat="59.8853931" lon="17.7403238">
        <ele>15.0377</ele>
        <time>2013-03-10T12:58:07Z</time>
      </trkpt>
      <trkpt lat="59.8853968" lon="17.740349">
        <ele>15.0377</ele>
        <time>2013-03-10T12:58:08Z</time>
      </trkpt>
      <trkpt lat="59.8854015" lon="17.7403747">
        <ele>15.0377</ele>
        <time>2013-03-10T12:58:09Z</time>
      </trkpt>
      <trkpt lat="59.8854058" lon="17.7404002">
        <ele>15.0377</ele>
        <time>2013-03-10T12:58:10Z</time>
      </trkpt>
      <trkpt lat="59.88541" lon="17.7404244">
        <ele>15.0377</ele>
        <time>2013-03-10T12:58:11Z</time>
      </trkpt>
      <trkpt lat="59.885414" lon="17.740449">
        <ele>15.0377</ele>
        <time>2013-03-10T12:58:12Z</time>
      </trkpt>
      <trkpt lat="59.885418" lon="17.7404743">
        <ele>15.0377</ele>
        <time>2013-03-10T12:58:13Z</time>
      </trkpt>
      <trkpt lat="59.8854222" lon="17.7404999">
        <ele>14.557</ele>
        <time>2013-03-10T12:58:14Z</time>
      </trkpt>
      <trkpt lat="59.8854279" lon="17.7405258">
        <ele>14.557</ele>
        <time>2013-03-10T12:58:15Z</time>
      </trkpt>
      <trkpt lat="59.8854336" lon="17.7405513">
        <ele>14.557</ele>
        <time>2013-03-10T12:58:16Z</time>
      </trkpt>
      <trkpt lat="59.8854384" lon="17.7405783">
        <ele>14.557</ele>
        <time>2013-03-10T12:58:17Z</time>
      </trkpt>
      <trkpt lat="59.885442" lon="17.7406053">
        <ele>14.557</ele>
        <time>2013-03-10T12:58:18Z</time>
      </trkpt>
      <trkpt lat="59.8854456" lon="17.7406301">
        <ele>14.557</ele>
        <time>2013-03-10T12:58:19Z</time>
      </trkpt>
      <trkpt lat="59.8854507" lon="17.7406541">
        <ele>14.557</ele>
        <time>2013-03-10T12:58:20Z</time>
      </trkpt>
      <trkpt lat="59.885456" lon="17.7406783">
        <ele>14.557</ele>
        <time>2013-03-10T12:58:21Z</time>
      </trkpt>
      <trkpt lat="59.8854616" lon="17.7407018">
        <ele>14.557</ele>
        <time>2013-03-10T12:58:22Z</time>
      </trkpt>
      <trkpt lat="59.8854689" lon="17.7407253">
        <ele>14.557</ele>
        <time>2013-03-10T12:58:23Z</time>
      </trkpt>
      <trkpt lat="59.8854756" lon="17.7407478">
        <ele>14.557</ele>
        <time>2013-03-10T12:58:24Z</time>
      </trkpt>
      <trkpt lat="59.8854828" lon="17.7407689">
        <ele>15.0377</ele>
        <time>2013-03-10T12:58:25Z</time>
      </trkpt>
      <trkpt lat="59.88549" lon="17.7407903">
        <ele>15.0377</ele>
        <time>2013-03-10T12:58:26Z</time>
      </trkpt>
      <trkpt lat="59.8854963" lon="17.7408125">
        <ele>15.0377</ele>
        <time>2013-03-10T12:58:27Z</time>
      </trkpt>
      <trkpt lat="59.8855025" lon="17.7408339">
        <ele>15.0377</ele>
        <time>2013-03-10T12:58:28Z</time>
      </trkpt>
      <trkpt lat="59.8855091" lon="17.7408554">
        <ele>15.0377</ele>
        <time>2013-03-10T12:58:29Z</time>
      </trkpt>
      <trkpt lat="59.8855146" lon="17.7408773">
        <ele>15.0377</ele>
        <time>2013-03-10T12:58:30Z</time>
      </trkpt>
      <trkpt lat="59.8855201" lon="17.740899">
        <ele>15.0377</ele>
        <time>2013-03-10T12:58:31Z</time>
      </trkpt>
      <trkpt lat="59.8855275" lon="17.7409155">
        <ele>15.0377</ele>
        <time>2013-03-10T12:58:32Z</time>
      </trkpt>
      <trkpt lat="59.8855367" lon="17.7409274">
        <ele>15.0377</ele>
        <time>2013-03-10T12:58:33Z</time>
      </trkpt>
      <trkpt lat="59.8855454" lon="17.7409424">
        <ele>15.0377</ele>
        <time>2013-03-10T12:58:34Z</time>
      </trkpt>
      <trkpt lat="59.8855549" lon="17.7409607">
        <ele>15.0377</ele>
        <time>2013-03-10T12:58:35Z</time>
      </trkpt>
      <trkpt lat="59.8855637" lon="17.740977">
        <ele>15.0377</ele>
        <time>2013-03-10T12:58:36Z</time>
      </trkpt>
      <trkpt lat="59.8855726" lon="17.7409942">
        <ele>15.0377</ele>
        <time>2013-03-10T12:58:37Z</time>
      </trkpt>
      <trkpt lat="59.8855808" lon="17.74101">
        <ele>14.557</ele>
        <time>2013-03-10T12:58:38Z</time>
      </trkpt>
      <trkpt lat="59.885589" lon="17.7410242">
        <ele>15.0377</ele>
        <time>2013-03-10T12:58:39Z</time>
      </trkpt>
      <trkpt lat="59.8855985" lon="17.7410397">
        <ele>15.0377</ele>
        <time>2013-03-10T12:58:40Z</time>
      </trkpt>
      <trkpt lat="59.8856083" lon="17.7410548">
        <ele>15.0377</ele>
        <time>2013-03-10T12:58:41Z</time>
      </trkpt>
      <trkpt lat="59.8856184" lon="17.7410692">
        <ele>15.0377</ele>
        <time>2013-03-10T12:58:42Z</time>
      </trkpt>
      <trkpt lat="59.8856284" lon="17.7410841">
        <ele>15.0377</ele>
        <time>2013-03-10T12:58:43Z</time>
      </trkpt>
      <trkpt lat="59.8856393" lon="17.7411009">
        <ele>15.0377</ele>
        <time>2013-03-10T12:58:44Z</time>
      </trkpt>
      <trkpt lat="59.8856497" lon="17.7411161">
        <ele>15.0377</ele>
        <time>2013-03-10T12:58:45Z</time>
      </trkpt>
      <trkpt lat="59.8856601" lon="17.7411298">
        <ele>15.0377</ele>
        <time>2013-03-10T12:58:46Z</time>
      </trkpt>
      <trkpt lat="59.8856713" lon="17.741142">
        <ele>15.0377</ele>
        <time>2013-03-10T12:58:47Z</time>
      </trkpt>
      <trkpt lat="59.8856819" lon="17.7411558">
        <ele>15.0377</ele>
        <time>2013-03-10T12:58:48Z</time>
      </trkpt>
      <trkpt lat="59.8856912" lon="17.7411714">
        <ele>15.0377</ele>
        <time>2013-03-10T12:58:49Z</time>
      </trkpt>
      <trkpt lat="59.8857027" lon="17.7411843">
        <ele>15.5184</ele>
        <time>2013-03-10T12:58:50Z</time>
      </trkpt>
      <trkpt lat="59.8857134" lon="17.7411958">
        <ele>15.999</ele>
        <time>2013-03-10T12:58:51Z</time>
      </trkpt>
      <trkpt lat="59.8857253" lon="17.7412055">
        <ele>15.999</ele>
        <time>2013-03-10T12:58:52Z</time>
      </trkpt>
      <trkpt lat="59.8857366" lon="17.741215">
        <ele>16.4797</ele>
        <time>2013-03-10T12:58:53Z</time>
      </trkpt>
      <trkpt lat="59.8857481" lon="17.7412228">
        <ele>16.4797</ele>
        <time>2013-03-10T12:58:54Z</time>
      </trkpt>
      <trkpt lat="59.8857599" lon="17.7412298">
        <ele>16.9604</ele>
        <time>2013-03-10T12:58:55Z</time>
      </trkpt>
      <trkpt lat="59.8857705" lon="17.7412381">
        <ele>16.9604</ele>
        <time>2013-03-10T12:58:56Z</time>
      </trkpt>
      <trkpt lat="59.8857813" lon="17.7412476">
        <ele>16.9604</ele>
        <time>2013-03-10T12:58:57Z</time>
      </trkpt>
      <trkpt lat="59.8857927" lon="17.7412578">
        <ele>16.9604</ele>
        <time>2013-03-10T12:58:58Z</time>
      </trkpt>
      <trkpt lat="59.8858039" lon="17.7412684">
        <ele>16.9604</ele>
        <time>2013-03-10T12:58:59Z</time>
      </trkpt>
      <trkpt lat="59.8858163" lon="17.7412777">
        <ele>16.9604</ele>
        <time>2013-03-10T12:59:00Z</time>
      </trkpt>
      <trkpt lat="59.8858284" lon="17.7412868">
        <ele>16.9604</ele>
        <time>2013-03-10T12:59:01Z</time>
      </trkpt>
      <trkpt lat="59.8858403" lon="17.7412975">
        <ele>16.9604</ele>
        <time>2013-03-10T12:59:02Z</time>
      </trkpt>
      <trkpt lat="59.8858521" lon="17.7413087">
        <ele>17.4412</ele>
        <time>2013-03-10T12:59:03Z</time>
      </trkpt>
      <trkpt lat="59.885864" lon="17.7413194">
        <ele>17.9218</ele>
        <time>2013-03-10T12:59:04Z</time>
      </trkpt>
      <trkpt lat="59.8858745" lon="17.7413279">
        <ele>17.9218</ele>
        <time>2013-03-10T12:59:05Z</time>
      </trkpt>
      <trkpt lat="59.8858874" lon="17.7413383">
        <ele>18.4023</ele>
        <time>2013-03-10T12:59:06Z</time>
      </trkpt>
      <trkpt lat="59.8859008" lon="17.7413512">
        <ele>18.4023</ele>
        <time>2013-03-10T12:59:07Z</time>
      </trkpt>
      <trkpt lat="59.8859124" lon="17.7413643">
        <ele>18.8831</ele>
        <time>2013-03-10T12:59:08Z</time>
      </trkpt>
      <trkpt lat="59.8859237" lon="17.7413771">
        <ele>18.8831</ele>
        <time>2013-03-10T12:59:09Z</time>
      </trkpt>
      <trkpt lat="59.8859353" lon="17.7413883">
        <ele>19.3638</ele>
        <time>2013-03-10T12:59:10Z</time>
      </trkpt>
      <trkpt lat="59.8859471" lon="17.7413973">
        <ele>18.8831</ele>
        <time>2013-03-10T12:59:11Z</time>
      </trkpt>
      <trkpt lat="59.8859593" lon="17.7414046">
        <ele>18.8831</ele>
        <time>2013-03-10T12:59:12Z</time>
      </trkpt>
      <trkpt lat="59.885972" lon="17.7414129">
        <ele>18.8831</ele>
        <time>2013-03-10T12:59:13Z</time>
      </trkpt>
      <trkpt lat="59.885984" lon="17.7414222">
        <ele>18.8831</ele>
        <time>2013-03-10T12:59:14Z</time>
      </trkpt>
      <trkpt lat="59.8859973" lon="17.7414306">
        <ele>18.8831</ele>
        <time>2013-03-10T12:59:15Z</time>
      </trkpt>
      <trkpt lat="59.8860095" lon="17.7414413">
        <ele>18.8831</ele>
        <time>2013-03-10T12:59:16Z</time>
      </trkpt>
      <trkpt lat="59.8860217" lon="17.7414544">
        <ele>18.8831</ele>
        <time>2013-03-10T12:59:17Z</time>
      </trkpt>
      <trkpt lat="59.886034" lon="17.7414668">
        <ele>18.8831</ele>
        <time>2013-03-10T12:59:18Z</time>
      </trkpt>
      <trkpt lat="59.8860459" lon="17.7414797">
        <ele>18.8831</ele>
        <time>2013-03-10T12:59:19Z</time>
      </trkpt>
      <trkpt lat="59.886058" lon="17.741494">
        <ele>18.4023</ele>
        <time>2013-03-10T12:59:20Z</time>
      </trkpt>
      <trkpt lat="59.8860708" lon="17.7415059">
        <ele>18.8831</ele>
        <time>2013-03-10T12:59:21Z</time>
      </trkpt>
      <trkpt lat="59.8860819" lon="17.7415189">
        <ele>18.4023</ele>
        <time>2013-03-10T12:59:22Z</time>
      </trkpt>
      <trkpt lat="59.8860932" lon="17.7415318">
        <ele>18.4023</ele>
        <time>2013-03-10T12:59:23Z</time>
      </trkpt>
      <trkpt lat="59.8861056" lon="17.7415434">
        <ele>18.4023</ele>
        <time>2013-03-10T12:59:24Z</time>
      </trkpt>
      <trkpt lat="59.8861181" lon="17.7415541">
        <ele>18.4023</ele>
        <time>2013-03-10T12:59:25Z</time>
      </trkpt>
      <trkpt lat="59.8861307" lon="17.7415652">
        <ele>18.4023</ele>
        <time>2013-03-10T12:59:26Z</time>
      </trkpt>
      <trkpt lat="59.8861433" lon="17.7415777">
        <ele>18.4023</ele>
        <time>2013-03-10T12:59:27Z</time>
      </trkpt>
      <trkpt lat="59.8861554" lon="17.7415898">
        <ele>18.4023</ele>
        <time>2013-03-10T12:59:28Z</time>
      </trkpt>
      <trkpt lat="59.8861677" lon="17.7416012">
        <ele>18.4023</ele>
        <time>2013-03-10T12:59:29Z</time>
      </trkpt>
      <trkpt lat="59.8861802" lon="17.7416132">
        <ele>18.4023</ele>
        <time>2013-03-10T12:59:30Z</time>
      </trkpt>
      <trkpt lat="59.8861921" lon="17.7416269">
        <ele>18.4023</ele>
        <time>2013-03-10T12:59:31Z</time>
      </trkpt>
      <trkpt lat="59.886204" lon="17.7416406">
        <ele>18.4023</ele>
        <time>2013-03-10T12:59:32Z</time>
      </trkpt>
      <trkpt lat="59.8862164" lon="17.7416515">
        <ele>18.4023</ele>
        <time>2013-03-10T12:59:33Z</time>
      </trkpt>
      <trkpt lat="59.8862287" lon="17.7416626">
        <ele>18.4023</ele>
        <time>2013-03-10T12:59:34Z</time>
      </trkpt>
      <trkpt lat="59.8862413" lon="17.7416754">
        <ele>18.4023</ele>
        <time>2013-03-10T12:59:35Z</time>
      </trkpt>
      <trkpt lat="59.8862537" lon="17.7416884">
        <ele>18.4023</ele>
        <time>2013-03-10T12:59:36Z</time>
      </trkpt>
      <trkpt lat="59.8862656" lon="17.7417017">
        <ele>18.4023</ele>
        <time>2013-03-10T12:59:37Z</time>
      </trkpt>
      <trkpt lat="59.8862773" lon="17.7417144">
        <ele>18.4023</ele>
        <time>2013-03-10T12:59:38Z</time>
      </trkpt>
      <trkpt lat="59.8862887" lon="17.7417264">
        <ele>17.9218</ele>
        <time>2013-03-10T12:59:39Z</time>
      </trkpt>
      <trkpt lat="59.8863007" lon="17.7417388">
        <ele>17.9218</ele>
        <time>2013-03-10T12:59:40Z</time>
      </trkpt>
      <trkpt lat="59.8863118" lon="17.7417517">
        <ele>17.9218</ele>
        <time>2013-03-10T12:59:41Z</time>
      </trkpt>
      <trkpt lat="59.8863222" lon="17.7417641">
        <ele>17.4412</ele>
        <time>2013-03-10T12:59:42Z</time>
      </trkpt>
      <trkpt lat="59.8863328" lon="17.7417765">
        <ele>17.4412</ele>
        <time>2013-03-10T12:59:43Z</time>
      </trkpt>
      <trkpt lat="59.8863432" lon="17.74179">
        <ele>17.4412</ele>
        <time>2013-03-10T12:59:44Z</time>
      </trkpt>
      <trkpt lat="59.8863541" lon="17.7418044">
        <ele>16.9604</ele>
        <time>2013-03-10T12:59:45Z</time>
      </trkpt>
      <trkpt lat="59.8863645" lon="17.7418175">
        <ele>16.9604</ele>
        <time>2013-03-10T12:59:46Z</time>
      </trkpt>
      <trkpt lat="59.8863753" lon="17.741829">
        <ele>16.9604</ele>
        <time>2013-03-10T12:59:47Z</time>
      </trkpt>
      <trkpt lat="59.8863853" lon="17.7418427">
        <ele>16.4797</ele>
        <time>2013-03-10T12:59:48Z</time>
      </trkpt>
      <trkpt lat="59.8863967" lon="17.7418573">
        <ele>16.4797</ele>
        <time>2013-03-10T12:59:49Z</time>
      </trkpt>
      <trkpt lat="59.8864081" lon="17.7418712">
        <ele>15.999</ele>
        <time>2013-03-10T12:59:50Z</time>
      </trkpt>
      <trkpt lat="59.8864188" lon="17.7418863">
        <ele>15.999</ele>
        <time>2013-03-10T12:59:51Z</time>
      </trkpt>
      <trkpt lat="59.8864286" lon="17.7419014">
        <ele>15.5184</ele>
        <time>2013-03-10T12:59:52Z</time>
      </trkpt>
      <trkpt lat="59.8864391" lon="17.7419159">
        <ele>15.5184</ele>
        <time>2013-03-10T12:59:53Z</time>
      </trkpt>
      <trkpt lat="59.8864498" lon="17.7419303">
        <ele>15.5184</ele>
        <time>2013-03-10T12:59:54Z</time>
      </trkpt>
      <trkpt lat="59.8864605" lon="17.7419442">
        <ele>15.0377</ele>
        <time>2013-03-10T12:59:55Z</time>
      </trkpt>
      <trkpt lat="59.8864718" lon="17.7419567">
        <ele>15.0377</ele>
        <time>2013-03-10T12:59:56Z</time>
      </trkpt>
      <trkpt lat="59.8864828" lon="17.7419699">
        <ele>15.0377</ele>
        <time>2013-03-10T12:59:57Z</time>
      </trkpt>
      <trkpt lat="59.8864936" lon="17.7419843">
        <ele>15.0377</ele>
        <time>2013-03-10T12:59:58Z</time>
      </trkpt>
      <trkpt lat="59.8865046" lon="17.7419978">
        <ele>14.557</ele>
        <time>2013-03-10T12:59:59Z</time>
      </trkpt>
      <trkpt lat="59.8865162" lon="17.7420105">
        <ele>14.557</ele>
        <time>2013-03-10T13:00:00Z</time>
      </trkpt>
      <trkpt lat="59.8865278" lon="17.7420231">
        <ele>14.557</ele>
        <time>2013-03-10T13:00:01Z</time>
      </trkpt>
      <trkpt lat="59.8865391" lon="17.7420362">
        <ele>14.557</ele>
        <time>2013-03-10T13:00:02Z</time>
      </trkpt>
      <trkpt lat="59.8865494" lon="17.74205">
        <ele>14.0764</ele>
        <time>2013-03-10T13:00:03Z</time>
      </trkpt>
      <trkpt lat="59.8865598" lon="17.7420635">
        <ele>14.0764</ele>
        <time>2013-03-10T13:00:04Z</time>
      </trkpt>
      <trkpt lat="59.8865697" lon="17.7420765">
        <ele>14.0764</ele>
        <time>2013-03-10T13:00:05Z</time>
      </trkpt>
      <trkpt lat="59.8865801" lon="17.7420892">
        <ele>14.0764</ele>
        <time>2013-03-10T13:00:06Z</time>
      </trkpt>
      <trkpt lat="59.8865907" lon="17.7421021">
        <ele>14.0764</ele>
        <time>2013-03-10T13:00:07Z</time>
      </trkpt>
      <trkpt lat="59.8866017" lon="17.7421148">
        <ele>14.0764</ele>
        <time>2013-03-10T13:00:08Z</time>
      </trkpt>
      <trkpt lat="59.8866133" lon="17.7421283">
        <ele>14.557</ele>
        <time>2013-03-10T13:00:09Z</time>
      </trkpt>
      <trkpt lat="59.8866246" lon="17.7421412">
        <ele>14.0764</ele>
        <time>2013-03-10T13:00:10Z</time>
      </trkpt>
      <trkpt lat="59.8866364" lon="17.7421537">
        <ele>14.0764</ele>
        <time>2013-03-10T13:00:11Z</time>
      </trkpt>
      <trkpt lat="59.886648" lon="17.7421677">
        <ele>14.0764</ele>
        <time>2013-03-10T13:00:12Z</time>
      </trkpt>
      <trkpt lat="59.8866599" lon="17.7421821">
        <ele>14.0764</ele>
        <time>2013-03-10T13:00:13Z</time>
      </trkpt>
      <trkpt lat="59.8866711" lon="17.7421964">
        <ele>14.0764</ele>
        <time>2013-03-10T13:00:14Z</time>
      </trkpt>
      <trkpt lat="59.886683" lon="17.7422105">
        <ele>14.0764</ele>
        <time>2013-03-10T13:00:15Z</time>
      </trkpt>
      <trkpt lat="59.8866949" lon="17.7422252">
        <ele>14.557</ele>
        <time>2013-03-10T13:00:16Z</time>
      </trkpt>
      <trkpt lat="59.8867059" lon="17.7422399">
        <ele>14.557</ele>
        <time>2013-03-10T13:00:17Z</time>
      </trkpt>
      <trkpt lat="59.8867153" lon="17.7422532">
        <ele>14.0764</ele>
        <time>2013-03-10T13:00:18Z</time>
      </trkpt>
      <trkpt lat="59.8867254" lon="17.7422695">
        <ele>14.557</ele>
        <time>2013-03-10T13:00:19Z</time>
      </trkpt>
      <trkpt lat="59.8867347" lon="17.7422832">
        <ele>14.557</ele>
        <time>2013-03-10T13:00:20Z</time>
      </trkpt>
      <trkpt lat="59.8867439" lon="17.7422949">
        <ele>14.0764</ele>
        <time>2013-03-10T13:00:21Z</time>
      </trkpt>
      <trkpt lat="59.8867527" lon="17.7423097">
        <ele>14.0764</ele>
        <time>2013-03-10T13:00:22Z</time>
      </trkpt>
      <trkpt lat="59.8867614" lon="17.742324">
        <ele>14.0764</ele>
        <time>2013-03-10T13:00:23Z</time>
      </trkpt>
      <trkpt lat="59.8867708" lon="17.7423382">
        <ele>14.0764</ele>
        <time>2013-03-10T13:00:24Z</time>
      </trkpt>
      <trkpt lat="59.8867805" lon="17.742354">
        <ele>14.0764</ele>
        <time>2013-03-10T13:00:25Z</time>
      </trkpt>
      <trkpt lat="59.8867907" lon="17.7423698">
        <ele>14.0764</ele>
        <time>2013-03-10T13:00:26Z</time>
      </trkpt>
      <trkpt lat="59.8867997" lon="17.7423845">
        <ele>14.0764</ele>
        <time>2013-03-10T13:00:27Z</time>
      </trkpt>
      <trkpt lat="59.8868088" lon="17.742398">
        <ele>13.5958</ele>
        <time>2013-03-10T13:00:28Z</time>
      </trkpt>
      <trkpt lat="59.8868182" lon="17.7424115">
        <ele>13.5958</ele>
        <time>2013-03-10T13:00:29Z</time>
      </trkpt>
      <trkpt lat="59.8868267" lon="17.742424">
        <ele>13.1151</ele>
        <time>2013-03-10T13:00:30Z</time>
      </trkpt>
      <trkpt lat="59.8868355" lon="17.7424354">
        <ele>12.6344</ele>
        <time>2013-03-10T13:00:31Z</time>
      </trkpt>
      <trkpt lat="59.8868448" lon="17.7424493">
        <ele>12.6344</ele>
        <time>2013-03-10T13:00:32Z</time>
      </trkpt>
      <trkpt lat="59.8868536" lon="17.7424645">
        <ele>12.1538</ele>
        <time>2013-03-10T13:00:33Z</time>
      </trkpt>
      <trkpt lat="59.8868624" lon="17.7424791">
        <ele>12.1538</ele>
        <time>2013-03-10T13:00:34Z</time>
      </trkpt>
      <trkpt lat="59.8868717" lon="17.7424934">
        <ele>12.1538</ele>
        <time>2013-03-10T13:00:35Z</time>
      </trkpt>
      <trkpt lat="59.8868806" lon="17.7425086">
        <ele>11.6732</ele>
        <time>2013-03-10T13:00:36Z</time>
      </trkpt>
      <trkpt lat="59.8868905" lon="17.7425245">
        <ele>11.6732</ele>
        <time>2013-03-10T13:00:37Z</time>
      </trkpt>
      <trkpt lat="59.8869001" lon="17.7425415">
        <ele>11.6732</ele>
        <time>2013-03-10T13:00:38Z</time>
      </trkpt>
      <trkpt lat="59.8869099" lon="17.7425592">
        <ele>11.6732</ele>
        <time>2013-03-10T13:00:39Z</time>
      </trkpt>
      <trkpt lat="59.8869197" lon="17.7425768">
        <ele>11.1925</ele>
        <time>2013-03-10T13:00:40Z</time>
      </trkpt>
      <trkpt lat="59.8869302" lon="17.7425924">
        <ele>11.1925</ele>
        <time>2013-03-10T13:00:41Z</time>
      </trkpt>
      <trkpt lat="59.8869404" lon="17.742607">
        <ele>11.1925</ele>
        <time>2013-03-10T13:00:42Z</time>
      </trkpt>
      <trkpt lat="59.8869511" lon="17.7426235">
        <ele>11.1925</ele>
        <time>2013-03-10T13:00:43Z</time>
      </trkpt>
      <trkpt lat="59.8869618" lon="17.7426404">
        <ele>11.1925</ele>
        <time>2013-03-10T13:00:44Z</time>
      </trkpt>
      <trkpt lat="59.8869718" lon="17.7426573">
        <ele>11.1925</ele>
        <time>2013-03-10T13:00:45Z</time>
      </trkpt>
      <trkpt lat="59.8869824" lon="17.7426748">
        <ele>11.1925</ele>
        <time>2013-03-10T13:00:46Z</time>
      </trkpt>
      <trkpt lat="59.8869924" lon="17.7426932">
        <ele>10.7118</ele>
        <time>2013-03-10T13:00:47Z</time>
      </trkpt>
      <trkpt lat="59.8870026" lon="17.7427113">
        <ele>10.7118</ele>
        <time>2013-03-10T13:00:48Z</time>
      </trkpt>
      <trkpt lat="59.8870127" lon="17.7427301">
        <ele>10.7118</ele>
        <time>2013-03-10T13:00:49Z</time>
      </trkpt>
      <trkpt lat="59.8870226" lon="17.7427487">
        <ele>10.7118</ele>
        <time>2013-03-10T13:00:50Z</time>
      </trkpt>
      <trkpt lat="59.8870333" lon="17.7427673">
        <ele>10.7118</ele>
        <time>2013-03-10T13:00:51Z</time>
      </trkpt>
      <trkpt lat="59.887044" lon="17.742786">
        <ele>10.2312</ele>
        <time>2013-03-10T13:00:52Z</time>
      </trkpt>
      <trkpt lat="59.8870544" lon="17.7428043">
        <ele>10.2312</ele>
        <time>2013-03-10T13:00:53Z</time>
      </trkpt>
      <trkpt lat="59.8870652" lon="17.7428212">
        <ele>10.2312</ele>
        <time>2013-03-10T13:00:54Z</time>
      </trkpt>
      <trkpt lat="59.8870758" lon="17.7428382">
        <ele>10.2312</ele>
        <time>2013-03-10T13:00:55Z</time>
      </trkpt>
      <trkpt lat="59.887086" lon="17.7428562">
        <ele>10.2312</ele>
        <time>2013-03-10T13:00:56Z</time>
      </trkpt>
      <trkpt lat="59.887096" lon="17.7428737">
        <ele>10.2312</ele>
        <time>2013-03-10T13:00:57Z</time>
      </trkpt>
      <trkpt lat="59.8871064" lon="17.7428917">
        <ele>10.2312</ele>
        <time>2013-03-10T13:00:58Z</time>
      </trkpt>
      <trkpt lat="59.8871172" lon="17.7429103">
        <ele>10.2312</ele>
        <time>2013-03-10T13:00:59Z</time>
      </trkpt>
      <trkpt lat="59.8871271" lon="17.7429291">
        <ele>10.2312</ele>
        <time>2013-03-10T13:01:00Z</time>
      </trkpt>
      <trkpt lat="59.887137" lon="17.7429476">
        <ele>10.2312</ele>
        <time>2013-03-10T13:01:01Z</time>
      </trkpt>
      <trkpt lat="59.8871471" lon="17.7429668">
        <ele>10.2312</ele>
        <time>2013-03-10T13:01:02Z</time>
      </trkpt>
      <trkpt lat="59.8871572" lon="17.7429854">
        <ele>10.2312</ele>
        <time>2013-03-10T13:01:03Z</time>
      </trkpt>
      <trkpt lat="59.8871673" lon="17.7430022">
        <ele>10.2312</ele>
        <time>2013-03-10T13:01:04Z</time>
      </trkpt>
      <trkpt lat="59.8871771" lon="17.7430191">
        <ele>10.2312</ele>
        <time>2013-03-10T13:01:05Z</time>
      </trkpt>
      <trkpt lat="59.8871877" lon="17.7430359">
        <ele>10.2312</ele>
        <time>2013-03-10T13:01:06Z</time>
      </trkpt>
      <trkpt lat="59.8871986" lon="17.7430534">
        <ele>10.2312</ele>
        <time>2013-03-10T13:01:07Z</time>
      </trkpt>
      <trkpt lat="59.8872095" lon="17.7430725">
        <ele>10.2312</ele>
        <time>2013-03-10T13:01:08Z</time>
      </trkpt>
      <trkpt lat="59.8872197" lon="17.7430912">
        <ele>10.2312</ele>
        <time>2013-03-10T13:01:09Z</time>
      </trkpt>
      <trkpt lat="59.8872301" lon="17.7431082">
        <ele>10.2312</ele>
        <time>2013-03-10T13:01:10Z</time>
      </trkpt>
      <trkpt lat="59.8872409" lon="17.7431249">
        <ele>10.2312</ele>
        <time>2013-03-10T13:01:11Z</time>
      </trkpt>
      <trkpt lat="59.887251" lon="17.7431418">
        <ele>10.2312</ele>
        <time>2013-03-10T13:01:12Z</time>
      </trkpt>
      <trkpt lat="59.8872607" lon="17.7431587">
        <ele>10.2312</ele>
        <time>2013-03-10T13:01:13Z</time>
      </trkpt>
      <trkpt lat="59.8872705" lon="17.7431756">
        <ele>10.2312</ele>
        <time>2013-03-10T13:01:14Z</time>
      </trkpt>
      <trkpt lat="59.8872804" lon="17.7431922">
        <ele>10.2312</ele>
        <time>2013-03-10T13:01:15Z</time>
      </trkpt>
      <trkpt lat="59.8872912" lon="17.7432089">
        <ele>10.7118</ele>
        <time>2013-03-10T13:01:16Z</time>
      </trkpt>
      <trkpt lat="59.8873017" lon="17.7432259">
        <ele>10.7118</ele>
        <time>2013-03-10T13:01:17Z</time>
      </trkpt>
      <trkpt lat="59.8873125" lon="17.7432433">
        <ele>10.7118</ele>
        <time>2013-03-10T13:01:18Z</time>
      </trkpt>
      <trkpt lat="59.8873232" lon="17.7432591">
        <ele>10.7118</ele>
        <time>2013-03-10T13:01:19Z</time>
      </trkpt>
      <trkpt lat="59.8873339" lon="17.7432755">
        <ele>10.7118</ele>
        <time>2013-03-10T13:01:20Z</time>
      </trkpt>
      <trkpt lat="59.8873447" lon="17.7432942">
        <ele>10.7118</ele>
        <time>2013-03-10T13:01:21Z</time>
      </trkpt>
      <trkpt lat="59.8873564" lon="17.7433133">
        <ele>10.7118</ele>
        <time>2013-03-10T13:01:22Z</time>
      </trkpt>
      <trkpt lat="59.8873659" lon="17.7433319">
        <ele>10.7118</ele>
        <time>2013-03-10T13:01:23Z</time>
      </trkpt>
      <trkpt lat="59.8873758" lon="17.7433496">
        <ele>10.7118</ele>
        <time>2013-03-10T13:01:24Z</time>
      </trkpt>
      <trkpt lat="59.8873865" lon="17.7433672">
        <ele>10.7118</ele>
        <time>2013-03-10T13:01:25Z</time>
      </trkpt>
      <trkpt lat="59.8873973" lon="17.7433849">
        <ele>10.7118</ele>
        <time>2013-03-10T13:01:26Z</time>
      </trkpt>
      <trkpt lat="59.8874082" lon="17.7434026">
        <ele>10.7118</ele>
        <time>2013-03-10T13:01:27Z</time>
      </trkpt>
      <trkpt lat="59.8874176" lon="17.7434207">
        <ele>10.7118</ele>
        <time>2013-03-10T13:01:28Z</time>
      </trkpt>
      <trkpt lat="59.8874271" lon="17.7434383">
        <ele>10.7118</ele>
        <time>2013-03-10T13:01:29Z</time>
      </trkpt>
      <trkpt lat="59.8874374" lon="17.7434559">
        <ele>10.7118</ele>
        <time>2013-03-10T13:01:30Z</time>
      </trkpt>
      <trkpt lat="59.8874477" lon="17.7434746">
        <ele>10.7118</ele>
        <time>2013-03-10T13:01:31Z</time>
      </trkpt>
      <trkpt lat="59.8874581" lon="17.7434932">
        <ele>10.7118</ele>
        <time>2013-03-10T13:01:32Z</time>
      </trkpt>
      <trkpt lat="59.887468" lon="17.7435106">
        <ele>10.7118</ele>
        <time>2013-03-10T13:01:33Z</time>
      </trkpt>
      <trkpt lat="59.8874782" lon="17.7435264">
        <ele>10.7118</ele>
        <time>2013-03-10T13:01:34Z</time>
      </trkpt>
      <trkpt lat="59.8874886" lon="17.7435423">
        <ele>10.2312</ele>
        <time>2013-03-10T13:01:35Z</time>
      </trkpt>
      <trkpt lat="59.8874988" lon="17.7435578">
        <ele>10.7118</ele>
        <time>2013-03-10T13:01:36Z</time>
      </trkpt>
      <trkpt lat="59.8875085" lon="17.7435745">
        <ele>10.2312</ele>
        <time>2013-03-10T13:01:37Z</time>
      </trkpt>
      <trkpt lat="59.8875195" lon="17.7435917">
        <ele>10.7118</ele>
        <time>2013-03-10T13:01:38Z</time>
      </trkpt>
      <trkpt lat="59.8875294" lon="17.7436092">
        <ele>10.2312</ele>
        <time>2013-03-10T13:01:39Z</time>
      </trkpt>
      <trkpt lat="59.8875404" lon="17.7436278">
        <ele>10.7118</ele>
        <time>2013-03-10T13:01:40Z</time>
      </trkpt>
      <trkpt lat="59.8875513" lon="17.7436451">
        <ele>10.7118</ele>
        <time>2013-03-10T13:01:41Z</time>
      </trkpt>
      <trkpt lat="59.8875622" lon="17.7436619">
        <ele>10.7118</ele>
        <time>2013-03-10T13:01:42Z</time>
      </trkpt>
      <trkpt lat="59.8875731" lon="17.743679">
        <ele>11.1925</ele>
        <time>2013-03-10T13:01:43Z</time>
      </trkpt>
      <trkpt lat="59.8875844" lon="17.7436956">
        <ele>11.1925</ele>
        <time>2013-03-10T13:01:44Z</time>
      </trkpt>
      <trkpt lat="59.8875958" lon="17.7437127">
        <ele>11.1925</ele>
        <time>2013-03-10T13:01:45Z</time>
      </trkpt>
      <trkpt lat="59.8876071" lon="17.7437314">
        <ele>11.1925</ele>
        <time>2013-03-10T13:01:46Z</time>
      </trkpt>
      <trkpt lat="59.8876181" lon="17.7437496">
        <ele>11.1925</ele>
        <time>2013-03-10T13:01:47Z</time>
      </trkpt>
      <trkpt lat="59.8876281" lon="17.7437677">
        <ele>11.1925</ele>
        <time>2013-03-10T13:01:48Z</time>
      </trkpt>
      <trkpt lat="59.8876379" lon="17.7437872">
        <ele>11.1925</ele>
        <time>2013-03-10T13:01:49Z</time>
      </trkpt>
      <trkpt lat="59.8876487" lon="17.7438061">
        <ele>11.1925</ele>
        <time>2013-03-10T13:01:50Z</time>
      </trkpt>
      <trkpt lat="59.8876596" lon="17.7438238">
        <ele>11.1925</ele>
        <time>2013-03-10T13:01:51Z</time>
      </trkpt>
      <trkpt lat="59.8876708" lon="17.7438412">
        <ele>11.6732</ele>
        <time>2013-03-10T13:01:52Z</time>
      </trkpt>
      <trkpt lat="59.8876813" lon="17.7438604">
        <ele>11.6732</ele>
        <time>2013-03-10T13:01:53Z</time>
      </trkpt>
      <trkpt lat="59.887692" lon="17.7438796">
        <ele>11.6732</ele>
        <time>2013-03-10T13:01:54Z</time>
      </trkpt>
      <trkpt lat="59.8877031" lon="17.7438978">
        <ele>11.6732</ele>
        <time>2013-03-10T13:01:55Z</time>
      </trkpt>
      <trkpt lat="59.8877144" lon="17.7439169">
        <ele>11.6732</ele>
        <time>2013-03-10T13:01:56Z</time>
      </trkpt>
      <trkpt lat="59.8877258" lon="17.7439361">
        <ele>12.1538</ele>
        <time>2013-03-10T13:01:57Z</time>
      </trkpt>
      <trkpt lat="59.8877345" lon="17.7439562">
        <ele>11.6732</ele>
        <time>2013-03-10T13:01:58Z</time>
      </trkpt>
      <trkpt lat="59.8877429" lon="17.743976">
        <ele>11.6732</ele>
        <time>2013-03-10T13:01:59Z</time>
      </trkpt>
      <trkpt lat="59.8877513" lon="17.7439945">
        <ele>11.1925</ele>
        <time>2013-03-10T13:02:00Z</time>
      </trkpt>
      <trkpt lat="59.8877604" lon="17.7440117">
        <ele>11.1925</ele>
        <time>2013-03-10T13:02:01Z</time>
      </trkpt>
      <trkpt lat="59.8877694" lon="17.7440294">
        <ele>10.7118</ele>
        <time>2013-03-10T13:02:02Z</time>
      </trkpt>
      <trkpt lat="59.8877785" lon="17.7440474">
        <ele>10.7118</ele>
        <time>2013-03-10T13:02:03Z</time>
      </trkpt>
      <trkpt lat="59.8877881" lon="17.7440618">
        <ele>10.7118</ele>
        <time>2013-03-10T13:02:04Z</time>
      </trkpt>
      <trkpt lat="59.8877974" lon="17.744077">
        <ele>10.2312</ele>
        <time>2013-03-10T13:02:05Z</time>
      </trkpt>
      <trkpt lat="59.8878075" lon="17.7440949">
        <ele>10.2312</ele>
        <time>2013-03-10T13:02:06Z</time>
      </trkpt>
      <trkpt lat="59.8878174" lon="17.7441123">
        <ele>10.2312</ele>
        <time>2013-03-10T13:02:07Z</time>
      </trkpt>
      <trkpt lat="59.8878262" lon="17.7441303">
        <ele>10.2312</ele>
        <time>2013-03-10T13:02:08Z</time>
      </trkpt>
      <trkpt lat="59.8878357" lon="17.7441475">
        <ele>10.2312</ele>
        <time>2013-03-10T13:02:09Z</time>
      </trkpt>
      <trkpt lat="59.8878448" lon="17.7441635">
        <ele>10.2312</ele>
        <time>2013-03-10T13:02:10Z</time>
      </trkpt>
      <trkpt lat="59.8878539" lon="17.7441795">
        <ele>10.2312</ele>
        <time>2013-03-10T13:02:11Z</time>
      </trkpt>
      <trkpt lat="59.887864" lon="17.7441952">
        <ele>10.2312</ele>
        <time>2013-03-10T13:02:12Z</time>
      </trkpt>
      <trkpt lat="59.8878731" lon="17.7442106">
        <ele>10.2312</ele>
        <time>2013-03-10T13:02:13Z</time>
      </trkpt>
      <trkpt lat="59.887883" lon="17.7442261">
        <ele>10.2312</ele>
        <time>2013-03-10T13:02:14Z</time>
      </trkpt>
      <trkpt lat="59.8878943" lon="17.7442428">
        <ele>10.7118</ele>
        <time>2013-03-10T13:02:15Z</time>
      </trkpt>
      <trkpt lat="59.8879061" lon="17.744261">
        <ele>10.7118</ele>
        <time>2013-03-10T13:02:16Z</time>
      </trkpt>
      <trkpt lat="59.8879161" lon="17.7442786">
        <ele>10.7118</ele>
        <time>2013-03-10T13:02:17Z</time>
      </trkpt>
      <trkpt lat="59.887927" lon="17.7442959">
        <ele>10.7118</ele>
        <time>2013-03-10T13:02:18Z</time>
      </trkpt>
      <trkpt lat="59.8879378" lon="17.7443125">
        <ele>11.1925</ele>
        <time>2013-03-10T13:02:19Z</time>
      </trkpt>
      <trkpt lat="59.8879477" lon="17.7443301">
        <ele>11.1925</ele>
        <time>2013-03-10T13:02:20Z</time>
      </trkpt>
      <trkpt lat="59.8879571" lon="17.7443477">
        <ele>11.1925</ele>
        <time>2013-03-10T13:02:21Z</time>
      </trkpt>
      <trkpt lat="59.8879673" lon="17.7443645">
        <ele>10.7118</ele>
        <time>2013-03-10T13:02:22Z</time>
      </trkpt>
      <trkpt lat="59.8879778" lon="17.7443838">
        <ele>10.7118</ele>
        <time>2013-03-10T13:02:23Z</time>
      </trkpt>
      <trkpt lat="59.8879878" lon="17.7444029">
        <ele>10.7118</ele>
        <time>2013-03-10T13:02:24Z</time>
      </trkpt>
      <trkpt lat="59.8879984" lon="17.7444195">
        <ele>10.7118</ele>
        <time>2013-03-10T13:02:25Z</time>
      </trkpt>
      <trkpt lat="59.8880086" lon="17.7444375">
        <ele>10.7118</ele>
        <time>2013-03-10T13:02:26Z</time>
      </trkpt>
      <trkpt lat="59.8880174" lon="17.7444561">
        <ele>10.2312</ele>
        <time>2013-03-10T13:02:27Z</time>
      </trkpt>
      <trkpt lat="59.8880267" lon="17.7444733">
        <ele>10.2312</ele>
        <time>2013-03-10T13:02:28Z</time>
      </trkpt>
      <trkpt lat="59.8880352" lon="17.7444895">
        <ele>10.2312</ele>
        <time>2013-03-10T13:02:29Z</time>
      </trkpt>
      <trkpt lat="59.8880446" lon="17.744505">
        <ele>10.2312</ele>
        <time>2013-03-10T13:02:30Z</time>
      </trkpt>
      <trkpt lat="59.8880539" lon="17.7445204">
        <ele>10.2312</ele>
        <time>2013-03-10T13:02:31Z</time>
      </trkpt>
      <trkpt lat="59.8880634" lon="17.7445379">
        <ele>10.2312</ele>
        <time>2013-03-10T13:02:32Z</time>
      </trkpt>
      <trkpt lat="59.8880736" lon="17.7445552">
        <ele>10.2312</ele>
        <time>2013-03-10T13:02:33Z</time>
      </trkpt>
      <trkpt lat="59.8880844" lon="17.7445715">
        <ele>10.2312</ele>
        <time>2013-03-10T13:02:34Z</time>
      </trkpt>
      <trkpt lat="59.888095" lon="17.7445863">
        <ele>10.2312</ele>
        <time>2013-03-10T13:02:35Z</time>
      </trkpt>
      <trkpt lat="59.8881044" lon="17.7446021">
        <ele>10.2312</ele>
        <time>2013-03-10T13:02:36Z</time>
      </trkpt>
      <trkpt lat="59.8881127" lon="17.7446193">
        <ele>10.2312</ele>
        <time>2013-03-10T13:02:37Z</time>
      </trkpt>
      <trkpt lat="59.8881209" lon="17.7446361">
        <ele>10.2312</ele>
        <time>2013-03-10T13:02:38Z</time>
      </trkpt>
      <trkpt lat="59.8881299" lon="17.7446536">
        <ele>9.75061</ele>
        <time>2013-03-10T13:02:39Z</time>
      </trkpt>
      <trkpt lat="59.8881403" lon="17.7446711">
        <ele>10.2312</ele>
        <time>2013-03-10T13:02:40Z</time>
      </trkpt>
      <trkpt lat="59.8881515" lon="17.7446892">
        <ele>10.2312</ele>
        <time>2013-03-10T13:02:41Z</time>
      </trkpt>
      <trkpt lat="59.8881621" lon="17.7447078">
        <ele>10.2312</ele>
        <time>2013-03-10T13:02:42Z</time>
      </trkpt>
      <trkpt lat="59.8881718" lon="17.7447256">
        <ele>10.2312</ele>
        <time>2013-03-10T13:02:43Z</time>
      </trkpt>
      <trkpt lat="59.8881823" lon="17.744743">
        <ele>10.2312</ele>
        <time>2013-03-10T13:02:44Z</time>
      </trkpt>
      <trkpt lat="59.888193" lon="17.7447598">
        <ele>10.2312</ele>
        <time>2013-03-10T13:02:45Z</time>
      </trkpt>
      <trkpt lat="59.8882038" lon="17.744777">
        <ele>10.2312</ele>
        <time>2013-03-10T13:02:46Z</time>
      </trkpt>
      <trkpt lat="59.8882145" lon="17.744795">
        <ele>10.2312</ele>
        <time>2013-03-10T13:02:47Z</time>
      </trkpt>
      <trkpt lat="59.8882251" lon="17.7448135">
        <ele>10.2312</ele>
        <time>2013-03-10T13:02:48Z</time>
      </trkpt>
      <trkpt lat="59.8882355" lon="17.7448326">
        <ele>10.2312</ele>
        <time>2013-03-10T13:02:49Z</time>
      </trkpt>
      <trkpt lat="59.888246" lon="17.744851">
        <ele>9.75061</ele>
        <time>2013-03-10T13:02:50Z</time>
      </trkpt>
      <trkpt lat="59.8882565" lon="17.7448684">
        <ele>9.75061</ele>
        <time>2013-03-10T13:02:51Z</time>
      </trkpt>
      <trkpt lat="59.8882683" lon="17.7448845">
        <ele>9.75061</ele>
        <time>2013-03-10T13:02:52Z</time>
      </trkpt>
      <trkpt lat="59.8882792" lon="17.7449001">
        <ele>10.2312</ele>
        <time>2013-03-10T13:02:53Z</time>
      </trkpt>
      <trkpt lat="59.8882903" lon="17.7449162">
        <ele>10.2312</ele>
        <time>2013-03-10T13:02:54Z</time>
      </trkpt>
      <trkpt lat="59.8883004" lon="17.7449337">
        <ele>10.2312</ele>
        <time>2013-03-10T13:02:55Z</time>
      </trkpt>
      <trkpt lat="59.8883108" lon="17.7449509">
        <ele>10.2312</ele>
        <time>2013-03-10T13:02:56Z</time>
      </trkpt>
      <trkpt lat="59.8883216" lon="17.7449667">
        <ele>10.2312</ele>
        <time>2013-03-10T13:02:57Z</time>
      </trkpt>
      <trkpt lat="59.888332" lon="17.7449836">
        <ele>10.2312</ele>
        <time>2013-03-10T13:02:58Z</time>
      </trkpt>
      <trkpt lat="59.8883437" lon="17.7450001">
        <ele>10.7118</ele>
        <time>2013-03-10T13:02:59Z</time>
      </trkpt>
      <trkpt lat="59.8883556" lon="17.7450156">
        <ele>11.1925</ele>
        <time>2013-03-10T13:03:00Z</time>
      </trkpt>
      <trkpt lat="59.8883673" lon="17.7450321">
        <ele>11.1925</ele>
        <time>2013-03-10T13:03:01Z</time>
      </trkpt>
      <trkpt lat="59.8883779" lon="17.7450487">
        <ele>11.6732</ele>
        <time>2013-03-10T13:03:02Z</time>
      </trkpt>
      <trkpt lat="59.8883878" lon="17.7450664">
        <ele>11.6732</ele>
        <time>2013-03-10T13:03:03Z</time>
      </trkpt>
      <trkpt lat="59.8883966" lon="17.7450854">
        <ele>11.6732</ele>
        <time>2013-03-10T13:03:04Z</time>
      </trkpt>
      <trkpt lat="59.8884053" lon="17.7451031">
        <ele>11.6732</ele>
        <time>2013-03-10T13:03:05Z</time>
      </trkpt>
      <trkpt lat="59.8884143" lon="17.7451199">
        <ele>11.6732</ele>
        <time>2013-03-10T13:03:06Z</time>
      </trkpt>
      <trkpt lat="59.8884232" lon="17.7451377">
        <ele>12.1538</ele>
        <time>2013-03-10T13:03:07Z</time>
      </trkpt>
      <trkpt lat="59.8884319" lon="17.745156">
        <ele>12.1538</ele>
        <time>2013-03-10T13:03:08Z</time>
      </trkpt>
      <trkpt lat="59.8884408" lon="17.7451732">
        <ele>12.6344</ele>
        <time>2013-03-10T13:03:09Z</time>
      </trkpt>
      <trkpt lat="59.8884505" lon="17.7451895">
        <ele>12.6344</ele>
        <time>2013-03-10T13:03:10Z</time>
      </trkpt>
      <trkpt lat="59.8884613" lon="17.7452058">
        <ele>13.1151</ele>
        <time>2013-03-10T13:03:11Z</time>
      </trkpt>
      <trkpt lat="59.8884716" lon="17.7452224">
        <ele>13.1151</ele>
        <time>2013-03-10T13:03:12Z</time>
      </trkpt>
      <trkpt lat="59.8884818" lon="17.745239">
        <ele>13.1151</ele>
        <time>2013-03-10T13:03:13Z</time>
      </trkpt>
      <trkpt lat="59.888492" lon="17.7452563">
        <ele>13.5958</ele>
        <time>2013-03-10T13:03:14Z</time>
      </trkpt>
      <trkpt lat="59.8885022" lon="17.745274">
        <ele>13.5958</ele>
        <time>2013-03-10T13:03:15Z</time>
      </trkpt>
      <trkpt lat="59.8885124" lon="17.7452907">
        <ele>14.0764</ele>
        <time>2013-03-10T13:03:16Z</time>
      </trkpt>
      <trkpt lat="59.8885221" lon="17.7453068">
        <ele>14.0764</ele>
        <time>2013-03-10T13:03:17Z</time>
      </trkpt>
      <trkpt lat="59.8885324" lon="17.7453239">
        <ele>14.0764</ele>
        <time>2013-03-10T13:03:18Z</time>
      </trkpt>
      <trkpt lat="59.8885427" lon="17.7453415">
        <ele>14.0764</ele>
        <time>2013-03-10T13:03:19Z</time>
      </trkpt>
      <trkpt lat="59.8885527" lon="17.745359">
        <ele>14.0764</ele>
        <time>2013-03-10T13:03:20Z</time>
      </trkpt>
      <trkpt lat="59.8885625" lon="17.7453758">
        <ele>14.557</ele>
        <time>2013-03-10T13:03:21Z</time>
      </trkpt>
      <trkpt lat="59.8885729" lon="17.7453908">
        <ele>14.557</ele>
        <time>2013-03-10T13:03:22Z</time>
      </trkpt>
      <trkpt lat="59.888583" lon="17.7454063">
        <ele>14.557</ele>
        <time>2013-03-10T13:03:23Z</time>
      </trkpt>
      <trkpt lat="59.8885925" lon="17.7454227">
        <ele>14.557</ele>
        <time>2013-03-10T13:03:24Z</time>
      </trkpt>
      <trkpt lat="59.8886013" lon="17.7454383">
        <ele>15.0377</ele>
        <time>2013-03-10T13:03:25Z</time>
      </trkpt>
      <trkpt lat="59.8886108" lon="17.7454539">
        <ele>15.0377</ele>
        <time>2013-03-10T13:03:26Z</time>
      </trkpt>
      <trkpt lat="59.8886206" lon="17.745469">
        <ele>15.0377</ele>
        <time>2013-03-10T13:03:27Z</time>
      </trkpt>
      <trkpt lat="59.888631" lon="17.7454838">
        <ele>15.0377</ele>
        <time>2013-03-10T13:03:28Z</time>
      </trkpt>
      <trkpt lat="59.8886403" lon="17.7454984">
        <ele>15.0377</ele>
        <time>2013-03-10T13:03:29Z</time>
      </trkpt>
      <trkpt lat="59.888649" lon="17.7455136">
        <ele>15.0377</ele>
        <time>2013-03-10T13:03:30Z</time>
      </trkpt>
      <trkpt lat="59.8886578" lon="17.7455295">
        <ele>15.0377</ele>
        <time>2013-03-10T13:03:31Z</time>
      </trkpt>
      <trkpt lat="59.8886672" lon="17.745546">
        <ele>15.0377</ele>
        <time>2013-03-10T13:03:32Z</time>
      </trkpt>
      <trkpt lat="59.8886766" lon="17.7455628">
        <ele>15.0377</ele>
        <time>2013-03-10T13:03:33Z</time>
      </trkpt>
      <trkpt lat="59.8886863" lon="17.7455799">
        <ele>15.5184</ele>
        <time>2013-03-10T13:03:34Z</time>
      </trkpt>
      <trkpt lat="59.888696" lon="17.7455977">
        <ele>15.5184</ele>
        <time>2013-03-10T13:03:35Z</time>
      </trkpt>
      <trkpt lat="59.8887049" lon="17.7456143">
        <ele>15.5184</ele>
        <time>2013-03-10T13:03:36Z</time>
      </trkpt>
      <trkpt lat="59.8887149" lon="17.7456299">
        <ele>15.5184</ele>
        <time>2013-03-10T13:03:37Z</time>
      </trkpt>
      <trkpt lat="59.8887246" lon="17.7456475">
        <ele>15.5184</ele>
        <time>2013-03-10T13:03:38Z</time>
      </trkpt>
      <trkpt lat="59.888734" lon="17.7456643">
        <ele>15.5184</ele>
        <time>2013-03-10T13:03:39Z</time>
      </trkpt>
      <trkpt lat="59.8887439" lon="17.7456797">
        <ele>15.5184</ele>
        <time>2013-03-10T13:03:40Z</time>
      </trkpt>
      <trkpt lat="59.888755" lon="17.7456959">
        <ele>15.999</ele>
        <time>2013-03-10T13:03:41Z</time>
      </trkpt>
      <trkpt lat="59.888765" lon="17.7457129">
        <ele>15.999</ele>
        <time>2013-03-10T13:03:42Z</time>
      </trkpt>
      <trkpt lat="59.8887743" lon="17.7457294">
        <ele>15.999</ele>
        <time>2013-03-10T13:03:43Z</time>
      </trkpt>
      <trkpt lat="59.888784" lon="17.7457454">
        <ele>16.4797</ele>
        <time>2013-03-10T13:03:44Z</time>
      </trkpt>
      <trkpt lat="59.8887938" lon="17.7457611">
        <ele>16.4797</ele>
        <time>2013-03-10T13:03:45Z</time>
      </trkpt>
      <trkpt lat="59.8888021" lon="17.7457761">
        <ele>16.4797</ele>
        <time>2013-03-10T13:03:46Z</time>
      </trkpt>
      <trkpt lat="59.8888104" lon="17.7457885">
        <ele>16.4797</ele>
        <time>2013-03-10T13:03:47Z</time>
      </trkpt>
      <trkpt lat="59.888819" lon="17.7458007">
        <ele>16.4797</ele>
        <time>2013-03-10T13:03:48Z</time>
      </trkpt>
      <trkpt lat="59.8888276" lon="17.7458135">
        <ele>16.4797</ele>
        <time>2013-03-10T13:03:49Z</time>
      </trkpt>
      <trkpt lat="59.8888365" lon="17.7458283">
        <ele>16.4797</ele>
        <time>2013-03-10T13:03:50Z</time>
      </trkpt>
      <trkpt lat="59.8888453" lon="17.745845">
        <ele>16.4797</ele>
        <time>2013-03-10T13:03:51Z</time>
      </trkpt>
      <trkpt lat="59.8888541" lon="17.7458617">
        <ele>16.4797</ele>
        <time>2013-03-10T13:03:52Z</time>
      </trkpt>
      <trkpt lat="59.888863" lon="17.7458776">
        <ele>16.4797</ele>
        <time>2013-03-10T13:03:53Z</time>
      </trkpt>
      <trkpt lat="59.8888721" lon="17.7458932">
        <ele>16.4797</ele>
        <time>2013-03-10T13:03:54Z</time>
      </trkpt>
      <trkpt lat="59.888881" lon="17.7459071">
        <ele>16.4797</ele>
        <time>2013-03-10T13:03:55Z</time>
      </trkpt>
      <trkpt lat="59.8888894" lon="17.7459206">
        <ele>16.4797</ele>
        <time>2013-03-10T13:03:56Z</time>
      </trkpt>
      <trkpt lat="59.8888974" lon="17.7459351">
        <ele>16.4797</ele>
        <time>2013-03-10T13:03:57Z</time>
      </trkpt>
      <trkpt lat="59.888906" lon="17.7459501">
        <ele>16.4797</ele>
        <time>2013-03-10T13:03:58Z</time>
      </trkpt>
      <trkpt lat="59.8889147" lon="17.7459652">
        <ele>16.4797</ele>
        <time>2013-03-10T13:03:59Z</time>
      </trkpt>
      <trkpt lat="59.8889237" lon="17.7459801">
        <ele>16.4797</ele>
        <time>2013-03-10T13:04:00Z</time>
      </trkpt>
      <trkpt lat="59.8889327" lon="17.7459958">
        <ele>16.4797</ele>
        <time>2013-03-10T13:04:01Z</time>
      </trkpt>
      <trkpt lat="59.8889422" lon="17.7460133">
        <ele>16.4797</ele>
        <time>2013-03-10T13:04:02Z</time>
      </trkpt>
      <trkpt lat="59.8889505" lon="17.7460288">
        <ele>16.4797</ele>
        <time>2013-03-10T13:04:03Z</time>
      </trkpt>
      <trkpt lat="59.8889593" lon="17.746045">
        <ele>16.4797</ele>
        <time>2013-03-10T13:04:04Z</time>
      </trkpt>
      <trkpt lat="59.8889695" lon="17.746062">
        <ele>16.9604</ele>
        <time>2013-03-10T13:04:05Z</time>
      </trkpt>
      <trkpt lat="59.88898" lon="17.7460795">
        <ele>16.9604</ele>
        <time>2013-03-10T13:04:06Z</time>
      </trkpt>
      <trkpt lat="59.8889904" lon="17.7460976">
        <ele>16.9604</ele>
        <time>2013-03-10T13:04:07Z</time>
      </trkpt>
      <trkpt lat="59.8890002" lon="17.746115">
        <ele>16.9604</ele>
        <time>2013-03-10T13:04:08Z</time>
      </trkpt>
      <trkpt lat="59.8890101" lon="17.7461318">
        <ele>16.9604</ele>
        <time>2013-03-10T13:04:09Z</time>
      </trkpt>
      <trkpt lat="59.8890202" lon="17.746147">
        <ele>16.9604</ele>
        <time>2013-03-10T13:04:10Z</time>
      </trkpt>
      <trkpt lat="59.8890303" lon="17.7461641">
        <ele>16.9604</ele>
        <time>2013-03-10T13:04:11Z</time>
      </trkpt>
      <trkpt lat="59.889042" lon="17.7461832">
        <ele>16.9604</ele>
        <time>2013-03-10T13:04:12Z</time>
      </trkpt>
      <trkpt lat="59.8890546" lon="17.7461991">
        <ele>17.4412</ele>
        <time>2013-03-10T13:04:13Z</time>
      </trkpt>
      <trkpt lat="59.889065" lon="17.7462148">
        <ele>16.9604</ele>
        <time>2013-03-10T13:04:14Z</time>
      </trkpt>
      <trkpt lat="59.8890738" lon="17.7462328">
        <ele>16.9604</ele>
        <time>2013-03-10T13:04:15Z</time>
      </trkpt>
      <trkpt lat="59.889083" lon="17.7462486">
        <ele>17.4412</ele>
        <time>2013-03-10T13:04:16Z</time>
      </trkpt>
      <trkpt lat="59.8890922" lon="17.7462625">
        <ele>17.4412</ele>
        <time>2013-03-10T13:04:17Z</time>
      </trkpt>
      <trkpt lat="59.8891017" lon="17.7462761">
        <ele>17.4412</ele>
        <time>2013-03-10T13:04:18Z</time>
      </trkpt>
      <trkpt lat="59.8891114" lon="17.7462916">
        <ele>17.4412</ele>
        <time>2013-03-10T13:04:19Z</time>
      </trkpt>
      <trkpt lat="59.889121" lon="17.7463082">
        <ele>17.9218</ele>
        <time>2013-03-10T13:04:20Z</time>
      </trkpt>
      <trkpt lat="59.8891296" lon="17.7463266">
        <ele>17.9218</ele>
        <time>2013-03-10T13:04:21Z</time>
      </trkpt>
      <trkpt lat="59.8891385" lon="17.7463447">
        <ele>17.9218</ele>
        <time>2013-03-10T13:04:22Z</time>
      </trkpt>
      <trkpt lat="59.8891485" lon="17.7463612">
        <ele>17.9218</ele>
        <time>2013-03-10T13:04:23Z</time>
      </trkpt>
      <trkpt lat="59.8891591" lon="17.7463766">
        <ele>17.9218</ele>
        <time>2013-03-10T13:04:24Z</time>
      </trkpt>
      <trkpt lat="59.8891687" lon="17.7463925">
        <ele>17.9218</ele>
        <time>2013-03-10T13:04:25Z</time>
      </trkpt>
      <trkpt lat="59.8891774" lon="17.7464094">
        <ele>17.9218</ele>
        <time>2013-03-10T13:04:26Z</time>
      </trkpt>
      <trkpt lat="59.8891862" lon="17.7464246">
        <ele>17.9218</ele>
        <time>2013-03-10T13:04:27Z</time>
      </trkpt>
      <trkpt lat="59.8891949" lon="17.7464386">
        <ele>17.4412</ele>
        <time>2013-03-10T13:04:28Z</time>
      </trkpt>
      <trkpt lat="59.8892038" lon="17.7464524">
        <ele>17.4412</ele>
        <time>2013-03-10T13:04:29Z</time>
      </trkpt>
      <trkpt lat="59.8892132" lon="17.7464666">
        <ele>17.9218</ele>
        <time>2013-03-10T13:04:30Z</time>
      </trkpt>
      <trkpt lat="59.889223" lon="17.7464814">
        <ele>17.9218</ele>
        <time>2013-03-10T13:04:31Z</time>
      </trkpt>
      <trkpt lat="59.8892333" lon="17.7464977">
        <ele>18.4023</ele>
        <time>2013-03-10T13:04:32Z</time>
      </trkpt>
      <trkpt lat="59.8892445" lon="17.7465159">
        <ele>18.4023</ele>
        <time>2013-03-10T13:04:33Z</time>
      </trkpt>
      <trkpt lat="59.8892546" lon="17.746534">
        <ele>18.4023</ele>
        <time>2013-03-10T13:04:34Z</time>
      </trkpt>
      <trkpt lat="59.8892648" lon="17.7465526">
        <ele>18.4023</ele>
        <time>2013-03-10T13:04:35Z</time>
      </trkpt>
      <trkpt lat="59.8892737" lon="17.7465729">
        <ele>18.4023</ele>
        <time>2013-03-10T13:04:36Z</time>
      </trkpt>
      <trkpt lat="59.8892835" lon="17.7465919">
        <ele>18.4023</ele>
        <time>2013-03-10T13:04:37Z</time>
      </trkpt>
      <trkpt lat="59.8892939" lon="17.746609">
        <ele>18.4023</ele>
        <time>2013-03-10T13:04:38Z</time>
      </trkpt>
      <trkpt lat="59.8893034" lon="17.7466265">
        <ele>17.9218</ele>
        <time>2013-03-10T13:04:39Z</time>
      </trkpt>
      <trkpt lat="59.8893126" lon="17.7466437">
        <ele>17.9218</ele>
        <time>2013-03-10T13:04:40Z</time>
      </trkpt>
      <trkpt lat="59.8893223" lon="17.7466609">
        <ele>17.9218</ele>
        <time>2013-03-10T13:04:41Z</time>
      </trkpt>
      <trkpt lat="59.8893327" lon="17.7466794">
        <ele>17.9218</ele>
        <time>2013-03-10T13:04:42Z</time>
      </trkpt>
      <trkpt lat="59.8893426" lon="17.746698">
        <ele>17.9218</ele>
        <time>2013-03-10T13:04:43Z</time>
      </trkpt>
      <trkpt lat="59.8893523" lon="17.7467156">
        <ele>17.9218</ele>
        <time>2013-03-10T13:04:44Z</time>
      </trkpt>
      <trkpt lat="59.8893619" lon="17.7467329">
        <ele>17.4412</ele>
        <time>2013-03-10T13:04:45Z</time>
      </trkpt>
      <trkpt lat="59.8893719" lon="17.7467501">
        <ele>17.4412</ele>
        <time>2013-03-10T13:04:46Z</time>
      </trkpt>
      <trkpt lat="59.8893813" lon="17.7467675">
        <ele>17.4412</ele>
        <time>2013-03-10T13:04:47Z</time>
      </trkpt>
      <trkpt lat="59.8893907" lon="17.7467848">
        <ele>17.4412</ele>
        <time>2013-03-10T13:04:48Z</time>
      </trkpt>
      <trkpt lat="59.8894009" lon="17.7468026">
        <ele>17.4412</ele>
        <time>2013-03-10T13:04:49Z</time>
      </trkpt>
      <trkpt lat="59.8894113" lon="17.74682">
        <ele>17.4412</ele>
        <time>2013-03-10T13:04:50Z</time>
      </trkpt>
      <trkpt lat="59.8894218" lon="17.7468364">
        <ele>17.4412</ele>
        <time>2013-03-10T13:04:51Z</time>
      </trkpt>
      <trkpt lat="59.8894327" lon="17.7468516">
        <ele>17.4412</ele>
        <time>2013-03-10T13:04:52Z</time>
      </trkpt>
      <trkpt lat="59.8894424" lon="17.7468675">
        <ele>17.4412</ele>
        <time>2013-03-10T13:04:53Z</time>
      </trkpt>
      <trkpt lat="59.8894515" lon="17.746883">
        <ele>17.4412</ele>
        <time>2013-03-10T13:04:54Z</time>
      </trkpt>
      <trkpt lat="59.8894607" lon="17.7468979">
        <ele>16.9604</ele>
        <time>2013-03-10T13:04:55Z</time>
      </trkpt>
      <trkpt lat="59.8894714" lon="17.7469142">
        <ele>17.4412</ele>
        <time>2013-03-10T13:04:56Z</time>
      </trkpt>
      <trkpt lat="59.8894809" lon="17.7469329">
        <ele>16.9604</ele>
        <time>2013-03-10T13:04:57Z</time>
      </trkpt>
      <trkpt lat="59.8894877" lon="17.7469503">
        <ele>17.4412</ele>
        <time>2013-03-10T13:04:58Z</time>
      </trkpt>
      <trkpt lat="59.8894994" lon="17.7469706">
        <ele>16.9604</ele>
        <time>2013-03-10T13:04:59Z</time>
      </trkpt>
      <trkpt lat="59.8895141" lon="17.7469932">
        <ele>16.9604</ele>
        <time>2013-03-10T13:05:00Z</time>
      </trkpt>
      <trkpt lat="59.8895232" lon="17.7470116">
        <ele>17.4412</ele>
        <time>2013-03-10T13:05:01Z</time>
      </trkpt>
      <trkpt lat="59.8895295" lon="17.747025">
        <ele>17.4412</ele>
        <time>2013-03-10T13:05:02Z</time>
      </trkpt>
      <trkpt lat="59.8895358" lon="17.7470355">
        <ele>16.9604</ele>
        <time>2013-03-10T13:05:03Z</time>
      </trkpt>
      <trkpt lat="59.8895447" lon="17.74705">
        <ele>16.9604</ele>
        <time>2013-03-10T13:05:04Z</time>
      </trkpt>
      <trkpt lat="59.8895519" lon="17.7470658">
        <ele>16.9604</ele>
        <time>2013-03-10T13:05:05Z</time>
      </trkpt>
      <trkpt lat="59.8895581" lon="17.7470789">
        <ele>16.9604</ele>
        <time>2013-03-10T13:05:06Z</time>
      </trkpt>
      <trkpt lat="59.8895673" lon="17.7470933">
        <ele>16.9604</ele>
        <time>2013-03-10T13:05:07Z</time>
      </trkpt>
      <trkpt lat="59.8895799" lon="17.7471087">
        <ele>16.9604</ele>
        <time>2013-03-10T13:05:08Z</time>
      </trkpt>
      <trkpt lat="59.8895897" lon="17.7471224">
        <ele>16.9604</ele>
        <time>2013-03-10T13:05:09Z</time>
      </trkpt>
      <trkpt lat="59.889599" lon="17.7471379">
        <ele>16.4797</ele>
        <time>2013-03-10T13:05:10Z</time>
      </trkpt>
      <trkpt lat="59.8896088" lon="17.7471581">
        <ele>15.999</ele>
        <time>2013-03-10T13:05:11Z</time>
      </trkpt>
      <trkpt lat="59.8896171" lon="17.747172">
        <ele>15.999</ele>
        <time>2013-03-10T13:05:12Z</time>
      </trkpt>
      <trkpt lat="59.8896259" lon="17.747184">
        <ele>15.5184</ele>
        <time>2013-03-10T13:05:13Z</time>
      </trkpt>
      <trkpt lat="59.8896348" lon="17.7472016">
        <ele>15.5184</ele>
        <time>2013-03-10T13:05:14Z</time>
      </trkpt>
      <trkpt lat="59.8896439" lon="17.7472188">
        <ele>15.5184</ele>
        <time>2013-03-10T13:05:15Z</time>
      </trkpt>
      <trkpt lat="59.8896534" lon="17.7472358">
        <ele>15.5184</ele>
        <time>2013-03-10T13:05:16Z</time>
      </trkpt>
      <trkpt lat="59.8896629" lon="17.747252">
        <ele>15.5184</ele>
        <time>2013-03-10T13:05:17Z</time>
      </trkpt>
      <trkpt lat="59.8896727" lon="17.7472664">
        <ele>15.5184</ele>
        <time>2013-03-10T13:05:18Z</time>
      </trkpt>
      <trkpt lat="59.8896824" lon="17.7472809">
        <ele>15.5184</ele>
        <time>2013-03-10T13:05:19Z</time>
      </trkpt>
      <trkpt lat="59.8896907" lon="17.7472984">
        <ele>15.999</ele>
        <time>2013-03-10T13:05:20Z</time>
      </trkpt>
      <trkpt lat="59.889699" lon="17.7473151">
        <ele>15.999</ele>
        <time>2013-03-10T13:05:21Z</time>
      </trkpt>
      <trkpt lat="59.8897082" lon="17.7473312">
        <ele>15.999</ele>
        <time>2013-03-10T13:05:22Z</time>
      </trkpt>
      <trkpt lat="59.8897169" lon="17.7473476">
        <ele>15.999</ele>
        <time>2013-03-10T13:05:23Z</time>
      </trkpt>
      <trkpt lat="59.8897259" lon="17.7473625">
        <ele>15.999</ele>
        <time>2013-03-10T13:05:24Z</time>
      </trkpt>
      <trkpt lat="59.8897357" lon="17.7473778">
        <ele>15.999</ele>
        <time>2013-03-10T13:05:25Z</time>
      </trkpt>
      <trkpt lat="59.889745" lon="17.7473938">
        <ele>15.999</ele>
        <time>2013-03-10T13:05:26Z</time>
      </trkpt>
      <trkpt lat="59.8897538" lon="17.7474109">
        <ele>15.999</ele>
        <time>2013-03-10T13:05:27Z</time>
      </trkpt>
      <trkpt lat="59.8897628" lon="17.7474279">
        <ele>16.4797</ele>
        <time>2013-03-10T13:05:28Z</time>
      </trkpt>
      <trkpt lat="59.889772" lon="17.7474445">
        <ele>16.4797</ele>
        <time>2013-03-10T13:05:29Z</time>
      </trkpt>
      <trkpt lat="59.8897814" lon="17.74746">
        <ele>16.4797</ele>
        <time>2013-03-10T13:05:30Z</time>
      </trkpt>
      <trkpt lat="59.8897921" lon="17.74747">
        <ele>16.4797</ele>
        <time>2013-03-10T13:05:31Z</time>
      </trkpt>
      <trkpt lat="59.8898021" lon="17.7474803">
        <ele>16.4797</ele>
        <time>2013-03-10T13:05:32Z</time>
      </trkpt>
      <trkpt lat="59.889813" lon="17.747496">
        <ele>16.4797</ele>
        <time>2013-03-10T13:05:33Z</time>
      </trkpt>
      <trkpt lat="59.8898244" lon="17.7475125">
        <ele>16.4797</ele>
        <time>2013-03-10T13:05:34Z</time>
      </trkpt>
      <trkpt lat="59.8898363" lon="17.747529">
        <ele>16.4797</ele>
        <time>2013-03-10T13:05:35Z</time>
      </trkpt>
      <trkpt lat="59.889848" lon="17.7475459">
        <ele>16.4797</ele>
        <time>2013-03-10T13:05:36Z</time>
      </trkpt>
      <trkpt lat="59.8898585" lon="17.7475622">
        <ele>16.4797</ele>
        <time>2013-03-10T13:05:37Z</time>
      </trkpt>
      <trkpt lat="59.8898684" lon="17.7475792">
        <ele>16.4797</ele>
        <time>2013-03-10T13:05:38Z</time>
      </trkpt>
      <trkpt lat="59.8898794" lon="17.7475959">
        <ele>16.4797</ele>
        <time>2013-03-10T13:05:39Z</time>
      </trkpt>
      <trkpt lat="59.8898902" lon="17.7476114">
        <ele>16.4797</ele>
        <time>2013-03-10T13:05:40Z</time>
      </trkpt>
      <trkpt lat="59.8899005" lon="17.7476264">
        <ele>16.9604</ele>
        <time>2013-03-10T13:05:41Z</time>
      </trkpt>
      <trkpt lat="59.8899114" lon="17.747642">
        <ele>16.9604</ele>
        <time>2013-03-10T13:05:42Z</time>
      </trkpt>
      <trkpt lat="59.8899217" lon="17.7476578">
        <ele>16.9604</ele>
        <time>2013-03-10T13:05:43Z</time>
      </trkpt>
      <trkpt lat="59.8899324" lon="17.7476721">
        <ele>17.4412</ele>
        <time>2013-03-10T13:05:44Z</time>
      </trkpt>
      <trkpt lat="59.889941" lon="17.7476879">
        <ele>17.4412</ele>
        <time>2013-03-10T13:05:45Z</time>
      </trkpt>
      <trkpt lat="59.8899509" lon="17.7477052">
        <ele>17.9218</ele>
        <time>2013-03-10T13:05:46Z</time>
      </trkpt>
      <trkpt lat="59.8899606" lon="17.7477233">
        <ele>17.9218</ele>
        <time>2013-03-10T13:05:47Z</time>
      </trkpt>
      <trkpt lat="59.8899704" lon="17.7477404">
        <ele>17.9218</ele>
        <time>2013-03-10T13:05:48Z</time>
      </trkpt>
      <trkpt lat="59.8899806" lon="17.7477571">
        <ele>17.9218</ele>
        <time>2013-03-10T13:05:49Z</time>
      </trkpt>
      <trkpt lat="59.8899922" lon="17.747773">
        <ele>17.9218</ele>
        <time>2013-03-10T13:05:50Z</time>
      </trkpt>
      <trkpt lat="59.8900031" lon="17.7477902">
        <ele>18.4023</ele>
        <time>2013-03-10T13:05:51Z</time>
      </trkpt>
      <trkpt lat="59.8900129" lon="17.747808">
        <ele>18.4023</ele>
        <time>2013-03-10T13:05:52Z</time>
      </trkpt>
      <trkpt lat="59.8900237" lon="17.7478248">
        <ele>18.4023</ele>
        <time>2013-03-10T13:05:53Z</time>
      </trkpt>
      <trkpt lat="59.8900336" lon="17.7478423">
        <ele>18.8831</ele>
        <time>2013-03-10T13:05:54Z</time>
      </trkpt>
      <trkpt lat="59.8900435" lon="17.7478581">
        <ele>18.8831</ele>
        <time>2013-03-10T13:05:55Z</time>
      </trkpt>
      <trkpt lat="59.8900529" lon="17.747874">
        <ele>18.8831</ele>
        <time>2013-03-10T13:05:56Z</time>
      </trkpt>
      <trkpt lat="59.8900627" lon="17.7478897">
        <ele>19.3638</ele>
        <time>2013-03-10T13:05:57Z</time>
      </trkpt>
      <trkpt lat="59.8900713" lon="17.7479041">
        <ele>19.3638</ele>
        <time>2013-03-10T13:05:58Z</time>
      </trkpt>
      <trkpt lat="59.8900803" lon="17.7479191">
        <ele>19.3638</ele>
        <time>2013-03-10T13:05:59Z</time>
      </trkpt>
      <trkpt lat="59.8900896" lon="17.7479347">
        <ele>19.3638</ele>
        <time>2013-03-10T13:06:00Z</time>
      </trkpt>
      <trkpt lat="59.8900984" lon="17.7479508">
        <ele>19.3638</ele>
        <time>2013-03-10T13:06:01Z</time>
      </trkpt>
      <trkpt lat="59.8901085" lon="17.7479668">
        <ele>19.3638</ele>
        <time>2013-03-10T13:06:02Z</time>
      </trkpt>
      <trkpt lat="59.8901187" lon="17.7479829">
        <ele>19.8444</ele>
        <time>2013-03-10T13:06:03Z</time>
      </trkpt>
      <trkpt lat="59.890129" lon="17.7479994">
        <ele>19.8444</ele>
        <time>2013-03-10T13:06:04Z</time>
      </trkpt>
      <trkpt lat="59.8901391" lon="17.7480154">
        <ele>19.8444</ele>
        <time>2013-03-10T13:06:05Z</time>
      </trkpt>
      <trkpt lat="59.8901502" lon="17.748032">
        <ele>19.8444</ele>
        <time>2013-03-10T13:06:06Z</time>
      </trkpt>
      <trkpt lat="59.8901619" lon="17.7480486">
        <ele>20.325</ele>
        <time>2013-03-10T13:06:07Z</time>
      </trkpt>
      <trkpt lat="59.8901734" lon="17.748065">
        <ele>20.325</ele>
        <time>2013-03-10T13:06:08Z</time>
      </trkpt>
      <trkpt lat="59.8901854" lon="17.7480823">
        <ele>20.8057</ele>
        <time>2013-03-10T13:06:09Z</time>
      </trkpt>
      <trkpt lat="59.8901979" lon="17.7480998">
        <ele>20.8057</ele>
        <time>2013-03-10T13:06:10Z</time>
      </trkpt>
      <trkpt lat="59.8902102" lon="17.7481159">
        <ele>20.8057</ele>
        <time>2013-03-10T13:06:11Z</time>
      </trkpt>
      <trkpt lat="59.8902195" lon="17.7481299">
        <ele>20.8057</ele>
        <time>2013-03-10T13:06:12Z</time>
      </trkpt>
      <trkpt lat="59.8902268" lon="17.7481417">
        <ele>20.8057</ele>
        <time>2013-03-10T13:06:13Z</time>
      </trkpt>
      <trkpt lat="59.8902351" lon="17.7481512">
        <ele>20.8057</ele>
        <time>2013-03-10T13:06:14Z</time>
      </trkpt>
      <trkpt lat="59.8902458" lon="17.7481611">
        <ele>20.8057</ele>
        <time>2013-03-10T13:06:15Z</time>
      </trkpt>
      <trkpt lat="59.8902558" lon="17.7481719">
        <ele>20.325</ele>
        <time>2013-03-10T13:06:16Z</time>
      </trkpt>
      <trkpt lat="59.8902657" lon="17.7481846">
        <ele>20.325</ele>
        <time>2013-03-10T13:06:17Z</time>
      </trkpt>
      <trkpt lat="59.8902788" lon="17.7481957">
        <ele>20.325</ele>
        <time>2013-03-10T13:06:18Z</time>
      </trkpt>
      <trkpt lat="59.8902917" lon="17.7482057">
        <ele>19.8444</ele>
        <time>2013-03-10T13:06:19Z</time>
      </trkpt>
      <trkpt lat="59.8903035" lon="17.748219">
        <ele>19.8444</ele>
        <time>2013-03-10T13:06:20Z</time>
      </trkpt>
      <trkpt lat="59.8903148" lon="17.7482328">
        <ele>20.325</ele>
        <time>2013-03-10T13:06:21Z</time>
      </trkpt>
      <trkpt lat="59.8903246" lon="17.7482443">
        <ele>20.325</ele>
        <time>2013-03-10T13:06:22Z</time>
      </trkpt>
      <trkpt lat="59.8903347" lon="17.7482535">
        <ele>20.325</ele>
        <time>2013-03-10T13:06:23Z</time>
      </trkpt>
      <trkpt lat="59.890346" lon="17.7482635">
        <ele>20.325</ele>
        <time>2013-03-10T13:06:24Z</time>
      </trkpt>
      <trkpt lat="59.8903582" lon="17.7482742">
        <ele>20.325</ele>
        <time>2013-03-10T13:06:25Z</time>
      </trkpt>
      <trkpt lat="59.8903689" lon="17.7482878">
        <ele>20.325</ele>
        <time>2013-03-10T13:06:26Z</time>
      </trkpt>
      <trkpt lat="59.8903785" lon="17.7483019">
        <ele>20.325</ele>
        <time>2013-03-10T13:06:27Z</time>
      </trkpt>
      <trkpt lat="59.8903888" lon="17.7483154">
        <ele>20.8057</ele>
        <time>2013-03-10T13:06:28Z</time>
      </trkpt>
      <trkpt lat="59.890399" lon="17.7483305">
        <ele>20.8057</ele>
        <time>2013-03-10T13:06:29Z</time>
      </trkpt>
      <trkpt lat="59.8904105" lon="17.748348">
        <ele>20.8057</ele>
        <time>2013-03-10T13:06:30Z</time>
      </trkpt>
      <trkpt lat="59.8904214" lon="17.7483646">
        <ele>20.8057</ele>
        <time>2013-03-10T13:06:31Z</time>
      </trkpt>
      <trkpt lat="59.8904319" lon="17.7483795">
        <ele>20.8057</ele>
        <time>2013-03-10T13:06:32Z</time>
      </trkpt>
      <trkpt lat="59.8904432" lon="17.748394">
        <ele>20.8057</ele>
        <time>2013-03-10T13:06:33Z</time>
      </trkpt>
      <trkpt lat="59.8904532" lon="17.7484082">
        <ele>21.2864</ele>
        <time>2013-03-10T13:06:34Z</time>
      </trkpt>
      <trkpt lat="59.8904629" lon="17.7484212">
        <ele>21.2864</ele>
        <time>2013-03-10T13:06:35Z</time>
      </trkpt>
      <trkpt lat="59.8904737" lon="17.7484343">
        <ele>20.8057</ele>
        <time>2013-03-10T13:06:36Z</time>
      </trkpt>
      <trkpt lat="59.8904843" lon="17.7484449">
        <ele>20.8057</ele>
        <time>2013-03-10T13:06:37Z</time>
      </trkpt>
      <trkpt lat="59.8904946" lon="17.7484532">
        <ele>20.8057</ele>
        <time>2013-03-10T13:06:38Z</time>
      </trkpt>
      <trkpt lat="59.890506" lon="17.7484583">
        <ele>21.2864</ele>
        <time>2013-03-10T13:06:39Z</time>
      </trkpt>
      <trkpt lat="59.8905181" lon="17.7484614">
        <ele>20.8057</ele>
        <time>2013-03-10T13:06:40Z</time>
      </trkpt>
      <trkpt lat="59.8905293" lon="17.7484624">
        <ele>20.8057</ele>
        <time>2013-03-10T13:06:41Z</time>
      </trkpt>
      <trkpt lat="59.8905399" lon="17.7484613">
        <ele>20.325</ele>
        <time>2013-03-10T13:06:42Z</time>
      </trkpt>
      <trkpt lat="59.8905511" lon="17.7484594">
        <ele>20.8057</ele>
        <time>2013-03-10T13:06:43Z</time>
      </trkpt>
      <trkpt lat="59.8905631" lon="17.7484516">
        <ele>20.325</ele>
        <time>2013-03-10T13:06:44Z</time>
      </trkpt>
      <trkpt lat="59.8905758" lon="17.7484437">
        <ele>20.325</ele>
        <time>2013-03-10T13:06:45Z</time>
      </trkpt>
      <trkpt lat="59.8905872" lon="17.7484414">
        <ele>20.325</ele>
        <time>2013-03-10T13:06:46Z</time>
      </trkpt>
      <trkpt lat="59.8906003" lon="17.7484427">
        <ele>20.325</ele>
        <time>2013-03-10T13:06:47Z</time>
      </trkpt>
      <trkpt lat="59.8906128" lon="17.7484442">
        <ele>19.8444</ele>
        <time>2013-03-10T13:06:48Z</time>
      </trkpt>
      <trkpt lat="59.8906235" lon="17.7484376">
        <ele>19.8444</ele>
        <time>2013-03-10T13:06:49Z</time>
      </trkpt>
      <trkpt lat="59.890634" lon="17.7484287">
        <ele>19.8444</ele>
        <time>2013-03-10T13:06:50Z</time>
      </trkpt>
      <trkpt lat="59.8906437" lon="17.748417">
        <ele>19.3638</ele>
        <time>2013-03-10T13:06:51Z</time>
      </trkpt>
      <trkpt lat="59.890653" lon="17.7484012">
        <ele>19.8444</ele>
        <time>2013-03-10T13:06:52Z</time>
      </trkpt>
      <trkpt lat="59.8906641" lon="17.7483936">
        <ele>19.8444</ele>
        <time>2013-03-10T13:06:53Z</time>
      </trkpt>
      <trkpt lat="59.8906742" lon="17.7483868">
        <ele>19.3638</ele>
        <time>2013-03-10T13:06:54Z</time>
      </trkpt>
      <trkpt lat="59.8906832" lon="17.7483766">
        <ele>19.3638</ele>
        <time>2013-03-10T13:06:55Z</time>
      </trkpt>
      <trkpt lat="59.8906914" lon="17.7483656">
        <ele>19.3638</ele>
        <time>2013-03-10T13:06:56Z</time>
      </trkpt>
      <trkpt lat="59.8906988" lon="17.748354">
        <ele>19.3638</ele>
        <time>2013-03-10T13:06:57Z</time>
      </trkpt>
      <trkpt lat="59.8907063" lon="17.7483401">
        <ele>19.3638</ele>
        <time>2013-03-10T13:06:58Z</time>
      </trkpt>
      <trkpt lat="59.8907148" lon="17.748325">
        <ele>19.3638</ele>
        <time>2013-03-10T13:06:59Z</time>
      </trkpt>
      <trkpt lat="59.8907242" lon="17.7483098">
        <ele>19.3638</ele>
        <time>2013-03-10T13:07:00Z</time>
      </trkpt>
      <trkpt lat="59.8907345" lon="17.7482953">
        <ele>19.3638</ele>
        <time>2013-03-10T13:07:01Z</time>
      </trkpt>
      <trkpt lat="59.8907452" lon="17.7482821">
        <ele>19.3638</ele>
        <time>2013-03-10T13:07:02Z</time>
      </trkpt>
      <trkpt lat="59.8907555" lon="17.7482692">
        <ele>18.8831</ele>
        <time>2013-03-10T13:07:03Z</time>
      </trkpt>
      <trkpt lat="59.8907661" lon="17.7482562">
        <ele>18.8831</ele>
        <time>2013-03-10T13:07:04Z</time>
      </trkpt>
      <trkpt lat="59.8907737" lon="17.7482439">
        <ele>18.8831</ele>
        <time>2013-03-10T13:07:05Z</time>
      </trkpt>
      <trkpt lat="59.8907811" lon="17.7482295">
        <ele>18.8831</ele>
        <time>2013-03-10T13:07:06Z</time>
      </trkpt>
      <trkpt lat="59.8907902" lon="17.7482157">
        <ele>18.4023</ele>
        <time>2013-03-10T13:07:07Z</time>
      </trkpt>
      <trkpt lat="59.8907985" lon="17.7482012">
        <ele>18.4023</ele>
        <time>2013-03-10T13:07:08Z</time>
      </trkpt>
      <trkpt lat="59.8908094" lon="17.7481859">
        <ele>18.4023</ele>
        <time>2013-03-10T13:07:09Z</time>
      </trkpt>
      <trkpt lat="59.89082" lon="17.7481749">
        <ele>18.4023</ele>
        <time>2013-03-10T13:07:10Z</time>
      </trkpt>
      <trkpt lat="59.8908287" lon="17.7481641">
        <ele>18.4023</ele>
        <time>2013-03-10T13:07:11Z</time>
      </trkpt>
      <trkpt lat="59.8908376" lon="17.748153">
        <ele>18.4023</ele>
        <time>2013-03-10T13:07:12Z</time>
      </trkpt>
      <trkpt lat="59.8908467" lon="17.7481443">
        <ele>18.4023</ele>
        <time>2013-03-10T13:07:13Z</time>
      </trkpt>
      <trkpt lat="59.8908555" lon="17.7481368">
        <ele>18.4023</ele>
        <time>2013-03-10T13:07:14Z</time>
      </trkpt>
      <trkpt lat="59.8908643" lon="17.7481289">
        <ele>18.4023</ele>
        <time>2013-03-10T13:07:15Z</time>
      </trkpt>
      <trkpt lat="59.8908723" lon="17.7481186">
        <ele>18.4023</ele>
        <time>2013-03-10T13:07:16Z</time>
      </trkpt>
      <trkpt lat="59.8908806" lon="17.7481075">
        <ele>18.4023</ele>
        <time>2013-03-10T13:07:17Z</time>
      </trkpt>
      <trkpt lat="59.8908892" lon="17.7480964">
        <ele>18.4023</ele>
        <time>2013-03-10T13:07:18Z</time>
      </trkpt>
      <trkpt lat="59.8908971" lon="17.7480837">
        <ele>17.9218</ele>
        <time>2013-03-10T13:07:19Z</time>
      </trkpt>
      <trkpt lat="59.890905" lon="17.7480697">
        <ele>17.9218</ele>
        <time>2013-03-10T13:07:20Z</time>
      </trkpt>
      <trkpt lat="59.8909141" lon="17.7480558">
        <ele>17.9218</ele>
        <time>2013-03-10T13:07:21Z</time>
      </trkpt>
      <trkpt lat="59.8909226" lon="17.7480429">
        <ele>17.4412</ele>
        <time>2013-03-10T13:07:22Z</time>
      </trkpt>
      <trkpt lat="59.8909319" lon="17.7480326">
        <ele>17.4412</ele>
        <time>2013-03-10T13:07:23Z</time>
      </trkpt>
      <trkpt lat="59.8909422" lon="17.7480217">
        <ele>17.4412</ele>
        <time>2013-03-10T13:07:24Z</time>
      </trkpt>
      <trkpt lat="59.8909519" lon="17.7480108">
        <ele>17.4412</ele>
        <time>2013-03-10T13:07:25Z</time>
      </trkpt>
      <trkpt lat="59.890961" lon="17.7479999">
        <ele>17.4412</ele>
        <time>2013-03-10T13:07:26Z</time>
      </trkpt>
      <trkpt lat="59.8909708" lon="17.7479876">
        <ele>16.9604</ele>
        <time>2013-03-10T13:07:27Z</time>
      </trkpt>
      <trkpt lat="59.890981" lon="17.7479734">
        <ele>16.9604</ele>
        <time>2013-03-10T13:07:28Z</time>
      </trkpt>
      <trkpt lat="59.8909935" lon="17.7479588">
        <ele>17.4412</ele>
        <time>2013-03-10T13:07:29Z</time>
      </trkpt>
      <trkpt lat="59.891005" lon="17.7479448">
        <ele>17.4412</ele>
        <time>2013-03-10T13:07:30Z</time>
      </trkpt>
      <trkpt lat="59.8910132" lon="17.7479287">
        <ele>16.9604</ele>
        <time>2013-03-10T13:07:31Z</time>
      </trkpt>
      <trkpt lat="59.8910228" lon="17.7479127">
        <ele>16.9604</ele>
        <time>2013-03-10T13:07:32Z</time>
      </trkpt>
      <trkpt lat="59.8910329" lon="17.7478935">
        <ele>16.9604</ele>
        <time>2013-03-10T13:07:33Z</time>
      </trkpt>
      <trkpt lat="59.8910422" lon="17.7478724">
        <ele>16.9604</ele>
        <time>2013-03-10T13:07:34Z</time>
      </trkpt>
      <trkpt lat="59.8910531" lon="17.7478559">
        <ele>16.9604</ele>
        <time>2013-03-10T13:07:35Z</time>
      </trkpt>
      <trkpt lat="59.8910634" lon="17.7478412">
        <ele>16.9604</ele>
        <time>2013-03-10T13:07:36Z</time>
      </trkpt>
      <trkpt lat="59.8910736" lon="17.7478267">
        <ele>16.9604</ele>
        <time>2013-03-10T13:07:37Z</time>
      </trkpt>
      <trkpt lat="59.8910843" lon="17.7478125">
        <ele>16.9604</ele>
        <time>2013-03-10T13:07:38Z</time>
      </trkpt>
      <trkpt lat="59.891095" lon="17.7477973">
        <ele>16.9604</ele>
        <time>2013-03-10T13:07:39Z</time>
      </trkpt>
      <trkpt lat="59.8911055" lon="17.7477827">
        <ele>16.9604</ele>
        <time>2013-03-10T13:07:40Z</time>
      </trkpt>
      <trkpt lat="59.8911152" lon="17.7477678">
        <ele>16.9604</ele>
        <time>2013-03-10T13:07:41Z</time>
      </trkpt>
      <trkpt lat="59.8911252" lon="17.7477528">
        <ele>16.9604</ele>
        <time>2013-03-10T13:07:42Z</time>
      </trkpt>
      <trkpt lat="59.8911364" lon="17.7477383">
        <ele>16.9604</ele>
        <time>2013-03-10T13:07:43Z</time>
      </trkpt>
      <trkpt lat="59.8911473" lon="17.7477248">
        <ele>16.9604</ele>
        <time>2013-03-10T13:07:44Z</time>
      </trkpt>
      <trkpt lat="59.8911584" lon="17.7477129">
        <ele>16.9604</ele>
        <time>2013-03-10T13:07:45Z</time>
      </trkpt>
      <trkpt lat="59.8911701" lon="17.7477003">
        <ele>16.9604</ele>
        <time>2013-03-10T13:07:46Z</time>
      </trkpt>
      <trkpt lat="59.891181" lon="17.747687">
        <ele>16.9604</ele>
        <time>2013-03-10T13:07:47Z</time>
      </trkpt>
      <trkpt lat="59.8911919" lon="17.7476735">
        <ele>16.9604</ele>
        <time>2013-03-10T13:07:48Z</time>
      </trkpt>
      <trkpt lat="59.8912031" lon="17.7476588">
        <ele>16.9604</ele>
        <time>2013-03-10T13:07:49Z</time>
      </trkpt>
      <trkpt lat="59.8912147" lon="17.7476446">
        <ele>16.9604</ele>
        <time>2013-03-10T13:07:50Z</time>
      </trkpt>
      <trkpt lat="59.8912262" lon="17.7476309">
        <ele>16.9604</ele>
        <time>2013-03-10T13:07:51Z</time>
      </trkpt>
      <trkpt lat="59.891238" lon="17.7476167">
        <ele>16.9604</ele>
        <time>2013-03-10T13:07:52Z</time>
      </trkpt>
      <trkpt lat="59.8912495" lon="17.747602">
        <ele>16.9604</ele>
        <time>2013-03-10T13:07:53Z</time>
      </trkpt>
      <trkpt lat="59.8912613" lon="17.7475876">
        <ele>17.4412</ele>
        <time>2013-03-10T13:07:54Z</time>
      </trkpt>
      <trkpt lat="59.8912728" lon="17.7475734">
        <ele>17.4412</ele>
        <time>2013-03-10T13:07:55Z</time>
      </trkpt>
      <trkpt lat="59.8912841" lon="17.7475589">
        <ele>17.4412</ele>
        <time>2013-03-10T13:07:56Z</time>
      </trkpt>
      <trkpt lat="59.8912951" lon="17.747544">
        <ele>16.9604</ele>
        <time>2013-03-10T13:07:57Z</time>
      </trkpt>
      <trkpt lat="59.8913064" lon="17.7475276">
        <ele>17.4412</ele>
        <time>2013-03-10T13:07:58Z</time>
      </trkpt>
      <trkpt lat="59.8913178" lon="17.7475135">
        <ele>16.9604</ele>
        <time>2013-03-10T13:07:59Z</time>
      </trkpt>
      <trkpt lat="59.89133" lon="17.7475008">
        <ele>17.4412</ele>
        <time>2013-03-10T13:08:00Z</time>
      </trkpt>
      <trkpt lat="59.8913406" lon="17.7474897">
        <ele>17.4412</ele>
        <time>2013-03-10T13:08:01Z</time>
      </trkpt>
      <trkpt lat="59.8913519" lon="17.7474741">
        <ele>16.9604</ele>
        <time>2013-03-10T13:08:02Z</time>
      </trkpt>
      <trkpt lat="59.8913608" lon="17.7474501">
        <ele>17.4412</ele>
        <time>2013-03-10T13:08:03Z</time>
      </trkpt>
      <trkpt lat="59.8913691" lon="17.747431">
        <ele>17.4412</ele>
        <time>2013-03-10T13:08:04Z</time>
      </trkpt>
      <trkpt lat="59.8913805" lon="17.7474157">
        <ele>17.4412</ele>
        <time>2013-03-10T13:08:05Z</time>
      </trkpt>
      <trkpt lat="59.8913919" lon="17.7473998">
        <ele>17.4412</ele>
        <time>2013-03-10T13:08:06Z</time>
      </trkpt>
      <trkpt lat="59.8914036" lon="17.747384">
        <ele>17.4412</ele>
        <time>2013-03-10T13:08:07Z</time>
      </trkpt>
      <trkpt lat="59.8914147" lon="17.7473686">
        <ele>17.4412</ele>
        <time>2013-03-10T13:08:08Z</time>
      </trkpt>
      <trkpt lat="59.8914259" lon="17.7473532">
        <ele>17.4412</ele>
        <time>2013-03-10T13:08:09Z</time>
      </trkpt>
      <trkpt lat="59.8914365" lon="17.7473384">
        <ele>17.4412</ele>
        <time>2013-03-10T13:08:10Z</time>
      </trkpt>
      <trkpt lat="59.8914479" lon="17.7473239">
        <ele>17.4412</ele>
        <time>2013-03-10T13:08:11Z</time>
      </trkpt>
      <trkpt lat="59.8914596" lon="17.7473087">
        <ele>17.4412</ele>
        <time>2013-03-10T13:08:12Z</time>
      </trkpt>
      <trkpt lat="59.8914706" lon="17.7472913">
        <ele>17.4412</ele>
        <time>2013-03-10T13:08:13Z</time>
      </trkpt>
      <trkpt lat="59.8914823" lon="17.7472745">
        <ele>17.4412</ele>
        <time>2013-03-10T13:08:14Z</time>
      </trkpt>
      <trkpt lat="59.891494" lon="17.7472586">
        <ele>17.4412</ele>
        <time>2013-03-10T13:08:15Z</time>
      </trkpt>
      <trkpt lat="59.8915049" lon="17.7472436">
        <ele>17.4412</ele>
        <time>2013-03-10T13:08:16Z</time>
      </trkpt>
      <trkpt lat="59.8915161" lon="17.7472279">
        <ele>17.9218</ele>
        <time>2013-03-10T13:08:17Z</time>
      </trkpt>
      <trkpt lat="59.8915274" lon="17.7472121">
        <ele>17.9218</ele>
        <time>2013-03-10T13:08:18Z</time>
      </trkpt>
      <trkpt lat="59.8915381" lon="17.7471965">
        <ele>17.9218</ele>
        <time>2013-03-10T13:08:19Z</time>
      </trkpt>
      <trkpt lat="59.8915487" lon="17.747181">
        <ele>17.9218</ele>
        <time>2013-03-10T13:08:20Z</time>
      </trkpt>
      <trkpt lat="59.8915595" lon="17.7471652">
        <ele>17.9218</ele>
        <time>2013-03-10T13:08:21Z</time>
      </trkpt>
      <trkpt lat="59.8915701" lon="17.7471479">
        <ele>17.9218</ele>
        <time>2013-03-10T13:08:22Z</time>
      </trkpt>
      <trkpt lat="59.8915807" lon="17.7471315">
        <ele>18.4023</ele>
        <time>2013-03-10T13:08:23Z</time>
      </trkpt>
      <trkpt lat="59.8915914" lon="17.7471167">
        <ele>18.4023</ele>
        <time>2013-03-10T13:08:24Z</time>
      </trkpt>
      <trkpt lat="59.8916025" lon="17.7471028">
        <ele>18.4023</ele>
        <time>2013-03-10T13:08:25Z</time>
      </trkpt>
      <trkpt lat="59.8916136" lon="17.7470882">
        <ele>18.4023</ele>
        <time>2013-03-10T13:08:26Z</time>
      </trkpt>
      <trkpt lat="59.891625" lon="17.7470723">
        <ele>18.4023</ele>
        <time>2013-03-10T13:08:27Z</time>
      </trkpt>
      <trkpt lat="59.8916363" lon="17.7470554">
        <ele>18.4023</ele>
        <time>2013-03-10T13:08:28Z</time>
      </trkpt>
      <trkpt lat="59.8916476" lon="17.747039">
        <ele>18.4023</ele>
        <time>2013-03-10T13:08:29Z</time>
      </trkpt>
      <trkpt lat="59.8916591" lon="17.747024">
        <ele>18.4023</ele>
        <time>2013-03-10T13:08:30Z</time>
      </trkpt>
      <trkpt lat="59.8916707" lon="17.7470089">
        <ele>18.4023</ele>
        <time>2013-03-10T13:08:31Z</time>
      </trkpt>
      <trkpt lat="59.891682" lon="17.7469934">
        <ele>18.4023</ele>
        <time>2013-03-10T13:08:32Z</time>
      </trkpt>
      <trkpt lat="59.8916933" lon="17.7469784">
        <ele>18.4023</ele>
        <time>2013-03-10T13:08:33Z</time>
      </trkpt>
      <trkpt lat="59.8917051" lon="17.746964">
        <ele>18.4023</ele>
        <time>2013-03-10T13:08:34Z</time>
      </trkpt>
      <trkpt lat="59.8917163" lon="17.746949">
        <ele>18.4023</ele>
        <time>2013-03-10T13:08:35Z</time>
      </trkpt>
      <trkpt lat="59.8917275" lon="17.7469327">
        <ele>18.4023</ele>
        <time>2013-03-10T13:08:36Z</time>
      </trkpt>
      <trkpt lat="59.8917388" lon="17.7469167">
        <ele>18.4023</ele>
        <time>2013-03-10T13:08:37Z</time>
      </trkpt>
      <trkpt lat="59.8917498" lon="17.7469017">
        <ele>18.8831</ele>
        <time>2013-03-10T13:08:38Z</time>
      </trkpt>
      <trkpt lat="59.8917611" lon="17.7468872">
        <ele>18.8831</ele>
        <time>2013-03-10T13:08:39Z</time>
      </trkpt>
      <trkpt lat="59.8917714" lon="17.7468706">
        <ele>18.8831</ele>
        <time>2013-03-10T13:08:40Z</time>
      </trkpt>
      <trkpt lat="59.8917812" lon="17.7468534">
        <ele>18.8831</ele>
        <time>2013-03-10T13:08:41Z</time>
      </trkpt>
      <trkpt lat="59.8917906" lon="17.7468362">
        <ele>18.8831</ele>
        <time>2013-03-10T13:08:42Z</time>
      </trkpt>
      <trkpt lat="59.8918001" lon="17.7468199">
        <ele>18.8831</ele>
        <time>2013-03-10T13:08:43Z</time>
      </trkpt>
      <trkpt lat="59.891809" lon="17.7468047">
        <ele>18.8831</ele>
        <time>2013-03-10T13:08:44Z</time>
      </trkpt>
      <trkpt lat="59.8918177" lon="17.7467901">
        <ele>18.8831</ele>
        <time>2013-03-10T13:08:45Z</time>
      </trkpt>
      <trkpt lat="59.8918265" lon="17.7467748">
        <ele>18.8831</ele>
        <time>2013-03-10T13:08:46Z</time>
      </trkpt>
      <trkpt lat="59.8918357" lon="17.7467593">
        <ele>19.3638</ele>
        <time>2013-03-10T13:08:47Z</time>
      </trkpt>
      <trkpt lat="59.8918452" lon="17.7467433">
        <ele>19.3638</ele>
        <time>2013-03-10T13:08:48Z</time>
      </trkpt>
      <trkpt lat="59.8918555" lon="17.7467264">
        <ele>19.3638</ele>
        <time>2013-03-10T13:08:49Z</time>
      </trkpt>
      <trkpt lat="59.8918667" lon="17.7467094">
        <ele>19.3638</ele>
        <time>2013-03-10T13:08:50Z</time>
      </trkpt>
      <trkpt lat="59.8918786" lon="17.7466943">
        <ele>19.3638</ele>
        <time>2013-03-10T13:08:51Z</time>
      </trkpt>
      <trkpt lat="59.8918897" lon="17.7466793">
        <ele>19.8444</ele>
        <time>2013-03-10T13:08:52Z</time>
      </trkpt>
      <trkpt lat="59.8919" lon="17.7466632">
        <ele>19.8444</ele>
        <time>2013-03-10T13:08:53Z</time>
      </trkpt>
      <trkpt lat="59.8919104" lon="17.7466469">
        <ele>19.8444</ele>
        <time>2013-03-10T13:08:54Z</time>
      </trkpt>
      <trkpt lat="59.8919208" lon="17.7466303">
        <ele>19.8444</ele>
        <time>2013-03-10T13:08:55Z</time>
      </trkpt>
      <trkpt lat="59.8919305" lon="17.7466142">
        <ele>19.8444</ele>
        <time>2013-03-10T13:08:56Z</time>
      </trkpt>
      <trkpt lat="59.891939" lon="17.7465964">
        <ele>19.8444</ele>
        <time>2013-03-10T13:08:57Z</time>
      </trkpt>
      <trkpt lat="59.8919487" lon="17.7465794">
        <ele>19.8444</ele>
        <time>2013-03-10T13:08:58Z</time>
      </trkpt>
      <trkpt lat="59.8919589" lon="17.7465628">
        <ele>19.8444</ele>
        <time>2013-03-10T13:08:59Z</time>
      </trkpt>
      <trkpt lat="59.8919694" lon="17.7465469">
        <ele>19.8444</ele>
        <time>2013-03-10T13:09:00Z</time>
      </trkpt>
      <trkpt lat="59.8919798" lon="17.7465338">
        <ele>19.8444</ele>
        <time>2013-03-10T13:09:01Z</time>
      </trkpt>
      <trkpt lat="59.8919898" lon="17.746521">
        <ele>19.8444</ele>
        <time>2013-03-10T13:09:02Z</time>
      </trkpt>
      <trkpt lat="59.8919993" lon="17.7465069">
        <ele>19.8444</ele>
        <time>2013-03-10T13:09:03Z</time>
      </trkpt>
      <trkpt lat="59.8920089" lon="17.7464907">
        <ele>19.8444</ele>
        <time>2013-03-10T13:09:04Z</time>
      </trkpt>
      <trkpt lat="59.8920193" lon="17.7464726">
        <ele>20.325</ele>
        <time>2013-03-10T13:09:05Z</time>
      </trkpt>
      <trkpt lat="59.8920296" lon="17.746454">
        <ele>20.325</ele>
        <time>2013-03-10T13:09:06Z</time>
      </trkpt>
      <trkpt lat="59.8920403" lon="17.7464349">
        <ele>20.325</ele>
        <time>2013-03-10T13:09:07Z</time>
      </trkpt>
      <trkpt lat="59.8920513" lon="17.7464161">
        <ele>20.325</ele>
        <time>2013-03-10T13:09:08Z</time>
      </trkpt>
      <trkpt lat="59.8920632" lon="17.7463982">
        <ele>20.325</ele>
        <time>2013-03-10T13:09:09Z</time>
      </trkpt>
      <trkpt lat="59.892074" lon="17.7463816">
        <ele>20.325</ele>
        <time>2013-03-10T13:09:10Z</time>
      </trkpt>
      <trkpt lat="59.8920848" lon="17.7463656">
        <ele>20.325</ele>
        <time>2013-03-10T13:09:11Z</time>
      </trkpt>
      <trkpt lat="59.8920953" lon="17.7463469">
        <ele>20.325</ele>
        <time>2013-03-10T13:09:12Z</time>
      </trkpt>
      <trkpt lat="59.8921061" lon="17.7463289">
        <ele>20.325</ele>
        <time>2013-03-10T13:09:13Z</time>
      </trkpt>
      <trkpt lat="59.8921165" lon="17.7463105">
        <ele>20.325</ele>
        <time>2013-03-10T13:09:14Z</time>
      </trkpt>
      <trkpt lat="59.8921264" lon="17.7462915">
        <ele>20.325</ele>
        <time>2013-03-10T13:09:15Z</time>
      </trkpt>
      <trkpt lat="59.8921363" lon="17.7462738">
        <ele>20.325</ele>
        <time>2013-03-10T13:09:16Z</time>
      </trkpt>
      <trkpt lat="59.8921456" lon="17.7462557">
        <ele>20.325</ele>
        <time>2013-03-10T13:09:17Z</time>
      </trkpt>
      <trkpt lat="59.8921542" lon="17.7462362">
        <ele>20.325</ele>
        <time>2013-03-10T13:09:18Z</time>
      </trkpt>
      <trkpt lat="59.892162" lon="17.7462177">
        <ele>20.325</ele>
        <time>2013-03-10T13:09:19Z</time>
      </trkpt>
      <trkpt lat="59.892171" lon="17.7461963">
        <ele>20.325</ele>
        <time>2013-03-10T13:09:20Z</time>
      </trkpt>
      <trkpt lat="59.8921824" lon="17.7461801">
        <ele>19.8444</ele>
        <time>2013-03-10T13:09:21Z</time>
      </trkpt>
      <trkpt lat="59.8921927" lon="17.7461672">
        <ele>19.8444</ele>
        <time>2013-03-10T13:09:22Z</time>
      </trkpt>
      <trkpt lat="59.8921999" lon="17.7461486">
        <ele>19.8444</ele>
        <time>2013-03-10T13:09:23Z</time>
      </trkpt>
      <trkpt lat="59.8922067" lon="17.746133">
        <ele>19.3638</ele>
        <time>2013-03-10T13:09:24Z</time>
      </trkpt>
      <trkpt lat="59.8922138" lon="17.7461167">
        <ele>19.3638</ele>
        <time>2013-03-10T13:09:25Z</time>
      </trkpt>
      <trkpt lat="59.8922198" lon="17.7460963">
        <ele>19.3638</ele>
        <time>2013-03-10T13:09:26Z</time>
      </trkpt>
      <trkpt lat="59.8922274" lon="17.7460791">
        <ele>18.8831</ele>
        <time>2013-03-10T13:09:27Z</time>
      </trkpt>
      <trkpt lat="59.8922376" lon="17.7460615">
        <ele>18.8831</ele>
        <time>2013-03-10T13:09:28Z</time>
      </trkpt>
      <trkpt lat="59.8922474" lon="17.7460423">
        <ele>18.4023</ele>
        <time>2013-03-10T13:09:29Z</time>
      </trkpt>
      <trkpt lat="59.8922557" lon="17.7460202">
        <ele>18.4023</ele>
        <time>2013-03-10T13:09:30Z</time>
      </trkpt>
      <trkpt lat="59.8922633" lon="17.7459977">
        <ele>18.4023</ele>
        <time>2013-03-10T13:09:31Z</time>
      </trkpt>
      <trkpt lat="59.8922723" lon="17.7459797">
        <ele>18.4023</ele>
        <time>2013-03-10T13:09:32Z</time>
      </trkpt>
      <trkpt lat="59.8922813" lon="17.7459615">
        <ele>18.4023</ele>
        <time>2013-03-10T13:09:33Z</time>
      </trkpt>
      <trkpt lat="59.8922896" lon="17.745942">
        <ele>17.9218</ele>
        <time>2013-03-10T13:09:34Z</time>
      </trkpt>
      <trkpt lat="59.8922974" lon="17.7459245">
        <ele>17.9218</ele>
        <time>2013-03-10T13:09:35Z</time>
      </trkpt>
      <trkpt lat="59.8923054" lon="17.7459061">
        <ele>17.9218</ele>
        <time>2013-03-10T13:09:36Z</time>
      </trkpt>
      <trkpt lat="59.8923111" lon="17.7458837">
        <ele>18.4023</ele>
        <time>2013-03-10T13:09:37Z</time>
      </trkpt>
      <trkpt lat="59.8923138" lon="17.7458629">
        <ele>18.4023</ele>
        <time>2013-03-10T13:09:38Z</time>
      </trkpt>
      <trkpt lat="59.8923176" lon="17.7458376">
        <ele>18.8831</ele>
        <time>2013-03-10T13:09:39Z</time>
      </trkpt>
      <trkpt lat="59.8923238" lon="17.7458098">
        <ele>18.8831</ele>
        <time>2013-03-10T13:09:40Z</time>
      </trkpt>
      <trkpt lat="59.8923301" lon="17.7457828">
        <ele>18.8831</ele>
        <time>2013-03-10T13:09:41Z</time>
      </trkpt>
      <trkpt lat="59.892337" lon="17.745759">
        <ele>18.8831</ele>
        <time>2013-03-10T13:09:42Z</time>
      </trkpt>
      <trkpt lat="59.8923444" lon="17.7457427">
        <ele>18.8831</ele>
        <time>2013-03-10T13:09:43Z</time>
      </trkpt>
      <trkpt lat="59.892352" lon="17.7457248">
        <ele>18.8831</ele>
        <time>2013-03-10T13:09:44Z</time>
      </trkpt>
      <trkpt lat="59.8923598" lon="17.7457093">
        <ele>18.4023</ele>
        <time>2013-03-10T13:09:45Z</time>
      </trkpt>
      <trkpt lat="59.8923668" lon="17.7456932">
        <ele>18.8831</ele>
        <time>2013-03-10T13:09:46Z</time>
      </trkpt>
      <trkpt lat="59.8923725" lon="17.7456695">
        <ele>18.8831</ele>
        <time>2013-03-10T13:09:47Z</time>
      </trkpt>
      <trkpt lat="59.8923785" lon="17.7456459">
        <ele>18.8831</ele>
        <time>2013-03-10T13:09:48Z</time>
      </trkpt>
      <trkpt lat="59.8923853" lon="17.7456227">
        <ele>18.8831</ele>
        <time>2013-03-10T13:09:49Z</time>
      </trkpt>
      <trkpt lat="59.892393" lon="17.7455992">
        <ele>18.8831</ele>
        <time>2013-03-10T13:09:50Z</time>
      </trkpt>
      <trkpt lat="59.8924014" lon="17.7455741">
        <ele>18.8831</ele>
        <time>2013-03-10T13:09:51Z</time>
      </trkpt>
      <trkpt lat="59.892409" lon="17.7455511">
        <ele>18.8831</ele>
        <time>2013-03-10T13:09:52Z</time>
      </trkpt>
      <trkpt lat="59.8924171" lon="17.7455321">
        <ele>18.8831</ele>
        <time>2013-03-10T13:09:53Z</time>
      </trkpt>
      <trkpt lat="59.8924268" lon="17.7455123">
        <ele>18.4023</ele>
        <time>2013-03-10T13:09:54Z</time>
      </trkpt>
      <trkpt lat="59.8924357" lon="17.7454902">
        <ele>17.9218</ele>
        <time>2013-03-10T13:09:55Z</time>
      </trkpt>
      <trkpt lat="59.8924424" lon="17.7454672">
        <ele>17.9218</ele>
        <time>2013-03-10T13:09:56Z</time>
      </trkpt>
      <trkpt lat="59.8924494" lon="17.7454441">
        <ele>17.9218</ele>
        <time>2013-03-10T13:09:57Z</time>
      </trkpt>
      <trkpt lat="59.8924584" lon="17.7454216">
        <ele>17.9218</ele>
        <time>2013-03-10T13:09:58Z</time>
      </trkpt>
      <trkpt lat="59.8924665" lon="17.7453999">
        <ele>17.9218</ele>
        <time>2013-03-10T13:09:59Z</time>
      </trkpt>
      <trkpt lat="59.8924735" lon="17.7453771">
        <ele>17.9218</ele>
        <time>2013-03-10T13:10:00Z</time>
      </trkpt>
      <trkpt lat="59.8924808" lon="17.7453561">
        <ele>17.9218</ele>
        <time>2013-03-10T13:10:01Z</time>
      </trkpt>
      <trkpt lat="59.8924885" lon="17.7453367">
        <ele>17.9218</ele>
        <time>2013-03-10T13:10:02Z</time>
      </trkpt>
      <trkpt lat="59.8924957" lon="17.7453197">
        <ele>17.4412</ele>
        <time>2013-03-10T13:10:03Z</time>
      </trkpt>
      <trkpt lat="59.8925024" lon="17.7453001">
        <ele>17.4412</ele>
        <time>2013-03-10T13:10:04Z</time>
      </trkpt>
      <trkpt lat="59.8925081" lon="17.7452773">
        <ele>17.4412</ele>
        <time>2013-03-10T13:10:05Z</time>
      </trkpt>
      <trkpt lat="59.8925149" lon="17.7452527">
        <ele>17.9218</ele>
        <time>2013-03-10T13:10:06Z</time>
      </trkpt>
      <trkpt lat="59.892522" lon="17.7452286">
        <ele>17.9218</ele>
        <time>2013-03-10T13:10:07Z</time>
      </trkpt>
      <trkpt lat="59.8925289" lon="17.7452082">
        <ele>17.9218</ele>
        <time>2013-03-10T13:10:08Z</time>
      </trkpt>
      <trkpt lat="59.8925362" lon="17.7451871">
        <ele>17.9218</ele>
        <time>2013-03-10T13:10:09Z</time>
      </trkpt>
      <trkpt lat="59.8925428" lon="17.7451646">
        <ele>17.9218</ele>
        <time>2013-03-10T13:10:10Z</time>
      </trkpt>
      <trkpt lat="59.8925494" lon="17.7451419">
        <ele>17.9218</ele>
        <time>2013-03-10T13:10:11Z</time>
      </trkpt>
      <trkpt lat="59.8925569" lon="17.7451199">
        <ele>17.9218</ele>
        <time>2013-03-10T13:10:12Z</time>
      </trkpt>
      <trkpt lat="59.8925651" lon="17.7450968">
        <ele>17.9218</ele>
        <time>2013-03-10T13:10:13Z</time>
      </trkpt>
      <trkpt lat="59.8925744" lon="17.7450725">
        <ele>17.9218</ele>
        <time>2013-03-10T13:10:14Z</time>
      </trkpt>
      <trkpt lat="59.8925843" lon="17.7450497">
        <ele>17.4412</ele>
        <time>2013-03-10T13:10:15Z</time>
      </trkpt>
      <trkpt lat="59.8925925" lon="17.7450286">
        <ele>17.9218</ele>
        <time>2013-03-10T13:10:16Z</time>
      </trkpt>
      <trkpt lat="59.8926002" lon="17.7450071">
        <ele>17.9218</ele>
        <time>2013-03-10T13:10:17Z</time>
      </trkpt>
      <trkpt lat="59.8926076" lon="17.7449854">
        <ele>17.9218</ele>
        <time>2013-03-10T13:10:18Z</time>
      </trkpt>
      <trkpt lat="59.8926149" lon="17.744964">
        <ele>17.9218</ele>
        <time>2013-03-10T13:10:19Z</time>
      </trkpt>
      <trkpt lat="59.8926217" lon="17.7449424">
        <ele>17.9218</ele>
        <time>2013-03-10T13:10:20Z</time>
      </trkpt>
      <trkpt lat="59.8926285" lon="17.7449201">
        <ele>17.9218</ele>
        <time>2013-03-10T13:10:21Z</time>
      </trkpt>
      <trkpt lat="59.8926356" lon="17.7448971">
        <ele>18.4023</ele>
        <time>2013-03-10T13:10:22Z</time>
      </trkpt>
      <trkpt lat="59.8926425" lon="17.7448743">
        <ele>18.4023</ele>
        <time>2013-03-10T13:10:23Z</time>
      </trkpt>
      <trkpt lat="59.8926491" lon="17.744852">
        <ele>18.4023</ele>
        <time>2013-03-10T13:10:24Z</time>
      </trkpt>
      <trkpt lat="59.8926559" lon="17.7448291">
        <ele>18.4023</ele>
        <time>2013-03-10T13:10:25Z</time>
      </trkpt>
      <trkpt lat="59.8926624" lon="17.7448049">
        <ele>18.8831</ele>
        <time>2013-03-10T13:10:26Z</time>
      </trkpt>
      <trkpt lat="59.8926689" lon="17.7447814">
        <ele>18.8831</ele>
        <time>2013-03-10T13:10:27Z</time>
      </trkpt>
      <trkpt lat="59.8926756" lon="17.7447583">
        <ele>18.8831</ele>
        <time>2013-03-10T13:10:28Z</time>
      </trkpt>
      <trkpt lat="59.8926821" lon="17.7447364">
        <ele>18.8831</ele>
        <time>2013-03-10T13:10:29Z</time>
      </trkpt>
      <trkpt lat="59.8926884" lon="17.7447156">
        <ele>18.8831</ele>
        <time>2013-03-10T13:10:30Z</time>
      </trkpt>
      <trkpt lat="59.8926948" lon="17.7446941">
        <ele>19.3638</ele>
        <time>2013-03-10T13:10:31Z</time>
      </trkpt>
      <trkpt lat="59.892701" lon="17.7446716">
        <ele>19.3638</ele>
        <time>2013-03-10T13:10:32Z</time>
      </trkpt>
      <trkpt lat="59.8927072" lon="17.7446503">
        <ele>19.3638</ele>
        <time>2013-03-10T13:10:33Z</time>
      </trkpt>
      <trkpt lat="59.8927138" lon="17.7446281">
        <ele>19.3638</ele>
        <time>2013-03-10T13:10:34Z</time>
      </trkpt>
      <trkpt lat="59.8927206" lon="17.7446044">
        <ele>19.8444</ele>
        <time>2013-03-10T13:10:35Z</time>
      </trkpt>
      <trkpt lat="59.8927276" lon="17.7445842">
        <ele>19.8444</ele>
        <time>2013-03-10T13:10:36Z</time>
      </trkpt>
      <trkpt lat="59.8927355" lon="17.7445681">
        <ele>19.8444</ele>
        <time>2013-03-10T13:10:37Z</time>
      </trkpt>
      <trkpt lat="59.8927433" lon="17.7445494">
        <ele>19.8444</ele>
        <time>2013-03-10T13:10:38Z</time>
      </trkpt>
      <trkpt lat="59.8927506" lon="17.744528">
        <ele>19.8444</ele>
        <time>2013-03-10T13:10:39Z</time>
      </trkpt>
      <trkpt lat="59.8927574" lon="17.7445047">
        <ele>19.8444</ele>
        <time>2013-03-10T13:10:40Z</time>
      </trkpt>
      <trkpt lat="59.8927647" lon="17.7444809">
        <ele>19.8444</ele>
        <time>2013-03-10T13:10:41Z</time>
      </trkpt>
      <trkpt lat="59.8927722" lon="17.7444594">
        <ele>20.325</ele>
        <time>2013-03-10T13:10:42Z</time>
      </trkpt>
      <trkpt lat="59.8927794" lon="17.7444394">
        <ele>20.325</ele>
        <time>2013-03-10T13:10:43Z</time>
      </trkpt>
      <trkpt lat="59.8927868" lon="17.7444237">
        <ele>20.325</ele>
        <time>2013-03-10T13:10:44Z</time>
      </trkpt>
      <trkpt lat="59.8927935" lon="17.7444085">
        <ele>20.325</ele>
        <time>2013-03-10T13:10:45Z</time>
      </trkpt>
      <trkpt lat="59.8927998" lon="17.744393">
        <ele>20.325</ele>
        <time>2013-03-10T13:10:46Z</time>
      </trkpt>
      <trkpt lat="59.8928058" lon="17.7443754">
        <ele>20.325</ele>
        <time>2013-03-10T13:10:47Z</time>
      </trkpt>
      <trkpt lat="59.8928102" lon="17.7443541">
        <ele>20.325</ele>
        <time>2013-03-10T13:10:48Z</time>
      </trkpt>
      <trkpt lat="59.8928159" lon="17.7443359">
        <ele>20.325</ele>
        <time>2013-03-10T13:10:49Z</time>
      </trkpt>
      <trkpt lat="59.8928212" lon="17.7443159">
        <ele>20.325</ele>
        <time>2013-03-10T13:10:50Z</time>
      </trkpt>
      <trkpt lat="59.8928286" lon="17.744296">
        <ele>20.8057</ele>
        <time>2013-03-10T13:10:51Z</time>
      </trkpt>
      <trkpt lat="59.8928365" lon="17.744275">
        <ele>20.8057</ele>
        <time>2013-03-10T13:10:52Z</time>
      </trkpt>
      <trkpt lat="59.8928445" lon="17.7442578">
        <ele>20.8057</ele>
        <time>2013-03-10T13:10:53Z</time>
      </trkpt>
      <trkpt lat="59.892852" lon="17.7442397">
        <ele>20.325</ele>
        <time>2013-03-10T13:10:54Z</time>
      </trkpt>
      <trkpt lat="59.8928589" lon="17.7442168">
        <ele>20.8057</ele>
        <time>2013-03-10T13:10:55Z</time>
      </trkpt>
      <trkpt lat="59.8928656" lon="17.7441952">
        <ele>20.8057</ele>
        <time>2013-03-10T13:10:56Z</time>
      </trkpt>
      <trkpt lat="59.8928709" lon="17.7441766">
        <ele>21.2864</ele>
        <time>2013-03-10T13:10:57Z</time>
      </trkpt>
      <trkpt lat="59.8928769" lon="17.7441578">
        <ele>21.2864</ele>
        <time>2013-03-10T13:10:58Z</time>
      </trkpt>
      <trkpt lat="59.8928825" lon="17.7441392">
        <ele>21.2864</ele>
        <time>2013-03-10T13:10:59Z</time>
      </trkpt>
      <trkpt lat="59.8928882" lon="17.7441189">
        <ele>21.2864</ele>
        <time>2013-03-10T13:11:00Z</time>
      </trkpt>
      <trkpt lat="59.892895" lon="17.7440999">
        <ele>21.2864</ele>
        <time>2013-03-10T13:11:01Z</time>
      </trkpt>
      <trkpt lat="59.8929018" lon="17.7440794">
        <ele>21.2864</ele>
        <time>2013-03-10T13:11:02Z</time>
      </trkpt>
      <trkpt lat="59.892908" lon="17.7440599">
        <ele>21.2864</ele>
        <time>2013-03-10T13:11:03Z</time>
      </trkpt>
      <trkpt lat="59.8929149" lon="17.7440391">
        <ele>21.2864</ele>
        <time>2013-03-10T13:11:04Z</time>
      </trkpt>
      <trkpt lat="59.892921" lon="17.744018">
        <ele>21.2864</ele>
        <time>2013-03-10T13:11:05Z</time>
      </trkpt>
      <trkpt lat="59.8929256" lon="17.74399">
        <ele>21.2864</ele>
        <time>2013-03-10T13:11:06Z</time>
      </trkpt>
      <trkpt lat="59.8929329" lon="17.7439662">
        <ele>21.767</ele>
        <time>2013-03-10T13:11:07Z</time>
      </trkpt>
      <trkpt lat="59.89294" lon="17.7439428">
        <ele>21.767</ele>
        <time>2013-03-10T13:11:08Z</time>
      </trkpt>
      <trkpt lat="59.8929464" lon="17.7439179">
        <ele>22.2476</ele>
        <time>2013-03-10T13:11:09Z</time>
      </trkpt>
      <trkpt lat="59.8929537" lon="17.7438953">
        <ele>22.2476</ele>
        <time>2013-03-10T13:11:10Z</time>
      </trkpt>
      <trkpt lat="59.8929607" lon="17.7438715">
        <ele>22.7283</ele>
        <time>2013-03-10T13:11:11Z</time>
      </trkpt>
      <trkpt lat="59.8929665" lon="17.7438486">
        <ele>22.7283</ele>
        <time>2013-03-10T13:11:12Z</time>
      </trkpt>
      <trkpt lat="59.8929723" lon="17.7438256">
        <ele>22.7283</ele>
        <time>2013-03-10T13:11:13Z</time>
      </trkpt>
      <trkpt lat="59.892978" lon="17.7438048">
        <ele>22.7283</ele>
        <time>2013-03-10T13:11:14Z</time>
      </trkpt>
      <trkpt lat="59.8929816" lon="17.7437833">
        <ele>22.7283</ele>
        <time>2013-03-10T13:11:15Z</time>
      </trkpt>
      <trkpt lat="59.8929827" lon="17.7437557">
        <ele>23.209</ele>
        <time>2013-03-10T13:11:16Z</time>
      </trkpt>
      <trkpt lat="59.8929842" lon="17.7437256">
        <ele>23.209</ele>
        <time>2013-03-10T13:11:17Z</time>
      </trkpt>
      <trkpt lat="59.8929878" lon="17.7436972">
        <ele>23.6896</ele>
        <time>2013-03-10T13:11:18Z</time>
      </trkpt>
      <trkpt lat="59.8929915" lon="17.7436724">
        <ele>23.6896</ele>
        <time>2013-03-10T13:11:19Z</time>
      </trkpt>
      <trkpt lat="59.892997" lon="17.7436568">
        <ele>23.6896</ele>
        <time>2013-03-10T13:11:20Z</time>
      </trkpt>
      <trkpt lat="59.8930018" lon="17.7436445">
        <ele>23.6896</ele>
        <time>2013-03-10T13:11:21Z</time>
      </trkpt>
      <trkpt lat="59.893007" lon="17.7436258">
        <ele>23.6896</ele>
        <time>2013-03-10T13:11:22Z</time>
      </trkpt>
      <trkpt lat="59.8930142" lon="17.7436052">
        <ele>23.6896</ele>
        <time>2013-03-10T13:11:23Z</time>
      </trkpt>
      <trkpt lat="59.89302" lon="17.7435883">
        <ele>23.6896</ele>
        <time>2013-03-10T13:11:24Z</time>
      </trkpt>
      <trkpt lat="59.8930272" lon="17.7435746">
        <ele>23.6896</ele>
        <time>2013-03-10T13:11:25Z</time>
      </trkpt>
      <trkpt lat="59.8930339" lon="17.7435621">
        <ele>23.209</ele>
        <time>2013-03-10T13:11:26Z</time>
      </trkpt>
      <trkpt lat="59.8930407" lon="17.7435441">
        <ele>23.209</ele>
        <time>2013-03-10T13:11:27Z</time>
      </trkpt>
      <trkpt lat="59.8930465" lon="17.7435225">
        <ele>23.209</ele>
        <time>2013-03-10T13:11:28Z</time>
      </trkpt>
      <trkpt lat="59.8930531" lon="17.7435055">
        <ele>23.209</ele>
        <time>2013-03-10T13:11:29Z</time>
      </trkpt>
      <trkpt lat="59.8930592" lon="17.7434896">
        <ele>23.209</ele>
        <time>2013-03-10T13:11:30Z</time>
      </trkpt>
      <trkpt lat="59.893065" lon="17.743474">
        <ele>22.7283</ele>
        <time>2013-03-10T13:11:31Z</time>
      </trkpt>
      <trkpt lat="59.8930705" lon="17.7434579">
        <ele>22.7283</ele>
        <time>2013-03-10T13:11:32Z</time>
      </trkpt>
      <trkpt lat="59.8930737" lon="17.743442">
        <ele>22.2476</ele>
        <time>2013-03-10T13:11:33Z</time>
      </trkpt>
      <trkpt lat="59.893077" lon="17.7434217">
        <ele>22.2476</ele>
        <time>2013-03-10T13:11:34Z</time>
      </trkpt>
      <trkpt lat="59.8930814" lon="17.743398">
        <ele>22.2476</ele>
        <time>2013-03-10T13:11:35Z</time>
      </trkpt>
      <trkpt lat="59.8930873" lon="17.7433749">
        <ele>22.7283</ele>
        <time>2013-03-10T13:11:36Z</time>
      </trkpt>
      <trkpt lat="59.8930934" lon="17.7433544">
        <ele>22.2476</ele>
        <time>2013-03-10T13:11:37Z</time>
      </trkpt>
      <trkpt lat="59.8930992" lon="17.743334">
        <ele>22.2476</ele>
        <time>2013-03-10T13:11:38Z</time>
      </trkpt>
      <trkpt lat="59.8931059" lon="17.7433146">
        <ele>22.2476</ele>
        <time>2013-03-10T13:11:39Z</time>
      </trkpt>
      <trkpt lat="59.8931128" lon="17.7432958">
        <ele>21.767</ele>
        <time>2013-03-10T13:11:40Z</time>
      </trkpt>
      <trkpt lat="59.8931194" lon="17.7432745">
        <ele>21.767</ele>
        <time>2013-03-10T13:11:41Z</time>
      </trkpt>
      <trkpt lat="59.8931271" lon="17.7432502">
        <ele>21.767</ele>
        <time>2013-03-10T13:11:42Z</time>
      </trkpt>
      <trkpt lat="59.8931328" lon="17.7432276">
        <ele>21.767</ele>
        <time>2013-03-10T13:11:43Z</time>
      </trkpt>
      <trkpt lat="59.8931387" lon="17.7432086">
        <ele>21.767</ele>
        <time>2013-03-10T13:11:44Z</time>
      </trkpt>
      <trkpt lat="59.8931443" lon="17.7431872">
        <ele>21.767</ele>
        <time>2013-03-10T13:11:45Z</time>
      </trkpt>
      <trkpt lat="59.8931484" lon="17.7431678">
        <ele>21.767</ele>
        <time>2013-03-10T13:11:46Z</time>
      </trkpt>
      <trkpt lat="59.8931506" lon="17.743145">
        <ele>21.767</ele>
        <time>2013-03-10T13:11:47Z</time>
      </trkpt>
      <trkpt lat="59.8931541" lon="17.7431237">
        <ele>21.2864</ele>
        <time>2013-03-10T13:11:48Z</time>
      </trkpt>
      <trkpt lat="59.8931594" lon="17.7430998">
        <ele>21.2864</ele>
        <time>2013-03-10T13:11:49Z</time>
      </trkpt>
      <trkpt lat="59.8931655" lon="17.743074">
        <ele>21.2864</ele>
        <time>2013-03-10T13:11:50Z</time>
      </trkpt>
      <trkpt lat="59.8931718" lon="17.7430509">
        <ele>20.8057</ele>
        <time>2013-03-10T13:11:51Z</time>
      </trkpt>
      <trkpt lat="59.8931763" lon="17.7430296">
        <ele>20.8057</ele>
        <time>2013-03-10T13:11:52Z</time>
      </trkpt>
      <trkpt lat="59.8931814" lon="17.7430088">
        <ele>20.8057</ele>
        <time>2013-03-10T13:11:53Z</time>
      </trkpt>
      <trkpt lat="59.8931888" lon="17.7429859">
        <ele>20.8057</ele>
        <time>2013-03-10T13:11:54Z</time>
      </trkpt>
      <trkpt lat="59.8931966" lon="17.7429652">
        <ele>20.8057</ele>
        <time>2013-03-10T13:11:55Z</time>
      </trkpt>
      <trkpt lat="59.8932037" lon="17.742945">
        <ele>20.8057</ele>
        <time>2013-03-10T13:11:56Z</time>
      </trkpt>
      <trkpt lat="59.8932114" lon="17.7429251">
        <ele>20.8057</ele>
        <time>2013-03-10T13:11:57Z</time>
      </trkpt>
      <trkpt lat="59.8932198" lon="17.7429005">
        <ele>21.2864</ele>
        <time>2013-03-10T13:11:58Z</time>
      </trkpt>
      <trkpt lat="59.8932272" lon="17.7428748">
        <ele>21.2864</ele>
        <time>2013-03-10T13:11:59Z</time>
      </trkpt>
      <trkpt lat="59.8932329" lon="17.7428544">
        <ele>21.2864</ele>
        <time>2013-03-10T13:12:00Z</time>
      </trkpt>
      <trkpt lat="59.8932381" lon="17.7428326">
        <ele>21.2864</ele>
        <time>2013-03-10T13:12:01Z</time>
      </trkpt>
      <trkpt lat="59.8932453" lon="17.7428145">
        <ele>21.2864</ele>
        <time>2013-03-10T13:12:02Z</time>
      </trkpt>
      <trkpt lat="59.8932514" lon="17.7427958">
        <ele>21.2864</ele>
        <time>2013-03-10T13:12:03Z</time>
      </trkpt>
      <trkpt lat="59.8932552" lon="17.7427769">
        <ele>21.2864</ele>
        <time>2013-03-10T13:12:04Z</time>
      </trkpt>
      <trkpt lat="59.8932586" lon="17.7427581">
        <ele>21.2864</ele>
        <time>2013-03-10T13:12:05Z</time>
      </trkpt>
      <trkpt lat="59.8932644" lon="17.7427383">
        <ele>20.8057</ele>
        <time>2013-03-10T13:12:06Z</time>
      </trkpt>
      <trkpt lat="59.8932722" lon="17.7427208">
        <ele>20.8057</ele>
        <time>2013-03-10T13:12:07Z</time>
      </trkpt>
      <trkpt lat="59.8932791" lon="17.7427069">
        <ele>20.8057</ele>
        <time>2013-03-10T13:12:08Z</time>
      </trkpt>
      <trkpt lat="59.8932846" lon="17.7426933">
        <ele>20.325</ele>
        <time>2013-03-10T13:12:09Z</time>
      </trkpt>
      <trkpt lat="59.8932908" lon="17.7426763">
        <ele>19.8444</ele>
        <time>2013-03-10T13:12:10Z</time>
      </trkpt>
      <trkpt lat="59.8932954" lon="17.7426571">
        <ele>20.325</ele>
        <time>2013-03-10T13:12:11Z</time>
      </trkpt>
      <trkpt lat="59.8932998" lon="17.7426378">
        <ele>19.8444</ele>
        <time>2013-03-10T13:12:12Z</time>
      </trkpt>
      <trkpt lat="59.8933057" lon="17.7426224">
        <ele>19.8444</ele>
        <time>2013-03-10T13:12:13Z</time>
      </trkpt>
      <trkpt lat="59.8933106" lon="17.742606">
        <ele>19.3638</ele>
        <time>2013-03-10T13:12:14Z</time>
      </trkpt>
      <trkpt lat="59.8933157" lon="17.7425914">
        <ele>18.8831</ele>
        <time>2013-03-10T13:12:15Z</time>
      </trkpt>
      <trkpt lat="59.8933213" lon="17.7425773">
        <ele>18.8831</ele>
        <time>2013-03-10T13:12:16Z</time>
      </trkpt>
      <trkpt lat="59.8933264" lon="17.7425618">
        <ele>18.4023</ele>
        <time>2013-03-10T13:12:17Z</time>
      </trkpt>
      <trkpt lat="59.8933324" lon="17.7425447">
        <ele>18.4023</ele>
        <time>2013-03-10T13:12:18Z</time>
      </trkpt>
      <trkpt lat="59.8933401" lon="17.7425262">
        <ele>18.4023</ele>
        <time>2013-03-10T13:12:19Z</time>
      </trkpt>
      <trkpt lat="59.8933489" lon="17.742506">
        <ele>17.9218</ele>
        <time>2013-03-10T13:12:20Z</time>
      </trkpt>
      <trkpt lat="59.8933581" lon="17.7424856">
        <ele>17.9218</ele>
        <time>2013-03-10T13:12:21Z</time>
      </trkpt>
      <trkpt lat="59.8933671" lon="17.7424624">
        <ele>17.9218</ele>
        <time>2013-03-10T13:12:22Z</time>
      </trkpt>
      <trkpt lat="59.8933758" lon="17.7424384">
        <ele>18.4023</ele>
        <time>2013-03-10T13:12:23Z</time>
      </trkpt>
      <trkpt lat="59.8933819" lon="17.7424157">
        <ele>18.4023</ele>
        <time>2013-03-10T13:12:24Z</time>
      </trkpt>
      <trkpt lat="59.8933892" lon="17.742392">
        <ele>18.8831</ele>
        <time>2013-03-10T13:12:25Z</time>
      </trkpt>
      <trkpt lat="59.8933959" lon="17.7423691">
        <ele>18.8831</ele>
        <time>2013-03-10T13:12:26Z</time>
      </trkpt>
      <trkpt lat="59.8934028" lon="17.7423463">
        <ele>18.8831</ele>
        <time>2013-03-10T13:12:27Z</time>
      </trkpt>
      <trkpt lat="59.8934106" lon="17.7423233">
        <ele>18.8831</ele>
        <time>2013-03-10T13:12:28Z</time>
      </trkpt>
      <trkpt lat="59.8934197" lon="17.7422988">
        <ele>18.8831</ele>
        <time>2013-03-10T13:12:29Z</time>
      </trkpt>
      <trkpt lat="59.893428" lon="17.7422747">
        <ele>19.3638</ele>
        <time>2013-03-10T13:12:30Z</time>
      </trkpt>
      <trkpt lat="59.8934354" lon="17.7422499">
        <ele>19.3638</ele>
        <time>2013-03-10T13:12:31Z</time>
      </trkpt>
      <trkpt lat="59.8934436" lon="17.7422268">
        <ele>19.3638</ele>
        <time>2013-03-10T13:12:32Z</time>
      </trkpt>
      <trkpt lat="59.8934521" lon="17.7422049">
        <ele>19.3638</ele>
        <time>2013-03-10T13:12:33Z</time>
      </trkpt>
      <trkpt lat="59.8934599" lon="17.7421828">
        <ele>19.3638</ele>
        <time>2013-03-10T13:12:34Z</time>
      </trkpt>
      <trkpt lat="59.8934668" lon="17.74216">
        <ele>19.3638</ele>
        <time>2013-03-10T13:12:35Z</time>
      </trkpt>
      <trkpt lat="59.8934735" lon="17.7421365">
        <ele>19.3638</ele>
        <time>2013-03-10T13:12:36Z</time>
      </trkpt>
      <trkpt lat="59.8934805" lon="17.7421112">
        <ele>19.8444</ele>
        <time>2013-03-10T13:12:37Z</time>
      </trkpt>
      <trkpt lat="59.8934873" lon="17.7420861">
        <ele>19.8444</ele>
        <time>2013-03-10T13:12:38Z</time>
      </trkpt>
      <trkpt lat="59.8934943" lon="17.742062">
        <ele>19.8444</ele>
        <time>2013-03-10T13:12:39Z</time>
      </trkpt>
      <trkpt lat="59.8935015" lon="17.7420366">
        <ele>19.8444</ele>
        <time>2013-03-10T13:12:40Z</time>
      </trkpt>
      <trkpt lat="59.8935084" lon="17.7420117">
        <ele>20.325</ele>
        <time>2013-03-10T13:12:41Z</time>
      </trkpt>
      <trkpt lat="59.8935152" lon="17.7419877">
        <ele>20.325</ele>
        <time>2013-03-10T13:12:42Z</time>
      </trkpt>
      <trkpt lat="59.8935219" lon="17.741964">
        <ele>20.325</ele>
        <time>2013-03-10T13:12:43Z</time>
      </trkpt>
      <trkpt lat="59.8935288" lon="17.7419405">
        <ele>20.325</ele>
        <time>2013-03-10T13:12:44Z</time>
      </trkpt>
      <trkpt lat="59.8935363" lon="17.7419174">
        <ele>20.325</ele>
        <time>2013-03-10T13:12:45Z</time>
      </trkpt>
      <trkpt lat="59.8935437" lon="17.7418946">
        <ele>20.325</ele>
        <time>2013-03-10T13:12:46Z</time>
      </trkpt>
      <trkpt lat="59.8935514" lon="17.7418713">
        <ele>20.8057</ele>
        <time>2013-03-10T13:12:47Z</time>
      </trkpt>
      <trkpt lat="59.8935588" lon="17.7418476">
        <ele>20.8057</ele>
        <time>2013-03-10T13:12:48Z</time>
      </trkpt>
      <trkpt lat="59.893566" lon="17.7418238">
        <ele>20.8057</ele>
        <time>2013-03-10T13:12:49Z</time>
      </trkpt>
      <trkpt lat="59.8935732" lon="17.7417998">
        <ele>20.8057</ele>
        <time>2013-03-10T13:12:50Z</time>
      </trkpt>
      <trkpt lat="59.8935805" lon="17.7417769">
        <ele>20.8057</ele>
        <time>2013-03-10T13:12:51Z</time>
      </trkpt>
      <trkpt lat="59.8935882" lon="17.7417547">
        <ele>20.8057</ele>
        <time>2013-03-10T13:12:52Z</time>
      </trkpt>
      <trkpt lat="59.8935966" lon="17.7417329">
        <ele>20.8057</ele>
        <time>2013-03-10T13:12:53Z</time>
      </trkpt>
      <trkpt lat="59.8936041" lon="17.7417121">
        <ele>20.8057</ele>
        <time>2013-03-10T13:12:54Z</time>
      </trkpt>
      <trkpt lat="59.89361" lon="17.7416896">
        <ele>20.8057</ele>
        <time>2013-03-10T13:12:55Z</time>
      </trkpt>
      <trkpt lat="59.8936163" lon="17.7416668">
        <ele>21.2864</ele>
        <time>2013-03-10T13:12:56Z</time>
      </trkpt>
      <trkpt lat="59.8936229" lon="17.7416439">
        <ele>21.2864</ele>
        <time>2013-03-10T13:12:57Z</time>
      </trkpt>
      <trkpt lat="59.8936303" lon="17.7416202">
        <ele>21.2864</ele>
        <time>2013-03-10T13:12:58Z</time>
      </trkpt>
      <trkpt lat="59.8936349" lon="17.7415963">
        <ele>21.2864</ele>
        <time>2013-03-10T13:12:59Z</time>
      </trkpt>
      <trkpt lat="59.8936403" lon="17.741573">
        <ele>21.2864</ele>
        <time>2013-03-10T13:13:00Z</time>
      </trkpt>
      <trkpt lat="59.8936473" lon="17.7415477">
        <ele>21.2864</ele>
        <time>2013-03-10T13:13:01Z</time>
      </trkpt>
      <trkpt lat="59.893654" lon="17.7415248">
        <ele>21.2864</ele>
        <time>2013-03-10T13:13:02Z</time>
      </trkpt>
      <trkpt lat="59.8936622" lon="17.7415041">
        <ele>21.2864</ele>
        <time>2013-03-10T13:13:03Z</time>
      </trkpt>
      <trkpt lat="59.893671" lon="17.7414837">
        <ele>21.2864</ele>
        <time>2013-03-10T13:13:04Z</time>
      </trkpt>
      <trkpt lat="59.8936793" lon="17.7414631">
        <ele>21.2864</ele>
        <time>2013-03-10T13:13:05Z</time>
      </trkpt>
      <trkpt lat="59.8936871" lon="17.741442">
        <ele>21.2864</ele>
        <time>2013-03-10T13:13:06Z</time>
      </trkpt>
      <trkpt lat="59.8936942" lon="17.7414213">
        <ele>21.2864</ele>
        <time>2013-03-10T13:13:07Z</time>
      </trkpt>
      <trkpt lat="59.8937002" lon="17.7414004">
        <ele>21.2864</ele>
        <time>2013-03-10T13:13:08Z</time>
      </trkpt>
      <trkpt lat="59.8937062" lon="17.7413792">
        <ele>21.2864</ele>
        <time>2013-03-10T13:13:09Z</time>
      </trkpt>
      <trkpt lat="59.893712" lon="17.7413591">
        <ele>21.2864</ele>
        <time>2013-03-10T13:13:10Z</time>
      </trkpt>
      <trkpt lat="59.893718" lon="17.7413388">
        <ele>21.767</ele>
        <time>2013-03-10T13:13:11Z</time>
      </trkpt>
      <trkpt lat="59.8937244" lon="17.7413171">
        <ele>21.767</ele>
        <time>2013-03-10T13:13:12Z</time>
      </trkpt>
      <trkpt lat="59.8937325" lon="17.7412948">
        <ele>21.767</ele>
        <time>2013-03-10T13:13:13Z</time>
      </trkpt>
      <trkpt lat="59.89374" lon="17.7412741">
        <ele>21.767</ele>
        <time>2013-03-10T13:13:14Z</time>
      </trkpt>
      <trkpt lat="59.8937478" lon="17.7412537">
        <ele>21.2864</ele>
        <time>2013-03-10T13:13:15Z</time>
      </trkpt>
      <trkpt lat="59.893755" lon="17.7412321">
        <ele>21.767</ele>
        <time>2013-03-10T13:13:16Z</time>
      </trkpt>
      <trkpt lat="59.8937618" lon="17.7412104">
        <ele>21.767</ele>
        <time>2013-03-10T13:13:17Z</time>
      </trkpt>
      <trkpt lat="59.8937695" lon="17.741187">
        <ele>21.767</ele>
        <time>2013-03-10T13:13:18Z</time>
      </trkpt>
      <trkpt lat="59.893775" lon="17.7411671">
        <ele>21.767</ele>
        <time>2013-03-10T13:13:19Z</time>
      </trkpt>
      <trkpt lat="59.893781" lon="17.7411492">
        <ele>21.2864</ele>
        <time>2013-03-10T13:13:20Z</time>
      </trkpt>
      <trkpt lat="59.8937872" lon="17.7411278">
        <ele>21.2864</ele>
        <time>2013-03-10T13:13:21Z</time>
      </trkpt>
      <trkpt lat="59.8937928" lon="17.7411067">
        <ele>21.2864</ele>
        <time>2013-03-10T13:13:22Z</time>
      </trkpt>
      <trkpt lat="59.8938005" lon="17.7410876">
        <ele>21.2864</ele>
        <time>2013-03-10T13:13:23Z</time>
      </trkpt>
      <trkpt lat="59.8938079" lon="17.7410669">
        <ele>20.8057</ele>
        <time>2013-03-10T13:13:24Z</time>
      </trkpt>
      <trkpt lat="59.893815" lon="17.7410465">
        <ele>20.8057</ele>
        <time>2013-03-10T13:13:25Z</time>
      </trkpt>
      <trkpt lat="59.893823" lon="17.741026">
        <ele>20.8057</ele>
        <time>2013-03-10T13:13:26Z</time>
      </trkpt>
      <trkpt lat="59.8938306" lon="17.7410088">
        <ele>20.325</ele>
        <time>2013-03-10T13:13:27Z</time>
      </trkpt>
      <trkpt lat="59.8938374" lon="17.7409924">
        <ele>19.8444</ele>
        <time>2013-03-10T13:13:28Z</time>
      </trkpt>
      <trkpt lat="59.8938446" lon="17.740973">
        <ele>19.8444</ele>
        <time>2013-03-10T13:13:29Z</time>
      </trkpt>
      <trkpt lat="59.8938523" lon="17.7409497">
        <ele>19.8444</ele>
        <time>2013-03-10T13:13:30Z</time>
      </trkpt>
      <trkpt lat="59.8938602" lon="17.7409273">
        <ele>19.8444</ele>
        <time>2013-03-10T13:13:31Z</time>
      </trkpt>
      <trkpt lat="59.8938658" lon="17.7409046">
        <ele>19.8444</ele>
        <time>2013-03-10T13:13:32Z</time>
      </trkpt>
      <trkpt lat="59.8938696" lon="17.7408804">
        <ele>20.325</ele>
        <time>2013-03-10T13:13:33Z</time>
      </trkpt>
      <trkpt lat="59.8938726" lon="17.7408569">
        <ele>20.325</ele>
        <time>2013-03-10T13:13:34Z</time>
      </trkpt>
      <trkpt lat="59.8938768" lon="17.7408316">
        <ele>20.325</ele>
        <time>2013-03-10T13:13:35Z</time>
      </trkpt>
      <trkpt lat="59.893884" lon="17.7408079">
        <ele>20.325</ele>
        <time>2013-03-10T13:13:36Z</time>
      </trkpt>
      <trkpt lat="59.8938918" lon="17.7407829">
        <ele>20.325</ele>
        <time>2013-03-10T13:13:37Z</time>
      </trkpt>
      <trkpt lat="59.8939001" lon="17.7407586">
        <ele>20.325</ele>
        <time>2013-03-10T13:13:38Z</time>
      </trkpt>
      <trkpt lat="59.8939094" lon="17.7407364">
        <ele>20.325</ele>
        <time>2013-03-10T13:13:39Z</time>
      </trkpt>
      <trkpt lat="59.893919" lon="17.7407156">
        <ele>20.325</ele>
        <time>2013-03-10T13:13:40Z</time>
      </trkpt>
      <trkpt lat="59.8939279" lon="17.7406947">
        <ele>20.325</ele>
        <time>2013-03-10T13:13:41Z</time>
      </trkpt>
      <trkpt lat="59.8939367" lon="17.7406745">
        <ele>20.325</ele>
        <time>2013-03-10T13:13:42Z</time>
      </trkpt>
      <trkpt lat="59.8939454" lon="17.7406528">
        <ele>20.325</ele>
        <time>2013-03-10T13:13:43Z</time>
      </trkpt>
      <trkpt lat="59.8939524" lon="17.7406285">
        <ele>20.325</ele>
        <time>2013-03-10T13:13:44Z</time>
      </trkpt>
      <trkpt lat="59.8939581" lon="17.7406021">
        <ele>20.325</ele>
        <time>2013-03-10T13:13:45Z</time>
      </trkpt>
      <trkpt lat="59.8939646" lon="17.740578">
        <ele>20.325</ele>
        <time>2013-03-10T13:13:46Z</time>
      </trkpt>
      <trkpt lat="59.893971" lon="17.7405561">
        <ele>20.325</ele>
        <time>2013-03-10T13:13:47Z</time>
      </trkpt>
      <trkpt lat="59.8939777" lon="17.7405353">
        <ele>20.325</ele>
        <time>2013-03-10T13:13:48Z</time>
      </trkpt>
      <trkpt lat="59.8939839" lon="17.7405136">
        <ele>20.325</ele>
        <time>2013-03-10T13:13:49Z</time>
      </trkpt>
      <trkpt lat="59.8939903" lon="17.7404888">
        <ele>20.325</ele>
        <time>2013-03-10T13:13:50Z</time>
      </trkpt>
      <trkpt lat="59.8939958" lon="17.7404644">
        <ele>20.325</ele>
        <time>2013-03-10T13:13:51Z</time>
      </trkpt>
      <trkpt lat="59.8940021" lon="17.7404388">
        <ele>20.325</ele>
        <time>2013-03-10T13:13:52Z</time>
      </trkpt>
      <trkpt lat="59.8940079" lon="17.740411">
        <ele>20.8057</ele>
        <time>2013-03-10T13:13:53Z</time>
      </trkpt>
      <trkpt lat="59.894014" lon="17.7403837">
        <ele>20.8057</ele>
        <time>2013-03-10T13:13:54Z</time>
      </trkpt>
      <trkpt lat="59.8940223" lon="17.7403578">
        <ele>20.8057</ele>
        <time>2013-03-10T13:13:55Z</time>
      </trkpt>
      <trkpt lat="59.8940296" lon="17.7403353">
        <ele>21.2864</ele>
        <time>2013-03-10T13:13:56Z</time>
      </trkpt>
      <trkpt lat="59.8940378" lon="17.7403143">
        <ele>21.2864</ele>
        <time>2013-03-10T13:13:57Z</time>
      </trkpt>
      <trkpt lat="59.8940475" lon="17.7402928">
        <ele>21.767</ele>
        <time>2013-03-10T13:13:58Z</time>
      </trkpt>
      <trkpt lat="59.894057" lon="17.7402685">
        <ele>21.767</ele>
        <time>2013-03-10T13:13:59Z</time>
      </trkpt>
      <trkpt lat="59.8940637" lon="17.7402466">
        <ele>21.767</ele>
        <time>2013-03-10T13:14:00Z</time>
      </trkpt>
      <trkpt lat="59.8940725" lon="17.7402264">
        <ele>21.767</ele>
        <time>2013-03-10T13:14:01Z</time>
      </trkpt>
      <trkpt lat="59.8940829" lon="17.7402042">
        <ele>21.767</ele>
        <time>2013-03-10T13:14:02Z</time>
      </trkpt>
      <trkpt lat="59.8940902" lon="17.7401804">
        <ele>21.767</ele>
        <time>2013-03-10T13:14:03Z</time>
      </trkpt>
      <trkpt lat="59.8940965" lon="17.7401578">
        <ele>21.767</ele>
        <time>2013-03-10T13:14:04Z</time>
      </trkpt>
      <trkpt lat="59.8941031" lon="17.7401366">
        <ele>22.2476</ele>
        <time>2013-03-10T13:14:05Z</time>
      </trkpt>
      <trkpt lat="59.89411" lon="17.7401167">
        <ele>22.2476</ele>
        <time>2013-03-10T13:14:06Z</time>
      </trkpt>
      <trkpt lat="59.8941192" lon="17.7401002">
        <ele>22.7283</ele>
        <time>2013-03-10T13:14:07Z</time>
      </trkpt>
      <trkpt lat="59.8941275" lon="17.7400816">
        <ele>22.7283</ele>
        <time>2013-03-10T13:14:08Z</time>
      </trkpt>
      <trkpt lat="59.8941371" lon="17.7400643">
        <ele>22.7283</ele>
        <time>2013-03-10T13:14:09Z</time>
      </trkpt>
      <trkpt lat="59.8941457" lon="17.7400428">
        <ele>22.7283</ele>
        <time>2013-03-10T13:14:10Z</time>
      </trkpt>
      <trkpt lat="59.8941542" lon="17.740024">
        <ele>22.2476</ele>
        <time>2013-03-10T13:14:11Z</time>
      </trkpt>
      <trkpt lat="59.8941635" lon="17.7400065">
        <ele>22.2476</ele>
        <time>2013-03-10T13:14:12Z</time>
      </trkpt>
      <trkpt lat="59.8941725" lon="17.739989">
        <ele>21.767</ele>
        <time>2013-03-10T13:14:13Z</time>
      </trkpt>
      <trkpt lat="59.8941814" lon="17.7399711">
        <ele>21.767</ele>
        <time>2013-03-10T13:14:14Z</time>
      </trkpt>
      <trkpt lat="59.8941896" lon="17.7399524">
        <ele>21.767</ele>
        <time>2013-03-10T13:14:15Z</time>
      </trkpt>
      <trkpt lat="59.8941962" lon="17.739934">
        <ele>21.2864</ele>
        <time>2013-03-10T13:14:16Z</time>
      </trkpt>
      <trkpt lat="59.8942027" lon="17.7399132">
        <ele>21.2864</ele>
        <time>2013-03-10T13:14:17Z</time>
      </trkpt>
      <trkpt lat="59.8942055" lon="17.7398898">
        <ele>21.2864</ele>
        <time>2013-03-10T13:14:18Z</time>
      </trkpt>
      <trkpt lat="59.8942088" lon="17.7398682">
        <ele>21.2864</ele>
        <time>2013-03-10T13:14:19Z</time>
      </trkpt>
      <trkpt lat="59.894216" lon="17.7398504">
        <ele>21.2864</ele>
        <time>2013-03-10T13:14:20Z</time>
      </trkpt>
      <trkpt lat="59.8942254" lon="17.739832">
        <ele>21.2864</ele>
        <time>2013-03-10T13:14:21Z</time>
      </trkpt>
      <trkpt lat="59.8942351" lon="17.7398154">
        <ele>20.8057</ele>
        <time>2013-03-10T13:14:22Z</time>
      </trkpt>
      <trkpt lat="59.8942444" lon="17.7398034">
        <ele>20.8057</ele>
        <time>2013-03-10T13:14:23Z</time>
      </trkpt>
      <trkpt lat="59.8942547" lon="17.7397878">
        <ele>20.8057</ele>
        <time>2013-03-10T13:14:24Z</time>
      </trkpt>
      <trkpt lat="59.8942651" lon="17.7397702">
        <ele>20.8057</ele>
        <time>2013-03-10T13:14:25Z</time>
      </trkpt>
      <trkpt lat="59.8942763" lon="17.739749">
        <ele>21.2864</ele>
        <time>2013-03-10T13:14:26Z</time>
      </trkpt>
      <trkpt lat="59.8942884" lon="17.7397335">
        <ele>21.2864</ele>
        <time>2013-03-10T13:14:27Z</time>
      </trkpt>
      <trkpt lat="59.894298" lon="17.7397227">
        <ele>20.8057</ele>
        <time>2013-03-10T13:14:28Z</time>
      </trkpt>
      <trkpt lat="59.8943114" lon="17.7397143">
        <ele>20.8057</ele>
        <time>2013-03-10T13:14:29Z</time>
      </trkpt>
      <trkpt lat="59.8943254" lon="17.7397085">
        <ele>20.8057</ele>
        <time>2013-03-10T13:14:30Z</time>
      </trkpt>
      <trkpt lat="59.8943363" lon="17.739704">
        <ele>20.325</ele>
        <time>2013-03-10T13:14:31Z</time>
      </trkpt>
      <trkpt lat="59.8943456" lon="17.7396962">
        <ele>19.8444</ele>
        <time>2013-03-10T13:14:32Z</time>
      </trkpt>
      <trkpt lat="59.8943544" lon="17.7396896">
        <ele>19.8444</ele>
        <time>2013-03-10T13:14:33Z</time>
      </trkpt>
      <trkpt lat="59.8943636" lon="17.7396807">
        <ele>19.8444</ele>
        <time>2013-03-10T13:14:34Z</time>
      </trkpt>
      <trkpt lat="59.8943738" lon="17.7396686">
        <ele>19.8444</ele>
        <time>2013-03-10T13:14:35Z</time>
      </trkpt>
      <trkpt lat="59.8943837" lon="17.7396553">
        <ele>19.8444</ele>
        <time>2013-03-10T13:14:36Z</time>
      </trkpt>
      <trkpt lat="59.8943917" lon="17.73964">
        <ele>19.8444</ele>
        <time>2013-03-10T13:14:37Z</time>
      </trkpt>
      <trkpt lat="59.894401" lon="17.7396258">
        <ele>20.325</ele>
        <time>2013-03-10T13:14:38Z</time>
      </trkpt>
      <trkpt lat="59.8944109" lon="17.7396129">
        <ele>20.325</ele>
        <time>2013-03-10T13:14:39Z</time>
      </trkpt>
      <trkpt lat="59.8944213" lon="17.7396025">
        <ele>20.325</ele>
        <time>2013-03-10T13:14:40Z</time>
      </trkpt>
      <trkpt lat="59.8944319" lon="17.7395884">
        <ele>19.8444</ele>
        <time>2013-03-10T13:14:41Z</time>
      </trkpt>
      <trkpt lat="59.8944413" lon="17.7395733">
        <ele>19.8444</ele>
        <time>2013-03-10T13:14:42Z</time>
      </trkpt>
      <trkpt lat="59.8944518" lon="17.7395609">
        <ele>19.8444</ele>
        <time>2013-03-10T13:14:43Z</time>
      </trkpt>
      <trkpt lat="59.8944627" lon="17.7395471">
        <ele>19.3638</ele>
        <time>2013-03-10T13:14:44Z</time>
      </trkpt>
      <trkpt lat="59.8944736" lon="17.7395324">
        <ele>19.3638</ele>
        <time>2013-03-10T13:14:45Z</time>
      </trkpt>
      <trkpt lat="59.8944855" lon="17.7395196">
        <ele>19.3638</ele>
        <time>2013-03-10T13:14:46Z</time>
      </trkpt>
      <trkpt lat="59.894498" lon="17.7395075">
        <ele>18.8831</ele>
        <time>2013-03-10T13:14:47Z</time>
      </trkpt>
      <trkpt lat="59.8945101" lon="17.7394948">
        <ele>18.8831</ele>
        <time>2013-03-10T13:14:48Z</time>
      </trkpt>
      <trkpt lat="59.8945217" lon="17.7394807">
        <ele>18.8831</ele>
        <time>2013-03-10T13:14:49Z</time>
      </trkpt>
      <trkpt lat="59.8945352" lon="17.7394667">
        <ele>18.8831</ele>
        <time>2013-03-10T13:14:50Z</time>
      </trkpt>
      <trkpt lat="59.894548" lon="17.7394554">
        <ele>18.8831</ele>
        <time>2013-03-10T13:14:51Z</time>
      </trkpt>
      <trkpt lat="59.8945614" lon="17.7394419">
        <ele>19.3638</ele>
        <time>2013-03-10T13:14:52Z</time>
      </trkpt>
      <trkpt lat="59.8945739" lon="17.7394305">
        <ele>19.3638</ele>
        <time>2013-03-10T13:14:53Z</time>
      </trkpt>
      <trkpt lat="59.8945881" lon="17.7394218">
        <ele>19.3638</ele>
        <time>2013-03-10T13:14:54Z</time>
      </trkpt>
      <trkpt lat="59.8946003" lon="17.7394139">
        <ele>19.3638</ele>
        <time>2013-03-10T13:14:55Z</time>
      </trkpt>
      <trkpt lat="59.8946118" lon="17.7394041">
        <ele>18.8831</ele>
        <time>2013-03-10T13:14:56Z</time>
      </trkpt>
      <trkpt lat="59.8946226" lon="17.7393963">
        <ele>18.4023</ele>
        <time>2013-03-10T13:14:57Z</time>
      </trkpt>
      <trkpt lat="59.8946345" lon="17.7393901">
        <ele>17.9218</ele>
        <time>2013-03-10T13:14:58Z</time>
      </trkpt>
      <trkpt lat="59.8946476" lon="17.7393889">
        <ele>17.9218</ele>
        <time>2013-03-10T13:14:59Z</time>
      </trkpt>
      <trkpt lat="59.8946599" lon="17.7393959">
        <ele>17.9218</ele>
        <time>2013-03-10T13:15:00Z</time>
      </trkpt>
      <trkpt lat="59.8946712" lon="17.7394164">
        <ele>17.9218</ele>
        <time>2013-03-10T13:15:01Z</time>
      </trkpt>
      <trkpt lat="59.8946777" lon="17.7394439">
        <ele>18.4023</ele>
        <time>2013-03-10T13:15:02Z</time>
      </trkpt>
      <trkpt lat="59.8946796" lon="17.7394705">
        <ele>18.4023</ele>
        <time>2013-03-10T13:15:03Z</time>
      </trkpt>
      <trkpt lat="59.8946784" lon="17.7394942">
        <ele>18.4023</ele>
        <time>2013-03-10T13:15:04Z</time>
      </trkpt>
      <trkpt lat="59.894677" lon="17.739517">
        <ele>18.4023</ele>
        <time>2013-03-10T13:15:05Z</time>
      </trkpt>
      <trkpt lat="59.8946753" lon="17.7395408">
        <ele>17.9218</ele>
        <time>2013-03-10T13:15:06Z</time>
      </trkpt>
      <trkpt lat="59.8946729" lon="17.7395626">
        <ele>17.9218</ele>
        <time>2013-03-10T13:15:07Z</time>
      </trkpt>
      <trkpt lat="59.8946702" lon="17.7395853">
        <ele>17.4412</ele>
        <time>2013-03-10T13:15:08Z</time>
      </trkpt>
      <trkpt lat="59.8946678" lon="17.7396079">
        <ele>17.4412</ele>
        <time>2013-03-10T13:15:09Z</time>
      </trkpt>
      <trkpt lat="59.8946693" lon="17.7396283">
        <ele>17.9218</ele>
        <time>2013-03-10T13:15:10Z</time>
      </trkpt>
      <trkpt lat="59.8946817" lon="17.7396024">
        <ele>31.8607</ele>
        <time>2013-03-10T14:07:42Z</time>
      </trkpt>
      <trkpt lat="59.8946937" lon="17.7395983">
        <ele>31.3801</ele>
        <time>2013-03-10T14:07:43Z</time>
      </trkpt>
      <trkpt lat="59.8946909" lon="17.7395818">
        <ele>31.3801</ele>
        <time>2013-03-10T14:07:44Z</time>
      </trkpt>
      <trkpt lat="59.8946879" lon="17.7395832">
        <ele>30.8995</ele>
        <time>2013-03-10T14:07:45Z</time>
      </trkpt>
      <trkpt lat="59.8946863" lon="17.7395921">
        <ele>29.9381</ele>
        <time>2013-03-10T14:07:46Z</time>
      </trkpt>
      <trkpt lat="59.8946873" lon="17.739604">
        <ele>29.4575</ele>
        <time>2013-03-10T14:07:47Z</time>
      </trkpt>
      <trkpt lat="59.8946914" lon="17.7396147">
        <ele>28.9769</ele>
        <time>2013-03-10T14:07:48Z</time>
      </trkpt>
      <trkpt lat="59.8946937" lon="17.739624">
        <ele>28.4962</ele>
        <time>2013-03-10T14:07:49Z</time>
      </trkpt>
      <trkpt lat="59.8946968" lon="17.7396313">
        <ele>28.0155</ele>
        <time>2013-03-10T14:07:50Z</time>
      </trkpt>
      <trkpt lat="59.8946998" lon="17.7396376">
        <ele>27.5349</ele>
        <time>2013-03-10T14:07:51Z</time>
      </trkpt>
      <trkpt lat="59.8947045" lon="17.739638">
        <ele>27.0543</ele>
        <time>2013-03-10T14:07:52Z</time>
      </trkpt>
      <trkpt lat="59.894709" lon="17.7396297">
        <ele>27.0543</ele>
        <time>2013-03-10T14:07:53Z</time>
      </trkpt>
      <trkpt lat="59.8947118" lon="17.7396211">
        <ele>26.5736</ele>
        <time>2013-03-10T14:07:54Z</time>
      </trkpt>
      <trkpt lat="59.8947145" lon="17.7396074">
        <ele>26.5736</ele>
        <time>2013-03-10T14:07:55Z</time>
      </trkpt>
      <trkpt lat="59.8947149" lon="17.7395846">
        <ele>26.5736</ele>
        <time>2013-03-10T14:07:56Z</time>
      </trkpt>
      <trkpt lat="59.8947158" lon="17.7395604">
        <ele>27.0543</ele>
        <time>2013-03-10T14:07:57Z</time>
      </trkpt>
      <trkpt lat="59.8947175" lon="17.7395381">
        <ele>27.0543</ele>
        <time>2013-03-10T14:07:58Z</time>
      </trkpt>
      <trkpt lat="59.8947184" lon="17.7395209">
        <ele>26.5736</ele>
        <time>2013-03-10T14:07:59Z</time>
      </trkpt>
      <trkpt lat="59.8947196" lon="17.7395017">
        <ele>26.5736</ele>
        <time>2013-03-10T14:08:00Z</time>
      </trkpt>
      <trkpt lat="59.8947211" lon="17.7394805">
        <ele>26.5736</ele>
        <time>2013-03-10T14:08:01Z</time>
      </trkpt>
      <trkpt lat="59.8947222" lon="17.739458">
        <ele>26.5736</ele>
        <time>2013-03-10T14:08:02Z</time>
      </trkpt>
      <trkpt lat="59.894724" lon="17.7394355">
        <ele>26.0929</ele>
        <time>2013-03-10T14:08:03Z</time>
      </trkpt>
      <trkpt lat="59.8947256" lon="17.7394155">
        <ele>26.0929</ele>
        <time>2013-03-10T14:08:04Z</time>
      </trkpt>
      <trkpt lat="59.8947272" lon="17.7394007">
        <ele>26.0929</ele>
        <time>2013-03-10T14:08:05Z</time>
      </trkpt>
      <trkpt lat="59.8947295" lon="17.7393879">
        <ele>26.0929</ele>
        <time>2013-03-10T14:08:06Z</time>
      </trkpt>
      <trkpt lat="59.8947328" lon="17.7393761">
        <ele>25.6123</ele>
        <time>2013-03-10T14:08:07Z</time>
      </trkpt>
      <trkpt lat="59.8947366" lon="17.7393631">
        <ele>25.6123</ele>
        <time>2013-03-10T14:08:08Z</time>
      </trkpt>
      <trkpt lat="59.8947419" lon="17.7393486">
        <ele>25.6123</ele>
        <time>2013-03-10T14:08:09Z</time>
      </trkpt>
      <trkpt lat="59.8947506" lon="17.7393375">
        <ele>25.6123</ele>
        <time>2013-03-10T14:08:10Z</time>
      </trkpt>
      <trkpt lat="59.8947608" lon="17.7393318">
        <ele>25.6123</ele>
        <time>2013-03-10T14:08:11Z</time>
      </trkpt>
      <trkpt lat="59.8947708" lon="17.7393269">
        <ele>25.6123</ele>
        <time>2013-03-10T14:08:12Z</time>
      </trkpt>
      <trkpt lat="59.8947817" lon="17.7393213">
        <ele>25.6123</ele>
        <time>2013-03-10T14:08:13Z</time>
      </trkpt>
      <trkpt lat="59.8947922" lon="17.7393148">
        <ele>25.6123</ele>
        <time>2013-03-10T14:08:14Z</time>
      </trkpt>
      <trkpt lat="59.8948028" lon="17.7393082">
        <ele>25.1317</ele>
        <time>2013-03-10T14:08:15Z</time>
      </trkpt>
      <trkpt lat="59.8948134" lon="17.7393035">
        <ele>25.1317</ele>
        <time>2013-03-10T14:08:16Z</time>
      </trkpt>
      <trkpt lat="59.8948242" lon="17.7392989">
        <ele>25.1317</ele>
        <time>2013-03-10T14:08:17Z</time>
      </trkpt>
      <trkpt lat="59.8948349" lon="17.7392945">
        <ele>25.1317</ele>
        <time>2013-03-10T14:08:18Z</time>
      </trkpt>
      <trkpt lat="59.8948459" lon="17.7392901">
        <ele>25.1317</ele>
        <time>2013-03-10T14:08:19Z</time>
      </trkpt>
      <trkpt lat="59.8948562" lon="17.7392854">
        <ele>25.1317</ele>
        <time>2013-03-10T14:08:20Z</time>
      </trkpt>
      <trkpt lat="59.8948666" lon="17.7392809">
        <ele>25.1317</ele>
        <time>2013-03-10T14:08:21Z</time>
      </trkpt>
      <trkpt lat="59.894877" lon="17.7392759">
        <ele>24.651</ele>
        <time>2013-03-10T14:08:22Z</time>
      </trkpt>
      <trkpt lat="59.8948875" lon="17.73927">
        <ele>24.651</ele>
        <time>2013-03-10T14:08:23Z</time>
      </trkpt>
      <trkpt lat="59.8948981" lon="17.7392642">
        <ele>24.651</ele>
        <time>2013-03-10T14:08:24Z</time>
      </trkpt>
      <trkpt lat="59.8949084" lon="17.739259">
        <ele>24.651</ele>
        <time>2013-03-10T14:08:25Z</time>
      </trkpt>
      <trkpt lat="59.8949181" lon="17.7392528">
        <ele>24.651</ele>
        <time>2013-03-10T14:08:26Z</time>
      </trkpt>
      <trkpt lat="59.8949277" lon="17.7392455">
        <ele>24.1703</ele>
        <time>2013-03-10T14:08:27Z</time>
      </trkpt>
      <trkpt lat="59.8949371" lon="17.7392374">
        <ele>24.1703</ele>
        <time>2013-03-10T14:08:28Z</time>
      </trkpt>
      <trkpt lat="59.8949465" lon="17.7392279">
        <ele>24.1703</ele>
        <time>2013-03-10T14:08:29Z</time>
      </trkpt>
      <trkpt lat="59.8949563" lon="17.7392177">
        <ele>24.1703</ele>
        <time>2013-03-10T14:08:30Z</time>
      </trkpt>
      <trkpt lat="59.894966" lon="17.7392083">
        <ele>23.6896</ele>
        <time>2013-03-10T14:08:31Z</time>
      </trkpt>
      <trkpt lat="59.894976" lon="17.7392013">
        <ele>23.6896</ele>
        <time>2013-03-10T14:08:32Z</time>
      </trkpt>
      <trkpt lat="59.894987" lon="17.7391958">
        <ele>23.6896</ele>
        <time>2013-03-10T14:08:33Z</time>
      </trkpt>
      <trkpt lat="59.8949988" lon="17.73919">
        <ele>23.6896</ele>
        <time>2013-03-10T14:08:34Z</time>
      </trkpt>
      <trkpt lat="59.8950111" lon="17.739186">
        <ele>23.209</ele>
        <time>2013-03-10T14:08:35Z</time>
      </trkpt>
      <trkpt lat="59.8950224" lon="17.7391849">
        <ele>23.209</ele>
        <time>2013-03-10T14:08:36Z</time>
      </trkpt>
      <trkpt lat="59.8950326" lon="17.7391833">
        <ele>23.209</ele>
        <time>2013-03-10T14:08:37Z</time>
      </trkpt>
      <trkpt lat="59.8950422" lon="17.7391797">
        <ele>23.209</ele>
        <time>2013-03-10T14:08:38Z</time>
      </trkpt>
      <trkpt lat="59.8950516" lon="17.7391771">
        <ele>23.209</ele>
        <time>2013-03-10T14:08:39Z</time>
      </trkpt>
      <trkpt lat="59.8950608" lon="17.7391744">
        <ele>23.209</ele>
        <time>2013-03-10T14:08:40Z</time>
      </trkpt>
      <trkpt lat="59.8950703" lon="17.7391714">
        <ele>23.209</ele>
        <time>2013-03-10T14:08:41Z</time>
      </trkpt>
      <trkpt lat="59.8950801" lon="17.7391697">
        <ele>22.7283</ele>
        <time>2013-03-10T14:08:42Z</time>
      </trkpt>
      <trkpt lat="59.8950894" lon="17.7391673">
        <ele>22.7283</ele>
        <time>2013-03-10T14:08:43Z</time>
      </trkpt>
      <trkpt lat="59.8950985" lon="17.739163">
        <ele>22.7283</ele>
        <time>2013-03-10T14:08:44Z</time>
      </trkpt>
      <trkpt lat="59.8951074" lon="17.7391584">
        <ele>22.7283</ele>
        <time>2013-03-10T14:08:45Z</time>
      </trkpt>
      <trkpt lat="59.8951169" lon="17.7391553">
        <ele>22.7283</ele>
        <time>2013-03-10T14:08:46Z</time>
      </trkpt>
      <trkpt lat="59.8951272" lon="17.7391523">
        <ele>22.7283</ele>
        <time>2013-03-10T14:08:47Z</time>
      </trkpt>
      <trkpt lat="59.8951375" lon="17.7391481">
        <ele>22.2476</ele>
        <time>2013-03-10T14:08:48Z</time>
      </trkpt>
      <trkpt lat="59.895148" lon="17.7391433">
        <ele>22.2476</ele>
        <time>2013-03-10T14:08:49Z</time>
      </trkpt>
      <trkpt lat="59.8951588" lon="17.7391392">
        <ele>22.2476</ele>
        <time>2013-03-10T14:08:50Z</time>
      </trkpt>
      <trkpt lat="59.8951693" lon="17.739136">
        <ele>22.2476</ele>
        <time>2013-03-10T14:08:51Z</time>
      </trkpt>
      <trkpt lat="59.8951799" lon="17.7391335">
        <ele>22.2476</ele>
        <time>2013-03-10T14:08:52Z</time>
      </trkpt>
      <trkpt lat="59.8951905" lon="17.7391317">
        <ele>22.2476</ele>
        <time>2013-03-10T14:08:53Z</time>
      </trkpt>
      <trkpt lat="59.8952011" lon="17.7391295">
        <ele>22.2476</ele>
        <time>2013-03-10T14:08:54Z</time>
      </trkpt>
      <trkpt lat="59.8952117" lon="17.7391257">
        <ele>22.2476</ele>
        <time>2013-03-10T14:08:55Z</time>
      </trkpt>
      <trkpt lat="59.8952227" lon="17.73912">
        <ele>21.767</ele>
        <time>2013-03-10T14:08:56Z</time>
      </trkpt>
      <trkpt lat="59.8952333" lon="17.7391145">
        <ele>21.767</ele>
        <time>2013-03-10T14:08:57Z</time>
      </trkpt>
      <trkpt lat="59.8952442" lon="17.7391119">
        <ele>21.767</ele>
        <time>2013-03-10T14:08:58Z</time>
      </trkpt>
      <trkpt lat="59.8952566" lon="17.7391101">
        <ele>21.767</ele>
        <time>2013-03-10T14:08:59Z</time>
      </trkpt>
      <trkpt lat="59.8952712" lon="17.7391066">
        <ele>22.2476</ele>
        <time>2013-03-10T14:09:00Z</time>
      </trkpt>
      <trkpt lat="59.8952855" lon="17.7391039">
        <ele>21.767</ele>
        <time>2013-03-10T14:09:01Z</time>
      </trkpt>
      <trkpt lat="59.8952982" lon="17.7390977">
        <ele>21.767</ele>
        <time>2013-03-10T14:09:02Z</time>
      </trkpt>
      <trkpt lat="59.8953107" lon="17.7390943">
        <ele>21.767</ele>
        <time>2013-03-10T14:09:03Z</time>
      </trkpt>
      <trkpt lat="59.895323" lon="17.73909">
        <ele>21.767</ele>
        <time>2013-03-10T14:09:04Z</time>
      </trkpt>
      <trkpt lat="59.8953351" lon="17.7390851">
        <ele>21.767</ele>
        <time>2013-03-10T14:09:05Z</time>
      </trkpt>
      <trkpt lat="59.8953477" lon="17.7390804">
        <ele>21.767</ele>
        <time>2013-03-10T14:09:06Z</time>
      </trkpt>
      <trkpt lat="59.8953599" lon="17.7390756">
        <ele>21.767</ele>
        <time>2013-03-10T14:09:07Z</time>
      </trkpt>
      <trkpt lat="59.8953721" lon="17.7390711">
        <ele>21.767</ele>
        <time>2013-03-10T14:09:08Z</time>
      </trkpt>
      <trkpt lat="59.895385" lon="17.7390667">
        <ele>22.2476</ele>
        <time>2013-03-10T14:09:09Z</time>
      </trkpt>
      <trkpt lat="59.8953982" lon="17.7390641">
        <ele>22.2476</ele>
        <time>2013-03-10T14:09:10Z</time>
      </trkpt>
      <trkpt lat="59.8954115" lon="17.7390584">
        <ele>22.2476</ele>
        <time>2013-03-10T14:09:11Z</time>
      </trkpt>
      <trkpt lat="59.8954246" lon="17.7390538">
        <ele>22.2476</ele>
        <time>2013-03-10T14:09:12Z</time>
      </trkpt>
      <trkpt lat="59.8954381" lon="17.7390517">
        <ele>22.2476</ele>
        <time>2013-03-10T14:09:13Z</time>
      </trkpt>
      <trkpt lat="59.8954515" lon="17.7390492">
        <ele>22.2476</ele>
        <time>2013-03-10T14:09:14Z</time>
      </trkpt>
      <trkpt lat="59.8954644" lon="17.739044">
        <ele>22.2476</ele>
        <time>2013-03-10T14:09:15Z</time>
      </trkpt>
      <trkpt lat="59.8954769" lon="17.7390379">
        <ele>22.2476</ele>
        <time>2013-03-10T14:09:16Z</time>
      </trkpt>
      <trkpt lat="59.8954898" lon="17.739033">
        <ele>22.2476</ele>
        <time>2013-03-10T14:09:17Z</time>
      </trkpt>
      <trkpt lat="59.8955026" lon="17.7390303">
        <ele>22.2476</ele>
        <time>2013-03-10T14:09:18Z</time>
      </trkpt>
      <trkpt lat="59.8955157" lon="17.7390294">
        <ele>22.2476</ele>
        <time>2013-03-10T14:09:19Z</time>
      </trkpt>
      <trkpt lat="59.8955287" lon="17.739028">
        <ele>21.767</ele>
        <time>2013-03-10T14:09:20Z</time>
      </trkpt>
      <trkpt lat="59.8955417" lon="17.7390255">
        <ele>22.2476</ele>
        <time>2013-03-10T14:09:21Z</time>
      </trkpt>
      <trkpt lat="59.8955542" lon="17.7390234">
        <ele>22.2476</ele>
        <time>2013-03-10T14:09:22Z</time>
      </trkpt>
      <trkpt lat="59.8955664" lon="17.73902">
        <ele>21.767</ele>
        <time>2013-03-10T14:09:23Z</time>
      </trkpt>
      <trkpt lat="59.8955779" lon="17.739015">
        <ele>22.2476</ele>
        <time>2013-03-10T14:09:24Z</time>
      </trkpt>
      <trkpt lat="59.8955909" lon="17.7390127">
        <ele>22.2476</ele>
        <time>2013-03-10T14:09:25Z</time>
      </trkpt>
      <trkpt lat="59.8956048" lon="17.7390115">
        <ele>22.2476</ele>
        <time>2013-03-10T14:09:26Z</time>
      </trkpt>
      <trkpt lat="59.8956176" lon="17.7390092">
        <ele>22.2476</ele>
        <time>2013-03-10T14:09:27Z</time>
      </trkpt>
      <trkpt lat="59.8956295" lon="17.7390058">
        <ele>22.2476</ele>
        <time>2013-03-10T14:09:28Z</time>
      </trkpt>
      <trkpt lat="59.895642" lon="17.7390052">
        <ele>21.767</ele>
        <time>2013-03-10T14:09:29Z</time>
      </trkpt>
      <trkpt lat="59.8956546" lon="17.7390036">
        <ele>22.2476</ele>
        <time>2013-03-10T14:09:30Z</time>
      </trkpt>
      <trkpt lat="59.895666" lon="17.7389987">
        <ele>22.2476</ele>
        <time>2013-03-10T14:09:31Z</time>
      </trkpt>
      <trkpt lat="59.8956784" lon="17.7389942">
        <ele>22.2476</ele>
        <time>2013-03-10T14:09:32Z</time>
      </trkpt>
      <trkpt lat="59.8956918" lon="17.7389901">
        <ele>22.2476</ele>
        <time>2013-03-10T14:09:33Z</time>
      </trkpt>
      <trkpt lat="59.8957058" lon="17.7389877">
        <ele>22.7283</ele>
        <time>2013-03-10T14:09:34Z</time>
      </trkpt>
      <trkpt lat="59.8957186" lon="17.7389856">
        <ele>23.209</ele>
        <time>2013-03-10T14:09:35Z</time>
      </trkpt>
      <trkpt lat="59.8957315" lon="17.7389796">
        <ele>23.209</ele>
        <time>2013-03-10T14:09:36Z</time>
      </trkpt>
      <trkpt lat="59.8957452" lon="17.7389746">
        <ele>23.209</ele>
        <time>2013-03-10T14:09:37Z</time>
      </trkpt>
      <trkpt lat="59.8957597" lon="17.7389721">
        <ele>23.209</ele>
        <time>2013-03-10T14:09:38Z</time>
      </trkpt>
      <trkpt lat="59.8957728" lon="17.7389698">
        <ele>23.209</ele>
        <time>2013-03-10T14:09:39Z</time>
      </trkpt>
      <trkpt lat="59.8957855" lon="17.7389661">
        <ele>23.209</ele>
        <time>2013-03-10T14:09:40Z</time>
      </trkpt>
      <trkpt lat="59.8957977" lon="17.7389606">
        <ele>23.209</ele>
        <time>2013-03-10T14:09:41Z</time>
      </trkpt>
      <trkpt lat="59.8958103" lon="17.7389542">
        <ele>23.209</ele>
        <time>2013-03-10T14:09:42Z</time>
      </trkpt>
      <trkpt lat="59.8958233" lon="17.7389482">
        <ele>23.209</ele>
        <time>2013-03-10T14:09:43Z</time>
      </trkpt>
      <trkpt lat="59.8958364" lon="17.7389426">
        <ele>23.209</ele>
        <time>2013-03-10T14:09:44Z</time>
      </trkpt>
      <trkpt lat="59.8958488" lon="17.7389377">
        <ele>23.209</ele>
        <time>2013-03-10T14:09:45Z</time>
      </trkpt>
      <trkpt lat="59.8958617" lon="17.7389326">
        <ele>23.209</ele>
        <time>2013-03-10T14:09:46Z</time>
      </trkpt>
      <trkpt lat="59.8958752" lon="17.7389278">
        <ele>23.209</ele>
        <time>2013-03-10T14:09:47Z</time>
      </trkpt>
      <trkpt lat="59.8958886" lon="17.7389232">
        <ele>23.209</ele>
        <time>2013-03-10T14:09:48Z</time>
      </trkpt>
      <trkpt lat="59.8959018" lon="17.738919">
        <ele>23.209</ele>
        <time>2013-03-10T14:09:49Z</time>
      </trkpt>
      <trkpt lat="59.8959149" lon="17.738915">
        <ele>23.6896</ele>
        <time>2013-03-10T14:09:50Z</time>
      </trkpt>
      <trkpt lat="59.8959274" lon="17.7389112">
        <ele>23.6896</ele>
        <time>2013-03-10T14:09:51Z</time>
      </trkpt>
      <trkpt lat="59.8959401" lon="17.7389073">
        <ele>23.6896</ele>
        <time>2013-03-10T14:09:52Z</time>
      </trkpt>
      <trkpt lat="59.8959535" lon="17.7389035">
        <ele>23.6896</ele>
        <time>2013-03-10T14:09:53Z</time>
      </trkpt>
      <trkpt lat="59.8959668" lon="17.7388988">
        <ele>23.6896</ele>
        <time>2013-03-10T14:09:54Z</time>
      </trkpt>
      <trkpt lat="59.89598" lon="17.7388939">
        <ele>23.6896</ele>
        <time>2013-03-10T14:09:55Z</time>
      </trkpt>
      <trkpt lat="59.8959932" lon="17.7388903">
        <ele>23.6896</ele>
        <time>2013-03-10T14:09:56Z</time>
      </trkpt>
      <trkpt lat="59.8960063" lon="17.7388874">
        <ele>23.6896</ele>
        <time>2013-03-10T14:09:57Z</time>
      </trkpt>
      <trkpt lat="59.8960194" lon="17.7388839">
        <ele>23.6896</ele>
        <time>2013-03-10T14:09:58Z</time>
      </trkpt>
      <trkpt lat="59.8960328" lon="17.7388801">
        <ele>23.6896</ele>
        <time>2013-03-10T14:09:59Z</time>
      </trkpt>
      <trkpt lat="59.8960462" lon="17.7388772">
        <ele>23.6896</ele>
        <time>2013-03-10T14:10:00Z</time>
      </trkpt>
      <trkpt lat="59.896059" lon="17.7388727">
        <ele>23.6896</ele>
        <time>2013-03-10T14:10:01Z</time>
      </trkpt>
      <trkpt lat="59.8960724" lon="17.7388694">
        <ele>23.209</ele>
        <time>2013-03-10T14:10:02Z</time>
      </trkpt>
      <trkpt lat="59.8960861" lon="17.7388678">
        <ele>23.209</ele>
        <time>2013-03-10T14:10:03Z</time>
      </trkpt>
      <trkpt lat="59.8960993" lon="17.7388659">
        <ele>23.209</ele>
        <time>2013-03-10T14:10:04Z</time>
      </trkpt>
      <trkpt lat="59.8961123" lon="17.7388632">
        <ele>23.209</ele>
        <time>2013-03-10T14:10:05Z</time>
      </trkpt>
      <trkpt lat="59.896125" lon="17.7388596">
        <ele>23.209</ele>
        <time>2013-03-10T14:10:06Z</time>
      </trkpt>
      <trkpt lat="59.8961379" lon="17.7388551">
        <ele>22.7283</ele>
        <time>2013-03-10T14:10:07Z</time>
      </trkpt>
      <trkpt lat="59.8961509" lon="17.7388503">
        <ele>23.209</ele>
        <time>2013-03-10T14:10:08Z</time>
      </trkpt>
      <trkpt lat="59.8961641" lon="17.7388451">
        <ele>23.209</ele>
        <time>2013-03-10T14:10:09Z</time>
      </trkpt>
      <trkpt lat="59.8961767" lon="17.7388398">
        <ele>23.209</ele>
        <time>2013-03-10T14:10:10Z</time>
      </trkpt>
      <trkpt lat="59.8961896" lon="17.7388361">
        <ele>23.209</ele>
        <time>2013-03-10T14:10:11Z</time>
      </trkpt>
      <trkpt lat="59.8962029" lon="17.7388328">
        <ele>23.209</ele>
        <time>2013-03-10T14:10:12Z</time>
      </trkpt>
      <trkpt lat="59.8962159" lon="17.7388285">
        <ele>23.209</ele>
        <time>2013-03-10T14:10:13Z</time>
      </trkpt>
      <trkpt lat="59.8962286" lon="17.7388243">
        <ele>23.209</ele>
        <time>2013-03-10T14:10:14Z</time>
      </trkpt>
      <trkpt lat="59.8962413" lon="17.7388197">
        <ele>23.209</ele>
        <time>2013-03-10T14:10:15Z</time>
      </trkpt>
      <trkpt lat="59.896254" lon="17.7388146">
        <ele>23.209</ele>
        <time>2013-03-10T14:10:16Z</time>
      </trkpt>
      <trkpt lat="59.896267" lon="17.7388095">
        <ele>23.209</ele>
        <time>2013-03-10T14:10:17Z</time>
      </trkpt>
      <trkpt lat="59.8962798" lon="17.738805">
        <ele>23.209</ele>
        <time>2013-03-10T14:10:18Z</time>
      </trkpt>
      <trkpt lat="59.8962926" lon="17.7387995">
        <ele>23.209</ele>
        <time>2013-03-10T14:10:19Z</time>
      </trkpt>
      <trkpt lat="59.8963062" lon="17.7387938">
        <ele>23.209</ele>
        <time>2013-03-10T14:10:20Z</time>
      </trkpt>
      <trkpt lat="59.8963197" lon="17.7387881">
        <ele>23.209</ele>
        <time>2013-03-10T14:10:21Z</time>
      </trkpt>
      <trkpt lat="59.8963324" lon="17.7387814">
        <ele>23.209</ele>
        <time>2013-03-10T14:10:22Z</time>
      </trkpt>
      <trkpt lat="59.8963446" lon="17.7387726">
        <ele>23.209</ele>
        <time>2013-03-10T14:10:23Z</time>
      </trkpt>
      <trkpt lat="59.8963565" lon="17.7387651">
        <ele>23.209</ele>
        <time>2013-03-10T14:10:24Z</time>
      </trkpt>
      <trkpt lat="59.8963683" lon="17.7387563">
        <ele>23.209</ele>
        <time>2013-03-10T14:10:25Z</time>
      </trkpt>
      <trkpt lat="59.8963793" lon="17.7387457">
        <ele>23.209</ele>
        <time>2013-03-10T14:10:26Z</time>
      </trkpt>
      <trkpt lat="59.8963892" lon="17.7387368">
        <ele>23.209</ele>
        <time>2013-03-10T14:10:27Z</time>
      </trkpt>
      <trkpt lat="59.8963995" lon="17.738728">
        <ele>23.209</ele>
        <time>2013-03-10T14:10:28Z</time>
      </trkpt>
      <trkpt lat="59.8964088" lon="17.7387164">
        <ele>23.209</ele>
        <time>2013-03-10T14:10:29Z</time>
      </trkpt>
      <trkpt lat="59.8964186" lon="17.738705">
        <ele>23.209</ele>
        <time>2013-03-10T14:10:30Z</time>
      </trkpt>
      <trkpt lat="59.8964285" lon="17.7386927">
        <ele>23.209</ele>
        <time>2013-03-10T14:10:31Z</time>
      </trkpt>
      <trkpt lat="59.8964387" lon="17.7386788">
        <ele>23.209</ele>
        <time>2013-03-10T14:10:32Z</time>
      </trkpt>
      <trkpt lat="59.8964486" lon="17.7386638">
        <ele>22.7283</ele>
        <time>2013-03-10T14:10:33Z</time>
      </trkpt>
      <trkpt lat="59.8964589" lon="17.7386487">
        <ele>22.7283</ele>
        <time>2013-03-10T14:10:34Z</time>
      </trkpt>
      <trkpt lat="59.8964698" lon="17.7386343">
        <ele>22.7283</ele>
        <time>2013-03-10T14:10:35Z</time>
      </trkpt>
      <trkpt lat="59.8964797" lon="17.738618">
        <ele>22.2476</ele>
        <time>2013-03-10T14:10:36Z</time>
      </trkpt>
      <trkpt lat="59.8964878" lon="17.7385996">
        <ele>22.2476</ele>
        <time>2013-03-10T14:10:37Z</time>
      </trkpt>
      <trkpt lat="59.8964958" lon="17.7385797">
        <ele>22.2476</ele>
        <time>2013-03-10T14:10:38Z</time>
      </trkpt>
      <trkpt lat="59.8965045" lon="17.7385592">
        <ele>22.2476</ele>
        <time>2013-03-10T14:10:39Z</time>
      </trkpt>
      <trkpt lat="59.8965132" lon="17.7385398">
        <ele>22.2476</ele>
        <time>2013-03-10T14:10:40Z</time>
      </trkpt>
      <trkpt lat="59.896522" lon="17.7385208">
        <ele>22.2476</ele>
        <time>2013-03-10T14:10:41Z</time>
      </trkpt>
      <trkpt lat="59.89653" lon="17.7384991">
        <ele>22.2476</ele>
        <time>2013-03-10T14:10:42Z</time>
      </trkpt>
      <trkpt lat="59.8965372" lon="17.7384773">
        <ele>22.2476</ele>
        <time>2013-03-10T14:10:43Z</time>
      </trkpt>
      <trkpt lat="59.8965444" lon="17.7384557">
        <ele>22.2476</ele>
        <time>2013-03-10T14:10:44Z</time>
      </trkpt>
      <trkpt lat="59.8965523" lon="17.7384343">
        <ele>22.2476</ele>
        <time>2013-03-10T14:10:45Z</time>
      </trkpt>
      <trkpt lat="59.8965601" lon="17.7384135">
        <ele>22.2476</ele>
        <time>2013-03-10T14:10:46Z</time>
      </trkpt>
      <trkpt lat="59.8965658" lon="17.7383923">
        <ele>21.767</ele>
        <time>2013-03-10T14:10:47Z</time>
      </trkpt>
      <trkpt lat="59.8965726" lon="17.7383664">
        <ele>21.767</ele>
        <time>2013-03-10T14:10:48Z</time>
      </trkpt>
      <trkpt lat="59.8965803" lon="17.7383406">
        <ele>21.767</ele>
        <time>2013-03-10T14:10:49Z</time>
      </trkpt>
      <trkpt lat="59.8965866" lon="17.7383167">
        <ele>21.767</ele>
        <time>2013-03-10T14:10:50Z</time>
      </trkpt>
      <trkpt lat="59.8965922" lon="17.7382935">
        <ele>21.2864</ele>
        <time>2013-03-10T14:10:51Z</time>
      </trkpt>
      <trkpt lat="59.8965959" lon="17.7382691">
        <ele>21.2864</ele>
        <time>2013-03-10T14:10:52Z</time>
      </trkpt>
      <trkpt lat="59.8965997" lon="17.7382448">
        <ele>21.2864</ele>
        <time>2013-03-10T14:10:53Z</time>
      </trkpt>
      <trkpt lat="59.8966032" lon="17.7382238">
        <ele>21.2864</ele>
        <time>2013-03-10T14:10:54Z</time>
      </trkpt>
      <trkpt lat="59.8966083" lon="17.738201">
        <ele>21.2864</ele>
        <time>2013-03-10T14:10:55Z</time>
      </trkpt>
      <trkpt lat="59.8966148" lon="17.7381784">
        <ele>20.8057</ele>
        <time>2013-03-10T14:10:56Z</time>
      </trkpt>
      <trkpt lat="59.8966205" lon="17.738154">
        <ele>21.2864</ele>
        <time>2013-03-10T14:10:57Z</time>
      </trkpt>
      <trkpt lat="59.8966267" lon="17.7381278">
        <ele>21.2864</ele>
        <time>2013-03-10T14:10:58Z</time>
      </trkpt>
      <trkpt lat="59.8966346" lon="17.7381003">
        <ele>21.2864</ele>
        <time>2013-03-10T14:10:59Z</time>
      </trkpt>
      <trkpt lat="59.8966399" lon="17.7380759">
        <ele>21.2864</ele>
        <time>2013-03-10T14:11:00Z</time>
      </trkpt>
      <trkpt lat="59.896643" lon="17.7380526">
        <ele>21.2864</ele>
        <time>2013-03-10T14:11:01Z</time>
      </trkpt>
      <trkpt lat="59.8966476" lon="17.7380287">
        <ele>21.2864</ele>
        <time>2013-03-10T14:11:02Z</time>
      </trkpt>
      <trkpt lat="59.8966528" lon="17.7380057">
        <ele>21.767</ele>
        <time>2013-03-10T14:11:03Z</time>
      </trkpt>
      <trkpt lat="59.8966577" lon="17.7379837">
        <ele>21.2864</ele>
        <time>2013-03-10T14:11:04Z</time>
      </trkpt>
      <trkpt lat="59.8966621" lon="17.7379615">
        <ele>21.2864</ele>
        <time>2013-03-10T14:11:05Z</time>
      </trkpt>
      <trkpt lat="59.8966673" lon="17.7379391">
        <ele>21.2864</ele>
        <time>2013-03-10T14:11:06Z</time>
      </trkpt>
      <trkpt lat="59.8966731" lon="17.7379171">
        <ele>21.2864</ele>
        <time>2013-03-10T14:11:07Z</time>
      </trkpt>
      <trkpt lat="59.8966782" lon="17.7378962">
        <ele>21.2864</ele>
        <time>2013-03-10T14:11:08Z</time>
      </trkpt>
      <trkpt lat="59.8966833" lon="17.7378757">
        <ele>21.2864</ele>
        <time>2013-03-10T14:11:09Z</time>
      </trkpt>
      <trkpt lat="59.8966904" lon="17.737855">
        <ele>21.2864</ele>
        <time>2013-03-10T14:11:10Z</time>
      </trkpt>
      <trkpt lat="59.8966979" lon="17.7378349">
        <ele>21.2864</ele>
        <time>2013-03-10T14:11:11Z</time>
      </trkpt>
      <trkpt lat="59.8967057" lon="17.7378123">
        <ele>21.2864</ele>
        <time>2013-03-10T14:11:12Z</time>
      </trkpt>
      <trkpt lat="59.8967135" lon="17.7377899">
        <ele>21.2864</ele>
        <time>2013-03-10T14:11:13Z</time>
      </trkpt>
      <trkpt lat="59.8967206" lon="17.7377693">
        <ele>21.2864</ele>
        <time>2013-03-10T14:11:14Z</time>
      </trkpt>
      <trkpt lat="59.8967284" lon="17.737748">
        <ele>21.2864</ele>
        <time>2013-03-10T14:11:15Z</time>
      </trkpt>
      <trkpt lat="59.8967363" lon="17.7377265">
        <ele>21.2864</ele>
        <time>2013-03-10T14:11:16Z</time>
      </trkpt>
      <trkpt lat="59.8967434" lon="17.7377035">
        <ele>21.767</ele>
        <time>2013-03-10T14:11:17Z</time>
      </trkpt>
      <trkpt lat="59.8967502" lon="17.7376809">
        <ele>21.767</ele>
        <time>2013-03-10T14:11:18Z</time>
      </trkpt>
      <trkpt lat="59.8967565" lon="17.7376597">
        <ele>21.767</ele>
        <time>2013-03-10T14:11:19Z</time>
      </trkpt>
      <trkpt lat="59.8967619" lon="17.737639">
        <ele>21.767</ele>
        <time>2013-03-10T14:11:20Z</time>
      </trkpt>
      <trkpt lat="59.8967676" lon="17.7376179">
        <ele>21.767</ele>
        <time>2013-03-10T14:11:21Z</time>
      </trkpt>
      <trkpt lat="59.8967744" lon="17.7375955">
        <ele>21.767</ele>
        <time>2013-03-10T14:11:22Z</time>
      </trkpt>
      <trkpt lat="59.8967808" lon="17.7375728">
        <ele>21.767</ele>
        <time>2013-03-10T14:11:23Z</time>
      </trkpt>
      <trkpt lat="59.8967864" lon="17.7375502">
        <ele>21.767</ele>
        <time>2013-03-10T14:11:24Z</time>
      </trkpt>
      <trkpt lat="59.8967929" lon="17.7375279">
        <ele>22.2476</ele>
        <time>2013-03-10T14:11:25Z</time>
      </trkpt>
      <trkpt lat="59.8968002" lon="17.7375082">
        <ele>22.2476</ele>
        <time>2013-03-10T14:11:26Z</time>
      </trkpt>
      <trkpt lat="59.896807" lon="17.7374893">
        <ele>22.2476</ele>
        <time>2013-03-10T14:11:27Z</time>
      </trkpt>
      <trkpt lat="59.896813" lon="17.7374714">
        <ele>21.767</ele>
        <time>2013-03-10T14:11:28Z</time>
      </trkpt>
      <trkpt lat="59.8968195" lon="17.7374522">
        <ele>21.767</ele>
        <time>2013-03-10T14:11:29Z</time>
      </trkpt>
      <trkpt lat="59.8968269" lon="17.7374319">
        <ele>21.767</ele>
        <time>2013-03-10T14:11:30Z</time>
      </trkpt>
      <trkpt lat="59.8968336" lon="17.7374133">
        <ele>21.767</ele>
        <time>2013-03-10T14:11:31Z</time>
      </trkpt>
      <trkpt lat="59.8968413" lon="17.7373924">
        <ele>21.767</ele>
        <time>2013-03-10T14:11:32Z</time>
      </trkpt>
      <trkpt lat="59.8968494" lon="17.7373723">
        <ele>22.2476</ele>
        <time>2013-03-10T14:11:33Z</time>
      </trkpt>
      <trkpt lat="59.8968559" lon="17.7373526">
        <ele>22.2476</ele>
        <time>2013-03-10T14:11:34Z</time>
      </trkpt>
      <trkpt lat="59.8968631" lon="17.7373325">
        <ele>22.2476</ele>
        <time>2013-03-10T14:11:35Z</time>
      </trkpt>
      <trkpt lat="59.8968708" lon="17.7373127">
        <ele>22.2476</ele>
        <time>2013-03-10T14:11:36Z</time>
      </trkpt>
      <trkpt lat="59.8968781" lon="17.7372932">
        <ele>22.2476</ele>
        <time>2013-03-10T14:11:37Z</time>
      </trkpt>
      <trkpt lat="59.8968849" lon="17.7372738">
        <ele>22.2476</ele>
        <time>2013-03-10T14:11:38Z</time>
      </trkpt>
      <trkpt lat="59.8968946" lon="17.7372513">
        <ele>22.7283</ele>
        <time>2013-03-10T14:11:39Z</time>
      </trkpt>
      <trkpt lat="59.8969033" lon="17.7372298">
        <ele>22.7283</ele>
        <time>2013-03-10T14:11:40Z</time>
      </trkpt>
      <trkpt lat="59.8969097" lon="17.7372082">
        <ele>22.7283</ele>
        <time>2013-03-10T14:11:41Z</time>
      </trkpt>
      <trkpt lat="59.8969168" lon="17.7371863">
        <ele>22.7283</ele>
        <time>2013-03-10T14:11:42Z</time>
      </trkpt>
      <trkpt lat="59.8969242" lon="17.7371647">
        <ele>23.209</ele>
        <time>2013-03-10T14:11:43Z</time>
      </trkpt>
      <trkpt lat="59.8969304" lon="17.7371417">
        <ele>23.209</ele>
        <time>2013-03-10T14:11:44Z</time>
      </trkpt>
      <trkpt lat="59.8969357" lon="17.7371185">
        <ele>22.7283</ele>
        <time>2013-03-10T14:11:45Z</time>
      </trkpt>
      <trkpt lat="59.8969416" lon="17.7370961">
        <ele>22.7283</ele>
        <time>2013-03-10T14:11:46Z</time>
      </trkpt>
      <trkpt lat="59.8969482" lon="17.737073">
        <ele>22.7283</ele>
        <time>2013-03-10T14:11:47Z</time>
      </trkpt>
      <trkpt lat="59.8969549" lon="17.7370518">
        <ele>22.7283</ele>
        <time>2013-03-10T14:11:48Z</time>
      </trkpt>
      <trkpt lat="59.8969615" lon="17.7370304">
        <ele>22.7283</ele>
        <time>2013-03-10T14:11:49Z</time>
      </trkpt>
      <trkpt lat="59.8969677" lon="17.737008">
        <ele>22.7283</ele>
        <time>2013-03-10T14:11:50Z</time>
      </trkpt>
      <trkpt lat="59.8969729" lon="17.7369762">
        <ele>23.6896</ele>
        <time>2013-03-10T14:11:51Z</time>
      </trkpt>
      <trkpt lat="59.8969786" lon="17.7369456">
        <ele>24.1703</ele>
        <time>2013-03-10T14:11:52Z</time>
      </trkpt>
      <trkpt lat="59.8969843" lon="17.7369172">
        <ele>24.651</ele>
        <time>2013-03-10T14:11:53Z</time>
      </trkpt>
      <trkpt lat="59.896991" lon="17.736891">
        <ele>25.1317</ele>
        <time>2013-03-10T14:11:54Z</time>
      </trkpt>
      <trkpt lat="59.8969986" lon="17.7368651">
        <ele>25.1317</ele>
        <time>2013-03-10T14:11:55Z</time>
      </trkpt>
      <trkpt lat="59.8970061" lon="17.7368386">
        <ele>25.6123</ele>
        <time>2013-03-10T14:11:56Z</time>
      </trkpt>
      <trkpt lat="59.8970123" lon="17.7368125">
        <ele>25.6123</ele>
        <time>2013-03-10T14:11:57Z</time>
      </trkpt>
      <trkpt lat="59.8970181" lon="17.7367885">
        <ele>26.0929</ele>
        <time>2013-03-10T14:11:58Z</time>
      </trkpt>
      <trkpt lat="59.8970257" lon="17.7367651">
        <ele>26.0929</ele>
        <time>2013-03-10T14:11:59Z</time>
      </trkpt>
      <trkpt lat="59.8970335" lon="17.7367377">
        <ele>26.5736</ele>
        <time>2013-03-10T14:12:00Z</time>
      </trkpt>
      <trkpt lat="59.8970396" lon="17.7367121">
        <ele>27.0543</ele>
        <time>2013-03-10T14:12:01Z</time>
      </trkpt>
      <trkpt lat="59.8970435" lon="17.7366902">
        <ele>26.5736</ele>
        <time>2013-03-10T14:12:02Z</time>
      </trkpt>
      <trkpt lat="59.8970475" lon="17.7366672">
        <ele>26.5736</ele>
        <time>2013-03-10T14:12:03Z</time>
      </trkpt>
      <trkpt lat="59.8970531" lon="17.7366416">
        <ele>27.0543</ele>
        <time>2013-03-10T14:12:04Z</time>
      </trkpt>
      <trkpt lat="59.897059" lon="17.7366176">
        <ele>27.0543</ele>
        <time>2013-03-10T14:12:05Z</time>
      </trkpt>
      <trkpt lat="59.8970645" lon="17.7365955">
        <ele>27.0543</ele>
        <time>2013-03-10T14:12:06Z</time>
      </trkpt>
      <trkpt lat="59.8970703" lon="17.7365721">
        <ele>27.0543</ele>
        <time>2013-03-10T14:12:07Z</time>
      </trkpt>
      <trkpt lat="59.8970764" lon="17.7365484">
        <ele>27.0543</ele>
        <time>2013-03-10T14:12:08Z</time>
      </trkpt>
      <trkpt lat="59.8970822" lon="17.7365221">
        <ele>27.0543</ele>
        <time>2013-03-10T14:12:09Z</time>
      </trkpt>
      <trkpt lat="59.8970884" lon="17.7364969">
        <ele>27.0543</ele>
        <time>2013-03-10T14:12:10Z</time>
      </trkpt>
      <trkpt lat="59.8970957" lon="17.7364727">
        <ele>27.0543</ele>
        <time>2013-03-10T14:12:11Z</time>
      </trkpt>
      <trkpt lat="59.8971008" lon="17.7364492">
        <ele>27.0543</ele>
        <time>2013-03-10T14:12:12Z</time>
      </trkpt>
      <trkpt lat="59.897104" lon="17.7364233">
        <ele>27.0543</ele>
        <time>2013-03-10T14:12:13Z</time>
      </trkpt>
      <trkpt lat="59.897107" lon="17.7363973">
        <ele>27.0543</ele>
        <time>2013-03-10T14:12:14Z</time>
      </trkpt>
      <trkpt lat="59.8971102" lon="17.7363716">
        <ele>27.0543</ele>
        <time>2013-03-10T14:12:15Z</time>
      </trkpt>
      <trkpt lat="59.8971127" lon="17.7363471">
        <ele>27.0543</ele>
        <time>2013-03-10T14:12:16Z</time>
      </trkpt>
      <trkpt lat="59.8971158" lon="17.736322">
        <ele>27.0543</ele>
        <time>2013-03-10T14:12:17Z</time>
      </trkpt>
      <trkpt lat="59.8971199" lon="17.736297">
        <ele>27.0543</ele>
        <time>2013-03-10T14:12:18Z</time>
      </trkpt>
      <trkpt lat="59.8971234" lon="17.7362716">
        <ele>27.0543</ele>
        <time>2013-03-10T14:12:19Z</time>
      </trkpt>
      <trkpt lat="59.8971271" lon="17.7362455">
        <ele>27.0543</ele>
        <time>2013-03-10T14:12:20Z</time>
      </trkpt>
      <trkpt lat="59.8971313" lon="17.7362204">
        <ele>27.0543</ele>
        <time>2013-03-10T14:12:21Z</time>
      </trkpt>
      <trkpt lat="59.897134" lon="17.736197">
        <ele>27.0543</ele>
        <time>2013-03-10T14:12:22Z</time>
      </trkpt>
      <trkpt lat="59.897135" lon="17.7361722">
        <ele>27.0543</ele>
        <time>2013-03-10T14:12:23Z</time>
      </trkpt>
      <trkpt lat="59.8971356" lon="17.7361468">
        <ele>27.0543</ele>
        <time>2013-03-10T14:12:24Z</time>
      </trkpt>
      <trkpt lat="59.8971376" lon="17.7361207">
        <ele>27.5349</ele>
        <time>2013-03-10T14:12:25Z</time>
      </trkpt>
      <trkpt lat="59.8971402" lon="17.7360955">
        <ele>27.5349</ele>
        <time>2013-03-10T14:12:26Z</time>
      </trkpt>
      <trkpt lat="59.8971417" lon="17.7360697">
        <ele>27.5349</ele>
        <time>2013-03-10T14:12:27Z</time>
      </trkpt>
      <trkpt lat="59.8971439" lon="17.7360433">
        <ele>27.5349</ele>
        <time>2013-03-10T14:12:28Z</time>
      </trkpt>
      <trkpt lat="59.8971468" lon="17.7360181">
        <ele>27.5349</ele>
        <time>2013-03-10T14:12:29Z</time>
      </trkpt>
      <trkpt lat="59.8971497" lon="17.7359905">
        <ele>27.5349</ele>
        <time>2013-03-10T14:12:30Z</time>
      </trkpt>
      <trkpt lat="59.8971525" lon="17.7359613">
        <ele>27.5349</ele>
        <time>2013-03-10T14:12:31Z</time>
      </trkpt>
      <trkpt lat="59.8971536" lon="17.7359334">
        <ele>27.5349</ele>
        <time>2013-03-10T14:12:32Z</time>
      </trkpt>
      <trkpt lat="59.8971542" lon="17.7359067">
        <ele>27.5349</ele>
        <time>2013-03-10T14:12:33Z</time>
      </trkpt>
      <trkpt lat="59.8971559" lon="17.7358796">
        <ele>27.5349</ele>
        <time>2013-03-10T14:12:34Z</time>
      </trkpt>
      <trkpt lat="59.8971572" lon="17.7358539">
        <ele>27.5349</ele>
        <time>2013-03-10T14:12:35Z</time>
      </trkpt>
      <trkpt lat="59.8971585" lon="17.7358285">
        <ele>27.5349</ele>
        <time>2013-03-10T14:12:36Z</time>
      </trkpt>
      <trkpt lat="59.8971589" lon="17.7358033">
        <ele>27.5349</ele>
        <time>2013-03-10T14:12:37Z</time>
      </trkpt>
      <trkpt lat="59.8971584" lon="17.7357796">
        <ele>27.5349</ele>
        <time>2013-03-10T14:12:38Z</time>
      </trkpt>
      <trkpt lat="59.8971583" lon="17.7357535">
        <ele>27.5349</ele>
        <time>2013-03-10T14:12:39Z</time>
      </trkpt>
      <trkpt lat="59.8971573" lon="17.7357258">
        <ele>27.5349</ele>
        <time>2013-03-10T14:12:40Z</time>
      </trkpt>
      <trkpt lat="59.8971564" lon="17.7356993">
        <ele>27.5349</ele>
        <time>2013-03-10T14:12:41Z</time>
      </trkpt>
      <trkpt lat="59.8971573" lon="17.7356691">
        <ele>27.5349</ele>
        <time>2013-03-10T14:12:42Z</time>
      </trkpt>
      <trkpt lat="59.8971588" lon="17.7356402">
        <ele>27.5349</ele>
        <time>2013-03-10T14:12:43Z</time>
      </trkpt>
      <trkpt lat="59.897159" lon="17.7356104">
        <ele>28.0155</ele>
        <time>2013-03-10T14:12:44Z</time>
      </trkpt>
      <trkpt lat="59.8971599" lon="17.7355838">
        <ele>27.5349</ele>
        <time>2013-03-10T14:12:45Z</time>
      </trkpt>
      <trkpt lat="59.8971614" lon="17.7355558">
        <ele>27.5349</ele>
        <time>2013-03-10T14:12:46Z</time>
      </trkpt>
      <trkpt lat="59.8971613" lon="17.7355272">
        <ele>27.5349</ele>
        <time>2013-03-10T14:12:47Z</time>
      </trkpt>
      <trkpt lat="59.8971604" lon="17.7354963">
        <ele>28.0155</ele>
        <time>2013-03-10T14:12:48Z</time>
      </trkpt>
      <trkpt lat="59.8971613" lon="17.7354706">
        <ele>28.0155</ele>
        <time>2013-03-10T14:12:49Z</time>
      </trkpt>
      <trkpt lat="59.8971623" lon="17.7354447">
        <ele>28.0155</ele>
        <time>2013-03-10T14:12:50Z</time>
      </trkpt>
      <trkpt lat="59.897163" lon="17.7354191">
        <ele>28.0155</ele>
        <time>2013-03-10T14:12:51Z</time>
      </trkpt>
      <trkpt lat="59.8971638" lon="17.7353947">
        <ele>28.0155</ele>
        <time>2013-03-10T14:12:52Z</time>
      </trkpt>
      <trkpt lat="59.8971651" lon="17.7353703">
        <ele>27.5349</ele>
        <time>2013-03-10T14:12:53Z</time>
      </trkpt>
      <trkpt lat="59.8971659" lon="17.7353439">
        <ele>27.5349</ele>
        <time>2013-03-10T14:12:54Z</time>
      </trkpt>
      <trkpt lat="59.8971647" lon="17.735318">
        <ele>27.0543</ele>
        <time>2013-03-10T14:12:55Z</time>
      </trkpt>
      <trkpt lat="59.897164" lon="17.7352932">
        <ele>27.0543</ele>
        <time>2013-03-10T14:12:56Z</time>
      </trkpt>
      <trkpt lat="59.897164" lon="17.7352675">
        <ele>27.5349</ele>
        <time>2013-03-10T14:12:57Z</time>
      </trkpt>
      <trkpt lat="59.8971651" lon="17.7352411">
        <ele>27.5349</ele>
        <time>2013-03-10T14:12:58Z</time>
      </trkpt>
      <trkpt lat="59.8971667" lon="17.7352149">
        <ele>27.5349</ele>
        <time>2013-03-10T14:12:59Z</time>
      </trkpt>
      <trkpt lat="59.8971659" lon="17.7351895">
        <ele>27.5349</ele>
        <time>2013-03-10T14:13:00Z</time>
      </trkpt>
      <trkpt lat="59.8971666" lon="17.7351608">
        <ele>27.5349</ele>
        <time>2013-03-10T14:13:01Z</time>
      </trkpt>
      <trkpt lat="59.8971697" lon="17.735132">
        <ele>28.0155</ele>
        <time>2013-03-10T14:13:02Z</time>
      </trkpt>
      <trkpt lat="59.8971718" lon="17.735107">
        <ele>28.0155</ele>
        <time>2013-03-10T14:13:03Z</time>
      </trkpt>
      <trkpt lat="59.8971734" lon="17.7350808">
        <ele>28.0155</ele>
        <time>2013-03-10T14:13:04Z</time>
      </trkpt>
      <trkpt lat="59.8971737" lon="17.735056">
        <ele>27.5349</ele>
        <time>2013-03-10T14:13:05Z</time>
      </trkpt>
      <trkpt lat="59.8971734" lon="17.73503">
        <ele>27.5349</ele>
        <time>2013-03-10T14:13:06Z</time>
      </trkpt>
      <trkpt lat="59.897174" lon="17.7350021">
        <ele>28.0155</ele>
        <time>2013-03-10T14:13:07Z</time>
      </trkpt>
      <trkpt lat="59.8971754" lon="17.7349741">
        <ele>28.0155</ele>
        <time>2013-03-10T14:13:08Z</time>
      </trkpt>
      <trkpt lat="59.8971768" lon="17.7349481">
        <ele>28.0155</ele>
        <time>2013-03-10T14:13:09Z</time>
      </trkpt>
      <trkpt lat="59.8971796" lon="17.7349203">
        <ele>28.0155</ele>
        <time>2013-03-10T14:13:10Z</time>
      </trkpt>
      <trkpt lat="59.8971848" lon="17.7348935">
        <ele>28.4962</ele>
        <time>2013-03-10T14:13:11Z</time>
      </trkpt>
      <trkpt lat="59.8971875" lon="17.7348687">
        <ele>28.4962</ele>
        <time>2013-03-10T14:13:12Z</time>
      </trkpt>
      <trkpt lat="59.8971905" lon="17.7348435">
        <ele>28.4962</ele>
        <time>2013-03-10T14:13:13Z</time>
      </trkpt>
      <trkpt lat="59.8971915" lon="17.7348207">
        <ele>28.0155</ele>
        <time>2013-03-10T14:13:14Z</time>
      </trkpt>
      <trkpt lat="59.8971926" lon="17.7347938">
        <ele>28.0155</ele>
        <time>2013-03-10T14:13:15Z</time>
      </trkpt>
      <trkpt lat="59.8971949" lon="17.7347685">
        <ele>28.0155</ele>
        <time>2013-03-10T14:13:16Z</time>
      </trkpt>
      <trkpt lat="59.8971973" lon="17.734743">
        <ele>28.0155</ele>
        <time>2013-03-10T14:13:17Z</time>
      </trkpt>
      <trkpt lat="59.8972018" lon="17.7347196">
        <ele>28.0155</ele>
        <time>2013-03-10T14:13:18Z</time>
      </trkpt>
      <trkpt lat="59.897206" lon="17.7346947">
        <ele>28.0155</ele>
        <time>2013-03-10T14:13:19Z</time>
      </trkpt>
      <trkpt lat="59.8972102" lon="17.7346704">
        <ele>28.0155</ele>
        <time>2013-03-10T14:13:20Z</time>
      </trkpt>
      <trkpt lat="59.8972147" lon="17.7346464">
        <ele>28.0155</ele>
        <time>2013-03-10T14:13:21Z</time>
      </trkpt>
      <trkpt lat="59.8972185" lon="17.7346216">
        <ele>28.0155</ele>
        <time>2013-03-10T14:13:22Z</time>
      </trkpt>
      <trkpt lat="59.8972234" lon="17.7345947">
        <ele>28.4962</ele>
        <time>2013-03-10T14:13:23Z</time>
      </trkpt>
      <trkpt lat="59.8972281" lon="17.7345692">
        <ele>28.4962</ele>
        <time>2013-03-10T14:13:24Z</time>
      </trkpt>
      <trkpt lat="59.8972329" lon="17.7345445">
        <ele>28.4962</ele>
        <time>2013-03-10T14:13:25Z</time>
      </trkpt>
      <trkpt lat="59.897239" lon="17.7345208">
        <ele>28.4962</ele>
        <time>2013-03-10T14:13:26Z</time>
      </trkpt>
      <trkpt lat="59.8972459" lon="17.7344976">
        <ele>28.4962</ele>
        <time>2013-03-10T14:13:27Z</time>
      </trkpt>
      <trkpt lat="59.89725" lon="17.7344755">
        <ele>28.4962</ele>
        <time>2013-03-10T14:13:28Z</time>
      </trkpt>
      <trkpt lat="59.8972529" lon="17.7344527">
        <ele>28.4962</ele>
        <time>2013-03-10T14:13:29Z</time>
      </trkpt>
      <trkpt lat="59.897256" lon="17.7344296">
        <ele>28.4962</ele>
        <time>2013-03-10T14:13:30Z</time>
      </trkpt>
      <trkpt lat="59.8972609" lon="17.7344073">
        <ele>28.4962</ele>
        <time>2013-03-10T14:13:31Z</time>
      </trkpt>
      <trkpt lat="59.8972672" lon="17.734386">
        <ele>28.4962</ele>
        <time>2013-03-10T14:13:32Z</time>
      </trkpt>
      <trkpt lat="59.897274" lon="17.7343642">
        <ele>28.4962</ele>
        <time>2013-03-10T14:13:33Z</time>
      </trkpt>
      <trkpt lat="59.8972807" lon="17.7343405">
        <ele>28.9769</ele>
        <time>2013-03-10T14:13:34Z</time>
      </trkpt>
      <trkpt lat="59.8972864" lon="17.734318">
        <ele>28.9769</ele>
        <time>2013-03-10T14:13:35Z</time>
      </trkpt>
      <trkpt lat="59.8972914" lon="17.7342952">
        <ele>28.9769</ele>
        <time>2013-03-10T14:13:36Z</time>
      </trkpt>
      <trkpt lat="59.8972983" lon="17.734273">
        <ele>28.9769</ele>
        <time>2013-03-10T14:13:37Z</time>
      </trkpt>
      <trkpt lat="59.8973055" lon="17.7342513">
        <ele>28.9769</ele>
        <time>2013-03-10T14:13:38Z</time>
      </trkpt>
      <trkpt lat="59.8973118" lon="17.7342292">
        <ele>28.9769</ele>
        <time>2013-03-10T14:13:39Z</time>
      </trkpt>
      <trkpt lat="59.8973178" lon="17.7342073">
        <ele>28.9769</ele>
        <time>2013-03-10T14:13:40Z</time>
      </trkpt>
      <trkpt lat="59.8973229" lon="17.7341844">
        <ele>28.9769</ele>
        <time>2013-03-10T14:13:41Z</time>
      </trkpt>
      <trkpt lat="59.8973284" lon="17.7341624">
        <ele>28.4962</ele>
        <time>2013-03-10T14:13:42Z</time>
      </trkpt>
      <trkpt lat="59.8973335" lon="17.73414">
        <ele>28.4962</ele>
        <time>2013-03-10T14:13:43Z</time>
      </trkpt>
      <trkpt lat="59.8973391" lon="17.7341162">
        <ele>28.4962</ele>
        <time>2013-03-10T14:13:44Z</time>
      </trkpt>
      <trkpt lat="59.8973453" lon="17.7340924">
        <ele>28.4962</ele>
        <time>2013-03-10T14:13:45Z</time>
      </trkpt>
      <trkpt lat="59.8973503" lon="17.7340681">
        <ele>28.4962</ele>
        <time>2013-03-10T14:13:46Z</time>
      </trkpt>
      <trkpt lat="59.8973552" lon="17.7340441">
        <ele>28.0155</ele>
        <time>2013-03-10T14:13:47Z</time>
      </trkpt>
      <trkpt lat="59.8973608" lon="17.734022">
        <ele>28.0155</ele>
        <time>2013-03-10T14:13:48Z</time>
      </trkpt>
      <trkpt lat="59.8973672" lon="17.7339982">
        <ele>28.0155</ele>
        <time>2013-03-10T14:13:49Z</time>
      </trkpt>
      <trkpt lat="59.8973749" lon="17.7339759">
        <ele>28.0155</ele>
        <time>2013-03-10T14:13:50Z</time>
      </trkpt>
      <trkpt lat="59.897381" lon="17.7339533">
        <ele>28.0155</ele>
        <time>2013-03-10T14:13:51Z</time>
      </trkpt>
      <trkpt lat="59.8973859" lon="17.7339272">
        <ele>28.0155</ele>
        <time>2013-03-10T14:13:52Z</time>
      </trkpt>
      <trkpt lat="59.8973915" lon="17.7339007">
        <ele>28.0155</ele>
        <time>2013-03-10T14:13:53Z</time>
      </trkpt>
      <trkpt lat="59.8973971" lon="17.7338726">
        <ele>28.4962</ele>
        <time>2013-03-10T14:13:54Z</time>
      </trkpt>
      <trkpt lat="59.8974032" lon="17.7338464">
        <ele>28.4962</ele>
        <time>2013-03-10T14:13:55Z</time>
      </trkpt>
      <trkpt lat="59.8974102" lon="17.7338209">
        <ele>28.4962</ele>
        <time>2013-03-10T14:13:56Z</time>
      </trkpt>
      <trkpt lat="59.8974156" lon="17.7337992">
        <ele>28.4962</ele>
        <time>2013-03-10T14:13:57Z</time>
      </trkpt>
      <trkpt lat="59.8974197" lon="17.7337774">
        <ele>28.0155</ele>
        <time>2013-03-10T14:13:58Z</time>
      </trkpt>
      <trkpt lat="59.8974241" lon="17.733755">
        <ele>28.0155</ele>
        <time>2013-03-10T14:13:59Z</time>
      </trkpt>
      <trkpt lat="59.8974293" lon="17.7337273">
        <ele>28.4962</ele>
        <time>2013-03-10T14:14:00Z</time>
      </trkpt>
      <trkpt lat="59.8974351" lon="17.7337032">
        <ele>28.4962</ele>
        <time>2013-03-10T14:14:01Z</time>
      </trkpt>
      <trkpt lat="59.8974386" lon="17.7336764">
        <ele>28.4962</ele>
        <time>2013-03-10T14:14:02Z</time>
      </trkpt>
      <trkpt lat="59.8974413" lon="17.7336483">
        <ele>28.4962</ele>
        <time>2013-03-10T14:14:03Z</time>
      </trkpt>
      <trkpt lat="59.8974451" lon="17.7336246">
        <ele>28.4962</ele>
        <time>2013-03-10T14:14:04Z</time>
      </trkpt>
      <trkpt lat="59.8974491" lon="17.7335991">
        <ele>28.0155</ele>
        <time>2013-03-10T14:14:05Z</time>
      </trkpt>
      <trkpt lat="59.8974534" lon="17.7335738">
        <ele>28.0155</ele>
        <time>2013-03-10T14:14:06Z</time>
      </trkpt>
      <trkpt lat="59.8974572" lon="17.7335463">
        <ele>28.4962</ele>
        <time>2013-03-10T14:14:07Z</time>
      </trkpt>
      <trkpt lat="59.8974612" lon="17.7335201">
        <ele>28.4962</ele>
        <time>2013-03-10T14:14:08Z</time>
      </trkpt>
      <trkpt lat="59.8974645" lon="17.7334942">
        <ele>28.4962</ele>
        <time>2013-03-10T14:14:09Z</time>
      </trkpt>
      <trkpt lat="59.8974669" lon="17.7334676">
        <ele>28.4962</ele>
        <time>2013-03-10T14:14:10Z</time>
      </trkpt>
      <trkpt lat="59.8974692" lon="17.7334438">
        <ele>28.4962</ele>
        <time>2013-03-10T14:14:11Z</time>
      </trkpt>
      <trkpt lat="59.8974713" lon="17.7334201">
        <ele>28.4962</ele>
        <time>2013-03-10T14:14:12Z</time>
      </trkpt>
      <trkpt lat="59.8974729" lon="17.7333947">
        <ele>28.4962</ele>
        <time>2013-03-10T14:14:13Z</time>
      </trkpt>
      <trkpt lat="59.8974753" lon="17.7333691">
        <ele>28.4962</ele>
        <time>2013-03-10T14:14:14Z</time>
      </trkpt>
      <trkpt lat="59.8974776" lon="17.7333431">
        <ele>28.4962</ele>
        <time>2013-03-10T14:14:15Z</time>
      </trkpt>
      <trkpt lat="59.8974794" lon="17.7333162">
        <ele>28.4962</ele>
        <time>2013-03-10T14:14:16Z</time>
      </trkpt>
      <trkpt lat="59.89748" lon="17.7332892">
        <ele>28.9769</ele>
        <time>2013-03-10T14:14:17Z</time>
      </trkpt>
      <trkpt lat="59.8974806" lon="17.7332652">
        <ele>28.4962</ele>
        <time>2013-03-10T14:14:18Z</time>
      </trkpt>
      <trkpt lat="59.8974821" lon="17.7332428">
        <ele>28.4962</ele>
        <time>2013-03-10T14:14:19Z</time>
      </trkpt>
      <trkpt lat="59.8974837" lon="17.7332174">
        <ele>28.4962</ele>
        <time>2013-03-10T14:14:20Z</time>
      </trkpt>
      <trkpt lat="59.8974861" lon="17.7331929">
        <ele>28.0155</ele>
        <time>2013-03-10T14:14:21Z</time>
      </trkpt>
      <trkpt lat="59.8974878" lon="17.7331658">
        <ele>28.4962</ele>
        <time>2013-03-10T14:14:22Z</time>
      </trkpt>
      <trkpt lat="59.8974899" lon="17.7331419">
        <ele>28.0155</ele>
        <time>2013-03-10T14:14:23Z</time>
      </trkpt>
      <trkpt lat="59.8974923" lon="17.7331164">
        <ele>28.0155</ele>
        <time>2013-03-10T14:14:24Z</time>
      </trkpt>
      <trkpt lat="59.8974946" lon="17.7330889">
        <ele>28.0155</ele>
        <time>2013-03-10T14:14:25Z</time>
      </trkpt>
      <trkpt lat="59.8974971" lon="17.7330608">
        <ele>28.4962</ele>
        <time>2013-03-10T14:14:26Z</time>
      </trkpt>
      <trkpt lat="59.8974995" lon="17.7330324">
        <ele>28.4962</ele>
        <time>2013-03-10T14:14:27Z</time>
      </trkpt>
      <trkpt lat="59.8975018" lon="17.7330051">
        <ele>28.4962</ele>
        <time>2013-03-10T14:14:28Z</time>
      </trkpt>
      <trkpt lat="59.8975033" lon="17.732979">
        <ele>28.4962</ele>
        <time>2013-03-10T14:14:29Z</time>
      </trkpt>
      <trkpt lat="59.8975044" lon="17.7329527">
        <ele>28.4962</ele>
        <time>2013-03-10T14:14:30Z</time>
      </trkpt>
      <trkpt lat="59.8975048" lon="17.7329269">
        <ele>28.4962</ele>
        <time>2013-03-10T14:14:31Z</time>
      </trkpt>
      <trkpt lat="59.8975039" lon="17.7329004">
        <ele>28.4962</ele>
        <time>2013-03-10T14:14:32Z</time>
      </trkpt>
      <trkpt lat="59.8975028" lon="17.7328738">
        <ele>28.9769</ele>
        <time>2013-03-10T14:14:33Z</time>
      </trkpt>
      <trkpt lat="59.8975032" lon="17.7328451">
        <ele>28.9769</ele>
        <time>2013-03-10T14:14:34Z</time>
      </trkpt>
      <trkpt lat="59.8975039" lon="17.7328158">
        <ele>29.4575</ele>
        <time>2013-03-10T14:14:35Z</time>
      </trkpt>
      <trkpt lat="59.897506" lon="17.7327931">
        <ele>28.9769</ele>
        <time>2013-03-10T14:14:36Z</time>
      </trkpt>
      <trkpt lat="59.8975076" lon="17.7327637">
        <ele>29.4575</ele>
        <time>2013-03-10T14:14:37Z</time>
      </trkpt>
      <trkpt lat="59.89751" lon="17.7327363">
        <ele>29.4575</ele>
        <time>2013-03-10T14:14:38Z</time>
      </trkpt>
      <trkpt lat="59.8975112" lon="17.7327056">
        <ele>29.9381</ele>
        <time>2013-03-10T14:14:39Z</time>
      </trkpt>
      <trkpt lat="59.8975136" lon="17.7326782">
        <ele>30.4188</ele>
        <time>2013-03-10T14:14:40Z</time>
      </trkpt>
      <trkpt lat="59.8975162" lon="17.7326487">
        <ele>30.4188</ele>
        <time>2013-03-10T14:14:41Z</time>
      </trkpt>
      <trkpt lat="59.8975189" lon="17.7326216">
        <ele>30.8995</ele>
        <time>2013-03-10T14:14:42Z</time>
      </trkpt>
      <trkpt lat="59.8975198" lon="17.7325943">
        <ele>30.8995</ele>
        <time>2013-03-10T14:14:43Z</time>
      </trkpt>
      <trkpt lat="59.89752" lon="17.7325715">
        <ele>30.4188</ele>
        <time>2013-03-10T14:14:44Z</time>
      </trkpt>
      <trkpt lat="59.8975211" lon="17.7325487">
        <ele>29.9381</ele>
        <time>2013-03-10T14:14:45Z</time>
      </trkpt>
      <trkpt lat="59.8975225" lon="17.7325231">
        <ele>29.9381</ele>
        <time>2013-03-10T14:14:46Z</time>
      </trkpt>
      <trkpt lat="59.8975242" lon="17.7324986">
        <ele>29.9381</ele>
        <time>2013-03-10T14:14:47Z</time>
      </trkpt>
      <trkpt lat="59.8975254" lon="17.7324706">
        <ele>29.9381</ele>
        <time>2013-03-10T14:14:48Z</time>
      </trkpt>
      <trkpt lat="59.8975282" lon="17.7324424">
        <ele>30.4188</ele>
        <time>2013-03-10T14:14:49Z</time>
      </trkpt>
      <trkpt lat="59.8975303" lon="17.732415">
        <ele>30.4188</ele>
        <time>2013-03-10T14:14:50Z</time>
      </trkpt>
      <trkpt lat="59.8975317" lon="17.732389">
        <ele>30.4188</ele>
        <time>2013-03-10T14:14:51Z</time>
      </trkpt>
      <trkpt lat="59.8975337" lon="17.7323644">
        <ele>29.9381</ele>
        <time>2013-03-10T14:14:52Z</time>
      </trkpt>
      <trkpt lat="59.8975358" lon="17.7323375">
        <ele>29.9381</ele>
        <time>2013-03-10T14:14:53Z</time>
      </trkpt>
      <trkpt lat="59.897537" lon="17.7323116">
        <ele>29.9381</ele>
        <time>2013-03-10T14:14:54Z</time>
      </trkpt>
      <trkpt lat="59.8975379" lon="17.7322851">
        <ele>29.9381</ele>
        <time>2013-03-10T14:14:55Z</time>
      </trkpt>
      <trkpt lat="59.897541" lon="17.7322581">
        <ele>29.9381</ele>
        <time>2013-03-10T14:14:56Z</time>
      </trkpt>
      <trkpt lat="59.8975454" lon="17.7322304">
        <ele>29.9381</ele>
        <time>2013-03-10T14:14:57Z</time>
      </trkpt>
      <trkpt lat="59.8975482" lon="17.7322056">
        <ele>29.9381</ele>
        <time>2013-03-10T14:14:58Z</time>
      </trkpt>
      <trkpt lat="59.897549" lon="17.7321797">
        <ele>29.9381</ele>
        <time>2013-03-10T14:14:59Z</time>
      </trkpt>
      <trkpt lat="59.8975495" lon="17.7321567">
        <ele>29.4575</ele>
        <time>2013-03-10T14:15:00Z</time>
      </trkpt>
      <trkpt lat="59.8975498" lon="17.7321326">
        <ele>29.4575</ele>
        <time>2013-03-10T14:15:01Z</time>
      </trkpt>
      <trkpt lat="59.8975495" lon="17.7321084">
        <ele>29.4575</ele>
        <time>2013-03-10T14:15:02Z</time>
      </trkpt>
      <trkpt lat="59.8975482" lon="17.7320855">
        <ele>29.4575</ele>
        <time>2013-03-10T14:15:03Z</time>
      </trkpt>
      <trkpt lat="59.8975484" lon="17.7320592">
        <ele>29.4575</ele>
        <time>2013-03-10T14:15:04Z</time>
      </trkpt>
      <trkpt lat="59.8975513" lon="17.7320286">
        <ele>29.9381</ele>
        <time>2013-03-10T14:15:05Z</time>
      </trkpt>
      <trkpt lat="59.8975546" lon="17.7320016">
        <ele>29.9381</ele>
        <time>2013-03-10T14:15:06Z</time>
      </trkpt>
      <trkpt lat="59.8975552" lon="17.7319782">
        <ele>29.9381</ele>
        <time>2013-03-10T14:15:07Z</time>
      </trkpt>
      <trkpt lat="59.8975552" lon="17.7319533">
        <ele>29.9381</ele>
        <time>2013-03-10T14:15:08Z</time>
      </trkpt>
      <trkpt lat="59.8975556" lon="17.7319272">
        <ele>29.9381</ele>
        <time>2013-03-10T14:15:09Z</time>
      </trkpt>
      <trkpt lat="59.897556" lon="17.7319033">
        <ele>29.9381</ele>
        <time>2013-03-10T14:15:10Z</time>
      </trkpt>
      <trkpt lat="59.897557" lon="17.7318772">
        <ele>29.9381</ele>
        <time>2013-03-10T14:15:11Z</time>
      </trkpt>
      <trkpt lat="59.8975578" lon="17.7318523">
        <ele>29.9381</ele>
        <time>2013-03-10T14:15:12Z</time>
      </trkpt>
      <trkpt lat="59.8975593" lon="17.7318296">
        <ele>29.4575</ele>
        <time>2013-03-10T14:15:13Z</time>
      </trkpt>
      <trkpt lat="59.8975601" lon="17.7318059">
        <ele>29.4575</ele>
        <time>2013-03-10T14:15:14Z</time>
      </trkpt>
      <trkpt lat="59.897561" lon="17.7317806">
        <ele>29.4575</ele>
        <time>2013-03-10T14:15:15Z</time>
      </trkpt>
      <trkpt lat="59.8975629" lon="17.7317577">
        <ele>29.4575</ele>
        <time>2013-03-10T14:15:16Z</time>
      </trkpt>
      <trkpt lat="59.8975634" lon="17.7317317">
        <ele>29.4575</ele>
        <time>2013-03-10T14:15:17Z</time>
      </trkpt>
      <trkpt lat="59.8975645" lon="17.73171">
        <ele>29.4575</ele>
        <time>2013-03-10T14:15:18Z</time>
      </trkpt>
      <trkpt lat="59.897565" lon="17.7316847">
        <ele>28.9769</ele>
        <time>2013-03-10T14:15:19Z</time>
      </trkpt>
      <trkpt lat="59.8975655" lon="17.7316598">
        <ele>28.9769</ele>
        <time>2013-03-10T14:15:20Z</time>
      </trkpt>
      <trkpt lat="59.8975665" lon="17.7316387">
        <ele>28.4962</ele>
        <time>2013-03-10T14:15:21Z</time>
      </trkpt>
      <trkpt lat="59.8975665" lon="17.7316174">
        <ele>28.0155</ele>
        <time>2013-03-10T14:15:22Z</time>
      </trkpt>
      <trkpt lat="59.8975666" lon="17.7315909">
        <ele>28.0155</ele>
        <time>2013-03-10T14:15:23Z</time>
      </trkpt>
      <trkpt lat="59.8975655" lon="17.7315627">
        <ele>28.4962</ele>
        <time>2013-03-10T14:15:24Z</time>
      </trkpt>
      <trkpt lat="59.8975641" lon="17.731536">
        <ele>28.4962</ele>
        <time>2013-03-10T14:15:25Z</time>
      </trkpt>
      <trkpt lat="59.8975659" lon="17.7315079">
        <ele>28.4962</ele>
        <time>2013-03-10T14:15:26Z</time>
      </trkpt>
      <trkpt lat="59.8975686" lon="17.7314806">
        <ele>28.4962</ele>
        <time>2013-03-10T14:15:27Z</time>
      </trkpt>
      <trkpt lat="59.8975707" lon="17.7314578">
        <ele>28.0155</ele>
        <time>2013-03-10T14:15:28Z</time>
      </trkpt>
      <trkpt lat="59.897572" lon="17.7314319">
        <ele>28.4962</ele>
        <time>2013-03-10T14:15:29Z</time>
      </trkpt>
      <trkpt lat="59.8975724" lon="17.7314071">
        <ele>28.0155</ele>
        <time>2013-03-10T14:15:30Z</time>
      </trkpt>
      <trkpt lat="59.8975739" lon="17.7313806">
        <ele>28.0155</ele>
        <time>2013-03-10T14:15:31Z</time>
      </trkpt>
      <trkpt lat="59.8975757" lon="17.7313531">
        <ele>28.0155</ele>
        <time>2013-03-10T14:15:32Z</time>
      </trkpt>
      <trkpt lat="59.8975757" lon="17.7313272">
        <ele>28.0155</ele>
        <time>2013-03-10T14:15:33Z</time>
      </trkpt>
      <trkpt lat="59.8975758" lon="17.7313007">
        <ele>28.0155</ele>
        <time>2013-03-10T14:15:34Z</time>
      </trkpt>
      <trkpt lat="59.8975743" lon="17.731277">
        <ele>28.0155</ele>
        <time>2013-03-10T14:15:35Z</time>
      </trkpt>
      <trkpt lat="59.8975734" lon="17.7312536">
        <ele>28.0155</ele>
        <time>2013-03-10T14:15:36Z</time>
      </trkpt>
      <trkpt lat="59.8975727" lon="17.7312322">
        <ele>28.0155</ele>
        <time>2013-03-10T14:15:37Z</time>
      </trkpt>
      <trkpt lat="59.8975682" lon="17.7312131">
        <ele>28.0155</ele>
        <time>2013-03-10T14:15:38Z</time>
      </trkpt>
      <trkpt lat="59.8975651" lon="17.731191">
        <ele>28.0155</ele>
        <time>2013-03-10T14:15:39Z</time>
      </trkpt>
      <trkpt lat="59.8975655" lon="17.731166">
        <ele>28.0155</ele>
        <time>2013-03-10T14:15:40Z</time>
      </trkpt>
      <trkpt lat="59.8975649" lon="17.7311418">
        <ele>28.0155</ele>
        <time>2013-03-10T14:15:41Z</time>
      </trkpt>
      <trkpt lat="59.8975612" lon="17.7311194">
        <ele>28.0155</ele>
        <time>2013-03-10T14:15:42Z</time>
      </trkpt>
      <trkpt lat="59.8975577" lon="17.7310932">
        <ele>28.0155</ele>
        <time>2013-03-10T14:15:43Z</time>
      </trkpt>
      <trkpt lat="59.8975541" lon="17.7310594">
        <ele>28.0155</ele>
        <time>2013-03-10T14:15:44Z</time>
      </trkpt>
      <trkpt lat="59.897551" lon="17.731034">
        <ele>28.0155</ele>
        <time>2013-03-10T14:15:45Z</time>
      </trkpt>
      <trkpt lat="59.8975495" lon="17.7310097">
        <ele>28.0155</ele>
        <time>2013-03-10T14:15:46Z</time>
      </trkpt>
      <trkpt lat="59.8975495" lon="17.7309843">
        <ele>27.5349</ele>
        <time>2013-03-10T14:15:47Z</time>
      </trkpt>
      <trkpt lat="59.8975477" lon="17.7309575">
        <ele>27.5349</ele>
        <time>2013-03-10T14:15:48Z</time>
      </trkpt>
      <trkpt lat="59.8975453" lon="17.7309331">
        <ele>27.0543</ele>
        <time>2013-03-10T14:15:49Z</time>
      </trkpt>
      <trkpt lat="59.8975431" lon="17.7309082">
        <ele>27.0543</ele>
        <time>2013-03-10T14:15:50Z</time>
      </trkpt>
      <trkpt lat="59.8975412" lon="17.7308854">
        <ele>26.5736</ele>
        <time>2013-03-10T14:15:51Z</time>
      </trkpt>
      <trkpt lat="59.8975395" lon="17.7308615">
        <ele>26.5736</ele>
        <time>2013-03-10T14:15:52Z</time>
      </trkpt>
      <trkpt lat="59.8975375" lon="17.7308347">
        <ele>26.5736</ele>
        <time>2013-03-10T14:15:53Z</time>
      </trkpt>
      <trkpt lat="59.8975347" lon="17.73081">
        <ele>26.0929</ele>
        <time>2013-03-10T14:15:54Z</time>
      </trkpt>
      <trkpt lat="59.8975307" lon="17.7307879">
        <ele>25.6123</ele>
        <time>2013-03-10T14:15:55Z</time>
      </trkpt>
      <trkpt lat="59.8975267" lon="17.7307683">
        <ele>25.1317</ele>
        <time>2013-03-10T14:15:56Z</time>
      </trkpt>
      <trkpt lat="59.8975224" lon="17.7307479">
        <ele>24.651</ele>
        <time>2013-03-10T14:15:57Z</time>
      </trkpt>
      <trkpt lat="59.8975173" lon="17.7307248">
        <ele>24.1703</ele>
        <time>2013-03-10T14:15:58Z</time>
      </trkpt>
      <trkpt lat="59.8975135" lon="17.7307025">
        <ele>24.1703</ele>
        <time>2013-03-10T14:15:59Z</time>
      </trkpt>
      <trkpt lat="59.8975096" lon="17.7306832">
        <ele>23.6896</ele>
        <time>2013-03-10T14:16:00Z</time>
      </trkpt>
      <trkpt lat="59.897507" lon="17.7306621">
        <ele>23.6896</ele>
        <time>2013-03-10T14:16:01Z</time>
      </trkpt>
      <trkpt lat="59.8975057" lon="17.7306361">
        <ele>23.6896</ele>
        <time>2013-03-10T14:16:02Z</time>
      </trkpt>
      <trkpt lat="59.8975037" lon="17.7306108">
        <ele>23.6896</ele>
        <time>2013-03-10T14:16:03Z</time>
      </trkpt>
      <trkpt lat="59.8975018" lon="17.7305884">
        <ele>23.6896</ele>
        <time>2013-03-10T14:16:04Z</time>
      </trkpt>
      <trkpt lat="59.8975016" lon="17.7305627">
        <ele>23.209</ele>
        <time>2013-03-10T14:16:05Z</time>
      </trkpt>
      <trkpt lat="59.8975024" lon="17.7305321">
        <ele>22.2476</ele>
        <time>2013-03-10T14:16:06Z</time>
      </trkpt>
      <trkpt lat="59.897499" lon="17.7305103">
        <ele>22.2476</ele>
        <time>2013-03-10T14:16:07Z</time>
      </trkpt>
      <trkpt lat="59.8974947" lon="17.7304922">
        <ele>21.767</ele>
        <time>2013-03-10T14:16:08Z</time>
      </trkpt>
      <trkpt lat="59.897494" lon="17.7304658">
        <ele>21.767</ele>
        <time>2013-03-10T14:16:09Z</time>
      </trkpt>
      <trkpt lat="59.8974912" lon="17.7304398">
        <ele>21.2864</ele>
        <time>2013-03-10T14:16:10Z</time>
      </trkpt>
      <trkpt lat="59.8974868" lon="17.7304135">
        <ele>21.2864</ele>
        <time>2013-03-10T14:16:11Z</time>
      </trkpt>
      <trkpt lat="59.8974847" lon="17.730386">
        <ele>21.2864</ele>
        <time>2013-03-10T14:16:12Z</time>
      </trkpt>
      <trkpt lat="59.8974836" lon="17.7303621">
        <ele>20.8057</ele>
        <time>2013-03-10T14:16:13Z</time>
      </trkpt>
      <trkpt lat="59.8974827" lon="17.7303381">
        <ele>20.8057</ele>
        <time>2013-03-10T14:16:14Z</time>
      </trkpt>
      <trkpt lat="59.8974793" lon="17.7303108">
        <ele>20.8057</ele>
        <time>2013-03-10T14:16:15Z</time>
      </trkpt>
      <trkpt lat="59.897475" lon="17.7302814">
        <ele>20.325</ele>
        <time>2013-03-10T14:16:16Z</time>
      </trkpt>
      <trkpt lat="59.8974716" lon="17.7302508">
        <ele>20.325</ele>
        <time>2013-03-10T14:16:17Z</time>
      </trkpt>
      <trkpt lat="59.897465" lon="17.7302161">
        <ele>20.325</ele>
        <time>2013-03-10T14:16:18Z</time>
      </trkpt>
      <trkpt lat="59.8974592" lon="17.7301876">
        <ele>20.325</ele>
        <time>2013-03-10T14:16:19Z</time>
      </trkpt>
      <trkpt lat="59.8974545" lon="17.7301642">
        <ele>19.8444</ele>
        <time>2013-03-10T14:16:20Z</time>
      </trkpt>
      <trkpt lat="59.8974526" lon="17.7301331">
        <ele>19.8444</ele>
        <time>2013-03-10T14:16:21Z</time>
      </trkpt>
      <trkpt lat="59.8974534" lon="17.7301052">
        <ele>19.8444</ele>
        <time>2013-03-10T14:16:22Z</time>
      </trkpt>
      <trkpt lat="59.8974536" lon="17.7300848">
        <ele>19.3638</ele>
        <time>2013-03-10T14:16:23Z</time>
      </trkpt>
      <trkpt lat="59.8974537" lon="17.7300639">
        <ele>18.8831</ele>
        <time>2013-03-10T14:16:24Z</time>
      </trkpt>
      <trkpt lat="59.8974542" lon="17.7300445">
        <ele>18.8831</ele>
        <time>2013-03-10T14:16:25Z</time>
      </trkpt>
      <trkpt lat="59.897449" lon="17.7300152">
        <ele>18.8831</ele>
        <time>2013-03-10T14:16:26Z</time>
      </trkpt>
      <trkpt lat="59.8974468" lon="17.7299825">
        <ele>17.9218</ele>
        <time>2013-03-10T14:16:27Z</time>
      </trkpt>
      <trkpt lat="59.8974514" lon="17.7299586">
        <ele>17.9218</ele>
        <time>2013-03-10T14:16:28Z</time>
      </trkpt>
      <trkpt lat="59.8974565" lon="17.7299388">
        <ele>17.4412</ele>
        <time>2013-03-10T14:16:29Z</time>
      </trkpt>
      <trkpt lat="59.8974614" lon="17.7299171">
        <ele>17.4412</ele>
        <time>2013-03-10T14:16:30Z</time>
      </trkpt>
      <trkpt lat="59.8974656" lon="17.7298965">
        <ele>16.9604</ele>
        <time>2013-03-10T14:16:31Z</time>
      </trkpt>
      <trkpt lat="59.89747" lon="17.7298745">
        <ele>16.9604</ele>
        <time>2013-03-10T14:16:32Z</time>
      </trkpt>
      <trkpt lat="59.8974743" lon="17.7298504">
        <ele>16.9604</ele>
        <time>2013-03-10T14:16:33Z</time>
      </trkpt>
      <trkpt lat="59.8974775" lon="17.7298272">
        <ele>16.4797</ele>
        <time>2013-03-10T14:16:34Z</time>
      </trkpt>
      <trkpt lat="59.8974788" lon="17.7298001">
        <ele>15.999</ele>
        <time>2013-03-10T14:16:35Z</time>
      </trkpt>
      <trkpt lat="59.8974788" lon="17.7297721">
        <ele>15.5184</ele>
        <time>2013-03-10T14:16:36Z</time>
      </trkpt>
      <trkpt lat="59.8974815" lon="17.7297504">
        <ele>15.5184</ele>
        <time>2013-03-10T14:16:37Z</time>
      </trkpt>
      <trkpt lat="59.8974821" lon="17.7297266">
        <ele>15.0377</ele>
        <time>2013-03-10T14:16:38Z</time>
      </trkpt>
      <trkpt lat="59.8974811" lon="17.7296991">
        <ele>14.557</ele>
        <time>2013-03-10T14:16:39Z</time>
      </trkpt>
      <trkpt lat="59.8974833" lon="17.7296737">
        <ele>14.557</ele>
        <time>2013-03-10T14:16:40Z</time>
      </trkpt>
      <trkpt lat="59.8974873" lon="17.729643">
        <ele>15.0377</ele>
        <time>2013-03-10T14:16:41Z</time>
      </trkpt>
      <trkpt lat="59.8974905" lon="17.7296126">
        <ele>15.5184</ele>
        <time>2013-03-10T14:16:42Z</time>
      </trkpt>
      <trkpt lat="59.8974938" lon="17.7295846">
        <ele>15.5184</ele>
        <time>2013-03-10T14:16:43Z</time>
      </trkpt>
      <trkpt lat="59.8974985" lon="17.7295551">
        <ele>16.4797</ele>
        <time>2013-03-10T14:16:44Z</time>
      </trkpt>
      <trkpt lat="59.8975017" lon="17.729524">
        <ele>16.9604</ele>
        <time>2013-03-10T14:16:45Z</time>
      </trkpt>
      <trkpt lat="59.8975039" lon="17.7294976">
        <ele>16.9604</ele>
        <time>2013-03-10T14:16:46Z</time>
      </trkpt>
      <trkpt lat="59.8975054" lon="17.7294703">
        <ele>17.4412</ele>
        <time>2013-03-10T14:16:47Z</time>
      </trkpt>
      <trkpt lat="59.897507" lon="17.7294427">
        <ele>17.9218</ele>
        <time>2013-03-10T14:16:48Z</time>
      </trkpt>
      <trkpt lat="59.8975088" lon="17.7294168">
        <ele>17.9218</ele>
        <time>2013-03-10T14:16:49Z</time>
      </trkpt>
      <trkpt lat="59.8975112" lon="17.7293913">
        <ele>17.9218</ele>
        <time>2013-03-10T14:16:50Z</time>
      </trkpt>
      <trkpt lat="59.8975146" lon="17.729366">
        <ele>18.4023</ele>
        <time>2013-03-10T14:16:51Z</time>
      </trkpt>
      <trkpt lat="59.8975188" lon="17.7293413">
        <ele>18.4023</ele>
        <time>2013-03-10T14:16:52Z</time>
      </trkpt>
      <trkpt lat="59.8975226" lon="17.7293154">
        <ele>18.8831</ele>
        <time>2013-03-10T14:16:53Z</time>
      </trkpt>
      <trkpt lat="59.8975262" lon="17.7292914">
        <ele>18.8831</ele>
        <time>2013-03-10T14:16:54Z</time>
      </trkpt>
      <trkpt lat="59.8975273" lon="17.72928">
        <ele>18.8831</ele>
        <time>2013-03-10T14:16:55Z</time>
      </trkpt>
      <trkpt lat="59.8975296" lon="17.7292609">
        <ele>18.8831</ele>
        <time>2013-03-10T14:16:56Z</time>
      </trkpt>
      <trkpt lat="59.8975322" lon="17.7292303">
        <ele>19.3638</ele>
        <time>2013-03-10T14:16:57Z</time>
      </trkpt>
      <trkpt lat="59.8975344" lon="17.7292095">
        <ele>19.3638</ele>
        <time>2013-03-10T14:16:58Z</time>
      </trkpt>
      <trkpt lat="59.897539" lon="17.7291876">
        <ele>19.3638</ele>
        <time>2013-03-10T14:16:59Z</time>
      </trkpt>
      <trkpt lat="59.8975444" lon="17.729163">
        <ele>19.3638</ele>
        <time>2013-03-10T14:17:00Z</time>
      </trkpt>
      <trkpt lat="59.8975488" lon="17.7291393">
        <ele>19.3638</ele>
        <time>2013-03-10T14:17:01Z</time>
      </trkpt>
      <trkpt lat="59.897552" lon="17.729117">
        <ele>19.8444</ele>
        <time>2013-03-10T14:17:02Z</time>
      </trkpt>
      <trkpt lat="59.8975577" lon="17.729093">
        <ele>19.8444</ele>
        <time>2013-03-10T14:17:03Z</time>
      </trkpt>
      <trkpt lat="59.8975648" lon="17.7290683">
        <ele>19.8444</ele>
        <time>2013-03-10T14:17:04Z</time>
      </trkpt>
      <trkpt lat="59.8975707" lon="17.7290449">
        <ele>19.8444</ele>
        <time>2013-03-10T14:17:05Z</time>
      </trkpt>
      <trkpt lat="59.8975746" lon="17.7290215">
        <ele>20.325</ele>
        <time>2013-03-10T14:17:06Z</time>
      </trkpt>
      <trkpt lat="59.8975767" lon="17.7289993">
        <ele>19.8444</ele>
        <time>2013-03-10T14:17:07Z</time>
      </trkpt>
      <trkpt lat="59.8975824" lon="17.7289711">
        <ele>19.8444</ele>
        <time>2013-03-10T14:17:08Z</time>
      </trkpt>
      <trkpt lat="59.8975876" lon="17.7289443">
        <ele>19.8444</ele>
        <time>2013-03-10T14:17:09Z</time>
      </trkpt>
      <trkpt lat="59.8975902" lon="17.7289206">
        <ele>19.8444</ele>
        <time>2013-03-10T14:17:10Z</time>
      </trkpt>
      <trkpt lat="59.897594" lon="17.7288957">
        <ele>19.8444</ele>
        <time>2013-03-10T14:17:11Z</time>
      </trkpt>
      <trkpt lat="59.8975979" lon="17.7288693">
        <ele>20.325</ele>
        <time>2013-03-10T14:17:12Z</time>
      </trkpt>
      <trkpt lat="59.8976023" lon="17.7288424">
        <ele>20.325</ele>
        <time>2013-03-10T14:17:13Z</time>
      </trkpt>
      <trkpt lat="59.8976076" lon="17.7288181">
        <ele>20.325</ele>
        <time>2013-03-10T14:17:14Z</time>
      </trkpt>
      <trkpt lat="59.8976126" lon="17.7287942">
        <ele>20.325</ele>
        <time>2013-03-10T14:17:15Z</time>
      </trkpt>
      <trkpt lat="59.8976176" lon="17.7287694">
        <ele>20.325</ele>
        <time>2013-03-10T14:17:16Z</time>
      </trkpt>
      <trkpt lat="59.897623" lon="17.7287444">
        <ele>20.325</ele>
        <time>2013-03-10T14:17:17Z</time>
      </trkpt>
      <trkpt lat="59.8976282" lon="17.7287202">
        <ele>20.8057</ele>
        <time>2013-03-10T14:17:18Z</time>
      </trkpt>
      <trkpt lat="59.8976329" lon="17.7286956">
        <ele>20.8057</ele>
        <time>2013-03-10T14:17:19Z</time>
      </trkpt>
      <trkpt lat="59.8976383" lon="17.7286708">
        <ele>20.8057</ele>
        <time>2013-03-10T14:17:20Z</time>
      </trkpt>
      <trkpt lat="59.8976435" lon="17.7286461">
        <ele>20.8057</ele>
        <time>2013-03-10T14:17:21Z</time>
      </trkpt>
      <trkpt lat="59.8976484" lon="17.7286202">
        <ele>20.8057</ele>
        <time>2013-03-10T14:17:22Z</time>
      </trkpt>
      <trkpt lat="59.8976535" lon="17.7285952">
        <ele>20.8057</ele>
        <time>2013-03-10T14:17:23Z</time>
      </trkpt>
      <trkpt lat="59.8976594" lon="17.7285725">
        <ele>20.8057</ele>
        <time>2013-03-10T14:17:24Z</time>
      </trkpt>
      <trkpt lat="59.8976651" lon="17.728548">
        <ele>20.8057</ele>
        <time>2013-03-10T14:17:25Z</time>
      </trkpt>
      <trkpt lat="59.8976705" lon="17.728522">
        <ele>20.8057</ele>
        <time>2013-03-10T14:17:26Z</time>
      </trkpt>
      <trkpt lat="59.8976758" lon="17.7284973">
        <ele>21.2864</ele>
        <time>2013-03-10T14:17:27Z</time>
      </trkpt>
      <trkpt lat="59.8976813" lon="17.7284744">
        <ele>21.2864</ele>
        <time>2013-03-10T14:17:28Z</time>
      </trkpt>
      <trkpt lat="59.8976862" lon="17.7284512">
        <ele>21.2864</ele>
        <time>2013-03-10T14:17:29Z</time>
      </trkpt>
      <trkpt lat="59.8976905" lon="17.7284265">
        <ele>21.2864</ele>
        <time>2013-03-10T14:17:30Z</time>
      </trkpt>
      <trkpt lat="59.8976948" lon="17.7284019">
        <ele>21.2864</ele>
        <time>2013-03-10T14:17:31Z</time>
      </trkpt>
      <trkpt lat="59.8977" lon="17.7283783">
        <ele>21.767</ele>
        <time>2013-03-10T14:17:32Z</time>
      </trkpt>
      <trkpt lat="59.8977055" lon="17.728356">
        <ele>21.767</ele>
        <time>2013-03-10T14:17:33Z</time>
      </trkpt>
      <trkpt lat="59.897711" lon="17.7283332">
        <ele>21.767</ele>
        <time>2013-03-10T14:17:34Z</time>
      </trkpt>
      <trkpt lat="59.8977162" lon="17.7283094">
        <ele>21.767</ele>
        <time>2013-03-10T14:17:35Z</time>
      </trkpt>
      <trkpt lat="59.8977219" lon="17.7282859">
        <ele>21.767</ele>
        <time>2013-03-10T14:17:36Z</time>
      </trkpt>
      <trkpt lat="59.8977276" lon="17.7282628">
        <ele>21.767</ele>
        <time>2013-03-10T14:17:37Z</time>
      </trkpt>
      <trkpt lat="59.8977328" lon="17.7282397">
        <ele>21.767</ele>
        <time>2013-03-10T14:17:38Z</time>
      </trkpt>
      <trkpt lat="59.8977379" lon="17.7282141">
        <ele>21.767</ele>
        <time>2013-03-10T14:17:39Z</time>
      </trkpt>
      <trkpt lat="59.8977426" lon="17.7281882">
        <ele>21.767</ele>
        <time>2013-03-10T14:17:40Z</time>
      </trkpt>
      <trkpt lat="59.8977474" lon="17.7281632">
        <ele>21.767</ele>
        <time>2013-03-10T14:17:41Z</time>
      </trkpt>
      <trkpt lat="59.8977534" lon="17.72814">
        <ele>22.2476</ele>
        <time>2013-03-10T14:17:42Z</time>
      </trkpt>
      <trkpt lat="59.8977596" lon="17.7281175">
        <ele>22.2476</ele>
        <time>2013-03-10T14:17:43Z</time>
      </trkpt>
      <trkpt lat="59.897766" lon="17.7280948">
        <ele>22.2476</ele>
        <time>2013-03-10T14:17:44Z</time>
      </trkpt>
      <trkpt lat="59.8977722" lon="17.728071">
        <ele>22.2476</ele>
        <time>2013-03-10T14:17:45Z</time>
      </trkpt>
      <trkpt lat="59.8977789" lon="17.7280467">
        <ele>22.2476</ele>
        <time>2013-03-10T14:17:46Z</time>
      </trkpt>
      <trkpt lat="59.8977858" lon="17.7280247">
        <ele>22.2476</ele>
        <time>2013-03-10T14:17:47Z</time>
      </trkpt>
      <trkpt lat="59.8977922" lon="17.7280027">
        <ele>22.2476</ele>
        <time>2013-03-10T14:17:48Z</time>
      </trkpt>
      <trkpt lat="59.8977985" lon="17.7279788">
        <ele>22.2476</ele>
        <time>2013-03-10T14:17:49Z</time>
      </trkpt>
      <trkpt lat="59.8978048" lon="17.7279538">
        <ele>22.2476</ele>
        <time>2013-03-10T14:17:50Z</time>
      </trkpt>
      <trkpt lat="59.8978112" lon="17.7279291">
        <ele>22.2476</ele>
        <time>2013-03-10T14:17:51Z</time>
      </trkpt>
      <trkpt lat="59.8978181" lon="17.7279064">
        <ele>22.2476</ele>
        <time>2013-03-10T14:17:52Z</time>
      </trkpt>
      <trkpt lat="59.8978249" lon="17.7278826">
        <ele>22.7283</ele>
        <time>2013-03-10T14:17:53Z</time>
      </trkpt>
      <trkpt lat="59.8978318" lon="17.7278619">
        <ele>22.2476</ele>
        <time>2013-03-10T14:17:54Z</time>
      </trkpt>
      <trkpt lat="59.8978381" lon="17.7278405">
        <ele>22.2476</ele>
        <time>2013-03-10T14:17:55Z</time>
      </trkpt>
      <trkpt lat="59.8978451" lon="17.7278197">
        <ele>22.2476</ele>
        <time>2013-03-10T14:17:56Z</time>
      </trkpt>
      <trkpt lat="59.8978523" lon="17.7277981">
        <ele>22.7283</ele>
        <time>2013-03-10T14:17:57Z</time>
      </trkpt>
      <trkpt lat="59.8978597" lon="17.7277761">
        <ele>22.7283</ele>
        <time>2013-03-10T14:17:58Z</time>
      </trkpt>
      <trkpt lat="59.8978671" lon="17.727754">
        <ele>22.7283</ele>
        <time>2013-03-10T14:17:59Z</time>
      </trkpt>
      <trkpt lat="59.8978746" lon="17.7277328">
        <ele>22.7283</ele>
        <time>2013-03-10T14:18:00Z</time>
      </trkpt>
      <trkpt lat="59.8978823" lon="17.7277113">
        <ele>22.7283</ele>
        <time>2013-03-10T14:18:01Z</time>
      </trkpt>
      <trkpt lat="59.8978898" lon="17.7276897">
        <ele>22.7283</ele>
        <time>2013-03-10T14:18:02Z</time>
      </trkpt>
      <trkpt lat="59.8978975" lon="17.727669">
        <ele>22.7283</ele>
        <time>2013-03-10T14:18:03Z</time>
      </trkpt>
      <trkpt lat="59.8979049" lon="17.7276472">
        <ele>22.7283</ele>
        <time>2013-03-10T14:18:04Z</time>
      </trkpt>
      <trkpt lat="59.8979126" lon="17.7276255">
        <ele>23.209</ele>
        <time>2013-03-10T14:18:05Z</time>
      </trkpt>
      <trkpt lat="59.8979205" lon="17.7276047">
        <ele>23.209</ele>
        <time>2013-03-10T14:18:06Z</time>
      </trkpt>
      <trkpt lat="59.8979285" lon="17.7275842">
        <ele>23.209</ele>
        <time>2013-03-10T14:18:07Z</time>
      </trkpt>
      <trkpt lat="59.897936" lon="17.7275633">
        <ele>23.209</ele>
        <time>2013-03-10T14:18:08Z</time>
      </trkpt>
      <trkpt lat="59.8979437" lon="17.7275421">
        <ele>23.209</ele>
        <time>2013-03-10T14:18:09Z</time>
      </trkpt>
      <trkpt lat="59.8979514" lon="17.7275205">
        <ele>23.209</ele>
        <time>2013-03-10T14:18:10Z</time>
      </trkpt>
      <trkpt lat="59.8979592" lon="17.7274997">
        <ele>23.209</ele>
        <time>2013-03-10T14:18:11Z</time>
      </trkpt>
      <trkpt lat="59.8979676" lon="17.7274799">
        <ele>23.209</ele>
        <time>2013-03-10T14:18:12Z</time>
      </trkpt>
      <trkpt lat="59.8979758" lon="17.7274597">
        <ele>23.209</ele>
        <time>2013-03-10T14:18:13Z</time>
      </trkpt>
      <trkpt lat="59.8979833" lon="17.727439">
        <ele>23.209</ele>
        <time>2013-03-10T14:18:14Z</time>
      </trkpt>
      <trkpt lat="59.8979907" lon="17.7274187">
        <ele>23.209</ele>
        <time>2013-03-10T14:18:15Z</time>
      </trkpt>
      <trkpt lat="59.8979985" lon="17.727398">
        <ele>23.209</ele>
        <time>2013-03-10T14:18:16Z</time>
      </trkpt>
      <trkpt lat="59.8980064" lon="17.7273763">
        <ele>23.209</ele>
        <time>2013-03-10T14:18:17Z</time>
      </trkpt>
      <trkpt lat="59.8980144" lon="17.7273547">
        <ele>23.209</ele>
        <time>2013-03-10T14:18:18Z</time>
      </trkpt>
      <trkpt lat="59.8980219" lon="17.7273335">
        <ele>23.209</ele>
        <time>2013-03-10T14:18:19Z</time>
      </trkpt>
      <trkpt lat="59.8980296" lon="17.7273117">
        <ele>23.209</ele>
        <time>2013-03-10T14:18:20Z</time>
      </trkpt>
      <trkpt lat="59.8980375" lon="17.72729">
        <ele>23.209</ele>
        <time>2013-03-10T14:18:21Z</time>
      </trkpt>
      <trkpt lat="59.8980452" lon="17.7272676">
        <ele>23.6896</ele>
        <time>2013-03-10T14:18:22Z</time>
      </trkpt>
      <trkpt lat="59.898053" lon="17.7272458">
        <ele>23.6896</ele>
        <time>2013-03-10T14:18:23Z</time>
      </trkpt>
      <trkpt lat="59.898061" lon="17.7272236">
        <ele>23.209</ele>
        <time>2013-03-10T14:18:24Z</time>
      </trkpt>
      <trkpt lat="59.8980683" lon="17.7272006">
        <ele>23.6896</ele>
        <time>2013-03-10T14:18:25Z</time>
      </trkpt>
      <trkpt lat="59.8980753" lon="17.7271775">
        <ele>23.6896</ele>
        <time>2013-03-10T14:18:26Z</time>
      </trkpt>
      <trkpt lat="59.8980824" lon="17.727155">
        <ele>23.6896</ele>
        <time>2013-03-10T14:18:27Z</time>
      </trkpt>
      <trkpt lat="59.898089" lon="17.7271328">
        <ele>23.6896</ele>
        <time>2013-03-10T14:18:28Z</time>
      </trkpt>
      <trkpt lat="59.8980953" lon="17.727111">
        <ele>23.6896</ele>
        <time>2013-03-10T14:18:29Z</time>
      </trkpt>
      <trkpt lat="59.8981018" lon="17.7270899">
        <ele>23.6896</ele>
        <time>2013-03-10T14:18:30Z</time>
      </trkpt>
      <trkpt lat="59.8981093" lon="17.7270698">
        <ele>23.6896</ele>
        <time>2013-03-10T14:18:31Z</time>
      </trkpt>
      <trkpt lat="59.8981163" lon="17.727049">
        <ele>24.1703</ele>
        <time>2013-03-10T14:18:32Z</time>
      </trkpt>
      <trkpt lat="59.8981232" lon="17.7270283">
        <ele>24.1703</ele>
        <time>2013-03-10T14:18:33Z</time>
      </trkpt>
      <trkpt lat="59.8981301" lon="17.727007">
        <ele>24.1703</ele>
        <time>2013-03-10T14:18:34Z</time>
      </trkpt>
      <trkpt lat="59.8981373" lon="17.7269857">
        <ele>24.1703</ele>
        <time>2013-03-10T14:18:35Z</time>
      </trkpt>
      <trkpt lat="59.8981441" lon="17.7269644">
        <ele>24.1703</ele>
        <time>2013-03-10T14:18:36Z</time>
      </trkpt>
      <trkpt lat="59.8981513" lon="17.7269433">
        <ele>23.6896</ele>
        <time>2013-03-10T14:18:37Z</time>
      </trkpt>
      <trkpt lat="59.8981586" lon="17.7269213">
        <ele>23.6896</ele>
        <time>2013-03-10T14:18:38Z</time>
      </trkpt>
      <trkpt lat="59.8981654" lon="17.7268993">
        <ele>23.6896</ele>
        <time>2013-03-10T14:18:39Z</time>
      </trkpt>
      <trkpt lat="59.8981726" lon="17.7268774">
        <ele>24.1703</ele>
        <time>2013-03-10T14:18:40Z</time>
      </trkpt>
      <trkpt lat="59.8981799" lon="17.726855">
        <ele>24.1703</ele>
        <time>2013-03-10T14:18:41Z</time>
      </trkpt>
      <trkpt lat="59.8981872" lon="17.7268335">
        <ele>23.6896</ele>
        <time>2013-03-10T14:18:42Z</time>
      </trkpt>
      <trkpt lat="59.8981943" lon="17.7268118">
        <ele>23.6896</ele>
        <time>2013-03-10T14:18:43Z</time>
      </trkpt>
      <trkpt lat="59.8982007" lon="17.7267906">
        <ele>23.6896</ele>
        <time>2013-03-10T14:18:44Z</time>
      </trkpt>
      <trkpt lat="59.8982074" lon="17.7267693">
        <ele>23.6896</ele>
        <time>2013-03-10T14:18:45Z</time>
      </trkpt>
      <trkpt lat="59.8982145" lon="17.7267485">
        <ele>23.6896</ele>
        <time>2013-03-10T14:18:46Z</time>
      </trkpt>
      <trkpt lat="59.8982216" lon="17.7267279">
        <ele>23.6896</ele>
        <time>2013-03-10T14:18:47Z</time>
      </trkpt>
      <trkpt lat="59.8982282" lon="17.7267066">
        <ele>23.6896</ele>
        <time>2013-03-10T14:18:48Z</time>
      </trkpt>
      <trkpt lat="59.8982348" lon="17.7266849">
        <ele>23.6896</ele>
        <time>2013-03-10T14:18:49Z</time>
      </trkpt>
      <trkpt lat="59.8982415" lon="17.7266639">
        <ele>23.6896</ele>
        <time>2013-03-10T14:18:50Z</time>
      </trkpt>
      <trkpt lat="59.8982481" lon="17.7266435">
        <ele>23.6896</ele>
        <time>2013-03-10T14:18:51Z</time>
      </trkpt>
      <trkpt lat="59.8982543" lon="17.7266238">
        <ele>23.6896</ele>
        <time>2013-03-10T14:18:52Z</time>
      </trkpt>
      <trkpt lat="59.8982606" lon="17.726604">
        <ele>23.209</ele>
        <time>2013-03-10T14:18:53Z</time>
      </trkpt>
      <trkpt lat="59.8982663" lon="17.7265852">
        <ele>23.209</ele>
        <time>2013-03-10T14:18:54Z</time>
      </trkpt>
      <trkpt lat="59.898271" lon="17.7265657">
        <ele>23.209</ele>
        <time>2013-03-10T14:18:55Z</time>
      </trkpt>
      <trkpt lat="59.8982752" lon="17.7265444">
        <ele>23.209</ele>
        <time>2013-03-10T14:18:56Z</time>
      </trkpt>
      <trkpt lat="59.8982808" lon="17.7265222">
        <ele>23.209</ele>
        <time>2013-03-10T14:18:57Z</time>
      </trkpt>
      <trkpt lat="59.898287" lon="17.7265009">
        <ele>23.209</ele>
        <time>2013-03-10T14:18:58Z</time>
      </trkpt>
      <trkpt lat="59.8982927" lon="17.7264788">
        <ele>23.209</ele>
        <time>2013-03-10T14:18:59Z</time>
      </trkpt>
      <trkpt lat="59.8982988" lon="17.7264582">
        <ele>23.209</ele>
        <time>2013-03-10T14:19:00Z</time>
      </trkpt>
      <trkpt lat="59.8983051" lon="17.7264373">
        <ele>23.209</ele>
        <time>2013-03-10T14:19:01Z</time>
      </trkpt>
      <trkpt lat="59.8983109" lon="17.7264158">
        <ele>23.209</ele>
        <time>2013-03-10T14:19:02Z</time>
      </trkpt>
      <trkpt lat="59.8983165" lon="17.7263904">
        <ele>23.6896</ele>
        <time>2013-03-10T14:19:03Z</time>
      </trkpt>
      <trkpt lat="59.8983228" lon="17.7263664">
        <ele>23.6896</ele>
        <time>2013-03-10T14:19:04Z</time>
      </trkpt>
      <trkpt lat="59.8983291" lon="17.726344">
        <ele>23.6896</ele>
        <time>2013-03-10T14:19:05Z</time>
      </trkpt>
      <trkpt lat="59.8983353" lon="17.7263207">
        <ele>23.6896</ele>
        <time>2013-03-10T14:19:06Z</time>
      </trkpt>
      <trkpt lat="59.8983414" lon="17.7262969">
        <ele>23.6896</ele>
        <time>2013-03-10T14:19:07Z</time>
      </trkpt>
      <trkpt lat="59.8983476" lon="17.7262729">
        <ele>23.6896</ele>
        <time>2013-03-10T14:19:08Z</time>
      </trkpt>
      <trkpt lat="59.8983529" lon="17.7262487">
        <ele>23.6896</ele>
        <time>2013-03-10T14:19:09Z</time>
      </trkpt>
      <trkpt lat="59.8983581" lon="17.7262247">
        <ele>23.6896</ele>
        <time>2013-03-10T14:19:10Z</time>
      </trkpt>
      <trkpt lat="59.8983632" lon="17.726201">
        <ele>23.6896</ele>
        <time>2013-03-10T14:19:11Z</time>
      </trkpt>
      <trkpt lat="59.8983682" lon="17.726176">
        <ele>23.6896</ele>
        <time>2013-03-10T14:19:12Z</time>
      </trkpt>
      <trkpt lat="59.8983734" lon="17.7261498">
        <ele>24.1703</ele>
        <time>2013-03-10T14:19:13Z</time>
      </trkpt>
      <trkpt lat="59.8983793" lon="17.726125">
        <ele>24.1703</ele>
        <time>2013-03-10T14:19:14Z</time>
      </trkpt>
      <trkpt lat="59.898385" lon="17.7261009">
        <ele>24.1703</ele>
        <time>2013-03-10T14:19:15Z</time>
      </trkpt>
      <trkpt lat="59.89839" lon="17.7260766">
        <ele>24.1703</ele>
        <time>2013-03-10T14:19:16Z</time>
      </trkpt>
      <trkpt lat="59.8983949" lon="17.7260524">
        <ele>24.1703</ele>
        <time>2013-03-10T14:19:17Z</time>
      </trkpt>
      <trkpt lat="59.8984001" lon="17.7260284">
        <ele>24.1703</ele>
        <time>2013-03-10T14:19:18Z</time>
      </trkpt>
      <trkpt lat="59.8984053" lon="17.726004">
        <ele>24.1703</ele>
        <time>2013-03-10T14:19:19Z</time>
      </trkpt>
      <trkpt lat="59.8984108" lon="17.7259799">
        <ele>24.1703</ele>
        <time>2013-03-10T14:19:20Z</time>
      </trkpt>
      <trkpt lat="59.8984166" lon="17.725957">
        <ele>24.1703</ele>
        <time>2013-03-10T14:19:21Z</time>
      </trkpt>
      <trkpt lat="59.8984222" lon="17.7259336">
        <ele>24.1703</ele>
        <time>2013-03-10T14:19:22Z</time>
      </trkpt>
      <trkpt lat="59.8984275" lon="17.7259095">
        <ele>24.1703</ele>
        <time>2013-03-10T14:19:23Z</time>
      </trkpt>
      <trkpt lat="59.8984331" lon="17.7258855">
        <ele>24.1703</ele>
        <time>2013-03-10T14:19:24Z</time>
      </trkpt>
      <trkpt lat="59.8984389" lon="17.7258622">
        <ele>24.1703</ele>
        <time>2013-03-10T14:19:25Z</time>
      </trkpt>
      <trkpt lat="59.8984441" lon="17.7258383">
        <ele>24.1703</ele>
        <time>2013-03-10T14:19:26Z</time>
      </trkpt>
      <trkpt lat="59.8984497" lon="17.7258145">
        <ele>24.1703</ele>
        <time>2013-03-10T14:19:27Z</time>
      </trkpt>
      <trkpt lat="59.8984554" lon="17.7257912">
        <ele>24.1703</ele>
        <time>2013-03-10T14:19:28Z</time>
      </trkpt>
      <trkpt lat="59.898461" lon="17.7257681">
        <ele>24.1703</ele>
        <time>2013-03-10T14:19:29Z</time>
      </trkpt>
      <trkpt lat="59.8984668" lon="17.7257451">
        <ele>24.1703</ele>
        <time>2013-03-10T14:19:30Z</time>
      </trkpt>
      <trkpt lat="59.8984723" lon="17.7257218">
        <ele>24.1703</ele>
        <time>2013-03-10T14:19:31Z</time>
      </trkpt>
      <trkpt lat="59.8984773" lon="17.7256975">
        <ele>24.1703</ele>
        <time>2013-03-10T14:19:32Z</time>
      </trkpt>
      <trkpt lat="59.8984828" lon="17.7256732">
        <ele>24.1703</ele>
        <time>2013-03-10T14:19:33Z</time>
      </trkpt>
      <trkpt lat="59.8984875" lon="17.7256492">
        <ele>24.1703</ele>
        <time>2013-03-10T14:19:34Z</time>
      </trkpt>
      <trkpt lat="59.898492" lon="17.7256254">
        <ele>24.1703</ele>
        <time>2013-03-10T14:19:35Z</time>
      </trkpt>
      <trkpt lat="59.8984972" lon="17.7256036">
        <ele>24.1703</ele>
        <time>2013-03-10T14:19:36Z</time>
      </trkpt>
      <trkpt lat="59.8985015" lon="17.7255804">
        <ele>24.1703</ele>
        <time>2013-03-10T14:19:37Z</time>
      </trkpt>
      <trkpt lat="59.8985052" lon="17.725557">
        <ele>24.1703</ele>
        <time>2013-03-10T14:19:38Z</time>
      </trkpt>
      <trkpt lat="59.8985091" lon="17.7255343">
        <ele>24.1703</ele>
        <time>2013-03-10T14:19:39Z</time>
      </trkpt>
      <trkpt lat="59.8985138" lon="17.7255109">
        <ele>24.1703</ele>
        <time>2013-03-10T14:19:40Z</time>
      </trkpt>
      <trkpt lat="59.8985177" lon="17.7254865">
        <ele>24.1703</ele>
        <time>2013-03-10T14:19:41Z</time>
      </trkpt>
      <trkpt lat="59.8985215" lon="17.7254626">
        <ele>24.1703</ele>
        <time>2013-03-10T14:19:42Z</time>
      </trkpt>
      <trkpt lat="59.8985247" lon="17.725438">
        <ele>24.1703</ele>
        <time>2013-03-10T14:19:43Z</time>
      </trkpt>
      <trkpt lat="59.8985285" lon="17.7254152">
        <ele>23.6896</ele>
        <time>2013-03-10T14:19:44Z</time>
      </trkpt>
      <trkpt lat="59.898533" lon="17.7253925">
        <ele>23.6896</ele>
        <time>2013-03-10T14:19:45Z</time>
      </trkpt>
      <trkpt lat="59.8985378" lon="17.7253711">
        <ele>23.6896</ele>
        <time>2013-03-10T14:19:46Z</time>
      </trkpt>
      <trkpt lat="59.8985425" lon="17.725348">
        <ele>23.6896</ele>
        <time>2013-03-10T14:19:47Z</time>
      </trkpt>
      <trkpt lat="59.8985464" lon="17.7253254">
        <ele>23.6896</ele>
        <time>2013-03-10T14:19:48Z</time>
      </trkpt>
      <trkpt lat="59.8985502" lon="17.7253003">
        <ele>24.1703</ele>
        <time>2013-03-10T14:19:49Z</time>
      </trkpt>
      <trkpt lat="59.8985544" lon="17.7252744">
        <ele>24.1703</ele>
        <time>2013-03-10T14:19:50Z</time>
      </trkpt>
      <trkpt lat="59.8985583" lon="17.7252499">
        <ele>24.1703</ele>
        <time>2013-03-10T14:19:51Z</time>
      </trkpt>
      <trkpt lat="59.8985621" lon="17.725224">
        <ele>24.1703</ele>
        <time>2013-03-10T14:19:52Z</time>
      </trkpt>
      <trkpt lat="59.8985657" lon="17.7251971">
        <ele>24.1703</ele>
        <time>2013-03-10T14:19:53Z</time>
      </trkpt>
      <trkpt lat="59.8985697" lon="17.725169">
        <ele>24.1703</ele>
        <time>2013-03-10T14:19:54Z</time>
      </trkpt>
      <trkpt lat="59.898574" lon="17.7251399">
        <ele>24.1703</ele>
        <time>2013-03-10T14:19:55Z</time>
      </trkpt>
      <trkpt lat="59.8985782" lon="17.7251119">
        <ele>24.651</ele>
        <time>2013-03-10T14:19:56Z</time>
      </trkpt>
      <trkpt lat="59.8985828" lon="17.7250867">
        <ele>24.651</ele>
        <time>2013-03-10T14:19:57Z</time>
      </trkpt>
      <trkpt lat="59.8985881" lon="17.7250609">
        <ele>24.651</ele>
        <time>2013-03-10T14:19:58Z</time>
      </trkpt>
      <trkpt lat="59.8985938" lon="17.7250356">
        <ele>24.651</ele>
        <time>2013-03-10T14:19:59Z</time>
      </trkpt>
      <trkpt lat="59.8985987" lon="17.7250115">
        <ele>25.1317</ele>
        <time>2013-03-10T14:20:00Z</time>
      </trkpt>
      <trkpt lat="59.8986025" lon="17.7249889">
        <ele>24.651</ele>
        <time>2013-03-10T14:20:01Z</time>
      </trkpt>
      <trkpt lat="59.8986063" lon="17.724964">
        <ele>25.1317</ele>
        <time>2013-03-10T14:20:02Z</time>
      </trkpt>
      <trkpt lat="59.8986102" lon="17.7249405">
        <ele>25.1317</ele>
        <time>2013-03-10T14:20:03Z</time>
      </trkpt>
      <trkpt lat="59.8986134" lon="17.7249156">
        <ele>25.1317</ele>
        <time>2013-03-10T14:20:04Z</time>
      </trkpt>
      <trkpt lat="59.8986156" lon="17.7248915">
        <ele>25.1317</ele>
        <time>2013-03-10T14:20:05Z</time>
      </trkpt>
      <trkpt lat="59.8986181" lon="17.7248664">
        <ele>25.1317</ele>
        <time>2013-03-10T14:20:06Z</time>
      </trkpt>
      <trkpt lat="59.8986224" lon="17.7248426">
        <ele>25.1317</ele>
        <time>2013-03-10T14:20:07Z</time>
      </trkpt>
      <trkpt lat="59.8986274" lon="17.7248191">
        <ele>25.1317</ele>
        <time>2013-03-10T14:20:08Z</time>
      </trkpt>
      <trkpt lat="59.8986322" lon="17.7247963">
        <ele>25.1317</ele>
        <time>2013-03-10T14:20:09Z</time>
      </trkpt>
      <trkpt lat="59.8986367" lon="17.7247739">
        <ele>25.1317</ele>
        <time>2013-03-10T14:20:10Z</time>
      </trkpt>
      <trkpt lat="59.8986402" lon="17.7247488">
        <ele>25.6123</ele>
        <time>2013-03-10T14:20:11Z</time>
      </trkpt>
      <trkpt lat="59.8986436" lon="17.7247255">
        <ele>25.6123</ele>
        <time>2013-03-10T14:20:12Z</time>
      </trkpt>
      <trkpt lat="59.898648" lon="17.7247019">
        <ele>25.6123</ele>
        <time>2013-03-10T14:20:13Z</time>
      </trkpt>
      <trkpt lat="59.8986521" lon="17.7246776">
        <ele>25.6123</ele>
        <time>2013-03-10T14:20:14Z</time>
      </trkpt>
      <trkpt lat="59.8986562" lon="17.7246528">
        <ele>25.6123</ele>
        <time>2013-03-10T14:20:15Z</time>
      </trkpt>
      <trkpt lat="59.8986605" lon="17.7246292">
        <ele>25.6123</ele>
        <time>2013-03-10T14:20:16Z</time>
      </trkpt>
      <trkpt lat="59.8986652" lon="17.7246048">
        <ele>26.0929</ele>
        <time>2013-03-10T14:20:17Z</time>
      </trkpt>
      <trkpt lat="59.8986697" lon="17.7245812">
        <ele>26.0929</ele>
        <time>2013-03-10T14:20:18Z</time>
      </trkpt>
      <trkpt lat="59.8986738" lon="17.7245575">
        <ele>26.0929</ele>
        <time>2013-03-10T14:20:19Z</time>
      </trkpt>
      <trkpt lat="59.8986783" lon="17.7245329">
        <ele>26.0929</ele>
        <time>2013-03-10T14:20:20Z</time>
      </trkpt>
      <trkpt lat="59.8986837" lon="17.7245092">
        <ele>26.0929</ele>
        <time>2013-03-10T14:20:21Z</time>
      </trkpt>
      <trkpt lat="59.8986881" lon="17.7244851">
        <ele>26.0929</ele>
        <time>2013-03-10T14:20:22Z</time>
      </trkpt>
      <trkpt lat="59.8986918" lon="17.72446">
        <ele>26.0929</ele>
        <time>2013-03-10T14:20:23Z</time>
      </trkpt>
      <trkpt lat="59.8986957" lon="17.7244342">
        <ele>26.0929</ele>
        <time>2013-03-10T14:20:24Z</time>
      </trkpt>
      <trkpt lat="59.8987" lon="17.7244087">
        <ele>26.0929</ele>
        <time>2013-03-10T14:20:25Z</time>
      </trkpt>
      <trkpt lat="59.8987042" lon="17.7243839">
        <ele>26.0929</ele>
        <time>2013-03-10T14:20:26Z</time>
      </trkpt>
      <trkpt lat="59.898708" lon="17.7243583">
        <ele>26.0929</ele>
        <time>2013-03-10T14:20:27Z</time>
      </trkpt>
      <trkpt lat="59.8987117" lon="17.7243315">
        <ele>26.0929</ele>
        <time>2013-03-10T14:20:28Z</time>
      </trkpt>
      <trkpt lat="59.8987156" lon="17.724305">
        <ele>26.0929</ele>
        <time>2013-03-10T14:20:29Z</time>
      </trkpt>
      <trkpt lat="59.8987201" lon="17.7242807">
        <ele>26.0929</ele>
        <time>2013-03-10T14:20:30Z</time>
      </trkpt>
      <trkpt lat="59.8987243" lon="17.7242569">
        <ele>26.0929</ele>
        <time>2013-03-10T14:20:31Z</time>
      </trkpt>
      <trkpt lat="59.898728" lon="17.724232">
        <ele>26.0929</ele>
        <time>2013-03-10T14:20:32Z</time>
      </trkpt>
      <trkpt lat="59.8987321" lon="17.7242081">
        <ele>26.0929</ele>
        <time>2013-03-10T14:20:33Z</time>
      </trkpt>
      <trkpt lat="59.898736" lon="17.7241843">
        <ele>26.0929</ele>
        <time>2013-03-10T14:20:34Z</time>
      </trkpt>
      <trkpt lat="59.8987401" lon="17.7241599">
        <ele>26.5736</ele>
        <time>2013-03-10T14:20:35Z</time>
      </trkpt>
      <trkpt lat="59.898744" lon="17.7241351">
        <ele>26.5736</ele>
        <time>2013-03-10T14:20:36Z</time>
      </trkpt>
      <trkpt lat="59.8987482" lon="17.7241103">
        <ele>26.0929</ele>
        <time>2013-03-10T14:20:37Z</time>
      </trkpt>
      <trkpt lat="59.8987528" lon="17.7240855">
        <ele>26.5736</ele>
        <time>2013-03-10T14:20:38Z</time>
      </trkpt>
      <trkpt lat="59.8987575" lon="17.7240621">
        <ele>26.5736</ele>
        <time>2013-03-10T14:20:39Z</time>
      </trkpt>
      <trkpt lat="59.8987622" lon="17.7240383">
        <ele>26.5736</ele>
        <time>2013-03-10T14:20:40Z</time>
      </trkpt>
      <trkpt lat="59.8987666" lon="17.7240132">
        <ele>26.5736</ele>
        <time>2013-03-10T14:20:41Z</time>
      </trkpt>
      <trkpt lat="59.8987704" lon="17.7239882">
        <ele>26.5736</ele>
        <time>2013-03-10T14:20:42Z</time>
      </trkpt>
      <trkpt lat="59.8987745" lon="17.7239637">
        <ele>26.5736</ele>
        <time>2013-03-10T14:20:43Z</time>
      </trkpt>
      <trkpt lat="59.8987786" lon="17.7239388">
        <ele>26.5736</ele>
        <time>2013-03-10T14:20:44Z</time>
      </trkpt>
      <trkpt lat="59.8987822" lon="17.7239136">
        <ele>26.5736</ele>
        <time>2013-03-10T14:20:45Z</time>
      </trkpt>
      <trkpt lat="59.8987855" lon="17.7238865">
        <ele>26.5736</ele>
        <time>2013-03-10T14:20:46Z</time>
      </trkpt>
      <trkpt lat="59.8987901" lon="17.7238601">
        <ele>26.5736</ele>
        <time>2013-03-10T14:20:47Z</time>
      </trkpt>
      <trkpt lat="59.8987947" lon="17.723835">
        <ele>26.5736</ele>
        <time>2013-03-10T14:20:48Z</time>
      </trkpt>
      <trkpt lat="59.8987995" lon="17.7238107">
        <ele>26.5736</ele>
        <time>2013-03-10T14:20:49Z</time>
      </trkpt>
      <trkpt lat="59.8988049" lon="17.7237876">
        <ele>26.5736</ele>
        <time>2013-03-10T14:20:50Z</time>
      </trkpt>
      <trkpt lat="59.8988104" lon="17.7237651">
        <ele>26.5736</ele>
        <time>2013-03-10T14:20:51Z</time>
      </trkpt>
      <trkpt lat="59.8988159" lon="17.7237408">
        <ele>26.5736</ele>
        <time>2013-03-10T14:20:52Z</time>
      </trkpt>
      <trkpt lat="59.8988206" lon="17.7237159">
        <ele>27.0543</ele>
        <time>2013-03-10T14:20:53Z</time>
      </trkpt>
      <trkpt lat="59.8988253" lon="17.7236923">
        <ele>27.0543</ele>
        <time>2013-03-10T14:20:54Z</time>
      </trkpt>
      <trkpt lat="59.8988295" lon="17.7236674">
        <ele>27.0543</ele>
        <time>2013-03-10T14:20:55Z</time>
      </trkpt>
      <trkpt lat="59.8988345" lon="17.7236432">
        <ele>27.0543</ele>
        <time>2013-03-10T14:20:56Z</time>
      </trkpt>
      <trkpt lat="59.8988393" lon="17.7236173">
        <ele>27.0543</ele>
        <time>2013-03-10T14:20:57Z</time>
      </trkpt>
      <trkpt lat="59.8988428" lon="17.7235906">
        <ele>27.0543</ele>
        <time>2013-03-10T14:20:58Z</time>
      </trkpt>
      <trkpt lat="59.8988463" lon="17.7235643">
        <ele>27.0543</ele>
        <time>2013-03-10T14:20:59Z</time>
      </trkpt>
      <trkpt lat="59.89885" lon="17.7235395">
        <ele>27.0543</ele>
        <time>2013-03-10T14:21:00Z</time>
      </trkpt>
      <trkpt lat="59.8988541" lon="17.7235145">
        <ele>27.0543</ele>
        <time>2013-03-10T14:21:01Z</time>
      </trkpt>
      <trkpt lat="59.8988583" lon="17.7234897">
        <ele>27.0543</ele>
        <time>2013-03-10T14:21:02Z</time>
      </trkpt>
      <trkpt lat="59.8988627" lon="17.7234659">
        <ele>27.0543</ele>
        <time>2013-03-10T14:21:03Z</time>
      </trkpt>
      <trkpt lat="59.8988665" lon="17.7234403">
        <ele>27.5349</ele>
        <time>2013-03-10T14:21:04Z</time>
      </trkpt>
      <trkpt lat="59.89887" lon="17.723414">
        <ele>27.5349</ele>
        <time>2013-03-10T14:21:05Z</time>
      </trkpt>
      <trkpt lat="59.8988741" lon="17.7233882">
        <ele>27.5349</ele>
        <time>2013-03-10T14:21:06Z</time>
      </trkpt>
      <trkpt lat="59.8988777" lon="17.723368">
        <ele>27.5349</ele>
        <time>2013-03-10T14:21:07Z</time>
      </trkpt>
      <trkpt lat="59.8988802" lon="17.7233411">
        <ele>28.0155</ele>
        <time>2013-03-10T14:21:08Z</time>
      </trkpt>
      <trkpt lat="59.8988828" lon="17.7233089">
        <ele>27.5349</ele>
        <time>2013-03-10T14:21:09Z</time>
      </trkpt>
      <trkpt lat="59.8988867" lon="17.723282">
        <ele>28.0155</ele>
        <time>2013-03-10T14:21:10Z</time>
      </trkpt>
      <trkpt lat="59.898891" lon="17.7232592">
        <ele>28.0155</ele>
        <time>2013-03-10T14:21:11Z</time>
      </trkpt>
      <trkpt lat="59.8988957" lon="17.7232363">
        <ele>28.0155</ele>
        <time>2013-03-10T14:21:12Z</time>
      </trkpt>
      <trkpt lat="59.8988999" lon="17.7232127">
        <ele>28.0155</ele>
        <time>2013-03-10T14:21:13Z</time>
      </trkpt>
      <trkpt lat="59.8989036" lon="17.7231893">
        <ele>28.0155</ele>
        <time>2013-03-10T14:21:14Z</time>
      </trkpt>
      <trkpt lat="59.898907" lon="17.7231647">
        <ele>28.0155</ele>
        <time>2013-03-10T14:21:15Z</time>
      </trkpt>
      <trkpt lat="59.8989103" lon="17.7231414">
        <ele>28.0155</ele>
        <time>2013-03-10T14:21:16Z</time>
      </trkpt>
      <trkpt lat="59.8989144" lon="17.7231178">
        <ele>27.5349</ele>
        <time>2013-03-10T14:21:17Z</time>
      </trkpt>
      <trkpt lat="59.8989189" lon="17.7230943">
        <ele>28.0155</ele>
        <time>2013-03-10T14:21:18Z</time>
      </trkpt>
      <trkpt lat="59.8989228" lon="17.7230694">
        <ele>27.5349</ele>
        <time>2013-03-10T14:21:19Z</time>
      </trkpt>
      <trkpt lat="59.8989266" lon="17.7230436">
        <ele>27.5349</ele>
        <time>2013-03-10T14:21:20Z</time>
      </trkpt>
      <trkpt lat="59.8989301" lon="17.7230173">
        <ele>27.5349</ele>
        <time>2013-03-10T14:21:21Z</time>
      </trkpt>
      <trkpt lat="59.8989339" lon="17.7229918">
        <ele>27.5349</ele>
        <time>2013-03-10T14:21:22Z</time>
      </trkpt>
      <trkpt lat="59.8989371" lon="17.722966">
        <ele>27.5349</ele>
        <time>2013-03-10T14:21:23Z</time>
      </trkpt>
      <trkpt lat="59.8989406" lon="17.72294">
        <ele>27.5349</ele>
        <time>2013-03-10T14:21:24Z</time>
      </trkpt>
      <trkpt lat="59.8989446" lon="17.7229152">
        <ele>27.5349</ele>
        <time>2013-03-10T14:21:25Z</time>
      </trkpt>
      <trkpt lat="59.8989481" lon="17.722889">
        <ele>27.5349</ele>
        <time>2013-03-10T14:21:26Z</time>
      </trkpt>
      <trkpt lat="59.898951" lon="17.7228627">
        <ele>27.5349</ele>
        <time>2013-03-10T14:21:27Z</time>
      </trkpt>
      <trkpt lat="59.8989534" lon="17.7228371">
        <ele>28.0155</ele>
        <time>2013-03-10T14:21:28Z</time>
      </trkpt>
      <trkpt lat="59.8989564" lon="17.7228126">
        <ele>28.0155</ele>
        <time>2013-03-10T14:21:29Z</time>
      </trkpt>
      <trkpt lat="59.8989619" lon="17.7227878">
        <ele>28.0155</ele>
        <time>2013-03-10T14:21:30Z</time>
      </trkpt>
      <trkpt lat="59.898967" lon="17.722763">
        <ele>28.0155</ele>
        <time>2013-03-10T14:21:31Z</time>
      </trkpt>
      <trkpt lat="59.8989714" lon="17.722739">
        <ele>28.0155</ele>
        <time>2013-03-10T14:21:32Z</time>
      </trkpt>
      <trkpt lat="59.8989765" lon="17.7227147">
        <ele>28.0155</ele>
        <time>2013-03-10T14:21:33Z</time>
      </trkpt>
      <trkpt lat="59.8989807" lon="17.7226911">
        <ele>27.5349</ele>
        <time>2013-03-10T14:21:34Z</time>
      </trkpt>
      <trkpt lat="59.898985" lon="17.7226686">
        <ele>27.5349</ele>
        <time>2013-03-10T14:21:35Z</time>
      </trkpt>
      <trkpt lat="59.8989891" lon="17.7226443">
        <ele>27.5349</ele>
        <time>2013-03-10T14:21:36Z</time>
      </trkpt>
      <trkpt lat="59.8989929" lon="17.7226189">
        <ele>27.5349</ele>
        <time>2013-03-10T14:21:37Z</time>
      </trkpt>
      <trkpt lat="59.8989966" lon="17.7225935">
        <ele>27.5349</ele>
        <time>2013-03-10T14:21:38Z</time>
      </trkpt>
      <trkpt lat="59.8990004" lon="17.7225682">
        <ele>27.5349</ele>
        <time>2013-03-10T14:21:39Z</time>
      </trkpt>
      <trkpt lat="59.8990046" lon="17.7225442">
        <ele>27.5349</ele>
        <time>2013-03-10T14:21:40Z</time>
      </trkpt>
      <trkpt lat="59.8990078" lon="17.722518">
        <ele>27.5349</ele>
        <time>2013-03-10T14:21:41Z</time>
      </trkpt>
      <trkpt lat="59.8990112" lon="17.7224927">
        <ele>27.5349</ele>
        <time>2013-03-10T14:21:42Z</time>
      </trkpt>
      <trkpt lat="59.8990153" lon="17.7224691">
        <ele>27.5349</ele>
        <time>2013-03-10T14:21:43Z</time>
      </trkpt>
      <trkpt lat="59.8990194" lon="17.7224455">
        <ele>27.5349</ele>
        <time>2013-03-10T14:21:44Z</time>
      </trkpt>
      <trkpt lat="59.8990233" lon="17.7224233">
        <ele>27.5349</ele>
        <time>2013-03-10T14:21:45Z</time>
      </trkpt>
      <trkpt lat="59.8990273" lon="17.7224013">
        <ele>27.0543</ele>
        <time>2013-03-10T14:21:46Z</time>
      </trkpt>
      <trkpt lat="59.899031" lon="17.7223791">
        <ele>27.0543</ele>
        <time>2013-03-10T14:21:47Z</time>
      </trkpt>
      <trkpt lat="59.8990341" lon="17.7223563">
        <ele>27.0543</ele>
        <time>2013-03-10T14:21:48Z</time>
      </trkpt>
      <trkpt lat="59.8990368" lon="17.7223325">
        <ele>27.0543</ele>
        <time>2013-03-10T14:21:49Z</time>
      </trkpt>
      <trkpt lat="59.8990401" lon="17.7223082">
        <ele>26.5736</ele>
        <time>2013-03-10T14:21:50Z</time>
      </trkpt>
      <trkpt lat="59.8990434" lon="17.7222834">
        <ele>26.5736</ele>
        <time>2013-03-10T14:21:51Z</time>
      </trkpt>
      <trkpt lat="59.8990473" lon="17.7222594">
        <ele>26.5736</ele>
        <time>2013-03-10T14:21:52Z</time>
      </trkpt>
      <trkpt lat="59.8990511" lon="17.7222355">
        <ele>26.5736</ele>
        <time>2013-03-10T14:21:53Z</time>
      </trkpt>
      <trkpt lat="59.8990551" lon="17.7222092">
        <ele>26.5736</ele>
        <time>2013-03-10T14:21:54Z</time>
      </trkpt>
      <trkpt lat="59.89906" lon="17.7221844">
        <ele>26.5736</ele>
        <time>2013-03-10T14:21:55Z</time>
      </trkpt>
      <trkpt lat="59.8990646" lon="17.7221595">
        <ele>26.5736</ele>
        <time>2013-03-10T14:21:56Z</time>
      </trkpt>
      <trkpt lat="59.8990688" lon="17.7221332">
        <ele>26.0929</ele>
        <time>2013-03-10T14:21:57Z</time>
      </trkpt>
      <trkpt lat="59.8990724" lon="17.722106">
        <ele>26.5736</ele>
        <time>2013-03-10T14:21:58Z</time>
      </trkpt>
      <trkpt lat="59.8990759" lon="17.7220801">
        <ele>26.0929</ele>
        <time>2013-03-10T14:21:59Z</time>
      </trkpt>
      <trkpt lat="59.899079" lon="17.7220526">
        <ele>26.5736</ele>
        <time>2013-03-10T14:22:00Z</time>
      </trkpt>
      <trkpt lat="59.8990822" lon="17.7220258">
        <ele>26.0929</ele>
        <time>2013-03-10T14:22:01Z</time>
      </trkpt>
      <trkpt lat="59.899086" lon="17.7220013">
        <ele>26.0929</ele>
        <time>2013-03-10T14:22:02Z</time>
      </trkpt>
      <trkpt lat="59.8990906" lon="17.7219765">
        <ele>26.0929</ele>
        <time>2013-03-10T14:22:03Z</time>
      </trkpt>
      <trkpt lat="59.8990957" lon="17.7219518">
        <ele>26.0929</ele>
        <time>2013-03-10T14:22:04Z</time>
      </trkpt>
      <trkpt lat="59.8991004" lon="17.7219279">
        <ele>26.0929</ele>
        <time>2013-03-10T14:22:05Z</time>
      </trkpt>
      <trkpt lat="59.8991045" lon="17.7219021">
        <ele>26.0929</ele>
        <time>2013-03-10T14:22:06Z</time>
      </trkpt>
      <trkpt lat="59.8991081" lon="17.7218761">
        <ele>26.0929</ele>
        <time>2013-03-10T14:22:07Z</time>
      </trkpt>
      <trkpt lat="59.8991117" lon="17.7218497">
        <ele>25.6123</ele>
        <time>2013-03-10T14:22:08Z</time>
      </trkpt>
      <trkpt lat="59.8991158" lon="17.721825">
        <ele>25.6123</ele>
        <time>2013-03-10T14:22:09Z</time>
      </trkpt>
      <trkpt lat="59.8991195" lon="17.7217993">
        <ele>25.6123</ele>
        <time>2013-03-10T14:22:10Z</time>
      </trkpt>
      <trkpt lat="59.8991237" lon="17.7217746">
        <ele>25.6123</ele>
        <time>2013-03-10T14:22:11Z</time>
      </trkpt>
      <trkpt lat="59.8991288" lon="17.7217516">
        <ele>25.6123</ele>
        <time>2013-03-10T14:22:12Z</time>
      </trkpt>
      <trkpt lat="59.8991338" lon="17.7217278">
        <ele>25.6123</ele>
        <time>2013-03-10T14:22:13Z</time>
      </trkpt>
      <trkpt lat="59.8991378" lon="17.7217021">
        <ele>25.6123</ele>
        <time>2013-03-10T14:22:14Z</time>
      </trkpt>
      <trkpt lat="59.8991409" lon="17.7216747">
        <ele>25.6123</ele>
        <time>2013-03-10T14:22:15Z</time>
      </trkpt>
      <trkpt lat="59.899144" lon="17.7216481">
        <ele>25.6123</ele>
        <time>2013-03-10T14:22:16Z</time>
      </trkpt>
      <trkpt lat="59.8991479" lon="17.7216226">
        <ele>25.6123</ele>
        <time>2013-03-10T14:22:17Z</time>
      </trkpt>
      <trkpt lat="59.8991517" lon="17.7215976">
        <ele>25.6123</ele>
        <time>2013-03-10T14:22:18Z</time>
      </trkpt>
      <trkpt lat="59.8991563" lon="17.7215747">
        <ele>25.6123</ele>
        <time>2013-03-10T14:22:19Z</time>
      </trkpt>
      <trkpt lat="59.8991605" lon="17.7215509">
        <ele>25.6123</ele>
        <time>2013-03-10T14:22:20Z</time>
      </trkpt>
      <trkpt lat="59.899164" lon="17.7215266">
        <ele>25.6123</ele>
        <time>2013-03-10T14:22:21Z</time>
      </trkpt>
      <trkpt lat="59.8991673" lon="17.7215022">
        <ele>25.6123</ele>
        <time>2013-03-10T14:22:22Z</time>
      </trkpt>
      <trkpt lat="59.8991709" lon="17.7214777">
        <ele>25.6123</ele>
        <time>2013-03-10T14:22:23Z</time>
      </trkpt>
      <trkpt lat="59.8991735" lon="17.7214522">
        <ele>25.6123</ele>
        <time>2013-03-10T14:22:24Z</time>
      </trkpt>
      <trkpt lat="59.899176" lon="17.7214266">
        <ele>25.6123</ele>
        <time>2013-03-10T14:22:25Z</time>
      </trkpt>
      <trkpt lat="59.8991792" lon="17.7214014">
        <ele>25.6123</ele>
        <time>2013-03-10T14:22:26Z</time>
      </trkpt>
      <trkpt lat="59.8991828" lon="17.7213768">
        <ele>25.6123</ele>
        <time>2013-03-10T14:22:27Z</time>
      </trkpt>
      <trkpt lat="59.8991862" lon="17.7213522">
        <ele>25.6123</ele>
        <time>2013-03-10T14:22:28Z</time>
      </trkpt>
      <trkpt lat="59.8991898" lon="17.721328">
        <ele>25.6123</ele>
        <time>2013-03-10T14:22:29Z</time>
      </trkpt>
      <trkpt lat="59.8991937" lon="17.7213042">
        <ele>25.6123</ele>
        <time>2013-03-10T14:22:30Z</time>
      </trkpt>
      <trkpt lat="59.8991974" lon="17.721281">
        <ele>25.6123</ele>
        <time>2013-03-10T14:22:31Z</time>
      </trkpt>
      <trkpt lat="59.8992009" lon="17.7212574">
        <ele>25.6123</ele>
        <time>2013-03-10T14:22:32Z</time>
      </trkpt>
      <trkpt lat="59.8992048" lon="17.7212327">
        <ele>25.6123</ele>
        <time>2013-03-10T14:22:33Z</time>
      </trkpt>
      <trkpt lat="59.8992089" lon="17.7212082">
        <ele>25.6123</ele>
        <time>2013-03-10T14:22:34Z</time>
      </trkpt>
      <trkpt lat="59.8992128" lon="17.7211841">
        <ele>25.1317</ele>
        <time>2013-03-10T14:22:35Z</time>
      </trkpt>
      <trkpt lat="59.8992167" lon="17.7211592">
        <ele>25.6123</ele>
        <time>2013-03-10T14:22:36Z</time>
      </trkpt>
      <trkpt lat="59.8992211" lon="17.7211336">
        <ele>25.6123</ele>
        <time>2013-03-10T14:22:37Z</time>
      </trkpt>
      <trkpt lat="59.899226" lon="17.7211094">
        <ele>25.6123</ele>
        <time>2013-03-10T14:22:38Z</time>
      </trkpt>
      <trkpt lat="59.89923" lon="17.7210845">
        <ele>25.6123</ele>
        <time>2013-03-10T14:22:39Z</time>
      </trkpt>
      <trkpt lat="59.8992336" lon="17.7210596">
        <ele>25.6123</ele>
        <time>2013-03-10T14:22:40Z</time>
      </trkpt>
      <trkpt lat="59.8992377" lon="17.7210358">
        <ele>25.6123</ele>
        <time>2013-03-10T14:22:41Z</time>
      </trkpt>
      <trkpt lat="59.8992417" lon="17.7210111">
        <ele>25.6123</ele>
        <time>2013-03-10T14:22:42Z</time>
      </trkpt>
      <trkpt lat="59.8992455" lon="17.7209857">
        <ele>25.6123</ele>
        <time>2013-03-10T14:22:43Z</time>
      </trkpt>
      <trkpt lat="59.8992504" lon="17.7209604">
        <ele>25.6123</ele>
        <time>2013-03-10T14:22:44Z</time>
      </trkpt>
      <trkpt lat="59.8992557" lon="17.7209365">
        <ele>25.6123</ele>
        <time>2013-03-10T14:22:45Z</time>
      </trkpt>
      <trkpt lat="59.89926" lon="17.7209101">
        <ele>25.6123</ele>
        <time>2013-03-10T14:22:46Z</time>
      </trkpt>
      <trkpt lat="59.8992645" lon="17.7208839">
        <ele>25.6123</ele>
        <time>2013-03-10T14:22:47Z</time>
      </trkpt>
      <trkpt lat="59.8992686" lon="17.7208575">
        <ele>25.6123</ele>
        <time>2013-03-10T14:22:48Z</time>
      </trkpt>
      <trkpt lat="59.8992725" lon="17.7208282">
        <ele>26.0929</ele>
        <time>2013-03-10T14:22:49Z</time>
      </trkpt>
      <trkpt lat="59.8992769" lon="17.7207991">
        <ele>26.5736</ele>
        <time>2013-03-10T14:22:50Z</time>
      </trkpt>
      <trkpt lat="59.8992811" lon="17.7207711">
        <ele>26.5736</ele>
        <time>2013-03-10T14:22:51Z</time>
      </trkpt>
      <trkpt lat="59.8992879" lon="17.7207469">
        <ele>26.5736</ele>
        <time>2013-03-10T14:22:52Z</time>
      </trkpt>
      <trkpt lat="59.8992936" lon="17.7207266">
        <ele>26.5736</ele>
        <time>2013-03-10T14:22:53Z</time>
      </trkpt>
      <trkpt lat="59.8992993" lon="17.7207068">
        <ele>26.5736</ele>
        <time>2013-03-10T14:22:54Z</time>
      </trkpt>
      <trkpt lat="59.8993067" lon="17.720684">
        <ele>26.5736</ele>
        <time>2013-03-10T14:22:55Z</time>
      </trkpt>
      <trkpt lat="59.8993141" lon="17.7206631">
        <ele>26.5736</ele>
        <time>2013-03-10T14:22:56Z</time>
      </trkpt>
      <trkpt lat="59.8993226" lon="17.7206428">
        <ele>26.5736</ele>
        <time>2013-03-10T14:22:57Z</time>
      </trkpt>
      <trkpt lat="59.8993314" lon="17.720623">
        <ele>27.0543</ele>
        <time>2013-03-10T14:22:58Z</time>
      </trkpt>
      <trkpt lat="59.8993432" lon="17.7206087">
        <ele>27.0543</ele>
        <time>2013-03-10T14:22:59Z</time>
      </trkpt>
      <trkpt lat="59.8993571" lon="17.7206013">
        <ele>27.0543</ele>
        <time>2013-03-10T14:23:00Z</time>
      </trkpt>
      <trkpt lat="59.8993701" lon="17.7205996">
        <ele>27.0543</ele>
        <time>2013-03-10T14:23:01Z</time>
      </trkpt>
      <trkpt lat="59.8993832" lon="17.7206053">
        <ele>27.0543</ele>
        <time>2013-03-10T14:23:02Z</time>
      </trkpt>
      <trkpt lat="59.8993956" lon="17.7206187">
        <ele>27.0543</ele>
        <time>2013-03-10T14:23:03Z</time>
      </trkpt>
      <trkpt lat="59.8994077" lon="17.7206312">
        <ele>27.0543</ele>
        <time>2013-03-10T14:23:04Z</time>
      </trkpt>
      <trkpt lat="59.899419" lon="17.7206407">
        <ele>27.0543</ele>
        <time>2013-03-10T14:23:05Z</time>
      </trkpt>
      <trkpt lat="59.8994314" lon="17.7206498">
        <ele>27.0543</ele>
        <time>2013-03-10T14:23:06Z</time>
      </trkpt>
      <trkpt lat="59.8994444" lon="17.7206576">
        <ele>27.0543</ele>
        <time>2013-03-10T14:23:07Z</time>
      </trkpt>
      <trkpt lat="59.8994547" lon="17.720667">
        <ele>27.5349</ele>
        <time>2013-03-10T14:23:08Z</time>
      </trkpt>
      <trkpt lat="59.8994651" lon="17.7206773">
        <ele>27.5349</ele>
        <time>2013-03-10T14:23:09Z</time>
      </trkpt>
      <trkpt lat="59.8994753" lon="17.7206867">
        <ele>27.5349</ele>
        <time>2013-03-10T14:23:10Z</time>
      </trkpt>
      <trkpt lat="59.8994861" lon="17.7207027">
        <ele>34.7449</ele>
        <time>2013-03-10T14:26:00Z</time>
      </trkpt>
      <trkpt lat="59.8994788" lon="17.7207001">
        <ele>35.2255</ele>
        <time>2013-03-10T14:26:01Z</time>
      </trkpt>
      <trkpt lat="59.8994752" lon="17.7207086">
        <ele>35.2255</ele>
        <time>2013-03-10T14:26:02Z</time>
      </trkpt>
      <trkpt lat="59.8994682" lon="17.7207142">
        <ele>34.7449</ele>
        <time>2013-03-10T14:26:03Z</time>
      </trkpt>
      <trkpt lat="59.8994564" lon="17.7207138">
        <ele>34.2642</ele>
        <time>2013-03-10T14:26:04Z</time>
      </trkpt>
      <trkpt lat="59.8994454" lon="17.7207107">
        <ele>34.2642</ele>
        <time>2013-03-10T14:26:05Z</time>
      </trkpt>
      <trkpt lat="59.8994355" lon="17.7207026">
        <ele>34.2642</ele>
        <time>2013-03-10T14:26:06Z</time>
      </trkpt>
      <trkpt lat="59.8994263" lon="17.7206905">
        <ele>33.7834</ele>
        <time>2013-03-10T14:26:07Z</time>
      </trkpt>
      <trkpt lat="59.8994178" lon="17.7206784">
        <ele>33.7834</ele>
        <time>2013-03-10T14:26:08Z</time>
      </trkpt>
      <trkpt lat="59.8994084" lon="17.7206705">
        <ele>33.3029</ele>
        <time>2013-03-10T14:26:09Z</time>
      </trkpt>
      <trkpt lat="59.8993993" lon="17.720667">
        <ele>33.3029</ele>
        <time>2013-03-10T14:26:10Z</time>
      </trkpt>
      <trkpt lat="59.8993889" lon="17.7206602">
        <ele>32.8223</ele>
        <time>2013-03-10T14:26:11Z</time>
      </trkpt>
      <trkpt lat="59.8993773" lon="17.7206495">
        <ele>32.3416</ele>
        <time>2013-03-10T14:26:12Z</time>
      </trkpt>
      <trkpt lat="59.8993677" lon="17.7206317">
        <ele>32.3416</ele>
        <time>2013-03-10T14:26:13Z</time>
      </trkpt>
      <trkpt lat="59.8993603" lon="17.7206082">
        <ele>31.8607</ele>
        <time>2013-03-10T14:26:14Z</time>
      </trkpt>
      <trkpt lat="59.8993546" lon="17.7205848">
        <ele>31.8607</ele>
        <time>2013-03-10T14:26:15Z</time>
      </trkpt>
      <trkpt lat="59.8993501" lon="17.7205607">
        <ele>31.3801</ele>
        <time>2013-03-10T14:26:16Z</time>
      </trkpt>
      <trkpt lat="59.8993454" lon="17.7205103">
        <ele>30.8995</ele>
        <time>2013-03-10T14:26:17Z</time>
      </trkpt>
      <trkpt lat="59.899346" lon="17.7204851">
        <ele>30.4188</ele>
        <time>2013-03-10T14:26:18Z</time>
      </trkpt>
      <trkpt lat="59.899348" lon="17.7204577">
        <ele>30.4188</ele>
        <time>2013-03-10T14:26:19Z</time>
      </trkpt>
      <trkpt lat="59.8993505" lon="17.7204299">
        <ele>29.9381</ele>
        <time>2013-03-10T14:26:20Z</time>
      </trkpt>
      <trkpt lat="59.8993524" lon="17.7204038">
        <ele>29.9381</ele>
        <time>2013-03-10T14:26:21Z</time>
      </trkpt>
      <trkpt lat="59.8993555" lon="17.7203791">
        <ele>29.4575</ele>
        <time>2013-03-10T14:26:22Z</time>
      </trkpt>
      <trkpt lat="59.8993589" lon="17.7203532">
        <ele>29.4575</ele>
        <time>2013-03-10T14:26:23Z</time>
      </trkpt>
      <trkpt lat="59.8993628" lon="17.7203271">
        <ele>29.4575</ele>
        <time>2013-03-10T14:26:24Z</time>
      </trkpt>
      <trkpt lat="59.8993666" lon="17.7203008">
        <ele>28.9769</ele>
        <time>2013-03-10T14:26:25Z</time>
      </trkpt>
      <trkpt lat="59.8993719" lon="17.7202776">
        <ele>28.9769</ele>
        <time>2013-03-10T14:26:26Z</time>
      </trkpt>
      <trkpt lat="59.899378" lon="17.7202558">
        <ele>28.9769</ele>
        <time>2013-03-10T14:26:27Z</time>
      </trkpt>
      <trkpt lat="59.8993835" lon="17.7202321">
        <ele>28.4962</ele>
        <time>2013-03-10T14:26:28Z</time>
      </trkpt>
      <trkpt lat="59.8993884" lon="17.7202086">
        <ele>28.4962</ele>
        <time>2013-03-10T14:26:29Z</time>
      </trkpt>
      <trkpt lat="59.8993925" lon="17.7201828">
        <ele>28.4962</ele>
        <time>2013-03-10T14:26:30Z</time>
      </trkpt>
      <trkpt lat="59.8993967" lon="17.720157">
        <ele>28.0155</ele>
        <time>2013-03-10T14:26:31Z</time>
      </trkpt>
      <trkpt lat="59.8994013" lon="17.7201321">
        <ele>28.0155</ele>
        <time>2013-03-10T14:26:32Z</time>
      </trkpt>
      <trkpt lat="59.8994064" lon="17.7201075">
        <ele>28.0155</ele>
        <time>2013-03-10T14:26:33Z</time>
      </trkpt>
      <trkpt lat="59.8994122" lon="17.7200815">
        <ele>27.5349</ele>
        <time>2013-03-10T14:26:34Z</time>
      </trkpt>
      <trkpt lat="59.8994174" lon="17.7200548">
        <ele>27.0543</ele>
        <time>2013-03-10T14:26:35Z</time>
      </trkpt>
      <trkpt lat="59.8994219" lon="17.7200282">
        <ele>27.0543</ele>
        <time>2013-03-10T14:26:36Z</time>
      </trkpt>
      <trkpt lat="59.8994273" lon="17.7200035">
        <ele>26.5736</ele>
        <time>2013-03-10T14:26:37Z</time>
      </trkpt>
      <trkpt lat="59.8994323" lon="17.7199788">
        <ele>26.5736</ele>
        <time>2013-03-10T14:26:38Z</time>
      </trkpt>
      <trkpt lat="59.8994371" lon="17.7199548">
        <ele>26.0929</ele>
        <time>2013-03-10T14:26:39Z</time>
      </trkpt>
      <trkpt lat="59.8994421" lon="17.7199308">
        <ele>26.0929</ele>
        <time>2013-03-10T14:26:40Z</time>
      </trkpt>
      <trkpt lat="59.8994469" lon="17.7199057">
        <ele>26.0929</ele>
        <time>2013-03-10T14:26:41Z</time>
      </trkpt>
      <trkpt lat="59.8994519" lon="17.7198823">
        <ele>25.6123</ele>
        <time>2013-03-10T14:26:42Z</time>
      </trkpt>
      <trkpt lat="59.8994568" lon="17.7198598">
        <ele>25.6123</ele>
        <time>2013-03-10T14:26:43Z</time>
      </trkpt>
      <trkpt lat="59.8994619" lon="17.719836">
        <ele>25.6123</ele>
        <time>2013-03-10T14:26:44Z</time>
      </trkpt>
      <trkpt lat="59.8994667" lon="17.7198107">
        <ele>25.6123</ele>
        <time>2013-03-10T14:26:45Z</time>
      </trkpt>
      <trkpt lat="59.8994723" lon="17.7197861">
        <ele>25.6123</ele>
        <time>2013-03-10T14:26:46Z</time>
      </trkpt>
      <trkpt lat="59.8994783" lon="17.7197611">
        <ele>25.6123</ele>
        <time>2013-03-10T14:26:47Z</time>
      </trkpt>
      <trkpt lat="59.8994835" lon="17.7197348">
        <ele>25.6123</ele>
        <time>2013-03-10T14:26:48Z</time>
      </trkpt>
      <trkpt lat="59.8994892" lon="17.7197102">
        <ele>25.6123</ele>
        <time>2013-03-10T14:26:49Z</time>
      </trkpt>
      <trkpt lat="59.8994975" lon="17.7196849">
        <ele>26.0929</ele>
        <time>2013-03-10T14:26:50Z</time>
      </trkpt>
      <trkpt lat="59.8995029" lon="17.7196596">
        <ele>26.0929</ele>
        <time>2013-03-10T14:26:51Z</time>
      </trkpt>
      <trkpt lat="59.8995049" lon="17.7196335">
        <ele>26.0929</ele>
        <time>2013-03-10T14:26:52Z</time>
      </trkpt>
      <trkpt lat="59.8995099" lon="17.7196099">
        <ele>26.0929</ele>
        <time>2013-03-10T14:26:53Z</time>
      </trkpt>
      <trkpt lat="59.8995158" lon="17.7195848">
        <ele>26.0929</ele>
        <time>2013-03-10T14:26:54Z</time>
      </trkpt>
      <trkpt lat="59.8995216" lon="17.7195599">
        <ele>26.0929</ele>
        <time>2013-03-10T14:26:55Z</time>
      </trkpt>
      <trkpt lat="59.8995273" lon="17.719535">
        <ele>26.0929</ele>
        <time>2013-03-10T14:26:56Z</time>
      </trkpt>
      <trkpt lat="59.8995337" lon="17.7195124">
        <ele>26.5736</ele>
        <time>2013-03-10T14:26:57Z</time>
      </trkpt>
      <trkpt lat="59.899538" lon="17.719487">
        <ele>26.5736</ele>
        <time>2013-03-10T14:26:58Z</time>
      </trkpt>
      <trkpt lat="59.8995438" lon="17.7194616">
        <ele>26.5736</ele>
        <time>2013-03-10T14:26:59Z</time>
      </trkpt>
      <trkpt lat="59.8995501" lon="17.7194363">
        <ele>26.5736</ele>
        <time>2013-03-10T14:27:00Z</time>
      </trkpt>
      <trkpt lat="59.8995567" lon="17.7194125">
        <ele>26.5736</ele>
        <time>2013-03-10T14:27:01Z</time>
      </trkpt>
      <trkpt lat="59.8995634" lon="17.7193869">
        <ele>26.5736</ele>
        <time>2013-03-10T14:27:02Z</time>
      </trkpt>
      <trkpt lat="59.8995701" lon="17.7193629">
        <ele>26.5736</ele>
        <time>2013-03-10T14:27:03Z</time>
      </trkpt>
      <trkpt lat="59.8995769" lon="17.7193379">
        <ele>26.5736</ele>
        <time>2013-03-10T14:27:04Z</time>
      </trkpt>
      <trkpt lat="59.8995835" lon="17.7193135">
        <ele>27.0543</ele>
        <time>2013-03-10T14:27:05Z</time>
      </trkpt>
      <trkpt lat="59.8995907" lon="17.7192901">
        <ele>27.0543</ele>
        <time>2013-03-10T14:27:06Z</time>
      </trkpt>
      <trkpt lat="59.8995975" lon="17.7192654">
        <ele>27.0543</ele>
        <time>2013-03-10T14:27:07Z</time>
      </trkpt>
      <trkpt lat="59.8996045" lon="17.7192421">
        <ele>27.0543</ele>
        <time>2013-03-10T14:27:08Z</time>
      </trkpt>
      <trkpt lat="59.8996111" lon="17.7192182">
        <ele>27.0543</ele>
        <time>2013-03-10T14:27:09Z</time>
      </trkpt>
      <trkpt lat="59.8996179" lon="17.7191949">
        <ele>27.0543</ele>
        <time>2013-03-10T14:27:10Z</time>
      </trkpt>
      <trkpt lat="59.8996242" lon="17.7191728">
        <ele>27.0543</ele>
        <time>2013-03-10T14:27:11Z</time>
      </trkpt>
      <trkpt lat="59.8996304" lon="17.7191524">
        <ele>27.0543</ele>
        <time>2013-03-10T14:27:12Z</time>
      </trkpt>
      <trkpt lat="59.8996365" lon="17.7191276">
        <ele>27.0543</ele>
        <time>2013-03-10T14:27:13Z</time>
      </trkpt>
      <trkpt lat="59.8996418" lon="17.7191026">
        <ele>27.0543</ele>
        <time>2013-03-10T14:27:14Z</time>
      </trkpt>
      <trkpt lat="59.8996482" lon="17.7190802">
        <ele>27.0543</ele>
        <time>2013-03-10T14:27:15Z</time>
      </trkpt>
      <trkpt lat="59.8996548" lon="17.7190583">
        <ele>27.0543</ele>
        <time>2013-03-10T14:27:16Z</time>
      </trkpt>
      <trkpt lat="59.8996602" lon="17.7190407">
        <ele>27.0543</ele>
        <time>2013-03-10T14:27:17Z</time>
      </trkpt>
      <trkpt lat="59.8996655" lon="17.7190214">
        <ele>27.0543</ele>
        <time>2013-03-10T14:27:18Z</time>
      </trkpt>
      <trkpt lat="59.8996717" lon="17.7189984">
        <ele>27.5349</ele>
        <time>2013-03-10T14:27:19Z</time>
      </trkpt>
      <trkpt lat="59.8996786" lon="17.7189767">
        <ele>27.5349</ele>
        <time>2013-03-10T14:27:20Z</time>
      </trkpt>
      <trkpt lat="59.8996867" lon="17.7189571">
        <ele>27.5349</ele>
        <time>2013-03-10T14:27:21Z</time>
      </trkpt>
      <trkpt lat="59.8996945" lon="17.7189385">
        <ele>27.5349</ele>
        <time>2013-03-10T14:27:22Z</time>
      </trkpt>
      <trkpt lat="59.8997011" lon="17.7189184">
        <ele>27.5349</ele>
        <time>2013-03-10T14:27:23Z</time>
      </trkpt>
      <trkpt lat="59.8997074" lon="17.718896">
        <ele>28.0155</ele>
        <time>2013-03-10T14:27:24Z</time>
      </trkpt>
      <trkpt lat="59.8997137" lon="17.7188735">
        <ele>28.0155</ele>
        <time>2013-03-10T14:27:25Z</time>
      </trkpt>
      <trkpt lat="59.8997205" lon="17.7188524">
        <ele>28.0155</ele>
        <time>2013-03-10T14:27:26Z</time>
      </trkpt>
      <trkpt lat="59.8997276" lon="17.7188287">
        <ele>28.0155</ele>
        <time>2013-03-10T14:27:27Z</time>
      </trkpt>
      <trkpt lat="59.899734" lon="17.7188059">
        <ele>28.4962</ele>
        <time>2013-03-10T14:27:28Z</time>
      </trkpt>
      <trkpt lat="59.8997412" lon="17.7187847">
        <ele>28.4962</ele>
        <time>2013-03-10T14:27:29Z</time>
      </trkpt>
      <trkpt lat="59.8997479" lon="17.7187613">
        <ele>28.4962</ele>
        <time>2013-03-10T14:27:30Z</time>
      </trkpt>
      <trkpt lat="59.8997556" lon="17.7187385">
        <ele>28.9769</ele>
        <time>2013-03-10T14:27:31Z</time>
      </trkpt>
      <trkpt lat="59.8997639" lon="17.7187183">
        <ele>28.4962</ele>
        <time>2013-03-10T14:27:32Z</time>
      </trkpt>
      <trkpt lat="59.8997717" lon="17.7186981">
        <ele>28.4962</ele>
        <time>2013-03-10T14:27:33Z</time>
      </trkpt>
      <trkpt lat="59.8997789" lon="17.7186774">
        <ele>28.9769</ele>
        <time>2013-03-10T14:27:34Z</time>
      </trkpt>
      <trkpt lat="59.8997861" lon="17.7186568">
        <ele>28.9769</ele>
        <time>2013-03-10T14:27:35Z</time>
      </trkpt>
      <trkpt lat="59.899793" lon="17.7186338">
        <ele>28.9769</ele>
        <time>2013-03-10T14:27:36Z</time>
      </trkpt>
      <trkpt lat="59.8998002" lon="17.7186101">
        <ele>28.9769</ele>
        <time>2013-03-10T14:27:37Z</time>
      </trkpt>
      <trkpt lat="59.8998074" lon="17.7185853">
        <ele>29.4575</ele>
        <time>2013-03-10T14:27:38Z</time>
      </trkpt>
      <trkpt lat="59.899814" lon="17.7185597">
        <ele>29.4575</ele>
        <time>2013-03-10T14:27:39Z</time>
      </trkpt>
      <trkpt lat="59.8998204" lon="17.7185342">
        <ele>29.9381</ele>
        <time>2013-03-10T14:27:40Z</time>
      </trkpt>
      <trkpt lat="59.8998271" lon="17.7185092">
        <ele>30.4188</ele>
        <time>2013-03-10T14:27:41Z</time>
      </trkpt>
      <trkpt lat="59.8998342" lon="17.7184831">
        <ele>30.4188</ele>
        <time>2013-03-10T14:27:42Z</time>
      </trkpt>
      <trkpt lat="59.8998416" lon="17.7184573">
        <ele>30.4188</ele>
        <time>2013-03-10T14:27:43Z</time>
      </trkpt>
      <trkpt lat="59.899849" lon="17.7184329">
        <ele>30.4188</ele>
        <time>2013-03-10T14:27:44Z</time>
      </trkpt>
      <trkpt lat="59.8998568" lon="17.7184106">
        <ele>30.4188</ele>
        <time>2013-03-10T14:27:45Z</time>
      </trkpt>
      <trkpt lat="59.8998639" lon="17.7183863">
        <ele>30.8995</ele>
        <time>2013-03-10T14:27:46Z</time>
      </trkpt>
      <trkpt lat="59.8998713" lon="17.7183613">
        <ele>30.8995</ele>
        <time>2013-03-10T14:27:47Z</time>
      </trkpt>
      <trkpt lat="59.8998782" lon="17.7183361">
        <ele>30.8995</ele>
        <time>2013-03-10T14:27:48Z</time>
      </trkpt>
      <trkpt lat="59.8998855" lon="17.7183125">
        <ele>30.8995</ele>
        <time>2013-03-10T14:27:49Z</time>
      </trkpt>
      <trkpt lat="59.8998927" lon="17.7182888">
        <ele>31.3801</ele>
        <time>2013-03-10T14:27:50Z</time>
      </trkpt>
      <trkpt lat="59.8998987" lon="17.7182645">
        <ele>31.3801</ele>
        <time>2013-03-10T14:27:51Z</time>
      </trkpt>
      <trkpt lat="59.8999058" lon="17.7182405">
        <ele>31.3801</ele>
        <time>2013-03-10T14:27:52Z</time>
      </trkpt>
      <trkpt lat="59.8999127" lon="17.7182163">
        <ele>31.3801</ele>
        <time>2013-03-10T14:27:53Z</time>
      </trkpt>
      <trkpt lat="59.8999198" lon="17.7181934">
        <ele>31.3801</ele>
        <time>2013-03-10T14:27:54Z</time>
      </trkpt>
      <trkpt lat="59.8999271" lon="17.7181723">
        <ele>31.3801</ele>
        <time>2013-03-10T14:27:55Z</time>
      </trkpt>
      <trkpt lat="59.8999333" lon="17.7181512">
        <ele>31.3801</ele>
        <time>2013-03-10T14:27:56Z</time>
      </trkpt>
      <trkpt lat="59.8999393" lon="17.7181299">
        <ele>31.3801</ele>
        <time>2013-03-10T14:27:57Z</time>
      </trkpt>
      <trkpt lat="59.8999452" lon="17.7181087">
        <ele>31.3801</ele>
        <time>2013-03-10T14:27:58Z</time>
      </trkpt>
      <trkpt lat="59.8999511" lon="17.718088">
        <ele>30.8995</ele>
        <time>2013-03-10T14:27:59Z</time>
      </trkpt>
      <trkpt lat="59.8999572" lon="17.718065">
        <ele>30.8995</ele>
        <time>2013-03-10T14:28:00Z</time>
      </trkpt>
      <trkpt lat="59.899963" lon="17.7180397">
        <ele>30.4188</ele>
        <time>2013-03-10T14:28:01Z</time>
      </trkpt>
      <trkpt lat="59.8999691" lon="17.7180171">
        <ele>30.4188</ele>
        <time>2013-03-10T14:28:02Z</time>
      </trkpt>
      <trkpt lat="59.8999742" lon="17.7179947">
        <ele>30.4188</ele>
        <time>2013-03-10T14:28:03Z</time>
      </trkpt>
      <trkpt lat="59.8999769" lon="17.7179703">
        <ele>29.9381</ele>
        <time>2013-03-10T14:28:04Z</time>
      </trkpt>
      <trkpt lat="59.8999799" lon="17.7179458">
        <ele>29.9381</ele>
        <time>2013-03-10T14:28:05Z</time>
      </trkpt>
      <trkpt lat="59.8999847" lon="17.717921">
        <ele>29.9381</ele>
        <time>2013-03-10T14:28:06Z</time>
      </trkpt>
      <trkpt lat="59.8999894" lon="17.7178959">
        <ele>29.9381</ele>
        <time>2013-03-10T14:28:07Z</time>
      </trkpt>
      <trkpt lat="59.8999945" lon="17.7178725">
        <ele>29.4575</ele>
        <time>2013-03-10T14:28:08Z</time>
      </trkpt>
      <trkpt lat="59.8999996" lon="17.7178498">
        <ele>29.4575</ele>
        <time>2013-03-10T14:28:09Z</time>
      </trkpt>
      <trkpt lat="59.9000036" lon="17.7178254">
        <ele>29.4575</ele>
        <time>2013-03-10T14:28:10Z</time>
      </trkpt>
      <trkpt lat="59.9000079" lon="17.7178024">
        <ele>29.4575</ele>
        <time>2013-03-10T14:28:11Z</time>
      </trkpt>
      <trkpt lat="59.9000122" lon="17.7177797">
        <ele>29.4575</ele>
        <time>2013-03-10T14:28:12Z</time>
      </trkpt>
      <trkpt lat="59.9000157" lon="17.7177564">
        <ele>29.9381</ele>
        <time>2013-03-10T14:28:13Z</time>
      </trkpt>
      <trkpt lat="59.9000198" lon="17.7177366">
        <ele>29.4575</ele>
        <time>2013-03-10T14:28:14Z</time>
      </trkpt>
      <trkpt lat="59.900024" lon="17.717716">
        <ele>29.4575</ele>
        <time>2013-03-10T14:28:15Z</time>
      </trkpt>
      <trkpt lat="59.900028" lon="17.7176953">
        <ele>29.4575</ele>
        <time>2013-03-10T14:28:16Z</time>
      </trkpt>
      <trkpt lat="59.9000317" lon="17.7176746">
        <ele>29.4575</ele>
        <time>2013-03-10T14:28:17Z</time>
      </trkpt>
      <trkpt lat="59.9000343" lon="17.7176538">
        <ele>28.9769</ele>
        <time>2013-03-10T14:28:18Z</time>
      </trkpt>
      <trkpt lat="59.9000363" lon="17.7176326">
        <ele>28.9769</ele>
        <time>2013-03-10T14:28:19Z</time>
      </trkpt>
      <trkpt lat="59.900039" lon="17.7176115">
        <ele>28.9769</ele>
        <time>2013-03-10T14:28:20Z</time>
      </trkpt>
      <trkpt lat="59.9000425" lon="17.7175905">
        <ele>28.9769</ele>
        <time>2013-03-10T14:28:21Z</time>
      </trkpt>
      <trkpt lat="59.9000457" lon="17.7175689">
        <ele>28.9769</ele>
        <time>2013-03-10T14:28:22Z</time>
      </trkpt>
      <trkpt lat="59.9000488" lon="17.7175475">
        <ele>28.9769</ele>
        <time>2013-03-10T14:28:23Z</time>
      </trkpt>
      <trkpt lat="59.9000515" lon="17.7175253">
        <ele>28.9769</ele>
        <time>2013-03-10T14:28:24Z</time>
      </trkpt>
      <trkpt lat="59.9000544" lon="17.7175041">
        <ele>28.9769</ele>
        <time>2013-03-10T14:28:25Z</time>
      </trkpt>
      <trkpt lat="59.9000567" lon="17.7174808">
        <ele>28.4962</ele>
        <time>2013-03-10T14:28:26Z</time>
      </trkpt>
      <trkpt lat="59.9000592" lon="17.717457">
        <ele>28.4962</ele>
        <time>2013-03-10T14:28:27Z</time>
      </trkpt>
      <trkpt lat="59.9000633" lon="17.7174332">
        <ele>28.4962</ele>
        <time>2013-03-10T14:28:28Z</time>
      </trkpt>
      <trkpt lat="59.900068" lon="17.7174129">
        <ele>28.0155</ele>
        <time>2013-03-10T14:28:29Z</time>
      </trkpt>
      <trkpt lat="59.9000709" lon="17.7173932">
        <ele>28.0155</ele>
        <time>2013-03-10T14:28:30Z</time>
      </trkpt>
      <trkpt lat="59.9000736" lon="17.7173715">
        <ele>28.0155</ele>
        <time>2013-03-10T14:28:31Z</time>
      </trkpt>
      <trkpt lat="59.9000759" lon="17.7173476">
        <ele>28.4962</ele>
        <time>2013-03-10T14:28:32Z</time>
      </trkpt>
      <trkpt lat="59.9000784" lon="17.7173218">
        <ele>28.4962</ele>
        <time>2013-03-10T14:28:33Z</time>
      </trkpt>
      <trkpt lat="59.900079" lon="17.7172962">
        <ele>28.4962</ele>
        <time>2013-03-10T14:28:34Z</time>
      </trkpt>
      <trkpt lat="59.9000802" lon="17.7172737">
        <ele>28.4962</ele>
        <time>2013-03-10T14:28:35Z</time>
      </trkpt>
      <trkpt lat="59.9000818" lon="17.7172476">
        <ele>28.4962</ele>
        <time>2013-03-10T14:28:36Z</time>
      </trkpt>
      <trkpt lat="59.9000831" lon="17.7172213">
        <ele>28.4962</ele>
        <time>2013-03-10T14:28:37Z</time>
      </trkpt>
      <trkpt lat="59.9000844" lon="17.7171957">
        <ele>28.4962</ele>
        <time>2013-03-10T14:28:38Z</time>
      </trkpt>
      <trkpt lat="59.9000861" lon="17.7171708">
        <ele>28.4962</ele>
        <time>2013-03-10T14:28:39Z</time>
      </trkpt>
      <trkpt lat="59.9000861" lon="17.717146">
        <ele>28.4962</ele>
        <time>2013-03-10T14:28:40Z</time>
      </trkpt>
      <trkpt lat="59.900086" lon="17.7171218">
        <ele>28.4962</ele>
        <time>2013-03-10T14:28:41Z</time>
      </trkpt>
      <trkpt lat="59.9000857" lon="17.7170958">
        <ele>28.4962</ele>
        <time>2013-03-10T14:28:42Z</time>
      </trkpt>
      <trkpt lat="59.9000867" lon="17.7170711">
        <ele>28.4962</ele>
        <time>2013-03-10T14:28:43Z</time>
      </trkpt>
      <trkpt lat="59.9000873" lon="17.7170463">
        <ele>28.4962</ele>
        <time>2013-03-10T14:28:44Z</time>
      </trkpt>
      <trkpt lat="59.900088" lon="17.7170206">
        <ele>28.4962</ele>
        <time>2013-03-10T14:28:45Z</time>
      </trkpt>
      <trkpt lat="59.9000883" lon="17.716994">
        <ele>28.4962</ele>
        <time>2013-03-10T14:28:46Z</time>
      </trkpt>
      <trkpt lat="59.9000886" lon="17.716968">
        <ele>28.4962</ele>
        <time>2013-03-10T14:28:47Z</time>
      </trkpt>
      <trkpt lat="59.900089" lon="17.716941">
        <ele>28.4962</ele>
        <time>2013-03-10T14:28:48Z</time>
      </trkpt>
      <trkpt lat="59.9000892" lon="17.7169177">
        <ele>28.0155</ele>
        <time>2013-03-10T14:28:49Z</time>
      </trkpt>
      <trkpt lat="59.9000894" lon="17.7168918">
        <ele>28.0155</ele>
        <time>2013-03-10T14:28:50Z</time>
      </trkpt>
      <trkpt lat="59.9000912" lon="17.7168654">
        <ele>28.0155</ele>
        <time>2013-03-10T14:28:51Z</time>
      </trkpt>
      <trkpt lat="59.9000924" lon="17.716839">
        <ele>28.0155</ele>
        <time>2013-03-10T14:28:52Z</time>
      </trkpt>
      <trkpt lat="59.9000935" lon="17.7168115">
        <ele>28.4962</ele>
        <time>2013-03-10T14:28:53Z</time>
      </trkpt>
      <trkpt lat="59.9000955" lon="17.7167836">
        <ele>28.4962</ele>
        <time>2013-03-10T14:28:54Z</time>
      </trkpt>
      <trkpt lat="59.9000979" lon="17.7167551">
        <ele>28.4962</ele>
        <time>2013-03-10T14:28:55Z</time>
      </trkpt>
      <trkpt lat="59.9001001" lon="17.7167276">
        <ele>28.4962</ele>
        <time>2013-03-10T14:28:56Z</time>
      </trkpt>
      <trkpt lat="59.9001013" lon="17.7167016">
        <ele>28.4962</ele>
        <time>2013-03-10T14:28:57Z</time>
      </trkpt>
      <trkpt lat="59.9001026" lon="17.7166759">
        <ele>28.4962</ele>
        <time>2013-03-10T14:28:58Z</time>
      </trkpt>
      <trkpt lat="59.9001047" lon="17.7166498">
        <ele>28.9769</ele>
        <time>2013-03-10T14:28:59Z</time>
      </trkpt>
      <trkpt lat="59.9001058" lon="17.7166231">
        <ele>28.9769</ele>
        <time>2013-03-10T14:29:00Z</time>
      </trkpt>
      <trkpt lat="59.9001054" lon="17.7165948">
        <ele>28.9769</ele>
        <time>2013-03-10T14:29:01Z</time>
      </trkpt>
      <trkpt lat="59.9001062" lon="17.7165659">
        <ele>29.4575</ele>
        <time>2013-03-10T14:29:02Z</time>
      </trkpt>
      <trkpt lat="59.900108" lon="17.7165378">
        <ele>29.4575</ele>
        <time>2013-03-10T14:29:03Z</time>
      </trkpt>
      <trkpt lat="59.9001101" lon="17.7165104">
        <ele>29.4575</ele>
        <time>2013-03-10T14:29:04Z</time>
      </trkpt>
      <trkpt lat="59.9001122" lon="17.7164835">
        <ele>29.4575</ele>
        <time>2013-03-10T14:29:05Z</time>
      </trkpt>
      <trkpt lat="59.9001141" lon="17.7164561">
        <ele>29.4575</ele>
        <time>2013-03-10T14:29:06Z</time>
      </trkpt>
      <trkpt lat="59.9001157" lon="17.7164286">
        <ele>29.4575</ele>
        <time>2013-03-10T14:29:07Z</time>
      </trkpt>
      <trkpt lat="59.9001162" lon="17.7164009">
        <ele>29.4575</ele>
        <time>2013-03-10T14:29:08Z</time>
      </trkpt>
      <trkpt lat="59.9001167" lon="17.7163728">
        <ele>29.4575</ele>
        <time>2013-03-10T14:29:09Z</time>
      </trkpt>
      <trkpt lat="59.9001191" lon="17.7163467">
        <ele>29.4575</ele>
        <time>2013-03-10T14:29:10Z</time>
      </trkpt>
      <trkpt lat="59.9001217" lon="17.7163198">
        <ele>29.4575</ele>
        <time>2013-03-10T14:29:11Z</time>
      </trkpt>
      <trkpt lat="59.9001234" lon="17.7162923">
        <ele>29.4575</ele>
        <time>2013-03-10T14:29:12Z</time>
      </trkpt>
      <trkpt lat="59.9001246" lon="17.7162651">
        <ele>29.9381</ele>
        <time>2013-03-10T14:29:13Z</time>
      </trkpt>
      <trkpt lat="59.900126" lon="17.7162382">
        <ele>29.9381</ele>
        <time>2013-03-10T14:29:14Z</time>
      </trkpt>
      <trkpt lat="59.9001267" lon="17.7162108">
        <ele>29.9381</ele>
        <time>2013-03-10T14:29:15Z</time>
      </trkpt>
      <trkpt lat="59.900128" lon="17.7161856">
        <ele>29.9381</ele>
        <time>2013-03-10T14:29:16Z</time>
      </trkpt>
      <trkpt lat="59.9001307" lon="17.7161623">
        <ele>29.9381</ele>
        <time>2013-03-10T14:29:17Z</time>
      </trkpt>
      <trkpt lat="59.9001334" lon="17.7161385">
        <ele>29.9381</ele>
        <time>2013-03-10T14:29:18Z</time>
      </trkpt>
      <trkpt lat="59.9001368" lon="17.7161164">
        <ele>29.9381</ele>
        <time>2013-03-10T14:29:19Z</time>
      </trkpt>
      <trkpt lat="59.9001403" lon="17.7160936">
        <ele>29.9381</ele>
        <time>2013-03-10T14:29:20Z</time>
      </trkpt>
      <trkpt lat="59.900144" lon="17.7160706">
        <ele>29.9381</ele>
        <time>2013-03-10T14:29:21Z</time>
      </trkpt>
      <trkpt lat="59.9001479" lon="17.7160465">
        <ele>29.9381</ele>
        <time>2013-03-10T14:29:22Z</time>
      </trkpt>
      <trkpt lat="59.9001508" lon="17.7160211">
        <ele>29.9381</ele>
        <time>2013-03-10T14:29:23Z</time>
      </trkpt>
      <trkpt lat="59.9001508" lon="17.715997">
        <ele>29.9381</ele>
        <time>2013-03-10T14:29:24Z</time>
      </trkpt>
      <trkpt lat="59.9001504" lon="17.7159711">
        <ele>29.9381</ele>
        <time>2013-03-10T14:29:25Z</time>
      </trkpt>
      <trkpt lat="59.9001525" lon="17.7159445">
        <ele>30.4188</ele>
        <time>2013-03-10T14:29:26Z</time>
      </trkpt>
      <trkpt lat="59.9001539" lon="17.7159176">
        <ele>30.4188</ele>
        <time>2013-03-10T14:29:27Z</time>
      </trkpt>
      <trkpt lat="59.9001567" lon="17.7158926">
        <ele>30.4188</ele>
        <time>2013-03-10T14:29:28Z</time>
      </trkpt>
      <trkpt lat="59.900161" lon="17.7158703">
        <ele>30.4188</ele>
        <time>2013-03-10T14:29:29Z</time>
      </trkpt>
      <trkpt lat="59.9001637" lon="17.7158476">
        <ele>30.8995</ele>
        <time>2013-03-10T14:29:30Z</time>
      </trkpt>
      <trkpt lat="59.9001667" lon="17.7158268">
        <ele>30.8995</ele>
        <time>2013-03-10T14:29:31Z</time>
      </trkpt>
      <trkpt lat="59.9001695" lon="17.715805">
        <ele>30.8995</ele>
        <time>2013-03-10T14:29:32Z</time>
      </trkpt>
      <trkpt lat="59.9001712" lon="17.7157831">
        <ele>30.8995</ele>
        <time>2013-03-10T14:29:33Z</time>
      </trkpt>
      <trkpt lat="59.900173" lon="17.7157611">
        <ele>30.8995</ele>
        <time>2013-03-10T14:29:34Z</time>
      </trkpt>
      <trkpt lat="59.9001753" lon="17.7157389">
        <ele>30.8995</ele>
        <time>2013-03-10T14:29:35Z</time>
      </trkpt>
      <trkpt lat="59.9001782" lon="17.7157175">
        <ele>30.8995</ele>
        <time>2013-03-10T14:29:36Z</time>
      </trkpt>
      <trkpt lat="59.9001815" lon="17.7156966">
        <ele>30.8995</ele>
        <time>2013-03-10T14:29:37Z</time>
      </trkpt>
      <trkpt lat="59.9001849" lon="17.715675">
        <ele>30.8995</ele>
        <time>2013-03-10T14:29:38Z</time>
      </trkpt>
      <trkpt lat="59.9001882" lon="17.7156523">
        <ele>30.8995</ele>
        <time>2013-03-10T14:29:39Z</time>
      </trkpt>
      <trkpt lat="59.9001902" lon="17.7156288">
        <ele>31.3801</ele>
        <time>2013-03-10T14:29:40Z</time>
      </trkpt>
      <trkpt lat="59.9001934" lon="17.7156067">
        <ele>31.3801</ele>
        <time>2013-03-10T14:29:41Z</time>
      </trkpt>
      <trkpt lat="59.9001975" lon="17.7155844">
        <ele>31.3801</ele>
        <time>2013-03-10T14:29:42Z</time>
      </trkpt>
      <trkpt lat="59.9002011" lon="17.7155626">
        <ele>31.3801</ele>
        <time>2013-03-10T14:29:43Z</time>
      </trkpt>
      <trkpt lat="59.9002043" lon="17.7155403">
        <ele>31.3801</ele>
        <time>2013-03-10T14:29:44Z</time>
      </trkpt>
      <trkpt lat="59.9002088" lon="17.7155194">
        <ele>31.3801</ele>
        <time>2013-03-10T14:29:45Z</time>
      </trkpt>
      <trkpt lat="59.9002134" lon="17.7154975">
        <ele>31.3801</ele>
        <time>2013-03-10T14:29:46Z</time>
      </trkpt>
      <trkpt lat="59.900218" lon="17.7154744">
        <ele>31.3801</ele>
        <time>2013-03-10T14:29:47Z</time>
      </trkpt>
      <trkpt lat="59.9002228" lon="17.7154508">
        <ele>31.3801</ele>
        <time>2013-03-10T14:29:48Z</time>
      </trkpt>
      <trkpt lat="59.900227" lon="17.7154288">
        <ele>31.3801</ele>
        <time>2013-03-10T14:29:49Z</time>
      </trkpt>
      <trkpt lat="59.9002328" lon="17.7154047">
        <ele>31.8607</ele>
        <time>2013-03-10T14:29:50Z</time>
      </trkpt>
      <trkpt lat="59.9002388" lon="17.7153798">
        <ele>31.8607</ele>
        <time>2013-03-10T14:29:51Z</time>
      </trkpt>
      <trkpt lat="59.9002435" lon="17.7153558">
        <ele>31.8607</ele>
        <time>2013-03-10T14:29:52Z</time>
      </trkpt>
      <trkpt lat="59.9002488" lon="17.7153329">
        <ele>31.8607</ele>
        <time>2013-03-10T14:29:53Z</time>
      </trkpt>
      <trkpt lat="59.9002549" lon="17.7153113">
        <ele>31.8607</ele>
        <time>2013-03-10T14:29:54Z</time>
      </trkpt>
      <trkpt lat="59.9002606" lon="17.7152895">
        <ele>31.8607</ele>
        <time>2013-03-10T14:29:55Z</time>
      </trkpt>
      <trkpt lat="59.9002648" lon="17.7152658">
        <ele>31.8607</ele>
        <time>2013-03-10T14:29:56Z</time>
      </trkpt>
      <trkpt lat="59.9002694" lon="17.7152411">
        <ele>31.8607</ele>
        <time>2013-03-10T14:29:57Z</time>
      </trkpt>
      <trkpt lat="59.9002751" lon="17.7152166">
        <ele>31.8607</ele>
        <time>2013-03-10T14:29:58Z</time>
      </trkpt>
      <trkpt lat="59.900281" lon="17.7151923">
        <ele>31.8607</ele>
        <time>2013-03-10T14:29:59Z</time>
      </trkpt>
      <trkpt lat="59.9002871" lon="17.7151684">
        <ele>31.8607</ele>
        <time>2013-03-10T14:30:00Z</time>
      </trkpt>
      <trkpt lat="59.9002932" lon="17.7151449">
        <ele>31.8607</ele>
        <time>2013-03-10T14:30:01Z</time>
      </trkpt>
      <trkpt lat="59.900298" lon="17.71512">
        <ele>31.8607</ele>
        <time>2013-03-10T14:30:02Z</time>
      </trkpt>
      <trkpt lat="59.9003027" lon="17.7150944">
        <ele>31.8607</ele>
        <time>2013-03-10T14:30:03Z</time>
      </trkpt>
      <trkpt lat="59.9003074" lon="17.71507">
        <ele>31.8607</ele>
        <time>2013-03-10T14:30:04Z</time>
      </trkpt>
      <trkpt lat="59.9003123" lon="17.7150452">
        <ele>31.8607</ele>
        <time>2013-03-10T14:30:05Z</time>
      </trkpt>
      <trkpt lat="59.9003175" lon="17.7150204">
        <ele>31.8607</ele>
        <time>2013-03-10T14:30:06Z</time>
      </trkpt>
      <trkpt lat="59.9003227" lon="17.7149964">
        <ele>31.8607</ele>
        <time>2013-03-10T14:30:07Z</time>
      </trkpt>
      <trkpt lat="59.9003275" lon="17.7149727">
        <ele>31.8607</ele>
        <time>2013-03-10T14:30:08Z</time>
      </trkpt>
      <trkpt lat="59.9003317" lon="17.7149475">
        <ele>31.8607</ele>
        <time>2013-03-10T14:30:09Z</time>
      </trkpt>
      <trkpt lat="59.9003369" lon="17.7149237">
        <ele>31.8607</ele>
        <time>2013-03-10T14:30:10Z</time>
      </trkpt>
      <trkpt lat="59.900342" lon="17.714899">
        <ele>31.8607</ele>
        <time>2013-03-10T14:30:11Z</time>
      </trkpt>
      <trkpt lat="59.900347" lon="17.7148746">
        <ele>32.3416</ele>
        <time>2013-03-10T14:30:12Z</time>
      </trkpt>
      <trkpt lat="59.9003512" lon="17.7148493">
        <ele>32.3416</ele>
        <time>2013-03-10T14:30:13Z</time>
      </trkpt>
      <trkpt lat="59.9003553" lon="17.7148235">
        <ele>32.3416</ele>
        <time>2013-03-10T14:30:14Z</time>
      </trkpt>
      <trkpt lat="59.9003603" lon="17.7147979">
        <ele>32.3416</ele>
        <time>2013-03-10T14:30:15Z</time>
      </trkpt>
      <trkpt lat="59.9003664" lon="17.7147731">
        <ele>32.3416</ele>
        <time>2013-03-10T14:30:16Z</time>
      </trkpt>
      <trkpt lat="59.9003726" lon="17.7147494">
        <ele>32.3416</ele>
        <time>2013-03-10T14:30:17Z</time>
      </trkpt>
      <trkpt lat="59.9003791" lon="17.714726">
        <ele>32.3416</ele>
        <time>2013-03-10T14:30:18Z</time>
      </trkpt>
      <trkpt lat="59.9003851" lon="17.714702">
        <ele>32.3416</ele>
        <time>2013-03-10T14:30:19Z</time>
      </trkpt>
      <trkpt lat="59.9003913" lon="17.7146773">
        <ele>32.3416</ele>
        <time>2013-03-10T14:30:20Z</time>
      </trkpt>
      <trkpt lat="59.9003973" lon="17.7146525">
        <ele>32.8223</ele>
        <time>2013-03-10T14:30:21Z</time>
      </trkpt>
      <trkpt lat="59.900403" lon="17.7146276">
        <ele>32.8223</ele>
        <time>2013-03-10T14:30:22Z</time>
      </trkpt>
      <trkpt lat="59.9004083" lon="17.7146026">
        <ele>32.8223</ele>
        <time>2013-03-10T14:30:23Z</time>
      </trkpt>
      <trkpt lat="59.900414" lon="17.7145788">
        <ele>32.8223</ele>
        <time>2013-03-10T14:30:24Z</time>
      </trkpt>
      <trkpt lat="59.9004197" lon="17.714555">
        <ele>32.8223</ele>
        <time>2013-03-10T14:30:25Z</time>
      </trkpt>
      <trkpt lat="59.9004261" lon="17.7145308">
        <ele>32.8223</ele>
        <time>2013-03-10T14:30:26Z</time>
      </trkpt>
      <trkpt lat="59.9004336" lon="17.7145073">
        <ele>32.8223</ele>
        <time>2013-03-10T14:30:27Z</time>
      </trkpt>
      <trkpt lat="59.9004418" lon="17.7144856">
        <ele>32.8223</ele>
        <time>2013-03-10T14:30:28Z</time>
      </trkpt>
      <trkpt lat="59.9004483" lon="17.7144625">
        <ele>32.8223</ele>
        <time>2013-03-10T14:30:29Z</time>
      </trkpt>
      <trkpt lat="59.900454" lon="17.714438">
        <ele>32.8223</ele>
        <time>2013-03-10T14:30:30Z</time>
      </trkpt>
      <trkpt lat="59.9004602" lon="17.7144137">
        <ele>32.8223</ele>
        <time>2013-03-10T14:30:31Z</time>
      </trkpt>
      <trkpt lat="59.9004667" lon="17.7143904">
        <ele>32.8223</ele>
        <time>2013-03-10T14:30:32Z</time>
      </trkpt>
      <trkpt lat="59.9004731" lon="17.7143671">
        <ele>32.8223</ele>
        <time>2013-03-10T14:30:33Z</time>
      </trkpt>
      <trkpt lat="59.9004797" lon="17.7143439">
        <ele>32.8223</ele>
        <time>2013-03-10T14:30:34Z</time>
      </trkpt>
      <trkpt lat="59.9004864" lon="17.7143205">
        <ele>32.8223</ele>
        <time>2013-03-10T14:30:35Z</time>
      </trkpt>
      <trkpt lat="59.9004929" lon="17.7142975">
        <ele>32.8223</ele>
        <time>2013-03-10T14:30:36Z</time>
      </trkpt>
      <trkpt lat="59.900499" lon="17.7142736">
        <ele>32.8223</ele>
        <time>2013-03-10T14:30:37Z</time>
      </trkpt>
      <trkpt lat="59.9005057" lon="17.7142491">
        <ele>32.8223</ele>
        <time>2013-03-10T14:30:38Z</time>
      </trkpt>
      <trkpt lat="59.9005123" lon="17.7142241">
        <ele>33.3029</ele>
        <time>2013-03-10T14:30:39Z</time>
      </trkpt>
      <trkpt lat="59.9005175" lon="17.7142021">
        <ele>33.3029</ele>
        <time>2013-03-10T14:30:40Z</time>
      </trkpt>
      <trkpt lat="59.9005217" lon="17.7141794">
        <ele>33.3029</ele>
        <time>2013-03-10T14:30:41Z</time>
      </trkpt>
      <trkpt lat="59.9005275" lon="17.7141557">
        <ele>33.3029</ele>
        <time>2013-03-10T14:30:42Z</time>
      </trkpt>
      <trkpt lat="59.9005338" lon="17.7141323">
        <ele>33.3029</ele>
        <time>2013-03-10T14:30:43Z</time>
      </trkpt>
      <trkpt lat="59.9005404" lon="17.7141094">
        <ele>33.3029</ele>
        <time>2013-03-10T14:30:44Z</time>
      </trkpt>
      <trkpt lat="59.9005472" lon="17.7140876">
        <ele>33.3029</ele>
        <time>2013-03-10T14:30:45Z</time>
      </trkpt>
      <trkpt lat="59.9005547" lon="17.7140669">
        <ele>33.3029</ele>
        <time>2013-03-10T14:30:46Z</time>
      </trkpt>
      <trkpt lat="59.9005623" lon="17.7140449">
        <ele>33.3029</ele>
        <time>2013-03-10T14:30:47Z</time>
      </trkpt>
      <trkpt lat="59.9005696" lon="17.7140221">
        <ele>33.3029</ele>
        <time>2013-03-10T14:30:48Z</time>
      </trkpt>
      <trkpt lat="59.9005771" lon="17.7139994">
        <ele>33.7834</ele>
        <time>2013-03-10T14:30:49Z</time>
      </trkpt>
      <trkpt lat="59.9005845" lon="17.7139769">
        <ele>33.7834</ele>
        <time>2013-03-10T14:30:50Z</time>
      </trkpt>
      <trkpt lat="59.900592" lon="17.7139537">
        <ele>33.7834</ele>
        <time>2013-03-10T14:30:51Z</time>
      </trkpt>
      <trkpt lat="59.9005983" lon="17.7139315">
        <ele>33.7834</ele>
        <time>2013-03-10T14:30:52Z</time>
      </trkpt>
      <trkpt lat="59.9006045" lon="17.7139096">
        <ele>34.2642</ele>
        <time>2013-03-10T14:30:53Z</time>
      </trkpt>
      <trkpt lat="59.9006118" lon="17.7138868">
        <ele>34.2642</ele>
        <time>2013-03-10T14:30:54Z</time>
      </trkpt>
      <trkpt lat="59.9006195" lon="17.7138635">
        <ele>34.2642</ele>
        <time>2013-03-10T14:30:55Z</time>
      </trkpt>
      <trkpt lat="59.9006271" lon="17.7138408">
        <ele>34.2642</ele>
        <time>2013-03-10T14:30:56Z</time>
      </trkpt>
      <trkpt lat="59.900635" lon="17.713818">
        <ele>34.7449</ele>
        <time>2013-03-10T14:30:57Z</time>
      </trkpt>
      <trkpt lat="59.9006415" lon="17.7137935">
        <ele>34.7449</ele>
        <time>2013-03-10T14:30:58Z</time>
      </trkpt>
      <trkpt lat="59.9006472" lon="17.7137693">
        <ele>34.7449</ele>
        <time>2013-03-10T14:30:59Z</time>
      </trkpt>
      <trkpt lat="59.9006549" lon="17.7137439">
        <ele>34.7449</ele>
        <time>2013-03-10T14:31:00Z</time>
      </trkpt>
      <trkpt lat="59.9006643" lon="17.713717">
        <ele>34.7449</ele>
        <time>2013-03-10T14:31:01Z</time>
      </trkpt>
      <trkpt lat="59.9006718" lon="17.7136925">
        <ele>35.2255</ele>
        <time>2013-03-10T14:31:02Z</time>
      </trkpt>
      <trkpt lat="59.9006785" lon="17.7136709">
        <ele>35.2255</ele>
        <time>2013-03-10T14:31:03Z</time>
      </trkpt>
      <trkpt lat="59.9006849" lon="17.7136476">
        <ele>35.2255</ele>
        <time>2013-03-10T14:31:04Z</time>
      </trkpt>
      <trkpt lat="59.9006895" lon="17.7136253">
        <ele>35.7061</ele>
        <time>2013-03-10T14:31:05Z</time>
      </trkpt>
      <trkpt lat="59.9006938" lon="17.7136035">
        <ele>35.7061</ele>
        <time>2013-03-10T14:31:06Z</time>
      </trkpt>
      <trkpt lat="59.9007004" lon="17.71358">
        <ele>35.7061</ele>
        <time>2013-03-10T14:31:07Z</time>
      </trkpt>
      <trkpt lat="59.9007068" lon="17.7135557">
        <ele>36.1868</ele>
        <time>2013-03-10T14:31:08Z</time>
      </trkpt>
      <trkpt lat="59.9007132" lon="17.7135329">
        <ele>36.1868</ele>
        <time>2013-03-10T14:31:09Z</time>
      </trkpt>
      <trkpt lat="59.9007206" lon="17.7135104">
        <ele>36.1868</ele>
        <time>2013-03-10T14:31:10Z</time>
      </trkpt>
      <trkpt lat="59.9007274" lon="17.7134878">
        <ele>36.6675</ele>
        <time>2013-03-10T14:31:11Z</time>
      </trkpt>
      <trkpt lat="59.9007351" lon="17.7134655">
        <ele>36.6675</ele>
        <time>2013-03-10T14:31:12Z</time>
      </trkpt>
      <trkpt lat="59.900743" lon="17.7134433">
        <ele>36.6675</ele>
        <time>2013-03-10T14:31:13Z</time>
      </trkpt>
      <trkpt lat="59.9007493" lon="17.71342">
        <ele>36.6675</ele>
        <time>2013-03-10T14:31:14Z</time>
      </trkpt>
      <trkpt lat="59.9007558" lon="17.7133968">
        <ele>37.1481</ele>
        <time>2013-03-10T14:31:15Z</time>
      </trkpt>
      <trkpt lat="59.9007628" lon="17.7133747">
        <ele>37.1481</ele>
        <time>2013-03-10T14:31:16Z</time>
      </trkpt>
      <trkpt lat="59.9007699" lon="17.7133554">
        <ele>37.1481</ele>
        <time>2013-03-10T14:31:17Z</time>
      </trkpt>
      <trkpt lat="59.9007747" lon="17.71334">
        <ele>37.1481</ele>
        <time>2013-03-10T14:31:18Z</time>
      </trkpt>
      <trkpt lat="59.900779" lon="17.7133238">
        <ele>37.1481</ele>
        <time>2013-03-10T14:31:19Z</time>
      </trkpt>
      <trkpt lat="59.900786" lon="17.7133046">
        <ele>37.1481</ele>
        <time>2013-03-10T14:31:20Z</time>
      </trkpt>
      <trkpt lat="59.9007939" lon="17.7132839">
        <ele>37.1481</ele>
        <time>2013-03-10T14:31:21Z</time>
      </trkpt>
      <trkpt lat="59.9007998" lon="17.7132615">
        <ele>37.1481</ele>
        <time>2013-03-10T14:31:22Z</time>
      </trkpt>
      <trkpt lat="59.9008052" lon="17.7132378">
        <ele>37.1481</ele>
        <time>2013-03-10T14:31:23Z</time>
      </trkpt>
      <trkpt lat="59.9008137" lon="17.7132153">
        <ele>37.1481</ele>
        <time>2013-03-10T14:31:24Z</time>
      </trkpt>
      <trkpt lat="59.9008215" lon="17.7131917">
        <ele>37.1481</ele>
        <time>2013-03-10T14:31:25Z</time>
      </trkpt>
      <trkpt lat="59.900829" lon="17.7131695">
        <ele>37.1481</ele>
        <time>2013-03-10T14:31:26Z</time>
      </trkpt>
      <trkpt lat="59.9008374" lon="17.7131472">
        <ele>37.1481</ele>
        <time>2013-03-10T14:31:27Z</time>
      </trkpt>
      <trkpt lat="59.900847" lon="17.7131258">
        <ele>37.1481</ele>
        <time>2013-03-10T14:31:28Z</time>
      </trkpt>
      <trkpt lat="59.9008554" lon="17.7131057">
        <ele>37.1481</ele>
        <time>2013-03-10T14:31:29Z</time>
      </trkpt>
      <trkpt lat="59.9008636" lon="17.7130858">
        <ele>37.1481</ele>
        <time>2013-03-10T14:31:30Z</time>
      </trkpt>
      <trkpt lat="59.9008709" lon="17.7130632">
        <ele>37.1481</ele>
        <time>2013-03-10T14:31:31Z</time>
      </trkpt>
      <trkpt lat="59.9008777" lon="17.7130394">
        <ele>37.1481</ele>
        <time>2013-03-10T14:31:32Z</time>
      </trkpt>
      <trkpt lat="59.9008849" lon="17.7130177">
        <ele>37.1481</ele>
        <time>2013-03-10T14:31:33Z</time>
      </trkpt>
      <trkpt lat="59.9008927" lon="17.712996">
        <ele>37.1481</ele>
        <time>2013-03-10T14:31:34Z</time>
      </trkpt>
      <trkpt lat="59.9009009" lon="17.7129747">
        <ele>37.1481</ele>
        <time>2013-03-10T14:31:35Z</time>
      </trkpt>
      <trkpt lat="59.900908" lon="17.7129515">
        <ele>37.1481</ele>
        <time>2013-03-10T14:31:36Z</time>
      </trkpt>
      <trkpt lat="59.9009138" lon="17.7129263">
        <ele>37.1481</ele>
        <time>2013-03-10T14:31:37Z</time>
      </trkpt>
      <trkpt lat="59.9009205" lon="17.7128989">
        <ele>37.1481</ele>
        <time>2013-03-10T14:31:38Z</time>
      </trkpt>
      <trkpt lat="59.9009282" lon="17.712873">
        <ele>37.1481</ele>
        <time>2013-03-10T14:31:39Z</time>
      </trkpt>
      <trkpt lat="59.9009358" lon="17.7128477">
        <ele>37.1481</ele>
        <time>2013-03-10T14:31:40Z</time>
      </trkpt>
      <trkpt lat="59.9009424" lon="17.7128224">
        <ele>37.1481</ele>
        <time>2013-03-10T14:31:41Z</time>
      </trkpt>
      <trkpt lat="59.9009502" lon="17.7127975">
        <ele>37.1481</ele>
        <time>2013-03-10T14:31:42Z</time>
      </trkpt>
      <trkpt lat="59.9009585" lon="17.7127725">
        <ele>37.1481</ele>
        <time>2013-03-10T14:31:43Z</time>
      </trkpt>
      <trkpt lat="59.9009661" lon="17.7127483">
        <ele>37.1481</ele>
        <time>2013-03-10T14:31:44Z</time>
      </trkpt>
      <trkpt lat="59.9009718" lon="17.7127248">
        <ele>37.6287</ele>
        <time>2013-03-10T14:31:45Z</time>
      </trkpt>
      <trkpt lat="59.9009774" lon="17.7127012">
        <ele>37.6287</ele>
        <time>2013-03-10T14:31:46Z</time>
      </trkpt>
      <trkpt lat="59.9009839" lon="17.7126773">
        <ele>37.6287</ele>
        <time>2013-03-10T14:31:47Z</time>
      </trkpt>
      <trkpt lat="59.9009911" lon="17.7126538">
        <ele>37.6287</ele>
        <time>2013-03-10T14:31:48Z</time>
      </trkpt>
      <trkpt lat="59.9009968" lon="17.7126296">
        <ele>37.6287</ele>
        <time>2013-03-10T14:31:49Z</time>
      </trkpt>
      <trkpt lat="59.901002" lon="17.7126057">
        <ele>37.6287</ele>
        <time>2013-03-10T14:31:50Z</time>
      </trkpt>
      <trkpt lat="59.9010067" lon="17.7125809">
        <ele>37.6287</ele>
        <time>2013-03-10T14:31:51Z</time>
      </trkpt>
      <trkpt lat="59.9010097" lon="17.7125577">
        <ele>37.6287</ele>
        <time>2013-03-10T14:31:52Z</time>
      </trkpt>
      <trkpt lat="59.9010127" lon="17.7125437">
        <ele>37.1481</ele>
        <time>2013-03-10T14:31:53Z</time>
      </trkpt>
      <trkpt lat="59.9010134" lon="17.7125345">
        <ele>36.1868</ele>
        <time>2013-03-10T14:31:54Z</time>
      </trkpt>
      <trkpt lat="59.9010087" lon="17.7125245">
        <ele>35.7061</ele>
        <time>2013-03-10T14:31:55Z</time>
      </trkpt>
      <trkpt lat="59.9010007" lon="17.7125143">
        <ele>35.2255</ele>
        <time>2013-03-10T14:31:56Z</time>
      </trkpt>
      <trkpt lat="59.9009901" lon="17.7125052">
        <ele>34.7449</ele>
        <time>2013-03-10T14:31:57Z</time>
      </trkpt>
      <trkpt lat="59.9009791" lon="17.7124956">
        <ele>34.7449</ele>
        <time>2013-03-10T14:31:58Z</time>
      </trkpt>
      <trkpt lat="59.9009683" lon="17.7124841">
        <ele>34.2642</ele>
        <time>2013-03-10T14:31:59Z</time>
      </trkpt>
      <trkpt lat="59.9009579" lon="17.712474">
        <ele>34.2642</ele>
        <time>2013-03-10T14:32:00Z</time>
      </trkpt>
      <trkpt lat="59.9009467" lon="17.7124638">
        <ele>34.2642</ele>
        <time>2013-03-10T14:32:01Z</time>
      </trkpt>
      <trkpt lat="59.9009357" lon="17.7124541">
        <ele>33.7834</ele>
        <time>2013-03-10T14:32:02Z</time>
      </trkpt>
      <trkpt lat="59.9009244" lon="17.7124432">
        <ele>33.7834</ele>
        <time>2013-03-10T14:32:03Z</time>
      </trkpt>
      <trkpt lat="59.900913" lon="17.7124311">
        <ele>33.3029</ele>
        <time>2013-03-10T14:32:04Z</time>
      </trkpt>
      <trkpt lat="59.9009015" lon="17.7124199">
        <ele>33.3029</ele>
        <time>2013-03-10T14:32:05Z</time>
      </trkpt>
      <trkpt lat="59.9008899" lon="17.7124095">
        <ele>33.3029</ele>
        <time>2013-03-10T14:32:06Z</time>
      </trkpt>
      <trkpt lat="59.900878" lon="17.7123982">
        <ele>32.8223</ele>
        <time>2013-03-10T14:32:07Z</time>
      </trkpt>
      <trkpt lat="59.9008659" lon="17.7123868">
        <ele>32.8223</ele>
        <time>2013-03-10T14:32:08Z</time>
      </trkpt>
      <trkpt lat="59.9008544" lon="17.7123752">
        <ele>32.8223</ele>
        <time>2013-03-10T14:32:09Z</time>
      </trkpt>
      <trkpt lat="59.9008424" lon="17.7123594">
        <ele>32.8223</ele>
        <time>2013-03-10T14:32:10Z</time>
      </trkpt>
      <trkpt lat="59.9008295" lon="17.7123432">
        <ele>32.8223</ele>
        <time>2013-03-10T14:32:11Z</time>
      </trkpt>
      <trkpt lat="59.9008186" lon="17.7123318">
        <ele>32.8223</ele>
        <time>2013-03-10T14:32:12Z</time>
      </trkpt>
      <trkpt lat="59.9008081" lon="17.7123261">
        <ele>32.3416</ele>
        <time>2013-03-10T14:32:13Z</time>
      </trkpt>
      <trkpt lat="59.9007967" lon="17.7123182">
        <ele>32.3416</ele>
        <time>2013-03-10T14:32:14Z</time>
      </trkpt>
      <trkpt lat="59.9007855" lon="17.7123059">
        <ele>32.3416</ele>
        <time>2013-03-10T14:32:15Z</time>
      </trkpt>
      <trkpt lat="59.9007729" lon="17.7122943">
        <ele>32.3416</ele>
        <time>2013-03-10T14:32:16Z</time>
      </trkpt>
      <trkpt lat="59.9007586" lon="17.7122825">
        <ele>32.3416</ele>
        <time>2013-03-10T14:32:17Z</time>
      </trkpt>
      <trkpt lat="59.9007461" lon="17.7122702">
        <ele>32.3416</ele>
        <time>2013-03-10T14:32:18Z</time>
      </trkpt>
      <trkpt lat="59.9007347" lon="17.7122572">
        <ele>32.3416</ele>
        <time>2013-03-10T14:32:19Z</time>
      </trkpt>
      <trkpt lat="59.9007234" lon="17.7122442">
        <ele>31.8607</ele>
        <time>2013-03-10T14:32:20Z</time>
      </trkpt>
      <trkpt lat="59.9007123" lon="17.7122303">
        <ele>31.8607</ele>
        <time>2013-03-10T14:32:21Z</time>
      </trkpt>
      <trkpt lat="59.900701" lon="17.7122142">
        <ele>31.8607</ele>
        <time>2013-03-10T14:32:22Z</time>
      </trkpt>
      <trkpt lat="59.9006896" lon="17.7122001">
        <ele>31.8607</ele>
        <time>2013-03-10T14:32:23Z</time>
      </trkpt>
      <trkpt lat="59.9006797" lon="17.7121857">
        <ele>31.8607</ele>
        <time>2013-03-10T14:32:24Z</time>
      </trkpt>
      <trkpt lat="59.9006692" lon="17.7121705">
        <ele>31.3801</ele>
        <time>2013-03-10T14:32:25Z</time>
      </trkpt>
      <trkpt lat="59.900658" lon="17.7121588">
        <ele>31.3801</ele>
        <time>2013-03-10T14:32:26Z</time>
      </trkpt>
      <trkpt lat="59.9006467" lon="17.7121467">
        <ele>31.3801</ele>
        <time>2013-03-10T14:32:27Z</time>
      </trkpt>
      <trkpt lat="59.9006355" lon="17.7121338">
        <ele>31.3801</ele>
        <time>2013-03-10T14:32:28Z</time>
      </trkpt>
      <trkpt lat="59.9006243" lon="17.7121204">
        <ele>31.3801</ele>
        <time>2013-03-10T14:32:29Z</time>
      </trkpt>
      <trkpt lat="59.9006128" lon="17.7121074">
        <ele>31.3801</ele>
        <time>2013-03-10T14:32:30Z</time>
      </trkpt>
      <trkpt lat="59.9006015" lon="17.7120954">
        <ele>31.3801</ele>
        <time>2013-03-10T14:32:31Z</time>
      </trkpt>
      <trkpt lat="59.9005903" lon="17.7120837">
        <ele>31.3801</ele>
        <time>2013-03-10T14:32:32Z</time>
      </trkpt>
      <trkpt lat="59.9005791" lon="17.7120757">
        <ele>31.3801</ele>
        <time>2013-03-10T14:32:33Z</time>
      </trkpt>
      <trkpt lat="59.9005684" lon="17.712068">
        <ele>31.3801</ele>
        <time>2013-03-10T14:32:34Z</time>
      </trkpt>
      <trkpt lat="59.9005569" lon="17.7120558">
        <ele>31.3801</ele>
        <time>2013-03-10T14:32:35Z</time>
      </trkpt>
      <trkpt lat="59.9005452" lon="17.7120434">
        <ele>31.3801</ele>
        <time>2013-03-10T14:32:36Z</time>
      </trkpt>
      <trkpt lat="59.9005333" lon="17.7120303">
        <ele>31.3801</ele>
        <time>2013-03-10T14:32:37Z</time>
      </trkpt>
      <trkpt lat="59.9005209" lon="17.7120209">
        <ele>31.3801</ele>
        <time>2013-03-10T14:32:38Z</time>
      </trkpt>
      <trkpt lat="59.9005097" lon="17.7120122">
        <ele>31.3801</ele>
        <time>2013-03-10T14:32:39Z</time>
      </trkpt>
      <trkpt lat="59.9004976" lon="17.7120018">
        <ele>31.8607</ele>
        <time>2013-03-10T14:32:40Z</time>
      </trkpt>
      <trkpt lat="59.9004862" lon="17.7119904">
        <ele>31.8607</ele>
        <time>2013-03-10T14:32:41Z</time>
      </trkpt>
      <trkpt lat="59.900475" lon="17.711977">
        <ele>31.8607</ele>
        <time>2013-03-10T14:32:42Z</time>
      </trkpt>
      <trkpt lat="59.9004636" lon="17.7119646">
        <ele>31.8607</ele>
        <time>2013-03-10T14:32:43Z</time>
      </trkpt>
      <trkpt lat="59.9004514" lon="17.7119521">
        <ele>32.3416</ele>
        <time>2013-03-10T14:32:44Z</time>
      </trkpt>
      <trkpt lat="59.9004393" lon="17.7119396">
        <ele>32.3416</ele>
        <time>2013-03-10T14:32:45Z</time>
      </trkpt>
      <trkpt lat="59.9004274" lon="17.7119263">
        <ele>32.3416</ele>
        <time>2013-03-10T14:32:46Z</time>
      </trkpt>
      <trkpt lat="59.9004156" lon="17.7119138">
        <ele>32.3416</ele>
        <time>2013-03-10T14:32:47Z</time>
      </trkpt>
      <trkpt lat="59.9004037" lon="17.7119013">
        <ele>32.3416</ele>
        <time>2013-03-10T14:32:48Z</time>
      </trkpt>
      <trkpt lat="59.9003924" lon="17.7118878">
        <ele>32.3416</ele>
        <time>2013-03-10T14:32:49Z</time>
      </trkpt>
      <trkpt lat="59.9003809" lon="17.7118747">
        <ele>32.8223</ele>
        <time>2013-03-10T14:32:50Z</time>
      </trkpt>
      <trkpt lat="59.9003695" lon="17.711861">
        <ele>32.8223</ele>
        <time>2013-03-10T14:32:51Z</time>
      </trkpt>
      <trkpt lat="59.9003581" lon="17.7118465">
        <ele>32.8223</ele>
        <time>2013-03-10T14:32:52Z</time>
      </trkpt>
      <trkpt lat="59.9003467" lon="17.711833">
        <ele>32.8223</ele>
        <time>2013-03-10T14:32:53Z</time>
      </trkpt>
      <trkpt lat="59.9003349" lon="17.7118208">
        <ele>32.8223</ele>
        <time>2013-03-10T14:32:54Z</time>
      </trkpt>
      <trkpt lat="59.9003237" lon="17.7118086">
        <ele>32.8223</ele>
        <time>2013-03-10T14:32:55Z</time>
      </trkpt>
      <trkpt lat="59.9003126" lon="17.7117972">
        <ele>32.8223</ele>
        <time>2013-03-10T14:32:56Z</time>
      </trkpt>
      <trkpt lat="59.9003014" lon="17.7117866">
        <ele>32.8223</ele>
        <time>2013-03-10T14:32:57Z</time>
      </trkpt>
      <trkpt lat="59.9002893" lon="17.7117779">
        <ele>32.8223</ele>
        <time>2013-03-10T14:32:58Z</time>
      </trkpt>
      <trkpt lat="59.9002773" lon="17.7117682">
        <ele>33.3029</ele>
        <time>2013-03-10T14:32:59Z</time>
      </trkpt>
      <trkpt lat="59.9002659" lon="17.7117573">
        <ele>33.3029</ele>
        <time>2013-03-10T14:33:00Z</time>
      </trkpt>
      <trkpt lat="59.9002546" lon="17.7117439">
        <ele>33.3029</ele>
        <time>2013-03-10T14:33:01Z</time>
      </trkpt>
      <trkpt lat="59.9002429" lon="17.7117269">
        <ele>33.3029</ele>
        <time>2013-03-10T14:33:02Z</time>
      </trkpt>
      <trkpt lat="59.9002308" lon="17.7117124">
        <ele>33.3029</ele>
        <time>2013-03-10T14:33:03Z</time>
      </trkpt>
      <trkpt lat="59.9002198" lon="17.7116998">
        <ele>33.3029</ele>
        <time>2013-03-10T14:33:04Z</time>
      </trkpt>
      <trkpt lat="59.9002079" lon="17.7116847">
        <ele>33.3029</ele>
        <time>2013-03-10T14:33:05Z</time>
      </trkpt>
      <trkpt lat="59.9001954" lon="17.7116693">
        <ele>33.3029</ele>
        <time>2013-03-10T14:33:06Z</time>
      </trkpt>
      <trkpt lat="59.900184" lon="17.7116578">
        <ele>33.3029</ele>
        <time>2013-03-10T14:33:07Z</time>
      </trkpt>
      <trkpt lat="59.9001728" lon="17.7116452">
        <ele>33.3029</ele>
        <time>2013-03-10T14:33:08Z</time>
      </trkpt>
      <trkpt lat="59.9001621" lon="17.7116302">
        <ele>33.3029</ele>
        <time>2013-03-10T14:33:09Z</time>
      </trkpt>
      <trkpt lat="59.9001514" lon="17.7116149">
        <ele>33.3029</ele>
        <time>2013-03-10T14:33:10Z</time>
      </trkpt>
      <trkpt lat="59.9001404" lon="17.7116007">
        <ele>33.3029</ele>
        <time>2013-03-10T14:33:11Z</time>
      </trkpt>
      <trkpt lat="59.9001286" lon="17.7115878">
        <ele>32.8223</ele>
        <time>2013-03-10T14:33:12Z</time>
      </trkpt>
      <trkpt lat="59.9001168" lon="17.711575">
        <ele>32.8223</ele>
        <time>2013-03-10T14:33:13Z</time>
      </trkpt>
      <trkpt lat="59.9001052" lon="17.7115605">
        <ele>32.8223</ele>
        <time>2013-03-10T14:33:14Z</time>
      </trkpt>
      <trkpt lat="59.9000933" lon="17.711546">
        <ele>32.3416</ele>
        <time>2013-03-10T14:33:15Z</time>
      </trkpt>
      <trkpt lat="59.9000814" lon="17.7115316">
        <ele>32.3416</ele>
        <time>2013-03-10T14:33:16Z</time>
      </trkpt>
      <trkpt lat="59.9000699" lon="17.7115165">
        <ele>32.3416</ele>
        <time>2013-03-10T14:33:17Z</time>
      </trkpt>
      <trkpt lat="59.900058" lon="17.7115023">
        <ele>32.3416</ele>
        <time>2013-03-10T14:33:18Z</time>
      </trkpt>
      <trkpt lat="59.9000458" lon="17.7114906">
        <ele>32.3416</ele>
        <time>2013-03-10T14:33:19Z</time>
      </trkpt>
      <trkpt lat="59.9000331" lon="17.7114801">
        <ele>32.8223</ele>
        <time>2013-03-10T14:33:20Z</time>
      </trkpt>
      <trkpt lat="59.9000204" lon="17.7114645">
        <ele>32.8223</ele>
        <time>2013-03-10T14:33:21Z</time>
      </trkpt>
      <trkpt lat="59.900011" lon="17.711446">
        <ele>32.8223</ele>
        <time>2013-03-10T14:33:22Z</time>
      </trkpt>
      <trkpt lat="59.900002" lon="17.711431">
        <ele>32.8223</ele>
        <time>2013-03-10T14:33:23Z</time>
      </trkpt>
      <trkpt lat="59.8999902" lon="17.7114222">
        <ele>32.8223</ele>
        <time>2013-03-10T14:33:24Z</time>
      </trkpt>
      <trkpt lat="59.8999784" lon="17.7114163">
        <ele>32.8223</ele>
        <time>2013-03-10T14:33:25Z</time>
      </trkpt>
      <trkpt lat="59.8999674" lon="17.7114067">
        <ele>32.8223</ele>
        <time>2013-03-10T14:33:26Z</time>
      </trkpt>
      <trkpt lat="59.8999554" lon="17.7113967">
        <ele>32.8223</ele>
        <time>2013-03-10T14:33:27Z</time>
      </trkpt>
      <trkpt lat="59.8999424" lon="17.7113843">
        <ele>32.8223</ele>
        <time>2013-03-10T14:33:28Z</time>
      </trkpt>
      <trkpt lat="59.89993" lon="17.7113697">
        <ele>32.8223</ele>
        <time>2013-03-10T14:33:29Z</time>
      </trkpt>
      <trkpt lat="59.8999181" lon="17.7113555">
        <ele>32.8223</ele>
        <time>2013-03-10T14:33:30Z</time>
      </trkpt>
      <trkpt lat="59.8999065" lon="17.7113402">
        <ele>32.3416</ele>
        <time>2013-03-10T14:33:31Z</time>
      </trkpt>
      <trkpt lat="59.8998945" lon="17.7113241">
        <ele>32.3416</ele>
        <time>2013-03-10T14:33:32Z</time>
      </trkpt>
      <trkpt lat="59.8998821" lon="17.7113093">
        <ele>32.3416</ele>
        <time>2013-03-10T14:33:33Z</time>
      </trkpt>
      <trkpt lat="59.8998696" lon="17.7112949">
        <ele>32.3416</ele>
        <time>2013-03-10T14:33:34Z</time>
      </trkpt>
      <trkpt lat="59.8998575" lon="17.7112801">
        <ele>32.3416</ele>
        <time>2013-03-10T14:33:35Z</time>
      </trkpt>
      <trkpt lat="59.8998453" lon="17.7112658">
        <ele>32.3416</ele>
        <time>2013-03-10T14:33:36Z</time>
      </trkpt>
      <trkpt lat="59.8998335" lon="17.7112512">
        <ele>32.3416</ele>
        <time>2013-03-10T14:33:37Z</time>
      </trkpt>
      <trkpt lat="59.8998215" lon="17.7112367">
        <ele>32.3416</ele>
        <time>2013-03-10T14:33:38Z</time>
      </trkpt>
      <trkpt lat="59.8998095" lon="17.7112217">
        <ele>32.3416</ele>
        <time>2013-03-10T14:33:39Z</time>
      </trkpt>
      <trkpt lat="59.899798" lon="17.7112072">
        <ele>32.3416</ele>
        <time>2013-03-10T14:33:40Z</time>
      </trkpt>
      <trkpt lat="59.8997857" lon="17.7111902">
        <ele>32.3416</ele>
        <time>2013-03-10T14:33:41Z</time>
      </trkpt>
      <trkpt lat="59.8997737" lon="17.7111735">
        <ele>31.8607</ele>
        <time>2013-03-10T14:33:42Z</time>
      </trkpt>
      <trkpt lat="59.8997619" lon="17.7111581">
        <ele>31.8607</ele>
        <time>2013-03-10T14:33:43Z</time>
      </trkpt>
      <trkpt lat="59.89975" lon="17.7111428">
        <ele>31.8607</ele>
        <time>2013-03-10T14:33:44Z</time>
      </trkpt>
      <trkpt lat="59.8997381" lon="17.7111283">
        <ele>31.8607</ele>
        <time>2013-03-10T14:33:45Z</time>
      </trkpt>
      <trkpt lat="59.8997268" lon="17.7111151">
        <ele>31.8607</ele>
        <time>2013-03-10T14:33:46Z</time>
      </trkpt>
      <trkpt lat="59.8997153" lon="17.7111019">
        <ele>31.8607</ele>
        <time>2013-03-10T14:33:47Z</time>
      </trkpt>
      <trkpt lat="59.8997034" lon="17.7110865">
        <ele>31.8607</ele>
        <time>2013-03-10T14:33:48Z</time>
      </trkpt>
      <trkpt lat="59.8996915" lon="17.7110708">
        <ele>31.8607</ele>
        <time>2013-03-10T14:33:49Z</time>
      </trkpt>
      <trkpt lat="59.8996799" lon="17.7110559">
        <ele>31.8607</ele>
        <time>2013-03-10T14:33:50Z</time>
      </trkpt>
      <trkpt lat="59.8996677" lon="17.711042">
        <ele>31.8607</ele>
        <time>2013-03-10T14:33:51Z</time>
      </trkpt>
      <trkpt lat="59.8996557" lon="17.711028">
        <ele>31.8607</ele>
        <time>2013-03-10T14:33:52Z</time>
      </trkpt>
      <trkpt lat="59.8996436" lon="17.711014">
        <ele>31.8607</ele>
        <time>2013-03-10T14:33:53Z</time>
      </trkpt>
      <trkpt lat="59.8996318" lon="17.711001">
        <ele>31.8607</ele>
        <time>2013-03-10T14:33:54Z</time>
      </trkpt>
      <trkpt lat="59.8996195" lon="17.7109877">
        <ele>31.8607</ele>
        <time>2013-03-10T14:33:55Z</time>
      </trkpt>
      <trkpt lat="59.8996075" lon="17.7109731">
        <ele>31.8607</ele>
        <time>2013-03-10T14:33:56Z</time>
      </trkpt>
      <trkpt lat="59.8995955" lon="17.7109569">
        <ele>31.3801</ele>
        <time>2013-03-10T14:33:57Z</time>
      </trkpt>
      <trkpt lat="59.8995837" lon="17.710941">
        <ele>31.8607</ele>
        <time>2013-03-10T14:33:58Z</time>
      </trkpt>
      <trkpt lat="59.8995724" lon="17.710926">
        <ele>31.3801</ele>
        <time>2013-03-10T14:33:59Z</time>
      </trkpt>
      <trkpt lat="59.8995614" lon="17.7109123">
        <ele>31.3801</ele>
        <time>2013-03-10T14:34:00Z</time>
      </trkpt>
      <trkpt lat="59.8995501" lon="17.7108985">
        <ele>31.3801</ele>
        <time>2013-03-10T14:34:01Z</time>
      </trkpt>
      <trkpt lat="59.8995392" lon="17.7108845">
        <ele>31.3801</ele>
        <time>2013-03-10T14:34:02Z</time>
      </trkpt>
      <trkpt lat="59.8995286" lon="17.7108706">
        <ele>31.3801</ele>
        <time>2013-03-10T14:34:03Z</time>
      </trkpt>
      <trkpt lat="59.8995173" lon="17.7108581">
        <ele>31.3801</ele>
        <time>2013-03-10T14:34:04Z</time>
      </trkpt>
      <trkpt lat="59.8995058" lon="17.7108462">
        <ele>31.3801</ele>
        <time>2013-03-10T14:34:05Z</time>
      </trkpt>
      <trkpt lat="59.8994949" lon="17.7108338">
        <ele>31.3801</ele>
        <time>2013-03-10T14:34:06Z</time>
      </trkpt>
      <trkpt lat="59.8994841" lon="17.7108213">
        <ele>31.3801</ele>
        <time>2013-03-10T14:34:07Z</time>
      </trkpt>
      <trkpt lat="59.8994726" lon="17.7108089">
        <ele>31.3801</ele>
        <time>2013-03-10T14:34:08Z</time>
      </trkpt>
      <trkpt lat="59.8994609" lon="17.7107953">
        <ele>31.3801</ele>
        <time>2013-03-10T14:34:09Z</time>
      </trkpt>
      <trkpt lat="59.8994493" lon="17.7107814">
        <ele>31.3801</ele>
        <time>2013-03-10T14:34:10Z</time>
      </trkpt>
      <trkpt lat="59.8994374" lon="17.7107667">
        <ele>31.3801</ele>
        <time>2013-03-10T14:34:11Z</time>
      </trkpt>
      <trkpt lat="59.899425" lon="17.7107519">
        <ele>31.3801</ele>
        <time>2013-03-10T14:34:12Z</time>
      </trkpt>
      <trkpt lat="59.8994136" lon="17.710737">
        <ele>31.3801</ele>
        <time>2013-03-10T14:34:13Z</time>
      </trkpt>
      <trkpt lat="59.8994025" lon="17.7107234">
        <ele>31.3801</ele>
        <time>2013-03-10T14:34:14Z</time>
      </trkpt>
      <trkpt lat="59.8993909" lon="17.7107085">
        <ele>31.3801</ele>
        <time>2013-03-10T14:34:15Z</time>
      </trkpt>
      <trkpt lat="59.8993795" lon="17.7106932">
        <ele>31.3801</ele>
        <time>2013-03-10T14:34:16Z</time>
      </trkpt>
      <trkpt lat="59.899368" lon="17.7106793">
        <ele>31.3801</ele>
        <time>2013-03-10T14:34:17Z</time>
      </trkpt>
      <trkpt lat="59.8993567" lon="17.7106658">
        <ele>30.8995</ele>
        <time>2013-03-10T14:34:18Z</time>
      </trkpt>
      <trkpt lat="59.8993469" lon="17.7106528">
        <ele>30.8995</ele>
        <time>2013-03-10T14:34:19Z</time>
      </trkpt>
      <trkpt lat="59.8993367" lon="17.7106409">
        <ele>30.8995</ele>
        <time>2013-03-10T14:34:20Z</time>
      </trkpt>
      <trkpt lat="59.8993267" lon="17.7106273">
        <ele>30.8995</ele>
        <time>2013-03-10T14:34:21Z</time>
      </trkpt>
      <trkpt lat="59.8993163" lon="17.710613">
        <ele>30.8995</ele>
        <time>2013-03-10T14:34:22Z</time>
      </trkpt>
      <trkpt lat="59.8993051" lon="17.7105987">
        <ele>30.8995</ele>
        <time>2013-03-10T14:34:23Z</time>
      </trkpt>
      <trkpt lat="59.8992944" lon="17.7105847">
        <ele>30.8995</ele>
        <time>2013-03-10T14:34:24Z</time>
      </trkpt>
      <trkpt lat="59.8992832" lon="17.7105709">
        <ele>30.8995</ele>
        <time>2013-03-10T14:34:25Z</time>
      </trkpt>
      <trkpt lat="59.8992724" lon="17.7105561">
        <ele>30.4188</ele>
        <time>2013-03-10T14:34:26Z</time>
      </trkpt>
      <trkpt lat="59.899262" lon="17.7105409">
        <ele>30.4188</ele>
        <time>2013-03-10T14:34:27Z</time>
      </trkpt>
      <trkpt lat="59.8992514" lon="17.7105276">
        <ele>30.4188</ele>
        <time>2013-03-10T14:34:28Z</time>
      </trkpt>
      <trkpt lat="59.8992397" lon="17.7105144">
        <ele>30.4188</ele>
        <time>2013-03-10T14:34:29Z</time>
      </trkpt>
      <trkpt lat="59.8992276" lon="17.7104991">
        <ele>30.4188</ele>
        <time>2013-03-10T14:34:30Z</time>
      </trkpt>
      <trkpt lat="59.8992158" lon="17.7104829">
        <ele>30.4188</ele>
        <time>2013-03-10T14:34:31Z</time>
      </trkpt>
      <trkpt lat="59.899204" lon="17.7104675">
        <ele>29.9381</ele>
        <time>2013-03-10T14:34:32Z</time>
      </trkpt>
      <trkpt lat="59.8991926" lon="17.7104529">
        <ele>29.9381</ele>
        <time>2013-03-10T14:34:33Z</time>
      </trkpt>
      <trkpt lat="59.8991815" lon="17.710437">
        <ele>29.9381</ele>
        <time>2013-03-10T14:34:34Z</time>
      </trkpt>
      <trkpt lat="59.8991707" lon="17.7104224">
        <ele>29.4575</ele>
        <time>2013-03-10T14:34:35Z</time>
      </trkpt>
      <trkpt lat="59.8991592" lon="17.7104098">
        <ele>29.4575</ele>
        <time>2013-03-10T14:34:36Z</time>
      </trkpt>
      <trkpt lat="59.8991471" lon="17.7103968">
        <ele>29.4575</ele>
        <time>2013-03-10T14:34:37Z</time>
      </trkpt>
      <trkpt lat="59.8991351" lon="17.7103835">
        <ele>28.9769</ele>
        <time>2013-03-10T14:34:38Z</time>
      </trkpt>
      <trkpt lat="59.8991226" lon="17.7103711">
        <ele>28.9769</ele>
        <time>2013-03-10T14:34:39Z</time>
      </trkpt>
      <trkpt lat="59.8991102" lon="17.7103595">
        <ele>28.9769</ele>
        <time>2013-03-10T14:34:40Z</time>
      </trkpt>
      <trkpt lat="59.8990969" lon="17.7103463">
        <ele>28.4962</ele>
        <time>2013-03-10T14:34:41Z</time>
      </trkpt>
      <trkpt lat="59.8990828" lon="17.7103338">
        <ele>28.9769</ele>
        <time>2013-03-10T14:34:42Z</time>
      </trkpt>
      <trkpt lat="59.8990707" lon="17.7103208">
        <ele>28.9769</ele>
        <time>2013-03-10T14:34:43Z</time>
      </trkpt>
      <trkpt lat="59.8990606" lon="17.7103052">
        <ele>28.4962</ele>
        <time>2013-03-10T14:34:44Z</time>
      </trkpt>
      <trkpt lat="59.8990507" lon="17.7102896">
        <ele>28.4962</ele>
        <time>2013-03-10T14:34:45Z</time>
      </trkpt>
      <trkpt lat="59.8990413" lon="17.7102758">
        <ele>28.4962</ele>
        <time>2013-03-10T14:34:46Z</time>
      </trkpt>
      <trkpt lat="59.8990295" lon="17.7102644">
        <ele>28.4962</ele>
        <time>2013-03-10T14:34:47Z</time>
      </trkpt>
      <trkpt lat="59.8990158" lon="17.7102516">
        <ele>28.4962</ele>
        <time>2013-03-10T14:34:48Z</time>
      </trkpt>
      <trkpt lat="59.8990031" lon="17.7102397">
        <ele>28.4962</ele>
        <time>2013-03-10T14:34:49Z</time>
      </trkpt>
      <trkpt lat="59.8989901" lon="17.7102287">
        <ele>28.4962</ele>
        <time>2013-03-10T14:34:50Z</time>
      </trkpt>
      <trkpt lat="59.8989775" lon="17.7102155">
        <ele>28.4962</ele>
        <time>2013-03-10T14:34:51Z</time>
      </trkpt>
      <trkpt lat="59.8989667" lon="17.7102001">
        <ele>28.4962</ele>
        <time>2013-03-10T14:34:52Z</time>
      </trkpt>
      <trkpt lat="59.8989552" lon="17.7101847">
        <ele>28.4962</ele>
        <time>2013-03-10T14:34:53Z</time>
      </trkpt>
      <trkpt lat="59.8989393" lon="17.7101727">
        <ele>28.4962</ele>
        <time>2013-03-10T14:34:54Z</time>
      </trkpt>
      <trkpt lat="59.8989254" lon="17.7101613">
        <ele>28.0155</ele>
        <time>2013-03-10T14:34:55Z</time>
      </trkpt>
      <trkpt lat="59.8989139" lon="17.7101474">
        <ele>28.0155</ele>
        <time>2013-03-10T14:34:56Z</time>
      </trkpt>
      <trkpt lat="59.8989026" lon="17.7101326">
        <ele>28.0155</ele>
        <time>2013-03-10T14:34:57Z</time>
      </trkpt>
      <trkpt lat="59.898892" lon="17.7101173">
        <ele>28.0155</ele>
        <time>2013-03-10T14:34:58Z</time>
      </trkpt>
      <trkpt lat="59.8988813" lon="17.7101013">
        <ele>28.0155</ele>
        <time>2013-03-10T14:34:59Z</time>
      </trkpt>
      <trkpt lat="59.8988705" lon="17.7100855">
        <ele>28.0155</ele>
        <time>2013-03-10T14:35:00Z</time>
      </trkpt>
      <trkpt lat="59.89886" lon="17.7100685">
        <ele>28.0155</ele>
        <time>2013-03-10T14:35:01Z</time>
      </trkpt>
      <trkpt lat="59.8988497" lon="17.7100521">
        <ele>28.0155</ele>
        <time>2013-03-10T14:35:02Z</time>
      </trkpt>
      <trkpt lat="59.8988396" lon="17.7100379">
        <ele>28.0155</ele>
        <time>2013-03-10T14:35:03Z</time>
      </trkpt>
      <trkpt lat="59.8988289" lon="17.7100239">
        <ele>28.0155</ele>
        <time>2013-03-10T14:35:04Z</time>
      </trkpt>
      <trkpt lat="59.8988187" lon="17.7100096">
        <ele>28.0155</ele>
        <time>2013-03-10T14:35:05Z</time>
      </trkpt>
      <trkpt lat="59.8988077" lon="17.7099951">
        <ele>28.4962</ele>
        <time>2013-03-10T14:35:06Z</time>
      </trkpt>
      <trkpt lat="59.8987969" lon="17.7099795">
        <ele>28.4962</ele>
        <time>2013-03-10T14:35:07Z</time>
      </trkpt>
      <trkpt lat="59.8987863" lon="17.7099635">
        <ele>28.4962</ele>
        <time>2013-03-10T14:35:08Z</time>
      </trkpt>
      <trkpt lat="59.8987751" lon="17.7099469">
        <ele>28.4962</ele>
        <time>2013-03-10T14:35:09Z</time>
      </trkpt>
      <trkpt lat="59.8987645" lon="17.7099291">
        <ele>28.4962</ele>
        <time>2013-03-10T14:35:10Z</time>
      </trkpt>
      <trkpt lat="59.8987538" lon="17.709913">
        <ele>28.4962</ele>
        <time>2013-03-10T14:35:11Z</time>
      </trkpt>
      <trkpt lat="59.8987435" lon="17.7098969">
        <ele>28.4962</ele>
        <time>2013-03-10T14:35:12Z</time>
      </trkpt>
      <trkpt lat="59.8987319" lon="17.7098811">
        <ele>28.4962</ele>
        <time>2013-03-10T14:35:13Z</time>
      </trkpt>
      <trkpt lat="59.8987203" lon="17.709865">
        <ele>28.4962</ele>
        <time>2013-03-10T14:35:14Z</time>
      </trkpt>
      <trkpt lat="59.8987091" lon="17.7098498">
        <ele>28.4962</ele>
        <time>2013-03-10T14:35:15Z</time>
      </trkpt>
      <trkpt lat="59.8986979" lon="17.709835">
        <ele>28.4962</ele>
        <time>2013-03-10T14:35:16Z</time>
      </trkpt>
      <trkpt lat="59.898687" lon="17.7098178">
        <ele>28.4962</ele>
        <time>2013-03-10T14:35:17Z</time>
      </trkpt>
      <trkpt lat="59.898676" lon="17.7098008">
        <ele>28.9769</ele>
        <time>2013-03-10T14:35:18Z</time>
      </trkpt>
      <trkpt lat="59.8986647" lon="17.7097878">
        <ele>28.9769</ele>
        <time>2013-03-10T14:35:19Z</time>
      </trkpt>
      <trkpt lat="59.8986533" lon="17.7097737">
        <ele>28.9769</ele>
        <time>2013-03-10T14:35:20Z</time>
      </trkpt>
      <trkpt lat="59.8986424" lon="17.7097568">
        <ele>28.9769</ele>
        <time>2013-03-10T14:35:21Z</time>
      </trkpt>
      <trkpt lat="59.8986321" lon="17.7097415">
        <ele>28.9769</ele>
        <time>2013-03-10T14:35:22Z</time>
      </trkpt>
      <trkpt lat="59.8986213" lon="17.7097263">
        <ele>28.9769</ele>
        <time>2013-03-10T14:35:23Z</time>
      </trkpt>
      <trkpt lat="59.8986102" lon="17.7097123">
        <ele>28.9769</ele>
        <time>2013-03-10T14:35:24Z</time>
      </trkpt>
      <trkpt lat="59.8985992" lon="17.7096986">
        <ele>28.9769</ele>
        <time>2013-03-10T14:35:25Z</time>
      </trkpt>
      <trkpt lat="59.8985884" lon="17.7096832">
        <ele>28.9769</ele>
        <time>2013-03-10T14:35:26Z</time>
      </trkpt>
      <trkpt lat="59.8985778" lon="17.7096698">
        <ele>28.9769</ele>
        <time>2013-03-10T14:35:27Z</time>
      </trkpt>
      <trkpt lat="59.8985679" lon="17.7096542">
        <ele>28.9769</ele>
        <time>2013-03-10T14:35:28Z</time>
      </trkpt>
      <trkpt lat="59.8985566" lon="17.7096397">
        <ele>28.9769</ele>
        <time>2013-03-10T14:35:29Z</time>
      </trkpt>
      <trkpt lat="59.8985455" lon="17.7096262">
        <ele>28.9769</ele>
        <time>2013-03-10T14:35:30Z</time>
      </trkpt>
      <trkpt lat="59.8985353" lon="17.7096126">
        <ele>28.9769</ele>
        <time>2013-03-10T14:35:31Z</time>
      </trkpt>
      <trkpt lat="59.8985254" lon="17.7095983">
        <ele>28.9769</ele>
        <time>2013-03-10T14:35:32Z</time>
      </trkpt>
      <trkpt lat="59.8985159" lon="17.7095853">
        <ele>28.9769</ele>
        <time>2013-03-10T14:35:33Z</time>
      </trkpt>
      <trkpt lat="59.8985062" lon="17.7095714">
        <ele>28.4962</ele>
        <time>2013-03-10T14:35:34Z</time>
      </trkpt>
      <trkpt lat="59.898496" lon="17.7095566">
        <ele>28.9769</ele>
        <time>2013-03-10T14:35:35Z</time>
      </trkpt>
      <trkpt lat="59.8984858" lon="17.7095418">
        <ele>28.9769</ele>
        <time>2013-03-10T14:35:36Z</time>
      </trkpt>
      <trkpt lat="59.8984754" lon="17.7095273">
        <ele>28.9769</ele>
        <time>2013-03-10T14:35:37Z</time>
      </trkpt>
      <trkpt lat="59.8984648" lon="17.7095127">
        <ele>28.9769</ele>
        <time>2013-03-10T14:35:38Z</time>
      </trkpt>
      <trkpt lat="59.8984542" lon="17.7094982">
        <ele>28.9769</ele>
        <time>2013-03-10T14:35:39Z</time>
      </trkpt>
      <trkpt lat="59.898443" lon="17.7094827">
        <ele>28.9769</ele>
        <time>2013-03-10T14:35:40Z</time>
      </trkpt>
      <trkpt lat="59.898432" lon="17.709467">
        <ele>28.9769</ele>
        <time>2013-03-10T14:35:41Z</time>
      </trkpt>
      <trkpt lat="59.8984209" lon="17.7094515">
        <ele>28.9769</ele>
        <time>2013-03-10T14:35:42Z</time>
      </trkpt>
      <trkpt lat="59.8984103" lon="17.7094362">
        <ele>28.9769</ele>
        <time>2013-03-10T14:35:43Z</time>
      </trkpt>
      <trkpt lat="59.8983994" lon="17.7094221">
        <ele>28.9769</ele>
        <time>2013-03-10T14:35:44Z</time>
      </trkpt>
      <trkpt lat="59.8983879" lon="17.7094083">
        <ele>28.9769</ele>
        <time>2013-03-10T14:35:45Z</time>
      </trkpt>
      <trkpt lat="59.8983763" lon="17.7093948">
        <ele>28.9769</ele>
        <time>2013-03-10T14:35:46Z</time>
      </trkpt>
      <trkpt lat="59.8983653" lon="17.7093796">
        <ele>28.9769</ele>
        <time>2013-03-10T14:35:47Z</time>
      </trkpt>
      <trkpt lat="59.8983544" lon="17.7093639">
        <ele>29.4575</ele>
        <time>2013-03-10T14:35:48Z</time>
      </trkpt>
      <trkpt lat="59.8983447" lon="17.7093492">
        <ele>29.4575</ele>
        <time>2013-03-10T14:35:49Z</time>
      </trkpt>
      <trkpt lat="59.8983341" lon="17.7093355">
        <ele>29.4575</ele>
        <time>2013-03-10T14:35:50Z</time>
      </trkpt>
      <trkpt lat="59.8983234" lon="17.7093218">
        <ele>28.9769</ele>
        <time>2013-03-10T14:35:51Z</time>
      </trkpt>
      <trkpt lat="59.8983135" lon="17.7093076">
        <ele>28.9769</ele>
        <time>2013-03-10T14:35:52Z</time>
      </trkpt>
      <trkpt lat="59.8983021" lon="17.7092945">
        <ele>28.9769</ele>
        <time>2013-03-10T14:35:53Z</time>
      </trkpt>
      <trkpt lat="59.8982897" lon="17.7092811">
        <ele>28.9769</ele>
        <time>2013-03-10T14:35:54Z</time>
      </trkpt>
      <trkpt lat="59.8982789" lon="17.709267">
        <ele>28.9769</ele>
        <time>2013-03-10T14:35:55Z</time>
      </trkpt>
      <trkpt lat="59.8982688" lon="17.7092528">
        <ele>28.9769</ele>
        <time>2013-03-10T14:35:56Z</time>
      </trkpt>
      <trkpt lat="59.8982575" lon="17.7092382">
        <ele>28.9769</ele>
        <time>2013-03-10T14:35:57Z</time>
      </trkpt>
      <trkpt lat="59.8982467" lon="17.7092239">
        <ele>28.9769</ele>
        <time>2013-03-10T14:35:58Z</time>
      </trkpt>
      <trkpt lat="59.8982353" lon="17.7092113">
        <ele>28.9769</ele>
        <time>2013-03-10T14:35:59Z</time>
      </trkpt>
      <trkpt lat="59.898223" lon="17.7091972">
        <ele>29.4575</ele>
        <time>2013-03-10T14:36:00Z</time>
      </trkpt>
      <trkpt lat="59.8982113" lon="17.7091828">
        <ele>29.4575</ele>
        <time>2013-03-10T14:36:01Z</time>
      </trkpt>
      <trkpt lat="59.898199" lon="17.7091689">
        <ele>29.4575</ele>
        <time>2013-03-10T14:36:02Z</time>
      </trkpt>
      <trkpt lat="59.8981866" lon="17.7091538">
        <ele>29.4575</ele>
        <time>2013-03-10T14:36:03Z</time>
      </trkpt>
      <trkpt lat="59.8981751" lon="17.7091383">
        <ele>29.4575</ele>
        <time>2013-03-10T14:36:04Z</time>
      </trkpt>
      <trkpt lat="59.8981639" lon="17.7091233">
        <ele>29.9381</ele>
        <time>2013-03-10T14:36:05Z</time>
      </trkpt>
      <trkpt lat="59.8981533" lon="17.7091077">
        <ele>29.9381</ele>
        <time>2013-03-10T14:36:06Z</time>
      </trkpt>
      <trkpt lat="59.8981421" lon="17.7090911">
        <ele>29.9381</ele>
        <time>2013-03-10T14:36:07Z</time>
      </trkpt>
      <trkpt lat="59.8981296" lon="17.7090754">
        <ele>29.9381</ele>
        <time>2013-03-10T14:36:08Z</time>
      </trkpt>
      <trkpt lat="59.8981176" lon="17.7090616">
        <ele>29.9381</ele>
        <time>2013-03-10T14:36:09Z</time>
      </trkpt>
      <trkpt lat="59.8981059" lon="17.7090475">
        <ele>29.9381</ele>
        <time>2013-03-10T14:36:10Z</time>
      </trkpt>
      <trkpt lat="59.8980947" lon="17.7090322">
        <ele>29.9381</ele>
        <time>2013-03-10T14:36:11Z</time>
      </trkpt>
      <trkpt lat="59.8980841" lon="17.7090161">
        <ele>29.9381</ele>
        <time>2013-03-10T14:36:12Z</time>
      </trkpt>
      <trkpt lat="59.8980737" lon="17.7090009">
        <ele>29.9381</ele>
        <time>2013-03-10T14:36:13Z</time>
      </trkpt>
      <trkpt lat="59.8980631" lon="17.7089854">
        <ele>29.9381</ele>
        <time>2013-03-10T14:36:14Z</time>
      </trkpt>
      <trkpt lat="59.898052" lon="17.7089699">
        <ele>29.9381</ele>
        <time>2013-03-10T14:36:15Z</time>
      </trkpt>
      <trkpt lat="59.8980414" lon="17.7089547">
        <ele>30.4188</ele>
        <time>2013-03-10T14:36:16Z</time>
      </trkpt>
      <trkpt lat="59.8980313" lon="17.7089398">
        <ele>30.4188</ele>
        <time>2013-03-10T14:36:17Z</time>
      </trkpt>
      <trkpt lat="59.8980202" lon="17.7089248">
        <ele>30.4188</ele>
        <time>2013-03-10T14:36:18Z</time>
      </trkpt>
      <trkpt lat="59.8980083" lon="17.7089093">
        <ele>30.4188</ele>
        <time>2013-03-10T14:36:19Z</time>
      </trkpt>
      <trkpt lat="59.8979969" lon="17.7088944">
        <ele>30.4188</ele>
        <time>2013-03-10T14:36:20Z</time>
      </trkpt>
      <trkpt lat="59.8979859" lon="17.7088799">
        <ele>30.4188</ele>
        <time>2013-03-10T14:36:21Z</time>
      </trkpt>
      <trkpt lat="59.8979747" lon="17.7088664">
        <ele>30.4188</ele>
        <time>2013-03-10T14:36:22Z</time>
      </trkpt>
      <trkpt lat="59.8979642" lon="17.7088509">
        <ele>30.4188</ele>
        <time>2013-03-10T14:36:23Z</time>
      </trkpt>
      <trkpt lat="59.8979533" lon="17.7088356">
        <ele>30.4188</ele>
        <time>2013-03-10T14:36:24Z</time>
      </trkpt>
      <trkpt lat="59.8979422" lon="17.70882">
        <ele>30.4188</ele>
        <time>2013-03-10T14:36:25Z</time>
      </trkpt>
      <trkpt lat="59.8979317" lon="17.7088042">
        <ele>30.4188</ele>
        <time>2013-03-10T14:36:26Z</time>
      </trkpt>
      <trkpt lat="59.897921" lon="17.708788">
        <ele>30.4188</ele>
        <time>2013-03-10T14:36:27Z</time>
      </trkpt>
      <trkpt lat="59.8979094" lon="17.708773">
        <ele>30.4188</ele>
        <time>2013-03-10T14:36:28Z</time>
      </trkpt>
      <trkpt lat="59.8978971" lon="17.708758">
        <ele>30.4188</ele>
        <time>2013-03-10T14:36:29Z</time>
      </trkpt>
      <trkpt lat="59.8978865" lon="17.7087424">
        <ele>30.4188</ele>
        <time>2013-03-10T14:36:30Z</time>
      </trkpt>
      <trkpt lat="59.8978753" lon="17.7087279">
        <ele>30.4188</ele>
        <time>2013-03-10T14:36:31Z</time>
      </trkpt>
      <trkpt lat="59.8978635" lon="17.7087121">
        <ele>30.4188</ele>
        <time>2013-03-10T14:36:32Z</time>
      </trkpt>
      <trkpt lat="59.8978524" lon="17.7086964">
        <ele>30.4188</ele>
        <time>2013-03-10T14:36:33Z</time>
      </trkpt>
      <trkpt lat="59.8978412" lon="17.7086809">
        <ele>30.4188</ele>
        <time>2013-03-10T14:36:34Z</time>
      </trkpt>
      <trkpt lat="59.89783" lon="17.7086667">
        <ele>30.4188</ele>
        <time>2013-03-10T14:36:35Z</time>
      </trkpt>
      <trkpt lat="59.8978184" lon="17.7086543">
        <ele>30.4188</ele>
        <time>2013-03-10T14:36:36Z</time>
      </trkpt>
      <trkpt lat="59.8978063" lon="17.7086425">
        <ele>30.4188</ele>
        <time>2013-03-10T14:36:37Z</time>
      </trkpt>
      <trkpt lat="59.8977946" lon="17.7086316">
        <ele>30.4188</ele>
        <time>2013-03-10T14:36:38Z</time>
      </trkpt>
      <trkpt lat="59.8977831" lon="17.7086195">
        <ele>30.4188</ele>
        <time>2013-03-10T14:36:39Z</time>
      </trkpt>
      <trkpt lat="59.8977718" lon="17.7086038">
        <ele>30.4188</ele>
        <time>2013-03-10T14:36:40Z</time>
      </trkpt>
      <trkpt lat="59.8977609" lon="17.7085897">
        <ele>30.4188</ele>
        <time>2013-03-10T14:36:41Z</time>
      </trkpt>
      <trkpt lat="59.897749" lon="17.7085774">
        <ele>30.4188</ele>
        <time>2013-03-10T14:36:42Z</time>
      </trkpt>
      <trkpt lat="59.8977363" lon="17.7085665">
        <ele>30.4188</ele>
        <time>2013-03-10T14:36:43Z</time>
      </trkpt>
      <trkpt lat="59.8977233" lon="17.7085575">
        <ele>30.4188</ele>
        <time>2013-03-10T14:36:44Z</time>
      </trkpt>
      <trkpt lat="59.8977106" lon="17.7085491">
        <ele>30.4188</ele>
        <time>2013-03-10T14:36:45Z</time>
      </trkpt>
      <trkpt lat="59.8976974" lon="17.7085395">
        <ele>30.4188</ele>
        <time>2013-03-10T14:36:46Z</time>
      </trkpt>
      <trkpt lat="59.8976835" lon="17.70853">
        <ele>30.8995</ele>
        <time>2013-03-10T14:36:47Z</time>
      </trkpt>
      <trkpt lat="59.8976702" lon="17.7085197">
        <ele>30.8995</ele>
        <time>2013-03-10T14:36:48Z</time>
      </trkpt>
      <trkpt lat="59.8976577" lon="17.7085084">
        <ele>30.8995</ele>
        <time>2013-03-10T14:36:49Z</time>
      </trkpt>
      <trkpt lat="59.8976456" lon="17.7084954">
        <ele>30.8995</ele>
        <time>2013-03-10T14:36:50Z</time>
      </trkpt>
      <trkpt lat="59.8976334" lon="17.708483">
        <ele>30.8995</ele>
        <time>2013-03-10T14:36:51Z</time>
      </trkpt>
      <trkpt lat="59.8976218" lon="17.7084686">
        <ele>30.8995</ele>
        <time>2013-03-10T14:36:52Z</time>
      </trkpt>
      <trkpt lat="59.8976104" lon="17.708453">
        <ele>30.8995</ele>
        <time>2013-03-10T14:36:53Z</time>
      </trkpt>
      <trkpt lat="59.8975983" lon="17.7084384">
        <ele>30.8995</ele>
        <time>2013-03-10T14:36:54Z</time>
      </trkpt>
      <trkpt lat="59.8975862" lon="17.7084229">
        <ele>30.8995</ele>
        <time>2013-03-10T14:36:55Z</time>
      </trkpt>
      <trkpt lat="59.8975746" lon="17.7084075">
        <ele>30.8995</ele>
        <time>2013-03-10T14:36:56Z</time>
      </trkpt>
      <trkpt lat="59.8975628" lon="17.7083944">
        <ele>30.8995</ele>
        <time>2013-03-10T14:36:57Z</time>
      </trkpt>
      <trkpt lat="59.8975518" lon="17.7083784">
        <ele>30.8995</ele>
        <time>2013-03-10T14:36:58Z</time>
      </trkpt>
      <trkpt lat="59.8975413" lon="17.7083603">
        <ele>30.8995</ele>
        <time>2013-03-10T14:36:59Z</time>
      </trkpt>
      <trkpt lat="59.8975304" lon="17.7083441">
        <ele>30.8995</ele>
        <time>2013-03-10T14:37:00Z</time>
      </trkpt>
      <trkpt lat="59.897519" lon="17.7083276">
        <ele>30.8995</ele>
        <time>2013-03-10T14:37:01Z</time>
      </trkpt>
      <trkpt lat="59.8975084" lon="17.7083105">
        <ele>30.8995</ele>
        <time>2013-03-10T14:37:02Z</time>
      </trkpt>
      <trkpt lat="59.8974982" lon="17.7082935">
        <ele>30.8995</ele>
        <time>2013-03-10T14:37:03Z</time>
      </trkpt>
      <trkpt lat="59.8974878" lon="17.7082754">
        <ele>30.8995</ele>
        <time>2013-03-10T14:37:04Z</time>
      </trkpt>
      <trkpt lat="59.8974767" lon="17.7082576">
        <ele>30.8995</ele>
        <time>2013-03-10T14:37:05Z</time>
      </trkpt>
      <trkpt lat="59.8974655" lon="17.708239">
        <ele>30.8995</ele>
        <time>2013-03-10T14:37:06Z</time>
      </trkpt>
      <trkpt lat="59.8974557" lon="17.7082204">
        <ele>30.8995</ele>
        <time>2013-03-10T14:37:07Z</time>
      </trkpt>
      <trkpt lat="59.8974463" lon="17.7082012">
        <ele>30.4188</ele>
        <time>2013-03-10T14:37:08Z</time>
      </trkpt>
      <trkpt lat="59.8974369" lon="17.7081814">
        <ele>30.4188</ele>
        <time>2013-03-10T14:37:09Z</time>
      </trkpt>
      <trkpt lat="59.8974273" lon="17.7081612">
        <ele>30.4188</ele>
        <time>2013-03-10T14:37:10Z</time>
      </trkpt>
      <trkpt lat="59.8974179" lon="17.7081424">
        <ele>30.4188</ele>
        <time>2013-03-10T14:37:11Z</time>
      </trkpt>
      <trkpt lat="59.8974083" lon="17.7081229">
        <ele>30.4188</ele>
        <time>2013-03-10T14:37:12Z</time>
      </trkpt>
      <trkpt lat="59.8973991" lon="17.7081033">
        <ele>30.4188</ele>
        <time>2013-03-10T14:37:13Z</time>
      </trkpt>
      <trkpt lat="59.8973884" lon="17.7080867">
        <ele>30.4188</ele>
        <time>2013-03-10T14:37:14Z</time>
      </trkpt>
      <trkpt lat="59.8973788" lon="17.7080705">
        <ele>30.4188</ele>
        <time>2013-03-10T14:37:15Z</time>
      </trkpt>
      <trkpt lat="59.8973697" lon="17.7080525">
        <ele>30.4188</ele>
        <time>2013-03-10T14:37:16Z</time>
      </trkpt>
      <trkpt lat="59.8973584" lon="17.7080359">
        <ele>30.4188</ele>
        <time>2013-03-10T14:37:17Z</time>
      </trkpt>
      <trkpt lat="59.8973469" lon="17.708022">
        <ele>30.4188</ele>
        <time>2013-03-10T14:37:18Z</time>
      </trkpt>
      <trkpt lat="59.8973358" lon="17.708008">
        <ele>30.4188</ele>
        <time>2013-03-10T14:37:19Z</time>
      </trkpt>
      <trkpt lat="59.8973245" lon="17.7079934">
        <ele>30.4188</ele>
        <time>2013-03-10T14:37:20Z</time>
      </trkpt>
      <trkpt lat="59.8973132" lon="17.7079785">
        <ele>30.4188</ele>
        <time>2013-03-10T14:37:21Z</time>
      </trkpt>
      <trkpt lat="59.8973023" lon="17.7079632">
        <ele>29.9381</ele>
        <time>2013-03-10T14:37:22Z</time>
      </trkpt>
      <trkpt lat="59.8972913" lon="17.7079468">
        <ele>29.9381</ele>
        <time>2013-03-10T14:37:23Z</time>
      </trkpt>
      <trkpt lat="59.8972791" lon="17.7079325">
        <ele>29.9381</ele>
        <time>2013-03-10T14:37:24Z</time>
      </trkpt>
      <trkpt lat="59.8972671" lon="17.7079177">
        <ele>29.9381</ele>
        <time>2013-03-10T14:37:25Z</time>
      </trkpt>
      <trkpt lat="59.8972555" lon="17.7079022">
        <ele>29.9381</ele>
        <time>2013-03-10T14:37:26Z</time>
      </trkpt>
      <trkpt lat="59.8972448" lon="17.7078871">
        <ele>29.9381</ele>
        <time>2013-03-10T14:37:27Z</time>
      </trkpt>
      <trkpt lat="59.8972336" lon="17.7078734">
        <ele>29.9381</ele>
        <time>2013-03-10T14:37:28Z</time>
      </trkpt>
      <trkpt lat="59.8972222" lon="17.7078603">
        <ele>29.9381</ele>
        <time>2013-03-10T14:37:29Z</time>
      </trkpt>
      <trkpt lat="59.8972115" lon="17.7078453">
        <ele>29.9381</ele>
        <time>2013-03-10T14:37:30Z</time>
      </trkpt>
      <trkpt lat="59.8972002" lon="17.7078287">
        <ele>29.9381</ele>
        <time>2013-03-10T14:37:31Z</time>
      </trkpt>
      <trkpt lat="59.89719" lon="17.7078122">
        <ele>29.9381</ele>
        <time>2013-03-10T14:37:32Z</time>
      </trkpt>
      <trkpt lat="59.8971796" lon="17.7077986">
        <ele>29.9381</ele>
        <time>2013-03-10T14:37:33Z</time>
      </trkpt>
      <trkpt lat="59.8971683" lon="17.7077847">
        <ele>29.9381</ele>
        <time>2013-03-10T14:37:34Z</time>
      </trkpt>
      <trkpt lat="59.8971582" lon="17.7077708">
        <ele>29.9381</ele>
        <time>2013-03-10T14:37:35Z</time>
      </trkpt>
      <trkpt lat="59.8971478" lon="17.7077592">
        <ele>29.9381</ele>
        <time>2013-03-10T14:37:36Z</time>
      </trkpt>
      <trkpt lat="59.8971365" lon="17.7077454">
        <ele>29.9381</ele>
        <time>2013-03-10T14:37:37Z</time>
      </trkpt>
      <trkpt lat="59.8971248" lon="17.7077323">
        <ele>29.9381</ele>
        <time>2013-03-10T14:37:38Z</time>
      </trkpt>
      <trkpt lat="59.8971138" lon="17.7077189">
        <ele>29.9381</ele>
        <time>2013-03-10T14:37:39Z</time>
      </trkpt>
      <trkpt lat="59.897102" lon="17.7077073">
        <ele>29.9381</ele>
        <time>2013-03-10T14:37:40Z</time>
      </trkpt>
      <trkpt lat="59.8970884" lon="17.7076956">
        <ele>30.4188</ele>
        <time>2013-03-10T14:37:41Z</time>
      </trkpt>
      <trkpt lat="59.8970768" lon="17.7076821">
        <ele>30.4188</ele>
        <time>2013-03-10T14:37:42Z</time>
      </trkpt>
      <trkpt lat="59.897066" lon="17.7076676">
        <ele>30.4188</ele>
        <time>2013-03-10T14:37:43Z</time>
      </trkpt>
      <trkpt lat="59.8970561" lon="17.7076527">
        <ele>30.4188</ele>
        <time>2013-03-10T14:37:44Z</time>
      </trkpt>
      <trkpt lat="59.897045" lon="17.7076385">
        <ele>30.4188</ele>
        <time>2013-03-10T14:37:45Z</time>
      </trkpt>
      <trkpt lat="59.8970335" lon="17.7076236">
        <ele>30.4188</ele>
        <time>2013-03-10T14:37:46Z</time>
      </trkpt>
      <trkpt lat="59.8970224" lon="17.7076113">
        <ele>30.4188</ele>
        <time>2013-03-10T14:37:47Z</time>
      </trkpt>
      <trkpt lat="59.8970124" lon="17.7075993">
        <ele>30.4188</ele>
        <time>2013-03-10T14:37:48Z</time>
      </trkpt>
      <trkpt lat="59.8970028" lon="17.7075859">
        <ele>30.4188</ele>
        <time>2013-03-10T14:37:49Z</time>
      </trkpt>
      <trkpt lat="59.8969917" lon="17.7075728">
        <ele>30.4188</ele>
        <time>2013-03-10T14:37:50Z</time>
      </trkpt>
      <trkpt lat="59.8969808" lon="17.7075592">
        <ele>30.4188</ele>
        <time>2013-03-10T14:37:51Z</time>
      </trkpt>
      <trkpt lat="59.8969698" lon="17.7075448">
        <ele>30.4188</ele>
        <time>2013-03-10T14:37:52Z</time>
      </trkpt>
      <trkpt lat="59.8969583" lon="17.707535">
        <ele>30.4188</ele>
        <time>2013-03-10T14:37:53Z</time>
      </trkpt>
      <trkpt lat="59.8969471" lon="17.7075257">
        <ele>30.4188</ele>
        <time>2013-03-10T14:37:54Z</time>
      </trkpt>
      <trkpt lat="59.8969359" lon="17.7075143">
        <ele>30.4188</ele>
        <time>2013-03-10T14:37:55Z</time>
      </trkpt>
      <trkpt lat="59.8969246" lon="17.7075017">
        <ele>30.8995</ele>
        <time>2013-03-10T14:37:56Z</time>
      </trkpt>
      <trkpt lat="59.8969131" lon="17.7074884">
        <ele>30.8995</ele>
        <time>2013-03-10T14:37:57Z</time>
      </trkpt>
      <trkpt lat="59.8969022" lon="17.7074732">
        <ele>30.8995</ele>
        <time>2013-03-10T14:37:58Z</time>
      </trkpt>
      <trkpt lat="59.8968915" lon="17.7074584">
        <ele>30.8995</ele>
        <time>2013-03-10T14:37:59Z</time>
      </trkpt>
      <trkpt lat="59.8968808" lon="17.7074431">
        <ele>30.8995</ele>
        <time>2013-03-10T14:38:00Z</time>
      </trkpt>
      <trkpt lat="59.8968699" lon="17.7074278">
        <ele>30.8995</ele>
        <time>2013-03-10T14:38:01Z</time>
      </trkpt>
      <trkpt lat="59.8968595" lon="17.7074116">
        <ele>30.4188</ele>
        <time>2013-03-10T14:38:02Z</time>
      </trkpt>
      <trkpt lat="59.8968489" lon="17.707395">
        <ele>30.8995</ele>
        <time>2013-03-10T14:38:03Z</time>
      </trkpt>
      <trkpt lat="59.8968382" lon="17.7073791">
        <ele>30.8995</ele>
        <time>2013-03-10T14:38:04Z</time>
      </trkpt>
      <trkpt lat="59.896828" lon="17.7073621">
        <ele>30.8995</ele>
        <time>2013-03-10T14:38:05Z</time>
      </trkpt>
      <trkpt lat="59.8968176" lon="17.707346">
        <ele>30.8995</ele>
        <time>2013-03-10T14:38:06Z</time>
      </trkpt>
      <trkpt lat="59.8968072" lon="17.707332">
        <ele>30.4188</ele>
        <time>2013-03-10T14:38:07Z</time>
      </trkpt>
      <trkpt lat="59.8967976" lon="17.7073158">
        <ele>30.4188</ele>
        <time>2013-03-10T14:38:08Z</time>
      </trkpt>
      <trkpt lat="59.8967879" lon="17.7072993">
        <ele>30.4188</ele>
        <time>2013-03-10T14:38:09Z</time>
      </trkpt>
      <trkpt lat="59.896778" lon="17.7072837">
        <ele>30.4188</ele>
        <time>2013-03-10T14:38:10Z</time>
      </trkpt>
      <trkpt lat="59.8967688" lon="17.7072691">
        <ele>30.4188</ele>
        <time>2013-03-10T14:38:11Z</time>
      </trkpt>
      <trkpt lat="59.8967595" lon="17.7072559">
        <ele>30.4188</ele>
        <time>2013-03-10T14:38:12Z</time>
      </trkpt>
      <trkpt lat="59.8967489" lon="17.7072428">
        <ele>30.4188</ele>
        <time>2013-03-10T14:38:13Z</time>
      </trkpt>
      <trkpt lat="59.8967388" lon="17.7072284">
        <ele>29.9381</ele>
        <time>2013-03-10T14:38:14Z</time>
      </trkpt>
      <trkpt lat="59.8967279" lon="17.7072143">
        <ele>29.9381</ele>
        <time>2013-03-10T14:38:15Z</time>
      </trkpt>
      <trkpt lat="59.896717" lon="17.7071995">
        <ele>29.9381</ele>
        <time>2013-03-10T14:38:16Z</time>
      </trkpt>
      <trkpt lat="59.8967067" lon="17.7071854">
        <ele>30.4188</ele>
        <time>2013-03-10T14:38:17Z</time>
      </trkpt>
      <trkpt lat="59.8966967" lon="17.7071686">
        <ele>29.9381</ele>
        <time>2013-03-10T14:38:18Z</time>
      </trkpt>
      <trkpt lat="59.8966866" lon="17.7071516">
        <ele>29.9381</ele>
        <time>2013-03-10T14:38:19Z</time>
      </trkpt>
      <trkpt lat="59.8966764" lon="17.7071355">
        <ele>29.9381</ele>
        <time>2013-03-10T14:38:20Z</time>
      </trkpt>
      <trkpt lat="59.8966653" lon="17.7071212">
        <ele>29.9381</ele>
        <time>2013-03-10T14:38:21Z</time>
      </trkpt>
      <trkpt lat="59.8966552" lon="17.7071066">
        <ele>29.9381</ele>
        <time>2013-03-10T14:38:22Z</time>
      </trkpt>
      <trkpt lat="59.8966451" lon="17.7070893">
        <ele>29.9381</ele>
        <time>2013-03-10T14:38:23Z</time>
      </trkpt>
      <trkpt lat="59.8966346" lon="17.7070724">
        <ele>29.9381</ele>
        <time>2013-03-10T14:38:24Z</time>
      </trkpt>
      <trkpt lat="59.8966247" lon="17.7070568">
        <ele>29.9381</ele>
        <time>2013-03-10T14:38:25Z</time>
      </trkpt>
      <trkpt lat="59.8966145" lon="17.7070428">
        <ele>29.4575</ele>
        <time>2013-03-10T14:38:26Z</time>
      </trkpt>
      <trkpt lat="59.8966046" lon="17.7070278">
        <ele>29.4575</ele>
        <time>2013-03-10T14:38:27Z</time>
      </trkpt>
      <trkpt lat="59.8965936" lon="17.7070139">
        <ele>29.4575</ele>
        <time>2013-03-10T14:38:28Z</time>
      </trkpt>
      <trkpt lat="59.8965828" lon="17.7069997">
        <ele>29.4575</ele>
        <time>2013-03-10T14:38:29Z</time>
      </trkpt>
      <trkpt lat="59.8965728" lon="17.7069875">
        <ele>29.4575</ele>
        <time>2013-03-10T14:38:30Z</time>
      </trkpt>
      <trkpt lat="59.8965636" lon="17.706974">
        <ele>29.4575</ele>
        <time>2013-03-10T14:38:31Z</time>
      </trkpt>
      <trkpt lat="59.8965531" lon="17.7069617">
        <ele>29.4575</ele>
        <time>2013-03-10T14:38:32Z</time>
      </trkpt>
      <trkpt lat="59.8965424" lon="17.7069486">
        <ele>29.4575</ele>
        <time>2013-03-10T14:38:33Z</time>
      </trkpt>
      <trkpt lat="59.896533" lon="17.7069327">
        <ele>29.4575</ele>
        <time>2013-03-10T14:38:34Z</time>
      </trkpt>
      <trkpt lat="59.8965231" lon="17.7069181">
        <ele>28.9769</ele>
        <time>2013-03-10T14:38:35Z</time>
      </trkpt>
      <trkpt lat="59.8965128" lon="17.7069062">
        <ele>29.4575</ele>
        <time>2013-03-10T14:38:36Z</time>
      </trkpt>
      <trkpt lat="59.8965027" lon="17.7068937">
        <ele>29.4575</ele>
        <time>2013-03-10T14:38:37Z</time>
      </trkpt>
      <trkpt lat="59.8964928" lon="17.7068801">
        <ele>29.4575</ele>
        <time>2013-03-10T14:38:38Z</time>
      </trkpt>
      <trkpt lat="59.8964834" lon="17.7068628">
        <ele>29.4575</ele>
        <time>2013-03-10T14:38:39Z</time>
      </trkpt>
      <trkpt lat="59.8964737" lon="17.7068467">
        <ele>29.4575</ele>
        <time>2013-03-10T14:38:40Z</time>
      </trkpt>
      <trkpt lat="59.8964621" lon="17.706834">
        <ele>29.4575</ele>
        <time>2013-03-10T14:38:41Z</time>
      </trkpt>
      <trkpt lat="59.8964502" lon="17.7068216">
        <ele>29.4575</ele>
        <time>2013-03-10T14:38:42Z</time>
      </trkpt>
      <trkpt lat="59.8964384" lon="17.706806">
        <ele>29.4575</ele>
        <time>2013-03-10T14:38:43Z</time>
      </trkpt>
      <trkpt lat="59.8964259" lon="17.7067918">
        <ele>29.9381</ele>
        <time>2013-03-10T14:38:44Z</time>
      </trkpt>
      <trkpt lat="59.8964136" lon="17.7067803">
        <ele>29.9381</ele>
        <time>2013-03-10T14:38:45Z</time>
      </trkpt>
      <trkpt lat="59.896402" lon="17.7067667">
        <ele>29.9381</ele>
        <time>2013-03-10T14:38:46Z</time>
      </trkpt>
      <trkpt lat="59.8963912" lon="17.7067513">
        <ele>29.9381</ele>
        <time>2013-03-10T14:38:47Z</time>
      </trkpt>
      <trkpt lat="59.8963807" lon="17.7067363">
        <ele>29.9381</ele>
        <time>2013-03-10T14:38:48Z</time>
      </trkpt>
      <trkpt lat="59.8963693" lon="17.7067222">
        <ele>29.9381</ele>
        <time>2013-03-10T14:38:49Z</time>
      </trkpt>
      <trkpt lat="59.8963583" lon="17.706707">
        <ele>29.9381</ele>
        <time>2013-03-10T14:38:50Z</time>
      </trkpt>
      <trkpt lat="59.8963482" lon="17.7066896">
        <ele>29.9381</ele>
        <time>2013-03-10T14:38:51Z</time>
      </trkpt>
      <trkpt lat="59.8963379" lon="17.7066716">
        <ele>29.9381</ele>
        <time>2013-03-10T14:38:52Z</time>
      </trkpt>
      <trkpt lat="59.8963264" lon="17.7066566">
        <ele>29.9381</ele>
        <time>2013-03-10T14:38:53Z</time>
      </trkpt>
      <trkpt lat="59.8963157" lon="17.7066409">
        <ele>29.9381</ele>
        <time>2013-03-10T14:38:54Z</time>
      </trkpt>
      <trkpt lat="59.8963056" lon="17.7066238">
        <ele>29.9381</ele>
        <time>2013-03-10T14:38:55Z</time>
      </trkpt>
      <trkpt lat="59.8962939" lon="17.70661">
        <ele>29.9381</ele>
        <time>2013-03-10T14:38:56Z</time>
      </trkpt>
      <trkpt lat="59.8962829" lon="17.7065959">
        <ele>29.9381</ele>
        <time>2013-03-10T14:38:57Z</time>
      </trkpt>
      <trkpt lat="59.8962716" lon="17.7065824">
        <ele>29.9381</ele>
        <time>2013-03-10T14:38:58Z</time>
      </trkpt>
      <trkpt lat="59.896261" lon="17.7065677">
        <ele>29.9381</ele>
        <time>2013-03-10T14:38:59Z</time>
      </trkpt>
      <trkpt lat="59.8962503" lon="17.7065507">
        <ele>29.9381</ele>
        <time>2013-03-10T14:39:00Z</time>
      </trkpt>
      <trkpt lat="59.8962399" lon="17.7065349">
        <ele>29.9381</ele>
        <time>2013-03-10T14:39:01Z</time>
      </trkpt>
      <trkpt lat="59.8962292" lon="17.7065212">
        <ele>29.9381</ele>
        <time>2013-03-10T14:39:02Z</time>
      </trkpt>
      <trkpt lat="59.8962181" lon="17.7065078">
        <ele>29.9381</ele>
        <time>2013-03-10T14:39:03Z</time>
      </trkpt>
      <trkpt lat="59.8962064" lon="17.7064936">
        <ele>29.9381</ele>
        <time>2013-03-10T14:39:04Z</time>
      </trkpt>
      <trkpt lat="59.8961965" lon="17.7064777">
        <ele>29.4575</ele>
        <time>2013-03-10T14:39:05Z</time>
      </trkpt>
      <trkpt lat="59.8961867" lon="17.7064643">
        <ele>29.4575</ele>
        <time>2013-03-10T14:39:06Z</time>
      </trkpt>
      <trkpt lat="59.8961758" lon="17.7064519">
        <ele>29.4575</ele>
        <time>2013-03-10T14:39:07Z</time>
      </trkpt>
      <trkpt lat="59.8961639" lon="17.7064395">
        <ele>29.4575</ele>
        <time>2013-03-10T14:39:08Z</time>
      </trkpt>
      <trkpt lat="59.8961528" lon="17.7064253">
        <ele>29.4575</ele>
        <time>2013-03-10T14:39:09Z</time>
      </trkpt>
      <trkpt lat="59.8961415" lon="17.7064107">
        <ele>29.4575</ele>
        <time>2013-03-10T14:39:10Z</time>
      </trkpt>
      <trkpt lat="59.8961306" lon="17.7063966">
        <ele>29.4575</ele>
        <time>2013-03-10T14:39:11Z</time>
      </trkpt>
      <trkpt lat="59.8961196" lon="17.7063821">
        <ele>29.4575</ele>
        <time>2013-03-10T14:39:12Z</time>
      </trkpt>
      <trkpt lat="59.8961078" lon="17.7063673">
        <ele>29.4575</ele>
        <time>2013-03-10T14:39:13Z</time>
      </trkpt>
      <trkpt lat="59.8960968" lon="17.7063503">
        <ele>29.4575</ele>
        <time>2013-03-10T14:39:14Z</time>
      </trkpt>
      <trkpt lat="59.8960845" lon="17.7063359">
        <ele>29.4575</ele>
        <time>2013-03-10T14:39:15Z</time>
      </trkpt>
      <trkpt lat="59.8960725" lon="17.7063227">
        <ele>29.4575</ele>
        <time>2013-03-10T14:39:16Z</time>
      </trkpt>
      <trkpt lat="59.8960603" lon="17.7063083">
        <ele>29.4575</ele>
        <time>2013-03-10T14:39:17Z</time>
      </trkpt>
      <trkpt lat="59.8960477" lon="17.7062944">
        <ele>29.4575</ele>
        <time>2013-03-10T14:39:18Z</time>
      </trkpt>
      <trkpt lat="59.8960361" lon="17.7062799">
        <ele>29.4575</ele>
        <time>2013-03-10T14:39:19Z</time>
      </trkpt>
      <trkpt lat="59.8960249" lon="17.706265">
        <ele>29.4575</ele>
        <time>2013-03-10T14:39:20Z</time>
      </trkpt>
      <trkpt lat="59.8960133" lon="17.7062502">
        <ele>29.4575</ele>
        <time>2013-03-10T14:39:21Z</time>
      </trkpt>
      <trkpt lat="59.8960007" lon="17.7062364">
        <ele>29.4575</ele>
        <time>2013-03-10T14:39:22Z</time>
      </trkpt>
      <trkpt lat="59.8959875" lon="17.7062208">
        <ele>29.9381</ele>
        <time>2013-03-10T14:39:23Z</time>
      </trkpt>
      <trkpt lat="59.895975" lon="17.7062067">
        <ele>29.4575</ele>
        <time>2013-03-10T14:39:24Z</time>
      </trkpt>
      <trkpt lat="59.8959634" lon="17.7061922">
        <ele>29.4575</ele>
        <time>2013-03-10T14:39:25Z</time>
      </trkpt>
      <trkpt lat="59.895953" lon="17.7061763">
        <ele>29.4575</ele>
        <time>2013-03-10T14:39:26Z</time>
      </trkpt>
      <trkpt lat="59.895943" lon="17.7061591">
        <ele>29.4575</ele>
        <time>2013-03-10T14:39:27Z</time>
      </trkpt>
      <trkpt lat="59.8959327" lon="17.7061434">
        <ele>29.4575</ele>
        <time>2013-03-10T14:39:28Z</time>
      </trkpt>
      <trkpt lat="59.8959227" lon="17.706128">
        <ele>29.4575</ele>
        <time>2013-03-10T14:39:29Z</time>
      </trkpt>
      <trkpt lat="59.895912" lon="17.7061126">
        <ele>28.9769</ele>
        <time>2013-03-10T14:39:30Z</time>
      </trkpt>
      <trkpt lat="59.895901" lon="17.706097">
        <ele>28.9769</ele>
        <time>2013-03-10T14:39:31Z</time>
      </trkpt>
      <trkpt lat="59.8958901" lon="17.7060813">
        <ele>28.9769</ele>
        <time>2013-03-10T14:39:32Z</time>
      </trkpt>
      <trkpt lat="59.8958809" lon="17.7060639">
        <ele>28.9769</ele>
        <time>2013-03-10T14:39:33Z</time>
      </trkpt>
      <trkpt lat="59.8958715" lon="17.7060478">
        <ele>28.9769</ele>
        <time>2013-03-10T14:39:34Z</time>
      </trkpt>
      <trkpt lat="59.8958607" lon="17.7060334">
        <ele>28.9769</ele>
        <time>2013-03-10T14:39:35Z</time>
      </trkpt>
      <trkpt lat="59.8958502" lon="17.7060198">
        <ele>28.4962</ele>
        <time>2013-03-10T14:39:36Z</time>
      </trkpt>
      <trkpt lat="59.89584" lon="17.7060048">
        <ele>28.4962</ele>
        <time>2013-03-10T14:39:37Z</time>
      </trkpt>
      <trkpt lat="59.895828" lon="17.705992">
        <ele>28.4962</ele>
        <time>2013-03-10T14:39:38Z</time>
      </trkpt>
      <trkpt lat="59.8958163" lon="17.7059783">
        <ele>28.4962</ele>
        <time>2013-03-10T14:39:39Z</time>
      </trkpt>
      <trkpt lat="59.8958054" lon="17.7059634">
        <ele>28.4962</ele>
        <time>2013-03-10T14:39:40Z</time>
      </trkpt>
      <trkpt lat="59.8957944" lon="17.705948">
        <ele>28.4962</ele>
        <time>2013-03-10T14:39:41Z</time>
      </trkpt>
      <trkpt lat="59.8957841" lon="17.7059326">
        <ele>28.4962</ele>
        <time>2013-03-10T14:39:42Z</time>
      </trkpt>
      <trkpt lat="59.8957737" lon="17.7059176">
        <ele>28.4962</ele>
        <time>2013-03-10T14:39:43Z</time>
      </trkpt>
      <trkpt lat="59.8957638" lon="17.7059038">
        <ele>28.4962</ele>
        <time>2013-03-10T14:39:44Z</time>
      </trkpt>
      <trkpt lat="59.8957535" lon="17.7058904">
        <ele>28.4962</ele>
        <time>2013-03-10T14:39:45Z</time>
      </trkpt>
      <trkpt lat="59.8957424" lon="17.7058767">
        <ele>28.9769</ele>
        <time>2013-03-10T14:39:46Z</time>
      </trkpt>
      <trkpt lat="59.8957311" lon="17.7058625">
        <ele>28.9769</ele>
        <time>2013-03-10T14:39:47Z</time>
      </trkpt>
      <trkpt lat="59.8957207" lon="17.7058474">
        <ele>28.9769</ele>
        <time>2013-03-10T14:39:48Z</time>
      </trkpt>
      <trkpt lat="59.8957078" lon="17.7058337">
        <ele>28.9769</ele>
        <time>2013-03-10T14:39:49Z</time>
      </trkpt>
      <trkpt lat="59.8956943" lon="17.7058204">
        <ele>28.4962</ele>
        <time>2013-03-10T14:39:50Z</time>
      </trkpt>
      <trkpt lat="59.8956831" lon="17.7058049">
        <ele>28.9769</ele>
        <time>2013-03-10T14:39:51Z</time>
      </trkpt>
      <trkpt lat="59.8956733" lon="17.7057894">
        <ele>28.9769</ele>
        <time>2013-03-10T14:39:52Z</time>
      </trkpt>
      <trkpt lat="59.8956633" lon="17.7057743">
        <ele>28.9769</ele>
        <time>2013-03-10T14:39:53Z</time>
      </trkpt>
      <trkpt lat="59.8956535" lon="17.7057609">
        <ele>28.4962</ele>
        <time>2013-03-10T14:39:54Z</time>
      </trkpt>
      <trkpt lat="59.8956437" lon="17.7057474">
        <ele>28.9769</ele>
        <time>2013-03-10T14:39:55Z</time>
      </trkpt>
      <trkpt lat="59.8956333" lon="17.7057327">
        <ele>28.9769</ele>
        <time>2013-03-10T14:39:56Z</time>
      </trkpt>
      <trkpt lat="59.8956233" lon="17.7057185">
        <ele>28.9769</ele>
        <time>2013-03-10T14:39:57Z</time>
      </trkpt>
      <trkpt lat="59.8956147" lon="17.705704">
        <ele>28.4962</ele>
        <time>2013-03-10T14:39:58Z</time>
      </trkpt>
      <trkpt lat="59.8956057" lon="17.7056904">
        <ele>28.4962</ele>
        <time>2013-03-10T14:39:59Z</time>
      </trkpt>
      <trkpt lat="59.8955953" lon="17.7056784">
        <ele>28.4962</ele>
        <time>2013-03-10T14:40:00Z</time>
      </trkpt>
      <trkpt lat="59.895585" lon="17.7056659">
        <ele>28.4962</ele>
        <time>2013-03-10T14:40:01Z</time>
      </trkpt>
      <trkpt lat="59.8955744" lon="17.7056521">
        <ele>28.9769</ele>
        <time>2013-03-10T14:40:02Z</time>
      </trkpt>
      <trkpt lat="59.8955635" lon="17.705639">
        <ele>28.9769</ele>
        <time>2013-03-10T14:40:03Z</time>
      </trkpt>
      <trkpt lat="59.8955525" lon="17.7056263">
        <ele>28.9769</ele>
        <time>2013-03-10T14:40:04Z</time>
      </trkpt>
      <trkpt lat="59.8955401" lon="17.705614">
        <ele>28.9769</ele>
        <time>2013-03-10T14:40:05Z</time>
      </trkpt>
      <trkpt lat="59.8955282" lon="17.7056013">
        <ele>28.9769</ele>
        <time>2013-03-10T14:40:06Z</time>
      </trkpt>
      <trkpt lat="59.8955169" lon="17.7055884">
        <ele>28.9769</ele>
        <time>2013-03-10T14:40:07Z</time>
      </trkpt>
      <trkpt lat="59.8955064" lon="17.7055773">
        <ele>28.9769</ele>
        <time>2013-03-10T14:40:08Z</time>
      </trkpt>
      <trkpt lat="59.8954939" lon="17.7055666">
        <ele>28.9769</ele>
        <time>2013-03-10T14:40:09Z</time>
      </trkpt>
      <trkpt lat="59.895482" lon="17.7055525">
        <ele>28.9769</ele>
        <time>2013-03-10T14:40:10Z</time>
      </trkpt>
      <trkpt lat="59.895471" lon="17.7055376">
        <ele>28.9769</ele>
        <time>2013-03-10T14:40:11Z</time>
      </trkpt>
      <trkpt lat="59.8954609" lon="17.705523">
        <ele>29.4575</ele>
        <time>2013-03-10T14:40:12Z</time>
      </trkpt>
      <trkpt lat="59.8954511" lon="17.7055073">
        <ele>29.4575</ele>
        <time>2013-03-10T14:40:13Z</time>
      </trkpt>
      <trkpt lat="59.8954391" lon="17.7054945">
        <ele>29.4575</ele>
        <time>2013-03-10T14:40:14Z</time>
      </trkpt>
      <trkpt lat="59.8954276" lon="17.7054825">
        <ele>29.4575</ele>
        <time>2013-03-10T14:40:15Z</time>
      </trkpt>
      <trkpt lat="59.8954166" lon="17.7054713">
        <ele>29.4575</ele>
        <time>2013-03-10T14:40:16Z</time>
      </trkpt>
      <trkpt lat="59.8954054" lon="17.7054594">
        <ele>29.4575</ele>
        <time>2013-03-10T14:40:17Z</time>
      </trkpt>
      <trkpt lat="59.8953949" lon="17.7054473">
        <ele>29.4575</ele>
        <time>2013-03-10T14:40:18Z</time>
      </trkpt>
      <trkpt lat="59.8953834" lon="17.705437">
        <ele>28.9769</ele>
        <time>2013-03-10T14:40:19Z</time>
      </trkpt>
      <trkpt lat="59.8953692" lon="17.7054276">
        <ele>28.9769</ele>
        <time>2013-03-10T14:40:20Z</time>
      </trkpt>
      <trkpt lat="59.8953577" lon="17.7054175">
        <ele>28.9769</ele>
        <time>2013-03-10T14:40:21Z</time>
      </trkpt>
      <trkpt lat="59.8953474" lon="17.7054056">
        <ele>28.9769</ele>
        <time>2013-03-10T14:40:22Z</time>
      </trkpt>
      <trkpt lat="59.8953366" lon="17.705397">
        <ele>28.9769</ele>
        <time>2013-03-10T14:40:23Z</time>
      </trkpt>
      <trkpt lat="59.8953265" lon="17.7053874">
        <ele>28.9769</ele>
        <time>2013-03-10T14:40:24Z</time>
      </trkpt>
      <trkpt lat="59.8953159" lon="17.705377">
        <ele>28.9769</ele>
        <time>2013-03-10T14:40:25Z</time>
      </trkpt>
      <trkpt lat="59.8953044" lon="17.7053692">
        <ele>28.9769</ele>
        <time>2013-03-10T14:40:26Z</time>
      </trkpt>
      <trkpt lat="59.8952921" lon="17.7053626">
        <ele>29.4575</ele>
        <time>2013-03-10T14:40:27Z</time>
      </trkpt>
      <trkpt lat="59.8952784" lon="17.7053531">
        <ele>29.4575</ele>
        <time>2013-03-10T14:40:28Z</time>
      </trkpt>
      <trkpt lat="59.8952645" lon="17.7053403">
        <ele>29.4575</ele>
        <time>2013-03-10T14:40:29Z</time>
      </trkpt>
      <trkpt lat="59.8952527" lon="17.7053253">
        <ele>29.4575</ele>
        <time>2013-03-10T14:40:30Z</time>
      </trkpt>
      <trkpt lat="59.8952408" lon="17.7053103">
        <ele>29.4575</ele>
        <time>2013-03-10T14:40:31Z</time>
      </trkpt>
      <trkpt lat="59.8952308" lon="17.7052946">
        <ele>29.4575</ele>
        <time>2013-03-10T14:40:32Z</time>
      </trkpt>
      <trkpt lat="59.8952208" lon="17.7052796">
        <ele>29.4575</ele>
        <time>2013-03-10T14:40:33Z</time>
      </trkpt>
      <trkpt lat="59.8952106" lon="17.7052639">
        <ele>29.4575</ele>
        <time>2013-03-10T14:40:34Z</time>
      </trkpt>
      <trkpt lat="59.8952011" lon="17.7052483">
        <ele>29.4575</ele>
        <time>2013-03-10T14:40:35Z</time>
      </trkpt>
      <trkpt lat="59.895191" lon="17.7052315">
        <ele>29.4575</ele>
        <time>2013-03-10T14:40:36Z</time>
      </trkpt>
      <trkpt lat="59.8951816" lon="17.7052147">
        <ele>29.4575</ele>
        <time>2013-03-10T14:40:37Z</time>
      </trkpt>
      <trkpt lat="59.8951728" lon="17.7052003">
        <ele>29.4575</ele>
        <time>2013-03-10T14:40:38Z</time>
      </trkpt>
      <trkpt lat="59.895163" lon="17.7051854">
        <ele>29.4575</ele>
        <time>2013-03-10T14:40:39Z</time>
      </trkpt>
      <trkpt lat="59.8951526" lon="17.7051728">
        <ele>29.4575</ele>
        <time>2013-03-10T14:40:40Z</time>
      </trkpt>
      <trkpt lat="59.8951431" lon="17.7051601">
        <ele>29.9381</ele>
        <time>2013-03-10T14:40:41Z</time>
      </trkpt>
      <trkpt lat="59.8951333" lon="17.7051447">
        <ele>29.9381</ele>
        <time>2013-03-10T14:40:42Z</time>
      </trkpt>
      <trkpt lat="59.8951241" lon="17.7051284">
        <ele>29.4575</ele>
        <time>2013-03-10T14:40:43Z</time>
      </trkpt>
      <trkpt lat="59.8951143" lon="17.7051142">
        <ele>29.9381</ele>
        <time>2013-03-10T14:40:44Z</time>
      </trkpt>
      <trkpt lat="59.8951048" lon="17.7050979">
        <ele>29.9381</ele>
        <time>2013-03-10T14:40:45Z</time>
      </trkpt>
      <trkpt lat="59.8950952" lon="17.7050801">
        <ele>29.9381</ele>
        <time>2013-03-10T14:40:46Z</time>
      </trkpt>
      <trkpt lat="59.8950849" lon="17.7050627">
        <ele>29.9381</ele>
        <time>2013-03-10T14:40:47Z</time>
      </trkpt>
      <trkpt lat="59.8950752" lon="17.7050444">
        <ele>29.9381</ele>
        <time>2013-03-10T14:40:48Z</time>
      </trkpt>
      <trkpt lat="59.8950656" lon="17.7050258">
        <ele>29.9381</ele>
        <time>2013-03-10T14:40:49Z</time>
      </trkpt>
      <trkpt lat="59.8950559" lon="17.7050078">
        <ele>29.9381</ele>
        <time>2013-03-10T14:40:50Z</time>
      </trkpt>
      <trkpt lat="59.8950462" lon="17.70499">
        <ele>29.9381</ele>
        <time>2013-03-10T14:40:51Z</time>
      </trkpt>
      <trkpt lat="59.8950365" lon="17.7049724">
        <ele>29.9381</ele>
        <time>2013-03-10T14:40:52Z</time>
      </trkpt>
      <trkpt lat="59.8950263" lon="17.7049557">
        <ele>29.9381</ele>
        <time>2013-03-10T14:40:53Z</time>
      </trkpt>
      <trkpt lat="59.8950157" lon="17.7049397">
        <ele>29.9381</ele>
        <time>2013-03-10T14:40:54Z</time>
      </trkpt>
      <trkpt lat="59.8950048" lon="17.7049247">
        <ele>29.9381</ele>
        <time>2013-03-10T14:40:55Z</time>
      </trkpt>
      <trkpt lat="59.8949939" lon="17.7049092">
        <ele>29.4575</ele>
        <time>2013-03-10T14:40:56Z</time>
      </trkpt>
      <trkpt lat="59.8949842" lon="17.7048928">
        <ele>29.4575</ele>
        <time>2013-03-10T14:40:57Z</time>
      </trkpt>
      <trkpt lat="59.8949727" lon="17.7048806">
        <ele>29.9381</ele>
        <time>2013-03-10T14:40:58Z</time>
      </trkpt>
      <trkpt lat="59.8949621" lon="17.704866">
        <ele>29.9381</ele>
        <time>2013-03-10T14:40:59Z</time>
      </trkpt>
      <trkpt lat="59.8949515" lon="17.7048529">
        <ele>29.9381</ele>
        <time>2013-03-10T14:41:00Z</time>
      </trkpt>
      <trkpt lat="59.8949402" lon="17.7048403">
        <ele>29.9381</ele>
        <time>2013-03-10T14:41:01Z</time>
      </trkpt>
      <trkpt lat="59.894931" lon="17.7048258">
        <ele>29.9381</ele>
        <time>2013-03-10T14:41:02Z</time>
      </trkpt>
      <trkpt lat="59.8949211" lon="17.7048127">
        <ele>29.9381</ele>
        <time>2013-03-10T14:41:03Z</time>
      </trkpt>
      <trkpt lat="59.8949095" lon="17.7047998">
        <ele>29.9381</ele>
        <time>2013-03-10T14:41:04Z</time>
      </trkpt>
      <trkpt lat="59.8948993" lon="17.7047837">
        <ele>29.9381</ele>
        <time>2013-03-10T14:41:05Z</time>
      </trkpt>
      <trkpt lat="59.8948896" lon="17.7047683">
        <ele>29.9381</ele>
        <time>2013-03-10T14:41:06Z</time>
      </trkpt>
      <trkpt lat="59.8948791" lon="17.7047538">
        <ele>29.9381</ele>
        <time>2013-03-10T14:41:07Z</time>
      </trkpt>
      <trkpt lat="59.8948681" lon="17.7047391">
        <ele>29.4575</ele>
        <time>2013-03-10T14:41:08Z</time>
      </trkpt>
      <trkpt lat="59.8948568" lon="17.7047269">
        <ele>29.9381</ele>
        <time>2013-03-10T14:41:09Z</time>
      </trkpt>
      <trkpt lat="59.8948453" lon="17.7047139">
        <ele>29.9381</ele>
        <time>2013-03-10T14:41:10Z</time>
      </trkpt>
      <trkpt lat="59.8948336" lon="17.7047004">
        <ele>29.9381</ele>
        <time>2013-03-10T14:41:11Z</time>
      </trkpt>
      <trkpt lat="59.8948232" lon="17.7046855">
        <ele>29.9381</ele>
        <time>2013-03-10T14:41:12Z</time>
      </trkpt>
      <trkpt lat="59.8948124" lon="17.7046705">
        <ele>29.9381</ele>
        <time>2013-03-10T14:41:13Z</time>
      </trkpt>
      <trkpt lat="59.8947993" lon="17.7046549">
        <ele>29.9381</ele>
        <time>2013-03-10T14:41:14Z</time>
      </trkpt>
      <trkpt lat="59.8947855" lon="17.7046378">
        <ele>29.9381</ele>
        <time>2013-03-10T14:41:15Z</time>
      </trkpt>
      <trkpt lat="59.8947727" lon="17.7046155">
        <ele>30.4188</ele>
        <time>2013-03-10T14:41:16Z</time>
      </trkpt>
      <trkpt lat="59.8947615" lon="17.7045948">
        <ele>29.9381</ele>
        <time>2013-03-10T14:41:17Z</time>
      </trkpt>
      <trkpt lat="59.8947522" lon="17.7045786">
        <ele>29.9381</ele>
        <time>2013-03-10T14:41:18Z</time>
      </trkpt>
      <trkpt lat="59.8947422" lon="17.7045684">
        <ele>29.9381</ele>
        <time>2013-03-10T14:41:19Z</time>
      </trkpt>
      <trkpt lat="59.894731" lon="17.7045563">
        <ele>29.9381</ele>
        <time>2013-03-10T14:41:20Z</time>
      </trkpt>
      <trkpt lat="59.8947196" lon="17.7045383">
        <ele>29.9381</ele>
        <time>2013-03-10T14:41:21Z</time>
      </trkpt>
      <trkpt lat="59.8947075" lon="17.7045238">
        <ele>29.9381</ele>
        <time>2013-03-10T14:41:22Z</time>
      </trkpt>
      <trkpt lat="59.894696" lon="17.7045069">
        <ele>29.4575</ele>
        <time>2013-03-10T14:41:23Z</time>
      </trkpt>
      <trkpt lat="59.8946855" lon="17.7044896">
        <ele>29.4575</ele>
        <time>2013-03-10T14:41:24Z</time>
      </trkpt>
      <trkpt lat="59.8946751" lon="17.7044729">
        <ele>29.4575</ele>
        <time>2013-03-10T14:41:25Z</time>
      </trkpt>
      <trkpt lat="59.8946637" lon="17.7044566">
        <ele>29.4575</ele>
        <time>2013-03-10T14:41:26Z</time>
      </trkpt>
      <trkpt lat="59.8946522" lon="17.7044413">
        <ele>29.4575</ele>
        <time>2013-03-10T14:41:27Z</time>
      </trkpt>
      <trkpt lat="59.8946403" lon="17.7044259">
        <ele>29.4575</ele>
        <time>2013-03-10T14:41:28Z</time>
      </trkpt>
      <trkpt lat="59.8946287" lon="17.7044098">
        <ele>29.4575</ele>
        <time>2013-03-10T14:41:29Z</time>
      </trkpt>
      <trkpt lat="59.8946173" lon="17.7043943">
        <ele>29.4575</ele>
        <time>2013-03-10T14:41:30Z</time>
      </trkpt>
      <trkpt lat="59.8946061" lon="17.7043797">
        <ele>29.9381</ele>
        <time>2013-03-10T14:41:31Z</time>
      </trkpt>
      <trkpt lat="59.8945951" lon="17.7043647">
        <ele>29.9381</ele>
        <time>2013-03-10T14:41:32Z</time>
      </trkpt>
      <trkpt lat="59.8945833" lon="17.7043508">
        <ele>29.9381</ele>
        <time>2013-03-10T14:41:33Z</time>
      </trkpt>
      <trkpt lat="59.8945714" lon="17.7043374">
        <ele>29.9381</ele>
        <time>2013-03-10T14:41:34Z</time>
      </trkpt>
      <trkpt lat="59.8945591" lon="17.7043242">
        <ele>30.4188</ele>
        <time>2013-03-10T14:41:35Z</time>
      </trkpt>
      <trkpt lat="59.8945475" lon="17.70431">
        <ele>30.4188</ele>
        <time>2013-03-10T14:41:36Z</time>
      </trkpt>
      <trkpt lat="59.8945357" lon="17.7042962">
        <ele>30.4188</ele>
        <time>2013-03-10T14:41:37Z</time>
      </trkpt>
      <trkpt lat="59.8945253" lon="17.7042814">
        <ele>30.4188</ele>
        <time>2013-03-10T14:41:38Z</time>
      </trkpt>
      <trkpt lat="59.8945155" lon="17.7042657">
        <ele>30.4188</ele>
        <time>2013-03-10T14:41:39Z</time>
      </trkpt>
      <trkpt lat="59.8945059" lon="17.7042529">
        <ele>30.4188</ele>
        <time>2013-03-10T14:41:40Z</time>
      </trkpt>
      <trkpt lat="59.8944947" lon="17.7042384">
        <ele>30.4188</ele>
        <time>2013-03-10T14:41:41Z</time>
      </trkpt>
      <trkpt lat="59.8944824" lon="17.7042227">
        <ele>30.4188</ele>
        <time>2013-03-10T14:41:42Z</time>
      </trkpt>
      <trkpt lat="59.8944709" lon="17.7042073">
        <ele>30.4188</ele>
        <time>2013-03-10T14:41:43Z</time>
      </trkpt>
      <trkpt lat="59.8944596" lon="17.7041903">
        <ele>30.4188</ele>
        <time>2013-03-10T14:41:44Z</time>
      </trkpt>
      <trkpt lat="59.8944487" lon="17.7041721">
        <ele>30.4188</ele>
        <time>2013-03-10T14:41:45Z</time>
      </trkpt>
      <trkpt lat="59.8944391" lon="17.7041587">
        <ele>30.4188</ele>
        <time>2013-03-10T14:41:46Z</time>
      </trkpt>
      <trkpt lat="59.894428" lon="17.7041479">
        <ele>30.4188</ele>
        <time>2013-03-10T14:41:47Z</time>
      </trkpt>
      <trkpt lat="59.8944139" lon="17.7041379">
        <ele>30.8995</ele>
        <time>2013-03-10T14:41:48Z</time>
      </trkpt>
      <trkpt lat="59.8944016" lon="17.7041255">
        <ele>30.8995</ele>
        <time>2013-03-10T14:41:49Z</time>
      </trkpt>
      <trkpt lat="59.8943906" lon="17.7041149">
        <ele>31.3801</ele>
        <time>2013-03-10T14:41:50Z</time>
      </trkpt>
      <trkpt lat="59.8943799" lon="17.7041022">
        <ele>31.3801</ele>
        <time>2013-03-10T14:41:51Z</time>
      </trkpt>
      <trkpt lat="59.8943699" lon="17.7040877">
        <ele>31.3801</ele>
        <time>2013-03-10T14:41:52Z</time>
      </trkpt>
      <trkpt lat="59.8943597" lon="17.7040737">
        <ele>31.3801</ele>
        <time>2013-03-10T14:41:53Z</time>
      </trkpt>
      <trkpt lat="59.8943497" lon="17.7040603">
        <ele>31.3801</ele>
        <time>2013-03-10T14:41:54Z</time>
      </trkpt>
      <trkpt lat="59.8943404" lon="17.7040447">
        <ele>31.3801</ele>
        <time>2013-03-10T14:41:55Z</time>
      </trkpt>
      <trkpt lat="59.8943311" lon="17.7040302">
        <ele>31.3801</ele>
        <time>2013-03-10T14:41:56Z</time>
      </trkpt>
      <trkpt lat="59.894321" lon="17.7040142">
        <ele>31.3801</ele>
        <time>2013-03-10T14:41:57Z</time>
      </trkpt>
      <trkpt lat="59.8943103" lon="17.7040001">
        <ele>31.3801</ele>
        <time>2013-03-10T14:41:58Z</time>
      </trkpt>
      <trkpt lat="59.8943005" lon="17.7039842">
        <ele>31.3801</ele>
        <time>2013-03-10T14:41:59Z</time>
      </trkpt>
      <trkpt lat="59.8942904" lon="17.7039691">
        <ele>31.3801</ele>
        <time>2013-03-10T14:42:00Z</time>
      </trkpt>
      <trkpt lat="59.8942804" lon="17.7039536">
        <ele>31.3801</ele>
        <time>2013-03-10T14:42:01Z</time>
      </trkpt>
      <trkpt lat="59.8942705" lon="17.7039349">
        <ele>30.8995</ele>
        <time>2013-03-10T14:42:02Z</time>
      </trkpt>
      <trkpt lat="59.8942606" lon="17.7039171">
        <ele>30.8995</ele>
        <time>2013-03-10T14:42:03Z</time>
      </trkpt>
      <trkpt lat="59.8942503" lon="17.703902">
        <ele>30.8995</ele>
        <time>2013-03-10T14:42:04Z</time>
      </trkpt>
      <trkpt lat="59.8942398" lon="17.7038863">
        <ele>30.8995</ele>
        <time>2013-03-10T14:42:05Z</time>
      </trkpt>
      <trkpt lat="59.8942295" lon="17.703872">
        <ele>30.8995</ele>
        <time>2013-03-10T14:42:06Z</time>
      </trkpt>
      <trkpt lat="59.8942192" lon="17.7038576">
        <ele>30.8995</ele>
        <time>2013-03-10T14:42:07Z</time>
      </trkpt>
      <trkpt lat="59.8942079" lon="17.7038406">
        <ele>30.8995</ele>
        <time>2013-03-10T14:42:08Z</time>
      </trkpt>
      <trkpt lat="59.8941964" lon="17.7038271">
        <ele>31.3801</ele>
        <time>2013-03-10T14:42:09Z</time>
      </trkpt>
      <trkpt lat="59.8941854" lon="17.7038174">
        <ele>31.3801</ele>
        <time>2013-03-10T14:42:10Z</time>
      </trkpt>
      <trkpt lat="59.8941751" lon="17.7038053">
        <ele>31.3801</ele>
        <time>2013-03-10T14:42:11Z</time>
      </trkpt>
      <trkpt lat="59.8941649" lon="17.7037902">
        <ele>31.3801</ele>
        <time>2013-03-10T14:42:12Z</time>
      </trkpt>
      <trkpt lat="59.894154" lon="17.7037748">
        <ele>31.3801</ele>
        <time>2013-03-10T14:42:13Z</time>
      </trkpt>
      <trkpt lat="59.894143" lon="17.7037608">
        <ele>31.3801</ele>
        <time>2013-03-10T14:42:14Z</time>
      </trkpt>
      <trkpt lat="59.8941311" lon="17.7037494">
        <ele>31.3801</ele>
        <time>2013-03-10T14:42:15Z</time>
      </trkpt>
      <trkpt lat="59.8941197" lon="17.7037375">
        <ele>31.3801</ele>
        <time>2013-03-10T14:42:16Z</time>
      </trkpt>
      <trkpt lat="59.8941103" lon="17.7037202">
        <ele>31.3801</ele>
        <time>2013-03-10T14:42:17Z</time>
      </trkpt>
      <trkpt lat="59.8941" lon="17.7037039">
        <ele>31.3801</ele>
        <time>2013-03-10T14:42:18Z</time>
      </trkpt>
      <trkpt lat="59.8940893" lon="17.7036879">
        <ele>30.8995</ele>
        <time>2013-03-10T14:42:19Z</time>
      </trkpt>
      <trkpt lat="59.8940786" lon="17.7036743">
        <ele>31.3801</ele>
        <time>2013-03-10T14:42:20Z</time>
      </trkpt>
      <trkpt lat="59.894068" lon="17.7036581">
        <ele>31.3801</ele>
        <time>2013-03-10T14:42:21Z</time>
      </trkpt>
      <trkpt lat="59.8940591" lon="17.7036382">
        <ele>31.3801</ele>
        <time>2013-03-10T14:42:22Z</time>
      </trkpt>
      <trkpt lat="59.8940487" lon="17.7036228">
        <ele>31.3801</ele>
        <time>2013-03-10T14:42:23Z</time>
      </trkpt>
      <trkpt lat="59.8940373" lon="17.7036096">
        <ele>31.8607</ele>
        <time>2013-03-10T14:42:24Z</time>
      </trkpt>
      <trkpt lat="59.8940266" lon="17.703595">
        <ele>31.8607</ele>
        <time>2013-03-10T14:42:25Z</time>
      </trkpt>
      <trkpt lat="59.8940159" lon="17.7035783">
        <ele>31.8607</ele>
        <time>2013-03-10T14:42:26Z</time>
      </trkpt>
      <trkpt lat="59.8940055" lon="17.7035612">
        <ele>31.8607</ele>
        <time>2013-03-10T14:42:27Z</time>
      </trkpt>
      <trkpt lat="59.8939944" lon="17.7035443">
        <ele>31.8607</ele>
        <time>2013-03-10T14:42:28Z</time>
      </trkpt>
      <trkpt lat="59.8939833" lon="17.7035282">
        <ele>31.8607</ele>
        <time>2013-03-10T14:42:29Z</time>
      </trkpt>
      <trkpt lat="59.893972" lon="17.7035125">
        <ele>31.8607</ele>
        <time>2013-03-10T14:42:30Z</time>
      </trkpt>
      <trkpt lat="59.8939611" lon="17.7034928">
        <ele>31.8607</ele>
        <time>2013-03-10T14:42:31Z</time>
      </trkpt>
      <trkpt lat="59.8939501" lon="17.7034733">
        <ele>31.8607</ele>
        <time>2013-03-10T14:42:32Z</time>
      </trkpt>
      <trkpt lat="59.8939395" lon="17.7034577">
        <ele>31.8607</ele>
        <time>2013-03-10T14:42:33Z</time>
      </trkpt>
      <trkpt lat="59.8939301" lon="17.7034391">
        <ele>31.8607</ele>
        <time>2013-03-10T14:42:34Z</time>
      </trkpt>
      <trkpt lat="59.8939202" lon="17.70342">
        <ele>31.3801</ele>
        <time>2013-03-10T14:42:35Z</time>
      </trkpt>
      <trkpt lat="59.89391" lon="17.7033987">
        <ele>31.3801</ele>
        <time>2013-03-10T14:42:36Z</time>
      </trkpt>
      <trkpt lat="59.8938993" lon="17.7033799">
        <ele>31.3801</ele>
        <time>2013-03-10T14:42:37Z</time>
      </trkpt>
      <trkpt lat="59.893887" lon="17.7033682">
        <ele>31.3801</ele>
        <time>2013-03-10T14:42:38Z</time>
      </trkpt>
      <trkpt lat="59.8938756" lon="17.7033551">
        <ele>30.8995</ele>
        <time>2013-03-10T14:42:39Z</time>
      </trkpt>
      <trkpt lat="59.8938646" lon="17.7033397">
        <ele>30.8995</ele>
        <time>2013-03-10T14:42:40Z</time>
      </trkpt>
      <trkpt lat="59.8938529" lon="17.7033257">
        <ele>31.3801</ele>
        <time>2013-03-10T14:42:41Z</time>
      </trkpt>
      <trkpt lat="59.8938414" lon="17.7033118">
        <ele>30.8995</ele>
        <time>2013-03-10T14:42:42Z</time>
      </trkpt>
      <trkpt lat="59.8938325" lon="17.7033011">
        <ele>31.3801</ele>
        <time>2013-03-10T14:42:43Z</time>
      </trkpt>
      <trkpt lat="59.8938202" lon="17.7032902">
        <ele>31.3801</ele>
        <time>2013-03-10T14:42:44Z</time>
      </trkpt>
      <trkpt lat="59.8938033" lon="17.7032683">
        <ele>31.3801</ele>
        <time>2013-03-10T14:42:45Z</time>
      </trkpt>
      <trkpt lat="59.8937902" lon="17.7032502">
        <ele>31.3801</ele>
        <time>2013-03-10T14:42:46Z</time>
      </trkpt>
      <trkpt lat="59.8937781" lon="17.7032392">
        <ele>31.3801</ele>
        <time>2013-03-10T14:42:47Z</time>
      </trkpt>
      <trkpt lat="59.8937654" lon="17.7032277">
        <ele>31.8607</ele>
        <time>2013-03-10T14:42:48Z</time>
      </trkpt>
      <trkpt lat="59.8937529" lon="17.7032167">
        <ele>31.8607</ele>
        <time>2013-03-10T14:42:49Z</time>
      </trkpt>
      <trkpt lat="59.8937405" lon="17.703204">
        <ele>31.3801</ele>
        <time>2013-03-10T14:42:50Z</time>
      </trkpt>
      <trkpt lat="59.8937284" lon="17.7031888">
        <ele>31.3801</ele>
        <time>2013-03-10T14:42:51Z</time>
      </trkpt>
      <trkpt lat="59.8937172" lon="17.7031735">
        <ele>31.3801</ele>
        <time>2013-03-10T14:42:52Z</time>
      </trkpt>
      <trkpt lat="59.8937069" lon="17.7031558">
        <ele>30.8995</ele>
        <time>2013-03-10T14:42:53Z</time>
      </trkpt>
      <trkpt lat="59.8936954" lon="17.7031388">
        <ele>30.8995</ele>
        <time>2013-03-10T14:42:54Z</time>
      </trkpt>
      <trkpt lat="59.8936826" lon="17.7031247">
        <ele>30.8995</ele>
        <time>2013-03-10T14:42:55Z</time>
      </trkpt>
      <trkpt lat="59.8936711" lon="17.7031071">
        <ele>30.8995</ele>
        <time>2013-03-10T14:42:56Z</time>
      </trkpt>
      <trkpt lat="59.8936595" lon="17.7030905">
        <ele>30.4188</ele>
        <time>2013-03-10T14:42:57Z</time>
      </trkpt>
      <trkpt lat="59.8936482" lon="17.7030774">
        <ele>30.4188</ele>
        <time>2013-03-10T14:42:58Z</time>
      </trkpt>
      <trkpt lat="59.8936359" lon="17.7030651">
        <ele>29.9381</ele>
        <time>2013-03-10T14:42:59Z</time>
      </trkpt>
      <trkpt lat="59.8936241" lon="17.7030527">
        <ele>29.9381</ele>
        <time>2013-03-10T14:43:00Z</time>
      </trkpt>
      <trkpt lat="59.8936135" lon="17.7030398">
        <ele>29.9381</ele>
        <time>2013-03-10T14:43:01Z</time>
      </trkpt>
      <trkpt lat="59.8936031" lon="17.7030252">
        <ele>29.9381</ele>
        <time>2013-03-10T14:43:02Z</time>
      </trkpt>
      <trkpt lat="59.8935916" lon="17.7030133">
        <ele>30.4188</ele>
        <time>2013-03-10T14:43:03Z</time>
      </trkpt>
      <trkpt lat="59.893581" lon="17.7029993">
        <ele>30.4188</ele>
        <time>2013-03-10T14:43:04Z</time>
      </trkpt>
      <trkpt lat="59.8935706" lon="17.7029864">
        <ele>30.4188</ele>
        <time>2013-03-10T14:43:05Z</time>
      </trkpt>
      <trkpt lat="59.8935603" lon="17.7029734">
        <ele>29.9381</ele>
        <time>2013-03-10T14:43:06Z</time>
      </trkpt>
      <trkpt lat="59.8935504" lon="17.7029588">
        <ele>29.9381</ele>
        <time>2013-03-10T14:43:07Z</time>
      </trkpt>
      <trkpt lat="59.8935405" lon="17.7029435">
        <ele>29.9381</ele>
        <time>2013-03-10T14:43:08Z</time>
      </trkpt>
      <trkpt lat="59.8935295" lon="17.7029303">
        <ele>29.9381</ele>
        <time>2013-03-10T14:43:09Z</time>
      </trkpt>
      <trkpt lat="59.8935178" lon="17.7029186">
        <ele>29.9381</ele>
        <time>2013-03-10T14:43:10Z</time>
      </trkpt>
      <trkpt lat="59.8935048" lon="17.702905">
        <ele>29.9381</ele>
        <time>2013-03-10T14:43:11Z</time>
      </trkpt>
      <trkpt lat="59.8934898" lon="17.7028921">
        <ele>29.9381</ele>
        <time>2013-03-10T14:43:12Z</time>
      </trkpt>
      <trkpt lat="59.8934763" lon="17.7028771">
        <ele>29.9381</ele>
        <time>2013-03-10T14:43:13Z</time>
      </trkpt>
      <trkpt lat="59.8934656" lon="17.7028619">
        <ele>29.9381</ele>
        <time>2013-03-10T14:43:14Z</time>
      </trkpt>
      <trkpt lat="59.8934547" lon="17.7028481">
        <ele>30.4188</ele>
        <time>2013-03-10T14:43:15Z</time>
      </trkpt>
      <trkpt lat="59.8934442" lon="17.702836">
        <ele>30.4188</ele>
        <time>2013-03-10T14:43:16Z</time>
      </trkpt>
      <trkpt lat="59.8934339" lon="17.7028257">
        <ele>30.4188</ele>
        <time>2013-03-10T14:43:17Z</time>
      </trkpt>
      <trkpt lat="59.8934233" lon="17.7028147">
        <ele>30.4188</ele>
        <time>2013-03-10T14:43:18Z</time>
      </trkpt>
      <trkpt lat="59.8934137" lon="17.7028025">
        <ele>30.4188</ele>
        <time>2013-03-10T14:43:19Z</time>
      </trkpt>
      <trkpt lat="59.8934037" lon="17.7027896">
        <ele>30.4188</ele>
        <time>2013-03-10T14:43:20Z</time>
      </trkpt>
      <trkpt lat="59.8933935" lon="17.7027774">
        <ele>30.4188</ele>
        <time>2013-03-10T14:43:21Z</time>
      </trkpt>
      <trkpt lat="59.8933836" lon="17.7027642">
        <ele>30.4188</ele>
        <time>2013-03-10T14:43:22Z</time>
      </trkpt>
      <trkpt lat="59.8933741" lon="17.7027497">
        <ele>30.4188</ele>
        <time>2013-03-10T14:43:23Z</time>
      </trkpt>
      <trkpt lat="59.8933644" lon="17.7027351">
        <ele>30.4188</ele>
        <time>2013-03-10T14:43:24Z</time>
      </trkpt>
      <trkpt lat="59.8933541" lon="17.7027199">
        <ele>30.4188</ele>
        <time>2013-03-10T14:43:25Z</time>
      </trkpt>
      <trkpt lat="59.8933435" lon="17.702705">
        <ele>30.8995</ele>
        <time>2013-03-10T14:43:26Z</time>
      </trkpt>
      <trkpt lat="59.893333" lon="17.7026919">
        <ele>30.8995</ele>
        <time>2013-03-10T14:43:27Z</time>
      </trkpt>
      <trkpt lat="59.8933223" lon="17.7026767">
        <ele>30.8995</ele>
        <time>2013-03-10T14:43:28Z</time>
      </trkpt>
      <trkpt lat="59.8933112" lon="17.7026619">
        <ele>30.8995</ele>
        <time>2013-03-10T14:43:29Z</time>
      </trkpt>
      <trkpt lat="59.8933005" lon="17.7026476">
        <ele>30.8995</ele>
        <time>2013-03-10T14:43:30Z</time>
      </trkpt>
      <trkpt lat="59.8932894" lon="17.7026347">
        <ele>30.8995</ele>
        <time>2013-03-10T14:43:31Z</time>
      </trkpt>
      <trkpt lat="59.8932786" lon="17.7026172">
        <ele>30.8995</ele>
        <time>2013-03-10T14:43:32Z</time>
      </trkpt>
      <trkpt lat="59.8932686" lon="17.7026004">
        <ele>30.8995</ele>
        <time>2013-03-10T14:43:33Z</time>
      </trkpt>
      <trkpt lat="59.8932588" lon="17.702586">
        <ele>30.8995</ele>
        <time>2013-03-10T14:43:34Z</time>
      </trkpt>
      <trkpt lat="59.8932484" lon="17.7025715">
        <ele>30.8995</ele>
        <time>2013-03-10T14:43:35Z</time>
      </trkpt>
      <trkpt lat="59.8932385" lon="17.7025559">
        <ele>30.8995</ele>
        <time>2013-03-10T14:43:36Z</time>
      </trkpt>
      <trkpt lat="59.8932282" lon="17.7025418">
        <ele>30.8995</ele>
        <time>2013-03-10T14:43:37Z</time>
      </trkpt>
      <trkpt lat="59.8932179" lon="17.7025283">
        <ele>30.8995</ele>
        <time>2013-03-10T14:43:38Z</time>
      </trkpt>
      <trkpt lat="59.893208" lon="17.702516">
        <ele>30.8995</ele>
        <time>2013-03-10T14:43:39Z</time>
      </trkpt>
      <trkpt lat="59.8931986" lon="17.7025035">
        <ele>30.8995</ele>
        <time>2013-03-10T14:43:40Z</time>
      </trkpt>
      <trkpt lat="59.8931895" lon="17.7024889">
        <ele>30.8995</ele>
        <time>2013-03-10T14:43:41Z</time>
      </trkpt>
      <trkpt lat="59.8931775" lon="17.7024744">
        <ele>30.8995</ele>
        <time>2013-03-10T14:43:42Z</time>
      </trkpt>
      <trkpt lat="59.893164" lon="17.7024609">
        <ele>30.8995</ele>
        <time>2013-03-10T14:43:43Z</time>
      </trkpt>
      <trkpt lat="59.8931535" lon="17.7024472">
        <ele>30.8995</ele>
        <time>2013-03-10T14:43:44Z</time>
      </trkpt>
      <trkpt lat="59.8931431" lon="17.7024337">
        <ele>31.3801</ele>
        <time>2013-03-10T14:43:45Z</time>
      </trkpt>
      <trkpt lat="59.8931311" lon="17.702419">
        <ele>30.8995</ele>
        <time>2013-03-10T14:43:46Z</time>
      </trkpt>
      <trkpt lat="59.8931199" lon="17.7024031">
        <ele>30.8995</ele>
        <time>2013-03-10T14:43:47Z</time>
      </trkpt>
      <trkpt lat="59.8931083" lon="17.7023877">
        <ele>30.8995</ele>
        <time>2013-03-10T14:43:48Z</time>
      </trkpt>
      <trkpt lat="59.8930966" lon="17.7023721">
        <ele>30.8995</ele>
        <time>2013-03-10T14:43:49Z</time>
      </trkpt>
      <trkpt lat="59.8930853" lon="17.7023575">
        <ele>30.8995</ele>
        <time>2013-03-10T14:43:50Z</time>
      </trkpt>
      <trkpt lat="59.8930748" lon="17.7023423">
        <ele>30.8995</ele>
        <time>2013-03-10T14:43:51Z</time>
      </trkpt>
      <trkpt lat="59.8930654" lon="17.7023264">
        <ele>30.8995</ele>
        <time>2013-03-10T14:43:52Z</time>
      </trkpt>
      <trkpt lat="59.8930555" lon="17.7023117">
        <ele>30.8995</ele>
        <time>2013-03-10T14:43:53Z</time>
      </trkpt>
      <trkpt lat="59.8930448" lon="17.7022985">
        <ele>30.8995</ele>
        <time>2013-03-10T14:43:54Z</time>
      </trkpt>
      <trkpt lat="59.8930334" lon="17.7022861">
        <ele>30.8995</ele>
        <time>2013-03-10T14:43:55Z</time>
      </trkpt>
      <trkpt lat="59.8930221" lon="17.7022724">
        <ele>30.8995</ele>
        <time>2013-03-10T14:43:56Z</time>
      </trkpt>
      <trkpt lat="59.8930117" lon="17.7022577">
        <ele>30.8995</ele>
        <time>2013-03-10T14:43:57Z</time>
      </trkpt>
      <trkpt lat="59.8930019" lon="17.7022451">
        <ele>30.8995</ele>
        <time>2013-03-10T14:43:58Z</time>
      </trkpt>
      <trkpt lat="59.8929925" lon="17.7022326">
        <ele>30.8995</ele>
        <time>2013-03-10T14:43:59Z</time>
      </trkpt>
      <trkpt lat="59.8929831" lon="17.7022187">
        <ele>30.8995</ele>
        <time>2013-03-10T14:44:00Z</time>
      </trkpt>
      <trkpt lat="59.8929735" lon="17.7022043">
        <ele>30.8995</ele>
        <time>2013-03-10T14:44:01Z</time>
      </trkpt>
      <trkpt lat="59.8929635" lon="17.7021902">
        <ele>30.8995</ele>
        <time>2013-03-10T14:44:02Z</time>
      </trkpt>
      <trkpt lat="59.8929531" lon="17.7021757">
        <ele>30.8995</ele>
        <time>2013-03-10T14:44:03Z</time>
      </trkpt>
      <trkpt lat="59.8929422" lon="17.7021603">
        <ele>30.8995</ele>
        <time>2013-03-10T14:44:04Z</time>
      </trkpt>
      <trkpt lat="59.8929313" lon="17.7021449">
        <ele>30.8995</ele>
        <time>2013-03-10T14:44:05Z</time>
      </trkpt>
      <trkpt lat="59.8929205" lon="17.7021296">
        <ele>30.8995</ele>
        <time>2013-03-10T14:44:06Z</time>
      </trkpt>
      <trkpt lat="59.8929099" lon="17.7021134">
        <ele>30.8995</ele>
        <time>2013-03-10T14:44:07Z</time>
      </trkpt>
      <trkpt lat="59.8928991" lon="17.7020981">
        <ele>30.8995</ele>
        <time>2013-03-10T14:44:08Z</time>
      </trkpt>
      <trkpt lat="59.8928875" lon="17.702084">
        <ele>30.8995</ele>
        <time>2013-03-10T14:44:09Z</time>
      </trkpt>
      <trkpt lat="59.8928756" lon="17.7020704">
        <ele>30.8995</ele>
        <time>2013-03-10T14:44:10Z</time>
      </trkpt>
      <trkpt lat="59.892864" lon="17.7020566">
        <ele>30.8995</ele>
        <time>2013-03-10T14:44:11Z</time>
      </trkpt>
      <trkpt lat="59.8928526" lon="17.7020411">
        <ele>30.8995</ele>
        <time>2013-03-10T14:44:12Z</time>
      </trkpt>
      <trkpt lat="59.8928417" lon="17.7020265">
        <ele>30.8995</ele>
        <time>2013-03-10T14:44:13Z</time>
      </trkpt>
      <trkpt lat="59.892831" lon="17.7020126">
        <ele>30.8995</ele>
        <time>2013-03-10T14:44:14Z</time>
      </trkpt>
      <trkpt lat="59.8928201" lon="17.7020001">
        <ele>30.8995</ele>
        <time>2013-03-10T14:44:15Z</time>
      </trkpt>
      <trkpt lat="59.892809" lon="17.7019892">
        <ele>30.8995</ele>
        <time>2013-03-10T14:44:16Z</time>
      </trkpt>
      <trkpt lat="59.8927975" lon="17.7019781">
        <ele>30.8995</ele>
        <time>2013-03-10T14:44:17Z</time>
      </trkpt>
      <trkpt lat="59.8927853" lon="17.7019676">
        <ele>30.8995</ele>
        <time>2013-03-10T14:44:18Z</time>
      </trkpt>
      <trkpt lat="59.8927729" lon="17.7019572">
        <ele>30.8995</ele>
        <time>2013-03-10T14:44:19Z</time>
      </trkpt>
      <trkpt lat="59.892761" lon="17.7019458">
        <ele>30.8995</ele>
        <time>2013-03-10T14:44:20Z</time>
      </trkpt>
      <trkpt lat="59.8927486" lon="17.7019343">
        <ele>30.8995</ele>
        <time>2013-03-10T14:44:21Z</time>
      </trkpt>
      <trkpt lat="59.8927366" lon="17.7019241">
        <ele>30.8995</ele>
        <time>2013-03-10T14:44:22Z</time>
      </trkpt>
      <trkpt lat="59.8927246" lon="17.7019144">
        <ele>30.8995</ele>
        <time>2013-03-10T14:44:23Z</time>
      </trkpt>
      <trkpt lat="59.8927123" lon="17.7019028">
        <ele>30.8995</ele>
        <time>2013-03-10T14:44:24Z</time>
      </trkpt>
      <trkpt lat="59.8926993" lon="17.7018903">
        <ele>30.8995</ele>
        <time>2013-03-10T14:44:25Z</time>
      </trkpt>
      <trkpt lat="59.8926872" lon="17.7018784">
        <ele>30.8995</ele>
        <time>2013-03-10T14:44:26Z</time>
      </trkpt>
      <trkpt lat="59.892676" lon="17.7018671">
        <ele>30.8995</ele>
        <time>2013-03-10T14:44:27Z</time>
      </trkpt>
      <trkpt lat="59.8926656" lon="17.701853">
        <ele>30.8995</ele>
        <time>2013-03-10T14:44:28Z</time>
      </trkpt>
      <trkpt lat="59.8926548" lon="17.7018391">
        <ele>30.8995</ele>
        <time>2013-03-10T14:44:29Z</time>
      </trkpt>
      <trkpt lat="59.8926435" lon="17.701825">
        <ele>30.8995</ele>
        <time>2013-03-10T14:44:30Z</time>
      </trkpt>
      <trkpt lat="59.8926319" lon="17.7018091">
        <ele>30.8995</ele>
        <time>2013-03-10T14:44:31Z</time>
      </trkpt>
      <trkpt lat="59.8926206" lon="17.7017929">
        <ele>30.8995</ele>
        <time>2013-03-10T14:44:32Z</time>
      </trkpt>
      <trkpt lat="59.8926102" lon="17.7017763">
        <ele>30.8995</ele>
        <time>2013-03-10T14:44:33Z</time>
      </trkpt>
      <trkpt lat="59.8926003" lon="17.7017603">
        <ele>30.8995</ele>
        <time>2013-03-10T14:44:34Z</time>
      </trkpt>
      <trkpt lat="59.8925905" lon="17.701744">
        <ele>30.8995</ele>
        <time>2013-03-10T14:44:35Z</time>
      </trkpt>
      <trkpt lat="59.8925807" lon="17.7017271">
        <ele>30.8995</ele>
        <time>2013-03-10T14:44:36Z</time>
      </trkpt>
      <trkpt lat="59.8925704" lon="17.7017114">
        <ele>30.8995</ele>
        <time>2013-03-10T14:44:37Z</time>
      </trkpt>
      <trkpt lat="59.8925605" lon="17.7016943">
        <ele>31.3801</ele>
        <time>2013-03-10T14:44:38Z</time>
      </trkpt>
      <trkpt lat="59.8925511" lon="17.7016757">
        <ele>31.3801</ele>
        <time>2013-03-10T14:44:39Z</time>
      </trkpt>
      <trkpt lat="59.8925411" lon="17.7016572">
        <ele>31.3801</ele>
        <time>2013-03-10T14:44:40Z</time>
      </trkpt>
      <trkpt lat="59.8925304" lon="17.7016385">
        <ele>31.3801</ele>
        <time>2013-03-10T14:44:41Z</time>
      </trkpt>
      <trkpt lat="59.8925201" lon="17.7016204">
        <ele>31.3801</ele>
        <time>2013-03-10T14:44:42Z</time>
      </trkpt>
      <trkpt lat="59.8925103" lon="17.7016029">
        <ele>31.3801</ele>
        <time>2013-03-10T14:44:43Z</time>
      </trkpt>
      <trkpt lat="59.8925007" lon="17.7015852">
        <ele>31.3801</ele>
        <time>2013-03-10T14:44:44Z</time>
      </trkpt>
      <trkpt lat="59.892491" lon="17.7015679">
        <ele>31.8607</ele>
        <time>2013-03-10T14:44:45Z</time>
      </trkpt>
      <trkpt lat="59.8924807" lon="17.7015503">
        <ele>31.8607</ele>
        <time>2013-03-10T14:44:46Z</time>
      </trkpt>
      <trkpt lat="59.8924704" lon="17.7015335">
        <ele>31.8607</ele>
        <time>2013-03-10T14:44:47Z</time>
      </trkpt>
      <trkpt lat="59.8924595" lon="17.7015178">
        <ele>31.8607</ele>
        <time>2013-03-10T14:44:48Z</time>
      </trkpt>
      <trkpt lat="59.8924487" lon="17.7015018">
        <ele>31.8607</ele>
        <time>2013-03-10T14:44:49Z</time>
      </trkpt>
      <trkpt lat="59.8924383" lon="17.7014858">
        <ele>31.8607</ele>
        <time>2013-03-10T14:44:50Z</time>
      </trkpt>
      <trkpt lat="59.8924273" lon="17.7014713">
        <ele>31.8607</ele>
        <time>2013-03-10T14:44:51Z</time>
      </trkpt>
      <trkpt lat="59.8924163" lon="17.7014562">
        <ele>31.3801</ele>
        <time>2013-03-10T14:44:52Z</time>
      </trkpt>
      <trkpt lat="59.8924044" lon="17.701442">
        <ele>31.8607</ele>
        <time>2013-03-10T14:44:53Z</time>
      </trkpt>
      <trkpt lat="59.8923916" lon="17.7014286">
        <ele>31.8607</ele>
        <time>2013-03-10T14:44:54Z</time>
      </trkpt>
      <trkpt lat="59.8923805" lon="17.7014107">
        <ele>31.8607</ele>
        <time>2013-03-10T14:44:55Z</time>
      </trkpt>
      <trkpt lat="59.8923714" lon="17.7013861">
        <ele>31.8607</ele>
        <time>2013-03-10T14:44:56Z</time>
      </trkpt>
      <trkpt lat="59.8923646" lon="17.7013667">
        <ele>31.8607</ele>
        <time>2013-03-10T14:44:57Z</time>
      </trkpt>
      <trkpt lat="59.8923577" lon="17.70135">
        <ele>31.3801</ele>
        <time>2013-03-10T14:44:58Z</time>
      </trkpt>
      <trkpt lat="59.8923526" lon="17.7013251">
        <ele>31.8607</ele>
        <time>2013-03-10T14:44:59Z</time>
      </trkpt>
      <trkpt lat="59.8923508" lon="17.7012997">
        <ele>31.8607</ele>
        <time>2013-03-10T14:45:00Z</time>
      </trkpt>
      <trkpt lat="59.8923527" lon="17.7012771">
        <ele>31.8607</ele>
        <time>2013-03-10T14:45:01Z</time>
      </trkpt>
      <trkpt lat="59.8923599" lon="17.7012521">
        <ele>31.8607</ele>
        <time>2013-03-10T14:45:02Z</time>
      </trkpt>
      <trkpt lat="59.892373" lon="17.7012177">
        <ele>31.8607</ele>
        <time>2013-03-10T14:45:03Z</time>
      </trkpt>
      <trkpt lat="59.892387" lon="17.7011785">
        <ele>31.8607</ele>
        <time>2013-03-10T14:45:04Z</time>
      </trkpt>
      <trkpt lat="59.8923977" lon="17.7011438">
        <ele>31.8607</ele>
        <time>2013-03-10T14:45:05Z</time>
      </trkpt>
      <trkpt lat="59.8924044" lon="17.7011095">
        <ele>31.8607</ele>
        <time>2013-03-10T14:45:06Z</time>
      </trkpt>
      <trkpt lat="59.8924088" lon="17.7010827">
        <ele>31.8607</ele>
        <time>2013-03-10T14:45:07Z</time>
      </trkpt>
      <trkpt lat="59.8924129" lon="17.7010532">
        <ele>31.3801</ele>
        <time>2013-03-10T14:45:08Z</time>
      </trkpt>
      <trkpt lat="59.8924205" lon="17.7010271">
        <ele>30.8995</ele>
        <time>2013-03-10T14:45:09Z</time>
      </trkpt>
      <trkpt lat="59.8924254" lon="17.7010075">
        <ele>30.8995</ele>
        <time>2013-03-10T14:45:10Z</time>
      </trkpt>
      <trkpt lat="59.8924294" lon="17.7009834">
        <ele>30.4188</ele>
        <time>2013-03-10T14:45:11Z</time>
      </trkpt>
      <trkpt lat="59.8924378" lon="17.7009569">
        <ele>29.9381</ele>
        <time>2013-03-10T14:45:12Z</time>
      </trkpt>
      <trkpt lat="59.8924439" lon="17.7009356">
        <ele>29.9381</ele>
        <time>2013-03-10T14:45:13Z</time>
      </trkpt>
      <trkpt lat="59.8924489" lon="17.7009169">
        <ele>29.4575</ele>
        <time>2013-03-10T14:45:14Z</time>
      </trkpt>
      <trkpt lat="59.8924564" lon="17.700895">
        <ele>28.9769</ele>
        <time>2013-03-10T14:45:15Z</time>
      </trkpt>
      <trkpt lat="59.8924657" lon="17.7008782">
        <ele>28.4962</ele>
        <time>2013-03-10T14:45:16Z</time>
      </trkpt>
      <trkpt lat="59.8924757" lon="17.7008734">
        <ele>28.4962</ele>
        <time>2013-03-10T14:45:17Z</time>
      </trkpt>
      <trkpt lat="59.8924822" lon="17.700876">
        <ele>28.4962</ele>
        <time>2013-03-10T14:45:18Z</time>
      </trkpt>
      <trkpt lat="59.8924881" lon="17.7008698">
        <ele>28.4962</ele>
        <time>2013-03-10T14:45:19Z</time>
      </trkpt>
      <trkpt lat="59.8924959" lon="17.7008605">
        <ele>28.4962</ele>
        <time>2013-03-10T14:45:20Z</time>
      </trkpt>
      <trkpt lat="59.8925036" lon="17.7008537">
        <ele>28.4962</ele>
        <time>2013-03-10T14:45:21Z</time>
      </trkpt>
      <trkpt lat="59.8925127" lon="17.7008475">
        <ele>28.4962</ele>
        <time>2013-03-10T14:45:22Z</time>
      </trkpt>
      <trkpt lat="59.8925214" lon="17.7008383">
        <ele>28.4962</ele>
        <time>2013-03-10T14:45:23Z</time>
      </trkpt>
      <trkpt lat="59.8925297" lon="17.7008242">
        <ele>28.4962</ele>
        <time>2013-03-10T14:45:24Z</time>
      </trkpt>
      <trkpt lat="59.8925408" lon="17.7008142">
        <ele>28.0155</ele>
        <time>2013-03-10T14:45:25Z</time>
      </trkpt>
      <trkpt lat="59.892549" lon="17.7007993">
        <ele>28.0155</ele>
        <time>2013-03-10T14:45:26Z</time>
      </trkpt>
      <trkpt lat="59.8925587" lon="17.7007837">
        <ele>27.5349</ele>
        <time>2013-03-10T14:45:27Z</time>
      </trkpt>
      <trkpt lat="59.892564" lon="17.7007615">
        <ele>27.5349</ele>
        <time>2013-03-10T14:45:28Z</time>
      </trkpt>
      <trkpt lat="59.8925767" lon="17.7007435">
        <ele>27.0543</ele>
        <time>2013-03-10T14:45:29Z</time>
      </trkpt>
      <trkpt lat="59.8925891" lon="17.7007243">
        <ele>26.5736</ele>
        <time>2013-03-10T14:45:30Z</time>
      </trkpt>
      <trkpt lat="59.8925989" lon="17.7007077">
        <ele>26.0929</ele>
        <time>2013-03-10T14:45:31Z</time>
      </trkpt>
      <trkpt lat="59.8926049" lon="17.7006878">
        <ele>26.0929</ele>
        <time>2013-03-10T14:45:32Z</time>
      </trkpt>
      <trkpt lat="59.8926098" lon="17.7006693">
        <ele>25.6123</ele>
        <time>2013-03-10T14:45:33Z</time>
      </trkpt>
      <trkpt lat="59.8926178" lon="17.7006529">
        <ele>25.1317</ele>
        <time>2013-03-10T14:45:34Z</time>
      </trkpt>
      <trkpt lat="59.8926217" lon="17.7006384">
        <ele>25.1317</ele>
        <time>2013-03-10T14:45:35Z</time>
      </trkpt>
      <trkpt lat="59.8926268" lon="17.7006204">
        <ele>25.1317</ele>
        <time>2013-03-10T14:45:36Z</time>
      </trkpt>
      <trkpt lat="59.8926344" lon="17.7005969">
        <ele>25.1317</ele>
        <time>2013-03-10T14:45:37Z</time>
      </trkpt>
      <trkpt lat="59.8926432" lon="17.7005736">
        <ele>24.651</ele>
        <time>2013-03-10T14:45:38Z</time>
      </trkpt>
      <trkpt lat="59.8926516" lon="17.7005517">
        <ele>25.1317</ele>
        <time>2013-03-10T14:45:39Z</time>
      </trkpt>
      <trkpt lat="59.8926588" lon="17.7005272">
        <ele>24.651</ele>
        <time>2013-03-10T14:45:40Z</time>
      </trkpt>
      <trkpt lat="59.8926692" lon="17.7005042">
        <ele>24.1703</ele>
        <time>2013-03-10T14:45:41Z</time>
      </trkpt>
      <trkpt lat="59.8926834" lon="17.7004912">
        <ele>24.1703</ele>
        <time>2013-03-10T14:45:42Z</time>
      </trkpt>
      <trkpt lat="59.8926939" lon="17.7004729">
        <ele>24.1703</ele>
        <time>2013-03-10T14:45:43Z</time>
      </trkpt>
      <trkpt lat="59.8927019" lon="17.7004524">
        <ele>24.1703</ele>
        <time>2013-03-10T14:45:44Z</time>
      </trkpt>
      <trkpt lat="59.8927122" lon="17.7004341">
        <ele>24.1703</ele>
        <time>2013-03-10T14:45:45Z</time>
      </trkpt>
      <trkpt lat="59.8927211" lon="17.7004137">
        <ele>24.651</ele>
        <time>2013-03-10T14:45:46Z</time>
      </trkpt>
      <trkpt lat="59.8927339" lon="17.7003999">
        <ele>24.651</ele>
        <time>2013-03-10T14:45:47Z</time>
      </trkpt>
      <trkpt lat="59.892744" lon="17.7003807">
        <ele>24.651</ele>
        <time>2013-03-10T14:45:48Z</time>
      </trkpt>
      <trkpt lat="59.8927532" lon="17.7003621">
        <ele>24.651</ele>
        <time>2013-03-10T14:45:49Z</time>
      </trkpt>
      <trkpt lat="59.8927628" lon="17.7003472">
        <ele>25.1317</ele>
        <time>2013-03-10T14:45:50Z</time>
      </trkpt>
      <trkpt lat="59.8927725" lon="17.70033">
        <ele>25.1317</ele>
        <time>2013-03-10T14:45:51Z</time>
      </trkpt>
      <trkpt lat="59.8927834" lon="17.7003109">
        <ele>25.1317</ele>
        <time>2013-03-10T14:45:52Z</time>
      </trkpt>
      <trkpt lat="59.892793" lon="17.7002921">
        <ele>25.6123</ele>
        <time>2013-03-10T14:45:53Z</time>
      </trkpt>
      <trkpt lat="59.8928024" lon="17.7002772">
        <ele>26.0929</ele>
        <time>2013-03-10T14:45:54Z</time>
      </trkpt>
      <trkpt lat="59.8928118" lon="17.7002612">
        <ele>26.0929</ele>
        <time>2013-03-10T14:45:55Z</time>
      </trkpt>
      <trkpt lat="59.8928178" lon="17.7002372">
        <ele>26.5736</ele>
        <time>2013-03-10T14:45:56Z</time>
      </trkpt>
      <trkpt lat="59.8928242" lon="17.7002131">
        <ele>26.5736</ele>
        <time>2013-03-10T14:45:57Z</time>
      </trkpt>
      <trkpt lat="59.8928309" lon="17.7001892">
        <ele>26.5736</ele>
        <time>2013-03-10T14:45:58Z</time>
      </trkpt>
      <trkpt lat="59.8928392" lon="17.7001677">
        <ele>27.0543</ele>
        <time>2013-03-10T14:45:59Z</time>
      </trkpt>
      <trkpt lat="59.8928486" lon="17.7001464">
        <ele>27.0543</ele>
        <time>2013-03-10T14:46:00Z</time>
      </trkpt>
      <trkpt lat="59.8928573" lon="17.7001242">
        <ele>27.5349</ele>
        <time>2013-03-10T14:46:01Z</time>
      </trkpt>
      <trkpt lat="59.892866" lon="17.7001014">
        <ele>27.5349</ele>
        <time>2013-03-10T14:46:02Z</time>
      </trkpt>
      <trkpt lat="59.8928754" lon="17.7000782">
        <ele>27.5349</ele>
        <time>2013-03-10T14:46:03Z</time>
      </trkpt>
      <trkpt lat="59.8928837" lon="17.7000534">
        <ele>27.0543</ele>
        <time>2013-03-10T14:46:04Z</time>
      </trkpt>
      <trkpt lat="59.8928919" lon="17.7000271">
        <ele>27.5349</ele>
        <time>2013-03-10T14:46:05Z</time>
      </trkpt>
      <trkpt lat="59.8929007" lon="17.7000045">
        <ele>27.5349</ele>
        <time>2013-03-10T14:46:06Z</time>
      </trkpt>
      <trkpt lat="59.8929084" lon="17.6999835">
        <ele>27.5349</ele>
        <time>2013-03-10T14:46:07Z</time>
      </trkpt>
      <trkpt lat="59.8929149" lon="17.6999628">
        <ele>28.0155</ele>
        <time>2013-03-10T14:46:08Z</time>
      </trkpt>
      <trkpt lat="59.8929213" lon="17.6999369">
        <ele>28.0155</ele>
        <time>2013-03-10T14:46:09Z</time>
      </trkpt>
      <trkpt lat="59.8929288" lon="17.6999133">
        <ele>28.4962</ele>
        <time>2013-03-10T14:46:10Z</time>
      </trkpt>
      <trkpt lat="59.892938" lon="17.6998939">
        <ele>28.4962</ele>
        <time>2013-03-10T14:46:11Z</time>
      </trkpt>
      <trkpt lat="59.8929462" lon="17.6998725">
        <ele>28.4962</ele>
        <time>2013-03-10T14:46:12Z</time>
      </trkpt>
      <trkpt lat="59.8929521" lon="17.6998519">
        <ele>28.9769</ele>
        <time>2013-03-10T14:46:13Z</time>
      </trkpt>
      <trkpt lat="59.8929568" lon="17.6998333">
        <ele>28.9769</ele>
        <time>2013-03-10T14:46:14Z</time>
      </trkpt>
      <trkpt lat="59.8929614" lon="17.6998146">
        <ele>29.4575</ele>
        <time>2013-03-10T14:46:15Z</time>
      </trkpt>
      <trkpt lat="59.8929671" lon="17.6997906">
        <ele>29.4575</ele>
        <time>2013-03-10T14:46:16Z</time>
      </trkpt>
      <trkpt lat="59.8929738" lon="17.6997654">
        <ele>29.4575</ele>
        <time>2013-03-10T14:46:17Z</time>
      </trkpt>
      <trkpt lat="59.8929811" lon="17.6997488">
        <ele>29.9381</ele>
        <time>2013-03-10T14:46:18Z</time>
      </trkpt>
      <trkpt lat="59.8929873" lon="17.6997263">
        <ele>29.9381</ele>
        <time>2013-03-10T14:46:19Z</time>
      </trkpt>
      <trkpt lat="59.8929949" lon="17.6997053">
        <ele>30.4188</ele>
        <time>2013-03-10T14:46:20Z</time>
      </trkpt>
      <trkpt lat="59.8930029" lon="17.6996851">
        <ele>30.4188</ele>
        <time>2013-03-10T14:46:21Z</time>
      </trkpt>
      <trkpt lat="59.8930107" lon="17.6996591">
        <ele>29.9381</ele>
        <time>2013-03-10T14:46:22Z</time>
      </trkpt>
      <trkpt lat="59.893018" lon="17.6996364">
        <ele>30.4188</ele>
        <time>2013-03-10T14:46:23Z</time>
      </trkpt>
      <trkpt lat="59.893025" lon="17.6996157">
        <ele>29.9381</ele>
        <time>2013-03-10T14:46:24Z</time>
      </trkpt>
      <trkpt lat="59.8930322" lon="17.699596">
        <ele>29.9381</ele>
        <time>2013-03-10T14:46:25Z</time>
      </trkpt>
      <trkpt lat="59.893039" lon="17.6995793">
        <ele>29.9381</ele>
        <time>2013-03-10T14:46:26Z</time>
      </trkpt>
      <trkpt lat="59.8930452" lon="17.6995639">
        <ele>29.9381</ele>
        <time>2013-03-10T14:46:27Z</time>
      </trkpt>
      <trkpt lat="59.8930511" lon="17.6995419">
        <ele>29.4575</ele>
        <time>2013-03-10T14:46:28Z</time>
      </trkpt>
      <trkpt lat="59.8930573" lon="17.6995168">
        <ele>29.4575</ele>
        <time>2013-03-10T14:46:29Z</time>
      </trkpt>
      <trkpt lat="59.8930638" lon="17.6994972">
        <ele>29.4575</ele>
        <time>2013-03-10T14:46:30Z</time>
      </trkpt>
      <trkpt lat="59.8930695" lon="17.6994796">
        <ele>29.9381</ele>
        <time>2013-03-10T14:46:31Z</time>
      </trkpt>
      <trkpt lat="59.8930759" lon="17.6994633">
        <ele>29.9381</ele>
        <time>2013-03-10T14:46:32Z</time>
      </trkpt>
      <trkpt lat="59.89308" lon="17.6994425">
        <ele>29.9381</ele>
        <time>2013-03-10T14:46:33Z</time>
      </trkpt>
      <trkpt lat="59.8930862" lon="17.6994256">
        <ele>29.9381</ele>
        <time>2013-03-10T14:46:34Z</time>
      </trkpt>
      <trkpt lat="59.893092" lon="17.6994039">
        <ele>29.9381</ele>
        <time>2013-03-10T14:46:35Z</time>
      </trkpt>
      <trkpt lat="59.8930993" lon="17.6993857">
        <ele>29.4575</ele>
        <time>2013-03-10T14:46:36Z</time>
      </trkpt>
      <trkpt lat="59.893106" lon="17.6993684">
        <ele>29.4575</ele>
        <time>2013-03-10T14:46:37Z</time>
      </trkpt>
      <trkpt lat="59.8931128" lon="17.6993504">
        <ele>28.9769</ele>
        <time>2013-03-10T14:46:38Z</time>
      </trkpt>
      <trkpt lat="59.8931201" lon="17.6993334">
        <ele>28.4962</ele>
        <time>2013-03-10T14:46:39Z</time>
      </trkpt>
      <trkpt lat="59.8931275" lon="17.6993193">
        <ele>28.4962</ele>
        <time>2013-03-10T14:46:40Z</time>
      </trkpt>
      <trkpt lat="59.8931354" lon="17.6993055">
        <ele>28.9769</ele>
        <time>2013-03-10T14:46:41Z</time>
      </trkpt>
      <trkpt lat="59.8931433" lon="17.6992899">
        <ele>28.4962</ele>
        <time>2013-03-10T14:46:42Z</time>
      </trkpt>
      <trkpt lat="59.8931526" lon="17.699276">
        <ele>28.9769</ele>
        <time>2013-03-10T14:46:43Z</time>
      </trkpt>
      <trkpt lat="59.8931615" lon="17.6992596">
        <ele>28.9769</ele>
        <time>2013-03-10T14:46:44Z</time>
      </trkpt>
      <trkpt lat="59.8931701" lon="17.6992416">
        <ele>29.4575</ele>
        <time>2013-03-10T14:46:45Z</time>
      </trkpt>
      <trkpt lat="59.8931803" lon="17.6992216">
        <ele>28.9769</ele>
        <time>2013-03-10T14:46:46Z</time>
      </trkpt>
      <trkpt lat="59.8931908" lon="17.6992026">
        <ele>29.4575</ele>
        <time>2013-03-10T14:46:47Z</time>
      </trkpt>
      <trkpt lat="59.8932" lon="17.6991852">
        <ele>29.9381</ele>
        <time>2013-03-10T14:46:48Z</time>
      </trkpt>
      <trkpt lat="59.8932086" lon="17.6991657">
        <ele>29.9381</ele>
        <time>2013-03-10T14:46:49Z</time>
      </trkpt>
      <trkpt lat="59.8932174" lon="17.6991449">
        <ele>29.9381</ele>
        <time>2013-03-10T14:46:50Z</time>
      </trkpt>
      <trkpt lat="59.8932256" lon="17.6991219">
        <ele>29.9381</ele>
        <time>2013-03-10T14:46:51Z</time>
      </trkpt>
      <trkpt lat="59.893233" lon="17.6991017">
        <ele>29.9381</ele>
        <time>2013-03-10T14:46:52Z</time>
      </trkpt>
      <trkpt lat="59.8932375" lon="17.6990831">
        <ele>30.4188</ele>
        <time>2013-03-10T14:46:53Z</time>
      </trkpt>
      <trkpt lat="59.8932382" lon="17.6990629">
        <ele>30.4188</ele>
        <time>2013-03-10T14:46:54Z</time>
      </trkpt>
      <trkpt lat="59.8932342" lon="17.6990468">
        <ele>30.8995</ele>
        <time>2013-03-10T14:46:55Z</time>
      </trkpt>
      <trkpt lat="59.8932313" lon="17.6990297">
        <ele>30.8995</ele>
        <time>2013-03-10T14:46:56Z</time>
      </trkpt>
      <trkpt lat="59.8932329" lon="17.6990086">
        <ele>31.3801</ele>
        <time>2013-03-10T14:46:57Z</time>
      </trkpt>
      <trkpt lat="59.893236" lon="17.698988">
        <ele>31.3801</ele>
        <time>2013-03-10T14:46:58Z</time>
      </trkpt>
      <trkpt lat="59.8932395" lon="17.6989664">
        <ele>31.3801</ele>
        <time>2013-03-10T14:46:59Z</time>
      </trkpt>
      <trkpt lat="59.8932412" lon="17.6989448">
        <ele>31.8607</ele>
        <time>2013-03-10T14:47:00Z</time>
      </trkpt>
      <trkpt lat="59.8932406" lon="17.6989237">
        <ele>31.8607</ele>
        <time>2013-03-10T14:47:01Z</time>
      </trkpt>
      <trkpt lat="59.8932391" lon="17.6989023">
        <ele>31.8607</ele>
        <time>2013-03-10T14:47:02Z</time>
      </trkpt>
      <trkpt lat="59.893236" lon="17.6988806">
        <ele>31.8607</ele>
        <time>2013-03-10T14:47:03Z</time>
      </trkpt>
      <trkpt lat="59.8932316" lon="17.6988597">
        <ele>31.8607</ele>
        <time>2013-03-10T14:47:04Z</time>
      </trkpt>
      <trkpt lat="59.8932272" lon="17.69884">
        <ele>32.3416</ele>
        <time>2013-03-10T14:47:05Z</time>
      </trkpt>
      <trkpt lat="59.8932239" lon="17.6988196">
        <ele>32.3416</ele>
        <time>2013-03-10T14:47:06Z</time>
      </trkpt>
      <trkpt lat="59.8932187" lon="17.6988054">
        <ele>32.3416</ele>
        <time>2013-03-10T14:47:07Z</time>
      </trkpt>
      <trkpt lat="59.8932102" lon="17.6987993">
        <ele>32.3416</ele>
        <time>2013-03-10T14:47:08Z</time>
      </trkpt>
    </trkseg>
  </trk>
</gpx>